<?xml version="1.0" encoding="UTF-8" standalone="no" ?>
<gpx xmlns="http://www.topografix.com/GPX/1/1" xmlns:xsi="http://www.w3.org/2001/XMLSchema-instance" xsi:schemaLocation="http://www.topografix.com/GPX/1/1 http://www.topografix.com/GPX/1/1/gpx.xsd" version="1.1" creator="VisuGPX - https://www.visugpx.com">
  <metadata>
    <name>Boucle Saou-Roche Colombe-Pas de l’Echelette</name>
    <desc><![CDATA[Boucle à faire par temps chaud, voire très chaud (ce qui fût le cas : 32°C) car essentiellement à l\'ombre des bois de la forêt de Saou.
Cette balade en boucle ne présente aucune difficulté et permet de voir, en son sommet, les 3 Becs à l\'autre bout de cette cuvette géologique.
Préférer le parking du village, cela évite de remonter sur la fin !]]></desc>
  </metadata>
  <trk>
    <name><![CDATA[Trace 1779783905000]]></name>
    <trkseg>
      <trkpt lat="44.65021" lon="5.05972">
        <ele>438</ele>
        <time>2026-05-26T08:25:05.000Z</time>
      </trkpt>
      <trkpt lat="44.65021" lon="5.05972">
        <ele>438</ele>
        <time>2026-05-26T08:25:06.000Z</time>
      </trkpt>
      <trkpt lat="44.65021" lon="5.05972">
        <ele>438</ele>
        <time>2026-05-26T08:25:07.000Z</time>
      </trkpt>
      <trkpt lat="44.65021" lon="5.05972">
        <ele>438</ele>
        <time>2026-05-26T08:25:08.000Z</time>
      </trkpt>
      <trkpt lat="44.65021" lon="5.05972">
        <ele>438</ele>
        <time>2026-05-26T08:25:09.000Z</time>
      </trkpt>
      <trkpt lat="44.65021" lon="5.05972">
        <ele>438</ele>
        <time>2026-05-26T08:25:10.000Z</time>
      </trkpt>
      <trkpt lat="44.65021" lon="5.05972">
        <ele>438</ele>
        <time>2026-05-26T08:25:11.000Z</time>
      </trkpt>
      <trkpt lat="44.65021" lon="5.05972">
        <ele>438</ele>
        <time>2026-05-26T08:25:12.000Z</time>
      </trkpt>
      <trkpt lat="44.65021" lon="5.05972">
        <ele>438</ele>
        <time>2026-05-26T08:25:13.000Z</time>
      </trkpt>
      <trkpt lat="44.65021" lon="5.05972">
        <ele>438</ele>
        <time>2026-05-26T08:25:14.000Z</time>
      </trkpt>
      <trkpt lat="44.65021" lon="5.05972">
        <ele>438</ele>
        <time>2026-05-26T08:25:15.000Z</time>
      </trkpt>
      <trkpt lat="44.65021" lon="5.05972">
        <ele>438</ele>
        <time>2026-05-26T08:25:16.000Z</time>
      </trkpt>
      <trkpt lat="44.65021" lon="5.05972">
        <ele>438</ele>
        <time>2026-05-26T08:25:17.000Z</time>
      </trkpt>
      <trkpt lat="44.65022" lon="5.05974">
        <ele>436</ele>
        <time>2026-05-26T08:25:18.000Z</time>
      </trkpt>
      <trkpt lat="44.65022" lon="5.05974">
        <ele>437</ele>
        <time>2026-05-26T08:25:19.000Z</time>
      </trkpt>
      <trkpt lat="44.65023" lon="5.05974">
        <ele>436</ele>
        <time>2026-05-26T08:25:20.000Z</time>
      </trkpt>
      <trkpt lat="44.65024" lon="5.05975">
        <ele>437</ele>
        <time>2026-05-26T08:25:21.000Z</time>
      </trkpt>
      <trkpt lat="44.65025" lon="5.05975">
        <ele>437</ele>
        <time>2026-05-26T08:25:22.000Z</time>
      </trkpt>
      <trkpt lat="44.65027" lon="5.05976">
        <ele>437</ele>
        <time>2026-05-26T08:25:23.000Z</time>
      </trkpt>
      <trkpt lat="44.65029" lon="5.05977">
        <ele>436</ele>
        <time>2026-05-26T08:25:24.000Z</time>
      </trkpt>
      <trkpt lat="44.6503" lon="5.05978">
        <ele>436</ele>
        <time>2026-05-26T08:25:25.000Z</time>
      </trkpt>
      <trkpt lat="44.65031" lon="5.05979">
        <ele>436</ele>
        <time>2026-05-26T08:25:26.000Z</time>
      </trkpt>
      <trkpt lat="44.65031" lon="5.05979">
        <ele>436</ele>
        <time>2026-05-26T08:25:27.000Z</time>
      </trkpt>
      <trkpt lat="44.65031" lon="5.05979">
        <ele>436</ele>
        <time>2026-05-26T08:25:28.000Z</time>
      </trkpt>
      <trkpt lat="44.6503" lon="5.05978">
        <ele>436</ele>
        <time>2026-05-26T08:25:29.000Z</time>
      </trkpt>
      <trkpt lat="44.65031" lon="5.05979">
        <ele>437</ele>
        <time>2026-05-26T08:25:30.000Z</time>
      </trkpt>
      <trkpt lat="44.65033" lon="5.0598">
        <ele>437</ele>
        <time>2026-05-26T08:25:31.000Z</time>
      </trkpt>
      <trkpt lat="44.65034" lon="5.0598">
        <ele>437</ele>
        <time>2026-05-26T08:25:32.000Z</time>
      </trkpt>
      <trkpt lat="44.65035" lon="5.05979">
        <ele>437</ele>
        <time>2026-05-26T08:25:33.000Z</time>
      </trkpt>
      <trkpt lat="44.65036" lon="5.05979">
        <ele>437</ele>
        <time>2026-05-26T08:25:34.000Z</time>
      </trkpt>
      <trkpt lat="44.65037" lon="5.05979">
        <ele>437</ele>
        <time>2026-05-26T08:25:35.000Z</time>
      </trkpt>
      <trkpt lat="44.65038" lon="5.05978">
        <ele>437</ele>
        <time>2026-05-26T08:25:36.000Z</time>
      </trkpt>
      <trkpt lat="44.65039" lon="5.05978">
        <ele>438</ele>
        <time>2026-05-26T08:25:37.000Z</time>
      </trkpt>
      <trkpt lat="44.65039" lon="5.05977">
        <ele>438</ele>
        <time>2026-05-26T08:25:38.000Z</time>
      </trkpt>
      <trkpt lat="44.65039" lon="5.05977">
        <ele>438</ele>
        <time>2026-05-26T08:25:39.000Z</time>
      </trkpt>
      <trkpt lat="44.6504" lon="5.05976">
        <ele>438</ele>
        <time>2026-05-26T08:25:40.000Z</time>
      </trkpt>
      <trkpt lat="44.65041" lon="5.05976">
        <ele>437</ele>
        <time>2026-05-26T08:25:41.000Z</time>
      </trkpt>
      <trkpt lat="44.65042" lon="5.05976">
        <ele>437</ele>
        <time>2026-05-26T08:25:42.000Z</time>
      </trkpt>
      <trkpt lat="44.65044" lon="5.05975">
        <ele>437</ele>
        <time>2026-05-26T08:25:43.000Z</time>
      </trkpt>
      <trkpt lat="44.65045" lon="5.05976">
        <ele>437</ele>
        <time>2026-05-26T08:25:44.000Z</time>
      </trkpt>
      <trkpt lat="44.65047" lon="5.05976">
        <ele>438</ele>
        <time>2026-05-26T08:25:45.000Z</time>
      </trkpt>
      <trkpt lat="44.65047" lon="5.05975">
        <ele>438</ele>
        <time>2026-05-26T08:25:46.000Z</time>
      </trkpt>
      <trkpt lat="44.65048" lon="5.05976">
        <ele>438</ele>
        <time>2026-05-26T08:25:47.000Z</time>
      </trkpt>
      <trkpt lat="44.65048" lon="5.05977">
        <ele>437</ele>
        <time>2026-05-26T08:25:48.000Z</time>
      </trkpt>
      <trkpt lat="44.65049" lon="5.05977">
        <ele>437</ele>
        <time>2026-05-26T08:25:49.000Z</time>
      </trkpt>
      <trkpt lat="44.6505" lon="5.05976">
        <ele>437</ele>
        <time>2026-05-26T08:25:50.000Z</time>
      </trkpt>
      <trkpt lat="44.65052" lon="5.05975">
        <ele>438</ele>
        <time>2026-05-26T08:25:51.000Z</time>
      </trkpt>
      <trkpt lat="44.65053" lon="5.05975">
        <ele>438</ele>
        <time>2026-05-26T08:25:52.000Z</time>
      </trkpt>
      <trkpt lat="44.65054" lon="5.05975">
        <ele>438</ele>
        <time>2026-05-26T08:25:53.000Z</time>
      </trkpt>
      <trkpt lat="44.65056" lon="5.05976">
        <ele>438</ele>
        <time>2026-05-26T08:25:54.000Z</time>
      </trkpt>
      <trkpt lat="44.65057" lon="5.05975">
        <ele>438</ele>
        <time>2026-05-26T08:25:55.000Z</time>
      </trkpt>
      <trkpt lat="44.65058" lon="5.05975">
        <ele>438</ele>
        <time>2026-05-26T08:25:56.000Z</time>
      </trkpt>
      <trkpt lat="44.65059" lon="5.05975">
        <ele>439</ele>
        <time>2026-05-26T08:25:57.000Z</time>
      </trkpt>
      <trkpt lat="44.65059" lon="5.05974">
        <ele>439</ele>
        <time>2026-05-26T08:25:58.000Z</time>
      </trkpt>
      <trkpt lat="44.6506" lon="5.05974">
        <ele>439</ele>
        <time>2026-05-26T08:25:59.000Z</time>
      </trkpt>
      <trkpt lat="44.6506" lon="5.05974">
        <ele>439</ele>
        <time>2026-05-26T08:26:00.000Z</time>
      </trkpt>
      <trkpt lat="44.6506" lon="5.05975">
        <ele>439</ele>
        <time>2026-05-26T08:26:01.000Z</time>
      </trkpt>
      <trkpt lat="44.65061" lon="5.05975">
        <ele>440</ele>
        <time>2026-05-26T08:26:02.000Z</time>
      </trkpt>
      <trkpt lat="44.65061" lon="5.05975">
        <ele>440</ele>
        <time>2026-05-26T08:26:03.000Z</time>
      </trkpt>
      <trkpt lat="44.65062" lon="5.05975">
        <ele>440</ele>
        <time>2026-05-26T08:26:04.000Z</time>
      </trkpt>
      <trkpt lat="44.65063" lon="5.05976">
        <ele>441</ele>
        <time>2026-05-26T08:26:05.000Z</time>
      </trkpt>
      <trkpt lat="44.65064" lon="5.05974">
        <ele>441</ele>
        <time>2026-05-26T08:26:06.000Z</time>
      </trkpt>
      <trkpt lat="44.65064" lon="5.05974">
        <ele>440</ele>
        <time>2026-05-26T08:26:07.000Z</time>
      </trkpt>
      <trkpt lat="44.65063" lon="5.05973">
        <ele>440</ele>
        <time>2026-05-26T08:26:08.000Z</time>
      </trkpt>
      <trkpt lat="44.65064" lon="5.05973">
        <ele>440</ele>
        <time>2026-05-26T08:26:09.000Z</time>
      </trkpt>
      <trkpt lat="44.65065" lon="5.05973">
        <ele>440</ele>
        <time>2026-05-26T08:26:10.000Z</time>
      </trkpt>
      <trkpt lat="44.65066" lon="5.05973">
        <ele>440</ele>
        <time>2026-05-26T08:26:11.000Z</time>
      </trkpt>
      <trkpt lat="44.65067" lon="5.05973">
        <ele>441</ele>
        <time>2026-05-26T08:26:12.000Z</time>
      </trkpt>
      <trkpt lat="44.65068" lon="5.05973">
        <ele>441</ele>
        <time>2026-05-26T08:26:13.000Z</time>
      </trkpt>
      <trkpt lat="44.65068" lon="5.05973">
        <ele>442</ele>
        <time>2026-05-26T08:26:14.000Z</time>
      </trkpt>
      <trkpt lat="44.6507" lon="5.05972">
        <ele>442</ele>
        <time>2026-05-26T08:26:15.000Z</time>
      </trkpt>
      <trkpt lat="44.65072" lon="5.05971">
        <ele>442</ele>
        <time>2026-05-26T08:26:16.000Z</time>
      </trkpt>
      <trkpt lat="44.65074" lon="5.05969">
        <ele>442</ele>
        <time>2026-05-26T08:26:17.000Z</time>
      </trkpt>
      <trkpt lat="44.65074" lon="5.05969">
        <ele>442</ele>
        <time>2026-05-26T08:26:18.000Z</time>
      </trkpt>
      <trkpt lat="44.65075" lon="5.05969">
        <ele>442</ele>
        <time>2026-05-26T08:26:19.000Z</time>
      </trkpt>
      <trkpt lat="44.65074" lon="5.05969">
        <ele>442</ele>
        <time>2026-05-26T08:26:20.000Z</time>
      </trkpt>
      <trkpt lat="44.65075" lon="5.05968">
        <ele>442</ele>
        <time>2026-05-26T08:26:21.000Z</time>
      </trkpt>
      <trkpt lat="44.65076" lon="5.05968">
        <ele>442</ele>
        <time>2026-05-26T08:26:22.000Z</time>
      </trkpt>
      <trkpt lat="44.65077" lon="5.05968">
        <ele>442</ele>
        <time>2026-05-26T08:26:23.000Z</time>
      </trkpt>
      <trkpt lat="44.65078" lon="5.05967">
        <ele>443</ele>
        <time>2026-05-26T08:26:24.000Z</time>
      </trkpt>
      <trkpt lat="44.6508" lon="5.05968">
        <ele>443</ele>
        <time>2026-05-26T08:26:25.000Z</time>
      </trkpt>
      <trkpt lat="44.65081" lon="5.05968">
        <ele>442</ele>
        <time>2026-05-26T08:26:26.000Z</time>
      </trkpt>
      <trkpt lat="44.65081" lon="5.05968">
        <ele>443</ele>
        <time>2026-05-26T08:26:27.000Z</time>
      </trkpt>
      <trkpt lat="44.65081" lon="5.05968">
        <ele>442</ele>
        <time>2026-05-26T08:26:28.000Z</time>
      </trkpt>
      <trkpt lat="44.65082" lon="5.05967">
        <ele>443</ele>
        <time>2026-05-26T08:26:29.000Z</time>
      </trkpt>
      <trkpt lat="44.65082" lon="5.05967">
        <ele>443</ele>
        <time>2026-05-26T08:26:30.000Z</time>
      </trkpt>
      <trkpt lat="44.65082" lon="5.05966">
        <ele>443</ele>
        <time>2026-05-26T08:26:31.000Z</time>
      </trkpt>
      <trkpt lat="44.65082" lon="5.05965">
        <ele>443</ele>
        <time>2026-05-26T08:26:32.000Z</time>
      </trkpt>
      <trkpt lat="44.65083" lon="5.05966">
        <ele>444</ele>
        <time>2026-05-26T08:26:33.000Z</time>
      </trkpt>
      <trkpt lat="44.65084" lon="5.05966">
        <ele>444</ele>
        <time>2026-05-26T08:26:34.000Z</time>
      </trkpt>
      <trkpt lat="44.65085" lon="5.05965">
        <ele>444</ele>
        <time>2026-05-26T08:26:35.000Z</time>
      </trkpt>
      <trkpt lat="44.65085" lon="5.05965">
        <ele>444</ele>
        <time>2026-05-26T08:26:36.000Z</time>
      </trkpt>
      <trkpt lat="44.65085" lon="5.05966">
        <ele>444</ele>
        <time>2026-05-26T08:26:37.000Z</time>
      </trkpt>
      <trkpt lat="44.65085" lon="5.05966">
        <ele>445</ele>
        <time>2026-05-26T08:26:38.000Z</time>
      </trkpt>
      <trkpt lat="44.65086" lon="5.05967">
        <ele>446</ele>
        <time>2026-05-26T08:26:39.000Z</time>
      </trkpt>
      <trkpt lat="44.65086" lon="5.05967">
        <ele>446</ele>
        <time>2026-05-26T08:26:40.000Z</time>
      </trkpt>
      <trkpt lat="44.65086" lon="5.05967">
        <ele>446</ele>
        <time>2026-05-26T08:26:41.000Z</time>
      </trkpt>
      <trkpt lat="44.65088" lon="5.05967">
        <ele>446</ele>
        <time>2026-05-26T08:26:42.000Z</time>
      </trkpt>
      <trkpt lat="44.65089" lon="5.05968">
        <ele>446</ele>
        <time>2026-05-26T08:26:43.000Z</time>
      </trkpt>
      <trkpt lat="44.65091" lon="5.05967">
        <ele>446</ele>
        <time>2026-05-26T08:26:44.000Z</time>
      </trkpt>
      <trkpt lat="44.65092" lon="5.05967">
        <ele>446</ele>
        <time>2026-05-26T08:26:45.000Z</time>
      </trkpt>
      <trkpt lat="44.65093" lon="5.05967">
        <ele>446</ele>
        <time>2026-05-26T08:26:46.000Z</time>
      </trkpt>
      <trkpt lat="44.65094" lon="5.05967">
        <ele>446</ele>
        <time>2026-05-26T08:26:47.000Z</time>
      </trkpt>
      <trkpt lat="44.65094" lon="5.05967">
        <ele>447</ele>
        <time>2026-05-26T08:26:48.000Z</time>
      </trkpt>
      <trkpt lat="44.65094" lon="5.05967">
        <ele>446</ele>
        <time>2026-05-26T08:26:49.000Z</time>
      </trkpt>
      <trkpt lat="44.65094" lon="5.05967">
        <ele>446</ele>
        <time>2026-05-26T08:26:50.000Z</time>
      </trkpt>
      <trkpt lat="44.65095" lon="5.05966">
        <ele>446</ele>
        <time>2026-05-26T08:26:51.000Z</time>
      </trkpt>
      <trkpt lat="44.65095" lon="5.05967">
        <ele>446</ele>
        <time>2026-05-26T08:26:52.000Z</time>
      </trkpt>
      <trkpt lat="44.65095" lon="5.05966">
        <ele>446</ele>
        <time>2026-05-26T08:26:53.000Z</time>
      </trkpt>
      <trkpt lat="44.65097" lon="5.05965">
        <ele>446</ele>
        <time>2026-05-26T08:26:54.000Z</time>
      </trkpt>
      <trkpt lat="44.65099" lon="5.05965">
        <ele>447</ele>
        <time>2026-05-26T08:26:55.000Z</time>
      </trkpt>
      <trkpt lat="44.651" lon="5.05966">
        <ele>446</ele>
        <time>2026-05-26T08:26:56.000Z</time>
      </trkpt>
      <trkpt lat="44.65101" lon="5.05965">
        <ele>447</ele>
        <time>2026-05-26T08:26:57.000Z</time>
      </trkpt>
      <trkpt lat="44.65102" lon="5.05965">
        <ele>448</ele>
        <time>2026-05-26T08:26:58.000Z</time>
      </trkpt>
      <trkpt lat="44.65102" lon="5.05965">
        <ele>448</ele>
        <time>2026-05-26T08:26:59.000Z</time>
      </trkpt>
      <trkpt lat="44.65102" lon="5.05964">
        <ele>448</ele>
        <time>2026-05-26T08:27:00.000Z</time>
      </trkpt>
      <trkpt lat="44.65102" lon="5.05965">
        <ele>448</ele>
        <time>2026-05-26T08:27:01.000Z</time>
      </trkpt>
      <trkpt lat="44.651" lon="5.05965">
        <ele>448</ele>
        <time>2026-05-26T08:27:02.000Z</time>
      </trkpt>
      <trkpt lat="44.651" lon="5.05965">
        <ele>448</ele>
        <time>2026-05-26T08:27:03.000Z</time>
      </trkpt>
      <trkpt lat="44.65101" lon="5.05965">
        <ele>448</ele>
        <time>2026-05-26T08:27:04.000Z</time>
      </trkpt>
      <trkpt lat="44.65101" lon="5.05966">
        <ele>449</ele>
        <time>2026-05-26T08:27:05.000Z</time>
      </trkpt>
      <trkpt lat="44.65099" lon="5.05968">
        <ele>449</ele>
        <time>2026-05-26T08:27:06.000Z</time>
      </trkpt>
      <trkpt lat="44.65098" lon="5.05968">
        <ele>449</ele>
        <time>2026-05-26T08:27:07.000Z</time>
      </trkpt>
      <trkpt lat="44.65098" lon="5.05969">
        <ele>449</ele>
        <time>2026-05-26T08:27:08.000Z</time>
      </trkpt>
      <trkpt lat="44.65097" lon="5.0597">
        <ele>450</ele>
        <time>2026-05-26T08:27:09.000Z</time>
      </trkpt>
      <trkpt lat="44.65098" lon="5.05971">
        <ele>450</ele>
        <time>2026-05-26T08:27:10.000Z</time>
      </trkpt>
      <trkpt lat="44.65098" lon="5.05971">
        <ele>450</ele>
        <time>2026-05-26T08:27:11.000Z</time>
      </trkpt>
      <trkpt lat="44.65098" lon="5.0597">
        <ele>450</ele>
        <time>2026-05-26T08:27:12.000Z</time>
      </trkpt>
      <trkpt lat="44.65098" lon="5.0597">
        <ele>450</ele>
        <time>2026-05-26T08:27:13.000Z</time>
      </trkpt>
      <trkpt lat="44.65098" lon="5.0597">
        <ele>450</ele>
        <time>2026-05-26T08:27:14.000Z</time>
      </trkpt>
      <trkpt lat="44.65098" lon="5.0597">
        <ele>450</ele>
        <time>2026-05-26T08:27:15.000Z</time>
      </trkpt>
      <trkpt lat="44.65098" lon="5.0597">
        <ele>450</ele>
        <time>2026-05-26T08:27:16.000Z</time>
      </trkpt>
      <trkpt lat="44.65098" lon="5.0597">
        <ele>450</ele>
        <time>2026-05-26T08:27:17.000Z</time>
      </trkpt>
      <trkpt lat="44.65098" lon="5.0597">
        <ele>450</ele>
        <time>2026-05-26T08:27:18.000Z</time>
      </trkpt>
      <trkpt lat="44.65098" lon="5.0597">
        <ele>450</ele>
        <time>2026-05-26T08:27:19.000Z</time>
      </trkpt>
      <trkpt lat="44.65098" lon="5.0597">
        <ele>450</ele>
        <time>2026-05-26T08:27:20.000Z</time>
      </trkpt>
      <trkpt lat="44.65098" lon="5.0597">
        <ele>450</ele>
        <time>2026-05-26T08:27:21.000Z</time>
      </trkpt>
      <trkpt lat="44.65098" lon="5.0597">
        <ele>450</ele>
        <time>2026-05-26T08:27:22.000Z</time>
      </trkpt>
      <trkpt lat="44.651" lon="5.05971">
        <ele>450</ele>
        <time>2026-05-26T08:27:23.000Z</time>
      </trkpt>
      <trkpt lat="44.651" lon="5.05971">
        <ele>450</ele>
        <time>2026-05-26T08:27:24.000Z</time>
      </trkpt>
      <trkpt lat="44.651" lon="5.05971">
        <ele>450</ele>
        <time>2026-05-26T08:27:25.000Z</time>
      </trkpt>
      <trkpt lat="44.65101" lon="5.05973">
        <ele>450</ele>
        <time>2026-05-26T08:27:26.000Z</time>
      </trkpt>
      <trkpt lat="44.65101" lon="5.05973">
        <ele>450</ele>
        <time>2026-05-26T08:27:27.000Z</time>
      </trkpt>
      <trkpt lat="44.65102" lon="5.05974">
        <ele>449</ele>
        <time>2026-05-26T08:27:28.000Z</time>
      </trkpt>
      <trkpt lat="44.65101" lon="5.05975">
        <ele>449</ele>
        <time>2026-05-26T08:27:29.000Z</time>
      </trkpt>
      <trkpt lat="44.65101" lon="5.05975">
        <ele>450</ele>
        <time>2026-05-26T08:27:30.000Z</time>
      </trkpt>
      <trkpt lat="44.65101" lon="5.05975">
        <ele>450</ele>
        <time>2026-05-26T08:27:31.000Z</time>
      </trkpt>
      <trkpt lat="44.651" lon="5.05975">
        <ele>450</ele>
        <time>2026-05-26T08:27:32.000Z</time>
      </trkpt>
      <trkpt lat="44.65101" lon="5.05974">
        <ele>450</ele>
        <time>2026-05-26T08:27:33.000Z</time>
      </trkpt>
      <trkpt lat="44.65102" lon="5.05973">
        <ele>449</ele>
        <time>2026-05-26T08:27:34.000Z</time>
      </trkpt>
      <trkpt lat="44.65103" lon="5.05972">
        <ele>449</ele>
        <time>2026-05-26T08:27:35.000Z</time>
      </trkpt>
      <trkpt lat="44.65104" lon="5.05972">
        <ele>450</ele>
        <time>2026-05-26T08:27:36.000Z</time>
      </trkpt>
      <trkpt lat="44.65105" lon="5.0597">
        <ele>450</ele>
        <time>2026-05-26T08:27:37.000Z</time>
      </trkpt>
      <trkpt lat="44.65106" lon="5.0597">
        <ele>451</ele>
        <time>2026-05-26T08:27:38.000Z</time>
      </trkpt>
      <trkpt lat="44.65107" lon="5.0597">
        <ele>450</ele>
        <time>2026-05-26T08:27:39.000Z</time>
      </trkpt>
      <trkpt lat="44.65108" lon="5.0597">
        <ele>450</ele>
        <time>2026-05-26T08:27:40.000Z</time>
      </trkpt>
      <trkpt lat="44.65108" lon="5.05969">
        <ele>451</ele>
        <time>2026-05-26T08:27:41.000Z</time>
      </trkpt>
      <trkpt lat="44.65109" lon="5.05969">
        <ele>451</ele>
        <time>2026-05-26T08:27:42.000Z</time>
      </trkpt>
      <trkpt lat="44.65109" lon="5.05969">
        <ele>451</ele>
        <time>2026-05-26T08:27:43.000Z</time>
      </trkpt>
      <trkpt lat="44.65109" lon="5.05967">
        <ele>451</ele>
        <time>2026-05-26T08:27:44.000Z</time>
      </trkpt>
      <trkpt lat="44.65109" lon="5.05967">
        <ele>452</ele>
        <time>2026-05-26T08:27:45.000Z</time>
      </trkpt>
      <trkpt lat="44.65109" lon="5.05966">
        <ele>452</ele>
        <time>2026-05-26T08:27:46.000Z</time>
      </trkpt>
      <trkpt lat="44.65109" lon="5.05965">
        <ele>452</ele>
        <time>2026-05-26T08:27:47.000Z</time>
      </trkpt>
      <trkpt lat="44.65109" lon="5.05962">
        <ele>452</ele>
        <time>2026-05-26T08:27:48.000Z</time>
      </trkpt>
      <trkpt lat="44.65108" lon="5.0596">
        <ele>452</ele>
        <time>2026-05-26T08:27:49.000Z</time>
      </trkpt>
      <trkpt lat="44.65109" lon="5.05958">
        <ele>452</ele>
        <time>2026-05-26T08:27:50.000Z</time>
      </trkpt>
      <trkpt lat="44.65109" lon="5.05955">
        <ele>451</ele>
        <time>2026-05-26T08:27:51.000Z</time>
      </trkpt>
      <trkpt lat="44.65109" lon="5.05952">
        <ele>451</ele>
        <time>2026-05-26T08:27:52.000Z</time>
      </trkpt>
      <trkpt lat="44.6511" lon="5.05951">
        <ele>451</ele>
        <time>2026-05-26T08:27:53.000Z</time>
      </trkpt>
      <trkpt lat="44.6511" lon="5.05948">
        <ele>450</ele>
        <time>2026-05-26T08:27:54.000Z</time>
      </trkpt>
      <trkpt lat="44.65109" lon="5.05947">
        <ele>451</ele>
        <time>2026-05-26T08:27:55.000Z</time>
      </trkpt>
      <trkpt lat="44.65109" lon="5.05947">
        <ele>450</ele>
        <time>2026-05-26T08:27:56.000Z</time>
      </trkpt>
      <trkpt lat="44.6511" lon="5.05945">
        <ele>450</ele>
        <time>2026-05-26T08:27:57.000Z</time>
      </trkpt>
      <trkpt lat="44.6511" lon="5.05945">
        <ele>451</ele>
        <time>2026-05-26T08:27:58.000Z</time>
      </trkpt>
      <trkpt lat="44.65111" lon="5.05944">
        <ele>451</ele>
        <time>2026-05-26T08:27:59.000Z</time>
      </trkpt>
      <trkpt lat="44.65111" lon="5.05943">
        <ele>451</ele>
        <time>2026-05-26T08:28:00.000Z</time>
      </trkpt>
      <trkpt lat="44.65112" lon="5.05942">
        <ele>450</ele>
        <time>2026-05-26T08:28:01.000Z</time>
      </trkpt>
      <trkpt lat="44.65112" lon="5.05941">
        <ele>450</ele>
        <time>2026-05-26T08:28:02.000Z</time>
      </trkpt>
      <trkpt lat="44.6511" lon="5.0594">
        <ele>451</ele>
        <time>2026-05-26T08:28:03.000Z</time>
      </trkpt>
      <trkpt lat="44.6511" lon="5.05939">
        <ele>451</ele>
        <time>2026-05-26T08:28:04.000Z</time>
      </trkpt>
      <trkpt lat="44.6511" lon="5.05938">
        <ele>451</ele>
        <time>2026-05-26T08:28:05.000Z</time>
      </trkpt>
      <trkpt lat="44.65109" lon="5.05936">
        <ele>451</ele>
        <time>2026-05-26T08:28:06.000Z</time>
      </trkpt>
      <trkpt lat="44.65108" lon="5.05935">
        <ele>451</ele>
        <time>2026-05-26T08:28:07.000Z</time>
      </trkpt>
      <trkpt lat="44.65108" lon="5.05935">
        <ele>451</ele>
        <time>2026-05-26T08:28:08.000Z</time>
      </trkpt>
      <trkpt lat="44.65107" lon="5.05934">
        <ele>452</ele>
        <time>2026-05-26T08:28:09.000Z</time>
      </trkpt>
      <trkpt lat="44.65107" lon="5.05932">
        <ele>453</ele>
        <time>2026-05-26T08:28:10.000Z</time>
      </trkpt>
      <trkpt lat="44.65107" lon="5.0593">
        <ele>454</ele>
        <time>2026-05-26T08:28:11.000Z</time>
      </trkpt>
      <trkpt lat="44.65107" lon="5.05929">
        <ele>454</ele>
        <time>2026-05-26T08:28:12.000Z</time>
      </trkpt>
      <trkpt lat="44.65106" lon="5.05929">
        <ele>453</ele>
        <time>2026-05-26T08:28:13.000Z</time>
      </trkpt>
      <trkpt lat="44.65105" lon="5.05928">
        <ele>453</ele>
        <time>2026-05-26T08:28:14.000Z</time>
      </trkpt>
      <trkpt lat="44.65104" lon="5.05927">
        <ele>454</ele>
        <time>2026-05-26T08:28:15.000Z</time>
      </trkpt>
      <trkpt lat="44.65104" lon="5.05925">
        <ele>453</ele>
        <time>2026-05-26T08:28:16.000Z</time>
      </trkpt>
      <trkpt lat="44.65104" lon="5.05925">
        <ele>453</ele>
        <time>2026-05-26T08:28:17.000Z</time>
      </trkpt>
      <trkpt lat="44.65104" lon="5.05924">
        <ele>453</ele>
        <time>2026-05-26T08:28:18.000Z</time>
      </trkpt>
      <trkpt lat="44.65103" lon="5.05923">
        <ele>452</ele>
        <time>2026-05-26T08:28:19.000Z</time>
      </trkpt>
      <trkpt lat="44.65104" lon="5.05921">
        <ele>453</ele>
        <time>2026-05-26T08:28:20.000Z</time>
      </trkpt>
      <trkpt lat="44.65104" lon="5.0592">
        <ele>453</ele>
        <time>2026-05-26T08:28:21.000Z</time>
      </trkpt>
      <trkpt lat="44.65104" lon="5.05919">
        <ele>453</ele>
        <time>2026-05-26T08:28:22.000Z</time>
      </trkpt>
      <trkpt lat="44.65104" lon="5.05918">
        <ele>453</ele>
        <time>2026-05-26T08:28:23.000Z</time>
      </trkpt>
      <trkpt lat="44.65104" lon="5.05917">
        <ele>453</ele>
        <time>2026-05-26T08:28:24.000Z</time>
      </trkpt>
      <trkpt lat="44.65104" lon="5.05915">
        <ele>453</ele>
        <time>2026-05-26T08:28:25.000Z</time>
      </trkpt>
      <trkpt lat="44.65104" lon="5.05914">
        <ele>452</ele>
        <time>2026-05-26T08:28:26.000Z</time>
      </trkpt>
      <trkpt lat="44.65103" lon="5.05914">
        <ele>452</ele>
        <time>2026-05-26T08:28:27.000Z</time>
      </trkpt>
      <trkpt lat="44.65103" lon="5.05913">
        <ele>452</ele>
        <time>2026-05-26T08:28:28.000Z</time>
      </trkpt>
      <trkpt lat="44.65103" lon="5.05913">
        <ele>452</ele>
        <time>2026-05-26T08:28:29.000Z</time>
      </trkpt>
      <trkpt lat="44.65103" lon="5.05912">
        <ele>452</ele>
        <time>2026-05-26T08:28:30.000Z</time>
      </trkpt>
      <trkpt lat="44.65103" lon="5.05911">
        <ele>453</ele>
        <time>2026-05-26T08:28:31.000Z</time>
      </trkpt>
      <trkpt lat="44.65101" lon="5.05909">
        <ele>453</ele>
        <time>2026-05-26T08:28:32.000Z</time>
      </trkpt>
      <trkpt lat="44.651" lon="5.05907">
        <ele>453</ele>
        <time>2026-05-26T08:28:33.000Z</time>
      </trkpt>
      <trkpt lat="44.65099" lon="5.05907">
        <ele>453</ele>
        <time>2026-05-26T08:28:34.000Z</time>
      </trkpt>
      <trkpt lat="44.65099" lon="5.05906">
        <ele>454</ele>
        <time>2026-05-26T08:28:35.000Z</time>
      </trkpt>
      <trkpt lat="44.65098" lon="5.05905">
        <ele>456</ele>
        <time>2026-05-26T08:28:36.000Z</time>
      </trkpt>
      <trkpt lat="44.65098" lon="5.05904">
        <ele>457</ele>
        <time>2026-05-26T08:28:37.000Z</time>
      </trkpt>
      <trkpt lat="44.65096" lon="5.05903">
        <ele>458</ele>
        <time>2026-05-26T08:28:38.000Z</time>
      </trkpt>
      <trkpt lat="44.65095" lon="5.05902">
        <ele>458</ele>
        <time>2026-05-26T08:28:39.000Z</time>
      </trkpt>
      <trkpt lat="44.65094" lon="5.05901">
        <ele>458</ele>
        <time>2026-05-26T08:28:40.000Z</time>
      </trkpt>
      <trkpt lat="44.65094" lon="5.059">
        <ele>458</ele>
        <time>2026-05-26T08:28:41.000Z</time>
      </trkpt>
      <trkpt lat="44.65094" lon="5.05899">
        <ele>458</ele>
        <time>2026-05-26T08:28:42.000Z</time>
      </trkpt>
      <trkpt lat="44.65093" lon="5.05898">
        <ele>457</ele>
        <time>2026-05-26T08:28:43.000Z</time>
      </trkpt>
      <trkpt lat="44.65092" lon="5.05897">
        <ele>457</ele>
        <time>2026-05-26T08:28:44.000Z</time>
      </trkpt>
      <trkpt lat="44.65092" lon="5.05895">
        <ele>458</ele>
        <time>2026-05-26T08:28:45.000Z</time>
      </trkpt>
      <trkpt lat="44.65093" lon="5.05895">
        <ele>459</ele>
        <time>2026-05-26T08:28:46.000Z</time>
      </trkpt>
      <trkpt lat="44.65092" lon="5.05894">
        <ele>459</ele>
        <time>2026-05-26T08:28:47.000Z</time>
      </trkpt>
      <trkpt lat="44.65092" lon="5.05892">
        <ele>460</ele>
        <time>2026-05-26T08:28:48.000Z</time>
      </trkpt>
      <trkpt lat="44.65092" lon="5.05891">
        <ele>461</ele>
        <time>2026-05-26T08:28:49.000Z</time>
      </trkpt>
      <trkpt lat="44.65091" lon="5.05892">
        <ele>460</ele>
        <time>2026-05-26T08:28:50.000Z</time>
      </trkpt>
      <trkpt lat="44.65091" lon="5.05891">
        <ele>460</ele>
        <time>2026-05-26T08:28:51.000Z</time>
      </trkpt>
      <trkpt lat="44.65091" lon="5.0589">
        <ele>460</ele>
        <time>2026-05-26T08:28:52.000Z</time>
      </trkpt>
      <trkpt lat="44.6509" lon="5.05888">
        <ele>460</ele>
        <time>2026-05-26T08:28:53.000Z</time>
      </trkpt>
      <trkpt lat="44.65089" lon="5.05887">
        <ele>460</ele>
        <time>2026-05-26T08:28:54.000Z</time>
      </trkpt>
      <trkpt lat="44.65089" lon="5.05889">
        <ele>460</ele>
        <time>2026-05-26T08:28:55.000Z</time>
      </trkpt>
      <trkpt lat="44.65088" lon="5.05888">
        <ele>460</ele>
        <time>2026-05-26T08:28:56.000Z</time>
      </trkpt>
      <trkpt lat="44.65088" lon="5.05887">
        <ele>460</ele>
        <time>2026-05-26T08:28:57.000Z</time>
      </trkpt>
      <trkpt lat="44.65088" lon="5.05887">
        <ele>460</ele>
        <time>2026-05-26T08:28:58.000Z</time>
      </trkpt>
      <trkpt lat="44.65088" lon="5.05887">
        <ele>460</ele>
        <time>2026-05-26T08:28:59.000Z</time>
      </trkpt>
      <trkpt lat="44.65089" lon="5.05888">
        <ele>459</ele>
        <time>2026-05-26T08:29:00.000Z</time>
      </trkpt>
      <trkpt lat="44.65089" lon="5.05889">
        <ele>460</ele>
        <time>2026-05-26T08:29:01.000Z</time>
      </trkpt>
      <trkpt lat="44.65089" lon="5.05888">
        <ele>459</ele>
        <time>2026-05-26T08:29:02.000Z</time>
      </trkpt>
      <trkpt lat="44.65089" lon="5.05887">
        <ele>459</ele>
        <time>2026-05-26T08:29:03.000Z</time>
      </trkpt>
      <trkpt lat="44.65089" lon="5.05884">
        <ele>459</ele>
        <time>2026-05-26T08:29:04.000Z</time>
      </trkpt>
      <trkpt lat="44.65088" lon="5.05882">
        <ele>458</ele>
        <time>2026-05-26T08:29:05.000Z</time>
      </trkpt>
      <trkpt lat="44.65088" lon="5.05881">
        <ele>458</ele>
        <time>2026-05-26T08:29:06.000Z</time>
      </trkpt>
      <trkpt lat="44.65088" lon="5.0588">
        <ele>457</ele>
        <time>2026-05-26T08:29:07.000Z</time>
      </trkpt>
      <trkpt lat="44.65087" lon="5.05879">
        <ele>457</ele>
        <time>2026-05-26T08:29:08.000Z</time>
      </trkpt>
      <trkpt lat="44.65087" lon="5.05879">
        <ele>457</ele>
        <time>2026-05-26T08:29:09.000Z</time>
      </trkpt>
      <trkpt lat="44.65087" lon="5.05879">
        <ele>457</ele>
        <time>2026-05-26T08:29:10.000Z</time>
      </trkpt>
      <trkpt lat="44.65087" lon="5.05879">
        <ele>457</ele>
        <time>2026-05-26T08:29:11.000Z</time>
      </trkpt>
      <trkpt lat="44.65087" lon="5.05879">
        <ele>457</ele>
        <time>2026-05-26T08:29:12.000Z</time>
      </trkpt>
      <trkpt lat="44.65087" lon="5.05879">
        <ele>457</ele>
        <time>2026-05-26T08:29:13.000Z</time>
      </trkpt>
      <trkpt lat="44.65087" lon="5.05879">
        <ele>457</ele>
        <time>2026-05-26T08:29:14.000Z</time>
      </trkpt>
      <trkpt lat="44.65087" lon="5.05879">
        <ele>457</ele>
        <time>2026-05-26T08:29:15.000Z</time>
      </trkpt>
      <trkpt lat="44.65088" lon="5.05878">
        <ele>458</ele>
        <time>2026-05-26T08:29:16.000Z</time>
      </trkpt>
      <trkpt lat="44.6509" lon="5.05878">
        <ele>459</ele>
        <time>2026-05-26T08:29:17.000Z</time>
      </trkpt>
      <trkpt lat="44.65091" lon="5.05878">
        <ele>460</ele>
        <time>2026-05-26T08:29:18.000Z</time>
      </trkpt>
      <trkpt lat="44.65091" lon="5.05877">
        <ele>459</ele>
        <time>2026-05-26T08:29:19.000Z</time>
      </trkpt>
      <trkpt lat="44.65091" lon="5.05876">
        <ele>458</ele>
        <time>2026-05-26T08:29:20.000Z</time>
      </trkpt>
      <trkpt lat="44.65091" lon="5.05874">
        <ele>458</ele>
        <time>2026-05-26T08:29:21.000Z</time>
      </trkpt>
      <trkpt lat="44.65092" lon="5.05873">
        <ele>458</ele>
        <time>2026-05-26T08:29:22.000Z</time>
      </trkpt>
      <trkpt lat="44.6509" lon="5.05872">
        <ele>459</ele>
        <time>2026-05-26T08:29:23.000Z</time>
      </trkpt>
      <trkpt lat="44.65089" lon="5.05871">
        <ele>459</ele>
        <time>2026-05-26T08:29:24.000Z</time>
      </trkpt>
      <trkpt lat="44.65089" lon="5.0587">
        <ele>459</ele>
        <time>2026-05-26T08:29:25.000Z</time>
      </trkpt>
      <trkpt lat="44.65088" lon="5.05869">
        <ele>459</ele>
        <time>2026-05-26T08:29:26.000Z</time>
      </trkpt>
      <trkpt lat="44.65087" lon="5.05869">
        <ele>460</ele>
        <time>2026-05-26T08:29:27.000Z</time>
      </trkpt>
      <trkpt lat="44.65086" lon="5.05867">
        <ele>460</ele>
        <time>2026-05-26T08:29:28.000Z</time>
      </trkpt>
      <trkpt lat="44.65085" lon="5.05867">
        <ele>461</ele>
        <time>2026-05-26T08:29:29.000Z</time>
      </trkpt>
      <trkpt lat="44.65085" lon="5.05867">
        <ele>462</ele>
        <time>2026-05-26T08:29:30.000Z</time>
      </trkpt>
      <trkpt lat="44.65084" lon="5.05867">
        <ele>462</ele>
        <time>2026-05-26T08:29:31.000Z</time>
      </trkpt>
      <trkpt lat="44.65084" lon="5.05865">
        <ele>463</ele>
        <time>2026-05-26T08:29:32.000Z</time>
      </trkpt>
      <trkpt lat="44.65084" lon="5.05865">
        <ele>463</ele>
        <time>2026-05-26T08:29:33.000Z</time>
      </trkpt>
      <trkpt lat="44.65084" lon="5.05864">
        <ele>462</ele>
        <time>2026-05-26T08:29:34.000Z</time>
      </trkpt>
      <trkpt lat="44.65083" lon="5.05862">
        <ele>463</ele>
        <time>2026-05-26T08:29:35.000Z</time>
      </trkpt>
      <trkpt lat="44.65082" lon="5.05861">
        <ele>463</ele>
        <time>2026-05-26T08:29:36.000Z</time>
      </trkpt>
      <trkpt lat="44.65081" lon="5.05861">
        <ele>463</ele>
        <time>2026-05-26T08:29:37.000Z</time>
      </trkpt>
      <trkpt lat="44.6508" lon="5.0586">
        <ele>464</ele>
        <time>2026-05-26T08:29:38.000Z</time>
      </trkpt>
      <trkpt lat="44.6508" lon="5.05859">
        <ele>464</ele>
        <time>2026-05-26T08:29:39.000Z</time>
      </trkpt>
      <trkpt lat="44.65081" lon="5.0586">
        <ele>464</ele>
        <time>2026-05-26T08:29:40.000Z</time>
      </trkpt>
      <trkpt lat="44.65082" lon="5.0586">
        <ele>464</ele>
        <time>2026-05-26T08:29:41.000Z</time>
      </trkpt>
      <trkpt lat="44.65083" lon="5.0586">
        <ele>464</ele>
        <time>2026-05-26T08:29:42.000Z</time>
      </trkpt>
      <trkpt lat="44.65083" lon="5.05857">
        <ele>464</ele>
        <time>2026-05-26T08:29:43.000Z</time>
      </trkpt>
      <trkpt lat="44.65083" lon="5.05854">
        <ele>464</ele>
        <time>2026-05-26T08:29:44.000Z</time>
      </trkpt>
      <trkpt lat="44.65082" lon="5.05852">
        <ele>464</ele>
        <time>2026-05-26T08:29:45.000Z</time>
      </trkpt>
      <trkpt lat="44.65082" lon="5.0585">
        <ele>464</ele>
        <time>2026-05-26T08:29:46.000Z</time>
      </trkpt>
      <trkpt lat="44.65081" lon="5.05849">
        <ele>464</ele>
        <time>2026-05-26T08:29:47.000Z</time>
      </trkpt>
      <trkpt lat="44.65081" lon="5.05848">
        <ele>465</ele>
        <time>2026-05-26T08:29:48.000Z</time>
      </trkpt>
      <trkpt lat="44.65081" lon="5.05847">
        <ele>466</ele>
        <time>2026-05-26T08:29:49.000Z</time>
      </trkpt>
      <trkpt lat="44.6508" lon="5.05845">
        <ele>466</ele>
        <time>2026-05-26T08:29:50.000Z</time>
      </trkpt>
      <trkpt lat="44.65079" lon="5.05844">
        <ele>466</ele>
        <time>2026-05-26T08:29:51.000Z</time>
      </trkpt>
      <trkpt lat="44.65079" lon="5.05843">
        <ele>466</ele>
        <time>2026-05-26T08:29:52.000Z</time>
      </trkpt>
      <trkpt lat="44.65079" lon="5.05842">
        <ele>467</ele>
        <time>2026-05-26T08:29:53.000Z</time>
      </trkpt>
      <trkpt lat="44.65078" lon="5.05841">
        <ele>467</ele>
        <time>2026-05-26T08:29:54.000Z</time>
      </trkpt>
      <trkpt lat="44.65078" lon="5.05841">
        <ele>467</ele>
        <time>2026-05-26T08:29:55.000Z</time>
      </trkpt>
      <trkpt lat="44.65078" lon="5.05841">
        <ele>468</ele>
        <time>2026-05-26T08:29:56.000Z</time>
      </trkpt>
      <trkpt lat="44.65078" lon="5.05841">
        <ele>468</ele>
        <time>2026-05-26T08:29:57.000Z</time>
      </trkpt>
      <trkpt lat="44.65078" lon="5.05841">
        <ele>468</ele>
        <time>2026-05-26T08:29:58.000Z</time>
      </trkpt>
      <trkpt lat="44.65078" lon="5.05841">
        <ele>468</ele>
        <time>2026-05-26T08:29:59.000Z</time>
      </trkpt>
      <trkpt lat="44.65078" lon="5.05841">
        <ele>468</ele>
        <time>2026-05-26T08:30:00.000Z</time>
      </trkpt>
      <trkpt lat="44.65076" lon="5.05841">
        <ele>467</ele>
        <time>2026-05-26T08:30:01.000Z</time>
      </trkpt>
      <trkpt lat="44.65075" lon="5.0584">
        <ele>468</ele>
        <time>2026-05-26T08:30:02.000Z</time>
      </trkpt>
      <trkpt lat="44.65075" lon="5.0584">
        <ele>468</ele>
        <time>2026-05-26T08:30:03.000Z</time>
      </trkpt>
      <trkpt lat="44.65074" lon="5.05839">
        <ele>469</ele>
        <time>2026-05-26T08:30:04.000Z</time>
      </trkpt>
      <trkpt lat="44.65074" lon="5.05839">
        <ele>468</ele>
        <time>2026-05-26T08:30:05.000Z</time>
      </trkpt>
      <trkpt lat="44.65074" lon="5.05839">
        <ele>468</ele>
        <time>2026-05-26T08:30:06.000Z</time>
      </trkpt>
      <trkpt lat="44.65075" lon="5.0584">
        <ele>468</ele>
        <time>2026-05-26T08:30:07.000Z</time>
      </trkpt>
      <trkpt lat="44.65075" lon="5.05841">
        <ele>468</ele>
        <time>2026-05-26T08:30:08.000Z</time>
      </trkpt>
      <trkpt lat="44.65075" lon="5.05841">
        <ele>468</ele>
        <time>2026-05-26T08:30:09.000Z</time>
      </trkpt>
      <trkpt lat="44.65076" lon="5.0584">
        <ele>469</ele>
        <time>2026-05-26T08:30:10.000Z</time>
      </trkpt>
      <trkpt lat="44.65077" lon="5.0584">
        <ele>469</ele>
        <time>2026-05-26T08:30:11.000Z</time>
      </trkpt>
      <trkpt lat="44.65078" lon="5.05839">
        <ele>469</ele>
        <time>2026-05-26T08:30:12.000Z</time>
      </trkpt>
      <trkpt lat="44.65079" lon="5.05838">
        <ele>469</ele>
        <time>2026-05-26T08:30:13.000Z</time>
      </trkpt>
      <trkpt lat="44.6508" lon="5.05838">
        <ele>469</ele>
        <time>2026-05-26T08:30:14.000Z</time>
      </trkpt>
      <trkpt lat="44.6508" lon="5.05837">
        <ele>469</ele>
        <time>2026-05-26T08:30:15.000Z</time>
      </trkpt>
      <trkpt lat="44.6508" lon="5.05836">
        <ele>470</ele>
        <time>2026-05-26T08:30:16.000Z</time>
      </trkpt>
      <trkpt lat="44.65079" lon="5.05837">
        <ele>470</ele>
        <time>2026-05-26T08:30:17.000Z</time>
      </trkpt>
      <trkpt lat="44.65079" lon="5.05837">
        <ele>471</ele>
        <time>2026-05-26T08:30:18.000Z</time>
      </trkpt>
      <trkpt lat="44.65079" lon="5.05836">
        <ele>471</ele>
        <time>2026-05-26T08:30:19.000Z</time>
      </trkpt>
      <trkpt lat="44.6508" lon="5.05836">
        <ele>471</ele>
        <time>2026-05-26T08:30:20.000Z</time>
      </trkpt>
      <trkpt lat="44.6508" lon="5.05834">
        <ele>471</ele>
        <time>2026-05-26T08:30:21.000Z</time>
      </trkpt>
      <trkpt lat="44.65079" lon="5.05835">
        <ele>470</ele>
        <time>2026-05-26T08:30:22.000Z</time>
      </trkpt>
      <trkpt lat="44.65079" lon="5.05835">
        <ele>470</ele>
        <time>2026-05-26T08:30:23.000Z</time>
      </trkpt>
      <trkpt lat="44.65079" lon="5.05835">
        <ele>470</ele>
        <time>2026-05-26T08:30:24.000Z</time>
      </trkpt>
      <trkpt lat="44.65079" lon="5.05835">
        <ele>470</ele>
        <time>2026-05-26T08:30:25.000Z</time>
      </trkpt>
      <trkpt lat="44.65079" lon="5.05835">
        <ele>470</ele>
        <time>2026-05-26T08:30:26.000Z</time>
      </trkpt>
      <trkpt lat="44.65079" lon="5.05835">
        <ele>470</ele>
        <time>2026-05-26T08:30:27.000Z</time>
      </trkpt>
      <trkpt lat="44.65079" lon="5.05835">
        <ele>470</ele>
        <time>2026-05-26T08:30:28.000Z</time>
      </trkpt>
      <trkpt lat="44.65079" lon="5.05835">
        <ele>470</ele>
        <time>2026-05-26T08:30:29.000Z</time>
      </trkpt>
      <trkpt lat="44.65079" lon="5.05835">
        <ele>470</ele>
        <time>2026-05-26T08:30:30.000Z</time>
      </trkpt>
      <trkpt lat="44.65079" lon="5.05835">
        <ele>470</ele>
        <time>2026-05-26T08:30:31.000Z</time>
      </trkpt>
      <trkpt lat="44.65079" lon="5.05835">
        <ele>470</ele>
        <time>2026-05-26T08:30:32.000Z</time>
      </trkpt>
      <trkpt lat="44.65079" lon="5.05835">
        <ele>470</ele>
        <time>2026-05-26T08:30:33.000Z</time>
      </trkpt>
      <trkpt lat="44.65079" lon="5.05835">
        <ele>470</ele>
        <time>2026-05-26T08:30:34.000Z</time>
      </trkpt>
      <trkpt lat="44.65079" lon="5.05835">
        <ele>470</ele>
        <time>2026-05-26T08:30:35.000Z</time>
      </trkpt>
      <trkpt lat="44.65079" lon="5.05835">
        <ele>470</ele>
        <time>2026-05-26T08:30:36.000Z</time>
      </trkpt>
      <trkpt lat="44.65079" lon="5.05833">
        <ele>470</ele>
        <time>2026-05-26T08:30:37.000Z</time>
      </trkpt>
      <trkpt lat="44.65079" lon="5.05832">
        <ele>470</ele>
        <time>2026-05-26T08:30:38.000Z</time>
      </trkpt>
      <trkpt lat="44.65079" lon="5.05831">
        <ele>470</ele>
        <time>2026-05-26T08:30:39.000Z</time>
      </trkpt>
      <trkpt lat="44.65079" lon="5.05831">
        <ele>470</ele>
        <time>2026-05-26T08:30:40.000Z</time>
      </trkpt>
      <trkpt lat="44.65078" lon="5.05831">
        <ele>469</ele>
        <time>2026-05-26T08:30:41.000Z</time>
      </trkpt>
      <trkpt lat="44.65078" lon="5.0583">
        <ele>469</ele>
        <time>2026-05-26T08:30:42.000Z</time>
      </trkpt>
      <trkpt lat="44.65078" lon="5.0583">
        <ele>470</ele>
        <time>2026-05-26T08:30:43.000Z</time>
      </trkpt>
      <trkpt lat="44.65078" lon="5.0583">
        <ele>470</ele>
        <time>2026-05-26T08:30:44.000Z</time>
      </trkpt>
      <trkpt lat="44.65078" lon="5.0583">
        <ele>470</ele>
        <time>2026-05-26T08:30:45.000Z</time>
      </trkpt>
      <trkpt lat="44.65078" lon="5.0583">
        <ele>471</ele>
        <time>2026-05-26T08:30:46.000Z</time>
      </trkpt>
      <trkpt lat="44.65078" lon="5.05829">
        <ele>471</ele>
        <time>2026-05-26T08:30:47.000Z</time>
      </trkpt>
      <trkpt lat="44.65078" lon="5.0583">
        <ele>471</ele>
        <time>2026-05-26T08:30:48.000Z</time>
      </trkpt>
      <trkpt lat="44.65078" lon="5.05829">
        <ele>472</ele>
        <time>2026-05-26T08:30:49.000Z</time>
      </trkpt>
      <trkpt lat="44.65078" lon="5.0583">
        <ele>472</ele>
        <time>2026-05-26T08:30:50.000Z</time>
      </trkpt>
      <trkpt lat="44.65077" lon="5.05829">
        <ele>472</ele>
        <time>2026-05-26T08:30:51.000Z</time>
      </trkpt>
      <trkpt lat="44.65077" lon="5.05829">
        <ele>472</ele>
        <time>2026-05-26T08:30:52.000Z</time>
      </trkpt>
      <trkpt lat="44.65077" lon="5.05829">
        <ele>472</ele>
        <time>2026-05-26T08:30:53.000Z</time>
      </trkpt>
      <trkpt lat="44.65077" lon="5.0583">
        <ele>472</ele>
        <time>2026-05-26T08:30:54.000Z</time>
      </trkpt>
      <trkpt lat="44.65077" lon="5.0583">
        <ele>472</ele>
        <time>2026-05-26T08:30:55.000Z</time>
      </trkpt>
      <trkpt lat="44.65077" lon="5.0583">
        <ele>472</ele>
        <time>2026-05-26T08:30:56.000Z</time>
      </trkpt>
      <trkpt lat="44.65077" lon="5.0583">
        <ele>472</ele>
        <time>2026-05-26T08:30:57.000Z</time>
      </trkpt>
      <trkpt lat="44.65077" lon="5.0583">
        <ele>472</ele>
        <time>2026-05-26T08:30:58.000Z</time>
      </trkpt>
      <trkpt lat="44.65077" lon="5.0583">
        <ele>472</ele>
        <time>2026-05-26T08:30:59.000Z</time>
      </trkpt>
      <trkpt lat="44.65077" lon="5.0583">
        <ele>472</ele>
        <time>2026-05-26T08:31:00.000Z</time>
      </trkpt>
      <trkpt lat="44.65077" lon="5.0583">
        <ele>472</ele>
        <time>2026-05-26T08:31:01.000Z</time>
      </trkpt>
      <trkpt lat="44.65077" lon="5.0583">
        <ele>472</ele>
        <time>2026-05-26T08:31:02.000Z</time>
      </trkpt>
      <trkpt lat="44.65077" lon="5.0583">
        <ele>472</ele>
        <time>2026-05-26T08:31:03.000Z</time>
      </trkpt>
      <trkpt lat="44.65077" lon="5.0583">
        <ele>472</ele>
        <time>2026-05-26T08:31:04.000Z</time>
      </trkpt>
      <trkpt lat="44.65077" lon="5.0583">
        <ele>472</ele>
        <time>2026-05-26T08:31:05.000Z</time>
      </trkpt>
      <trkpt lat="44.65077" lon="5.0583">
        <ele>472</ele>
        <time>2026-05-26T08:31:06.000Z</time>
      </trkpt>
      <trkpt lat="44.65077" lon="5.0583">
        <ele>472</ele>
        <time>2026-05-26T08:31:07.000Z</time>
      </trkpt>
      <trkpt lat="44.65077" lon="5.0583">
        <ele>472</ele>
        <time>2026-05-26T08:31:08.000Z</time>
      </trkpt>
      <trkpt lat="44.65077" lon="5.0583">
        <ele>472</ele>
        <time>2026-05-26T08:31:09.000Z</time>
      </trkpt>
      <trkpt lat="44.65077" lon="5.0583">
        <ele>472</ele>
        <time>2026-05-26T08:31:10.000Z</time>
      </trkpt>
      <trkpt lat="44.65077" lon="5.0583">
        <ele>472</ele>
        <time>2026-05-26T08:31:11.000Z</time>
      </trkpt>
      <trkpt lat="44.65077" lon="5.0583">
        <ele>472</ele>
        <time>2026-05-26T08:31:12.000Z</time>
      </trkpt>
      <trkpt lat="44.65077" lon="5.0583">
        <ele>472</ele>
        <time>2026-05-26T08:31:13.000Z</time>
      </trkpt>
      <trkpt lat="44.65077" lon="5.0583">
        <ele>472</ele>
        <time>2026-05-26T08:31:14.000Z</time>
      </trkpt>
      <trkpt lat="44.65077" lon="5.0583">
        <ele>472</ele>
        <time>2026-05-26T08:31:15.000Z</time>
      </trkpt>
      <trkpt lat="44.65076" lon="5.05831">
        <ele>472</ele>
        <time>2026-05-26T08:31:16.000Z</time>
      </trkpt>
      <trkpt lat="44.65075" lon="5.05831">
        <ele>472</ele>
        <time>2026-05-26T08:31:17.000Z</time>
      </trkpt>
      <trkpt lat="44.65075" lon="5.05831">
        <ele>473</ele>
        <time>2026-05-26T08:31:18.000Z</time>
      </trkpt>
      <trkpt lat="44.65076" lon="5.0583">
        <ele>473</ele>
        <time>2026-05-26T08:31:19.000Z</time>
      </trkpt>
      <trkpt lat="44.65078" lon="5.05828">
        <ele>473</ele>
        <time>2026-05-26T08:31:20.000Z</time>
      </trkpt>
      <trkpt lat="44.65079" lon="5.05828">
        <ele>473</ele>
        <time>2026-05-26T08:31:21.000Z</time>
      </trkpt>
      <trkpt lat="44.6508" lon="5.05828">
        <ele>473</ele>
        <time>2026-05-26T08:31:22.000Z</time>
      </trkpt>
      <trkpt lat="44.65081" lon="5.05828">
        <ele>473</ele>
        <time>2026-05-26T08:31:23.000Z</time>
      </trkpt>
      <trkpt lat="44.65082" lon="5.05827">
        <ele>473</ele>
        <time>2026-05-26T08:31:24.000Z</time>
      </trkpt>
      <trkpt lat="44.65082" lon="5.05826">
        <ele>473</ele>
        <time>2026-05-26T08:31:25.000Z</time>
      </trkpt>
      <trkpt lat="44.65084" lon="5.05826">
        <ele>474</ele>
        <time>2026-05-26T08:31:26.000Z</time>
      </trkpt>
      <trkpt lat="44.65085" lon="5.05825">
        <ele>473</ele>
        <time>2026-05-26T08:31:27.000Z</time>
      </trkpt>
      <trkpt lat="44.65085" lon="5.05825">
        <ele>474</ele>
        <time>2026-05-26T08:31:28.000Z</time>
      </trkpt>
      <trkpt lat="44.65085" lon="5.05825">
        <ele>473</ele>
        <time>2026-05-26T08:31:29.000Z</time>
      </trkpt>
      <trkpt lat="44.65088" lon="5.05825">
        <ele>473</ele>
        <time>2026-05-26T08:31:30.000Z</time>
      </trkpt>
      <trkpt lat="44.65089" lon="5.05824">
        <ele>473</ele>
        <time>2026-05-26T08:31:31.000Z</time>
      </trkpt>
      <trkpt lat="44.6509" lon="5.05823">
        <ele>473</ele>
        <time>2026-05-26T08:31:32.000Z</time>
      </trkpt>
      <trkpt lat="44.65091" lon="5.05822">
        <ele>473</ele>
        <time>2026-05-26T08:31:33.000Z</time>
      </trkpt>
      <trkpt lat="44.65092" lon="5.05822">
        <ele>473</ele>
        <time>2026-05-26T08:31:34.000Z</time>
      </trkpt>
      <trkpt lat="44.65092" lon="5.05822">
        <ele>473</ele>
        <time>2026-05-26T08:31:35.000Z</time>
      </trkpt>
      <trkpt lat="44.65093" lon="5.05822">
        <ele>473</ele>
        <time>2026-05-26T08:31:36.000Z</time>
      </trkpt>
      <trkpt lat="44.65093" lon="5.0582">
        <ele>474</ele>
        <time>2026-05-26T08:31:37.000Z</time>
      </trkpt>
      <trkpt lat="44.65093" lon="5.05819">
        <ele>474</ele>
        <time>2026-05-26T08:31:38.000Z</time>
      </trkpt>
      <trkpt lat="44.65093" lon="5.05818">
        <ele>474</ele>
        <time>2026-05-26T08:31:39.000Z</time>
      </trkpt>
      <trkpt lat="44.65092" lon="5.05818">
        <ele>475</ele>
        <time>2026-05-26T08:31:40.000Z</time>
      </trkpt>
      <trkpt lat="44.65093" lon="5.05817">
        <ele>476</ele>
        <time>2026-05-26T08:31:41.000Z</time>
      </trkpt>
      <trkpt lat="44.65094" lon="5.05816">
        <ele>476</ele>
        <time>2026-05-26T08:31:42.000Z</time>
      </trkpt>
      <trkpt lat="44.65095" lon="5.05816">
        <ele>477</ele>
        <time>2026-05-26T08:31:43.000Z</time>
      </trkpt>
      <trkpt lat="44.65097" lon="5.05815">
        <ele>476</ele>
        <time>2026-05-26T08:31:44.000Z</time>
      </trkpt>
      <trkpt lat="44.65098" lon="5.05815">
        <ele>477</ele>
        <time>2026-05-26T08:31:45.000Z</time>
      </trkpt>
      <trkpt lat="44.65099" lon="5.05815">
        <ele>477</ele>
        <time>2026-05-26T08:31:46.000Z</time>
      </trkpt>
      <trkpt lat="44.651" lon="5.05814">
        <ele>476</ele>
        <time>2026-05-26T08:31:47.000Z</time>
      </trkpt>
      <trkpt lat="44.65102" lon="5.05815">
        <ele>477</ele>
        <time>2026-05-26T08:31:48.000Z</time>
      </trkpt>
      <trkpt lat="44.65103" lon="5.05814">
        <ele>477</ele>
        <time>2026-05-26T08:31:49.000Z</time>
      </trkpt>
      <trkpt lat="44.65103" lon="5.05814">
        <ele>477</ele>
        <time>2026-05-26T08:31:50.000Z</time>
      </trkpt>
      <trkpt lat="44.65103" lon="5.05814">
        <ele>477</ele>
        <time>2026-05-26T08:31:51.000Z</time>
      </trkpt>
      <trkpt lat="44.65103" lon="5.05813">
        <ele>477</ele>
        <time>2026-05-26T08:31:52.000Z</time>
      </trkpt>
      <trkpt lat="44.65104" lon="5.05811">
        <ele>476</ele>
        <time>2026-05-26T08:31:53.000Z</time>
      </trkpt>
      <trkpt lat="44.65105" lon="5.05811">
        <ele>476</ele>
        <time>2026-05-26T08:31:54.000Z</time>
      </trkpt>
      <trkpt lat="44.65104" lon="5.05811">
        <ele>478</ele>
        <time>2026-05-26T08:31:55.000Z</time>
      </trkpt>
      <trkpt lat="44.65104" lon="5.05811">
        <ele>480</ele>
        <time>2026-05-26T08:31:56.000Z</time>
      </trkpt>
      <trkpt lat="44.65105" lon="5.0581">
        <ele>480</ele>
        <time>2026-05-26T08:31:57.000Z</time>
      </trkpt>
      <trkpt lat="44.65107" lon="5.05809">
        <ele>481</ele>
        <time>2026-05-26T08:31:58.000Z</time>
      </trkpt>
      <trkpt lat="44.65108" lon="5.05809">
        <ele>481</ele>
        <time>2026-05-26T08:31:59.000Z</time>
      </trkpt>
      <trkpt lat="44.65109" lon="5.05807">
        <ele>481</ele>
        <time>2026-05-26T08:32:00.000Z</time>
      </trkpt>
      <trkpt lat="44.65109" lon="5.05805">
        <ele>481</ele>
        <time>2026-05-26T08:32:01.000Z</time>
      </trkpt>
      <trkpt lat="44.65109" lon="5.05804">
        <ele>482</ele>
        <time>2026-05-26T08:32:02.000Z</time>
      </trkpt>
      <trkpt lat="44.65108" lon="5.05801">
        <ele>482</ele>
        <time>2026-05-26T08:32:03.000Z</time>
      </trkpt>
      <trkpt lat="44.65109" lon="5.05799">
        <ele>481</ele>
        <time>2026-05-26T08:32:04.000Z</time>
      </trkpt>
      <trkpt lat="44.6511" lon="5.05798">
        <ele>481</ele>
        <time>2026-05-26T08:32:05.000Z</time>
      </trkpt>
      <trkpt lat="44.6511" lon="5.05798">
        <ele>481</ele>
        <time>2026-05-26T08:32:06.000Z</time>
      </trkpt>
      <trkpt lat="44.6511" lon="5.05796">
        <ele>480</ele>
        <time>2026-05-26T08:32:07.000Z</time>
      </trkpt>
      <trkpt lat="44.6511" lon="5.05793">
        <ele>480</ele>
        <time>2026-05-26T08:32:08.000Z</time>
      </trkpt>
      <trkpt lat="44.65109" lon="5.05791">
        <ele>480</ele>
        <time>2026-05-26T08:32:09.000Z</time>
      </trkpt>
      <trkpt lat="44.65109" lon="5.0579">
        <ele>480</ele>
        <time>2026-05-26T08:32:10.000Z</time>
      </trkpt>
      <trkpt lat="44.65109" lon="5.05789">
        <ele>480</ele>
        <time>2026-05-26T08:32:11.000Z</time>
      </trkpt>
      <trkpt lat="44.65109" lon="5.05788">
        <ele>480</ele>
        <time>2026-05-26T08:32:12.000Z</time>
      </trkpt>
      <trkpt lat="44.65109" lon="5.05787">
        <ele>480</ele>
        <time>2026-05-26T08:32:13.000Z</time>
      </trkpt>
      <trkpt lat="44.65109" lon="5.05784">
        <ele>481</ele>
        <time>2026-05-26T08:32:14.000Z</time>
      </trkpt>
      <trkpt lat="44.65109" lon="5.05783">
        <ele>480</ele>
        <time>2026-05-26T08:32:15.000Z</time>
      </trkpt>
      <trkpt lat="44.6511" lon="5.05782">
        <ele>480</ele>
        <time>2026-05-26T08:32:16.000Z</time>
      </trkpt>
      <trkpt lat="44.6511" lon="5.0578">
        <ele>480</ele>
        <time>2026-05-26T08:32:17.000Z</time>
      </trkpt>
      <trkpt lat="44.65109" lon="5.05779">
        <ele>480</ele>
        <time>2026-05-26T08:32:18.000Z</time>
      </trkpt>
      <trkpt lat="44.65108" lon="5.05778">
        <ele>480</ele>
        <time>2026-05-26T08:32:19.000Z</time>
      </trkpt>
      <trkpt lat="44.65107" lon="5.05778">
        <ele>480</ele>
        <time>2026-05-26T08:32:20.000Z</time>
      </trkpt>
      <trkpt lat="44.65106" lon="5.05777">
        <ele>480</ele>
        <time>2026-05-26T08:32:21.000Z</time>
      </trkpt>
      <trkpt lat="44.65106" lon="5.05774">
        <ele>480</ele>
        <time>2026-05-26T08:32:22.000Z</time>
      </trkpt>
      <trkpt lat="44.65105" lon="5.05773">
        <ele>481</ele>
        <time>2026-05-26T08:32:23.000Z</time>
      </trkpt>
      <trkpt lat="44.65104" lon="5.05771">
        <ele>481</ele>
        <time>2026-05-26T08:32:24.000Z</time>
      </trkpt>
      <trkpt lat="44.65104" lon="5.0577">
        <ele>481</ele>
        <time>2026-05-26T08:32:25.000Z</time>
      </trkpt>
      <trkpt lat="44.65103" lon="5.05769">
        <ele>482</ele>
        <time>2026-05-26T08:32:26.000Z</time>
      </trkpt>
      <trkpt lat="44.65102" lon="5.05767">
        <ele>482</ele>
        <time>2026-05-26T08:32:27.000Z</time>
      </trkpt>
      <trkpt lat="44.65102" lon="5.05765">
        <ele>482</ele>
        <time>2026-05-26T08:32:28.000Z</time>
      </trkpt>
      <trkpt lat="44.65102" lon="5.05764">
        <ele>483</ele>
        <time>2026-05-26T08:32:29.000Z</time>
      </trkpt>
      <trkpt lat="44.65101" lon="5.05763">
        <ele>483</ele>
        <time>2026-05-26T08:32:30.000Z</time>
      </trkpt>
      <trkpt lat="44.65101" lon="5.05762">
        <ele>483</ele>
        <time>2026-05-26T08:32:31.000Z</time>
      </trkpt>
      <trkpt lat="44.65101" lon="5.0576">
        <ele>483</ele>
        <time>2026-05-26T08:32:32.000Z</time>
      </trkpt>
      <trkpt lat="44.651" lon="5.0576">
        <ele>484</ele>
        <time>2026-05-26T08:32:33.000Z</time>
      </trkpt>
      <trkpt lat="44.651" lon="5.05759">
        <ele>484</ele>
        <time>2026-05-26T08:32:34.000Z</time>
      </trkpt>
      <trkpt lat="44.651" lon="5.05758">
        <ele>484</ele>
        <time>2026-05-26T08:32:35.000Z</time>
      </trkpt>
      <trkpt lat="44.651" lon="5.05756">
        <ele>484</ele>
        <time>2026-05-26T08:32:36.000Z</time>
      </trkpt>
      <trkpt lat="44.651" lon="5.05755">
        <ele>484</ele>
        <time>2026-05-26T08:32:37.000Z</time>
      </trkpt>
      <trkpt lat="44.651" lon="5.05753">
        <ele>485</ele>
        <time>2026-05-26T08:32:38.000Z</time>
      </trkpt>
      <trkpt lat="44.651" lon="5.05752">
        <ele>485</ele>
        <time>2026-05-26T08:32:39.000Z</time>
      </trkpt>
      <trkpt lat="44.651" lon="5.05751">
        <ele>485</ele>
        <time>2026-05-26T08:32:40.000Z</time>
      </trkpt>
      <trkpt lat="44.651" lon="5.0575">
        <ele>485</ele>
        <time>2026-05-26T08:32:41.000Z</time>
      </trkpt>
      <trkpt lat="44.65101" lon="5.0575">
        <ele>485</ele>
        <time>2026-05-26T08:32:42.000Z</time>
      </trkpt>
      <trkpt lat="44.65101" lon="5.05749">
        <ele>485</ele>
        <time>2026-05-26T08:32:43.000Z</time>
      </trkpt>
      <trkpt lat="44.65101" lon="5.05748">
        <ele>485</ele>
        <time>2026-05-26T08:32:44.000Z</time>
      </trkpt>
      <trkpt lat="44.65102" lon="5.05746">
        <ele>485</ele>
        <time>2026-05-26T08:32:45.000Z</time>
      </trkpt>
      <trkpt lat="44.65102" lon="5.05746">
        <ele>485</ele>
        <time>2026-05-26T08:32:46.000Z</time>
      </trkpt>
      <trkpt lat="44.65101" lon="5.05746">
        <ele>485</ele>
        <time>2026-05-26T08:32:47.000Z</time>
      </trkpt>
      <trkpt lat="44.65102" lon="5.05745">
        <ele>485</ele>
        <time>2026-05-26T08:32:48.000Z</time>
      </trkpt>
      <trkpt lat="44.65102" lon="5.05745">
        <ele>485</ele>
        <time>2026-05-26T08:32:49.000Z</time>
      </trkpt>
      <trkpt lat="44.65103" lon="5.05745">
        <ele>486</ele>
        <time>2026-05-26T08:32:50.000Z</time>
      </trkpt>
      <trkpt lat="44.65104" lon="5.05744">
        <ele>486</ele>
        <time>2026-05-26T08:32:51.000Z</time>
      </trkpt>
      <trkpt lat="44.65105" lon="5.05743">
        <ele>486</ele>
        <time>2026-05-26T08:32:52.000Z</time>
      </trkpt>
      <trkpt lat="44.65106" lon="5.05742">
        <ele>486</ele>
        <time>2026-05-26T08:32:53.000Z</time>
      </trkpt>
      <trkpt lat="44.65106" lon="5.05741">
        <ele>486</ele>
        <time>2026-05-26T08:32:54.000Z</time>
      </trkpt>
      <trkpt lat="44.65107" lon="5.0574">
        <ele>486</ele>
        <time>2026-05-26T08:32:55.000Z</time>
      </trkpt>
      <trkpt lat="44.65107" lon="5.05739">
        <ele>486</ele>
        <time>2026-05-26T08:32:56.000Z</time>
      </trkpt>
      <trkpt lat="44.65107" lon="5.05739">
        <ele>487</ele>
        <time>2026-05-26T08:32:57.000Z</time>
      </trkpt>
      <trkpt lat="44.65107" lon="5.05737">
        <ele>487</ele>
        <time>2026-05-26T08:32:58.000Z</time>
      </trkpt>
      <trkpt lat="44.65107" lon="5.05736">
        <ele>487</ele>
        <time>2026-05-26T08:32:59.000Z</time>
      </trkpt>
      <trkpt lat="44.65107" lon="5.05736">
        <ele>488</ele>
        <time>2026-05-26T08:33:00.000Z</time>
      </trkpt>
      <trkpt lat="44.65108" lon="5.05734">
        <ele>487</ele>
        <time>2026-05-26T08:33:01.000Z</time>
      </trkpt>
      <trkpt lat="44.65108" lon="5.05733">
        <ele>487</ele>
        <time>2026-05-26T08:33:02.000Z</time>
      </trkpt>
      <trkpt lat="44.65109" lon="5.0573">
        <ele>487</ele>
        <time>2026-05-26T08:33:03.000Z</time>
      </trkpt>
      <trkpt lat="44.6511" lon="5.05728">
        <ele>488</ele>
        <time>2026-05-26T08:33:04.000Z</time>
      </trkpt>
      <trkpt lat="44.6511" lon="5.05728">
        <ele>488</ele>
        <time>2026-05-26T08:33:05.000Z</time>
      </trkpt>
      <trkpt lat="44.6511" lon="5.05728">
        <ele>488</ele>
        <time>2026-05-26T08:33:06.000Z</time>
      </trkpt>
      <trkpt lat="44.6511" lon="5.05728">
        <ele>488</ele>
        <time>2026-05-26T08:33:07.000Z</time>
      </trkpt>
      <trkpt lat="44.6511" lon="5.05728">
        <ele>488</ele>
        <time>2026-05-26T08:33:08.000Z</time>
      </trkpt>
      <trkpt lat="44.6511" lon="5.05728">
        <ele>488</ele>
        <time>2026-05-26T08:33:09.000Z</time>
      </trkpt>
      <trkpt lat="44.6511" lon="5.05728">
        <ele>488</ele>
        <time>2026-05-26T08:33:10.000Z</time>
      </trkpt>
      <trkpt lat="44.6511" lon="5.05728">
        <ele>488</ele>
        <time>2026-05-26T08:33:11.000Z</time>
      </trkpt>
      <trkpt lat="44.6511" lon="5.05728">
        <ele>488</ele>
        <time>2026-05-26T08:33:12.000Z</time>
      </trkpt>
      <trkpt lat="44.6511" lon="5.05728">
        <ele>488</ele>
        <time>2026-05-26T08:33:13.000Z</time>
      </trkpt>
      <trkpt lat="44.6511" lon="5.05728">
        <ele>488</ele>
        <time>2026-05-26T08:33:14.000Z</time>
      </trkpt>
      <trkpt lat="44.6511" lon="5.05728">
        <ele>488</ele>
        <time>2026-05-26T08:33:15.000Z</time>
      </trkpt>
      <trkpt lat="44.6511" lon="5.05728">
        <ele>488</ele>
        <time>2026-05-26T08:33:16.000Z</time>
      </trkpt>
      <trkpt lat="44.6511" lon="5.05728">
        <ele>488</ele>
        <time>2026-05-26T08:33:17.000Z</time>
      </trkpt>
      <trkpt lat="44.6511" lon="5.05728">
        <ele>488</ele>
        <time>2026-05-26T08:33:18.000Z</time>
      </trkpt>
      <trkpt lat="44.6511" lon="5.05728">
        <ele>488</ele>
        <time>2026-05-26T08:33:19.000Z</time>
      </trkpt>
      <trkpt lat="44.6511" lon="5.05728">
        <ele>488</ele>
        <time>2026-05-26T08:33:20.000Z</time>
      </trkpt>
      <trkpt lat="44.6511" lon="5.05728">
        <ele>488</ele>
        <time>2026-05-26T08:33:21.000Z</time>
      </trkpt>
      <trkpt lat="44.6511" lon="5.05728">
        <ele>488</ele>
        <time>2026-05-26T08:33:22.000Z</time>
      </trkpt>
      <trkpt lat="44.6511" lon="5.05728">
        <ele>488</ele>
        <time>2026-05-26T08:33:23.000Z</time>
      </trkpt>
      <trkpt lat="44.6511" lon="5.05728">
        <ele>488</ele>
        <time>2026-05-26T08:33:24.000Z</time>
      </trkpt>
      <trkpt lat="44.6511" lon="5.05728">
        <ele>488</ele>
        <time>2026-05-26T08:33:25.000Z</time>
      </trkpt>
      <trkpt lat="44.6511" lon="5.05728">
        <ele>488</ele>
        <time>2026-05-26T08:33:26.000Z</time>
      </trkpt>
      <trkpt lat="44.6511" lon="5.05728">
        <ele>488</ele>
        <time>2026-05-26T08:33:27.000Z</time>
      </trkpt>
      <trkpt lat="44.6511" lon="5.05729">
        <ele>489</ele>
        <time>2026-05-26T08:33:28.000Z</time>
      </trkpt>
      <trkpt lat="44.6511" lon="5.05729">
        <ele>490</ele>
        <time>2026-05-26T08:33:29.000Z</time>
      </trkpt>
      <trkpt lat="44.65109" lon="5.05729">
        <ele>491</ele>
        <time>2026-05-26T08:33:30.000Z</time>
      </trkpt>
      <trkpt lat="44.6511" lon="5.05729">
        <ele>491</ele>
        <time>2026-05-26T08:33:31.000Z</time>
      </trkpt>
      <trkpt lat="44.6511" lon="5.05729">
        <ele>491</ele>
        <time>2026-05-26T08:33:32.000Z</time>
      </trkpt>
      <trkpt lat="44.6511" lon="5.05729">
        <ele>491</ele>
        <time>2026-05-26T08:33:33.000Z</time>
      </trkpt>
      <trkpt lat="44.6511" lon="5.05729">
        <ele>491</ele>
        <time>2026-05-26T08:33:34.000Z</time>
      </trkpt>
      <trkpt lat="44.6511" lon="5.05729">
        <ele>491</ele>
        <time>2026-05-26T08:33:35.000Z</time>
      </trkpt>
      <trkpt lat="44.6511" lon="5.05729">
        <ele>491</ele>
        <time>2026-05-26T08:33:36.000Z</time>
      </trkpt>
      <trkpt lat="44.6511" lon="5.05729">
        <ele>491</ele>
        <time>2026-05-26T08:33:37.000Z</time>
      </trkpt>
      <trkpt lat="44.65112" lon="5.0573">
        <ele>491</ele>
        <time>2026-05-26T08:33:38.000Z</time>
      </trkpt>
      <trkpt lat="44.65114" lon="5.0573">
        <ele>491</ele>
        <time>2026-05-26T08:33:39.000Z</time>
      </trkpt>
      <trkpt lat="44.65115" lon="5.05729">
        <ele>490</ele>
        <time>2026-05-26T08:33:40.000Z</time>
      </trkpt>
      <trkpt lat="44.65116" lon="5.05728">
        <ele>490</ele>
        <time>2026-05-26T08:33:41.000Z</time>
      </trkpt>
      <trkpt lat="44.65117" lon="5.05727">
        <ele>491</ele>
        <time>2026-05-26T08:33:42.000Z</time>
      </trkpt>
      <trkpt lat="44.65118" lon="5.05725">
        <ele>491</ele>
        <time>2026-05-26T08:33:43.000Z</time>
      </trkpt>
      <trkpt lat="44.65118" lon="5.05724">
        <ele>490</ele>
        <time>2026-05-26T08:33:44.000Z</time>
      </trkpt>
      <trkpt lat="44.65118" lon="5.05723">
        <ele>490</ele>
        <time>2026-05-26T08:33:45.000Z</time>
      </trkpt>
      <trkpt lat="44.65119" lon="5.05723">
        <ele>490</ele>
        <time>2026-05-26T08:33:46.000Z</time>
      </trkpt>
      <trkpt lat="44.65119" lon="5.05723">
        <ele>490</ele>
        <time>2026-05-26T08:33:47.000Z</time>
      </trkpt>
      <trkpt lat="44.6512" lon="5.05722">
        <ele>490</ele>
        <time>2026-05-26T08:33:48.000Z</time>
      </trkpt>
      <trkpt lat="44.6512" lon="5.05722">
        <ele>491</ele>
        <time>2026-05-26T08:33:49.000Z</time>
      </trkpt>
      <trkpt lat="44.65121" lon="5.05721">
        <ele>492</ele>
        <time>2026-05-26T08:33:50.000Z</time>
      </trkpt>
      <trkpt lat="44.65121" lon="5.0572">
        <ele>492</ele>
        <time>2026-05-26T08:33:51.000Z</time>
      </trkpt>
      <trkpt lat="44.65122" lon="5.0572">
        <ele>493</ele>
        <time>2026-05-26T08:33:52.000Z</time>
      </trkpt>
      <trkpt lat="44.65122" lon="5.05718">
        <ele>493</ele>
        <time>2026-05-26T08:33:53.000Z</time>
      </trkpt>
      <trkpt lat="44.65122" lon="5.05717">
        <ele>493</ele>
        <time>2026-05-26T08:33:54.000Z</time>
      </trkpt>
      <trkpt lat="44.65123" lon="5.05716">
        <ele>494</ele>
        <time>2026-05-26T08:33:55.000Z</time>
      </trkpt>
      <trkpt lat="44.65124" lon="5.05715">
        <ele>494</ele>
        <time>2026-05-26T08:33:56.000Z</time>
      </trkpt>
      <trkpt lat="44.65124" lon="5.05715">
        <ele>494</ele>
        <time>2026-05-26T08:33:57.000Z</time>
      </trkpt>
      <trkpt lat="44.65124" lon="5.05715">
        <ele>495</ele>
        <time>2026-05-26T08:33:58.000Z</time>
      </trkpt>
      <trkpt lat="44.65124" lon="5.05713">
        <ele>495</ele>
        <time>2026-05-26T08:33:59.000Z</time>
      </trkpt>
      <trkpt lat="44.65125" lon="5.05712">
        <ele>493</ele>
        <time>2026-05-26T08:34:00.000Z</time>
      </trkpt>
      <trkpt lat="44.65125" lon="5.05712">
        <ele>494</ele>
        <time>2026-05-26T08:34:01.000Z</time>
      </trkpt>
      <trkpt lat="44.65125" lon="5.05711">
        <ele>493</ele>
        <time>2026-05-26T08:34:02.000Z</time>
      </trkpt>
      <trkpt lat="44.65125" lon="5.0571">
        <ele>494</ele>
        <time>2026-05-26T08:34:03.000Z</time>
      </trkpt>
      <trkpt lat="44.65125" lon="5.05709">
        <ele>494</ele>
        <time>2026-05-26T08:34:04.000Z</time>
      </trkpt>
      <trkpt lat="44.65125" lon="5.05709">
        <ele>494</ele>
        <time>2026-05-26T08:34:05.000Z</time>
      </trkpt>
      <trkpt lat="44.65125" lon="5.05709">
        <ele>494</ele>
        <time>2026-05-26T08:34:06.000Z</time>
      </trkpt>
      <trkpt lat="44.65126" lon="5.05704">
        <ele>494</ele>
        <time>2026-05-26T08:34:07.000Z</time>
      </trkpt>
      <trkpt lat="44.65126" lon="5.05702">
        <ele>493</ele>
        <time>2026-05-26T08:34:08.000Z</time>
      </trkpt>
      <trkpt lat="44.65126" lon="5.05699">
        <ele>494</ele>
        <time>2026-05-26T08:34:09.000Z</time>
      </trkpt>
      <trkpt lat="44.65125" lon="5.05698">
        <ele>494</ele>
        <time>2026-05-26T08:34:10.000Z</time>
      </trkpt>
      <trkpt lat="44.65126" lon="5.05697">
        <ele>493</ele>
        <time>2026-05-26T08:34:11.000Z</time>
      </trkpt>
      <trkpt lat="44.65126" lon="5.05695">
        <ele>494</ele>
        <time>2026-05-26T08:34:12.000Z</time>
      </trkpt>
      <trkpt lat="44.65127" lon="5.05694">
        <ele>494</ele>
        <time>2026-05-26T08:34:13.000Z</time>
      </trkpt>
      <trkpt lat="44.65127" lon="5.05693">
        <ele>494</ele>
        <time>2026-05-26T08:34:14.000Z</time>
      </trkpt>
      <trkpt lat="44.65128" lon="5.05691">
        <ele>494</ele>
        <time>2026-05-26T08:34:15.000Z</time>
      </trkpt>
      <trkpt lat="44.65128" lon="5.0569">
        <ele>494</ele>
        <time>2026-05-26T08:34:16.000Z</time>
      </trkpt>
      <trkpt lat="44.65129" lon="5.05689">
        <ele>493</ele>
        <time>2026-05-26T08:34:17.000Z</time>
      </trkpt>
      <trkpt lat="44.65129" lon="5.05689">
        <ele>494</ele>
        <time>2026-05-26T08:34:18.000Z</time>
      </trkpt>
      <trkpt lat="44.65129" lon="5.05688">
        <ele>494</ele>
        <time>2026-05-26T08:34:19.000Z</time>
      </trkpt>
      <trkpt lat="44.65129" lon="5.05687">
        <ele>495</ele>
        <time>2026-05-26T08:34:20.000Z</time>
      </trkpt>
      <trkpt lat="44.65129" lon="5.05685">
        <ele>496</ele>
        <time>2026-05-26T08:34:21.000Z</time>
      </trkpt>
      <trkpt lat="44.65129" lon="5.05684">
        <ele>495</ele>
        <time>2026-05-26T08:34:22.000Z</time>
      </trkpt>
      <trkpt lat="44.65131" lon="5.05683">
        <ele>496</ele>
        <time>2026-05-26T08:34:23.000Z</time>
      </trkpt>
      <trkpt lat="44.65131" lon="5.05683">
        <ele>495</ele>
        <time>2026-05-26T08:34:24.000Z</time>
      </trkpt>
      <trkpt lat="44.65132" lon="5.05682">
        <ele>496</ele>
        <time>2026-05-26T08:34:25.000Z</time>
      </trkpt>
      <trkpt lat="44.65132" lon="5.05682">
        <ele>496</ele>
        <time>2026-05-26T08:34:26.000Z</time>
      </trkpt>
      <trkpt lat="44.65132" lon="5.05681">
        <ele>495</ele>
        <time>2026-05-26T08:34:27.000Z</time>
      </trkpt>
      <trkpt lat="44.65132" lon="5.05679">
        <ele>496</ele>
        <time>2026-05-26T08:34:28.000Z</time>
      </trkpt>
      <trkpt lat="44.65134" lon="5.05677">
        <ele>495</ele>
        <time>2026-05-26T08:34:29.000Z</time>
      </trkpt>
      <trkpt lat="44.65135" lon="5.05676">
        <ele>495</ele>
        <time>2026-05-26T08:34:30.000Z</time>
      </trkpt>
      <trkpt lat="44.65135" lon="5.05675">
        <ele>495</ele>
        <time>2026-05-26T08:34:31.000Z</time>
      </trkpt>
      <trkpt lat="44.65135" lon="5.05674">
        <ele>495</ele>
        <time>2026-05-26T08:34:32.000Z</time>
      </trkpt>
      <trkpt lat="44.65135" lon="5.05672">
        <ele>495</ele>
        <time>2026-05-26T08:34:33.000Z</time>
      </trkpt>
      <trkpt lat="44.65136" lon="5.05671">
        <ele>495</ele>
        <time>2026-05-26T08:34:34.000Z</time>
      </trkpt>
      <trkpt lat="44.65136" lon="5.05669">
        <ele>495</ele>
        <time>2026-05-26T08:34:35.000Z</time>
      </trkpt>
      <trkpt lat="44.65135" lon="5.05668">
        <ele>496</ele>
        <time>2026-05-26T08:34:36.000Z</time>
      </trkpt>
      <trkpt lat="44.65136" lon="5.05666">
        <ele>496</ele>
        <time>2026-05-26T08:34:37.000Z</time>
      </trkpt>
      <trkpt lat="44.65135" lon="5.05664">
        <ele>497</ele>
        <time>2026-05-26T08:34:38.000Z</time>
      </trkpt>
      <trkpt lat="44.65135" lon="5.05663">
        <ele>497</ele>
        <time>2026-05-26T08:34:39.000Z</time>
      </trkpt>
      <trkpt lat="44.65136" lon="5.05662">
        <ele>497</ele>
        <time>2026-05-26T08:34:40.000Z</time>
      </trkpt>
      <trkpt lat="44.65136" lon="5.0566">
        <ele>497</ele>
        <time>2026-05-26T08:34:41.000Z</time>
      </trkpt>
      <trkpt lat="44.65136" lon="5.05658">
        <ele>497</ele>
        <time>2026-05-26T08:34:42.000Z</time>
      </trkpt>
      <trkpt lat="44.65136" lon="5.05658">
        <ele>497</ele>
        <time>2026-05-26T08:34:43.000Z</time>
      </trkpt>
      <trkpt lat="44.65136" lon="5.05657">
        <ele>498</ele>
        <time>2026-05-26T08:34:44.000Z</time>
      </trkpt>
      <trkpt lat="44.65137" lon="5.05656">
        <ele>498</ele>
        <time>2026-05-26T08:34:45.000Z</time>
      </trkpt>
      <trkpt lat="44.65137" lon="5.05656">
        <ele>499</ele>
        <time>2026-05-26T08:34:46.000Z</time>
      </trkpt>
      <trkpt lat="44.65137" lon="5.05656">
        <ele>498</ele>
        <time>2026-05-26T08:34:47.000Z</time>
      </trkpt>
      <trkpt lat="44.65137" lon="5.05656">
        <ele>498</ele>
        <time>2026-05-26T08:34:48.000Z</time>
      </trkpt>
      <trkpt lat="44.65138" lon="5.05654">
        <ele>498</ele>
        <time>2026-05-26T08:34:49.000Z</time>
      </trkpt>
      <trkpt lat="44.65139" lon="5.05654">
        <ele>499</ele>
        <time>2026-05-26T08:34:50.000Z</time>
      </trkpt>
      <trkpt lat="44.65139" lon="5.05652">
        <ele>500</ele>
        <time>2026-05-26T08:34:51.000Z</time>
      </trkpt>
      <trkpt lat="44.65139" lon="5.0565">
        <ele>500</ele>
        <time>2026-05-26T08:34:52.000Z</time>
      </trkpt>
      <trkpt lat="44.6514" lon="5.05647">
        <ele>500</ele>
        <time>2026-05-26T08:34:53.000Z</time>
      </trkpt>
      <trkpt lat="44.65141" lon="5.05645">
        <ele>500</ele>
        <time>2026-05-26T08:34:54.000Z</time>
      </trkpt>
      <trkpt lat="44.65141" lon="5.05644">
        <ele>501</ele>
        <time>2026-05-26T08:34:55.000Z</time>
      </trkpt>
      <trkpt lat="44.65141" lon="5.05643">
        <ele>501</ele>
        <time>2026-05-26T08:34:56.000Z</time>
      </trkpt>
      <trkpt lat="44.6514" lon="5.05642">
        <ele>501</ele>
        <time>2026-05-26T08:34:57.000Z</time>
      </trkpt>
      <trkpt lat="44.6514" lon="5.05641">
        <ele>502</ele>
        <time>2026-05-26T08:34:58.000Z</time>
      </trkpt>
      <trkpt lat="44.65141" lon="5.0564">
        <ele>502</ele>
        <time>2026-05-26T08:34:59.000Z</time>
      </trkpt>
      <trkpt lat="44.6514" lon="5.05639">
        <ele>502</ele>
        <time>2026-05-26T08:35:00.000Z</time>
      </trkpt>
      <trkpt lat="44.6514" lon="5.05638">
        <ele>503</ele>
        <time>2026-05-26T08:35:01.000Z</time>
      </trkpt>
      <trkpt lat="44.65139" lon="5.05638">
        <ele>503</ele>
        <time>2026-05-26T08:35:02.000Z</time>
      </trkpt>
      <trkpt lat="44.65139" lon="5.05638">
        <ele>503</ele>
        <time>2026-05-26T08:35:03.000Z</time>
      </trkpt>
      <trkpt lat="44.65139" lon="5.05636">
        <ele>502</ele>
        <time>2026-05-26T08:35:04.000Z</time>
      </trkpt>
      <trkpt lat="44.6514" lon="5.05634">
        <ele>501</ele>
        <time>2026-05-26T08:35:05.000Z</time>
      </trkpt>
      <trkpt lat="44.65141" lon="5.05632">
        <ele>502</ele>
        <time>2026-05-26T08:35:06.000Z</time>
      </trkpt>
      <trkpt lat="44.65141" lon="5.0563">
        <ele>502</ele>
        <time>2026-05-26T08:35:07.000Z</time>
      </trkpt>
      <trkpt lat="44.65143" lon="5.05628">
        <ele>501</ele>
        <time>2026-05-26T08:35:08.000Z</time>
      </trkpt>
      <trkpt lat="44.65143" lon="5.05627">
        <ele>502</ele>
        <time>2026-05-26T08:35:09.000Z</time>
      </trkpt>
      <trkpt lat="44.65144" lon="5.05626">
        <ele>502</ele>
        <time>2026-05-26T08:35:10.000Z</time>
      </trkpt>
      <trkpt lat="44.65145" lon="5.05625">
        <ele>502</ele>
        <time>2026-05-26T08:35:11.000Z</time>
      </trkpt>
      <trkpt lat="44.65146" lon="5.05624">
        <ele>503</ele>
        <time>2026-05-26T08:35:12.000Z</time>
      </trkpt>
      <trkpt lat="44.65146" lon="5.05624">
        <ele>504</ele>
        <time>2026-05-26T08:35:13.000Z</time>
      </trkpt>
      <trkpt lat="44.65146" lon="5.05622">
        <ele>504</ele>
        <time>2026-05-26T08:35:14.000Z</time>
      </trkpt>
      <trkpt lat="44.65146" lon="5.0562">
        <ele>504</ele>
        <time>2026-05-26T08:35:15.000Z</time>
      </trkpt>
      <trkpt lat="44.65146" lon="5.05619">
        <ele>504</ele>
        <time>2026-05-26T08:35:16.000Z</time>
      </trkpt>
      <trkpt lat="44.65146" lon="5.05617">
        <ele>504</ele>
        <time>2026-05-26T08:35:17.000Z</time>
      </trkpt>
      <trkpt lat="44.65146" lon="5.05616">
        <ele>505</ele>
        <time>2026-05-26T08:35:18.000Z</time>
      </trkpt>
      <trkpt lat="44.65147" lon="5.05615">
        <ele>505</ele>
        <time>2026-05-26T08:35:19.000Z</time>
      </trkpt>
      <trkpt lat="44.65147" lon="5.05614">
        <ele>505</ele>
        <time>2026-05-26T08:35:20.000Z</time>
      </trkpt>
      <trkpt lat="44.65148" lon="5.05613">
        <ele>505</ele>
        <time>2026-05-26T08:35:21.000Z</time>
      </trkpt>
      <trkpt lat="44.65148" lon="5.05612">
        <ele>506</ele>
        <time>2026-05-26T08:35:22.000Z</time>
      </trkpt>
      <trkpt lat="44.65149" lon="5.05612">
        <ele>506</ele>
        <time>2026-05-26T08:35:23.000Z</time>
      </trkpt>
      <trkpt lat="44.65149" lon="5.05612">
        <ele>506</ele>
        <time>2026-05-26T08:35:24.000Z</time>
      </trkpt>
      <trkpt lat="44.6515" lon="5.05612">
        <ele>506</ele>
        <time>2026-05-26T08:35:25.000Z</time>
      </trkpt>
      <trkpt lat="44.6515" lon="5.05611">
        <ele>506</ele>
        <time>2026-05-26T08:35:26.000Z</time>
      </trkpt>
      <trkpt lat="44.65151" lon="5.05611">
        <ele>506</ele>
        <time>2026-05-26T08:35:27.000Z</time>
      </trkpt>
      <trkpt lat="44.65153" lon="5.0561">
        <ele>507</ele>
        <time>2026-05-26T08:35:28.000Z</time>
      </trkpt>
      <trkpt lat="44.65153" lon="5.05608">
        <ele>507</ele>
        <time>2026-05-26T08:35:29.000Z</time>
      </trkpt>
      <trkpt lat="44.65153" lon="5.05606">
        <ele>507</ele>
        <time>2026-05-26T08:35:30.000Z</time>
      </trkpt>
      <trkpt lat="44.65152" lon="5.05605">
        <ele>507</ele>
        <time>2026-05-26T08:35:31.000Z</time>
      </trkpt>
      <trkpt lat="44.65152" lon="5.05604">
        <ele>506</ele>
        <time>2026-05-26T08:35:32.000Z</time>
      </trkpt>
      <trkpt lat="44.6515" lon="5.05602">
        <ele>506</ele>
        <time>2026-05-26T08:35:33.000Z</time>
      </trkpt>
      <trkpt lat="44.65149" lon="5.05603">
        <ele>507</ele>
        <time>2026-05-26T08:35:34.000Z</time>
      </trkpt>
      <trkpt lat="44.6515" lon="5.05603">
        <ele>507</ele>
        <time>2026-05-26T08:35:35.000Z</time>
      </trkpt>
      <trkpt lat="44.65152" lon="5.05604">
        <ele>506</ele>
        <time>2026-05-26T08:35:36.000Z</time>
      </trkpt>
      <trkpt lat="44.65153" lon="5.05603">
        <ele>506</ele>
        <time>2026-05-26T08:35:37.000Z</time>
      </trkpt>
      <trkpt lat="44.65154" lon="5.05603">
        <ele>506</ele>
        <time>2026-05-26T08:35:38.000Z</time>
      </trkpt>
      <trkpt lat="44.65155" lon="5.05602">
        <ele>505</ele>
        <time>2026-05-26T08:35:39.000Z</time>
      </trkpt>
      <trkpt lat="44.65155" lon="5.05601">
        <ele>505</ele>
        <time>2026-05-26T08:35:40.000Z</time>
      </trkpt>
      <trkpt lat="44.65156" lon="5.056">
        <ele>504</ele>
        <time>2026-05-26T08:35:41.000Z</time>
      </trkpt>
      <trkpt lat="44.65157" lon="5.056">
        <ele>504</ele>
        <time>2026-05-26T08:35:42.000Z</time>
      </trkpt>
      <trkpt lat="44.65157" lon="5.05599">
        <ele>505</ele>
        <time>2026-05-26T08:35:43.000Z</time>
      </trkpt>
      <trkpt lat="44.65158" lon="5.05598">
        <ele>505</ele>
        <time>2026-05-26T08:35:44.000Z</time>
      </trkpt>
      <trkpt lat="44.65158" lon="5.05597">
        <ele>506</ele>
        <time>2026-05-26T08:35:45.000Z</time>
      </trkpt>
      <trkpt lat="44.65159" lon="5.05597">
        <ele>506</ele>
        <time>2026-05-26T08:35:46.000Z</time>
      </trkpt>
      <trkpt lat="44.65159" lon="5.05596">
        <ele>506</ele>
        <time>2026-05-26T08:35:47.000Z</time>
      </trkpt>
      <trkpt lat="44.65159" lon="5.05596">
        <ele>506</ele>
        <time>2026-05-26T08:35:48.000Z</time>
      </trkpt>
      <trkpt lat="44.65159" lon="5.05596">
        <ele>507</ele>
        <time>2026-05-26T08:35:49.000Z</time>
      </trkpt>
      <trkpt lat="44.65159" lon="5.05597">
        <ele>507</ele>
        <time>2026-05-26T08:35:50.000Z</time>
      </trkpt>
      <trkpt lat="44.65159" lon="5.05597">
        <ele>507</ele>
        <time>2026-05-26T08:35:51.000Z</time>
      </trkpt>
      <trkpt lat="44.65159" lon="5.05597">
        <ele>507</ele>
        <time>2026-05-26T08:35:52.000Z</time>
      </trkpt>
      <trkpt lat="44.65159" lon="5.05597">
        <ele>506</ele>
        <time>2026-05-26T08:35:53.000Z</time>
      </trkpt>
      <trkpt lat="44.65159" lon="5.05597">
        <ele>507</ele>
        <time>2026-05-26T08:35:54.000Z</time>
      </trkpt>
      <trkpt lat="44.65159" lon="5.05596">
        <ele>507</ele>
        <time>2026-05-26T08:35:55.000Z</time>
      </trkpt>
      <trkpt lat="44.65159" lon="5.05596">
        <ele>507</ele>
        <time>2026-05-26T08:35:56.000Z</time>
      </trkpt>
      <trkpt lat="44.65159" lon="5.05596">
        <ele>507</ele>
        <time>2026-05-26T08:35:57.000Z</time>
      </trkpt>
      <trkpt lat="44.65159" lon="5.05596">
        <ele>507</ele>
        <time>2026-05-26T08:35:58.000Z</time>
      </trkpt>
      <trkpt lat="44.65159" lon="5.05596">
        <ele>507</ele>
        <time>2026-05-26T08:35:59.000Z</time>
      </trkpt>
      <trkpt lat="44.65159" lon="5.05596">
        <ele>507</ele>
        <time>2026-05-26T08:36:00.000Z</time>
      </trkpt>
      <trkpt lat="44.65159" lon="5.05596">
        <ele>507</ele>
        <time>2026-05-26T08:36:01.000Z</time>
      </trkpt>
      <trkpt lat="44.65159" lon="5.05596">
        <ele>507</ele>
        <time>2026-05-26T08:36:02.000Z</time>
      </trkpt>
      <trkpt lat="44.65159" lon="5.05596">
        <ele>507</ele>
        <time>2026-05-26T08:36:03.000Z</time>
      </trkpt>
      <trkpt lat="44.65159" lon="5.05596">
        <ele>507</ele>
        <time>2026-05-26T08:36:04.000Z</time>
      </trkpt>
      <trkpt lat="44.65159" lon="5.05596">
        <ele>507</ele>
        <time>2026-05-26T08:36:05.000Z</time>
      </trkpt>
      <trkpt lat="44.65159" lon="5.05596">
        <ele>507</ele>
        <time>2026-05-26T08:36:06.000Z</time>
      </trkpt>
      <trkpt lat="44.65159" lon="5.05596">
        <ele>507</ele>
        <time>2026-05-26T08:36:07.000Z</time>
      </trkpt>
      <trkpt lat="44.65159" lon="5.05596">
        <ele>507</ele>
        <time>2026-05-26T08:36:08.000Z</time>
      </trkpt>
      <trkpt lat="44.65159" lon="5.05596">
        <ele>505</ele>
        <time>2026-05-26T08:36:09.000Z</time>
      </trkpt>
      <trkpt lat="44.65159" lon="5.05597">
        <ele>505</ele>
        <time>2026-05-26T08:36:10.000Z</time>
      </trkpt>
      <trkpt lat="44.6516" lon="5.05597">
        <ele>505</ele>
        <time>2026-05-26T08:36:11.000Z</time>
      </trkpt>
      <trkpt lat="44.6516" lon="5.05597">
        <ele>505</ele>
        <time>2026-05-26T08:36:12.000Z</time>
      </trkpt>
      <trkpt lat="44.6516" lon="5.05597">
        <ele>505</ele>
        <time>2026-05-26T08:36:13.000Z</time>
      </trkpt>
      <trkpt lat="44.6516" lon="5.05597">
        <ele>505</ele>
        <time>2026-05-26T08:36:14.000Z</time>
      </trkpt>
      <trkpt lat="44.6516" lon="5.05597">
        <ele>505</ele>
        <time>2026-05-26T08:36:15.000Z</time>
      </trkpt>
      <trkpt lat="44.6516" lon="5.05597">
        <ele>505</ele>
        <time>2026-05-26T08:36:16.000Z</time>
      </trkpt>
      <trkpt lat="44.6516" lon="5.05597">
        <ele>505</ele>
        <time>2026-05-26T08:36:17.000Z</time>
      </trkpt>
      <trkpt lat="44.6516" lon="5.05597">
        <ele>505</ele>
        <time>2026-05-26T08:36:18.000Z</time>
      </trkpt>
      <trkpt lat="44.6516" lon="5.05597">
        <ele>505</ele>
        <time>2026-05-26T08:36:19.000Z</time>
      </trkpt>
      <trkpt lat="44.6516" lon="5.05597">
        <ele>505</ele>
        <time>2026-05-26T08:36:20.000Z</time>
      </trkpt>
      <trkpt lat="44.6516" lon="5.05597">
        <ele>505</ele>
        <time>2026-05-26T08:36:21.000Z</time>
      </trkpt>
      <trkpt lat="44.6516" lon="5.05597">
        <ele>505</ele>
        <time>2026-05-26T08:36:22.000Z</time>
      </trkpt>
      <trkpt lat="44.6516" lon="5.05597">
        <ele>505</ele>
        <time>2026-05-26T08:36:23.000Z</time>
      </trkpt>
      <trkpt lat="44.6516" lon="5.05597">
        <ele>505</ele>
        <time>2026-05-26T08:36:24.000Z</time>
      </trkpt>
      <trkpt lat="44.6516" lon="5.05597">
        <ele>505</ele>
        <time>2026-05-26T08:36:25.000Z</time>
      </trkpt>
      <trkpt lat="44.6516" lon="5.05597">
        <ele>505</ele>
        <time>2026-05-26T08:36:26.000Z</time>
      </trkpt>
      <trkpt lat="44.6516" lon="5.05597">
        <ele>505</ele>
        <time>2026-05-26T08:36:27.000Z</time>
      </trkpt>
      <trkpt lat="44.6516" lon="5.05597">
        <ele>505</ele>
        <time>2026-05-26T08:36:28.000Z</time>
      </trkpt>
      <trkpt lat="44.6516" lon="5.05597">
        <ele>505</ele>
        <time>2026-05-26T08:36:29.000Z</time>
      </trkpt>
      <trkpt lat="44.6516" lon="5.05597">
        <ele>505</ele>
        <time>2026-05-26T08:36:30.000Z</time>
      </trkpt>
      <trkpt lat="44.6516" lon="5.05597">
        <ele>505</ele>
        <time>2026-05-26T08:36:31.000Z</time>
      </trkpt>
      <trkpt lat="44.6516" lon="5.05597">
        <ele>506</ele>
        <time>2026-05-26T08:36:32.000Z</time>
      </trkpt>
      <trkpt lat="44.6516" lon="5.05596">
        <ele>506</ele>
        <time>2026-05-26T08:36:33.000Z</time>
      </trkpt>
      <trkpt lat="44.65159" lon="5.05596">
        <ele>506</ele>
        <time>2026-05-26T08:36:34.000Z</time>
      </trkpt>
      <trkpt lat="44.65159" lon="5.05595">
        <ele>506</ele>
        <time>2026-05-26T08:36:35.000Z</time>
      </trkpt>
      <trkpt lat="44.65159" lon="5.05596">
        <ele>506</ele>
        <time>2026-05-26T08:36:36.000Z</time>
      </trkpt>
      <trkpt lat="44.65159" lon="5.05595">
        <ele>506</ele>
        <time>2026-05-26T08:36:37.000Z</time>
      </trkpt>
      <trkpt lat="44.65159" lon="5.05596">
        <ele>506</ele>
        <time>2026-05-26T08:36:38.000Z</time>
      </trkpt>
      <trkpt lat="44.65159" lon="5.05596">
        <ele>506</ele>
        <time>2026-05-26T08:36:39.000Z</time>
      </trkpt>
      <trkpt lat="44.65159" lon="5.05596">
        <ele>506</ele>
        <time>2026-05-26T08:36:40.000Z</time>
      </trkpt>
      <trkpt lat="44.65159" lon="5.05596">
        <ele>506</ele>
        <time>2026-05-26T08:36:41.000Z</time>
      </trkpt>
      <trkpt lat="44.65159" lon="5.05596">
        <ele>506</ele>
        <time>2026-05-26T08:36:42.000Z</time>
      </trkpt>
      <trkpt lat="44.65159" lon="5.05596">
        <ele>506</ele>
        <time>2026-05-26T08:36:43.000Z</time>
      </trkpt>
      <trkpt lat="44.65159" lon="5.05596">
        <ele>506</ele>
        <time>2026-05-26T08:36:44.000Z</time>
      </trkpt>
      <trkpt lat="44.65159" lon="5.05596">
        <ele>506</ele>
        <time>2026-05-26T08:36:45.000Z</time>
      </trkpt>
      <trkpt lat="44.65159" lon="5.05596">
        <ele>506</ele>
        <time>2026-05-26T08:36:46.000Z</time>
      </trkpt>
      <trkpt lat="44.65159" lon="5.05596">
        <ele>506</ele>
        <time>2026-05-26T08:36:47.000Z</time>
      </trkpt>
      <trkpt lat="44.65159" lon="5.05596">
        <ele>506</ele>
        <time>2026-05-26T08:36:48.000Z</time>
      </trkpt>
      <trkpt lat="44.65159" lon="5.05596">
        <ele>506</ele>
        <time>2026-05-26T08:36:49.000Z</time>
      </trkpt>
      <trkpt lat="44.65159" lon="5.05596">
        <ele>506</ele>
        <time>2026-05-26T08:36:50.000Z</time>
      </trkpt>
      <trkpt lat="44.65159" lon="5.05596">
        <ele>506</ele>
        <time>2026-05-26T08:36:51.000Z</time>
      </trkpt>
      <trkpt lat="44.6516" lon="5.05598">
        <ele>506</ele>
        <time>2026-05-26T08:36:52.000Z</time>
      </trkpt>
      <trkpt lat="44.65161" lon="5.05598">
        <ele>506</ele>
        <time>2026-05-26T08:36:53.000Z</time>
      </trkpt>
      <trkpt lat="44.65161" lon="5.05598">
        <ele>504</ele>
        <time>2026-05-26T08:36:54.000Z</time>
      </trkpt>
      <trkpt lat="44.65161" lon="5.05596">
        <ele>504</ele>
        <time>2026-05-26T08:36:55.000Z</time>
      </trkpt>
      <trkpt lat="44.65161" lon="5.05597">
        <ele>505</ele>
        <time>2026-05-26T08:36:56.000Z</time>
      </trkpt>
      <trkpt lat="44.65161" lon="5.05597">
        <ele>505</ele>
        <time>2026-05-26T08:36:57.000Z</time>
      </trkpt>
      <trkpt lat="44.65161" lon="5.05597">
        <ele>505</ele>
        <time>2026-05-26T08:36:58.000Z</time>
      </trkpt>
      <trkpt lat="44.65161" lon="5.05597">
        <ele>505</ele>
        <time>2026-05-26T08:36:59.000Z</time>
      </trkpt>
      <trkpt lat="44.65161" lon="5.05597">
        <ele>505</ele>
        <time>2026-05-26T08:37:00.000Z</time>
      </trkpt>
      <trkpt lat="44.65161" lon="5.05597">
        <ele>505</ele>
        <time>2026-05-26T08:37:01.000Z</time>
      </trkpt>
      <trkpt lat="44.65161" lon="5.05597">
        <ele>505</ele>
        <time>2026-05-26T08:37:02.000Z</time>
      </trkpt>
      <trkpt lat="44.65161" lon="5.05597">
        <ele>505</ele>
        <time>2026-05-26T08:37:03.000Z</time>
      </trkpt>
      <trkpt lat="44.6516" lon="5.05598">
        <ele>505</ele>
        <time>2026-05-26T08:37:04.000Z</time>
      </trkpt>
      <trkpt lat="44.65158" lon="5.05597">
        <ele>505</ele>
        <time>2026-05-26T08:37:05.000Z</time>
      </trkpt>
      <trkpt lat="44.65158" lon="5.05597">
        <ele>504</ele>
        <time>2026-05-26T08:37:06.000Z</time>
      </trkpt>
      <trkpt lat="44.65159" lon="5.05598">
        <ele>504</ele>
        <time>2026-05-26T08:37:07.000Z</time>
      </trkpt>
      <trkpt lat="44.6516" lon="5.05597">
        <ele>504</ele>
        <time>2026-05-26T08:37:08.000Z</time>
      </trkpt>
      <trkpt lat="44.65161" lon="5.05597">
        <ele>504</ele>
        <time>2026-05-26T08:37:09.000Z</time>
      </trkpt>
      <trkpt lat="44.65161" lon="5.05596">
        <ele>504</ele>
        <time>2026-05-26T08:37:10.000Z</time>
      </trkpt>
      <trkpt lat="44.65162" lon="5.05596">
        <ele>505</ele>
        <time>2026-05-26T08:37:11.000Z</time>
      </trkpt>
      <trkpt lat="44.65162" lon="5.05598">
        <ele>505</ele>
        <time>2026-05-26T08:37:12.000Z</time>
      </trkpt>
      <trkpt lat="44.65163" lon="5.05597">
        <ele>505</ele>
        <time>2026-05-26T08:37:13.000Z</time>
      </trkpt>
      <trkpt lat="44.65164" lon="5.05595">
        <ele>506</ele>
        <time>2026-05-26T08:37:14.000Z</time>
      </trkpt>
      <trkpt lat="44.65165" lon="5.05594">
        <ele>505</ele>
        <time>2026-05-26T08:37:15.000Z</time>
      </trkpt>
      <trkpt lat="44.65166" lon="5.05593">
        <ele>505</ele>
        <time>2026-05-26T08:37:16.000Z</time>
      </trkpt>
      <trkpt lat="44.65166" lon="5.05592">
        <ele>505</ele>
        <time>2026-05-26T08:37:17.000Z</time>
      </trkpt>
      <trkpt lat="44.65168" lon="5.05591">
        <ele>505</ele>
        <time>2026-05-26T08:37:18.000Z</time>
      </trkpt>
      <trkpt lat="44.65168" lon="5.0559">
        <ele>505</ele>
        <time>2026-05-26T08:37:19.000Z</time>
      </trkpt>
      <trkpt lat="44.65168" lon="5.05589">
        <ele>506</ele>
        <time>2026-05-26T08:37:20.000Z</time>
      </trkpt>
      <trkpt lat="44.65168" lon="5.05589">
        <ele>508</ele>
        <time>2026-05-26T08:37:21.000Z</time>
      </trkpt>
      <trkpt lat="44.65167" lon="5.0559">
        <ele>508</ele>
        <time>2026-05-26T08:37:22.000Z</time>
      </trkpt>
      <trkpt lat="44.65166" lon="5.0559">
        <ele>509</ele>
        <time>2026-05-26T08:37:23.000Z</time>
      </trkpt>
      <trkpt lat="44.65167" lon="5.05591">
        <ele>509</ele>
        <time>2026-05-26T08:37:24.000Z</time>
      </trkpt>
      <trkpt lat="44.65167" lon="5.0559">
        <ele>510</ele>
        <time>2026-05-26T08:37:25.000Z</time>
      </trkpt>
      <trkpt lat="44.65169" lon="5.05589">
        <ele>510</ele>
        <time>2026-05-26T08:37:26.000Z</time>
      </trkpt>
      <trkpt lat="44.65169" lon="5.05586">
        <ele>510</ele>
        <time>2026-05-26T08:37:27.000Z</time>
      </trkpt>
      <trkpt lat="44.65171" lon="5.05585">
        <ele>510</ele>
        <time>2026-05-26T08:37:28.000Z</time>
      </trkpt>
      <trkpt lat="44.65171" lon="5.05581">
        <ele>511</ele>
        <time>2026-05-26T08:37:29.000Z</time>
      </trkpt>
      <trkpt lat="44.65171" lon="5.05579">
        <ele>512</ele>
        <time>2026-05-26T08:37:30.000Z</time>
      </trkpt>
      <trkpt lat="44.65173" lon="5.05577">
        <ele>512</ele>
        <time>2026-05-26T08:37:31.000Z</time>
      </trkpt>
      <trkpt lat="44.65174" lon="5.05576">
        <ele>512</ele>
        <time>2026-05-26T08:37:32.000Z</time>
      </trkpt>
      <trkpt lat="44.65174" lon="5.05574">
        <ele>512</ele>
        <time>2026-05-26T08:37:33.000Z</time>
      </trkpt>
      <trkpt lat="44.65174" lon="5.05574">
        <ele>513</ele>
        <time>2026-05-26T08:37:34.000Z</time>
      </trkpt>
      <trkpt lat="44.65175" lon="5.05574">
        <ele>513</ele>
        <time>2026-05-26T08:37:35.000Z</time>
      </trkpt>
      <trkpt lat="44.65175" lon="5.05573">
        <ele>513</ele>
        <time>2026-05-26T08:37:36.000Z</time>
      </trkpt>
      <trkpt lat="44.65176" lon="5.05573">
        <ele>513</ele>
        <time>2026-05-26T08:37:37.000Z</time>
      </trkpt>
      <trkpt lat="44.65178" lon="5.05573">
        <ele>513</ele>
        <time>2026-05-26T08:37:38.000Z</time>
      </trkpt>
      <trkpt lat="44.65178" lon="5.05572">
        <ele>513</ele>
        <time>2026-05-26T08:37:39.000Z</time>
      </trkpt>
      <trkpt lat="44.65179" lon="5.05571">
        <ele>514</ele>
        <time>2026-05-26T08:37:40.000Z</time>
      </trkpt>
      <trkpt lat="44.65179" lon="5.05571">
        <ele>515</ele>
        <time>2026-05-26T08:37:41.000Z</time>
      </trkpt>
      <trkpt lat="44.6518" lon="5.0557">
        <ele>515</ele>
        <time>2026-05-26T08:37:42.000Z</time>
      </trkpt>
      <trkpt lat="44.6518" lon="5.0557">
        <ele>515</ele>
        <time>2026-05-26T08:37:43.000Z</time>
      </trkpt>
      <trkpt lat="44.6518" lon="5.05568">
        <ele>515</ele>
        <time>2026-05-26T08:37:44.000Z</time>
      </trkpt>
      <trkpt lat="44.65181" lon="5.05567">
        <ele>515</ele>
        <time>2026-05-26T08:37:45.000Z</time>
      </trkpt>
      <trkpt lat="44.65181" lon="5.05567">
        <ele>516</ele>
        <time>2026-05-26T08:37:46.000Z</time>
      </trkpt>
      <trkpt lat="44.65182" lon="5.05565">
        <ele>517</ele>
        <time>2026-05-26T08:37:47.000Z</time>
      </trkpt>
      <trkpt lat="44.65182" lon="5.05564">
        <ele>517</ele>
        <time>2026-05-26T08:37:48.000Z</time>
      </trkpt>
      <trkpt lat="44.65182" lon="5.05564">
        <ele>517</ele>
        <time>2026-05-26T08:37:49.000Z</time>
      </trkpt>
      <trkpt lat="44.65182" lon="5.05563">
        <ele>517</ele>
        <time>2026-05-26T08:37:50.000Z</time>
      </trkpt>
      <trkpt lat="44.65182" lon="5.05561">
        <ele>518</ele>
        <time>2026-05-26T08:37:51.000Z</time>
      </trkpt>
      <trkpt lat="44.65183" lon="5.0556">
        <ele>518</ele>
        <time>2026-05-26T08:37:52.000Z</time>
      </trkpt>
      <trkpt lat="44.65183" lon="5.05559">
        <ele>518</ele>
        <time>2026-05-26T08:37:53.000Z</time>
      </trkpt>
      <trkpt lat="44.65185" lon="5.05559">
        <ele>519</ele>
        <time>2026-05-26T08:37:54.000Z</time>
      </trkpt>
      <trkpt lat="44.65187" lon="5.0556">
        <ele>519</ele>
        <time>2026-05-26T08:37:55.000Z</time>
      </trkpt>
      <trkpt lat="44.65188" lon="5.05561">
        <ele>518</ele>
        <time>2026-05-26T08:37:56.000Z</time>
      </trkpt>
      <trkpt lat="44.65189" lon="5.0556">
        <ele>518</ele>
        <time>2026-05-26T08:37:57.000Z</time>
      </trkpt>
      <trkpt lat="44.65189" lon="5.0556">
        <ele>518</ele>
        <time>2026-05-26T08:37:58.000Z</time>
      </trkpt>
      <trkpt lat="44.65189" lon="5.05558">
        <ele>518</ele>
        <time>2026-05-26T08:37:59.000Z</time>
      </trkpt>
      <trkpt lat="44.65189" lon="5.05556">
        <ele>518</ele>
        <time>2026-05-26T08:38:00.000Z</time>
      </trkpt>
      <trkpt lat="44.65189" lon="5.05553">
        <ele>519</ele>
        <time>2026-05-26T08:38:01.000Z</time>
      </trkpt>
      <trkpt lat="44.65189" lon="5.05553">
        <ele>519</ele>
        <time>2026-05-26T08:38:02.000Z</time>
      </trkpt>
      <trkpt lat="44.65189" lon="5.0555">
        <ele>519</ele>
        <time>2026-05-26T08:38:03.000Z</time>
      </trkpt>
      <trkpt lat="44.6519" lon="5.05549">
        <ele>519</ele>
        <time>2026-05-26T08:38:04.000Z</time>
      </trkpt>
      <trkpt lat="44.65192" lon="5.05548">
        <ele>519</ele>
        <time>2026-05-26T08:38:05.000Z</time>
      </trkpt>
      <trkpt lat="44.65192" lon="5.05547">
        <ele>519</ele>
        <time>2026-05-26T08:38:06.000Z</time>
      </trkpt>
      <trkpt lat="44.65191" lon="5.05546">
        <ele>519</ele>
        <time>2026-05-26T08:38:07.000Z</time>
      </trkpt>
      <trkpt lat="44.65191" lon="5.05545">
        <ele>519</ele>
        <time>2026-05-26T08:38:08.000Z</time>
      </trkpt>
      <trkpt lat="44.65192" lon="5.05543">
        <ele>520</ele>
        <time>2026-05-26T08:38:09.000Z</time>
      </trkpt>
      <trkpt lat="44.65195" lon="5.05543">
        <ele>520</ele>
        <time>2026-05-26T08:38:10.000Z</time>
      </trkpt>
      <trkpt lat="44.65196" lon="5.05543">
        <ele>519</ele>
        <time>2026-05-26T08:38:11.000Z</time>
      </trkpt>
      <trkpt lat="44.65196" lon="5.05543">
        <ele>519</ele>
        <time>2026-05-26T08:38:12.000Z</time>
      </trkpt>
      <trkpt lat="44.65196" lon="5.05541">
        <ele>519</ele>
        <time>2026-05-26T08:38:13.000Z</time>
      </trkpt>
      <trkpt lat="44.65195" lon="5.0554">
        <ele>520</ele>
        <time>2026-05-26T08:38:14.000Z</time>
      </trkpt>
      <trkpt lat="44.65194" lon="5.05539">
        <ele>520</ele>
        <time>2026-05-26T08:38:15.000Z</time>
      </trkpt>
      <trkpt lat="44.65195" lon="5.05538">
        <ele>521</ele>
        <time>2026-05-26T08:38:16.000Z</time>
      </trkpt>
      <trkpt lat="44.65195" lon="5.05538">
        <ele>521</ele>
        <time>2026-05-26T08:38:17.000Z</time>
      </trkpt>
      <trkpt lat="44.65195" lon="5.05536">
        <ele>520</ele>
        <time>2026-05-26T08:38:18.000Z</time>
      </trkpt>
      <trkpt lat="44.65196" lon="5.05535">
        <ele>520</ele>
        <time>2026-05-26T08:38:19.000Z</time>
      </trkpt>
      <trkpt lat="44.65195" lon="5.05533">
        <ele>521</ele>
        <time>2026-05-26T08:38:20.000Z</time>
      </trkpt>
      <trkpt lat="44.65196" lon="5.05532">
        <ele>521</ele>
        <time>2026-05-26T08:38:21.000Z</time>
      </trkpt>
      <trkpt lat="44.65196" lon="5.0553">
        <ele>522</ele>
        <time>2026-05-26T08:38:22.000Z</time>
      </trkpt>
      <trkpt lat="44.65196" lon="5.0553">
        <ele>522</ele>
        <time>2026-05-26T08:38:23.000Z</time>
      </trkpt>
      <trkpt lat="44.65197" lon="5.0553">
        <ele>521</ele>
        <time>2026-05-26T08:38:24.000Z</time>
      </trkpt>
      <trkpt lat="44.65198" lon="5.05529">
        <ele>521</ele>
        <time>2026-05-26T08:38:25.000Z</time>
      </trkpt>
      <trkpt lat="44.65199" lon="5.05528">
        <ele>521</ele>
        <time>2026-05-26T08:38:26.000Z</time>
      </trkpt>
      <trkpt lat="44.65199" lon="5.05527">
        <ele>522</ele>
        <time>2026-05-26T08:38:27.000Z</time>
      </trkpt>
      <trkpt lat="44.652" lon="5.05527">
        <ele>522</ele>
        <time>2026-05-26T08:38:28.000Z</time>
      </trkpt>
      <trkpt lat="44.652" lon="5.05526">
        <ele>522</ele>
        <time>2026-05-26T08:38:29.000Z</time>
      </trkpt>
      <trkpt lat="44.652" lon="5.05526">
        <ele>523</ele>
        <time>2026-05-26T08:38:30.000Z</time>
      </trkpt>
      <trkpt lat="44.652" lon="5.05524">
        <ele>522</ele>
        <time>2026-05-26T08:38:31.000Z</time>
      </trkpt>
      <trkpt lat="44.65201" lon="5.05523">
        <ele>522</ele>
        <time>2026-05-26T08:38:32.000Z</time>
      </trkpt>
      <trkpt lat="44.65201" lon="5.05521">
        <ele>522</ele>
        <time>2026-05-26T08:38:33.000Z</time>
      </trkpt>
      <trkpt lat="44.65201" lon="5.0552">
        <ele>523</ele>
        <time>2026-05-26T08:38:34.000Z</time>
      </trkpt>
      <trkpt lat="44.65201" lon="5.05519">
        <ele>523</ele>
        <time>2026-05-26T08:38:35.000Z</time>
      </trkpt>
      <trkpt lat="44.65201" lon="5.05519">
        <ele>523</ele>
        <time>2026-05-26T08:38:36.000Z</time>
      </trkpt>
      <trkpt lat="44.65201" lon="5.05518">
        <ele>525</ele>
        <time>2026-05-26T08:38:37.000Z</time>
      </trkpt>
      <trkpt lat="44.65202" lon="5.05517">
        <ele>525</ele>
        <time>2026-05-26T08:38:38.000Z</time>
      </trkpt>
      <trkpt lat="44.65204" lon="5.05517">
        <ele>525</ele>
        <time>2026-05-26T08:38:39.000Z</time>
      </trkpt>
      <trkpt lat="44.65205" lon="5.05517">
        <ele>525</ele>
        <time>2026-05-26T08:38:40.000Z</time>
      </trkpt>
      <trkpt lat="44.65206" lon="5.05515">
        <ele>525</ele>
        <time>2026-05-26T08:38:41.000Z</time>
      </trkpt>
      <trkpt lat="44.65206" lon="5.05514">
        <ele>525</ele>
        <time>2026-05-26T08:38:42.000Z</time>
      </trkpt>
      <trkpt lat="44.65206" lon="5.05513">
        <ele>525</ele>
        <time>2026-05-26T08:38:43.000Z</time>
      </trkpt>
      <trkpt lat="44.65206" lon="5.05513">
        <ele>526</ele>
        <time>2026-05-26T08:38:44.000Z</time>
      </trkpt>
      <trkpt lat="44.65206" lon="5.05511">
        <ele>527</ele>
        <time>2026-05-26T08:38:45.000Z</time>
      </trkpt>
      <trkpt lat="44.65206" lon="5.0551">
        <ele>527</ele>
        <time>2026-05-26T08:38:46.000Z</time>
      </trkpt>
      <trkpt lat="44.65206" lon="5.05509">
        <ele>527</ele>
        <time>2026-05-26T08:38:47.000Z</time>
      </trkpt>
      <trkpt lat="44.65206" lon="5.05507">
        <ele>527</ele>
        <time>2026-05-26T08:38:48.000Z</time>
      </trkpt>
      <trkpt lat="44.65207" lon="5.05506">
        <ele>527</ele>
        <time>2026-05-26T08:38:49.000Z</time>
      </trkpt>
      <trkpt lat="44.65207" lon="5.05505">
        <ele>527</ele>
        <time>2026-05-26T08:38:50.000Z</time>
      </trkpt>
      <trkpt lat="44.65208" lon="5.05504">
        <ele>528</ele>
        <time>2026-05-26T08:38:51.000Z</time>
      </trkpt>
      <trkpt lat="44.65209" lon="5.05504">
        <ele>528</ele>
        <time>2026-05-26T08:38:52.000Z</time>
      </trkpt>
      <trkpt lat="44.65209" lon="5.05503">
        <ele>528</ele>
        <time>2026-05-26T08:38:53.000Z</time>
      </trkpt>
      <trkpt lat="44.65208" lon="5.05503">
        <ele>528</ele>
        <time>2026-05-26T08:38:54.000Z</time>
      </trkpt>
      <trkpt lat="44.65209" lon="5.05503">
        <ele>527</ele>
        <time>2026-05-26T08:38:55.000Z</time>
      </trkpt>
      <trkpt lat="44.65209" lon="5.05501">
        <ele>527</ele>
        <time>2026-05-26T08:38:56.000Z</time>
      </trkpt>
      <trkpt lat="44.6521" lon="5.05499">
        <ele>527</ele>
        <time>2026-05-26T08:38:57.000Z</time>
      </trkpt>
      <trkpt lat="44.65211" lon="5.05497">
        <ele>528</ele>
        <time>2026-05-26T08:38:58.000Z</time>
      </trkpt>
      <trkpt lat="44.65211" lon="5.05497">
        <ele>528</ele>
        <time>2026-05-26T08:38:59.000Z</time>
      </trkpt>
      <trkpt lat="44.65212" lon="5.05496">
        <ele>527</ele>
        <time>2026-05-26T08:39:00.000Z</time>
      </trkpt>
      <trkpt lat="44.65213" lon="5.05495">
        <ele>527</ele>
        <time>2026-05-26T08:39:01.000Z</time>
      </trkpt>
      <trkpt lat="44.65214" lon="5.05494">
        <ele>527</ele>
        <time>2026-05-26T08:39:02.000Z</time>
      </trkpt>
      <trkpt lat="44.65215" lon="5.05493">
        <ele>527</ele>
        <time>2026-05-26T08:39:03.000Z</time>
      </trkpt>
      <trkpt lat="44.65216" lon="5.05492">
        <ele>527</ele>
        <time>2026-05-26T08:39:04.000Z</time>
      </trkpt>
      <trkpt lat="44.65217" lon="5.05491">
        <ele>527</ele>
        <time>2026-05-26T08:39:05.000Z</time>
      </trkpt>
      <trkpt lat="44.65216" lon="5.0549">
        <ele>528</ele>
        <time>2026-05-26T08:39:06.000Z</time>
      </trkpt>
      <trkpt lat="44.65215" lon="5.05489">
        <ele>528</ele>
        <time>2026-05-26T08:39:07.000Z</time>
      </trkpt>
      <trkpt lat="44.65216" lon="5.05488">
        <ele>527</ele>
        <time>2026-05-26T08:39:08.000Z</time>
      </trkpt>
      <trkpt lat="44.65216" lon="5.05487">
        <ele>527</ele>
        <time>2026-05-26T08:39:09.000Z</time>
      </trkpt>
      <trkpt lat="44.65215" lon="5.05488">
        <ele>528</ele>
        <time>2026-05-26T08:39:10.000Z</time>
      </trkpt>
      <trkpt lat="44.65216" lon="5.05486">
        <ele>528</ele>
        <time>2026-05-26T08:39:11.000Z</time>
      </trkpt>
      <trkpt lat="44.65218" lon="5.05485">
        <ele>529</ele>
        <time>2026-05-26T08:39:12.000Z</time>
      </trkpt>
      <trkpt lat="44.65218" lon="5.05485">
        <ele>529</ele>
        <time>2026-05-26T08:39:13.000Z</time>
      </trkpt>
      <trkpt lat="44.65219" lon="5.05485">
        <ele>529</ele>
        <time>2026-05-26T08:39:14.000Z</time>
      </trkpt>
      <trkpt lat="44.6522" lon="5.05483">
        <ele>529</ele>
        <time>2026-05-26T08:39:15.000Z</time>
      </trkpt>
      <trkpt lat="44.65221" lon="5.05483">
        <ele>528</ele>
        <time>2026-05-26T08:39:16.000Z</time>
      </trkpt>
      <trkpt lat="44.6522" lon="5.05481">
        <ele>529</ele>
        <time>2026-05-26T08:39:17.000Z</time>
      </trkpt>
      <trkpt lat="44.6522" lon="5.0548">
        <ele>530</ele>
        <time>2026-05-26T08:39:18.000Z</time>
      </trkpt>
      <trkpt lat="44.6522" lon="5.05479">
        <ele>530</ele>
        <time>2026-05-26T08:39:19.000Z</time>
      </trkpt>
      <trkpt lat="44.6522" lon="5.05477">
        <ele>531</ele>
        <time>2026-05-26T08:39:20.000Z</time>
      </trkpt>
      <trkpt lat="44.6522" lon="5.05477">
        <ele>532</ele>
        <time>2026-05-26T08:39:21.000Z</time>
      </trkpt>
      <trkpt lat="44.65221" lon="5.05476">
        <ele>532</ele>
        <time>2026-05-26T08:39:22.000Z</time>
      </trkpt>
      <trkpt lat="44.65222" lon="5.05475">
        <ele>531</ele>
        <time>2026-05-26T08:39:23.000Z</time>
      </trkpt>
      <trkpt lat="44.65221" lon="5.05475">
        <ele>531</ele>
        <time>2026-05-26T08:39:24.000Z</time>
      </trkpt>
      <trkpt lat="44.65222" lon="5.05474">
        <ele>532</ele>
        <time>2026-05-26T08:39:25.000Z</time>
      </trkpt>
      <trkpt lat="44.65221" lon="5.05474">
        <ele>532</ele>
        <time>2026-05-26T08:39:26.000Z</time>
      </trkpt>
      <trkpt lat="44.65221" lon="5.05473">
        <ele>532</ele>
        <time>2026-05-26T08:39:27.000Z</time>
      </trkpt>
      <trkpt lat="44.65221" lon="5.05472">
        <ele>532</ele>
        <time>2026-05-26T08:39:28.000Z</time>
      </trkpt>
      <trkpt lat="44.65223" lon="5.0547">
        <ele>531</ele>
        <time>2026-05-26T08:39:29.000Z</time>
      </trkpt>
      <trkpt lat="44.65224" lon="5.0547">
        <ele>531</ele>
        <time>2026-05-26T08:39:30.000Z</time>
      </trkpt>
      <trkpt lat="44.65225" lon="5.0547">
        <ele>532</ele>
        <time>2026-05-26T08:39:31.000Z</time>
      </trkpt>
      <trkpt lat="44.65226" lon="5.05468">
        <ele>533</ele>
        <time>2026-05-26T08:39:32.000Z</time>
      </trkpt>
      <trkpt lat="44.65227" lon="5.05467">
        <ele>532</ele>
        <time>2026-05-26T08:39:33.000Z</time>
      </trkpt>
      <trkpt lat="44.65229" lon="5.05467">
        <ele>532</ele>
        <time>2026-05-26T08:39:34.000Z</time>
      </trkpt>
      <trkpt lat="44.6523" lon="5.05467">
        <ele>531</ele>
        <time>2026-05-26T08:39:35.000Z</time>
      </trkpt>
      <trkpt lat="44.65231" lon="5.05467">
        <ele>531</ele>
        <time>2026-05-26T08:39:36.000Z</time>
      </trkpt>
      <trkpt lat="44.65232" lon="5.05467">
        <ele>531</ele>
        <time>2026-05-26T08:39:37.000Z</time>
      </trkpt>
      <trkpt lat="44.65232" lon="5.05466">
        <ele>531</ele>
        <time>2026-05-26T08:39:38.000Z</time>
      </trkpt>
      <trkpt lat="44.65233" lon="5.05465">
        <ele>531</ele>
        <time>2026-05-26T08:39:39.000Z</time>
      </trkpt>
      <trkpt lat="44.65233" lon="5.05464">
        <ele>531</ele>
        <time>2026-05-26T08:39:40.000Z</time>
      </trkpt>
      <trkpt lat="44.65234" lon="5.05465">
        <ele>531</ele>
        <time>2026-05-26T08:39:41.000Z</time>
      </trkpt>
      <trkpt lat="44.65234" lon="5.05465">
        <ele>532</ele>
        <time>2026-05-26T08:39:42.000Z</time>
      </trkpt>
      <trkpt lat="44.65234" lon="5.05465">
        <ele>532</ele>
        <time>2026-05-26T08:39:43.000Z</time>
      </trkpt>
      <trkpt lat="44.65235" lon="5.05464">
        <ele>532</ele>
        <time>2026-05-26T08:39:44.000Z</time>
      </trkpt>
      <trkpt lat="44.65237" lon="5.05463">
        <ele>532</ele>
        <time>2026-05-26T08:39:45.000Z</time>
      </trkpt>
      <trkpt lat="44.65237" lon="5.05463">
        <ele>532</ele>
        <time>2026-05-26T08:39:46.000Z</time>
      </trkpt>
      <trkpt lat="44.65238" lon="5.05462">
        <ele>531</ele>
        <time>2026-05-26T08:39:47.000Z</time>
      </trkpt>
      <trkpt lat="44.65238" lon="5.0546">
        <ele>531</ele>
        <time>2026-05-26T08:39:48.000Z</time>
      </trkpt>
      <trkpt lat="44.65237" lon="5.05461">
        <ele>531</ele>
        <time>2026-05-26T08:39:49.000Z</time>
      </trkpt>
      <trkpt lat="44.65238" lon="5.05461">
        <ele>531</ele>
        <time>2026-05-26T08:39:50.000Z</time>
      </trkpt>
      <trkpt lat="44.65239" lon="5.0546">
        <ele>531</ele>
        <time>2026-05-26T08:39:51.000Z</time>
      </trkpt>
      <trkpt lat="44.65239" lon="5.05459">
        <ele>531</ele>
        <time>2026-05-26T08:39:52.000Z</time>
      </trkpt>
      <trkpt lat="44.65241" lon="5.05459">
        <ele>532</ele>
        <time>2026-05-26T08:39:53.000Z</time>
      </trkpt>
      <trkpt lat="44.65242" lon="5.05459">
        <ele>532</ele>
        <time>2026-05-26T08:39:54.000Z</time>
      </trkpt>
      <trkpt lat="44.65243" lon="5.05459">
        <ele>532</ele>
        <time>2026-05-26T08:39:55.000Z</time>
      </trkpt>
      <trkpt lat="44.65243" lon="5.05459">
        <ele>532</ele>
        <time>2026-05-26T08:39:56.000Z</time>
      </trkpt>
      <trkpt lat="44.65244" lon="5.05457">
        <ele>532</ele>
        <time>2026-05-26T08:39:57.000Z</time>
      </trkpt>
      <trkpt lat="44.65245" lon="5.05457">
        <ele>532</ele>
        <time>2026-05-26T08:39:58.000Z</time>
      </trkpt>
      <trkpt lat="44.65245" lon="5.05457">
        <ele>532</ele>
        <time>2026-05-26T08:39:59.000Z</time>
      </trkpt>
      <trkpt lat="44.65246" lon="5.05456">
        <ele>533</ele>
        <time>2026-05-26T08:40:00.000Z</time>
      </trkpt>
      <trkpt lat="44.65247" lon="5.05456">
        <ele>533</ele>
        <time>2026-05-26T08:40:01.000Z</time>
      </trkpt>
      <trkpt lat="44.65249" lon="5.05457">
        <ele>533</ele>
        <time>2026-05-26T08:40:02.000Z</time>
      </trkpt>
      <trkpt lat="44.65249" lon="5.05457">
        <ele>534</ele>
        <time>2026-05-26T08:40:03.000Z</time>
      </trkpt>
      <trkpt lat="44.65249" lon="5.05456">
        <ele>534</ele>
        <time>2026-05-26T08:40:04.000Z</time>
      </trkpt>
      <trkpt lat="44.6525" lon="5.05456">
        <ele>534</ele>
        <time>2026-05-26T08:40:05.000Z</time>
      </trkpt>
      <trkpt lat="44.65251" lon="5.05456">
        <ele>533</ele>
        <time>2026-05-26T08:40:06.000Z</time>
      </trkpt>
      <trkpt lat="44.65251" lon="5.05455">
        <ele>534</ele>
        <time>2026-05-26T08:40:07.000Z</time>
      </trkpt>
      <trkpt lat="44.65251" lon="5.05454">
        <ele>534</ele>
        <time>2026-05-26T08:40:08.000Z</time>
      </trkpt>
      <trkpt lat="44.65251" lon="5.05453">
        <ele>534</ele>
        <time>2026-05-26T08:40:09.000Z</time>
      </trkpt>
      <trkpt lat="44.65251" lon="5.05452">
        <ele>535</ele>
        <time>2026-05-26T08:40:10.000Z</time>
      </trkpt>
      <trkpt lat="44.65252" lon="5.0545">
        <ele>535</ele>
        <time>2026-05-26T08:40:11.000Z</time>
      </trkpt>
      <trkpt lat="44.65253" lon="5.0545">
        <ele>535</ele>
        <time>2026-05-26T08:40:12.000Z</time>
      </trkpt>
      <trkpt lat="44.65253" lon="5.05449">
        <ele>535</ele>
        <time>2026-05-26T08:40:13.000Z</time>
      </trkpt>
      <trkpt lat="44.65254" lon="5.05448">
        <ele>535</ele>
        <time>2026-05-26T08:40:14.000Z</time>
      </trkpt>
      <trkpt lat="44.65255" lon="5.05447">
        <ele>535</ele>
        <time>2026-05-26T08:40:15.000Z</time>
      </trkpt>
      <trkpt lat="44.65255" lon="5.05446">
        <ele>536</ele>
        <time>2026-05-26T08:40:16.000Z</time>
      </trkpt>
      <trkpt lat="44.65255" lon="5.05445">
        <ele>536</ele>
        <time>2026-05-26T08:40:17.000Z</time>
      </trkpt>
      <trkpt lat="44.65255" lon="5.05443">
        <ele>537</ele>
        <time>2026-05-26T08:40:18.000Z</time>
      </trkpt>
      <trkpt lat="44.65254" lon="5.05442">
        <ele>538</ele>
        <time>2026-05-26T08:40:19.000Z</time>
      </trkpt>
      <trkpt lat="44.65255" lon="5.05442">
        <ele>538</ele>
        <time>2026-05-26T08:40:20.000Z</time>
      </trkpt>
      <trkpt lat="44.65255" lon="5.05442">
        <ele>538</ele>
        <time>2026-05-26T08:40:21.000Z</time>
      </trkpt>
      <trkpt lat="44.65256" lon="5.05439">
        <ele>538</ele>
        <time>2026-05-26T08:40:22.000Z</time>
      </trkpt>
      <trkpt lat="44.65257" lon="5.05439">
        <ele>537</ele>
        <time>2026-05-26T08:40:23.000Z</time>
      </trkpt>
      <trkpt lat="44.65258" lon="5.05439">
        <ele>537</ele>
        <time>2026-05-26T08:40:24.000Z</time>
      </trkpt>
      <trkpt lat="44.65257" lon="5.05439">
        <ele>538</ele>
        <time>2026-05-26T08:40:25.000Z</time>
      </trkpt>
      <trkpt lat="44.65257" lon="5.05439">
        <ele>539</ele>
        <time>2026-05-26T08:40:26.000Z</time>
      </trkpt>
      <trkpt lat="44.65257" lon="5.05437">
        <ele>540</ele>
        <time>2026-05-26T08:40:27.000Z</time>
      </trkpt>
      <trkpt lat="44.65257" lon="5.05435">
        <ele>541</ele>
        <time>2026-05-26T08:40:28.000Z</time>
      </trkpt>
      <trkpt lat="44.65257" lon="5.05434">
        <ele>541</ele>
        <time>2026-05-26T08:40:29.000Z</time>
      </trkpt>
      <trkpt lat="44.65258" lon="5.05432">
        <ele>541</ele>
        <time>2026-05-26T08:40:30.000Z</time>
      </trkpt>
      <trkpt lat="44.65259" lon="5.05431">
        <ele>540</ele>
        <time>2026-05-26T08:40:31.000Z</time>
      </trkpt>
      <trkpt lat="44.65258" lon="5.0543">
        <ele>541</ele>
        <time>2026-05-26T08:40:32.000Z</time>
      </trkpt>
      <trkpt lat="44.65259" lon="5.05427">
        <ele>540</ele>
        <time>2026-05-26T08:40:33.000Z</time>
      </trkpt>
      <trkpt lat="44.65259" lon="5.05425">
        <ele>540</ele>
        <time>2026-05-26T08:40:34.000Z</time>
      </trkpt>
      <trkpt lat="44.65259" lon="5.05423">
        <ele>539</ele>
        <time>2026-05-26T08:40:35.000Z</time>
      </trkpt>
      <trkpt lat="44.65258" lon="5.05423">
        <ele>538</ele>
        <time>2026-05-26T08:40:36.000Z</time>
      </trkpt>
      <trkpt lat="44.65259" lon="5.05422">
        <ele>539</ele>
        <time>2026-05-26T08:40:37.000Z</time>
      </trkpt>
      <trkpt lat="44.65259" lon="5.05422">
        <ele>539</ele>
        <time>2026-05-26T08:40:38.000Z</time>
      </trkpt>
      <trkpt lat="44.65259" lon="5.05422">
        <ele>539</ele>
        <time>2026-05-26T08:40:39.000Z</time>
      </trkpt>
      <trkpt lat="44.65259" lon="5.05422">
        <ele>539</ele>
        <time>2026-05-26T08:40:40.000Z</time>
      </trkpt>
      <trkpt lat="44.65259" lon="5.05422">
        <ele>539</ele>
        <time>2026-05-26T08:40:41.000Z</time>
      </trkpt>
      <trkpt lat="44.65259" lon="5.05422">
        <ele>539</ele>
        <time>2026-05-26T08:40:42.000Z</time>
      </trkpt>
      <trkpt lat="44.65259" lon="5.05422">
        <ele>539</ele>
        <time>2026-05-26T08:40:43.000Z</time>
      </trkpt>
      <trkpt lat="44.65259" lon="5.05422">
        <ele>539</ele>
        <time>2026-05-26T08:40:44.000Z</time>
      </trkpt>
      <trkpt lat="44.65259" lon="5.05422">
        <ele>539</ele>
        <time>2026-05-26T08:40:45.000Z</time>
      </trkpt>
      <trkpt lat="44.65259" lon="5.05422">
        <ele>539</ele>
        <time>2026-05-26T08:40:46.000Z</time>
      </trkpt>
      <trkpt lat="44.65259" lon="5.05422">
        <ele>539</ele>
        <time>2026-05-26T08:40:47.000Z</time>
      </trkpt>
      <trkpt lat="44.65259" lon="5.05422">
        <ele>539</ele>
        <time>2026-05-26T08:40:48.000Z</time>
      </trkpt>
      <trkpt lat="44.65259" lon="5.05422">
        <ele>539</ele>
        <time>2026-05-26T08:40:49.000Z</time>
      </trkpt>
      <trkpt lat="44.65259" lon="5.05422">
        <ele>539</ele>
        <time>2026-05-26T08:40:50.000Z</time>
      </trkpt>
      <trkpt lat="44.65259" lon="5.05422">
        <ele>539</ele>
        <time>2026-05-26T08:40:51.000Z</time>
      </trkpt>
      <trkpt lat="44.65259" lon="5.05422">
        <ele>539</ele>
        <time>2026-05-26T08:40:52.000Z</time>
      </trkpt>
      <trkpt lat="44.65259" lon="5.05422">
        <ele>539</ele>
        <time>2026-05-26T08:40:53.000Z</time>
      </trkpt>
      <trkpt lat="44.65259" lon="5.05422">
        <ele>539</ele>
        <time>2026-05-26T08:40:54.000Z</time>
      </trkpt>
      <trkpt lat="44.65259" lon="5.05422">
        <ele>539</ele>
        <time>2026-05-26T08:40:55.000Z</time>
      </trkpt>
      <trkpt lat="44.65259" lon="5.05422">
        <ele>539</ele>
        <time>2026-05-26T08:40:56.000Z</time>
      </trkpt>
      <trkpt lat="44.65259" lon="5.05422">
        <ele>539</ele>
        <time>2026-05-26T08:40:57.000Z</time>
      </trkpt>
      <trkpt lat="44.65259" lon="5.05422">
        <ele>539</ele>
        <time>2026-05-26T08:40:58.000Z</time>
      </trkpt>
      <trkpt lat="44.65259" lon="5.05422">
        <ele>539</ele>
        <time>2026-05-26T08:40:59.000Z</time>
      </trkpt>
      <trkpt lat="44.65259" lon="5.05422">
        <ele>539</ele>
        <time>2026-05-26T08:41:00.000Z</time>
      </trkpt>
      <trkpt lat="44.65259" lon="5.05422">
        <ele>539</ele>
        <time>2026-05-26T08:41:01.000Z</time>
      </trkpt>
      <trkpt lat="44.65259" lon="5.05422">
        <ele>539</ele>
        <time>2026-05-26T08:41:02.000Z</time>
      </trkpt>
      <trkpt lat="44.65259" lon="5.05422">
        <ele>539</ele>
        <time>2026-05-26T08:41:03.000Z</time>
      </trkpt>
      <trkpt lat="44.65259" lon="5.05422">
        <ele>539</ele>
        <time>2026-05-26T08:41:04.000Z</time>
      </trkpt>
      <trkpt lat="44.65259" lon="5.05422">
        <ele>539</ele>
        <time>2026-05-26T08:41:05.000Z</time>
      </trkpt>
      <trkpt lat="44.65259" lon="5.05422">
        <ele>539</ele>
        <time>2026-05-26T08:41:06.000Z</time>
      </trkpt>
      <trkpt lat="44.65259" lon="5.05422">
        <ele>539</ele>
        <time>2026-05-26T08:41:07.000Z</time>
      </trkpt>
      <trkpt lat="44.65259" lon="5.05422">
        <ele>539</ele>
        <time>2026-05-26T08:41:08.000Z</time>
      </trkpt>
      <trkpt lat="44.65259" lon="5.05422">
        <ele>539</ele>
        <time>2026-05-26T08:41:09.000Z</time>
      </trkpt>
      <trkpt lat="44.65259" lon="5.05422">
        <ele>539</ele>
        <time>2026-05-26T08:41:10.000Z</time>
      </trkpt>
      <trkpt lat="44.6526" lon="5.05422">
        <ele>539</ele>
        <time>2026-05-26T08:41:11.000Z</time>
      </trkpt>
      <trkpt lat="44.65261" lon="5.05423">
        <ele>540</ele>
        <time>2026-05-26T08:41:12.000Z</time>
      </trkpt>
      <trkpt lat="44.65261" lon="5.05424">
        <ele>540</ele>
        <time>2026-05-26T08:41:13.000Z</time>
      </trkpt>
      <trkpt lat="44.65262" lon="5.05425">
        <ele>540</ele>
        <time>2026-05-26T08:41:14.000Z</time>
      </trkpt>
      <trkpt lat="44.65262" lon="5.05426">
        <ele>540</ele>
        <time>2026-05-26T08:41:15.000Z</time>
      </trkpt>
      <trkpt lat="44.65262" lon="5.05427">
        <ele>540</ele>
        <time>2026-05-26T08:41:16.000Z</time>
      </trkpt>
      <trkpt lat="44.65262" lon="5.05427">
        <ele>540</ele>
        <time>2026-05-26T08:41:17.000Z</time>
      </trkpt>
      <trkpt lat="44.65262" lon="5.05427">
        <ele>540</ele>
        <time>2026-05-26T08:41:18.000Z</time>
      </trkpt>
      <trkpt lat="44.65262" lon="5.05427">
        <ele>540</ele>
        <time>2026-05-26T08:41:19.000Z</time>
      </trkpt>
      <trkpt lat="44.65262" lon="5.05427">
        <ele>540</ele>
        <time>2026-05-26T08:41:20.000Z</time>
      </trkpt>
      <trkpt lat="44.65262" lon="5.05427">
        <ele>540</ele>
        <time>2026-05-26T08:41:21.000Z</time>
      </trkpt>
      <trkpt lat="44.65262" lon="5.05427">
        <ele>540</ele>
        <time>2026-05-26T08:41:22.000Z</time>
      </trkpt>
      <trkpt lat="44.65262" lon="5.05427">
        <ele>540</ele>
        <time>2026-05-26T08:41:23.000Z</time>
      </trkpt>
      <trkpt lat="44.65262" lon="5.05427">
        <ele>540</ele>
        <time>2026-05-26T08:41:24.000Z</time>
      </trkpt>
      <trkpt lat="44.65262" lon="5.05427">
        <ele>540</ele>
        <time>2026-05-26T08:41:25.000Z</time>
      </trkpt>
      <trkpt lat="44.65262" lon="5.05427">
        <ele>540</ele>
        <time>2026-05-26T08:41:26.000Z</time>
      </trkpt>
      <trkpt lat="44.65262" lon="5.05427">
        <ele>540</ele>
        <time>2026-05-26T08:41:27.000Z</time>
      </trkpt>
      <trkpt lat="44.65262" lon="5.05427">
        <ele>540</ele>
        <time>2026-05-26T08:41:28.000Z</time>
      </trkpt>
      <trkpt lat="44.65262" lon="5.05427">
        <ele>540</ele>
        <time>2026-05-26T08:41:29.000Z</time>
      </trkpt>
      <trkpt lat="44.65262" lon="5.05427">
        <ele>540</ele>
        <time>2026-05-26T08:41:30.000Z</time>
      </trkpt>
      <trkpt lat="44.65262" lon="5.05427">
        <ele>540</ele>
        <time>2026-05-26T08:41:31.000Z</time>
      </trkpt>
      <trkpt lat="44.65262" lon="5.05427">
        <ele>540</ele>
        <time>2026-05-26T08:41:32.000Z</time>
      </trkpt>
      <trkpt lat="44.65262" lon="5.05427">
        <ele>540</ele>
        <time>2026-05-26T08:41:33.000Z</time>
      </trkpt>
      <trkpt lat="44.65262" lon="5.05427">
        <ele>540</ele>
        <time>2026-05-26T08:41:34.000Z</time>
      </trkpt>
      <trkpt lat="44.65262" lon="5.05427">
        <ele>540</ele>
        <time>2026-05-26T08:41:35.000Z</time>
      </trkpt>
      <trkpt lat="44.65262" lon="5.05427">
        <ele>540</ele>
        <time>2026-05-26T08:41:36.000Z</time>
      </trkpt>
      <trkpt lat="44.65262" lon="5.05427">
        <ele>540</ele>
        <time>2026-05-26T08:41:37.000Z</time>
      </trkpt>
      <trkpt lat="44.65262" lon="5.05427">
        <ele>540</ele>
        <time>2026-05-26T08:41:38.000Z</time>
      </trkpt>
      <trkpt lat="44.65262" lon="5.05427">
        <ele>540</ele>
        <time>2026-05-26T08:41:39.000Z</time>
      </trkpt>
      <trkpt lat="44.65262" lon="5.05427">
        <ele>540</ele>
        <time>2026-05-26T08:41:40.000Z</time>
      </trkpt>
      <trkpt lat="44.65262" lon="5.05427">
        <ele>540</ele>
        <time>2026-05-26T08:41:41.000Z</time>
      </trkpt>
      <trkpt lat="44.65262" lon="5.05427">
        <ele>540</ele>
        <time>2026-05-26T08:41:42.000Z</time>
      </trkpt>
      <trkpt lat="44.65262" lon="5.05427">
        <ele>540</ele>
        <time>2026-05-26T08:41:43.000Z</time>
      </trkpt>
      <trkpt lat="44.65262" lon="5.05427">
        <ele>540</ele>
        <time>2026-05-26T08:41:44.000Z</time>
      </trkpt>
      <trkpt lat="44.65262" lon="5.05427">
        <ele>540</ele>
        <time>2026-05-26T08:41:45.000Z</time>
      </trkpt>
      <trkpt lat="44.65262" lon="5.05427">
        <ele>540</ele>
        <time>2026-05-26T08:41:46.000Z</time>
      </trkpt>
      <trkpt lat="44.65262" lon="5.05427">
        <ele>540</ele>
        <time>2026-05-26T08:41:47.000Z</time>
      </trkpt>
      <trkpt lat="44.65262" lon="5.05427">
        <ele>540</ele>
        <time>2026-05-26T08:41:48.000Z</time>
      </trkpt>
      <trkpt lat="44.65262" lon="5.05427">
        <ele>540</ele>
        <time>2026-05-26T08:41:49.000Z</time>
      </trkpt>
      <trkpt lat="44.65262" lon="5.05427">
        <ele>540</ele>
        <time>2026-05-26T08:41:50.000Z</time>
      </trkpt>
      <trkpt lat="44.65262" lon="5.05427">
        <ele>540</ele>
        <time>2026-05-26T08:41:51.000Z</time>
      </trkpt>
      <trkpt lat="44.65262" lon="5.05427">
        <ele>540</ele>
        <time>2026-05-26T08:41:52.000Z</time>
      </trkpt>
      <trkpt lat="44.65262" lon="5.05426">
        <ele>541</ele>
        <time>2026-05-26T08:41:53.000Z</time>
      </trkpt>
      <trkpt lat="44.65262" lon="5.05426">
        <ele>541</ele>
        <time>2026-05-26T08:41:54.000Z</time>
      </trkpt>
      <trkpt lat="44.65262" lon="5.05426">
        <ele>541</ele>
        <time>2026-05-26T08:41:55.000Z</time>
      </trkpt>
      <trkpt lat="44.65261" lon="5.05426">
        <ele>540</ele>
        <time>2026-05-26T08:41:56.000Z</time>
      </trkpt>
      <trkpt lat="44.65261" lon="5.05426">
        <ele>540</ele>
        <time>2026-05-26T08:41:57.000Z</time>
      </trkpt>
      <trkpt lat="44.65261" lon="5.05424">
        <ele>540</ele>
        <time>2026-05-26T08:41:58.000Z</time>
      </trkpt>
      <trkpt lat="44.65261" lon="5.05424">
        <ele>540</ele>
        <time>2026-05-26T08:41:59.000Z</time>
      </trkpt>
      <trkpt lat="44.65261" lon="5.05422">
        <ele>540</ele>
        <time>2026-05-26T08:42:00.000Z</time>
      </trkpt>
      <trkpt lat="44.65262" lon="5.05421">
        <ele>541</ele>
        <time>2026-05-26T08:42:01.000Z</time>
      </trkpt>
      <trkpt lat="44.65262" lon="5.0542">
        <ele>541</ele>
        <time>2026-05-26T08:42:02.000Z</time>
      </trkpt>
      <trkpt lat="44.65262" lon="5.0542">
        <ele>542</ele>
        <time>2026-05-26T08:42:03.000Z</time>
      </trkpt>
      <trkpt lat="44.65263" lon="5.0542">
        <ele>543</ele>
        <time>2026-05-26T08:42:04.000Z</time>
      </trkpt>
      <trkpt lat="44.65263" lon="5.05419">
        <ele>543</ele>
        <time>2026-05-26T08:42:05.000Z</time>
      </trkpt>
      <trkpt lat="44.65263" lon="5.05418">
        <ele>543</ele>
        <time>2026-05-26T08:42:06.000Z</time>
      </trkpt>
      <trkpt lat="44.65263" lon="5.05416">
        <ele>543</ele>
        <time>2026-05-26T08:42:07.000Z</time>
      </trkpt>
      <trkpt lat="44.65264" lon="5.05415">
        <ele>543</ele>
        <time>2026-05-26T08:42:08.000Z</time>
      </trkpt>
      <trkpt lat="44.65264" lon="5.05414">
        <ele>543</ele>
        <time>2026-05-26T08:42:09.000Z</time>
      </trkpt>
      <trkpt lat="44.65264" lon="5.05414">
        <ele>543</ele>
        <time>2026-05-26T08:42:10.000Z</time>
      </trkpt>
      <trkpt lat="44.65264" lon="5.05413">
        <ele>543</ele>
        <time>2026-05-26T08:42:11.000Z</time>
      </trkpt>
      <trkpt lat="44.65264" lon="5.05412">
        <ele>543</ele>
        <time>2026-05-26T08:42:12.000Z</time>
      </trkpt>
      <trkpt lat="44.65264" lon="5.05412">
        <ele>543</ele>
        <time>2026-05-26T08:42:13.000Z</time>
      </trkpt>
      <trkpt lat="44.65264" lon="5.05412">
        <ele>543</ele>
        <time>2026-05-26T08:42:14.000Z</time>
      </trkpt>
      <trkpt lat="44.65264" lon="5.05412">
        <ele>543</ele>
        <time>2026-05-26T08:42:15.000Z</time>
      </trkpt>
      <trkpt lat="44.65264" lon="5.05412">
        <ele>543</ele>
        <time>2026-05-26T08:42:16.000Z</time>
      </trkpt>
      <trkpt lat="44.65264" lon="5.05412">
        <ele>543</ele>
        <time>2026-05-26T08:42:17.000Z</time>
      </trkpt>
      <trkpt lat="44.65264" lon="5.05412">
        <ele>543</ele>
        <time>2026-05-26T08:42:18.000Z</time>
      </trkpt>
      <trkpt lat="44.65264" lon="5.05412">
        <ele>543</ele>
        <time>2026-05-26T08:42:19.000Z</time>
      </trkpt>
      <trkpt lat="44.65264" lon="5.05412">
        <ele>543</ele>
        <time>2026-05-26T08:42:20.000Z</time>
      </trkpt>
      <trkpt lat="44.65264" lon="5.05412">
        <ele>543</ele>
        <time>2026-05-26T08:42:21.000Z</time>
      </trkpt>
      <trkpt lat="44.65264" lon="5.05412">
        <ele>543</ele>
        <time>2026-05-26T08:42:22.000Z</time>
      </trkpt>
      <trkpt lat="44.65264" lon="5.05412">
        <ele>543</ele>
        <time>2026-05-26T08:42:23.000Z</time>
      </trkpt>
      <trkpt lat="44.65264" lon="5.05412">
        <ele>543</ele>
        <time>2026-05-26T08:42:24.000Z</time>
      </trkpt>
      <trkpt lat="44.65264" lon="5.05412">
        <ele>543</ele>
        <time>2026-05-26T08:42:25.000Z</time>
      </trkpt>
      <trkpt lat="44.65264" lon="5.05412">
        <ele>543</ele>
        <time>2026-05-26T08:42:26.000Z</time>
      </trkpt>
      <trkpt lat="44.65264" lon="5.05412">
        <ele>543</ele>
        <time>2026-05-26T08:42:27.000Z</time>
      </trkpt>
      <trkpt lat="44.65264" lon="5.05412">
        <ele>543</ele>
        <time>2026-05-26T08:42:28.000Z</time>
      </trkpt>
      <trkpt lat="44.65264" lon="5.05412">
        <ele>543</ele>
        <time>2026-05-26T08:42:29.000Z</time>
      </trkpt>
      <trkpt lat="44.65264" lon="5.05412">
        <ele>543</ele>
        <time>2026-05-26T08:42:30.000Z</time>
      </trkpt>
      <trkpt lat="44.65264" lon="5.05412">
        <ele>543</ele>
        <time>2026-05-26T08:42:31.000Z</time>
      </trkpt>
      <trkpt lat="44.65264" lon="5.05412">
        <ele>543</ele>
        <time>2026-05-26T08:42:32.000Z</time>
      </trkpt>
      <trkpt lat="44.65264" lon="5.05412">
        <ele>543</ele>
        <time>2026-05-26T08:42:33.000Z</time>
      </trkpt>
      <trkpt lat="44.65264" lon="5.05412">
        <ele>543</ele>
        <time>2026-05-26T08:42:34.000Z</time>
      </trkpt>
      <trkpt lat="44.65264" lon="5.05412">
        <ele>543</ele>
        <time>2026-05-26T08:42:35.000Z</time>
      </trkpt>
      <trkpt lat="44.65264" lon="5.05412">
        <ele>543</ele>
        <time>2026-05-26T08:42:36.000Z</time>
      </trkpt>
      <trkpt lat="44.65264" lon="5.05412">
        <ele>543</ele>
        <time>2026-05-26T08:42:37.000Z</time>
      </trkpt>
      <trkpt lat="44.65264" lon="5.05412">
        <ele>543</ele>
        <time>2026-05-26T08:42:38.000Z</time>
      </trkpt>
      <trkpt lat="44.65264" lon="5.05412">
        <ele>543</ele>
        <time>2026-05-26T08:42:39.000Z</time>
      </trkpt>
      <trkpt lat="44.65264" lon="5.05412">
        <ele>543</ele>
        <time>2026-05-26T08:42:40.000Z</time>
      </trkpt>
      <trkpt lat="44.65264" lon="5.05413">
        <ele>542</ele>
        <time>2026-05-26T08:42:41.000Z</time>
      </trkpt>
      <trkpt lat="44.65264" lon="5.05413">
        <ele>541</ele>
        <time>2026-05-26T08:42:42.000Z</time>
      </trkpt>
      <trkpt lat="44.65264" lon="5.05413">
        <ele>541</ele>
        <time>2026-05-26T08:42:43.000Z</time>
      </trkpt>
      <trkpt lat="44.65264" lon="5.05413">
        <ele>541</ele>
        <time>2026-05-26T08:42:44.000Z</time>
      </trkpt>
      <trkpt lat="44.65264" lon="5.05414">
        <ele>540</ele>
        <time>2026-05-26T08:42:45.000Z</time>
      </trkpt>
      <trkpt lat="44.65264" lon="5.05415">
        <ele>538</ele>
        <time>2026-05-26T08:42:46.000Z</time>
      </trkpt>
      <trkpt lat="44.65262" lon="5.05414">
        <ele>539</ele>
        <time>2026-05-26T08:42:47.000Z</time>
      </trkpt>
      <trkpt lat="44.65263" lon="5.05414">
        <ele>539</ele>
        <time>2026-05-26T08:42:48.000Z</time>
      </trkpt>
      <trkpt lat="44.65263" lon="5.05414">
        <ele>539</ele>
        <time>2026-05-26T08:42:49.000Z</time>
      </trkpt>
      <trkpt lat="44.65263" lon="5.05414">
        <ele>539</ele>
        <time>2026-05-26T08:42:50.000Z</time>
      </trkpt>
      <trkpt lat="44.65263" lon="5.05414">
        <ele>539</ele>
        <time>2026-05-26T08:42:51.000Z</time>
      </trkpt>
      <trkpt lat="44.65263" lon="5.05414">
        <ele>539</ele>
        <time>2026-05-26T08:42:52.000Z</time>
      </trkpt>
      <trkpt lat="44.65263" lon="5.05414">
        <ele>539</ele>
        <time>2026-05-26T08:42:53.000Z</time>
      </trkpt>
      <trkpt lat="44.65263" lon="5.05414">
        <ele>539</ele>
        <time>2026-05-26T08:42:54.000Z</time>
      </trkpt>
      <trkpt lat="44.65264" lon="5.05411">
        <ele>540</ele>
        <time>2026-05-26T08:42:55.000Z</time>
      </trkpt>
      <trkpt lat="44.65266" lon="5.05411">
        <ele>540</ele>
        <time>2026-05-26T08:42:56.000Z</time>
      </trkpt>
      <trkpt lat="44.65266" lon="5.05411">
        <ele>539</ele>
        <time>2026-05-26T08:42:57.000Z</time>
      </trkpt>
      <trkpt lat="44.65266" lon="5.05411">
        <ele>539</ele>
        <time>2026-05-26T08:42:58.000Z</time>
      </trkpt>
      <trkpt lat="44.65266" lon="5.05411">
        <ele>539</ele>
        <time>2026-05-26T08:42:59.000Z</time>
      </trkpt>
      <trkpt lat="44.65266" lon="5.05411">
        <ele>539</ele>
        <time>2026-05-26T08:43:00.000Z</time>
      </trkpt>
      <trkpt lat="44.65266" lon="5.05411">
        <ele>539</ele>
        <time>2026-05-26T08:43:01.000Z</time>
      </trkpt>
      <trkpt lat="44.65266" lon="5.05411">
        <ele>539</ele>
        <time>2026-05-26T08:43:02.000Z</time>
      </trkpt>
      <trkpt lat="44.65266" lon="5.05411">
        <ele>539</ele>
        <time>2026-05-26T08:43:03.000Z</time>
      </trkpt>
      <trkpt lat="44.65266" lon="5.05411">
        <ele>539</ele>
        <time>2026-05-26T08:43:04.000Z</time>
      </trkpt>
      <trkpt lat="44.65266" lon="5.05411">
        <ele>539</ele>
        <time>2026-05-26T08:43:05.000Z</time>
      </trkpt>
      <trkpt lat="44.65266" lon="5.05411">
        <ele>539</ele>
        <time>2026-05-26T08:43:06.000Z</time>
      </trkpt>
      <trkpt lat="44.65266" lon="5.05411">
        <ele>539</ele>
        <time>2026-05-26T08:43:07.000Z</time>
      </trkpt>
      <trkpt lat="44.65266" lon="5.05411">
        <ele>539</ele>
        <time>2026-05-26T08:43:08.000Z</time>
      </trkpt>
      <trkpt lat="44.65265" lon="5.05411">
        <ele>539</ele>
        <time>2026-05-26T08:43:09.000Z</time>
      </trkpt>
      <trkpt lat="44.65264" lon="5.05412">
        <ele>540</ele>
        <time>2026-05-26T08:43:10.000Z</time>
      </trkpt>
      <trkpt lat="44.65264" lon="5.05413">
        <ele>541</ele>
        <time>2026-05-26T08:43:11.000Z</time>
      </trkpt>
      <trkpt lat="44.65265" lon="5.05413">
        <ele>541</ele>
        <time>2026-05-26T08:43:12.000Z</time>
      </trkpt>
      <trkpt lat="44.65264" lon="5.05414">
        <ele>542</ele>
        <time>2026-05-26T08:43:13.000Z</time>
      </trkpt>
      <trkpt lat="44.65264" lon="5.05414">
        <ele>542</ele>
        <time>2026-05-26T08:43:14.000Z</time>
      </trkpt>
      <trkpt lat="44.65264" lon="5.05415">
        <ele>543</ele>
        <time>2026-05-26T08:43:15.000Z</time>
      </trkpt>
      <trkpt lat="44.65264" lon="5.05415">
        <ele>543</ele>
        <time>2026-05-26T08:43:16.000Z</time>
      </trkpt>
      <trkpt lat="44.65264" lon="5.05414">
        <ele>543</ele>
        <time>2026-05-26T08:43:17.000Z</time>
      </trkpt>
      <trkpt lat="44.65265" lon="5.05412">
        <ele>543</ele>
        <time>2026-05-26T08:43:18.000Z</time>
      </trkpt>
      <trkpt lat="44.65267" lon="5.05411">
        <ele>543</ele>
        <time>2026-05-26T08:43:19.000Z</time>
      </trkpt>
      <trkpt lat="44.65267" lon="5.05409">
        <ele>543</ele>
        <time>2026-05-26T08:43:20.000Z</time>
      </trkpt>
      <trkpt lat="44.65268" lon="5.05409">
        <ele>543</ele>
        <time>2026-05-26T08:43:21.000Z</time>
      </trkpt>
      <trkpt lat="44.65268" lon="5.05409">
        <ele>543</ele>
        <time>2026-05-26T08:43:22.000Z</time>
      </trkpt>
      <trkpt lat="44.65269" lon="5.05409">
        <ele>543</ele>
        <time>2026-05-26T08:43:23.000Z</time>
      </trkpt>
      <trkpt lat="44.6527" lon="5.05407">
        <ele>543</ele>
        <time>2026-05-26T08:43:24.000Z</time>
      </trkpt>
      <trkpt lat="44.6527" lon="5.05407">
        <ele>543</ele>
        <time>2026-05-26T08:43:25.000Z</time>
      </trkpt>
      <trkpt lat="44.6527" lon="5.05407">
        <ele>543</ele>
        <time>2026-05-26T08:43:26.000Z</time>
      </trkpt>
      <trkpt lat="44.65271" lon="5.05406">
        <ele>544</ele>
        <time>2026-05-26T08:43:27.000Z</time>
      </trkpt>
      <trkpt lat="44.65272" lon="5.05406">
        <ele>543</ele>
        <time>2026-05-26T08:43:28.000Z</time>
      </trkpt>
      <trkpt lat="44.65273" lon="5.05406">
        <ele>543</ele>
        <time>2026-05-26T08:43:29.000Z</time>
      </trkpt>
      <trkpt lat="44.65274" lon="5.05406">
        <ele>543</ele>
        <time>2026-05-26T08:43:30.000Z</time>
      </trkpt>
      <trkpt lat="44.65275" lon="5.05405">
        <ele>544</ele>
        <time>2026-05-26T08:43:31.000Z</time>
      </trkpt>
      <trkpt lat="44.65276" lon="5.05404">
        <ele>544</ele>
        <time>2026-05-26T08:43:32.000Z</time>
      </trkpt>
      <trkpt lat="44.65276" lon="5.05404">
        <ele>544</ele>
        <time>2026-05-26T08:43:33.000Z</time>
      </trkpt>
      <trkpt lat="44.65276" lon="5.05404">
        <ele>545</ele>
        <time>2026-05-26T08:43:34.000Z</time>
      </trkpt>
      <trkpt lat="44.65275" lon="5.05404">
        <ele>545</ele>
        <time>2026-05-26T08:43:35.000Z</time>
      </trkpt>
      <trkpt lat="44.65275" lon="5.05403">
        <ele>546</ele>
        <time>2026-05-26T08:43:36.000Z</time>
      </trkpt>
      <trkpt lat="44.65276" lon="5.05402">
        <ele>547</ele>
        <time>2026-05-26T08:43:37.000Z</time>
      </trkpt>
      <trkpt lat="44.65277" lon="5.05401">
        <ele>547</ele>
        <time>2026-05-26T08:43:38.000Z</time>
      </trkpt>
      <trkpt lat="44.65277" lon="5.054">
        <ele>547</ele>
        <time>2026-05-26T08:43:39.000Z</time>
      </trkpt>
      <trkpt lat="44.65277" lon="5.05398">
        <ele>547</ele>
        <time>2026-05-26T08:43:40.000Z</time>
      </trkpt>
      <trkpt lat="44.65278" lon="5.05397">
        <ele>547</ele>
        <time>2026-05-26T08:43:41.000Z</time>
      </trkpt>
      <trkpt lat="44.65278" lon="5.05397">
        <ele>547</ele>
        <time>2026-05-26T08:43:42.000Z</time>
      </trkpt>
      <trkpt lat="44.65279" lon="5.05397">
        <ele>547</ele>
        <time>2026-05-26T08:43:43.000Z</time>
      </trkpt>
      <trkpt lat="44.65279" lon="5.05396">
        <ele>547</ele>
        <time>2026-05-26T08:43:44.000Z</time>
      </trkpt>
      <trkpt lat="44.65279" lon="5.05396">
        <ele>547</ele>
        <time>2026-05-26T08:43:45.000Z</time>
      </trkpt>
      <trkpt lat="44.65279" lon="5.05395">
        <ele>547</ele>
        <time>2026-05-26T08:43:46.000Z</time>
      </trkpt>
      <trkpt lat="44.65279" lon="5.05394">
        <ele>548</ele>
        <time>2026-05-26T08:43:47.000Z</time>
      </trkpt>
      <trkpt lat="44.6528" lon="5.05393">
        <ele>548</ele>
        <time>2026-05-26T08:43:48.000Z</time>
      </trkpt>
      <trkpt lat="44.6528" lon="5.05392">
        <ele>548</ele>
        <time>2026-05-26T08:43:49.000Z</time>
      </trkpt>
      <trkpt lat="44.65281" lon="5.05391">
        <ele>548</ele>
        <time>2026-05-26T08:43:50.000Z</time>
      </trkpt>
      <trkpt lat="44.65281" lon="5.0539">
        <ele>548</ele>
        <time>2026-05-26T08:43:51.000Z</time>
      </trkpt>
      <trkpt lat="44.65282" lon="5.0539">
        <ele>548</ele>
        <time>2026-05-26T08:43:52.000Z</time>
      </trkpt>
      <trkpt lat="44.65283" lon="5.0539">
        <ele>548</ele>
        <time>2026-05-26T08:43:53.000Z</time>
      </trkpt>
      <trkpt lat="44.65283" lon="5.05389">
        <ele>549</ele>
        <time>2026-05-26T08:43:54.000Z</time>
      </trkpt>
      <trkpt lat="44.65283" lon="5.05387">
        <ele>549</ele>
        <time>2026-05-26T08:43:55.000Z</time>
      </trkpt>
      <trkpt lat="44.65283" lon="5.05385">
        <ele>548</ele>
        <time>2026-05-26T08:43:56.000Z</time>
      </trkpt>
      <trkpt lat="44.65282" lon="5.05383">
        <ele>549</ele>
        <time>2026-05-26T08:43:57.000Z</time>
      </trkpt>
      <trkpt lat="44.65282" lon="5.05382">
        <ele>549</ele>
        <time>2026-05-26T08:43:58.000Z</time>
      </trkpt>
      <trkpt lat="44.65283" lon="5.05382">
        <ele>549</ele>
        <time>2026-05-26T08:43:59.000Z</time>
      </trkpt>
      <trkpt lat="44.65283" lon="5.05383">
        <ele>550</ele>
        <time>2026-05-26T08:44:00.000Z</time>
      </trkpt>
      <trkpt lat="44.65284" lon="5.05384">
        <ele>551</ele>
        <time>2026-05-26T08:44:01.000Z</time>
      </trkpt>
      <trkpt lat="44.65285" lon="5.05384">
        <ele>552</ele>
        <time>2026-05-26T08:44:02.000Z</time>
      </trkpt>
      <trkpt lat="44.65285" lon="5.05383">
        <ele>553</ele>
        <time>2026-05-26T08:44:03.000Z</time>
      </trkpt>
      <trkpt lat="44.65286" lon="5.05382">
        <ele>553</ele>
        <time>2026-05-26T08:44:04.000Z</time>
      </trkpt>
      <trkpt lat="44.65286" lon="5.05381">
        <ele>553</ele>
        <time>2026-05-26T08:44:05.000Z</time>
      </trkpt>
      <trkpt lat="44.65286" lon="5.05381">
        <ele>553</ele>
        <time>2026-05-26T08:44:06.000Z</time>
      </trkpt>
      <trkpt lat="44.65286" lon="5.05381">
        <ele>553</ele>
        <time>2026-05-26T08:44:07.000Z</time>
      </trkpt>
      <trkpt lat="44.65287" lon="5.05379">
        <ele>553</ele>
        <time>2026-05-26T08:44:08.000Z</time>
      </trkpt>
      <trkpt lat="44.65287" lon="5.05378">
        <ele>552</ele>
        <time>2026-05-26T08:44:09.000Z</time>
      </trkpt>
      <trkpt lat="44.65286" lon="5.05376">
        <ele>552</ele>
        <time>2026-05-26T08:44:10.000Z</time>
      </trkpt>
      <trkpt lat="44.65287" lon="5.05375">
        <ele>552</ele>
        <time>2026-05-26T08:44:11.000Z</time>
      </trkpt>
      <trkpt lat="44.65288" lon="5.05373">
        <ele>552</ele>
        <time>2026-05-26T08:44:12.000Z</time>
      </trkpt>
      <trkpt lat="44.65288" lon="5.05373">
        <ele>552</ele>
        <time>2026-05-26T08:44:13.000Z</time>
      </trkpt>
      <trkpt lat="44.65288" lon="5.05371">
        <ele>553</ele>
        <time>2026-05-26T08:44:14.000Z</time>
      </trkpt>
      <trkpt lat="44.65288" lon="5.05371">
        <ele>554</ele>
        <time>2026-05-26T08:44:15.000Z</time>
      </trkpt>
      <trkpt lat="44.65289" lon="5.05371">
        <ele>554</ele>
        <time>2026-05-26T08:44:16.000Z</time>
      </trkpt>
      <trkpt lat="44.6529" lon="5.05371">
        <ele>555</ele>
        <time>2026-05-26T08:44:17.000Z</time>
      </trkpt>
      <trkpt lat="44.65291" lon="5.05371">
        <ele>554</ele>
        <time>2026-05-26T08:44:18.000Z</time>
      </trkpt>
      <trkpt lat="44.65292" lon="5.05369">
        <ele>555</ele>
        <time>2026-05-26T08:44:19.000Z</time>
      </trkpt>
      <trkpt lat="44.65292" lon="5.05368">
        <ele>555</ele>
        <time>2026-05-26T08:44:20.000Z</time>
      </trkpt>
      <trkpt lat="44.65291" lon="5.05367">
        <ele>556</ele>
        <time>2026-05-26T08:44:21.000Z</time>
      </trkpt>
      <trkpt lat="44.65291" lon="5.05366">
        <ele>555</ele>
        <time>2026-05-26T08:44:22.000Z</time>
      </trkpt>
      <trkpt lat="44.65291" lon="5.05366">
        <ele>555</ele>
        <time>2026-05-26T08:44:23.000Z</time>
      </trkpt>
      <trkpt lat="44.65292" lon="5.05366">
        <ele>555</ele>
        <time>2026-05-26T08:44:24.000Z</time>
      </trkpt>
      <trkpt lat="44.65291" lon="5.05365">
        <ele>555</ele>
        <time>2026-05-26T08:44:25.000Z</time>
      </trkpt>
      <trkpt lat="44.65292" lon="5.05364">
        <ele>554</ele>
        <time>2026-05-26T08:44:26.000Z</time>
      </trkpt>
      <trkpt lat="44.65292" lon="5.05363">
        <ele>554</ele>
        <time>2026-05-26T08:44:27.000Z</time>
      </trkpt>
      <trkpt lat="44.65293" lon="5.05364">
        <ele>554</ele>
        <time>2026-05-26T08:44:28.000Z</time>
      </trkpt>
      <trkpt lat="44.65294" lon="5.05364">
        <ele>554</ele>
        <time>2026-05-26T08:44:29.000Z</time>
      </trkpt>
      <trkpt lat="44.65295" lon="5.05361">
        <ele>554</ele>
        <time>2026-05-26T08:44:30.000Z</time>
      </trkpt>
      <trkpt lat="44.65296" lon="5.05361">
        <ele>554</ele>
        <time>2026-05-26T08:44:31.000Z</time>
      </trkpt>
      <trkpt lat="44.65296" lon="5.05358">
        <ele>554</ele>
        <time>2026-05-26T08:44:32.000Z</time>
      </trkpt>
      <trkpt lat="44.65296" lon="5.05358">
        <ele>554</ele>
        <time>2026-05-26T08:44:33.000Z</time>
      </trkpt>
      <trkpt lat="44.65296" lon="5.05357">
        <ele>554</ele>
        <time>2026-05-26T08:44:34.000Z</time>
      </trkpt>
      <trkpt lat="44.65296" lon="5.05356">
        <ele>554</ele>
        <time>2026-05-26T08:44:35.000Z</time>
      </trkpt>
      <trkpt lat="44.65297" lon="5.05355">
        <ele>554</ele>
        <time>2026-05-26T08:44:36.000Z</time>
      </trkpt>
      <trkpt lat="44.65297" lon="5.05355">
        <ele>555</ele>
        <time>2026-05-26T08:44:37.000Z</time>
      </trkpt>
      <trkpt lat="44.65297" lon="5.05355">
        <ele>555</ele>
        <time>2026-05-26T08:44:38.000Z</time>
      </trkpt>
      <trkpt lat="44.65296" lon="5.05354">
        <ele>555</ele>
        <time>2026-05-26T08:44:39.000Z</time>
      </trkpt>
      <trkpt lat="44.65296" lon="5.05354">
        <ele>554</ele>
        <time>2026-05-26T08:44:40.000Z</time>
      </trkpt>
      <trkpt lat="44.65297" lon="5.05352">
        <ele>555</ele>
        <time>2026-05-26T08:44:41.000Z</time>
      </trkpt>
      <trkpt lat="44.65296" lon="5.05352">
        <ele>554</ele>
        <time>2026-05-26T08:44:42.000Z</time>
      </trkpt>
      <trkpt lat="44.65296" lon="5.0535">
        <ele>554</ele>
        <time>2026-05-26T08:44:43.000Z</time>
      </trkpt>
      <trkpt lat="44.65296" lon="5.05348">
        <ele>554</ele>
        <time>2026-05-26T08:44:44.000Z</time>
      </trkpt>
      <trkpt lat="44.65296" lon="5.05347">
        <ele>554</ele>
        <time>2026-05-26T08:44:45.000Z</time>
      </trkpt>
      <trkpt lat="44.65296" lon="5.05346">
        <ele>554</ele>
        <time>2026-05-26T08:44:46.000Z</time>
      </trkpt>
      <trkpt lat="44.65297" lon="5.05347">
        <ele>555</ele>
        <time>2026-05-26T08:44:47.000Z</time>
      </trkpt>
      <trkpt lat="44.65297" lon="5.05346">
        <ele>555</ele>
        <time>2026-05-26T08:44:48.000Z</time>
      </trkpt>
      <trkpt lat="44.65297" lon="5.05344">
        <ele>555</ele>
        <time>2026-05-26T08:44:49.000Z</time>
      </trkpt>
      <trkpt lat="44.65297" lon="5.05343">
        <ele>555</ele>
        <time>2026-05-26T08:44:50.000Z</time>
      </trkpt>
      <trkpt lat="44.65298" lon="5.05341">
        <ele>555</ele>
        <time>2026-05-26T08:44:51.000Z</time>
      </trkpt>
      <trkpt lat="44.65298" lon="5.0534">
        <ele>555</ele>
        <time>2026-05-26T08:44:52.000Z</time>
      </trkpt>
      <trkpt lat="44.65299" lon="5.05339">
        <ele>554</ele>
        <time>2026-05-26T08:44:53.000Z</time>
      </trkpt>
      <trkpt lat="44.65299" lon="5.05338">
        <ele>554</ele>
        <time>2026-05-26T08:44:54.000Z</time>
      </trkpt>
      <trkpt lat="44.653" lon="5.05336">
        <ele>553</ele>
        <time>2026-05-26T08:44:55.000Z</time>
      </trkpt>
      <trkpt lat="44.653" lon="5.05337">
        <ele>554</ele>
        <time>2026-05-26T08:44:56.000Z</time>
      </trkpt>
      <trkpt lat="44.653" lon="5.05338">
        <ele>554</ele>
        <time>2026-05-26T08:44:57.000Z</time>
      </trkpt>
      <trkpt lat="44.65301" lon="5.05337">
        <ele>556</ele>
        <time>2026-05-26T08:44:58.000Z</time>
      </trkpt>
      <trkpt lat="44.65302" lon="5.05336">
        <ele>557</ele>
        <time>2026-05-26T08:44:59.000Z</time>
      </trkpt>
      <trkpt lat="44.65302" lon="5.05336">
        <ele>557</ele>
        <time>2026-05-26T08:45:00.000Z</time>
      </trkpt>
      <trkpt lat="44.65302" lon="5.05336">
        <ele>557</ele>
        <time>2026-05-26T08:45:01.000Z</time>
      </trkpt>
      <trkpt lat="44.65302" lon="5.05336">
        <ele>556</ele>
        <time>2026-05-26T08:45:02.000Z</time>
      </trkpt>
      <trkpt lat="44.65302" lon="5.05336">
        <ele>556</ele>
        <time>2026-05-26T08:45:03.000Z</time>
      </trkpt>
      <trkpt lat="44.65302" lon="5.05336">
        <ele>554</ele>
        <time>2026-05-26T08:45:04.000Z</time>
      </trkpt>
      <trkpt lat="44.65302" lon="5.05336">
        <ele>554</ele>
        <time>2026-05-26T08:45:05.000Z</time>
      </trkpt>
      <trkpt lat="44.65303" lon="5.05334">
        <ele>557</ele>
        <time>2026-05-26T08:45:06.000Z</time>
      </trkpt>
      <trkpt lat="44.65303" lon="5.05334">
        <ele>557</ele>
        <time>2026-05-26T08:45:07.000Z</time>
      </trkpt>
      <trkpt lat="44.65304" lon="5.05332">
        <ele>559</ele>
        <time>2026-05-26T08:45:08.000Z</time>
      </trkpt>
      <trkpt lat="44.65304" lon="5.05332">
        <ele>560</ele>
        <time>2026-05-26T08:45:09.000Z</time>
      </trkpt>
      <trkpt lat="44.65304" lon="5.05331">
        <ele>560</ele>
        <time>2026-05-26T08:45:10.000Z</time>
      </trkpt>
      <trkpt lat="44.65304" lon="5.05329">
        <ele>562</ele>
        <time>2026-05-26T08:45:11.000Z</time>
      </trkpt>
      <trkpt lat="44.65305" lon="5.05329">
        <ele>561</ele>
        <time>2026-05-26T08:45:12.000Z</time>
      </trkpt>
      <trkpt lat="44.65306" lon="5.05328">
        <ele>561</ele>
        <time>2026-05-26T08:45:13.000Z</time>
      </trkpt>
      <trkpt lat="44.65307" lon="5.05326">
        <ele>562</ele>
        <time>2026-05-26T08:45:14.000Z</time>
      </trkpt>
      <trkpt lat="44.65307" lon="5.05326">
        <ele>561</ele>
        <time>2026-05-26T08:45:15.000Z</time>
      </trkpt>
      <trkpt lat="44.65307" lon="5.05326">
        <ele>561</ele>
        <time>2026-05-26T08:45:16.000Z</time>
      </trkpt>
      <trkpt lat="44.65308" lon="5.05326">
        <ele>561</ele>
        <time>2026-05-26T08:45:17.000Z</time>
      </trkpt>
      <trkpt lat="44.65308" lon="5.05326">
        <ele>561</ele>
        <time>2026-05-26T08:45:18.000Z</time>
      </trkpt>
      <trkpt lat="44.65308" lon="5.05326">
        <ele>560</ele>
        <time>2026-05-26T08:45:19.000Z</time>
      </trkpt>
      <trkpt lat="44.65308" lon="5.05326">
        <ele>561</ele>
        <time>2026-05-26T08:45:20.000Z</time>
      </trkpt>
      <trkpt lat="44.65308" lon="5.0532">
        <ele>562</ele>
        <time>2026-05-26T08:45:21.000Z</time>
      </trkpt>
      <trkpt lat="44.65308" lon="5.0532">
        <ele>562</ele>
        <time>2026-05-26T08:45:22.000Z</time>
      </trkpt>
      <trkpt lat="44.65308" lon="5.05317">
        <ele>562</ele>
        <time>2026-05-26T08:45:23.000Z</time>
      </trkpt>
      <trkpt lat="44.65308" lon="5.05317">
        <ele>562</ele>
        <time>2026-05-26T08:45:24.000Z</time>
      </trkpt>
      <trkpt lat="44.65308" lon="5.05317">
        <ele>562</ele>
        <time>2026-05-26T08:45:25.000Z</time>
      </trkpt>
      <trkpt lat="44.65309" lon="5.05314">
        <ele>563</ele>
        <time>2026-05-26T08:45:26.000Z</time>
      </trkpt>
      <trkpt lat="44.6531" lon="5.05314">
        <ele>562</ele>
        <time>2026-05-26T08:45:27.000Z</time>
      </trkpt>
      <trkpt lat="44.6531" lon="5.05314">
        <ele>562</ele>
        <time>2026-05-26T08:45:28.000Z</time>
      </trkpt>
      <trkpt lat="44.6531" lon="5.05314">
        <ele>562</ele>
        <time>2026-05-26T08:45:29.000Z</time>
      </trkpt>
      <trkpt lat="44.6531" lon="5.05314">
        <ele>562</ele>
        <time>2026-05-26T08:45:30.000Z</time>
      </trkpt>
      <trkpt lat="44.6531" lon="5.05314">
        <ele>562</ele>
        <time>2026-05-26T08:45:31.000Z</time>
      </trkpt>
      <trkpt lat="44.6531" lon="5.05314">
        <ele>562</ele>
        <time>2026-05-26T08:45:32.000Z</time>
      </trkpt>
      <trkpt lat="44.6531" lon="5.05314">
        <ele>562</ele>
        <time>2026-05-26T08:45:33.000Z</time>
      </trkpt>
      <trkpt lat="44.6531" lon="5.05314">
        <ele>562</ele>
        <time>2026-05-26T08:45:34.000Z</time>
      </trkpt>
      <trkpt lat="44.6531" lon="5.05314">
        <ele>562</ele>
        <time>2026-05-26T08:45:35.000Z</time>
      </trkpt>
      <trkpt lat="44.6531" lon="5.05314">
        <ele>562</ele>
        <time>2026-05-26T08:45:36.000Z</time>
      </trkpt>
      <trkpt lat="44.6531" lon="5.05314">
        <ele>562</ele>
        <time>2026-05-26T08:45:37.000Z</time>
      </trkpt>
      <trkpt lat="44.65309" lon="5.05314">
        <ele>562</ele>
        <time>2026-05-26T08:45:38.000Z</time>
      </trkpt>
      <trkpt lat="44.65309" lon="5.05314">
        <ele>562</ele>
        <time>2026-05-26T08:45:39.000Z</time>
      </trkpt>
      <trkpt lat="44.65309" lon="5.05314">
        <ele>562</ele>
        <time>2026-05-26T08:45:40.000Z</time>
      </trkpt>
      <trkpt lat="44.65309" lon="5.05314">
        <ele>562</ele>
        <time>2026-05-26T08:45:41.000Z</time>
      </trkpt>
      <trkpt lat="44.65309" lon="5.05314">
        <ele>562</ele>
        <time>2026-05-26T08:45:42.000Z</time>
      </trkpt>
      <trkpt lat="44.65311" lon="5.05315">
        <ele>562</ele>
        <time>2026-05-26T08:45:43.000Z</time>
      </trkpt>
      <trkpt lat="44.65311" lon="5.05313">
        <ele>562</ele>
        <time>2026-05-26T08:45:44.000Z</time>
      </trkpt>
      <trkpt lat="44.65309" lon="5.05315">
        <ele>561</ele>
        <time>2026-05-26T08:45:45.000Z</time>
      </trkpt>
      <trkpt lat="44.65308" lon="5.05315">
        <ele>561</ele>
        <time>2026-05-26T08:45:46.000Z</time>
      </trkpt>
      <trkpt lat="44.65308" lon="5.05315">
        <ele>561</ele>
        <time>2026-05-26T08:45:47.000Z</time>
      </trkpt>
      <trkpt lat="44.65308" lon="5.05315">
        <ele>560</ele>
        <time>2026-05-26T08:45:48.000Z</time>
      </trkpt>
      <trkpt lat="44.65308" lon="5.05315">
        <ele>560</ele>
        <time>2026-05-26T08:45:49.000Z</time>
      </trkpt>
      <trkpt lat="44.65308" lon="5.05315">
        <ele>560</ele>
        <time>2026-05-26T08:45:50.000Z</time>
      </trkpt>
      <trkpt lat="44.65308" lon="5.05315">
        <ele>560</ele>
        <time>2026-05-26T08:45:51.000Z</time>
      </trkpt>
      <trkpt lat="44.65308" lon="5.05315">
        <ele>560</ele>
        <time>2026-05-26T08:45:52.000Z</time>
      </trkpt>
      <trkpt lat="44.65308" lon="5.05315">
        <ele>560</ele>
        <time>2026-05-26T08:45:53.000Z</time>
      </trkpt>
      <trkpt lat="44.65308" lon="5.05315">
        <ele>560</ele>
        <time>2026-05-26T08:45:54.000Z</time>
      </trkpt>
      <trkpt lat="44.65308" lon="5.05315">
        <ele>560</ele>
        <time>2026-05-26T08:45:55.000Z</time>
      </trkpt>
      <trkpt lat="44.65308" lon="5.05315">
        <ele>560</ele>
        <time>2026-05-26T08:45:56.000Z</time>
      </trkpt>
      <trkpt lat="44.65308" lon="5.05315">
        <ele>560</ele>
        <time>2026-05-26T08:45:57.000Z</time>
      </trkpt>
      <trkpt lat="44.65308" lon="5.05315">
        <ele>560</ele>
        <time>2026-05-26T08:45:58.000Z</time>
      </trkpt>
      <trkpt lat="44.65308" lon="5.05315">
        <ele>560</ele>
        <time>2026-05-26T08:45:59.000Z</time>
      </trkpt>
      <trkpt lat="44.65308" lon="5.05315">
        <ele>560</ele>
        <time>2026-05-26T08:46:00.000Z</time>
      </trkpt>
      <trkpt lat="44.65308" lon="5.05315">
        <ele>560</ele>
        <time>2026-05-26T08:46:01.000Z</time>
      </trkpt>
      <trkpt lat="44.65308" lon="5.05315">
        <ele>560</ele>
        <time>2026-05-26T08:46:02.000Z</time>
      </trkpt>
      <trkpt lat="44.65308" lon="5.05315">
        <ele>560</ele>
        <time>2026-05-26T08:46:03.000Z</time>
      </trkpt>
      <trkpt lat="44.65308" lon="5.05315">
        <ele>560</ele>
        <time>2026-05-26T08:46:04.000Z</time>
      </trkpt>
      <trkpt lat="44.65308" lon="5.05315">
        <ele>560</ele>
        <time>2026-05-26T08:46:05.000Z</time>
      </trkpt>
      <trkpt lat="44.65308" lon="5.05315">
        <ele>560</ele>
        <time>2026-05-26T08:46:06.000Z</time>
      </trkpt>
      <trkpt lat="44.65308" lon="5.05315">
        <ele>560</ele>
        <time>2026-05-26T08:46:07.000Z</time>
      </trkpt>
      <trkpt lat="44.65308" lon="5.05315">
        <ele>560</ele>
        <time>2026-05-26T08:46:08.000Z</time>
      </trkpt>
      <trkpt lat="44.65308" lon="5.05315">
        <ele>560</ele>
        <time>2026-05-26T08:46:09.000Z</time>
      </trkpt>
      <trkpt lat="44.65308" lon="5.05315">
        <ele>560</ele>
        <time>2026-05-26T08:46:10.000Z</time>
      </trkpt>
      <trkpt lat="44.65308" lon="5.05315">
        <ele>560</ele>
        <time>2026-05-26T08:46:11.000Z</time>
      </trkpt>
      <trkpt lat="44.65308" lon="5.05315">
        <ele>560</ele>
        <time>2026-05-26T08:46:12.000Z</time>
      </trkpt>
      <trkpt lat="44.65308" lon="5.05315">
        <ele>560</ele>
        <time>2026-05-26T08:46:13.000Z</time>
      </trkpt>
      <trkpt lat="44.65308" lon="5.05315">
        <ele>560</ele>
        <time>2026-05-26T08:46:14.000Z</time>
      </trkpt>
      <trkpt lat="44.65308" lon="5.05315">
        <ele>560</ele>
        <time>2026-05-26T08:46:15.000Z</time>
      </trkpt>
      <trkpt lat="44.65308" lon="5.05315">
        <ele>560</ele>
        <time>2026-05-26T08:46:16.000Z</time>
      </trkpt>
      <trkpt lat="44.65308" lon="5.05315">
        <ele>560</ele>
        <time>2026-05-26T08:46:17.000Z</time>
      </trkpt>
      <trkpt lat="44.65308" lon="5.05316">
        <ele>560</ele>
        <time>2026-05-26T08:46:18.000Z</time>
      </trkpt>
      <trkpt lat="44.65308" lon="5.05316">
        <ele>560</ele>
        <time>2026-05-26T08:46:19.000Z</time>
      </trkpt>
      <trkpt lat="44.65308" lon="5.05316">
        <ele>560</ele>
        <time>2026-05-26T08:46:20.000Z</time>
      </trkpt>
      <trkpt lat="44.65308" lon="5.05316">
        <ele>560</ele>
        <time>2026-05-26T08:46:21.000Z</time>
      </trkpt>
      <trkpt lat="44.65308" lon="5.05316">
        <ele>560</ele>
        <time>2026-05-26T08:46:22.000Z</time>
      </trkpt>
      <trkpt lat="44.65308" lon="5.05316">
        <ele>560</ele>
        <time>2026-05-26T08:46:23.000Z</time>
      </trkpt>
      <trkpt lat="44.65308" lon="5.05316">
        <ele>560</ele>
        <time>2026-05-26T08:46:24.000Z</time>
      </trkpt>
      <trkpt lat="44.65308" lon="5.05317">
        <ele>561</ele>
        <time>2026-05-26T08:46:25.000Z</time>
      </trkpt>
      <trkpt lat="44.65307" lon="5.05317">
        <ele>561</ele>
        <time>2026-05-26T08:46:26.000Z</time>
      </trkpt>
      <trkpt lat="44.65308" lon="5.05317">
        <ele>562</ele>
        <time>2026-05-26T08:46:27.000Z</time>
      </trkpt>
      <trkpt lat="44.65307" lon="5.05317">
        <ele>562</ele>
        <time>2026-05-26T08:46:28.000Z</time>
      </trkpt>
      <trkpt lat="44.65308" lon="5.05317">
        <ele>562</ele>
        <time>2026-05-26T08:46:29.000Z</time>
      </trkpt>
      <trkpt lat="44.65309" lon="5.05317">
        <ele>562</ele>
        <time>2026-05-26T08:46:30.000Z</time>
      </trkpt>
      <trkpt lat="44.65309" lon="5.05316">
        <ele>563</ele>
        <time>2026-05-26T08:46:31.000Z</time>
      </trkpt>
      <trkpt lat="44.65309" lon="5.05316">
        <ele>563</ele>
        <time>2026-05-26T08:46:32.000Z</time>
      </trkpt>
      <trkpt lat="44.65309" lon="5.05316">
        <ele>563</ele>
        <time>2026-05-26T08:46:33.000Z</time>
      </trkpt>
      <trkpt lat="44.65309" lon="5.05315">
        <ele>563</ele>
        <time>2026-05-26T08:46:34.000Z</time>
      </trkpt>
      <trkpt lat="44.6531" lon="5.05314">
        <ele>563</ele>
        <time>2026-05-26T08:46:35.000Z</time>
      </trkpt>
      <trkpt lat="44.65311" lon="5.05314">
        <ele>562</ele>
        <time>2026-05-26T08:46:36.000Z</time>
      </trkpt>
      <trkpt lat="44.65312" lon="5.05311">
        <ele>563</ele>
        <time>2026-05-26T08:46:37.000Z</time>
      </trkpt>
      <trkpt lat="44.65313" lon="5.0531">
        <ele>563</ele>
        <time>2026-05-26T08:46:38.000Z</time>
      </trkpt>
      <trkpt lat="44.65314" lon="5.05308">
        <ele>563</ele>
        <time>2026-05-26T08:46:39.000Z</time>
      </trkpt>
      <trkpt lat="44.65313" lon="5.05306">
        <ele>563</ele>
        <time>2026-05-26T08:46:40.000Z</time>
      </trkpt>
      <trkpt lat="44.65314" lon="5.05306">
        <ele>565</ele>
        <time>2026-05-26T08:46:41.000Z</time>
      </trkpt>
      <trkpt lat="44.65314" lon="5.05305">
        <ele>564</ele>
        <time>2026-05-26T08:46:42.000Z</time>
      </trkpt>
      <trkpt lat="44.65314" lon="5.05305">
        <ele>565</ele>
        <time>2026-05-26T08:46:43.000Z</time>
      </trkpt>
      <trkpt lat="44.65314" lon="5.05304">
        <ele>565</ele>
        <time>2026-05-26T08:46:44.000Z</time>
      </trkpt>
      <trkpt lat="44.65315" lon="5.05304">
        <ele>565</ele>
        <time>2026-05-26T08:46:45.000Z</time>
      </trkpt>
      <trkpt lat="44.65314" lon="5.05302">
        <ele>565</ele>
        <time>2026-05-26T08:46:46.000Z</time>
      </trkpt>
      <trkpt lat="44.65314" lon="5.053">
        <ele>565</ele>
        <time>2026-05-26T08:46:47.000Z</time>
      </trkpt>
      <trkpt lat="44.65314" lon="5.05299">
        <ele>565</ele>
        <time>2026-05-26T08:46:48.000Z</time>
      </trkpt>
      <trkpt lat="44.65314" lon="5.05299">
        <ele>566</ele>
        <time>2026-05-26T08:46:49.000Z</time>
      </trkpt>
      <trkpt lat="44.65314" lon="5.05299">
        <ele>567</ele>
        <time>2026-05-26T08:46:50.000Z</time>
      </trkpt>
      <trkpt lat="44.65314" lon="5.05297">
        <ele>567</ele>
        <time>2026-05-26T08:46:51.000Z</time>
      </trkpt>
      <trkpt lat="44.65315" lon="5.05297">
        <ele>567</ele>
        <time>2026-05-26T08:46:52.000Z</time>
      </trkpt>
      <trkpt lat="44.65316" lon="5.05295">
        <ele>568</ele>
        <time>2026-05-26T08:46:53.000Z</time>
      </trkpt>
      <trkpt lat="44.65317" lon="5.05295">
        <ele>568</ele>
        <time>2026-05-26T08:46:54.000Z</time>
      </trkpt>
      <trkpt lat="44.65317" lon="5.05294">
        <ele>568</ele>
        <time>2026-05-26T08:46:55.000Z</time>
      </trkpt>
      <trkpt lat="44.65318" lon="5.05294">
        <ele>569</ele>
        <time>2026-05-26T08:46:56.000Z</time>
      </trkpt>
      <trkpt lat="44.65318" lon="5.05294">
        <ele>569</ele>
        <time>2026-05-26T08:46:57.000Z</time>
      </trkpt>
      <trkpt lat="44.65319" lon="5.05293">
        <ele>569</ele>
        <time>2026-05-26T08:46:58.000Z</time>
      </trkpt>
      <trkpt lat="44.65319" lon="5.05291">
        <ele>570</ele>
        <time>2026-05-26T08:46:59.000Z</time>
      </trkpt>
      <trkpt lat="44.65319" lon="5.05291">
        <ele>570</ele>
        <time>2026-05-26T08:47:00.000Z</time>
      </trkpt>
      <trkpt lat="44.6532" lon="5.05289">
        <ele>570</ele>
        <time>2026-05-26T08:47:01.000Z</time>
      </trkpt>
      <trkpt lat="44.6532" lon="5.05287">
        <ele>568</ele>
        <time>2026-05-26T08:47:02.000Z</time>
      </trkpt>
      <trkpt lat="44.6532" lon="5.05287">
        <ele>568</ele>
        <time>2026-05-26T08:47:03.000Z</time>
      </trkpt>
      <trkpt lat="44.6532" lon="5.05287">
        <ele>568</ele>
        <time>2026-05-26T08:47:04.000Z</time>
      </trkpt>
      <trkpt lat="44.6532" lon="5.05287">
        <ele>568</ele>
        <time>2026-05-26T08:47:05.000Z</time>
      </trkpt>
      <trkpt lat="44.65321" lon="5.05287">
        <ele>568</ele>
        <time>2026-05-26T08:47:06.000Z</time>
      </trkpt>
      <trkpt lat="44.65321" lon="5.05287">
        <ele>567</ele>
        <time>2026-05-26T08:47:07.000Z</time>
      </trkpt>
      <trkpt lat="44.65322" lon="5.05287">
        <ele>568</ele>
        <time>2026-05-26T08:47:08.000Z</time>
      </trkpt>
      <trkpt lat="44.65322" lon="5.05287">
        <ele>568</ele>
        <time>2026-05-26T08:47:09.000Z</time>
      </trkpt>
      <trkpt lat="44.65323" lon="5.05286">
        <ele>568</ele>
        <time>2026-05-26T08:47:10.000Z</time>
      </trkpt>
      <trkpt lat="44.65324" lon="5.05286">
        <ele>568</ele>
        <time>2026-05-26T08:47:11.000Z</time>
      </trkpt>
      <trkpt lat="44.65324" lon="5.05285">
        <ele>568</ele>
        <time>2026-05-26T08:47:12.000Z</time>
      </trkpt>
      <trkpt lat="44.65325" lon="5.05283">
        <ele>568</ele>
        <time>2026-05-26T08:47:13.000Z</time>
      </trkpt>
      <trkpt lat="44.65325" lon="5.05283">
        <ele>568</ele>
        <time>2026-05-26T08:47:14.000Z</time>
      </trkpt>
      <trkpt lat="44.65326" lon="5.05282">
        <ele>568</ele>
        <time>2026-05-26T08:47:15.000Z</time>
      </trkpt>
      <trkpt lat="44.65327" lon="5.05283">
        <ele>569</ele>
        <time>2026-05-26T08:47:16.000Z</time>
      </trkpt>
      <trkpt lat="44.65327" lon="5.05283">
        <ele>569</ele>
        <time>2026-05-26T08:47:17.000Z</time>
      </trkpt>
      <trkpt lat="44.65328" lon="5.05283">
        <ele>569</ele>
        <time>2026-05-26T08:47:18.000Z</time>
      </trkpt>
      <trkpt lat="44.65328" lon="5.05283">
        <ele>570</ele>
        <time>2026-05-26T08:47:19.000Z</time>
      </trkpt>
      <trkpt lat="44.65328" lon="5.05283">
        <ele>571</ele>
        <time>2026-05-26T08:47:20.000Z</time>
      </trkpt>
      <trkpt lat="44.65328" lon="5.05281">
        <ele>571</ele>
        <time>2026-05-26T08:47:21.000Z</time>
      </trkpt>
      <trkpt lat="44.65329" lon="5.0528">
        <ele>571</ele>
        <time>2026-05-26T08:47:22.000Z</time>
      </trkpt>
      <trkpt lat="44.65329" lon="5.05278">
        <ele>570</ele>
        <time>2026-05-26T08:47:23.000Z</time>
      </trkpt>
      <trkpt lat="44.6533" lon="5.05276">
        <ele>570</ele>
        <time>2026-05-26T08:47:24.000Z</time>
      </trkpt>
      <trkpt lat="44.65331" lon="5.05275">
        <ele>569</ele>
        <time>2026-05-26T08:47:25.000Z</time>
      </trkpt>
      <trkpt lat="44.65331" lon="5.05274">
        <ele>570</ele>
        <time>2026-05-26T08:47:26.000Z</time>
      </trkpt>
      <trkpt lat="44.65332" lon="5.05273">
        <ele>570</ele>
        <time>2026-05-26T08:47:27.000Z</time>
      </trkpt>
      <trkpt lat="44.65332" lon="5.05272">
        <ele>570</ele>
        <time>2026-05-26T08:47:28.000Z</time>
      </trkpt>
      <trkpt lat="44.65332" lon="5.05273">
        <ele>571</ele>
        <time>2026-05-26T08:47:29.000Z</time>
      </trkpt>
      <trkpt lat="44.65332" lon="5.05272">
        <ele>570</ele>
        <time>2026-05-26T08:47:30.000Z</time>
      </trkpt>
      <trkpt lat="44.65332" lon="5.05271">
        <ele>571</ele>
        <time>2026-05-26T08:47:31.000Z</time>
      </trkpt>
      <trkpt lat="44.65333" lon="5.05272">
        <ele>570</ele>
        <time>2026-05-26T08:47:32.000Z</time>
      </trkpt>
      <trkpt lat="44.65333" lon="5.0527">
        <ele>570</ele>
        <time>2026-05-26T08:47:33.000Z</time>
      </trkpt>
      <trkpt lat="44.65334" lon="5.05269">
        <ele>571</ele>
        <time>2026-05-26T08:47:34.000Z</time>
      </trkpt>
      <trkpt lat="44.65334" lon="5.05268">
        <ele>570</ele>
        <time>2026-05-26T08:47:35.000Z</time>
      </trkpt>
      <trkpt lat="44.65335" lon="5.05268">
        <ele>571</ele>
        <time>2026-05-26T08:47:36.000Z</time>
      </trkpt>
      <trkpt lat="44.65335" lon="5.05267">
        <ele>571</ele>
        <time>2026-05-26T08:47:37.000Z</time>
      </trkpt>
      <trkpt lat="44.65336" lon="5.05266">
        <ele>571</ele>
        <time>2026-05-26T08:47:38.000Z</time>
      </trkpt>
      <trkpt lat="44.65336" lon="5.05265">
        <ele>571</ele>
        <time>2026-05-26T08:47:39.000Z</time>
      </trkpt>
      <trkpt lat="44.65336" lon="5.05264">
        <ele>572</ele>
        <time>2026-05-26T08:47:40.000Z</time>
      </trkpt>
      <trkpt lat="44.65336" lon="5.05263">
        <ele>573</ele>
        <time>2026-05-26T08:47:41.000Z</time>
      </trkpt>
      <trkpt lat="44.65336" lon="5.05262">
        <ele>573</ele>
        <time>2026-05-26T08:47:42.000Z</time>
      </trkpt>
      <trkpt lat="44.65336" lon="5.05262">
        <ele>573</ele>
        <time>2026-05-26T08:47:43.000Z</time>
      </trkpt>
      <trkpt lat="44.65336" lon="5.05262">
        <ele>573</ele>
        <time>2026-05-26T08:47:44.000Z</time>
      </trkpt>
      <trkpt lat="44.65336" lon="5.05262">
        <ele>573</ele>
        <time>2026-05-26T08:47:45.000Z</time>
      </trkpt>
      <trkpt lat="44.65338" lon="5.05258">
        <ele>574</ele>
        <time>2026-05-26T08:47:46.000Z</time>
      </trkpt>
      <trkpt lat="44.65338" lon="5.05258">
        <ele>575</ele>
        <time>2026-05-26T08:47:47.000Z</time>
      </trkpt>
      <trkpt lat="44.65339" lon="5.05256">
        <ele>575</ele>
        <time>2026-05-26T08:47:48.000Z</time>
      </trkpt>
      <trkpt lat="44.65339" lon="5.05255">
        <ele>574</ele>
        <time>2026-05-26T08:47:49.000Z</time>
      </trkpt>
      <trkpt lat="44.6534" lon="5.05255">
        <ele>575</ele>
        <time>2026-05-26T08:47:50.000Z</time>
      </trkpt>
      <trkpt lat="44.6534" lon="5.05255">
        <ele>575</ele>
        <time>2026-05-26T08:47:51.000Z</time>
      </trkpt>
      <trkpt lat="44.6534" lon="5.05255">
        <ele>577</ele>
        <time>2026-05-26T08:47:52.000Z</time>
      </trkpt>
      <trkpt lat="44.6534" lon="5.05255">
        <ele>576</ele>
        <time>2026-05-26T08:47:53.000Z</time>
      </trkpt>
      <trkpt lat="44.6534" lon="5.05254">
        <ele>578</ele>
        <time>2026-05-26T08:47:54.000Z</time>
      </trkpt>
      <trkpt lat="44.6534" lon="5.05253">
        <ele>578</ele>
        <time>2026-05-26T08:47:55.000Z</time>
      </trkpt>
      <trkpt lat="44.65341" lon="5.05252">
        <ele>577</ele>
        <time>2026-05-26T08:47:56.000Z</time>
      </trkpt>
      <trkpt lat="44.65341" lon="5.05252">
        <ele>577</ele>
        <time>2026-05-26T08:47:57.000Z</time>
      </trkpt>
      <trkpt lat="44.65341" lon="5.05253">
        <ele>576</ele>
        <time>2026-05-26T08:47:58.000Z</time>
      </trkpt>
      <trkpt lat="44.6534" lon="5.05253">
        <ele>576</ele>
        <time>2026-05-26T08:47:59.000Z</time>
      </trkpt>
      <trkpt lat="44.65339" lon="5.05252">
        <ele>576</ele>
        <time>2026-05-26T08:48:00.000Z</time>
      </trkpt>
      <trkpt lat="44.65339" lon="5.0525">
        <ele>577</ele>
        <time>2026-05-26T08:48:01.000Z</time>
      </trkpt>
      <trkpt lat="44.65339" lon="5.05249">
        <ele>577</ele>
        <time>2026-05-26T08:48:02.000Z</time>
      </trkpt>
      <trkpt lat="44.6534" lon="5.05247">
        <ele>576</ele>
        <time>2026-05-26T08:48:03.000Z</time>
      </trkpt>
      <trkpt lat="44.65341" lon="5.05246">
        <ele>577</ele>
        <time>2026-05-26T08:48:04.000Z</time>
      </trkpt>
      <trkpt lat="44.65342" lon="5.05246">
        <ele>577</ele>
        <time>2026-05-26T08:48:05.000Z</time>
      </trkpt>
      <trkpt lat="44.65342" lon="5.05244">
        <ele>578</ele>
        <time>2026-05-26T08:48:06.000Z</time>
      </trkpt>
      <trkpt lat="44.65342" lon="5.05243">
        <ele>578</ele>
        <time>2026-05-26T08:48:07.000Z</time>
      </trkpt>
      <trkpt lat="44.65342" lon="5.05243">
        <ele>578</ele>
        <time>2026-05-26T08:48:08.000Z</time>
      </trkpt>
      <trkpt lat="44.65343" lon="5.05242">
        <ele>578</ele>
        <time>2026-05-26T08:48:09.000Z</time>
      </trkpt>
      <trkpt lat="44.65344" lon="5.0524">
        <ele>578</ele>
        <time>2026-05-26T08:48:10.000Z</time>
      </trkpt>
      <trkpt lat="44.65344" lon="5.05239">
        <ele>579</ele>
        <time>2026-05-26T08:48:11.000Z</time>
      </trkpt>
      <trkpt lat="44.65345" lon="5.05238">
        <ele>579</ele>
        <time>2026-05-26T08:48:12.000Z</time>
      </trkpt>
      <trkpt lat="44.65346" lon="5.05238">
        <ele>579</ele>
        <time>2026-05-26T08:48:13.000Z</time>
      </trkpt>
      <trkpt lat="44.65346" lon="5.05237">
        <ele>579</ele>
        <time>2026-05-26T08:48:14.000Z</time>
      </trkpt>
      <trkpt lat="44.65346" lon="5.05237">
        <ele>579</ele>
        <time>2026-05-26T08:48:15.000Z</time>
      </trkpt>
      <trkpt lat="44.65346" lon="5.05236">
        <ele>579</ele>
        <time>2026-05-26T08:48:16.000Z</time>
      </trkpt>
      <trkpt lat="44.65346" lon="5.05236">
        <ele>579</ele>
        <time>2026-05-26T08:48:17.000Z</time>
      </trkpt>
      <trkpt lat="44.65345" lon="5.05234">
        <ele>580</ele>
        <time>2026-05-26T08:48:18.000Z</time>
      </trkpt>
      <trkpt lat="44.65345" lon="5.05231">
        <ele>580</ele>
        <time>2026-05-26T08:48:19.000Z</time>
      </trkpt>
      <trkpt lat="44.65345" lon="5.0523">
        <ele>580</ele>
        <time>2026-05-26T08:48:20.000Z</time>
      </trkpt>
      <trkpt lat="44.65346" lon="5.05228">
        <ele>580</ele>
        <time>2026-05-26T08:48:21.000Z</time>
      </trkpt>
      <trkpt lat="44.65346" lon="5.05225">
        <ele>580</ele>
        <time>2026-05-26T08:48:22.000Z</time>
      </trkpt>
      <trkpt lat="44.65346" lon="5.05224">
        <ele>579</ele>
        <time>2026-05-26T08:48:23.000Z</time>
      </trkpt>
      <trkpt lat="44.65345" lon="5.05225">
        <ele>579</ele>
        <time>2026-05-26T08:48:24.000Z</time>
      </trkpt>
      <trkpt lat="44.65345" lon="5.05225">
        <ele>579</ele>
        <time>2026-05-26T08:48:25.000Z</time>
      </trkpt>
      <trkpt lat="44.65345" lon="5.05225">
        <ele>579</ele>
        <time>2026-05-26T08:48:26.000Z</time>
      </trkpt>
      <trkpt lat="44.65345" lon="5.05225">
        <ele>579</ele>
        <time>2026-05-26T08:48:27.000Z</time>
      </trkpt>
      <trkpt lat="44.65345" lon="5.05225">
        <ele>579</ele>
        <time>2026-05-26T08:48:28.000Z</time>
      </trkpt>
      <trkpt lat="44.65345" lon="5.05225">
        <ele>579</ele>
        <time>2026-05-26T08:48:29.000Z</time>
      </trkpt>
      <trkpt lat="44.65345" lon="5.05225">
        <ele>579</ele>
        <time>2026-05-26T08:48:30.000Z</time>
      </trkpt>
      <trkpt lat="44.65345" lon="5.05225">
        <ele>579</ele>
        <time>2026-05-26T08:48:31.000Z</time>
      </trkpt>
      <trkpt lat="44.65345" lon="5.05225">
        <ele>579</ele>
        <time>2026-05-26T08:48:32.000Z</time>
      </trkpt>
      <trkpt lat="44.65345" lon="5.05225">
        <ele>579</ele>
        <time>2026-05-26T08:48:33.000Z</time>
      </trkpt>
      <trkpt lat="44.65345" lon="5.05225">
        <ele>579</ele>
        <time>2026-05-26T08:48:34.000Z</time>
      </trkpt>
      <trkpt lat="44.65345" lon="5.05225">
        <ele>579</ele>
        <time>2026-05-26T08:48:35.000Z</time>
      </trkpt>
      <trkpt lat="44.65345" lon="5.05225">
        <ele>579</ele>
        <time>2026-05-26T08:48:36.000Z</time>
      </trkpt>
      <trkpt lat="44.65345" lon="5.05225">
        <ele>579</ele>
        <time>2026-05-26T08:48:37.000Z</time>
      </trkpt>
      <trkpt lat="44.65345" lon="5.05225">
        <ele>579</ele>
        <time>2026-05-26T08:48:38.000Z</time>
      </trkpt>
      <trkpt lat="44.65345" lon="5.05225">
        <ele>579</ele>
        <time>2026-05-26T08:48:39.000Z</time>
      </trkpt>
      <trkpt lat="44.65345" lon="5.05225">
        <ele>579</ele>
        <time>2026-05-26T08:48:40.000Z</time>
      </trkpt>
      <trkpt lat="44.65345" lon="5.05225">
        <ele>579</ele>
        <time>2026-05-26T08:48:41.000Z</time>
      </trkpt>
      <trkpt lat="44.65345" lon="5.05225">
        <ele>579</ele>
        <time>2026-05-26T08:48:42.000Z</time>
      </trkpt>
      <trkpt lat="44.65345" lon="5.05225">
        <ele>579</ele>
        <time>2026-05-26T08:48:43.000Z</time>
      </trkpt>
      <trkpt lat="44.65345" lon="5.05225">
        <ele>579</ele>
        <time>2026-05-26T08:48:44.000Z</time>
      </trkpt>
      <trkpt lat="44.65345" lon="5.05225">
        <ele>579</ele>
        <time>2026-05-26T08:48:45.000Z</time>
      </trkpt>
      <trkpt lat="44.65345" lon="5.05225">
        <ele>579</ele>
        <time>2026-05-26T08:48:46.000Z</time>
      </trkpt>
      <trkpt lat="44.65345" lon="5.05225">
        <ele>579</ele>
        <time>2026-05-26T08:48:47.000Z</time>
      </trkpt>
      <trkpt lat="44.65345" lon="5.05225">
        <ele>579</ele>
        <time>2026-05-26T08:48:48.000Z</time>
      </trkpt>
      <trkpt lat="44.65345" lon="5.05225">
        <ele>579</ele>
        <time>2026-05-26T08:48:49.000Z</time>
      </trkpt>
      <trkpt lat="44.65345" lon="5.05225">
        <ele>579</ele>
        <time>2026-05-26T08:48:50.000Z</time>
      </trkpt>
      <trkpt lat="44.65345" lon="5.05225">
        <ele>579</ele>
        <time>2026-05-26T08:48:51.000Z</time>
      </trkpt>
      <trkpt lat="44.65345" lon="5.05225">
        <ele>579</ele>
        <time>2026-05-26T08:48:52.000Z</time>
      </trkpt>
      <trkpt lat="44.65345" lon="5.05225">
        <ele>579</ele>
        <time>2026-05-26T08:48:53.000Z</time>
      </trkpt>
      <trkpt lat="44.65345" lon="5.05225">
        <ele>579</ele>
        <time>2026-05-26T08:48:54.000Z</time>
      </trkpt>
      <trkpt lat="44.65345" lon="5.05225">
        <ele>579</ele>
        <time>2026-05-26T08:48:55.000Z</time>
      </trkpt>
      <trkpt lat="44.65345" lon="5.05225">
        <ele>579</ele>
        <time>2026-05-26T08:48:56.000Z</time>
      </trkpt>
      <trkpt lat="44.65345" lon="5.05225">
        <ele>579</ele>
        <time>2026-05-26T08:48:57.000Z</time>
      </trkpt>
      <trkpt lat="44.65345" lon="5.05225">
        <ele>579</ele>
        <time>2026-05-26T08:48:58.000Z</time>
      </trkpt>
      <trkpt lat="44.65345" lon="5.05225">
        <ele>579</ele>
        <time>2026-05-26T08:48:59.000Z</time>
      </trkpt>
      <trkpt lat="44.65345" lon="5.05225">
        <ele>579</ele>
        <time>2026-05-26T08:49:00.000Z</time>
      </trkpt>
      <trkpt lat="44.65345" lon="5.05225">
        <ele>579</ele>
        <time>2026-05-26T08:49:01.000Z</time>
      </trkpt>
      <trkpt lat="44.65345" lon="5.05225">
        <ele>579</ele>
        <time>2026-05-26T08:49:02.000Z</time>
      </trkpt>
      <trkpt lat="44.65345" lon="5.05225">
        <ele>579</ele>
        <time>2026-05-26T08:49:03.000Z</time>
      </trkpt>
      <trkpt lat="44.65345" lon="5.05225">
        <ele>579</ele>
        <time>2026-05-26T08:49:04.000Z</time>
      </trkpt>
      <trkpt lat="44.65345" lon="5.05225">
        <ele>579</ele>
        <time>2026-05-26T08:49:05.000Z</time>
      </trkpt>
      <trkpt lat="44.65345" lon="5.05225">
        <ele>579</ele>
        <time>2026-05-26T08:49:06.000Z</time>
      </trkpt>
      <trkpt lat="44.65345" lon="5.05225">
        <ele>579</ele>
        <time>2026-05-26T08:49:07.000Z</time>
      </trkpt>
      <trkpt lat="44.65345" lon="5.05225">
        <ele>579</ele>
        <time>2026-05-26T08:49:08.000Z</time>
      </trkpt>
      <trkpt lat="44.65345" lon="5.05225">
        <ele>579</ele>
        <time>2026-05-26T08:49:09.000Z</time>
      </trkpt>
      <trkpt lat="44.65345" lon="5.05225">
        <ele>579</ele>
        <time>2026-05-26T08:49:10.000Z</time>
      </trkpt>
      <trkpt lat="44.65345" lon="5.05225">
        <ele>579</ele>
        <time>2026-05-26T08:49:11.000Z</time>
      </trkpt>
      <trkpt lat="44.65345" lon="5.05225">
        <ele>579</ele>
        <time>2026-05-26T08:49:12.000Z</time>
      </trkpt>
      <trkpt lat="44.65345" lon="5.05225">
        <ele>579</ele>
        <time>2026-05-26T08:49:13.000Z</time>
      </trkpt>
      <trkpt lat="44.65345" lon="5.05225">
        <ele>579</ele>
        <time>2026-05-26T08:49:14.000Z</time>
      </trkpt>
      <trkpt lat="44.65345" lon="5.05225">
        <ele>579</ele>
        <time>2026-05-26T08:49:15.000Z</time>
      </trkpt>
      <trkpt lat="44.65345" lon="5.05225">
        <ele>579</ele>
        <time>2026-05-26T08:49:16.000Z</time>
      </trkpt>
      <trkpt lat="44.65345" lon="5.05225">
        <ele>579</ele>
        <time>2026-05-26T08:49:17.000Z</time>
      </trkpt>
      <trkpt lat="44.65345" lon="5.05225">
        <ele>579</ele>
        <time>2026-05-26T08:49:18.000Z</time>
      </trkpt>
      <trkpt lat="44.65345" lon="5.05225">
        <ele>579</ele>
        <time>2026-05-26T08:49:19.000Z</time>
      </trkpt>
      <trkpt lat="44.65345" lon="5.05225">
        <ele>579</ele>
        <time>2026-05-26T08:49:20.000Z</time>
      </trkpt>
      <trkpt lat="44.65345" lon="5.05225">
        <ele>579</ele>
        <time>2026-05-26T08:49:21.000Z</time>
      </trkpt>
      <trkpt lat="44.65345" lon="5.05225">
        <ele>579</ele>
        <time>2026-05-26T08:49:22.000Z</time>
      </trkpt>
      <trkpt lat="44.65345" lon="5.05225">
        <ele>579</ele>
        <time>2026-05-26T08:49:23.000Z</time>
      </trkpt>
      <trkpt lat="44.65344" lon="5.05225">
        <ele>579</ele>
        <time>2026-05-26T08:49:24.000Z</time>
      </trkpt>
      <trkpt lat="44.65344" lon="5.05226">
        <ele>578</ele>
        <time>2026-05-26T08:49:25.000Z</time>
      </trkpt>
      <trkpt lat="44.65344" lon="5.05225">
        <ele>577</ele>
        <time>2026-05-26T08:49:26.000Z</time>
      </trkpt>
      <trkpt lat="44.65345" lon="5.05226">
        <ele>577</ele>
        <time>2026-05-26T08:49:27.000Z</time>
      </trkpt>
      <trkpt lat="44.65345" lon="5.05225">
        <ele>578</ele>
        <time>2026-05-26T08:49:28.000Z</time>
      </trkpt>
      <trkpt lat="44.65345" lon="5.05225">
        <ele>578</ele>
        <time>2026-05-26T08:49:29.000Z</time>
      </trkpt>
      <trkpt lat="44.65345" lon="5.05225">
        <ele>578</ele>
        <time>2026-05-26T08:49:30.000Z</time>
      </trkpt>
      <trkpt lat="44.65346" lon="5.05223">
        <ele>579</ele>
        <time>2026-05-26T08:49:31.000Z</time>
      </trkpt>
      <trkpt lat="44.65346" lon="5.05223">
        <ele>580</ele>
        <time>2026-05-26T08:49:32.000Z</time>
      </trkpt>
      <trkpt lat="44.65346" lon="5.05222">
        <ele>581</ele>
        <time>2026-05-26T08:49:33.000Z</time>
      </trkpt>
      <trkpt lat="44.65347" lon="5.05222">
        <ele>581</ele>
        <time>2026-05-26T08:49:34.000Z</time>
      </trkpt>
      <trkpt lat="44.65347" lon="5.05222">
        <ele>581</ele>
        <time>2026-05-26T08:49:35.000Z</time>
      </trkpt>
      <trkpt lat="44.65347" lon="5.05222">
        <ele>581</ele>
        <time>2026-05-26T08:49:36.000Z</time>
      </trkpt>
      <trkpt lat="44.65347" lon="5.05222">
        <ele>581</ele>
        <time>2026-05-26T08:49:37.000Z</time>
      </trkpt>
      <trkpt lat="44.65347" lon="5.0522">
        <ele>580</ele>
        <time>2026-05-26T08:49:38.000Z</time>
      </trkpt>
      <trkpt lat="44.65348" lon="5.05218">
        <ele>580</ele>
        <time>2026-05-26T08:49:39.000Z</time>
      </trkpt>
      <trkpt lat="44.65348" lon="5.05217">
        <ele>580</ele>
        <time>2026-05-26T08:49:40.000Z</time>
      </trkpt>
      <trkpt lat="44.65349" lon="5.05216">
        <ele>580</ele>
        <time>2026-05-26T08:49:41.000Z</time>
      </trkpt>
      <trkpt lat="44.65349" lon="5.05216">
        <ele>579</ele>
        <time>2026-05-26T08:49:42.000Z</time>
      </trkpt>
      <trkpt lat="44.65349" lon="5.05215">
        <ele>580</ele>
        <time>2026-05-26T08:49:43.000Z</time>
      </trkpt>
      <trkpt lat="44.6535" lon="5.05215">
        <ele>580</ele>
        <time>2026-05-26T08:49:44.000Z</time>
      </trkpt>
      <trkpt lat="44.6535" lon="5.05214">
        <ele>579</ele>
        <time>2026-05-26T08:49:45.000Z</time>
      </trkpt>
      <trkpt lat="44.6535" lon="5.05214">
        <ele>579</ele>
        <time>2026-05-26T08:49:46.000Z</time>
      </trkpt>
      <trkpt lat="44.6535" lon="5.05213">
        <ele>578</ele>
        <time>2026-05-26T08:49:47.000Z</time>
      </trkpt>
      <trkpt lat="44.6535" lon="5.05212">
        <ele>580</ele>
        <time>2026-05-26T08:49:48.000Z</time>
      </trkpt>
      <trkpt lat="44.65348" lon="5.05211">
        <ele>580</ele>
        <time>2026-05-26T08:49:49.000Z</time>
      </trkpt>
      <trkpt lat="44.65349" lon="5.0521">
        <ele>582</ele>
        <time>2026-05-26T08:49:50.000Z</time>
      </trkpt>
      <trkpt lat="44.65349" lon="5.0521">
        <ele>582</ele>
        <time>2026-05-26T08:49:51.000Z</time>
      </trkpt>
      <trkpt lat="44.65349" lon="5.05208">
        <ele>584</ele>
        <time>2026-05-26T08:49:52.000Z</time>
      </trkpt>
      <trkpt lat="44.65349" lon="5.05208">
        <ele>584</ele>
        <time>2026-05-26T08:49:53.000Z</time>
      </trkpt>
      <trkpt lat="44.6535" lon="5.05206">
        <ele>584</ele>
        <time>2026-05-26T08:49:54.000Z</time>
      </trkpt>
      <trkpt lat="44.65351" lon="5.05205">
        <ele>585</ele>
        <time>2026-05-26T08:49:55.000Z</time>
      </trkpt>
      <trkpt lat="44.65351" lon="5.05203">
        <ele>586</ele>
        <time>2026-05-26T08:49:56.000Z</time>
      </trkpt>
      <trkpt lat="44.65351" lon="5.05203">
        <ele>585</ele>
        <time>2026-05-26T08:49:57.000Z</time>
      </trkpt>
      <trkpt lat="44.65351" lon="5.05202">
        <ele>585</ele>
        <time>2026-05-26T08:49:58.000Z</time>
      </trkpt>
      <trkpt lat="44.65352" lon="5.05201">
        <ele>585</ele>
        <time>2026-05-26T08:49:59.000Z</time>
      </trkpt>
      <trkpt lat="44.65352" lon="5.052">
        <ele>585</ele>
        <time>2026-05-26T08:50:00.000Z</time>
      </trkpt>
      <trkpt lat="44.65352" lon="5.05197">
        <ele>585</ele>
        <time>2026-05-26T08:50:01.000Z</time>
      </trkpt>
      <trkpt lat="44.65353" lon="5.05197">
        <ele>586</ele>
        <time>2026-05-26T08:50:02.000Z</time>
      </trkpt>
      <trkpt lat="44.65353" lon="5.05196">
        <ele>586</ele>
        <time>2026-05-26T08:50:03.000Z</time>
      </trkpt>
      <trkpt lat="44.65353" lon="5.05194">
        <ele>586</ele>
        <time>2026-05-26T08:50:04.000Z</time>
      </trkpt>
      <trkpt lat="44.65354" lon="5.05193">
        <ele>587</ele>
        <time>2026-05-26T08:50:05.000Z</time>
      </trkpt>
      <trkpt lat="44.65355" lon="5.05193">
        <ele>587</ele>
        <time>2026-05-26T08:50:06.000Z</time>
      </trkpt>
      <trkpt lat="44.65355" lon="5.05193">
        <ele>587</ele>
        <time>2026-05-26T08:50:07.000Z</time>
      </trkpt>
      <trkpt lat="44.65354" lon="5.05192">
        <ele>587</ele>
        <time>2026-05-26T08:50:08.000Z</time>
      </trkpt>
      <trkpt lat="44.65354" lon="5.05193">
        <ele>587</ele>
        <time>2026-05-26T08:50:09.000Z</time>
      </trkpt>
      <trkpt lat="44.65354" lon="5.05192">
        <ele>587</ele>
        <time>2026-05-26T08:50:10.000Z</time>
      </trkpt>
      <trkpt lat="44.65354" lon="5.0519">
        <ele>588</ele>
        <time>2026-05-26T08:50:11.000Z</time>
      </trkpt>
      <trkpt lat="44.65354" lon="5.0519">
        <ele>587</ele>
        <time>2026-05-26T08:50:12.000Z</time>
      </trkpt>
      <trkpt lat="44.65354" lon="5.0519">
        <ele>587</ele>
        <time>2026-05-26T08:50:13.000Z</time>
      </trkpt>
      <trkpt lat="44.65354" lon="5.0519">
        <ele>587</ele>
        <time>2026-05-26T08:50:14.000Z</time>
      </trkpt>
      <trkpt lat="44.65354" lon="5.05189">
        <ele>587</ele>
        <time>2026-05-26T08:50:15.000Z</time>
      </trkpt>
      <trkpt lat="44.65355" lon="5.05187">
        <ele>587</ele>
        <time>2026-05-26T08:50:16.000Z</time>
      </trkpt>
      <trkpt lat="44.65355" lon="5.05185">
        <ele>587</ele>
        <time>2026-05-26T08:50:17.000Z</time>
      </trkpt>
      <trkpt lat="44.65355" lon="5.05184">
        <ele>587</ele>
        <time>2026-05-26T08:50:18.000Z</time>
      </trkpt>
      <trkpt lat="44.65355" lon="5.05184">
        <ele>586</ele>
        <time>2026-05-26T08:50:19.000Z</time>
      </trkpt>
      <trkpt lat="44.65355" lon="5.05184">
        <ele>586</ele>
        <time>2026-05-26T08:50:20.000Z</time>
      </trkpt>
      <trkpt lat="44.65355" lon="5.05183">
        <ele>586</ele>
        <time>2026-05-26T08:50:21.000Z</time>
      </trkpt>
      <trkpt lat="44.65355" lon="5.05182">
        <ele>586</ele>
        <time>2026-05-26T08:50:22.000Z</time>
      </trkpt>
      <trkpt lat="44.65356" lon="5.05181">
        <ele>587</ele>
        <time>2026-05-26T08:50:23.000Z</time>
      </trkpt>
      <trkpt lat="44.65356" lon="5.05179">
        <ele>587</ele>
        <time>2026-05-26T08:50:24.000Z</time>
      </trkpt>
      <trkpt lat="44.65356" lon="5.05178">
        <ele>587</ele>
        <time>2026-05-26T08:50:25.000Z</time>
      </trkpt>
      <trkpt lat="44.65356" lon="5.05177">
        <ele>587</ele>
        <time>2026-05-26T08:50:26.000Z</time>
      </trkpt>
      <trkpt lat="44.65357" lon="5.05176">
        <ele>587</ele>
        <time>2026-05-26T08:50:27.000Z</time>
      </trkpt>
      <trkpt lat="44.65357" lon="5.05175">
        <ele>587</ele>
        <time>2026-05-26T08:50:28.000Z</time>
      </trkpt>
      <trkpt lat="44.65357" lon="5.05173">
        <ele>586</ele>
        <time>2026-05-26T08:50:29.000Z</time>
      </trkpt>
      <trkpt lat="44.65357" lon="5.05172">
        <ele>586</ele>
        <time>2026-05-26T08:50:30.000Z</time>
      </trkpt>
      <trkpt lat="44.65357" lon="5.05171">
        <ele>587</ele>
        <time>2026-05-26T08:50:31.000Z</time>
      </trkpt>
      <trkpt lat="44.65357" lon="5.0517">
        <ele>587</ele>
        <time>2026-05-26T08:50:32.000Z</time>
      </trkpt>
      <trkpt lat="44.65357" lon="5.05169">
        <ele>588</ele>
        <time>2026-05-26T08:50:33.000Z</time>
      </trkpt>
      <trkpt lat="44.65357" lon="5.05169">
        <ele>588</ele>
        <time>2026-05-26T08:50:34.000Z</time>
      </trkpt>
      <trkpt lat="44.65357" lon="5.05168">
        <ele>587</ele>
        <time>2026-05-26T08:50:35.000Z</time>
      </trkpt>
      <trkpt lat="44.65358" lon="5.05167">
        <ele>588</ele>
        <time>2026-05-26T08:50:36.000Z</time>
      </trkpt>
      <trkpt lat="44.65358" lon="5.05165">
        <ele>589</ele>
        <time>2026-05-26T08:50:37.000Z</time>
      </trkpt>
      <trkpt lat="44.65358" lon="5.05165">
        <ele>588</ele>
        <time>2026-05-26T08:50:38.000Z</time>
      </trkpt>
      <trkpt lat="44.65358" lon="5.05164">
        <ele>590</ele>
        <time>2026-05-26T08:50:39.000Z</time>
      </trkpt>
      <trkpt lat="44.65358" lon="5.05163">
        <ele>590</ele>
        <time>2026-05-26T08:50:40.000Z</time>
      </trkpt>
      <trkpt lat="44.65358" lon="5.05162">
        <ele>591</ele>
        <time>2026-05-26T08:50:41.000Z</time>
      </trkpt>
      <trkpt lat="44.65359" lon="5.05161">
        <ele>591</ele>
        <time>2026-05-26T08:50:42.000Z</time>
      </trkpt>
      <trkpt lat="44.65358" lon="5.0516">
        <ele>591</ele>
        <time>2026-05-26T08:50:43.000Z</time>
      </trkpt>
      <trkpt lat="44.65358" lon="5.0516">
        <ele>591</ele>
        <time>2026-05-26T08:50:44.000Z</time>
      </trkpt>
      <trkpt lat="44.65358" lon="5.05159">
        <ele>591</ele>
        <time>2026-05-26T08:50:45.000Z</time>
      </trkpt>
      <trkpt lat="44.65358" lon="5.05158">
        <ele>591</ele>
        <time>2026-05-26T08:50:46.000Z</time>
      </trkpt>
      <trkpt lat="44.65358" lon="5.05158">
        <ele>591</ele>
        <time>2026-05-26T08:50:47.000Z</time>
      </trkpt>
      <trkpt lat="44.65358" lon="5.05157">
        <ele>591</ele>
        <time>2026-05-26T08:50:48.000Z</time>
      </trkpt>
      <trkpt lat="44.65358" lon="5.05156">
        <ele>590</ele>
        <time>2026-05-26T08:50:49.000Z</time>
      </trkpt>
      <trkpt lat="44.65357" lon="5.05156">
        <ele>590</ele>
        <time>2026-05-26T08:50:50.000Z</time>
      </trkpt>
      <trkpt lat="44.65357" lon="5.05156">
        <ele>590</ele>
        <time>2026-05-26T08:50:51.000Z</time>
      </trkpt>
      <trkpt lat="44.65357" lon="5.05156">
        <ele>590</ele>
        <time>2026-05-26T08:50:52.000Z</time>
      </trkpt>
      <trkpt lat="44.65356" lon="5.05155">
        <ele>589</ele>
        <time>2026-05-26T08:50:53.000Z</time>
      </trkpt>
      <trkpt lat="44.65356" lon="5.05155">
        <ele>592</ele>
        <time>2026-05-26T08:50:54.000Z</time>
      </trkpt>
      <trkpt lat="44.65356" lon="5.05154">
        <ele>593</ele>
        <time>2026-05-26T08:50:55.000Z</time>
      </trkpt>
      <trkpt lat="44.65356" lon="5.05153">
        <ele>593</ele>
        <time>2026-05-26T08:50:56.000Z</time>
      </trkpt>
      <trkpt lat="44.65357" lon="5.05152">
        <ele>593</ele>
        <time>2026-05-26T08:50:57.000Z</time>
      </trkpt>
      <trkpt lat="44.65357" lon="5.05151">
        <ele>593</ele>
        <time>2026-05-26T08:50:58.000Z</time>
      </trkpt>
      <trkpt lat="44.65359" lon="5.05149">
        <ele>594</ele>
        <time>2026-05-26T08:50:59.000Z</time>
      </trkpt>
      <trkpt lat="44.65359" lon="5.05147">
        <ele>593</ele>
        <time>2026-05-26T08:51:00.000Z</time>
      </trkpt>
      <trkpt lat="44.65359" lon="5.05147">
        <ele>593</ele>
        <time>2026-05-26T08:51:01.000Z</time>
      </trkpt>
      <trkpt lat="44.65359" lon="5.05146">
        <ele>593</ele>
        <time>2026-05-26T08:51:02.000Z</time>
      </trkpt>
      <trkpt lat="44.65359" lon="5.05146">
        <ele>593</ele>
        <time>2026-05-26T08:51:03.000Z</time>
      </trkpt>
      <trkpt lat="44.65359" lon="5.05145">
        <ele>593</ele>
        <time>2026-05-26T08:51:04.000Z</time>
      </trkpt>
      <trkpt lat="44.65359" lon="5.05146">
        <ele>594</ele>
        <time>2026-05-26T08:51:05.000Z</time>
      </trkpt>
      <trkpt lat="44.65359" lon="5.05146">
        <ele>594</ele>
        <time>2026-05-26T08:51:06.000Z</time>
      </trkpt>
      <trkpt lat="44.65359" lon="5.05145">
        <ele>594</ele>
        <time>2026-05-26T08:51:07.000Z</time>
      </trkpt>
      <trkpt lat="44.6536" lon="5.05144">
        <ele>595</ele>
        <time>2026-05-26T08:51:08.000Z</time>
      </trkpt>
      <trkpt lat="44.6536" lon="5.05142">
        <ele>595</ele>
        <time>2026-05-26T08:51:09.000Z</time>
      </trkpt>
      <trkpt lat="44.6536" lon="5.05141">
        <ele>594</ele>
        <time>2026-05-26T08:51:10.000Z</time>
      </trkpt>
      <trkpt lat="44.6536" lon="5.0514">
        <ele>594</ele>
        <time>2026-05-26T08:51:11.000Z</time>
      </trkpt>
      <trkpt lat="44.65361" lon="5.05139">
        <ele>594</ele>
        <time>2026-05-26T08:51:12.000Z</time>
      </trkpt>
      <trkpt lat="44.65362" lon="5.05138">
        <ele>594</ele>
        <time>2026-05-26T08:51:13.000Z</time>
      </trkpt>
      <trkpt lat="44.65363" lon="5.05137">
        <ele>595</ele>
        <time>2026-05-26T08:51:14.000Z</time>
      </trkpt>
      <trkpt lat="44.65363" lon="5.05136">
        <ele>595</ele>
        <time>2026-05-26T08:51:15.000Z</time>
      </trkpt>
      <trkpt lat="44.65363" lon="5.05135">
        <ele>595</ele>
        <time>2026-05-26T08:51:16.000Z</time>
      </trkpt>
      <trkpt lat="44.65364" lon="5.05135">
        <ele>594</ele>
        <time>2026-05-26T08:51:17.000Z</time>
      </trkpt>
      <trkpt lat="44.65363" lon="5.05134">
        <ele>593</ele>
        <time>2026-05-26T08:51:18.000Z</time>
      </trkpt>
      <trkpt lat="44.65363" lon="5.05133">
        <ele>593</ele>
        <time>2026-05-26T08:51:19.000Z</time>
      </trkpt>
      <trkpt lat="44.65363" lon="5.05132">
        <ele>594</ele>
        <time>2026-05-26T08:51:20.000Z</time>
      </trkpt>
      <trkpt lat="44.65363" lon="5.05131">
        <ele>594</ele>
        <time>2026-05-26T08:51:21.000Z</time>
      </trkpt>
      <trkpt lat="44.65364" lon="5.05131">
        <ele>593</ele>
        <time>2026-05-26T08:51:22.000Z</time>
      </trkpt>
      <trkpt lat="44.65365" lon="5.0513">
        <ele>593</ele>
        <time>2026-05-26T08:51:23.000Z</time>
      </trkpt>
      <trkpt lat="44.65365" lon="5.05129">
        <ele>593</ele>
        <time>2026-05-26T08:51:24.000Z</time>
      </trkpt>
      <trkpt lat="44.65365" lon="5.05129">
        <ele>593</ele>
        <time>2026-05-26T08:51:25.000Z</time>
      </trkpt>
      <trkpt lat="44.65365" lon="5.05129">
        <ele>593</ele>
        <time>2026-05-26T08:51:26.000Z</time>
      </trkpt>
      <trkpt lat="44.65365" lon="5.05127">
        <ele>595</ele>
        <time>2026-05-26T08:51:27.000Z</time>
      </trkpt>
      <trkpt lat="44.65365" lon="5.05126">
        <ele>595</ele>
        <time>2026-05-26T08:51:28.000Z</time>
      </trkpt>
      <trkpt lat="44.65367" lon="5.05125">
        <ele>594</ele>
        <time>2026-05-26T08:51:29.000Z</time>
      </trkpt>
      <trkpt lat="44.65367" lon="5.05125">
        <ele>594</ele>
        <time>2026-05-26T08:51:30.000Z</time>
      </trkpt>
      <trkpt lat="44.65368" lon="5.05124">
        <ele>594</ele>
        <time>2026-05-26T08:51:31.000Z</time>
      </trkpt>
      <trkpt lat="44.65368" lon="5.05124">
        <ele>594</ele>
        <time>2026-05-26T08:51:32.000Z</time>
      </trkpt>
      <trkpt lat="44.65367" lon="5.05124">
        <ele>593</ele>
        <time>2026-05-26T08:51:33.000Z</time>
      </trkpt>
      <trkpt lat="44.65367" lon="5.05122">
        <ele>594</ele>
        <time>2026-05-26T08:51:34.000Z</time>
      </trkpt>
      <trkpt lat="44.65367" lon="5.05122">
        <ele>595</ele>
        <time>2026-05-26T08:51:35.000Z</time>
      </trkpt>
      <trkpt lat="44.65368" lon="5.05121">
        <ele>596</ele>
        <time>2026-05-26T08:51:36.000Z</time>
      </trkpt>
      <trkpt lat="44.65367" lon="5.05121">
        <ele>596</ele>
        <time>2026-05-26T08:51:37.000Z</time>
      </trkpt>
      <trkpt lat="44.65367" lon="5.05119">
        <ele>595</ele>
        <time>2026-05-26T08:51:38.000Z</time>
      </trkpt>
      <trkpt lat="44.65367" lon="5.0512">
        <ele>596</ele>
        <time>2026-05-26T08:51:39.000Z</time>
      </trkpt>
      <trkpt lat="44.65367" lon="5.05121">
        <ele>596</ele>
        <time>2026-05-26T08:51:40.000Z</time>
      </trkpt>
      <trkpt lat="44.65368" lon="5.0512">
        <ele>596</ele>
        <time>2026-05-26T08:51:41.000Z</time>
      </trkpt>
      <trkpt lat="44.65369" lon="5.05118">
        <ele>596</ele>
        <time>2026-05-26T08:51:42.000Z</time>
      </trkpt>
      <trkpt lat="44.65369" lon="5.05117">
        <ele>597</ele>
        <time>2026-05-26T08:51:43.000Z</time>
      </trkpt>
      <trkpt lat="44.65368" lon="5.05115">
        <ele>597</ele>
        <time>2026-05-26T08:51:44.000Z</time>
      </trkpt>
      <trkpt lat="44.65369" lon="5.05114">
        <ele>598</ele>
        <time>2026-05-26T08:51:45.000Z</time>
      </trkpt>
      <trkpt lat="44.65369" lon="5.05112">
        <ele>598</ele>
        <time>2026-05-26T08:51:46.000Z</time>
      </trkpt>
      <trkpt lat="44.6537" lon="5.05112">
        <ele>598</ele>
        <time>2026-05-26T08:51:47.000Z</time>
      </trkpt>
      <trkpt lat="44.65369" lon="5.05111">
        <ele>597</ele>
        <time>2026-05-26T08:51:48.000Z</time>
      </trkpt>
      <trkpt lat="44.65369" lon="5.05108">
        <ele>595</ele>
        <time>2026-05-26T08:51:49.000Z</time>
      </trkpt>
      <trkpt lat="44.65369" lon="5.05108">
        <ele>595</ele>
        <time>2026-05-26T08:51:50.000Z</time>
      </trkpt>
      <trkpt lat="44.65369" lon="5.05108">
        <ele>595</ele>
        <time>2026-05-26T08:51:51.000Z</time>
      </trkpt>
      <trkpt lat="44.65369" lon="5.05108">
        <ele>595</ele>
        <time>2026-05-26T08:51:52.000Z</time>
      </trkpt>
      <trkpt lat="44.65369" lon="5.05108">
        <ele>595</ele>
        <time>2026-05-26T08:51:53.000Z</time>
      </trkpt>
      <trkpt lat="44.65369" lon="5.05108">
        <ele>595</ele>
        <time>2026-05-26T08:51:54.000Z</time>
      </trkpt>
      <trkpt lat="44.65369" lon="5.05108">
        <ele>595</ele>
        <time>2026-05-26T08:51:55.000Z</time>
      </trkpt>
      <trkpt lat="44.65369" lon="5.05108">
        <ele>595</ele>
        <time>2026-05-26T08:51:56.000Z</time>
      </trkpt>
      <trkpt lat="44.65369" lon="5.05108">
        <ele>595</ele>
        <time>2026-05-26T08:51:57.000Z</time>
      </trkpt>
      <trkpt lat="44.65369" lon="5.05108">
        <ele>595</ele>
        <time>2026-05-26T08:51:58.000Z</time>
      </trkpt>
      <trkpt lat="44.65369" lon="5.05108">
        <ele>595</ele>
        <time>2026-05-26T08:51:59.000Z</time>
      </trkpt>
      <trkpt lat="44.65369" lon="5.05108">
        <ele>595</ele>
        <time>2026-05-26T08:52:00.000Z</time>
      </trkpt>
      <trkpt lat="44.65369" lon="5.05108">
        <ele>595</ele>
        <time>2026-05-26T08:52:01.000Z</time>
      </trkpt>
      <trkpt lat="44.65369" lon="5.05108">
        <ele>595</ele>
        <time>2026-05-26T08:52:02.000Z</time>
      </trkpt>
      <trkpt lat="44.65369" lon="5.05108">
        <ele>595</ele>
        <time>2026-05-26T08:52:03.000Z</time>
      </trkpt>
      <trkpt lat="44.65369" lon="5.05108">
        <ele>595</ele>
        <time>2026-05-26T08:52:04.000Z</time>
      </trkpt>
      <trkpt lat="44.65369" lon="5.05108">
        <ele>595</ele>
        <time>2026-05-26T08:52:05.000Z</time>
      </trkpt>
      <trkpt lat="44.65369" lon="5.05108">
        <ele>595</ele>
        <time>2026-05-26T08:52:06.000Z</time>
      </trkpt>
      <trkpt lat="44.65369" lon="5.05108">
        <ele>595</ele>
        <time>2026-05-26T08:52:07.000Z</time>
      </trkpt>
      <trkpt lat="44.65369" lon="5.05108">
        <ele>595</ele>
        <time>2026-05-26T08:52:08.000Z</time>
      </trkpt>
      <trkpt lat="44.65369" lon="5.05108">
        <ele>595</ele>
        <time>2026-05-26T08:52:09.000Z</time>
      </trkpt>
      <trkpt lat="44.65369" lon="5.05108">
        <ele>595</ele>
        <time>2026-05-26T08:52:10.000Z</time>
      </trkpt>
      <trkpt lat="44.65369" lon="5.05108">
        <ele>595</ele>
        <time>2026-05-26T08:52:11.000Z</time>
      </trkpt>
      <trkpt lat="44.65369" lon="5.05108">
        <ele>595</ele>
        <time>2026-05-26T08:52:12.000Z</time>
      </trkpt>
      <trkpt lat="44.65369" lon="5.05108">
        <ele>595</ele>
        <time>2026-05-26T08:52:13.000Z</time>
      </trkpt>
      <trkpt lat="44.65369" lon="5.05108">
        <ele>595</ele>
        <time>2026-05-26T08:52:14.000Z</time>
      </trkpt>
      <trkpt lat="44.65369" lon="5.05108">
        <ele>595</ele>
        <time>2026-05-26T08:52:15.000Z</time>
      </trkpt>
      <trkpt lat="44.65369" lon="5.05108">
        <ele>595</ele>
        <time>2026-05-26T08:52:16.000Z</time>
      </trkpt>
      <trkpt lat="44.65369" lon="5.05108">
        <ele>595</ele>
        <time>2026-05-26T08:52:17.000Z</time>
      </trkpt>
      <trkpt lat="44.65369" lon="5.05108">
        <ele>595</ele>
        <time>2026-05-26T08:52:18.000Z</time>
      </trkpt>
      <trkpt lat="44.65369" lon="5.05108">
        <ele>595</ele>
        <time>2026-05-26T08:52:19.000Z</time>
      </trkpt>
      <trkpt lat="44.65369" lon="5.05108">
        <ele>595</ele>
        <time>2026-05-26T08:52:20.000Z</time>
      </trkpt>
      <trkpt lat="44.65369" lon="5.05107">
        <ele>595</ele>
        <time>2026-05-26T08:52:21.000Z</time>
      </trkpt>
      <trkpt lat="44.65369" lon="5.05107">
        <ele>595</ele>
        <time>2026-05-26T08:52:22.000Z</time>
      </trkpt>
      <trkpt lat="44.65369" lon="5.05107">
        <ele>595</ele>
        <time>2026-05-26T08:52:23.000Z</time>
      </trkpt>
      <trkpt lat="44.65369" lon="5.05107">
        <ele>595</ele>
        <time>2026-05-26T08:52:24.000Z</time>
      </trkpt>
      <trkpt lat="44.65369" lon="5.05107">
        <ele>595</ele>
        <time>2026-05-26T08:52:25.000Z</time>
      </trkpt>
      <trkpt lat="44.65369" lon="5.05107">
        <ele>595</ele>
        <time>2026-05-26T08:52:26.000Z</time>
      </trkpt>
      <trkpt lat="44.65369" lon="5.05107">
        <ele>595</ele>
        <time>2026-05-26T08:52:27.000Z</time>
      </trkpt>
      <trkpt lat="44.65369" lon="5.05107">
        <ele>595</ele>
        <time>2026-05-26T08:52:28.000Z</time>
      </trkpt>
      <trkpt lat="44.65369" lon="5.05107">
        <ele>595</ele>
        <time>2026-05-26T08:52:29.000Z</time>
      </trkpt>
      <trkpt lat="44.65369" lon="5.05107">
        <ele>595</ele>
        <time>2026-05-26T08:52:30.000Z</time>
      </trkpt>
      <trkpt lat="44.65369" lon="5.05107">
        <ele>595</ele>
        <time>2026-05-26T08:52:31.000Z</time>
      </trkpt>
      <trkpt lat="44.65369" lon="5.05107">
        <ele>595</ele>
        <time>2026-05-26T08:52:32.000Z</time>
      </trkpt>
      <trkpt lat="44.65369" lon="5.05107">
        <ele>595</ele>
        <time>2026-05-26T08:52:33.000Z</time>
      </trkpt>
      <trkpt lat="44.65369" lon="5.05107">
        <ele>595</ele>
        <time>2026-05-26T08:52:34.000Z</time>
      </trkpt>
      <trkpt lat="44.65369" lon="5.05107">
        <ele>595</ele>
        <time>2026-05-26T08:52:35.000Z</time>
      </trkpt>
      <trkpt lat="44.65369" lon="5.05107">
        <ele>595</ele>
        <time>2026-05-26T08:52:36.000Z</time>
      </trkpt>
      <trkpt lat="44.65369" lon="5.05107">
        <ele>595</ele>
        <time>2026-05-26T08:52:37.000Z</time>
      </trkpt>
      <trkpt lat="44.65369" lon="5.05107">
        <ele>595</ele>
        <time>2026-05-26T08:52:38.000Z</time>
      </trkpt>
      <trkpt lat="44.65369" lon="5.05107">
        <ele>595</ele>
        <time>2026-05-26T08:52:39.000Z</time>
      </trkpt>
      <trkpt lat="44.65369" lon="5.05107">
        <ele>595</ele>
        <time>2026-05-26T08:52:40.000Z</time>
      </trkpt>
      <trkpt lat="44.65369" lon="5.05107">
        <ele>595</ele>
        <time>2026-05-26T08:52:41.000Z</time>
      </trkpt>
      <trkpt lat="44.65369" lon="5.05107">
        <ele>595</ele>
        <time>2026-05-26T08:52:42.000Z</time>
      </trkpt>
      <trkpt lat="44.65369" lon="5.05107">
        <ele>595</ele>
        <time>2026-05-26T08:52:43.000Z</time>
      </trkpt>
      <trkpt lat="44.65369" lon="5.05107">
        <ele>595</ele>
        <time>2026-05-26T08:52:44.000Z</time>
      </trkpt>
      <trkpt lat="44.65369" lon="5.05107">
        <ele>595</ele>
        <time>2026-05-26T08:52:45.000Z</time>
      </trkpt>
      <trkpt lat="44.65369" lon="5.05107">
        <ele>595</ele>
        <time>2026-05-26T08:52:46.000Z</time>
      </trkpt>
      <trkpt lat="44.65369" lon="5.05107">
        <ele>595</ele>
        <time>2026-05-26T08:52:47.000Z</time>
      </trkpt>
      <trkpt lat="44.65369" lon="5.05107">
        <ele>595</ele>
        <time>2026-05-26T08:52:48.000Z</time>
      </trkpt>
      <trkpt lat="44.65369" lon="5.05107">
        <ele>595</ele>
        <time>2026-05-26T08:52:49.000Z</time>
      </trkpt>
      <trkpt lat="44.65369" lon="5.05107">
        <ele>595</ele>
        <time>2026-05-26T08:52:50.000Z</time>
      </trkpt>
      <trkpt lat="44.65369" lon="5.05107">
        <ele>595</ele>
        <time>2026-05-26T08:52:51.000Z</time>
      </trkpt>
      <trkpt lat="44.65369" lon="5.05107">
        <ele>595</ele>
        <time>2026-05-26T08:52:52.000Z</time>
      </trkpt>
      <trkpt lat="44.65369" lon="5.05107">
        <ele>595</ele>
        <time>2026-05-26T08:52:53.000Z</time>
      </trkpt>
      <trkpt lat="44.65369" lon="5.05107">
        <ele>595</ele>
        <time>2026-05-26T08:52:54.000Z</time>
      </trkpt>
      <trkpt lat="44.65369" lon="5.05107">
        <ele>595</ele>
        <time>2026-05-26T08:52:55.000Z</time>
      </trkpt>
      <trkpt lat="44.65369" lon="5.05107">
        <ele>595</ele>
        <time>2026-05-26T08:52:56.000Z</time>
      </trkpt>
      <trkpt lat="44.65369" lon="5.05107">
        <ele>595</ele>
        <time>2026-05-26T08:52:57.000Z</time>
      </trkpt>
      <trkpt lat="44.65369" lon="5.05107">
        <ele>595</ele>
        <time>2026-05-26T08:52:58.000Z</time>
      </trkpt>
      <trkpt lat="44.65369" lon="5.05107">
        <ele>595</ele>
        <time>2026-05-26T08:52:59.000Z</time>
      </trkpt>
      <trkpt lat="44.65369" lon="5.05107">
        <ele>595</ele>
        <time>2026-05-26T08:53:00.000Z</time>
      </trkpt>
      <trkpt lat="44.65369" lon="5.05107">
        <ele>595</ele>
        <time>2026-05-26T08:53:01.000Z</time>
      </trkpt>
      <trkpt lat="44.65369" lon="5.05107">
        <ele>595</ele>
        <time>2026-05-26T08:53:02.000Z</time>
      </trkpt>
      <trkpt lat="44.65369" lon="5.05107">
        <ele>595</ele>
        <time>2026-05-26T08:53:03.000Z</time>
      </trkpt>
      <trkpt lat="44.65369" lon="5.05107">
        <ele>595</ele>
        <time>2026-05-26T08:53:04.000Z</time>
      </trkpt>
      <trkpt lat="44.65369" lon="5.05107">
        <ele>595</ele>
        <time>2026-05-26T08:53:05.000Z</time>
      </trkpt>
      <trkpt lat="44.65369" lon="5.05107">
        <ele>595</ele>
        <time>2026-05-26T08:53:06.000Z</time>
      </trkpt>
      <trkpt lat="44.65369" lon="5.05107">
        <ele>595</ele>
        <time>2026-05-26T08:53:07.000Z</time>
      </trkpt>
      <trkpt lat="44.65369" lon="5.05107">
        <ele>595</ele>
        <time>2026-05-26T08:53:08.000Z</time>
      </trkpt>
      <trkpt lat="44.65369" lon="5.05107">
        <ele>595</ele>
        <time>2026-05-26T08:53:09.000Z</time>
      </trkpt>
      <trkpt lat="44.65369" lon="5.05107">
        <ele>595</ele>
        <time>2026-05-26T08:53:10.000Z</time>
      </trkpt>
      <trkpt lat="44.65369" lon="5.05107">
        <ele>595</ele>
        <time>2026-05-26T08:53:11.000Z</time>
      </trkpt>
      <trkpt lat="44.65369" lon="5.05107">
        <ele>595</ele>
        <time>2026-05-26T08:53:12.000Z</time>
      </trkpt>
      <trkpt lat="44.65369" lon="5.05107">
        <ele>595</ele>
        <time>2026-05-26T08:53:13.000Z</time>
      </trkpt>
      <trkpt lat="44.65369" lon="5.05107">
        <ele>595</ele>
        <time>2026-05-26T08:53:14.000Z</time>
      </trkpt>
      <trkpt lat="44.65369" lon="5.05107">
        <ele>595</ele>
        <time>2026-05-26T08:53:15.000Z</time>
      </trkpt>
      <trkpt lat="44.65369" lon="5.05107">
        <ele>595</ele>
        <time>2026-05-26T08:53:16.000Z</time>
      </trkpt>
      <trkpt lat="44.65369" lon="5.05107">
        <ele>595</ele>
        <time>2026-05-26T08:53:17.000Z</time>
      </trkpt>
      <trkpt lat="44.65369" lon="5.05107">
        <ele>595</ele>
        <time>2026-05-26T08:53:18.000Z</time>
      </trkpt>
      <trkpt lat="44.65369" lon="5.05107">
        <ele>595</ele>
        <time>2026-05-26T08:53:19.000Z</time>
      </trkpt>
      <trkpt lat="44.65369" lon="5.05107">
        <ele>595</ele>
        <time>2026-05-26T08:53:20.000Z</time>
      </trkpt>
      <trkpt lat="44.65369" lon="5.05107">
        <ele>595</ele>
        <time>2026-05-26T08:53:21.000Z</time>
      </trkpt>
      <trkpt lat="44.65369" lon="5.05107">
        <ele>595</ele>
        <time>2026-05-26T08:53:22.000Z</time>
      </trkpt>
      <trkpt lat="44.65369" lon="5.05107">
        <ele>595</ele>
        <time>2026-05-26T08:53:23.000Z</time>
      </trkpt>
      <trkpt lat="44.65369" lon="5.05107">
        <ele>595</ele>
        <time>2026-05-26T08:53:24.000Z</time>
      </trkpt>
      <trkpt lat="44.65369" lon="5.05107">
        <ele>595</ele>
        <time>2026-05-26T08:53:25.000Z</time>
      </trkpt>
      <trkpt lat="44.65369" lon="5.05107">
        <ele>595</ele>
        <time>2026-05-26T08:53:26.000Z</time>
      </trkpt>
      <trkpt lat="44.65369" lon="5.05107">
        <ele>595</ele>
        <time>2026-05-26T08:53:27.000Z</time>
      </trkpt>
      <trkpt lat="44.65369" lon="5.05107">
        <ele>595</ele>
        <time>2026-05-26T08:53:28.000Z</time>
      </trkpt>
      <trkpt lat="44.65369" lon="5.05107">
        <ele>595</ele>
        <time>2026-05-26T08:53:29.000Z</time>
      </trkpt>
      <trkpt lat="44.65369" lon="5.05107">
        <ele>595</ele>
        <time>2026-05-26T08:53:30.000Z</time>
      </trkpt>
      <trkpt lat="44.65369" lon="5.05107">
        <ele>595</ele>
        <time>2026-05-26T08:53:31.000Z</time>
      </trkpt>
      <trkpt lat="44.65369" lon="5.05107">
        <ele>595</ele>
        <time>2026-05-26T08:53:32.000Z</time>
      </trkpt>
      <trkpt lat="44.65369" lon="5.05107">
        <ele>595</ele>
        <time>2026-05-26T08:53:33.000Z</time>
      </trkpt>
      <trkpt lat="44.65369" lon="5.05107">
        <ele>595</ele>
        <time>2026-05-26T08:53:34.000Z</time>
      </trkpt>
      <trkpt lat="44.65369" lon="5.05107">
        <ele>595</ele>
        <time>2026-05-26T08:53:35.000Z</time>
      </trkpt>
      <trkpt lat="44.6537" lon="5.05107">
        <ele>596</ele>
        <time>2026-05-26T08:53:36.000Z</time>
      </trkpt>
      <trkpt lat="44.65371" lon="5.05107">
        <ele>596</ele>
        <time>2026-05-26T08:53:37.000Z</time>
      </trkpt>
      <trkpt lat="44.65372" lon="5.05108">
        <ele>596</ele>
        <time>2026-05-26T08:53:38.000Z</time>
      </trkpt>
      <trkpt lat="44.65374" lon="5.05109">
        <ele>596</ele>
        <time>2026-05-26T08:53:39.000Z</time>
      </trkpt>
      <trkpt lat="44.65375" lon="5.05109">
        <ele>597</ele>
        <time>2026-05-26T08:53:40.000Z</time>
      </trkpt>
      <trkpt lat="44.65375" lon="5.05107">
        <ele>598</ele>
        <time>2026-05-26T08:53:41.000Z</time>
      </trkpt>
      <trkpt lat="44.65376" lon="5.05106">
        <ele>597</ele>
        <time>2026-05-26T08:53:42.000Z</time>
      </trkpt>
      <trkpt lat="44.65375" lon="5.05105">
        <ele>599</ele>
        <time>2026-05-26T08:53:43.000Z</time>
      </trkpt>
      <trkpt lat="44.65375" lon="5.05104">
        <ele>599</ele>
        <time>2026-05-26T08:53:44.000Z</time>
      </trkpt>
      <trkpt lat="44.65375" lon="5.05103">
        <ele>599</ele>
        <time>2026-05-26T08:53:45.000Z</time>
      </trkpt>
      <trkpt lat="44.65375" lon="5.05103">
        <ele>599</ele>
        <time>2026-05-26T08:53:46.000Z</time>
      </trkpt>
      <trkpt lat="44.65375" lon="5.05102">
        <ele>599</ele>
        <time>2026-05-26T08:53:47.000Z</time>
      </trkpt>
      <trkpt lat="44.65375" lon="5.05101">
        <ele>600</ele>
        <time>2026-05-26T08:53:48.000Z</time>
      </trkpt>
      <trkpt lat="44.65375" lon="5.05101">
        <ele>600</ele>
        <time>2026-05-26T08:53:49.000Z</time>
      </trkpt>
      <trkpt lat="44.65374" lon="5.051">
        <ele>601</ele>
        <time>2026-05-26T08:53:50.000Z</time>
      </trkpt>
      <trkpt lat="44.65374" lon="5.05101">
        <ele>600</ele>
        <time>2026-05-26T08:53:51.000Z</time>
      </trkpt>
      <trkpt lat="44.65375" lon="5.051">
        <ele>601</ele>
        <time>2026-05-26T08:53:52.000Z</time>
      </trkpt>
      <trkpt lat="44.65376" lon="5.05099">
        <ele>601</ele>
        <time>2026-05-26T08:53:53.000Z</time>
      </trkpt>
      <trkpt lat="44.65377" lon="5.05099">
        <ele>601</ele>
        <time>2026-05-26T08:53:54.000Z</time>
      </trkpt>
      <trkpt lat="44.65377" lon="5.05097">
        <ele>600</ele>
        <time>2026-05-26T08:53:55.000Z</time>
      </trkpt>
      <trkpt lat="44.65378" lon="5.05094">
        <ele>601</ele>
        <time>2026-05-26T08:53:56.000Z</time>
      </trkpt>
      <trkpt lat="44.65377" lon="5.05094">
        <ele>600</ele>
        <time>2026-05-26T08:53:57.000Z</time>
      </trkpt>
      <trkpt lat="44.65377" lon="5.05093">
        <ele>600</ele>
        <time>2026-05-26T08:53:58.000Z</time>
      </trkpt>
      <trkpt lat="44.65377" lon="5.05092">
        <ele>601</ele>
        <time>2026-05-26T08:53:59.000Z</time>
      </trkpt>
      <trkpt lat="44.65378" lon="5.05091">
        <ele>601</ele>
        <time>2026-05-26T08:54:00.000Z</time>
      </trkpt>
      <trkpt lat="44.65378" lon="5.0509">
        <ele>601</ele>
        <time>2026-05-26T08:54:01.000Z</time>
      </trkpt>
      <trkpt lat="44.65378" lon="5.05089">
        <ele>601</ele>
        <time>2026-05-26T08:54:02.000Z</time>
      </trkpt>
      <trkpt lat="44.65378" lon="5.05089">
        <ele>601</ele>
        <time>2026-05-26T08:54:03.000Z</time>
      </trkpt>
      <trkpt lat="44.65378" lon="5.05089">
        <ele>602</ele>
        <time>2026-05-26T08:54:04.000Z</time>
      </trkpt>
      <trkpt lat="44.65378" lon="5.05088">
        <ele>601</ele>
        <time>2026-05-26T08:54:05.000Z</time>
      </trkpt>
      <trkpt lat="44.65378" lon="5.05089">
        <ele>601</ele>
        <time>2026-05-26T08:54:06.000Z</time>
      </trkpt>
      <trkpt lat="44.65378" lon="5.05088">
        <ele>602</ele>
        <time>2026-05-26T08:54:07.000Z</time>
      </trkpt>
      <trkpt lat="44.65378" lon="5.05089">
        <ele>603</ele>
        <time>2026-05-26T08:54:08.000Z</time>
      </trkpt>
      <trkpt lat="44.65378" lon="5.05089">
        <ele>603</ele>
        <time>2026-05-26T08:54:09.000Z</time>
      </trkpt>
      <trkpt lat="44.65378" lon="5.05088">
        <ele>602</ele>
        <time>2026-05-26T08:54:10.000Z</time>
      </trkpt>
      <trkpt lat="44.65378" lon="5.05089">
        <ele>602</ele>
        <time>2026-05-26T08:54:11.000Z</time>
      </trkpt>
      <trkpt lat="44.65378" lon="5.05088">
        <ele>602</ele>
        <time>2026-05-26T08:54:12.000Z</time>
      </trkpt>
      <trkpt lat="44.65379" lon="5.05087">
        <ele>602</ele>
        <time>2026-05-26T08:54:13.000Z</time>
      </trkpt>
      <trkpt lat="44.65379" lon="5.05086">
        <ele>602</ele>
        <time>2026-05-26T08:54:14.000Z</time>
      </trkpt>
      <trkpt lat="44.6538" lon="5.05086">
        <ele>602</ele>
        <time>2026-05-26T08:54:15.000Z</time>
      </trkpt>
      <trkpt lat="44.65381" lon="5.05085">
        <ele>602</ele>
        <time>2026-05-26T08:54:16.000Z</time>
      </trkpt>
      <trkpt lat="44.65381" lon="5.05084">
        <ele>602</ele>
        <time>2026-05-26T08:54:17.000Z</time>
      </trkpt>
      <trkpt lat="44.65382" lon="5.05082">
        <ele>602</ele>
        <time>2026-05-26T08:54:18.000Z</time>
      </trkpt>
      <trkpt lat="44.65381" lon="5.05082">
        <ele>602</ele>
        <time>2026-05-26T08:54:19.000Z</time>
      </trkpt>
      <trkpt lat="44.65382" lon="5.05081">
        <ele>602</ele>
        <time>2026-05-26T08:54:20.000Z</time>
      </trkpt>
      <trkpt lat="44.65382" lon="5.0508">
        <ele>602</ele>
        <time>2026-05-26T08:54:21.000Z</time>
      </trkpt>
      <trkpt lat="44.65384" lon="5.05079">
        <ele>603</ele>
        <time>2026-05-26T08:54:22.000Z</time>
      </trkpt>
      <trkpt lat="44.65385" lon="5.05077">
        <ele>603</ele>
        <time>2026-05-26T08:54:23.000Z</time>
      </trkpt>
      <trkpt lat="44.65386" lon="5.05077">
        <ele>603</ele>
        <time>2026-05-26T08:54:24.000Z</time>
      </trkpt>
      <trkpt lat="44.65386" lon="5.05076">
        <ele>604</ele>
        <time>2026-05-26T08:54:25.000Z</time>
      </trkpt>
      <trkpt lat="44.65387" lon="5.05076">
        <ele>605</ele>
        <time>2026-05-26T08:54:26.000Z</time>
      </trkpt>
      <trkpt lat="44.65388" lon="5.05076">
        <ele>605</ele>
        <time>2026-05-26T08:54:27.000Z</time>
      </trkpt>
      <trkpt lat="44.65388" lon="5.05075">
        <ele>604</ele>
        <time>2026-05-26T08:54:28.000Z</time>
      </trkpt>
      <trkpt lat="44.65388" lon="5.05075">
        <ele>604</ele>
        <time>2026-05-26T08:54:29.000Z</time>
      </trkpt>
      <trkpt lat="44.65389" lon="5.05074">
        <ele>604</ele>
        <time>2026-05-26T08:54:30.000Z</time>
      </trkpt>
      <trkpt lat="44.65389" lon="5.05074">
        <ele>604</ele>
        <time>2026-05-26T08:54:31.000Z</time>
      </trkpt>
      <trkpt lat="44.6539" lon="5.05074">
        <ele>605</ele>
        <time>2026-05-26T08:54:32.000Z</time>
      </trkpt>
      <trkpt lat="44.6539" lon="5.05074">
        <ele>605</ele>
        <time>2026-05-26T08:54:33.000Z</time>
      </trkpt>
      <trkpt lat="44.6539" lon="5.05074">
        <ele>606</ele>
        <time>2026-05-26T08:54:34.000Z</time>
      </trkpt>
      <trkpt lat="44.6539" lon="5.05072">
        <ele>605</ele>
        <time>2026-05-26T08:54:35.000Z</time>
      </trkpt>
      <trkpt lat="44.65391" lon="5.05071">
        <ele>606</ele>
        <time>2026-05-26T08:54:36.000Z</time>
      </trkpt>
      <trkpt lat="44.65391" lon="5.05071">
        <ele>607</ele>
        <time>2026-05-26T08:54:37.000Z</time>
      </trkpt>
      <trkpt lat="44.65391" lon="5.05071">
        <ele>608</ele>
        <time>2026-05-26T08:54:38.000Z</time>
      </trkpt>
      <trkpt lat="44.65391" lon="5.05072">
        <ele>608</ele>
        <time>2026-05-26T08:54:39.000Z</time>
      </trkpt>
      <trkpt lat="44.65392" lon="5.05074">
        <ele>607</ele>
        <time>2026-05-26T08:54:40.000Z</time>
      </trkpt>
      <trkpt lat="44.65392" lon="5.05074">
        <ele>607</ele>
        <time>2026-05-26T08:54:41.000Z</time>
      </trkpt>
      <trkpt lat="44.65392" lon="5.05072">
        <ele>607</ele>
        <time>2026-05-26T08:54:42.000Z</time>
      </trkpt>
      <trkpt lat="44.65391" lon="5.05072">
        <ele>607</ele>
        <time>2026-05-26T08:54:43.000Z</time>
      </trkpt>
      <trkpt lat="44.65391" lon="5.05071">
        <ele>607</ele>
        <time>2026-05-26T08:54:44.000Z</time>
      </trkpt>
      <trkpt lat="44.65393" lon="5.05069">
        <ele>607</ele>
        <time>2026-05-26T08:54:45.000Z</time>
      </trkpt>
      <trkpt lat="44.65394" lon="5.05069">
        <ele>607</ele>
        <time>2026-05-26T08:54:46.000Z</time>
      </trkpt>
      <trkpt lat="44.65396" lon="5.05068">
        <ele>608</ele>
        <time>2026-05-26T08:54:47.000Z</time>
      </trkpt>
      <trkpt lat="44.65396" lon="5.05069">
        <ele>608</ele>
        <time>2026-05-26T08:54:48.000Z</time>
      </trkpt>
      <trkpt lat="44.65397" lon="5.05068">
        <ele>608</ele>
        <time>2026-05-26T08:54:49.000Z</time>
      </trkpt>
      <trkpt lat="44.65398" lon="5.05068">
        <ele>608</ele>
        <time>2026-05-26T08:54:50.000Z</time>
      </trkpt>
      <trkpt lat="44.65398" lon="5.05068">
        <ele>610</ele>
        <time>2026-05-26T08:54:51.000Z</time>
      </trkpt>
      <trkpt lat="44.65398" lon="5.05068">
        <ele>611</ele>
        <time>2026-05-26T08:54:52.000Z</time>
      </trkpt>
      <trkpt lat="44.65399" lon="5.05068">
        <ele>613</ele>
        <time>2026-05-26T08:54:53.000Z</time>
      </trkpt>
      <trkpt lat="44.65398" lon="5.05068">
        <ele>614</ele>
        <time>2026-05-26T08:54:54.000Z</time>
      </trkpt>
      <trkpt lat="44.65398" lon="5.05068">
        <ele>614</ele>
        <time>2026-05-26T08:54:55.000Z</time>
      </trkpt>
      <trkpt lat="44.65399" lon="5.05066">
        <ele>614</ele>
        <time>2026-05-26T08:54:56.000Z</time>
      </trkpt>
      <trkpt lat="44.65399" lon="5.05065">
        <ele>614</ele>
        <time>2026-05-26T08:54:57.000Z</time>
      </trkpt>
      <trkpt lat="44.654" lon="5.05065">
        <ele>615</ele>
        <time>2026-05-26T08:54:58.000Z</time>
      </trkpt>
      <trkpt lat="44.65401" lon="5.05065">
        <ele>615</ele>
        <time>2026-05-26T08:54:59.000Z</time>
      </trkpt>
      <trkpt lat="44.65401" lon="5.05065">
        <ele>615</ele>
        <time>2026-05-26T08:55:00.000Z</time>
      </trkpt>
      <trkpt lat="44.65401" lon="5.05065">
        <ele>615</ele>
        <time>2026-05-26T08:55:01.000Z</time>
      </trkpt>
      <trkpt lat="44.65402" lon="5.05064">
        <ele>615</ele>
        <time>2026-05-26T08:55:02.000Z</time>
      </trkpt>
      <trkpt lat="44.65402" lon="5.05063">
        <ele>614</ele>
        <time>2026-05-26T08:55:03.000Z</time>
      </trkpt>
      <trkpt lat="44.65403" lon="5.05062">
        <ele>615</ele>
        <time>2026-05-26T08:55:04.000Z</time>
      </trkpt>
      <trkpt lat="44.65404" lon="5.05062">
        <ele>614</ele>
        <time>2026-05-26T08:55:05.000Z</time>
      </trkpt>
      <trkpt lat="44.65405" lon="5.05062">
        <ele>615</ele>
        <time>2026-05-26T08:55:06.000Z</time>
      </trkpt>
      <trkpt lat="44.65405" lon="5.05061">
        <ele>615</ele>
        <time>2026-05-26T08:55:07.000Z</time>
      </trkpt>
      <trkpt lat="44.65405" lon="5.05062">
        <ele>616</ele>
        <time>2026-05-26T08:55:08.000Z</time>
      </trkpt>
      <trkpt lat="44.65405" lon="5.05062">
        <ele>616</ele>
        <time>2026-05-26T08:55:09.000Z</time>
      </trkpt>
      <trkpt lat="44.65406" lon="5.0506">
        <ele>617</ele>
        <time>2026-05-26T08:55:10.000Z</time>
      </trkpt>
      <trkpt lat="44.65407" lon="5.0506">
        <ele>618</ele>
        <time>2026-05-26T08:55:11.000Z</time>
      </trkpt>
      <trkpt lat="44.65407" lon="5.0506">
        <ele>619</ele>
        <time>2026-05-26T08:55:12.000Z</time>
      </trkpt>
      <trkpt lat="44.65408" lon="5.05061">
        <ele>619</ele>
        <time>2026-05-26T08:55:13.000Z</time>
      </trkpt>
      <trkpt lat="44.65408" lon="5.05062">
        <ele>619</ele>
        <time>2026-05-26T08:55:14.000Z</time>
      </trkpt>
      <trkpt lat="44.65409" lon="5.05061">
        <ele>619</ele>
        <time>2026-05-26T08:55:15.000Z</time>
      </trkpt>
      <trkpt lat="44.6541" lon="5.05062">
        <ele>618</ele>
        <time>2026-05-26T08:55:16.000Z</time>
      </trkpt>
      <trkpt lat="44.65411" lon="5.0506">
        <ele>617</ele>
        <time>2026-05-26T08:55:17.000Z</time>
      </trkpt>
      <trkpt lat="44.65411" lon="5.05059">
        <ele>617</ele>
        <time>2026-05-26T08:55:18.000Z</time>
      </trkpt>
      <trkpt lat="44.65412" lon="5.05057">
        <ele>617</ele>
        <time>2026-05-26T08:55:19.000Z</time>
      </trkpt>
      <trkpt lat="44.65412" lon="5.05057">
        <ele>618</ele>
        <time>2026-05-26T08:55:20.000Z</time>
      </trkpt>
      <trkpt lat="44.65414" lon="5.05055">
        <ele>618</ele>
        <time>2026-05-26T08:55:21.000Z</time>
      </trkpt>
      <trkpt lat="44.65414" lon="5.05055">
        <ele>618</ele>
        <time>2026-05-26T08:55:22.000Z</time>
      </trkpt>
      <trkpt lat="44.65413" lon="5.05055">
        <ele>617</ele>
        <time>2026-05-26T08:55:23.000Z</time>
      </trkpt>
      <trkpt lat="44.65413" lon="5.05055">
        <ele>617</ele>
        <time>2026-05-26T08:55:24.000Z</time>
      </trkpt>
      <trkpt lat="44.65413" lon="5.05055">
        <ele>616</ele>
        <time>2026-05-26T08:55:25.000Z</time>
      </trkpt>
      <trkpt lat="44.65414" lon="5.05055">
        <ele>616</ele>
        <time>2026-05-26T08:55:26.000Z</time>
      </trkpt>
      <trkpt lat="44.65414" lon="5.05055">
        <ele>616</ele>
        <time>2026-05-26T08:55:27.000Z</time>
      </trkpt>
      <trkpt lat="44.65414" lon="5.05055">
        <ele>618</ele>
        <time>2026-05-26T08:55:28.000Z</time>
      </trkpt>
      <trkpt lat="44.65415" lon="5.05053">
        <ele>619</ele>
        <time>2026-05-26T08:55:29.000Z</time>
      </trkpt>
      <trkpt lat="44.65415" lon="5.05053">
        <ele>619</ele>
        <time>2026-05-26T08:55:30.000Z</time>
      </trkpt>
      <trkpt lat="44.65415" lon="5.05053">
        <ele>619</ele>
        <time>2026-05-26T08:55:31.000Z</time>
      </trkpt>
      <trkpt lat="44.65415" lon="5.05053">
        <ele>619</ele>
        <time>2026-05-26T08:55:32.000Z</time>
      </trkpt>
      <trkpt lat="44.65415" lon="5.05053">
        <ele>619</ele>
        <time>2026-05-26T08:55:33.000Z</time>
      </trkpt>
      <trkpt lat="44.65415" lon="5.05053">
        <ele>619</ele>
        <time>2026-05-26T08:55:34.000Z</time>
      </trkpt>
      <trkpt lat="44.65415" lon="5.05053">
        <ele>619</ele>
        <time>2026-05-26T08:55:35.000Z</time>
      </trkpt>
      <trkpt lat="44.65415" lon="5.05053">
        <ele>619</ele>
        <time>2026-05-26T08:55:36.000Z</time>
      </trkpt>
      <trkpt lat="44.65415" lon="5.05053">
        <ele>619</ele>
        <time>2026-05-26T08:55:37.000Z</time>
      </trkpt>
      <trkpt lat="44.65415" lon="5.05053">
        <ele>619</ele>
        <time>2026-05-26T08:55:38.000Z</time>
      </trkpt>
      <trkpt lat="44.65415" lon="5.05053">
        <ele>619</ele>
        <time>2026-05-26T08:55:39.000Z</time>
      </trkpt>
      <trkpt lat="44.65415" lon="5.05053">
        <ele>619</ele>
        <time>2026-05-26T08:55:40.000Z</time>
      </trkpt>
      <trkpt lat="44.65415" lon="5.05053">
        <ele>619</ele>
        <time>2026-05-26T08:55:41.000Z</time>
      </trkpt>
      <trkpt lat="44.65415" lon="5.05053">
        <ele>619</ele>
        <time>2026-05-26T08:55:42.000Z</time>
      </trkpt>
      <trkpt lat="44.65415" lon="5.05053">
        <ele>619</ele>
        <time>2026-05-26T08:55:43.000Z</time>
      </trkpt>
      <trkpt lat="44.65415" lon="5.05053">
        <ele>619</ele>
        <time>2026-05-26T08:55:44.000Z</time>
      </trkpt>
      <trkpt lat="44.65415" lon="5.05053">
        <ele>619</ele>
        <time>2026-05-26T08:55:45.000Z</time>
      </trkpt>
      <trkpt lat="44.65415" lon="5.05053">
        <ele>619</ele>
        <time>2026-05-26T08:55:46.000Z</time>
      </trkpt>
      <trkpt lat="44.65415" lon="5.05053">
        <ele>619</ele>
        <time>2026-05-26T08:55:47.000Z</time>
      </trkpt>
      <trkpt lat="44.65415" lon="5.05053">
        <ele>619</ele>
        <time>2026-05-26T08:55:48.000Z</time>
      </trkpt>
      <trkpt lat="44.65415" lon="5.05053">
        <ele>619</ele>
        <time>2026-05-26T08:55:49.000Z</time>
      </trkpt>
      <trkpt lat="44.65415" lon="5.05053">
        <ele>619</ele>
        <time>2026-05-26T08:55:50.000Z</time>
      </trkpt>
      <trkpt lat="44.65415" lon="5.05053">
        <ele>619</ele>
        <time>2026-05-26T08:55:51.000Z</time>
      </trkpt>
      <trkpt lat="44.65415" lon="5.05053">
        <ele>619</ele>
        <time>2026-05-26T08:55:52.000Z</time>
      </trkpt>
      <trkpt lat="44.65415" lon="5.05053">
        <ele>619</ele>
        <time>2026-05-26T08:55:53.000Z</time>
      </trkpt>
      <trkpt lat="44.65415" lon="5.05053">
        <ele>619</ele>
        <time>2026-05-26T08:55:54.000Z</time>
      </trkpt>
      <trkpt lat="44.65415" lon="5.05053">
        <ele>619</ele>
        <time>2026-05-26T08:55:55.000Z</time>
      </trkpt>
      <trkpt lat="44.65415" lon="5.05053">
        <ele>619</ele>
        <time>2026-05-26T08:55:56.000Z</time>
      </trkpt>
      <trkpt lat="44.65415" lon="5.05053">
        <ele>619</ele>
        <time>2026-05-26T08:55:57.000Z</time>
      </trkpt>
      <trkpt lat="44.65415" lon="5.05053">
        <ele>619</ele>
        <time>2026-05-26T08:55:58.000Z</time>
      </trkpt>
      <trkpt lat="44.65415" lon="5.05053">
        <ele>619</ele>
        <time>2026-05-26T08:55:59.000Z</time>
      </trkpt>
      <trkpt lat="44.65415" lon="5.05053">
        <ele>619</ele>
        <time>2026-05-26T08:56:00.000Z</time>
      </trkpt>
      <trkpt lat="44.65415" lon="5.05053">
        <ele>619</ele>
        <time>2026-05-26T08:56:01.000Z</time>
      </trkpt>
      <trkpt lat="44.65415" lon="5.05053">
        <ele>619</ele>
        <time>2026-05-26T08:56:02.000Z</time>
      </trkpt>
      <trkpt lat="44.65415" lon="5.05053">
        <ele>619</ele>
        <time>2026-05-26T08:56:03.000Z</time>
      </trkpt>
      <trkpt lat="44.65415" lon="5.05053">
        <ele>619</ele>
        <time>2026-05-26T08:56:04.000Z</time>
      </trkpt>
      <trkpt lat="44.65415" lon="5.05053">
        <ele>619</ele>
        <time>2026-05-26T08:56:05.000Z</time>
      </trkpt>
      <trkpt lat="44.65415" lon="5.05053">
        <ele>619</ele>
        <time>2026-05-26T08:56:06.000Z</time>
      </trkpt>
      <trkpt lat="44.65415" lon="5.05053">
        <ele>619</ele>
        <time>2026-05-26T08:56:07.000Z</time>
      </trkpt>
      <trkpt lat="44.65415" lon="5.05053">
        <ele>619</ele>
        <time>2026-05-26T08:56:08.000Z</time>
      </trkpt>
      <trkpt lat="44.65415" lon="5.05053">
        <ele>619</ele>
        <time>2026-05-26T08:56:09.000Z</time>
      </trkpt>
      <trkpt lat="44.65415" lon="5.05053">
        <ele>619</ele>
        <time>2026-05-26T08:56:10.000Z</time>
      </trkpt>
      <trkpt lat="44.65415" lon="5.05053">
        <ele>619</ele>
        <time>2026-05-26T08:56:11.000Z</time>
      </trkpt>
      <trkpt lat="44.65415" lon="5.05053">
        <ele>619</ele>
        <time>2026-05-26T08:56:12.000Z</time>
      </trkpt>
      <trkpt lat="44.65415" lon="5.05053">
        <ele>619</ele>
        <time>2026-05-26T08:56:13.000Z</time>
      </trkpt>
      <trkpt lat="44.65415" lon="5.05053">
        <ele>619</ele>
        <time>2026-05-26T08:56:14.000Z</time>
      </trkpt>
      <trkpt lat="44.65415" lon="5.05053">
        <ele>619</ele>
        <time>2026-05-26T08:56:15.000Z</time>
      </trkpt>
      <trkpt lat="44.65415" lon="5.05053">
        <ele>619</ele>
        <time>2026-05-26T08:56:16.000Z</time>
      </trkpt>
      <trkpt lat="44.65415" lon="5.05053">
        <ele>619</ele>
        <time>2026-05-26T08:56:17.000Z</time>
      </trkpt>
      <trkpt lat="44.65415" lon="5.05053">
        <ele>619</ele>
        <time>2026-05-26T08:56:18.000Z</time>
      </trkpt>
      <trkpt lat="44.65415" lon="5.05053">
        <ele>619</ele>
        <time>2026-05-26T08:56:19.000Z</time>
      </trkpt>
      <trkpt lat="44.65415" lon="5.05053">
        <ele>619</ele>
        <time>2026-05-26T08:56:20.000Z</time>
      </trkpt>
      <trkpt lat="44.65415" lon="5.05053">
        <ele>619</ele>
        <time>2026-05-26T08:56:21.000Z</time>
      </trkpt>
      <trkpt lat="44.65415" lon="5.05053">
        <ele>619</ele>
        <time>2026-05-26T08:56:22.000Z</time>
      </trkpt>
      <trkpt lat="44.65415" lon="5.05053">
        <ele>619</ele>
        <time>2026-05-26T08:56:23.000Z</time>
      </trkpt>
      <trkpt lat="44.65415" lon="5.05053">
        <ele>619</ele>
        <time>2026-05-26T08:56:24.000Z</time>
      </trkpt>
      <trkpt lat="44.65415" lon="5.05053">
        <ele>619</ele>
        <time>2026-05-26T08:56:25.000Z</time>
      </trkpt>
      <trkpt lat="44.65415" lon="5.05053">
        <ele>619</ele>
        <time>2026-05-26T08:56:26.000Z</time>
      </trkpt>
      <trkpt lat="44.65415" lon="5.05053">
        <ele>619</ele>
        <time>2026-05-26T08:56:27.000Z</time>
      </trkpt>
      <trkpt lat="44.65415" lon="5.05053">
        <ele>619</ele>
        <time>2026-05-26T08:56:28.000Z</time>
      </trkpt>
      <trkpt lat="44.65415" lon="5.05053">
        <ele>619</ele>
        <time>2026-05-26T08:56:29.000Z</time>
      </trkpt>
      <trkpt lat="44.65415" lon="5.05053">
        <ele>619</ele>
        <time>2026-05-26T08:56:30.000Z</time>
      </trkpt>
      <trkpt lat="44.65415" lon="5.05053">
        <ele>619</ele>
        <time>2026-05-26T08:56:31.000Z</time>
      </trkpt>
      <trkpt lat="44.65415" lon="5.05053">
        <ele>619</ele>
        <time>2026-05-26T08:56:32.000Z</time>
      </trkpt>
      <trkpt lat="44.65415" lon="5.05053">
        <ele>619</ele>
        <time>2026-05-26T08:56:33.000Z</time>
      </trkpt>
      <trkpt lat="44.65415" lon="5.05053">
        <ele>619</ele>
        <time>2026-05-26T08:56:34.000Z</time>
      </trkpt>
      <trkpt lat="44.65415" lon="5.05053">
        <ele>619</ele>
        <time>2026-05-26T08:56:35.000Z</time>
      </trkpt>
      <trkpt lat="44.65415" lon="5.05053">
        <ele>619</ele>
        <time>2026-05-26T08:56:36.000Z</time>
      </trkpt>
      <trkpt lat="44.65415" lon="5.05053">
        <ele>619</ele>
        <time>2026-05-26T08:56:37.000Z</time>
      </trkpt>
      <trkpt lat="44.65415" lon="5.05053">
        <ele>619</ele>
        <time>2026-05-26T08:56:38.000Z</time>
      </trkpt>
      <trkpt lat="44.65415" lon="5.05053">
        <ele>619</ele>
        <time>2026-05-26T08:56:39.000Z</time>
      </trkpt>
      <trkpt lat="44.65415" lon="5.05053">
        <ele>619</ele>
        <time>2026-05-26T08:56:40.000Z</time>
      </trkpt>
      <trkpt lat="44.65415" lon="5.05053">
        <ele>619</ele>
        <time>2026-05-26T08:56:41.000Z</time>
      </trkpt>
      <trkpt lat="44.65415" lon="5.05053">
        <ele>619</ele>
        <time>2026-05-26T08:56:42.000Z</time>
      </trkpt>
      <trkpt lat="44.65415" lon="5.05053">
        <ele>619</ele>
        <time>2026-05-26T08:56:43.000Z</time>
      </trkpt>
      <trkpt lat="44.65415" lon="5.05053">
        <ele>619</ele>
        <time>2026-05-26T08:56:44.000Z</time>
      </trkpt>
      <trkpt lat="44.65415" lon="5.05053">
        <ele>619</ele>
        <time>2026-05-26T08:56:45.000Z</time>
      </trkpt>
      <trkpt lat="44.65415" lon="5.05053">
        <ele>619</ele>
        <time>2026-05-26T08:56:46.000Z</time>
      </trkpt>
      <trkpt lat="44.65415" lon="5.05053">
        <ele>619</ele>
        <time>2026-05-26T08:56:47.000Z</time>
      </trkpt>
      <trkpt lat="44.65415" lon="5.05053">
        <ele>619</ele>
        <time>2026-05-26T08:56:48.000Z</time>
      </trkpt>
      <trkpt lat="44.65415" lon="5.05053">
        <ele>619</ele>
        <time>2026-05-26T08:56:49.000Z</time>
      </trkpt>
      <trkpt lat="44.65415" lon="5.05053">
        <ele>619</ele>
        <time>2026-05-26T08:56:50.000Z</time>
      </trkpt>
      <trkpt lat="44.65415" lon="5.05053">
        <ele>619</ele>
        <time>2026-05-26T08:56:51.000Z</time>
      </trkpt>
      <trkpt lat="44.65415" lon="5.05053">
        <ele>619</ele>
        <time>2026-05-26T08:56:52.000Z</time>
      </trkpt>
      <trkpt lat="44.65415" lon="5.05053">
        <ele>619</ele>
        <time>2026-05-26T08:56:53.000Z</time>
      </trkpt>
      <trkpt lat="44.65415" lon="5.05053">
        <ele>619</ele>
        <time>2026-05-26T08:56:54.000Z</time>
      </trkpt>
      <trkpt lat="44.65415" lon="5.05053">
        <ele>619</ele>
        <time>2026-05-26T08:56:55.000Z</time>
      </trkpt>
      <trkpt lat="44.65415" lon="5.05053">
        <ele>619</ele>
        <time>2026-05-26T08:56:56.000Z</time>
      </trkpt>
      <trkpt lat="44.65415" lon="5.05053">
        <ele>619</ele>
        <time>2026-05-26T08:56:57.000Z</time>
      </trkpt>
      <trkpt lat="44.65415" lon="5.05053">
        <ele>619</ele>
        <time>2026-05-26T08:56:58.000Z</time>
      </trkpt>
      <trkpt lat="44.65415" lon="5.05053">
        <ele>619</ele>
        <time>2026-05-26T08:56:59.000Z</time>
      </trkpt>
      <trkpt lat="44.65415" lon="5.05053">
        <ele>619</ele>
        <time>2026-05-26T08:57:00.000Z</time>
      </trkpt>
      <trkpt lat="44.65415" lon="5.05053">
        <ele>619</ele>
        <time>2026-05-26T08:57:01.000Z</time>
      </trkpt>
      <trkpt lat="44.65415" lon="5.05053">
        <ele>619</ele>
        <time>2026-05-26T08:57:02.000Z</time>
      </trkpt>
      <trkpt lat="44.65415" lon="5.05053">
        <ele>619</ele>
        <time>2026-05-26T08:57:03.000Z</time>
      </trkpt>
      <trkpt lat="44.65415" lon="5.05053">
        <ele>619</ele>
        <time>2026-05-26T08:57:04.000Z</time>
      </trkpt>
      <trkpt lat="44.65415" lon="5.05053">
        <ele>619</ele>
        <time>2026-05-26T08:57:05.000Z</time>
      </trkpt>
      <trkpt lat="44.65415" lon="5.05053">
        <ele>619</ele>
        <time>2026-05-26T08:57:06.000Z</time>
      </trkpt>
      <trkpt lat="44.65415" lon="5.05053">
        <ele>619</ele>
        <time>2026-05-26T08:57:07.000Z</time>
      </trkpt>
      <trkpt lat="44.65415" lon="5.05053">
        <ele>619</ele>
        <time>2026-05-26T08:57:08.000Z</time>
      </trkpt>
      <trkpt lat="44.65415" lon="5.05053">
        <ele>619</ele>
        <time>2026-05-26T08:57:09.000Z</time>
      </trkpt>
      <trkpt lat="44.65415" lon="5.05053">
        <ele>619</ele>
        <time>2026-05-26T08:57:10.000Z</time>
      </trkpt>
      <trkpt lat="44.65415" lon="5.05053">
        <ele>619</ele>
        <time>2026-05-26T08:57:11.000Z</time>
      </trkpt>
      <trkpt lat="44.65415" lon="5.05053">
        <ele>619</ele>
        <time>2026-05-26T08:57:12.000Z</time>
      </trkpt>
      <trkpt lat="44.65415" lon="5.05053">
        <ele>619</ele>
        <time>2026-05-26T08:57:13.000Z</time>
      </trkpt>
      <trkpt lat="44.65415" lon="5.05053">
        <ele>619</ele>
        <time>2026-05-26T08:57:14.000Z</time>
      </trkpt>
      <trkpt lat="44.65415" lon="5.05053">
        <ele>619</ele>
        <time>2026-05-26T08:57:15.000Z</time>
      </trkpt>
      <trkpt lat="44.65415" lon="5.05053">
        <ele>619</ele>
        <time>2026-05-26T08:57:16.000Z</time>
      </trkpt>
      <trkpt lat="44.65415" lon="5.05053">
        <ele>619</ele>
        <time>2026-05-26T08:57:17.000Z</time>
      </trkpt>
      <trkpt lat="44.65415" lon="5.05053">
        <ele>619</ele>
        <time>2026-05-26T08:57:18.000Z</time>
      </trkpt>
      <trkpt lat="44.65415" lon="5.05053">
        <ele>619</ele>
        <time>2026-05-26T08:57:19.000Z</time>
      </trkpt>
      <trkpt lat="44.65415" lon="5.05053">
        <ele>619</ele>
        <time>2026-05-26T08:57:20.000Z</time>
      </trkpt>
      <trkpt lat="44.65415" lon="5.05053">
        <ele>619</ele>
        <time>2026-05-26T08:57:21.000Z</time>
      </trkpt>
      <trkpt lat="44.65415" lon="5.05053">
        <ele>619</ele>
        <time>2026-05-26T08:57:22.000Z</time>
      </trkpt>
      <trkpt lat="44.65415" lon="5.05053">
        <ele>619</ele>
        <time>2026-05-26T08:57:23.000Z</time>
      </trkpt>
      <trkpt lat="44.65415" lon="5.05053">
        <ele>619</ele>
        <time>2026-05-26T08:57:24.000Z</time>
      </trkpt>
      <trkpt lat="44.65415" lon="5.05053">
        <ele>619</ele>
        <time>2026-05-26T08:57:25.000Z</time>
      </trkpt>
      <trkpt lat="44.65415" lon="5.05053">
        <ele>619</ele>
        <time>2026-05-26T08:57:26.000Z</time>
      </trkpt>
      <trkpt lat="44.65415" lon="5.05053">
        <ele>619</ele>
        <time>2026-05-26T08:57:27.000Z</time>
      </trkpt>
      <trkpt lat="44.65415" lon="5.05053">
        <ele>619</ele>
        <time>2026-05-26T08:57:28.000Z</time>
      </trkpt>
      <trkpt lat="44.65415" lon="5.05053">
        <ele>619</ele>
        <time>2026-05-26T08:57:29.000Z</time>
      </trkpt>
      <trkpt lat="44.65415" lon="5.05053">
        <ele>619</ele>
        <time>2026-05-26T08:57:30.000Z</time>
      </trkpt>
      <trkpt lat="44.65415" lon="5.05053">
        <ele>619</ele>
        <time>2026-05-26T08:57:31.000Z</time>
      </trkpt>
      <trkpt lat="44.65415" lon="5.05053">
        <ele>619</ele>
        <time>2026-05-26T08:57:32.000Z</time>
      </trkpt>
      <trkpt lat="44.65415" lon="5.05053">
        <ele>619</ele>
        <time>2026-05-26T08:57:33.000Z</time>
      </trkpt>
      <trkpt lat="44.65415" lon="5.05053">
        <ele>619</ele>
        <time>2026-05-26T08:57:34.000Z</time>
      </trkpt>
      <trkpt lat="44.65415" lon="5.05053">
        <ele>619</ele>
        <time>2026-05-26T08:57:35.000Z</time>
      </trkpt>
      <trkpt lat="44.65415" lon="5.05053">
        <ele>619</ele>
        <time>2026-05-26T08:57:36.000Z</time>
      </trkpt>
      <trkpt lat="44.65415" lon="5.05053">
        <ele>619</ele>
        <time>2026-05-26T08:57:37.000Z</time>
      </trkpt>
      <trkpt lat="44.65415" lon="5.05053">
        <ele>619</ele>
        <time>2026-05-26T08:57:38.000Z</time>
      </trkpt>
      <trkpt lat="44.65415" lon="5.05053">
        <ele>619</ele>
        <time>2026-05-26T08:57:39.000Z</time>
      </trkpt>
      <trkpt lat="44.65415" lon="5.05053">
        <ele>619</ele>
        <time>2026-05-26T08:57:40.000Z</time>
      </trkpt>
      <trkpt lat="44.65415" lon="5.05053">
        <ele>619</ele>
        <time>2026-05-26T08:57:41.000Z</time>
      </trkpt>
      <trkpt lat="44.65415" lon="5.05053">
        <ele>619</ele>
        <time>2026-05-26T08:57:42.000Z</time>
      </trkpt>
      <trkpt lat="44.65415" lon="5.05053">
        <ele>619</ele>
        <time>2026-05-26T08:57:43.000Z</time>
      </trkpt>
      <trkpt lat="44.65415" lon="5.05053">
        <ele>619</ele>
        <time>2026-05-26T08:57:44.000Z</time>
      </trkpt>
      <trkpt lat="44.65415" lon="5.05053">
        <ele>619</ele>
        <time>2026-05-26T08:57:45.000Z</time>
      </trkpt>
      <trkpt lat="44.65415" lon="5.05053">
        <ele>619</ele>
        <time>2026-05-26T08:57:46.000Z</time>
      </trkpt>
      <trkpt lat="44.65415" lon="5.05053">
        <ele>619</ele>
        <time>2026-05-26T08:57:47.000Z</time>
      </trkpt>
      <trkpt lat="44.65415" lon="5.05053">
        <ele>619</ele>
        <time>2026-05-26T08:57:48.000Z</time>
      </trkpt>
      <trkpt lat="44.65415" lon="5.05053">
        <ele>619</ele>
        <time>2026-05-26T08:57:49.000Z</time>
      </trkpt>
      <trkpt lat="44.65415" lon="5.05053">
        <ele>619</ele>
        <time>2026-05-26T08:57:50.000Z</time>
      </trkpt>
      <trkpt lat="44.65415" lon="5.05053">
        <ele>619</ele>
        <time>2026-05-26T08:57:51.000Z</time>
      </trkpt>
      <trkpt lat="44.65415" lon="5.05053">
        <ele>619</ele>
        <time>2026-05-26T08:57:52.000Z</time>
      </trkpt>
      <trkpt lat="44.65415" lon="5.05053">
        <ele>619</ele>
        <time>2026-05-26T08:57:53.000Z</time>
      </trkpt>
      <trkpt lat="44.65415" lon="5.05053">
        <ele>619</ele>
        <time>2026-05-26T08:57:54.000Z</time>
      </trkpt>
      <trkpt lat="44.65415" lon="5.05053">
        <ele>619</ele>
        <time>2026-05-26T08:57:55.000Z</time>
      </trkpt>
      <trkpt lat="44.65415" lon="5.05053">
        <ele>619</ele>
        <time>2026-05-26T08:57:56.000Z</time>
      </trkpt>
      <trkpt lat="44.65415" lon="5.05053">
        <ele>619</ele>
        <time>2026-05-26T08:57:57.000Z</time>
      </trkpt>
      <trkpt lat="44.65415" lon="5.05053">
        <ele>619</ele>
        <time>2026-05-26T08:57:58.000Z</time>
      </trkpt>
      <trkpt lat="44.65415" lon="5.05053">
        <ele>619</ele>
        <time>2026-05-26T08:57:59.000Z</time>
      </trkpt>
      <trkpt lat="44.65415" lon="5.05053">
        <ele>619</ele>
        <time>2026-05-26T08:58:00.000Z</time>
      </trkpt>
      <trkpt lat="44.65415" lon="5.05053">
        <ele>619</ele>
        <time>2026-05-26T08:58:01.000Z</time>
      </trkpt>
      <trkpt lat="44.65415" lon="5.05053">
        <ele>619</ele>
        <time>2026-05-26T08:58:02.000Z</time>
      </trkpt>
      <trkpt lat="44.65415" lon="5.05053">
        <ele>619</ele>
        <time>2026-05-26T08:58:03.000Z</time>
      </trkpt>
      <trkpt lat="44.65415" lon="5.05053">
        <ele>619</ele>
        <time>2026-05-26T08:58:04.000Z</time>
      </trkpt>
      <trkpt lat="44.65415" lon="5.05053">
        <ele>619</ele>
        <time>2026-05-26T08:58:05.000Z</time>
      </trkpt>
      <trkpt lat="44.65415" lon="5.05053">
        <ele>619</ele>
        <time>2026-05-26T08:58:06.000Z</time>
      </trkpt>
      <trkpt lat="44.65415" lon="5.05053">
        <ele>619</ele>
        <time>2026-05-26T08:58:07.000Z</time>
      </trkpt>
      <trkpt lat="44.65415" lon="5.05053">
        <ele>619</ele>
        <time>2026-05-26T08:58:08.000Z</time>
      </trkpt>
      <trkpt lat="44.65415" lon="5.05053">
        <ele>619</ele>
        <time>2026-05-26T08:58:09.000Z</time>
      </trkpt>
      <trkpt lat="44.65415" lon="5.05053">
        <ele>619</ele>
        <time>2026-05-26T08:58:10.000Z</time>
      </trkpt>
      <trkpt lat="44.65415" lon="5.05053">
        <ele>619</ele>
        <time>2026-05-26T08:58:11.000Z</time>
      </trkpt>
      <trkpt lat="44.65415" lon="5.05053">
        <ele>619</ele>
        <time>2026-05-26T08:58:12.000Z</time>
      </trkpt>
      <trkpt lat="44.65415" lon="5.05053">
        <ele>619</ele>
        <time>2026-05-26T08:58:13.000Z</time>
      </trkpt>
      <trkpt lat="44.65415" lon="5.05053">
        <ele>619</ele>
        <time>2026-05-26T08:58:14.000Z</time>
      </trkpt>
      <trkpt lat="44.65415" lon="5.05053">
        <ele>619</ele>
        <time>2026-05-26T08:58:15.000Z</time>
      </trkpt>
      <trkpt lat="44.65415" lon="5.05053">
        <ele>619</ele>
        <time>2026-05-26T08:58:16.000Z</time>
      </trkpt>
      <trkpt lat="44.65415" lon="5.05053">
        <ele>619</ele>
        <time>2026-05-26T08:58:17.000Z</time>
      </trkpt>
      <trkpt lat="44.65415" lon="5.05053">
        <ele>619</ele>
        <time>2026-05-26T08:58:18.000Z</time>
      </trkpt>
      <trkpt lat="44.65415" lon="5.05053">
        <ele>619</ele>
        <time>2026-05-26T08:58:19.000Z</time>
      </trkpt>
      <trkpt lat="44.65415" lon="5.05053">
        <ele>619</ele>
        <time>2026-05-26T08:58:20.000Z</time>
      </trkpt>
      <trkpt lat="44.65415" lon="5.05053">
        <ele>619</ele>
        <time>2026-05-26T08:58:21.000Z</time>
      </trkpt>
      <trkpt lat="44.65415" lon="5.05053">
        <ele>619</ele>
        <time>2026-05-26T08:58:22.000Z</time>
      </trkpt>
      <trkpt lat="44.65415" lon="5.05053">
        <ele>619</ele>
        <time>2026-05-26T08:58:23.000Z</time>
      </trkpt>
      <trkpt lat="44.65415" lon="5.05053">
        <ele>619</ele>
        <time>2026-05-26T08:58:24.000Z</time>
      </trkpt>
      <trkpt lat="44.65415" lon="5.05053">
        <ele>619</ele>
        <time>2026-05-26T08:58:25.000Z</time>
      </trkpt>
      <trkpt lat="44.65415" lon="5.05053">
        <ele>619</ele>
        <time>2026-05-26T08:58:26.000Z</time>
      </trkpt>
      <trkpt lat="44.65415" lon="5.05053">
        <ele>619</ele>
        <time>2026-05-26T08:58:27.000Z</time>
      </trkpt>
      <trkpt lat="44.65415" lon="5.05053">
        <ele>619</ele>
        <time>2026-05-26T08:58:28.000Z</time>
      </trkpt>
      <trkpt lat="44.65415" lon="5.05053">
        <ele>619</ele>
        <time>2026-05-26T08:58:29.000Z</time>
      </trkpt>
      <trkpt lat="44.65415" lon="5.05053">
        <ele>620</ele>
        <time>2026-05-26T08:58:30.000Z</time>
      </trkpt>
      <trkpt lat="44.65415" lon="5.05052">
        <ele>621</ele>
        <time>2026-05-26T08:58:31.000Z</time>
      </trkpt>
      <trkpt lat="44.65416" lon="5.05052">
        <ele>620</ele>
        <time>2026-05-26T08:58:32.000Z</time>
      </trkpt>
      <trkpt lat="44.65416" lon="5.05052">
        <ele>620</ele>
        <time>2026-05-26T08:58:33.000Z</time>
      </trkpt>
      <trkpt lat="44.65416" lon="5.05051">
        <ele>619</ele>
        <time>2026-05-26T08:58:34.000Z</time>
      </trkpt>
      <trkpt lat="44.65418" lon="5.05051">
        <ele>620</ele>
        <time>2026-05-26T08:58:35.000Z</time>
      </trkpt>
      <trkpt lat="44.65418" lon="5.05051">
        <ele>620</ele>
        <time>2026-05-26T08:58:36.000Z</time>
      </trkpt>
      <trkpt lat="44.65418" lon="5.05051">
        <ele>620</ele>
        <time>2026-05-26T08:58:37.000Z</time>
      </trkpt>
      <trkpt lat="44.6542" lon="5.05049">
        <ele>620</ele>
        <time>2026-05-26T08:58:38.000Z</time>
      </trkpt>
      <trkpt lat="44.65422" lon="5.05049">
        <ele>619</ele>
        <time>2026-05-26T08:58:39.000Z</time>
      </trkpt>
      <trkpt lat="44.65422" lon="5.05049">
        <ele>618</ele>
        <time>2026-05-26T08:58:40.000Z</time>
      </trkpt>
      <trkpt lat="44.65423" lon="5.05048">
        <ele>618</ele>
        <time>2026-05-26T08:58:41.000Z</time>
      </trkpt>
      <trkpt lat="44.65424" lon="5.05047">
        <ele>618</ele>
        <time>2026-05-26T08:58:42.000Z</time>
      </trkpt>
      <trkpt lat="44.65423" lon="5.05046">
        <ele>619</ele>
        <time>2026-05-26T08:58:43.000Z</time>
      </trkpt>
      <trkpt lat="44.65423" lon="5.05045">
        <ele>620</ele>
        <time>2026-05-26T08:58:44.000Z</time>
      </trkpt>
      <trkpt lat="44.65422" lon="5.05044">
        <ele>620</ele>
        <time>2026-05-26T08:58:45.000Z</time>
      </trkpt>
      <trkpt lat="44.65422" lon="5.05043">
        <ele>620</ele>
        <time>2026-05-26T08:58:46.000Z</time>
      </trkpt>
      <trkpt lat="44.65422" lon="5.05042">
        <ele>620</ele>
        <time>2026-05-26T08:58:47.000Z</time>
      </trkpt>
      <trkpt lat="44.65423" lon="5.05041">
        <ele>620</ele>
        <time>2026-05-26T08:58:48.000Z</time>
      </trkpt>
      <trkpt lat="44.65424" lon="5.05041">
        <ele>620</ele>
        <time>2026-05-26T08:58:49.000Z</time>
      </trkpt>
      <trkpt lat="44.65423" lon="5.05041">
        <ele>620</ele>
        <time>2026-05-26T08:58:50.000Z</time>
      </trkpt>
      <trkpt lat="44.65422" lon="5.05041">
        <ele>619</ele>
        <time>2026-05-26T08:58:51.000Z</time>
      </trkpt>
      <trkpt lat="44.65423" lon="5.05041">
        <ele>618</ele>
        <time>2026-05-26T08:58:52.000Z</time>
      </trkpt>
      <trkpt lat="44.65423" lon="5.0504">
        <ele>618</ele>
        <time>2026-05-26T08:58:53.000Z</time>
      </trkpt>
      <trkpt lat="44.65424" lon="5.05039">
        <ele>618</ele>
        <time>2026-05-26T08:58:54.000Z</time>
      </trkpt>
      <trkpt lat="44.65424" lon="5.05039">
        <ele>618</ele>
        <time>2026-05-26T08:58:55.000Z</time>
      </trkpt>
      <trkpt lat="44.65424" lon="5.05038">
        <ele>619</ele>
        <time>2026-05-26T08:58:56.000Z</time>
      </trkpt>
      <trkpt lat="44.65424" lon="5.05038">
        <ele>619</ele>
        <time>2026-05-26T08:58:57.000Z</time>
      </trkpt>
      <trkpt lat="44.65423" lon="5.05038">
        <ele>620</ele>
        <time>2026-05-26T08:58:58.000Z</time>
      </trkpt>
      <trkpt lat="44.65424" lon="5.05037">
        <ele>619</ele>
        <time>2026-05-26T08:58:59.000Z</time>
      </trkpt>
      <trkpt lat="44.65426" lon="5.05036">
        <ele>620</ele>
        <time>2026-05-26T08:59:00.000Z</time>
      </trkpt>
      <trkpt lat="44.65426" lon="5.05035">
        <ele>620</ele>
        <time>2026-05-26T08:59:01.000Z</time>
      </trkpt>
      <trkpt lat="44.65427" lon="5.05034">
        <ele>621</ele>
        <time>2026-05-26T08:59:02.000Z</time>
      </trkpt>
      <trkpt lat="44.65426" lon="5.05032">
        <ele>620</ele>
        <time>2026-05-26T08:59:03.000Z</time>
      </trkpt>
      <trkpt lat="44.65427" lon="5.0503">
        <ele>621</ele>
        <time>2026-05-26T08:59:04.000Z</time>
      </trkpt>
      <trkpt lat="44.65428" lon="5.05028">
        <ele>622</ele>
        <time>2026-05-26T08:59:05.000Z</time>
      </trkpt>
      <trkpt lat="44.65428" lon="5.05028">
        <ele>621</ele>
        <time>2026-05-26T08:59:06.000Z</time>
      </trkpt>
      <trkpt lat="44.65428" lon="5.05028">
        <ele>621</ele>
        <time>2026-05-26T08:59:07.000Z</time>
      </trkpt>
      <trkpt lat="44.65428" lon="5.05026">
        <ele>622</ele>
        <time>2026-05-26T08:59:08.000Z</time>
      </trkpt>
      <trkpt lat="44.65428" lon="5.05026">
        <ele>622</ele>
        <time>2026-05-26T08:59:09.000Z</time>
      </trkpt>
      <trkpt lat="44.65428" lon="5.05025">
        <ele>622</ele>
        <time>2026-05-26T08:59:10.000Z</time>
      </trkpt>
      <trkpt lat="44.65428" lon="5.05024">
        <ele>623</ele>
        <time>2026-05-26T08:59:11.000Z</time>
      </trkpt>
      <trkpt lat="44.65428" lon="5.05023">
        <ele>623</ele>
        <time>2026-05-26T08:59:12.000Z</time>
      </trkpt>
      <trkpt lat="44.65428" lon="5.05022">
        <ele>623</ele>
        <time>2026-05-26T08:59:13.000Z</time>
      </trkpt>
      <trkpt lat="44.65428" lon="5.0502">
        <ele>623</ele>
        <time>2026-05-26T08:59:14.000Z</time>
      </trkpt>
      <trkpt lat="44.65429" lon="5.05019">
        <ele>624</ele>
        <time>2026-05-26T08:59:15.000Z</time>
      </trkpt>
      <trkpt lat="44.65429" lon="5.05018">
        <ele>623</ele>
        <time>2026-05-26T08:59:16.000Z</time>
      </trkpt>
      <trkpt lat="44.65429" lon="5.05018">
        <ele>624</ele>
        <time>2026-05-26T08:59:17.000Z</time>
      </trkpt>
      <trkpt lat="44.65429" lon="5.05018">
        <ele>624</ele>
        <time>2026-05-26T08:59:18.000Z</time>
      </trkpt>
      <trkpt lat="44.65429" lon="5.05018">
        <ele>624</ele>
        <time>2026-05-26T08:59:19.000Z</time>
      </trkpt>
      <trkpt lat="44.6543" lon="5.05018">
        <ele>624</ele>
        <time>2026-05-26T08:59:20.000Z</time>
      </trkpt>
      <trkpt lat="44.65431" lon="5.05017">
        <ele>625</ele>
        <time>2026-05-26T08:59:21.000Z</time>
      </trkpt>
      <trkpt lat="44.65432" lon="5.05017">
        <ele>625</ele>
        <time>2026-05-26T08:59:22.000Z</time>
      </trkpt>
      <trkpt lat="44.65432" lon="5.05015">
        <ele>625</ele>
        <time>2026-05-26T08:59:23.000Z</time>
      </trkpt>
      <trkpt lat="44.65432" lon="5.05013">
        <ele>625</ele>
        <time>2026-05-26T08:59:24.000Z</time>
      </trkpt>
      <trkpt lat="44.65431" lon="5.05013">
        <ele>626</ele>
        <time>2026-05-26T08:59:25.000Z</time>
      </trkpt>
      <trkpt lat="44.65431" lon="5.05012">
        <ele>627</ele>
        <time>2026-05-26T08:59:26.000Z</time>
      </trkpt>
      <trkpt lat="44.65431" lon="5.05011">
        <ele>626</ele>
        <time>2026-05-26T08:59:27.000Z</time>
      </trkpt>
      <trkpt lat="44.65432" lon="5.05011">
        <ele>627</ele>
        <time>2026-05-26T08:59:28.000Z</time>
      </trkpt>
      <trkpt lat="44.65432" lon="5.0501">
        <ele>628</ele>
        <time>2026-05-26T08:59:29.000Z</time>
      </trkpt>
      <trkpt lat="44.65432" lon="5.0501">
        <ele>627</ele>
        <time>2026-05-26T08:59:30.000Z</time>
      </trkpt>
      <trkpt lat="44.65433" lon="5.05009">
        <ele>628</ele>
        <time>2026-05-26T08:59:31.000Z</time>
      </trkpt>
      <trkpt lat="44.65433" lon="5.05009">
        <ele>627</ele>
        <time>2026-05-26T08:59:32.000Z</time>
      </trkpt>
      <trkpt lat="44.65434" lon="5.05008">
        <ele>627</ele>
        <time>2026-05-26T08:59:33.000Z</time>
      </trkpt>
      <trkpt lat="44.65434" lon="5.05007">
        <ele>627</ele>
        <time>2026-05-26T08:59:34.000Z</time>
      </trkpt>
      <trkpt lat="44.65434" lon="5.05005">
        <ele>628</ele>
        <time>2026-05-26T08:59:35.000Z</time>
      </trkpt>
      <trkpt lat="44.65435" lon="5.05004">
        <ele>628</ele>
        <time>2026-05-26T08:59:36.000Z</time>
      </trkpt>
      <trkpt lat="44.65435" lon="5.05004">
        <ele>628</ele>
        <time>2026-05-26T08:59:37.000Z</time>
      </trkpt>
      <trkpt lat="44.65435" lon="5.05004">
        <ele>628</ele>
        <time>2026-05-26T08:59:38.000Z</time>
      </trkpt>
      <trkpt lat="44.65436" lon="5.05003">
        <ele>628</ele>
        <time>2026-05-26T08:59:39.000Z</time>
      </trkpt>
      <trkpt lat="44.65437" lon="5.05003">
        <ele>628</ele>
        <time>2026-05-26T08:59:40.000Z</time>
      </trkpt>
      <trkpt lat="44.65437" lon="5.05002">
        <ele>628</ele>
        <time>2026-05-26T08:59:41.000Z</time>
      </trkpt>
      <trkpt lat="44.65436" lon="5.05001">
        <ele>628</ele>
        <time>2026-05-26T08:59:42.000Z</time>
      </trkpt>
      <trkpt lat="44.65437" lon="5.05">
        <ele>628</ele>
        <time>2026-05-26T08:59:43.000Z</time>
      </trkpt>
      <trkpt lat="44.65436" lon="5.05">
        <ele>628</ele>
        <time>2026-05-26T08:59:44.000Z</time>
      </trkpt>
      <trkpt lat="44.65437" lon="5.04999">
        <ele>629</ele>
        <time>2026-05-26T08:59:45.000Z</time>
      </trkpt>
      <trkpt lat="44.65437" lon="5.04998">
        <ele>628</ele>
        <time>2026-05-26T08:59:46.000Z</time>
      </trkpt>
      <trkpt lat="44.65437" lon="5.04998">
        <ele>628</ele>
        <time>2026-05-26T08:59:47.000Z</time>
      </trkpt>
      <trkpt lat="44.65437" lon="5.04997">
        <ele>629</ele>
        <time>2026-05-26T08:59:48.000Z</time>
      </trkpt>
      <trkpt lat="44.65436" lon="5.04997">
        <ele>628</ele>
        <time>2026-05-26T08:59:49.000Z</time>
      </trkpt>
      <trkpt lat="44.65436" lon="5.04998">
        <ele>629</ele>
        <time>2026-05-26T08:59:50.000Z</time>
      </trkpt>
      <trkpt lat="44.65436" lon="5.04998">
        <ele>630</ele>
        <time>2026-05-26T08:59:51.000Z</time>
      </trkpt>
      <trkpt lat="44.65436" lon="5.04998">
        <ele>629</ele>
        <time>2026-05-26T08:59:52.000Z</time>
      </trkpt>
      <trkpt lat="44.65437" lon="5.04997">
        <ele>628</ele>
        <time>2026-05-26T08:59:53.000Z</time>
      </trkpt>
      <trkpt lat="44.65438" lon="5.04996">
        <ele>629</ele>
        <time>2026-05-26T08:59:54.000Z</time>
      </trkpt>
      <trkpt lat="44.65439" lon="5.04995">
        <ele>628</ele>
        <time>2026-05-26T08:59:55.000Z</time>
      </trkpt>
      <trkpt lat="44.6544" lon="5.04994">
        <ele>628</ele>
        <time>2026-05-26T08:59:56.000Z</time>
      </trkpt>
      <trkpt lat="44.6544" lon="5.04993">
        <ele>628</ele>
        <time>2026-05-26T08:59:57.000Z</time>
      </trkpt>
      <trkpt lat="44.6544" lon="5.04992">
        <ele>628</ele>
        <time>2026-05-26T08:59:58.000Z</time>
      </trkpt>
      <trkpt lat="44.6544" lon="5.04991">
        <ele>627</ele>
        <time>2026-05-26T08:59:59.000Z</time>
      </trkpt>
      <trkpt lat="44.6544" lon="5.0499">
        <ele>626</ele>
        <time>2026-05-26T09:00:00.000Z</time>
      </trkpt>
      <trkpt lat="44.65439" lon="5.04988">
        <ele>627</ele>
        <time>2026-05-26T09:00:01.000Z</time>
      </trkpt>
      <trkpt lat="44.6544" lon="5.04987">
        <ele>628</ele>
        <time>2026-05-26T09:00:02.000Z</time>
      </trkpt>
      <trkpt lat="44.6544" lon="5.04988">
        <ele>629</ele>
        <time>2026-05-26T09:00:03.000Z</time>
      </trkpt>
      <trkpt lat="44.6544" lon="5.04988">
        <ele>628</ele>
        <time>2026-05-26T09:00:04.000Z</time>
      </trkpt>
      <trkpt lat="44.6544" lon="5.04986">
        <ele>627</ele>
        <time>2026-05-26T09:00:05.000Z</time>
      </trkpt>
      <trkpt lat="44.6544" lon="5.04985">
        <ele>627</ele>
        <time>2026-05-26T09:00:06.000Z</time>
      </trkpt>
      <trkpt lat="44.65441" lon="5.04983">
        <ele>627</ele>
        <time>2026-05-26T09:00:07.000Z</time>
      </trkpt>
      <trkpt lat="44.65441" lon="5.04983">
        <ele>627</ele>
        <time>2026-05-26T09:00:08.000Z</time>
      </trkpt>
      <trkpt lat="44.65442" lon="5.04982">
        <ele>628</ele>
        <time>2026-05-26T09:00:09.000Z</time>
      </trkpt>
      <trkpt lat="44.65442" lon="5.04982">
        <ele>628</ele>
        <time>2026-05-26T09:00:10.000Z</time>
      </trkpt>
      <trkpt lat="44.65443" lon="5.04981">
        <ele>628</ele>
        <time>2026-05-26T09:00:11.000Z</time>
      </trkpt>
      <trkpt lat="44.65443" lon="5.0498">
        <ele>629</ele>
        <time>2026-05-26T09:00:12.000Z</time>
      </trkpt>
      <trkpt lat="44.65442" lon="5.04979">
        <ele>630</ele>
        <time>2026-05-26T09:00:13.000Z</time>
      </trkpt>
      <trkpt lat="44.65442" lon="5.04978">
        <ele>630</ele>
        <time>2026-05-26T09:00:14.000Z</time>
      </trkpt>
      <trkpt lat="44.65442" lon="5.04977">
        <ele>629</ele>
        <time>2026-05-26T09:00:15.000Z</time>
      </trkpt>
      <trkpt lat="44.65442" lon="5.04976">
        <ele>630</ele>
        <time>2026-05-26T09:00:16.000Z</time>
      </trkpt>
      <trkpt lat="44.65442" lon="5.04975">
        <ele>630</ele>
        <time>2026-05-26T09:00:17.000Z</time>
      </trkpt>
      <trkpt lat="44.65442" lon="5.04974">
        <ele>630</ele>
        <time>2026-05-26T09:00:18.000Z</time>
      </trkpt>
      <trkpt lat="44.65443" lon="5.04974">
        <ele>630</ele>
        <time>2026-05-26T09:00:19.000Z</time>
      </trkpt>
      <trkpt lat="44.65444" lon="5.04972">
        <ele>631</ele>
        <time>2026-05-26T09:00:20.000Z</time>
      </trkpt>
      <trkpt lat="44.65445" lon="5.04972">
        <ele>632</ele>
        <time>2026-05-26T09:00:21.000Z</time>
      </trkpt>
      <trkpt lat="44.65445" lon="5.04972">
        <ele>632</ele>
        <time>2026-05-26T09:00:22.000Z</time>
      </trkpt>
      <trkpt lat="44.65445" lon="5.04971">
        <ele>633</ele>
        <time>2026-05-26T09:00:23.000Z</time>
      </trkpt>
      <trkpt lat="44.65445" lon="5.0497">
        <ele>634</ele>
        <time>2026-05-26T09:00:24.000Z</time>
      </trkpt>
      <trkpt lat="44.65446" lon="5.0497">
        <ele>633</ele>
        <time>2026-05-26T09:00:25.000Z</time>
      </trkpt>
      <trkpt lat="44.65446" lon="5.0497">
        <ele>633</ele>
        <time>2026-05-26T09:00:26.000Z</time>
      </trkpt>
      <trkpt lat="44.65447" lon="5.0497">
        <ele>634</ele>
        <time>2026-05-26T09:00:27.000Z</time>
      </trkpt>
      <trkpt lat="44.65448" lon="5.04968">
        <ele>633</ele>
        <time>2026-05-26T09:00:28.000Z</time>
      </trkpt>
      <trkpt lat="44.65448" lon="5.04968">
        <ele>633</ele>
        <time>2026-05-26T09:00:29.000Z</time>
      </trkpt>
      <trkpt lat="44.65448" lon="5.04968">
        <ele>633</ele>
        <time>2026-05-26T09:00:30.000Z</time>
      </trkpt>
      <trkpt lat="44.65448" lon="5.04968">
        <ele>633</ele>
        <time>2026-05-26T09:00:31.000Z</time>
      </trkpt>
      <trkpt lat="44.65448" lon="5.04968">
        <ele>633</ele>
        <time>2026-05-26T09:00:32.000Z</time>
      </trkpt>
      <trkpt lat="44.65448" lon="5.04968">
        <ele>633</ele>
        <time>2026-05-26T09:00:33.000Z</time>
      </trkpt>
      <trkpt lat="44.65448" lon="5.04968">
        <ele>633</ele>
        <time>2026-05-26T09:00:34.000Z</time>
      </trkpt>
      <trkpt lat="44.65448" lon="5.04968">
        <ele>633</ele>
        <time>2026-05-26T09:00:35.000Z</time>
      </trkpt>
      <trkpt lat="44.65448" lon="5.04968">
        <ele>633</ele>
        <time>2026-05-26T09:00:36.000Z</time>
      </trkpt>
      <trkpt lat="44.65448" lon="5.04968">
        <ele>633</ele>
        <time>2026-05-26T09:00:37.000Z</time>
      </trkpt>
      <trkpt lat="44.65448" lon="5.04968">
        <ele>633</ele>
        <time>2026-05-26T09:00:38.000Z</time>
      </trkpt>
      <trkpt lat="44.65448" lon="5.04968">
        <ele>633</ele>
        <time>2026-05-26T09:00:39.000Z</time>
      </trkpt>
      <trkpt lat="44.65448" lon="5.04968">
        <ele>633</ele>
        <time>2026-05-26T09:00:40.000Z</time>
      </trkpt>
      <trkpt lat="44.65448" lon="5.04968">
        <ele>633</ele>
        <time>2026-05-26T09:00:41.000Z</time>
      </trkpt>
      <trkpt lat="44.65448" lon="5.04968">
        <ele>633</ele>
        <time>2026-05-26T09:00:42.000Z</time>
      </trkpt>
      <trkpt lat="44.65448" lon="5.04968">
        <ele>633</ele>
        <time>2026-05-26T09:00:43.000Z</time>
      </trkpt>
      <trkpt lat="44.65448" lon="5.04968">
        <ele>633</ele>
        <time>2026-05-26T09:00:44.000Z</time>
      </trkpt>
      <trkpt lat="44.65448" lon="5.04968">
        <ele>633</ele>
        <time>2026-05-26T09:00:45.000Z</time>
      </trkpt>
      <trkpt lat="44.65448" lon="5.04968">
        <ele>633</ele>
        <time>2026-05-26T09:00:46.000Z</time>
      </trkpt>
      <trkpt lat="44.65448" lon="5.04968">
        <ele>633</ele>
        <time>2026-05-26T09:00:47.000Z</time>
      </trkpt>
      <trkpt lat="44.65448" lon="5.04968">
        <ele>633</ele>
        <time>2026-05-26T09:00:48.000Z</time>
      </trkpt>
      <trkpt lat="44.65448" lon="5.04968">
        <ele>633</ele>
        <time>2026-05-26T09:00:49.000Z</time>
      </trkpt>
      <trkpt lat="44.65448" lon="5.04968">
        <ele>633</ele>
        <time>2026-05-26T09:00:50.000Z</time>
      </trkpt>
      <trkpt lat="44.65448" lon="5.04968">
        <ele>633</ele>
        <time>2026-05-26T09:00:51.000Z</time>
      </trkpt>
      <trkpt lat="44.65448" lon="5.04968">
        <ele>633</ele>
        <time>2026-05-26T09:00:52.000Z</time>
      </trkpt>
      <trkpt lat="44.65448" lon="5.04968">
        <ele>633</ele>
        <time>2026-05-26T09:00:53.000Z</time>
      </trkpt>
      <trkpt lat="44.65448" lon="5.04968">
        <ele>633</ele>
        <time>2026-05-26T09:00:54.000Z</time>
      </trkpt>
      <trkpt lat="44.65448" lon="5.04968">
        <ele>633</ele>
        <time>2026-05-26T09:00:55.000Z</time>
      </trkpt>
      <trkpt lat="44.65448" lon="5.04968">
        <ele>633</ele>
        <time>2026-05-26T09:00:56.000Z</time>
      </trkpt>
      <trkpt lat="44.65448" lon="5.04968">
        <ele>633</ele>
        <time>2026-05-26T09:00:57.000Z</time>
      </trkpt>
      <trkpt lat="44.65448" lon="5.04968">
        <ele>633</ele>
        <time>2026-05-26T09:00:58.000Z</time>
      </trkpt>
      <trkpt lat="44.65448" lon="5.04968">
        <ele>633</ele>
        <time>2026-05-26T09:00:59.000Z</time>
      </trkpt>
      <trkpt lat="44.65448" lon="5.04968">
        <ele>633</ele>
        <time>2026-05-26T09:01:00.000Z</time>
      </trkpt>
      <trkpt lat="44.65448" lon="5.04968">
        <ele>633</ele>
        <time>2026-05-26T09:01:01.000Z</time>
      </trkpt>
      <trkpt lat="44.65448" lon="5.04968">
        <ele>633</ele>
        <time>2026-05-26T09:01:02.000Z</time>
      </trkpt>
      <trkpt lat="44.65448" lon="5.04968">
        <ele>633</ele>
        <time>2026-05-26T09:01:03.000Z</time>
      </trkpt>
      <trkpt lat="44.65448" lon="5.04968">
        <ele>633</ele>
        <time>2026-05-26T09:01:04.000Z</time>
      </trkpt>
      <trkpt lat="44.65448" lon="5.04968">
        <ele>633</ele>
        <time>2026-05-26T09:01:05.000Z</time>
      </trkpt>
      <trkpt lat="44.65447" lon="5.04968">
        <ele>634</ele>
        <time>2026-05-26T09:01:06.000Z</time>
      </trkpt>
      <trkpt lat="44.65446" lon="5.04967">
        <ele>634</ele>
        <time>2026-05-26T09:01:07.000Z</time>
      </trkpt>
      <trkpt lat="44.65445" lon="5.04967">
        <ele>634</ele>
        <time>2026-05-26T09:01:08.000Z</time>
      </trkpt>
      <trkpt lat="44.65445" lon="5.04967">
        <ele>634</ele>
        <time>2026-05-26T09:01:09.000Z</time>
      </trkpt>
      <trkpt lat="44.65445" lon="5.04967">
        <ele>634</ele>
        <time>2026-05-26T09:01:10.000Z</time>
      </trkpt>
      <trkpt lat="44.65445" lon="5.04967">
        <ele>634</ele>
        <time>2026-05-26T09:01:11.000Z</time>
      </trkpt>
      <trkpt lat="44.65445" lon="5.04967">
        <ele>634</ele>
        <time>2026-05-26T09:01:12.000Z</time>
      </trkpt>
      <trkpt lat="44.65445" lon="5.04967">
        <ele>634</ele>
        <time>2026-05-26T09:01:13.000Z</time>
      </trkpt>
      <trkpt lat="44.65445" lon="5.04967">
        <ele>634</ele>
        <time>2026-05-26T09:01:14.000Z</time>
      </trkpt>
      <trkpt lat="44.65445" lon="5.04967">
        <ele>634</ele>
        <time>2026-05-26T09:01:15.000Z</time>
      </trkpt>
      <trkpt lat="44.65445" lon="5.04967">
        <ele>634</ele>
        <time>2026-05-26T09:01:16.000Z</time>
      </trkpt>
      <trkpt lat="44.65445" lon="5.04967">
        <ele>634</ele>
        <time>2026-05-26T09:01:17.000Z</time>
      </trkpt>
      <trkpt lat="44.65445" lon="5.04967">
        <ele>634</ele>
        <time>2026-05-26T09:01:18.000Z</time>
      </trkpt>
      <trkpt lat="44.65445" lon="5.04967">
        <ele>634</ele>
        <time>2026-05-26T09:01:19.000Z</time>
      </trkpt>
      <trkpt lat="44.65445" lon="5.04967">
        <ele>634</ele>
        <time>2026-05-26T09:01:20.000Z</time>
      </trkpt>
      <trkpt lat="44.65445" lon="5.04967">
        <ele>634</ele>
        <time>2026-05-26T09:01:21.000Z</time>
      </trkpt>
      <trkpt lat="44.65445" lon="5.04967">
        <ele>634</ele>
        <time>2026-05-26T09:01:22.000Z</time>
      </trkpt>
      <trkpt lat="44.65445" lon="5.04967">
        <ele>634</ele>
        <time>2026-05-26T09:01:23.000Z</time>
      </trkpt>
      <trkpt lat="44.65445" lon="5.04967">
        <ele>634</ele>
        <time>2026-05-26T09:01:24.000Z</time>
      </trkpt>
      <trkpt lat="44.65445" lon="5.04967">
        <ele>634</ele>
        <time>2026-05-26T09:01:25.000Z</time>
      </trkpt>
      <trkpt lat="44.65445" lon="5.04967">
        <ele>634</ele>
        <time>2026-05-26T09:01:26.000Z</time>
      </trkpt>
      <trkpt lat="44.65445" lon="5.04967">
        <ele>634</ele>
        <time>2026-05-26T09:01:27.000Z</time>
      </trkpt>
      <trkpt lat="44.65445" lon="5.04967">
        <ele>634</ele>
        <time>2026-05-26T09:01:28.000Z</time>
      </trkpt>
      <trkpt lat="44.65445" lon="5.04967">
        <ele>634</ele>
        <time>2026-05-26T09:01:29.000Z</time>
      </trkpt>
      <trkpt lat="44.65445" lon="5.04967">
        <ele>634</ele>
        <time>2026-05-26T09:01:30.000Z</time>
      </trkpt>
      <trkpt lat="44.65445" lon="5.04967">
        <ele>634</ele>
        <time>2026-05-26T09:01:31.000Z</time>
      </trkpt>
      <trkpt lat="44.65445" lon="5.04967">
        <ele>634</ele>
        <time>2026-05-26T09:01:32.000Z</time>
      </trkpt>
      <trkpt lat="44.65445" lon="5.04967">
        <ele>634</ele>
        <time>2026-05-26T09:01:33.000Z</time>
      </trkpt>
      <trkpt lat="44.65445" lon="5.04967">
        <ele>634</ele>
        <time>2026-05-26T09:01:34.000Z</time>
      </trkpt>
      <trkpt lat="44.65445" lon="5.04967">
        <ele>634</ele>
        <time>2026-05-26T09:01:35.000Z</time>
      </trkpt>
      <trkpt lat="44.65445" lon="5.04967">
        <ele>634</ele>
        <time>2026-05-26T09:01:36.000Z</time>
      </trkpt>
      <trkpt lat="44.65445" lon="5.04967">
        <ele>634</ele>
        <time>2026-05-26T09:01:37.000Z</time>
      </trkpt>
      <trkpt lat="44.65445" lon="5.04967">
        <ele>634</ele>
        <time>2026-05-26T09:01:38.000Z</time>
      </trkpt>
      <trkpt lat="44.65445" lon="5.04967">
        <ele>634</ele>
        <time>2026-05-26T09:01:39.000Z</time>
      </trkpt>
      <trkpt lat="44.65445" lon="5.04967">
        <ele>634</ele>
        <time>2026-05-26T09:01:40.000Z</time>
      </trkpt>
      <trkpt lat="44.65445" lon="5.04967">
        <ele>634</ele>
        <time>2026-05-26T09:01:41.000Z</time>
      </trkpt>
      <trkpt lat="44.65446" lon="5.04967">
        <ele>634</ele>
        <time>2026-05-26T09:01:42.000Z</time>
      </trkpt>
      <trkpt lat="44.65446" lon="5.04967">
        <ele>634</ele>
        <time>2026-05-26T09:01:43.000Z</time>
      </trkpt>
      <trkpt lat="44.65446" lon="5.04968">
        <ele>634</ele>
        <time>2026-05-26T09:01:44.000Z</time>
      </trkpt>
      <trkpt lat="44.65447" lon="5.04967">
        <ele>634</ele>
        <time>2026-05-26T09:01:45.000Z</time>
      </trkpt>
      <trkpt lat="44.65448" lon="5.04966">
        <ele>635</ele>
        <time>2026-05-26T09:01:46.000Z</time>
      </trkpt>
      <trkpt lat="44.65449" lon="5.04965">
        <ele>635</ele>
        <time>2026-05-26T09:01:47.000Z</time>
      </trkpt>
      <trkpt lat="44.65449" lon="5.04966">
        <ele>634</ele>
        <time>2026-05-26T09:01:48.000Z</time>
      </trkpt>
      <trkpt lat="44.65451" lon="5.04965">
        <ele>634</ele>
        <time>2026-05-26T09:01:49.000Z</time>
      </trkpt>
      <trkpt lat="44.65451" lon="5.04965">
        <ele>634</ele>
        <time>2026-05-26T09:01:50.000Z</time>
      </trkpt>
      <trkpt lat="44.65451" lon="5.04965">
        <ele>634</ele>
        <time>2026-05-26T09:01:51.000Z</time>
      </trkpt>
      <trkpt lat="44.65452" lon="5.04965">
        <ele>634</ele>
        <time>2026-05-26T09:01:52.000Z</time>
      </trkpt>
      <trkpt lat="44.65453" lon="5.04965">
        <ele>634</ele>
        <time>2026-05-26T09:01:53.000Z</time>
      </trkpt>
      <trkpt lat="44.65454" lon="5.04964">
        <ele>634</ele>
        <time>2026-05-26T09:01:54.000Z</time>
      </trkpt>
      <trkpt lat="44.65455" lon="5.04963">
        <ele>633</ele>
        <time>2026-05-26T09:01:55.000Z</time>
      </trkpt>
      <trkpt lat="44.65455" lon="5.04963">
        <ele>633</ele>
        <time>2026-05-26T09:01:56.000Z</time>
      </trkpt>
      <trkpt lat="44.65455" lon="5.04963">
        <ele>633</ele>
        <time>2026-05-26T09:01:57.000Z</time>
      </trkpt>
      <trkpt lat="44.65454" lon="5.04963">
        <ele>633</ele>
        <time>2026-05-26T09:01:58.000Z</time>
      </trkpt>
      <trkpt lat="44.65454" lon="5.04963">
        <ele>633</ele>
        <time>2026-05-26T09:01:59.000Z</time>
      </trkpt>
      <trkpt lat="44.65454" lon="5.04962">
        <ele>633</ele>
        <time>2026-05-26T09:02:00.000Z</time>
      </trkpt>
      <trkpt lat="44.65455" lon="5.04962">
        <ele>633</ele>
        <time>2026-05-26T09:02:01.000Z</time>
      </trkpt>
      <trkpt lat="44.65455" lon="5.04961">
        <ele>635</ele>
        <time>2026-05-26T09:02:02.000Z</time>
      </trkpt>
      <trkpt lat="44.65455" lon="5.0496">
        <ele>635</ele>
        <time>2026-05-26T09:02:03.000Z</time>
      </trkpt>
      <trkpt lat="44.65455" lon="5.04959">
        <ele>636</ele>
        <time>2026-05-26T09:02:04.000Z</time>
      </trkpt>
      <trkpt lat="44.65455" lon="5.0496">
        <ele>636</ele>
        <time>2026-05-26T09:02:05.000Z</time>
      </trkpt>
      <trkpt lat="44.65456" lon="5.04959">
        <ele>635</ele>
        <time>2026-05-26T09:02:06.000Z</time>
      </trkpt>
      <trkpt lat="44.65455" lon="5.0496">
        <ele>635</ele>
        <time>2026-05-26T09:02:07.000Z</time>
      </trkpt>
      <trkpt lat="44.65456" lon="5.04958">
        <ele>634</ele>
        <time>2026-05-26T09:02:08.000Z</time>
      </trkpt>
      <trkpt lat="44.65456" lon="5.04957">
        <ele>635</ele>
        <time>2026-05-26T09:02:09.000Z</time>
      </trkpt>
      <trkpt lat="44.65457" lon="5.04956">
        <ele>635</ele>
        <time>2026-05-26T09:02:10.000Z</time>
      </trkpt>
      <trkpt lat="44.65456" lon="5.04956">
        <ele>634</ele>
        <time>2026-05-26T09:02:11.000Z</time>
      </trkpt>
      <trkpt lat="44.65456" lon="5.04957">
        <ele>635</ele>
        <time>2026-05-26T09:02:12.000Z</time>
      </trkpt>
      <trkpt lat="44.65457" lon="5.04958">
        <ele>634</ele>
        <time>2026-05-26T09:02:13.000Z</time>
      </trkpt>
      <trkpt lat="44.65458" lon="5.04958">
        <ele>634</ele>
        <time>2026-05-26T09:02:14.000Z</time>
      </trkpt>
      <trkpt lat="44.65459" lon="5.04957">
        <ele>636</ele>
        <time>2026-05-26T09:02:15.000Z</time>
      </trkpt>
      <trkpt lat="44.65459" lon="5.04956">
        <ele>636</ele>
        <time>2026-05-26T09:02:16.000Z</time>
      </trkpt>
      <trkpt lat="44.65461" lon="5.04956">
        <ele>637</ele>
        <time>2026-05-26T09:02:17.000Z</time>
      </trkpt>
      <trkpt lat="44.65462" lon="5.04956">
        <ele>637</ele>
        <time>2026-05-26T09:02:18.000Z</time>
      </trkpt>
      <trkpt lat="44.65463" lon="5.04956">
        <ele>637</ele>
        <time>2026-05-26T09:02:19.000Z</time>
      </trkpt>
      <trkpt lat="44.65463" lon="5.04956">
        <ele>637</ele>
        <time>2026-05-26T09:02:20.000Z</time>
      </trkpt>
      <trkpt lat="44.65463" lon="5.04956">
        <ele>637</ele>
        <time>2026-05-26T09:02:21.000Z</time>
      </trkpt>
      <trkpt lat="44.65463" lon="5.04954">
        <ele>636</ele>
        <time>2026-05-26T09:02:22.000Z</time>
      </trkpt>
      <trkpt lat="44.65464" lon="5.04952">
        <ele>637</ele>
        <time>2026-05-26T09:02:23.000Z</time>
      </trkpt>
      <trkpt lat="44.65464" lon="5.04951">
        <ele>637</ele>
        <time>2026-05-26T09:02:24.000Z</time>
      </trkpt>
      <trkpt lat="44.65465" lon="5.04951">
        <ele>636</ele>
        <time>2026-05-26T09:02:25.000Z</time>
      </trkpt>
      <trkpt lat="44.65465" lon="5.04952">
        <ele>636</ele>
        <time>2026-05-26T09:02:26.000Z</time>
      </trkpt>
      <trkpt lat="44.65465" lon="5.04953">
        <ele>637</ele>
        <time>2026-05-26T09:02:27.000Z</time>
      </trkpt>
      <trkpt lat="44.65465" lon="5.04953">
        <ele>638</ele>
        <time>2026-05-26T09:02:28.000Z</time>
      </trkpt>
      <trkpt lat="44.65466" lon="5.04953">
        <ele>637</ele>
        <time>2026-05-26T09:02:29.000Z</time>
      </trkpt>
      <trkpt lat="44.65466" lon="5.04953">
        <ele>637</ele>
        <time>2026-05-26T09:02:30.000Z</time>
      </trkpt>
      <trkpt lat="44.65466" lon="5.04953">
        <ele>637</ele>
        <time>2026-05-26T09:02:31.000Z</time>
      </trkpt>
      <trkpt lat="44.65467" lon="5.04952">
        <ele>638</ele>
        <time>2026-05-26T09:02:32.000Z</time>
      </trkpt>
      <trkpt lat="44.65468" lon="5.04952">
        <ele>638</ele>
        <time>2026-05-26T09:02:33.000Z</time>
      </trkpt>
      <trkpt lat="44.65468" lon="5.04951">
        <ele>638</ele>
        <time>2026-05-26T09:02:34.000Z</time>
      </trkpt>
      <trkpt lat="44.65469" lon="5.04951">
        <ele>638</ele>
        <time>2026-05-26T09:02:35.000Z</time>
      </trkpt>
      <trkpt lat="44.65469" lon="5.04952">
        <ele>639</ele>
        <time>2026-05-26T09:02:36.000Z</time>
      </trkpt>
      <trkpt lat="44.6547" lon="5.04952">
        <ele>639</ele>
        <time>2026-05-26T09:02:37.000Z</time>
      </trkpt>
      <trkpt lat="44.65471" lon="5.04952">
        <ele>639</ele>
        <time>2026-05-26T09:02:38.000Z</time>
      </trkpt>
      <trkpt lat="44.65471" lon="5.04952">
        <ele>639</ele>
        <time>2026-05-26T09:02:39.000Z</time>
      </trkpt>
      <trkpt lat="44.65471" lon="5.04951">
        <ele>639</ele>
        <time>2026-05-26T09:02:40.000Z</time>
      </trkpt>
      <trkpt lat="44.65472" lon="5.0495">
        <ele>639</ele>
        <time>2026-05-26T09:02:41.000Z</time>
      </trkpt>
      <trkpt lat="44.65473" lon="5.0495">
        <ele>639</ele>
        <time>2026-05-26T09:02:42.000Z</time>
      </trkpt>
      <trkpt lat="44.65474" lon="5.04949">
        <ele>640</ele>
        <time>2026-05-26T09:02:43.000Z</time>
      </trkpt>
      <trkpt lat="44.65474" lon="5.04949">
        <ele>640</ele>
        <time>2026-05-26T09:02:44.000Z</time>
      </trkpt>
      <trkpt lat="44.65475" lon="5.04949">
        <ele>640</ele>
        <time>2026-05-26T09:02:45.000Z</time>
      </trkpt>
      <trkpt lat="44.65475" lon="5.0495">
        <ele>639</ele>
        <time>2026-05-26T09:02:46.000Z</time>
      </trkpt>
      <trkpt lat="44.65474" lon="5.0495">
        <ele>639</ele>
        <time>2026-05-26T09:02:47.000Z</time>
      </trkpt>
      <trkpt lat="44.65474" lon="5.04951">
        <ele>639</ele>
        <time>2026-05-26T09:02:48.000Z</time>
      </trkpt>
      <trkpt lat="44.65474" lon="5.04951">
        <ele>639</ele>
        <time>2026-05-26T09:02:49.000Z</time>
      </trkpt>
      <trkpt lat="44.65475" lon="5.0495">
        <ele>641</ele>
        <time>2026-05-26T09:02:50.000Z</time>
      </trkpt>
      <trkpt lat="44.65475" lon="5.0495">
        <ele>641</ele>
        <time>2026-05-26T09:02:51.000Z</time>
      </trkpt>
      <trkpt lat="44.65476" lon="5.0495">
        <ele>642</ele>
        <time>2026-05-26T09:02:52.000Z</time>
      </trkpt>
      <trkpt lat="44.65476" lon="5.0495">
        <ele>643</ele>
        <time>2026-05-26T09:02:53.000Z</time>
      </trkpt>
      <trkpt lat="44.65476" lon="5.0495">
        <ele>643</ele>
        <time>2026-05-26T09:02:54.000Z</time>
      </trkpt>
      <trkpt lat="44.65476" lon="5.0495">
        <ele>643</ele>
        <time>2026-05-26T09:02:55.000Z</time>
      </trkpt>
      <trkpt lat="44.65476" lon="5.04949">
        <ele>642</ele>
        <time>2026-05-26T09:02:56.000Z</time>
      </trkpt>
      <trkpt lat="44.65477" lon="5.0495">
        <ele>642</ele>
        <time>2026-05-26T09:02:57.000Z</time>
      </trkpt>
      <trkpt lat="44.65479" lon="5.04949">
        <ele>642</ele>
        <time>2026-05-26T09:02:58.000Z</time>
      </trkpt>
      <trkpt lat="44.65481" lon="5.04948">
        <ele>643</ele>
        <time>2026-05-26T09:02:59.000Z</time>
      </trkpt>
      <trkpt lat="44.65483" lon="5.04948">
        <ele>643</ele>
        <time>2026-05-26T09:03:00.000Z</time>
      </trkpt>
      <trkpt lat="44.65483" lon="5.04946">
        <ele>643</ele>
        <time>2026-05-26T09:03:01.000Z</time>
      </trkpt>
      <trkpt lat="44.65483" lon="5.04946">
        <ele>643</ele>
        <time>2026-05-26T09:03:02.000Z</time>
      </trkpt>
      <trkpt lat="44.65483" lon="5.04945">
        <ele>643</ele>
        <time>2026-05-26T09:03:03.000Z</time>
      </trkpt>
      <trkpt lat="44.65484" lon="5.04944">
        <ele>643</ele>
        <time>2026-05-26T09:03:04.000Z</time>
      </trkpt>
      <trkpt lat="44.65485" lon="5.04943">
        <ele>643</ele>
        <time>2026-05-26T09:03:05.000Z</time>
      </trkpt>
      <trkpt lat="44.65485" lon="5.04944">
        <ele>644</ele>
        <time>2026-05-26T09:03:06.000Z</time>
      </trkpt>
      <trkpt lat="44.65483" lon="5.04944">
        <ele>645</ele>
        <time>2026-05-26T09:03:07.000Z</time>
      </trkpt>
      <trkpt lat="44.65483" lon="5.04943">
        <ele>645</ele>
        <time>2026-05-26T09:03:08.000Z</time>
      </trkpt>
      <trkpt lat="44.65483" lon="5.04943">
        <ele>646</ele>
        <time>2026-05-26T09:03:09.000Z</time>
      </trkpt>
      <trkpt lat="44.65483" lon="5.04943">
        <ele>646</ele>
        <time>2026-05-26T09:03:10.000Z</time>
      </trkpt>
      <trkpt lat="44.65484" lon="5.04943">
        <ele>646</ele>
        <time>2026-05-26T09:03:11.000Z</time>
      </trkpt>
      <trkpt lat="44.65484" lon="5.04943">
        <ele>646</ele>
        <time>2026-05-26T09:03:12.000Z</time>
      </trkpt>
      <trkpt lat="44.65485" lon="5.04942">
        <ele>647</ele>
        <time>2026-05-26T09:03:13.000Z</time>
      </trkpt>
      <trkpt lat="44.65486" lon="5.0494">
        <ele>647</ele>
        <time>2026-05-26T09:03:14.000Z</time>
      </trkpt>
      <trkpt lat="44.65487" lon="5.0494">
        <ele>647</ele>
        <time>2026-05-26T09:03:15.000Z</time>
      </trkpt>
      <trkpt lat="44.65487" lon="5.04939">
        <ele>648</ele>
        <time>2026-05-26T09:03:16.000Z</time>
      </trkpt>
      <trkpt lat="44.65488" lon="5.04938">
        <ele>648</ele>
        <time>2026-05-26T09:03:17.000Z</time>
      </trkpt>
      <trkpt lat="44.65489" lon="5.04938">
        <ele>647</ele>
        <time>2026-05-26T09:03:18.000Z</time>
      </trkpt>
      <trkpt lat="44.6549" lon="5.04938">
        <ele>647</ele>
        <time>2026-05-26T09:03:19.000Z</time>
      </trkpt>
      <trkpt lat="44.65491" lon="5.04937">
        <ele>647</ele>
        <time>2026-05-26T09:03:20.000Z</time>
      </trkpt>
      <trkpt lat="44.65491" lon="5.04935">
        <ele>647</ele>
        <time>2026-05-26T09:03:21.000Z</time>
      </trkpt>
      <trkpt lat="44.65492" lon="5.04934">
        <ele>647</ele>
        <time>2026-05-26T09:03:22.000Z</time>
      </trkpt>
      <trkpt lat="44.65491" lon="5.04933">
        <ele>648</ele>
        <time>2026-05-26T09:03:23.000Z</time>
      </trkpt>
      <trkpt lat="44.65491" lon="5.04933">
        <ele>648</ele>
        <time>2026-05-26T09:03:24.000Z</time>
      </trkpt>
      <trkpt lat="44.65492" lon="5.04933">
        <ele>649</ele>
        <time>2026-05-26T09:03:25.000Z</time>
      </trkpt>
      <trkpt lat="44.65492" lon="5.04933">
        <ele>649</ele>
        <time>2026-05-26T09:03:26.000Z</time>
      </trkpt>
      <trkpt lat="44.65491" lon="5.04932">
        <ele>648</ele>
        <time>2026-05-26T09:03:27.000Z</time>
      </trkpt>
      <trkpt lat="44.65492" lon="5.04931">
        <ele>648</ele>
        <time>2026-05-26T09:03:28.000Z</time>
      </trkpt>
      <trkpt lat="44.65492" lon="5.04931">
        <ele>648</ele>
        <time>2026-05-26T09:03:29.000Z</time>
      </trkpt>
      <trkpt lat="44.65493" lon="5.0493">
        <ele>649</ele>
        <time>2026-05-26T09:03:30.000Z</time>
      </trkpt>
      <trkpt lat="44.65494" lon="5.0493">
        <ele>649</ele>
        <time>2026-05-26T09:03:31.000Z</time>
      </trkpt>
      <trkpt lat="44.65495" lon="5.0493">
        <ele>649</ele>
        <time>2026-05-26T09:03:32.000Z</time>
      </trkpt>
      <trkpt lat="44.65496" lon="5.0493">
        <ele>648</ele>
        <time>2026-05-26T09:03:33.000Z</time>
      </trkpt>
      <trkpt lat="44.65496" lon="5.04931">
        <ele>648</ele>
        <time>2026-05-26T09:03:34.000Z</time>
      </trkpt>
      <trkpt lat="44.65497" lon="5.0493">
        <ele>649</ele>
        <time>2026-05-26T09:03:35.000Z</time>
      </trkpt>
      <trkpt lat="44.65497" lon="5.04931">
        <ele>650</ele>
        <time>2026-05-26T09:03:36.000Z</time>
      </trkpt>
      <trkpt lat="44.65497" lon="5.04929">
        <ele>649</ele>
        <time>2026-05-26T09:03:37.000Z</time>
      </trkpt>
      <trkpt lat="44.65497" lon="5.04929">
        <ele>650</ele>
        <time>2026-05-26T09:03:38.000Z</time>
      </trkpt>
      <trkpt lat="44.65497" lon="5.04929">
        <ele>649</ele>
        <time>2026-05-26T09:03:39.000Z</time>
      </trkpt>
      <trkpt lat="44.65497" lon="5.04928">
        <ele>651</ele>
        <time>2026-05-26T09:03:40.000Z</time>
      </trkpt>
      <trkpt lat="44.65497" lon="5.04927">
        <ele>650</ele>
        <time>2026-05-26T09:03:41.000Z</time>
      </trkpt>
      <trkpt lat="44.65496" lon="5.04927">
        <ele>651</ele>
        <time>2026-05-26T09:03:42.000Z</time>
      </trkpt>
      <trkpt lat="44.65496" lon="5.04927">
        <ele>651</ele>
        <time>2026-05-26T09:03:43.000Z</time>
      </trkpt>
      <trkpt lat="44.65496" lon="5.04927">
        <ele>652</ele>
        <time>2026-05-26T09:03:44.000Z</time>
      </trkpt>
      <trkpt lat="44.65497" lon="5.04926">
        <ele>652</ele>
        <time>2026-05-26T09:03:45.000Z</time>
      </trkpt>
      <trkpt lat="44.65498" lon="5.04924">
        <ele>652</ele>
        <time>2026-05-26T09:03:46.000Z</time>
      </trkpt>
      <trkpt lat="44.65498" lon="5.04924">
        <ele>652</ele>
        <time>2026-05-26T09:03:47.000Z</time>
      </trkpt>
      <trkpt lat="44.65498" lon="5.04923">
        <ele>652</ele>
        <time>2026-05-26T09:03:48.000Z</time>
      </trkpt>
      <trkpt lat="44.65499" lon="5.04923">
        <ele>653</ele>
        <time>2026-05-26T09:03:49.000Z</time>
      </trkpt>
      <trkpt lat="44.655" lon="5.04922">
        <ele>653</ele>
        <time>2026-05-26T09:03:50.000Z</time>
      </trkpt>
      <trkpt lat="44.65501" lon="5.04923">
        <ele>654</ele>
        <time>2026-05-26T09:03:51.000Z</time>
      </trkpt>
      <trkpt lat="44.65502" lon="5.04921">
        <ele>655</ele>
        <time>2026-05-26T09:03:52.000Z</time>
      </trkpt>
      <trkpt lat="44.65502" lon="5.04921">
        <ele>656</ele>
        <time>2026-05-26T09:03:53.000Z</time>
      </trkpt>
      <trkpt lat="44.65502" lon="5.04921">
        <ele>655</ele>
        <time>2026-05-26T09:03:54.000Z</time>
      </trkpt>
      <trkpt lat="44.65502" lon="5.04921">
        <ele>656</ele>
        <time>2026-05-26T09:03:55.000Z</time>
      </trkpt>
      <trkpt lat="44.65502" lon="5.04919">
        <ele>656</ele>
        <time>2026-05-26T09:03:56.000Z</time>
      </trkpt>
      <trkpt lat="44.65503" lon="5.04919">
        <ele>657</ele>
        <time>2026-05-26T09:03:57.000Z</time>
      </trkpt>
      <trkpt lat="44.65504" lon="5.0492">
        <ele>657</ele>
        <time>2026-05-26T09:03:58.000Z</time>
      </trkpt>
      <trkpt lat="44.65505" lon="5.0492">
        <ele>657</ele>
        <time>2026-05-26T09:03:59.000Z</time>
      </trkpt>
      <trkpt lat="44.65505" lon="5.04921">
        <ele>657</ele>
        <time>2026-05-26T09:04:00.000Z</time>
      </trkpt>
      <trkpt lat="44.65505" lon="5.0492">
        <ele>657</ele>
        <time>2026-05-26T09:04:01.000Z</time>
      </trkpt>
      <trkpt lat="44.65506" lon="5.0492">
        <ele>657</ele>
        <time>2026-05-26T09:04:02.000Z</time>
      </trkpt>
      <trkpt lat="44.65507" lon="5.04918">
        <ele>656</ele>
        <time>2026-05-26T09:04:03.000Z</time>
      </trkpt>
      <trkpt lat="44.65506" lon="5.04918">
        <ele>656</ele>
        <time>2026-05-26T09:04:04.000Z</time>
      </trkpt>
      <trkpt lat="44.65505" lon="5.04918">
        <ele>655</ele>
        <time>2026-05-26T09:04:05.000Z</time>
      </trkpt>
      <trkpt lat="44.65505" lon="5.04918">
        <ele>656</ele>
        <time>2026-05-26T09:04:06.000Z</time>
      </trkpt>
      <trkpt lat="44.65506" lon="5.04917">
        <ele>658</ele>
        <time>2026-05-26T09:04:07.000Z</time>
      </trkpt>
      <trkpt lat="44.65506" lon="5.04917">
        <ele>658</ele>
        <time>2026-05-26T09:04:08.000Z</time>
      </trkpt>
      <trkpt lat="44.65506" lon="5.04917">
        <ele>658</ele>
        <time>2026-05-26T09:04:09.000Z</time>
      </trkpt>
      <trkpt lat="44.65506" lon="5.04917">
        <ele>658</ele>
        <time>2026-05-26T09:04:10.000Z</time>
      </trkpt>
      <trkpt lat="44.65506" lon="5.04917">
        <ele>658</ele>
        <time>2026-05-26T09:04:11.000Z</time>
      </trkpt>
      <trkpt lat="44.65506" lon="5.04917">
        <ele>658</ele>
        <time>2026-05-26T09:04:12.000Z</time>
      </trkpt>
      <trkpt lat="44.65506" lon="5.04917">
        <ele>658</ele>
        <time>2026-05-26T09:04:13.000Z</time>
      </trkpt>
      <trkpt lat="44.65506" lon="5.04917">
        <ele>658</ele>
        <time>2026-05-26T09:04:14.000Z</time>
      </trkpt>
      <trkpt lat="44.65506" lon="5.04917">
        <ele>658</ele>
        <time>2026-05-26T09:04:15.000Z</time>
      </trkpt>
      <trkpt lat="44.65506" lon="5.04917">
        <ele>658</ele>
        <time>2026-05-26T09:04:16.000Z</time>
      </trkpt>
      <trkpt lat="44.65506" lon="5.04917">
        <ele>658</ele>
        <time>2026-05-26T09:04:17.000Z</time>
      </trkpt>
      <trkpt lat="44.65506" lon="5.04917">
        <ele>658</ele>
        <time>2026-05-26T09:04:18.000Z</time>
      </trkpt>
      <trkpt lat="44.65506" lon="5.04917">
        <ele>658</ele>
        <time>2026-05-26T09:04:19.000Z</time>
      </trkpt>
      <trkpt lat="44.65506" lon="5.04917">
        <ele>658</ele>
        <time>2026-05-26T09:04:20.000Z</time>
      </trkpt>
      <trkpt lat="44.65506" lon="5.04917">
        <ele>658</ele>
        <time>2026-05-26T09:04:21.000Z</time>
      </trkpt>
      <trkpt lat="44.65506" lon="5.04917">
        <ele>658</ele>
        <time>2026-05-26T09:04:22.000Z</time>
      </trkpt>
      <trkpt lat="44.65506" lon="5.04917">
        <ele>658</ele>
        <time>2026-05-26T09:04:23.000Z</time>
      </trkpt>
      <trkpt lat="44.65506" lon="5.04917">
        <ele>658</ele>
        <time>2026-05-26T09:04:24.000Z</time>
      </trkpt>
      <trkpt lat="44.65506" lon="5.04917">
        <ele>658</ele>
        <time>2026-05-26T09:04:25.000Z</time>
      </trkpt>
      <trkpt lat="44.65506" lon="5.04917">
        <ele>658</ele>
        <time>2026-05-26T09:04:26.000Z</time>
      </trkpt>
      <trkpt lat="44.65506" lon="5.04917">
        <ele>658</ele>
        <time>2026-05-26T09:04:27.000Z</time>
      </trkpt>
      <trkpt lat="44.65506" lon="5.04917">
        <ele>658</ele>
        <time>2026-05-26T09:04:28.000Z</time>
      </trkpt>
      <trkpt lat="44.65506" lon="5.04917">
        <ele>658</ele>
        <time>2026-05-26T09:04:29.000Z</time>
      </trkpt>
      <trkpt lat="44.65506" lon="5.04917">
        <ele>658</ele>
        <time>2026-05-26T09:04:30.000Z</time>
      </trkpt>
      <trkpt lat="44.65506" lon="5.04917">
        <ele>658</ele>
        <time>2026-05-26T09:04:31.000Z</time>
      </trkpt>
      <trkpt lat="44.65506" lon="5.04917">
        <ele>658</ele>
        <time>2026-05-26T09:04:32.000Z</time>
      </trkpt>
      <trkpt lat="44.65506" lon="5.04917">
        <ele>658</ele>
        <time>2026-05-26T09:04:33.000Z</time>
      </trkpt>
      <trkpt lat="44.65506" lon="5.04917">
        <ele>658</ele>
        <time>2026-05-26T09:04:34.000Z</time>
      </trkpt>
      <trkpt lat="44.65506" lon="5.04917">
        <ele>658</ele>
        <time>2026-05-26T09:04:35.000Z</time>
      </trkpt>
      <trkpt lat="44.65506" lon="5.04917">
        <ele>658</ele>
        <time>2026-05-26T09:04:36.000Z</time>
      </trkpt>
      <trkpt lat="44.65506" lon="5.04917">
        <ele>658</ele>
        <time>2026-05-26T09:04:37.000Z</time>
      </trkpt>
      <trkpt lat="44.65506" lon="5.04917">
        <ele>658</ele>
        <time>2026-05-26T09:04:38.000Z</time>
      </trkpt>
      <trkpt lat="44.65506" lon="5.04917">
        <ele>658</ele>
        <time>2026-05-26T09:04:39.000Z</time>
      </trkpt>
      <trkpt lat="44.65506" lon="5.04917">
        <ele>658</ele>
        <time>2026-05-26T09:04:40.000Z</time>
      </trkpt>
      <trkpt lat="44.65506" lon="5.04917">
        <ele>658</ele>
        <time>2026-05-26T09:04:41.000Z</time>
      </trkpt>
      <trkpt lat="44.65506" lon="5.04917">
        <ele>658</ele>
        <time>2026-05-26T09:04:42.000Z</time>
      </trkpt>
      <trkpt lat="44.65506" lon="5.04917">
        <ele>658</ele>
        <time>2026-05-26T09:04:43.000Z</time>
      </trkpt>
      <trkpt lat="44.65506" lon="5.04917">
        <ele>658</ele>
        <time>2026-05-26T09:04:44.000Z</time>
      </trkpt>
      <trkpt lat="44.65506" lon="5.04917">
        <ele>658</ele>
        <time>2026-05-26T09:04:45.000Z</time>
      </trkpt>
      <trkpt lat="44.65506" lon="5.04917">
        <ele>658</ele>
        <time>2026-05-26T09:04:46.000Z</time>
      </trkpt>
      <trkpt lat="44.65506" lon="5.04917">
        <ele>658</ele>
        <time>2026-05-26T09:04:47.000Z</time>
      </trkpt>
      <trkpt lat="44.65506" lon="5.04917">
        <ele>658</ele>
        <time>2026-05-26T09:04:48.000Z</time>
      </trkpt>
      <trkpt lat="44.65506" lon="5.04917">
        <ele>658</ele>
        <time>2026-05-26T09:04:49.000Z</time>
      </trkpt>
      <trkpt lat="44.65506" lon="5.04917">
        <ele>658</ele>
        <time>2026-05-26T09:04:50.000Z</time>
      </trkpt>
      <trkpt lat="44.65506" lon="5.04917">
        <ele>658</ele>
        <time>2026-05-26T09:04:51.000Z</time>
      </trkpt>
      <trkpt lat="44.65506" lon="5.04917">
        <ele>658</ele>
        <time>2026-05-26T09:04:52.000Z</time>
      </trkpt>
      <trkpt lat="44.65506" lon="5.04917">
        <ele>658</ele>
        <time>2026-05-26T09:04:53.000Z</time>
      </trkpt>
      <trkpt lat="44.65506" lon="5.04917">
        <ele>658</ele>
        <time>2026-05-26T09:04:54.000Z</time>
      </trkpt>
      <trkpt lat="44.65506" lon="5.04917">
        <ele>658</ele>
        <time>2026-05-26T09:04:55.000Z</time>
      </trkpt>
      <trkpt lat="44.65506" lon="5.04917">
        <ele>658</ele>
        <time>2026-05-26T09:04:56.000Z</time>
      </trkpt>
      <trkpt lat="44.65506" lon="5.04917">
        <ele>658</ele>
        <time>2026-05-26T09:04:57.000Z</time>
      </trkpt>
      <trkpt lat="44.65506" lon="5.04917">
        <ele>658</ele>
        <time>2026-05-26T09:04:58.000Z</time>
      </trkpt>
      <trkpt lat="44.65506" lon="5.04917">
        <ele>658</ele>
        <time>2026-05-26T09:04:59.000Z</time>
      </trkpt>
      <trkpt lat="44.65506" lon="5.04917">
        <ele>658</ele>
        <time>2026-05-26T09:05:00.000Z</time>
      </trkpt>
      <trkpt lat="44.65506" lon="5.04917">
        <ele>658</ele>
        <time>2026-05-26T09:05:01.000Z</time>
      </trkpt>
      <trkpt lat="44.65506" lon="5.04917">
        <ele>658</ele>
        <time>2026-05-26T09:05:02.000Z</time>
      </trkpt>
      <trkpt lat="44.65506" lon="5.04917">
        <ele>658</ele>
        <time>2026-05-26T09:05:03.000Z</time>
      </trkpt>
      <trkpt lat="44.65506" lon="5.04917">
        <ele>658</ele>
        <time>2026-05-26T09:05:04.000Z</time>
      </trkpt>
      <trkpt lat="44.65506" lon="5.04917">
        <ele>658</ele>
        <time>2026-05-26T09:05:05.000Z</time>
      </trkpt>
      <trkpt lat="44.65506" lon="5.04917">
        <ele>658</ele>
        <time>2026-05-26T09:05:06.000Z</time>
      </trkpt>
      <trkpt lat="44.65506" lon="5.04917">
        <ele>658</ele>
        <time>2026-05-26T09:05:07.000Z</time>
      </trkpt>
      <trkpt lat="44.65506" lon="5.04917">
        <ele>658</ele>
        <time>2026-05-26T09:05:08.000Z</time>
      </trkpt>
      <trkpt lat="44.65506" lon="5.04917">
        <ele>658</ele>
        <time>2026-05-26T09:05:09.000Z</time>
      </trkpt>
      <trkpt lat="44.65506" lon="5.04917">
        <ele>658</ele>
        <time>2026-05-26T09:05:10.000Z</time>
      </trkpt>
      <trkpt lat="44.65506" lon="5.04917">
        <ele>658</ele>
        <time>2026-05-26T09:05:11.000Z</time>
      </trkpt>
      <trkpt lat="44.65506" lon="5.04917">
        <ele>658</ele>
        <time>2026-05-26T09:05:12.000Z</time>
      </trkpt>
      <trkpt lat="44.65508" lon="5.04915">
        <ele>659</ele>
        <time>2026-05-26T09:05:13.000Z</time>
      </trkpt>
      <trkpt lat="44.65507" lon="5.04915">
        <ele>659</ele>
        <time>2026-05-26T09:05:14.000Z</time>
      </trkpt>
      <trkpt lat="44.65506" lon="5.04915">
        <ele>659</ele>
        <time>2026-05-26T09:05:15.000Z</time>
      </trkpt>
      <trkpt lat="44.65505" lon="5.04916">
        <ele>660</ele>
        <time>2026-05-26T09:05:16.000Z</time>
      </trkpt>
      <trkpt lat="44.65505" lon="5.04918">
        <ele>660</ele>
        <time>2026-05-26T09:05:17.000Z</time>
      </trkpt>
      <trkpt lat="44.65504" lon="5.04918">
        <ele>661</ele>
        <time>2026-05-26T09:05:18.000Z</time>
      </trkpt>
      <trkpt lat="44.65503" lon="5.04919">
        <ele>661</ele>
        <time>2026-05-26T09:05:19.000Z</time>
      </trkpt>
      <trkpt lat="44.65505" lon="5.04918">
        <ele>661</ele>
        <time>2026-05-26T09:05:20.000Z</time>
      </trkpt>
      <trkpt lat="44.65506" lon="5.04918">
        <ele>662</ele>
        <time>2026-05-26T09:05:21.000Z</time>
      </trkpt>
      <trkpt lat="44.65508" lon="5.04918">
        <ele>662</ele>
        <time>2026-05-26T09:05:22.000Z</time>
      </trkpt>
      <trkpt lat="44.6551" lon="5.04917">
        <ele>663</ele>
        <time>2026-05-26T09:05:23.000Z</time>
      </trkpt>
      <trkpt lat="44.65511" lon="5.04917">
        <ele>662</ele>
        <time>2026-05-26T09:05:24.000Z</time>
      </trkpt>
      <trkpt lat="44.65512" lon="5.04914">
        <ele>663</ele>
        <time>2026-05-26T09:05:25.000Z</time>
      </trkpt>
      <trkpt lat="44.65512" lon="5.04915">
        <ele>662</ele>
        <time>2026-05-26T09:05:26.000Z</time>
      </trkpt>
      <trkpt lat="44.65512" lon="5.04913">
        <ele>663</ele>
        <time>2026-05-26T09:05:27.000Z</time>
      </trkpt>
      <trkpt lat="44.65514" lon="5.04913">
        <ele>663</ele>
        <time>2026-05-26T09:05:28.000Z</time>
      </trkpt>
      <trkpt lat="44.65515" lon="5.04912">
        <ele>662</ele>
        <time>2026-05-26T09:05:29.000Z</time>
      </trkpt>
      <trkpt lat="44.65517" lon="5.04912">
        <ele>662</ele>
        <time>2026-05-26T09:05:30.000Z</time>
      </trkpt>
      <trkpt lat="44.65517" lon="5.04912">
        <ele>661</ele>
        <time>2026-05-26T09:05:31.000Z</time>
      </trkpt>
      <trkpt lat="44.65518" lon="5.04912">
        <ele>661</ele>
        <time>2026-05-26T09:05:32.000Z</time>
      </trkpt>
      <trkpt lat="44.6552" lon="5.04913">
        <ele>662</ele>
        <time>2026-05-26T09:05:33.000Z</time>
      </trkpt>
      <trkpt lat="44.6552" lon="5.04913">
        <ele>662</ele>
        <time>2026-05-26T09:05:34.000Z</time>
      </trkpt>
      <trkpt lat="44.65521" lon="5.04913">
        <ele>662</ele>
        <time>2026-05-26T09:05:35.000Z</time>
      </trkpt>
      <trkpt lat="44.65522" lon="5.04913">
        <ele>662</ele>
        <time>2026-05-26T09:05:36.000Z</time>
      </trkpt>
      <trkpt lat="44.65523" lon="5.04913">
        <ele>662</ele>
        <time>2026-05-26T09:05:37.000Z</time>
      </trkpt>
      <trkpt lat="44.65524" lon="5.04912">
        <ele>662</ele>
        <time>2026-05-26T09:05:38.000Z</time>
      </trkpt>
      <trkpt lat="44.65524" lon="5.04911">
        <ele>662</ele>
        <time>2026-05-26T09:05:39.000Z</time>
      </trkpt>
      <trkpt lat="44.65525" lon="5.04911">
        <ele>662</ele>
        <time>2026-05-26T09:05:40.000Z</time>
      </trkpt>
      <trkpt lat="44.65526" lon="5.0491">
        <ele>662</ele>
        <time>2026-05-26T09:05:41.000Z</time>
      </trkpt>
      <trkpt lat="44.65527" lon="5.0491">
        <ele>662</ele>
        <time>2026-05-26T09:05:42.000Z</time>
      </trkpt>
      <trkpt lat="44.65528" lon="5.0491">
        <ele>662</ele>
        <time>2026-05-26T09:05:43.000Z</time>
      </trkpt>
      <trkpt lat="44.65528" lon="5.0491">
        <ele>661</ele>
        <time>2026-05-26T09:05:44.000Z</time>
      </trkpt>
      <trkpt lat="44.65529" lon="5.0491">
        <ele>661</ele>
        <time>2026-05-26T09:05:45.000Z</time>
      </trkpt>
      <trkpt lat="44.65529" lon="5.0491">
        <ele>662</ele>
        <time>2026-05-26T09:05:46.000Z</time>
      </trkpt>
      <trkpt lat="44.6553" lon="5.0491">
        <ele>661</ele>
        <time>2026-05-26T09:05:47.000Z</time>
      </trkpt>
      <trkpt lat="44.6553" lon="5.0491">
        <ele>661</ele>
        <time>2026-05-26T09:05:48.000Z</time>
      </trkpt>
      <trkpt lat="44.6553" lon="5.0491">
        <ele>661</ele>
        <time>2026-05-26T09:05:49.000Z</time>
      </trkpt>
      <trkpt lat="44.6553" lon="5.04909">
        <ele>661</ele>
        <time>2026-05-26T09:05:50.000Z</time>
      </trkpt>
      <trkpt lat="44.6553" lon="5.04909">
        <ele>662</ele>
        <time>2026-05-26T09:05:51.000Z</time>
      </trkpt>
      <trkpt lat="44.65531" lon="5.04909">
        <ele>662</ele>
        <time>2026-05-26T09:05:52.000Z</time>
      </trkpt>
      <trkpt lat="44.6553" lon="5.04909">
        <ele>662</ele>
        <time>2026-05-26T09:05:53.000Z</time>
      </trkpt>
      <trkpt lat="44.6553" lon="5.04909">
        <ele>662</ele>
        <time>2026-05-26T09:05:54.000Z</time>
      </trkpt>
      <trkpt lat="44.65531" lon="5.04907">
        <ele>663</ele>
        <time>2026-05-26T09:05:55.000Z</time>
      </trkpt>
      <trkpt lat="44.65532" lon="5.04907">
        <ele>663</ele>
        <time>2026-05-26T09:05:56.000Z</time>
      </trkpt>
      <trkpt lat="44.65533" lon="5.04905">
        <ele>664</ele>
        <time>2026-05-26T09:05:57.000Z</time>
      </trkpt>
      <trkpt lat="44.65532" lon="5.04903">
        <ele>664</ele>
        <time>2026-05-26T09:05:58.000Z</time>
      </trkpt>
      <trkpt lat="44.65531" lon="5.04902">
        <ele>664</ele>
        <time>2026-05-26T09:05:59.000Z</time>
      </trkpt>
      <trkpt lat="44.65531" lon="5.04903">
        <ele>665</ele>
        <time>2026-05-26T09:06:00.000Z</time>
      </trkpt>
      <trkpt lat="44.65532" lon="5.04904">
        <ele>665</ele>
        <time>2026-05-26T09:06:01.000Z</time>
      </trkpt>
      <trkpt lat="44.65532" lon="5.04905">
        <ele>666</ele>
        <time>2026-05-26T09:06:02.000Z</time>
      </trkpt>
      <trkpt lat="44.65533" lon="5.04905">
        <ele>666</ele>
        <time>2026-05-26T09:06:03.000Z</time>
      </trkpt>
      <trkpt lat="44.65533" lon="5.04905">
        <ele>667</ele>
        <time>2026-05-26T09:06:04.000Z</time>
      </trkpt>
      <trkpt lat="44.65534" lon="5.04904">
        <ele>667</ele>
        <time>2026-05-26T09:06:05.000Z</time>
      </trkpt>
      <trkpt lat="44.65535" lon="5.04904">
        <ele>667</ele>
        <time>2026-05-26T09:06:06.000Z</time>
      </trkpt>
      <trkpt lat="44.65537" lon="5.04904">
        <ele>666</ele>
        <time>2026-05-26T09:06:07.000Z</time>
      </trkpt>
      <trkpt lat="44.65538" lon="5.04902">
        <ele>667</ele>
        <time>2026-05-26T09:06:08.000Z</time>
      </trkpt>
      <trkpt lat="44.65539" lon="5.04901">
        <ele>667</ele>
        <time>2026-05-26T09:06:09.000Z</time>
      </trkpt>
      <trkpt lat="44.6554" lon="5.04901">
        <ele>667</ele>
        <time>2026-05-26T09:06:10.000Z</time>
      </trkpt>
      <trkpt lat="44.6554" lon="5.04901">
        <ele>666</ele>
        <time>2026-05-26T09:06:11.000Z</time>
      </trkpt>
      <trkpt lat="44.6554" lon="5.049">
        <ele>667</ele>
        <time>2026-05-26T09:06:12.000Z</time>
      </trkpt>
      <trkpt lat="44.6554" lon="5.049">
        <ele>667</ele>
        <time>2026-05-26T09:06:13.000Z</time>
      </trkpt>
      <trkpt lat="44.6554" lon="5.049">
        <ele>667</ele>
        <time>2026-05-26T09:06:14.000Z</time>
      </trkpt>
      <trkpt lat="44.6554" lon="5.04899">
        <ele>667</ele>
        <time>2026-05-26T09:06:15.000Z</time>
      </trkpt>
      <trkpt lat="44.6554" lon="5.04899">
        <ele>667</ele>
        <time>2026-05-26T09:06:16.000Z</time>
      </trkpt>
      <trkpt lat="44.65541" lon="5.04899">
        <ele>668</ele>
        <time>2026-05-26T09:06:17.000Z</time>
      </trkpt>
      <trkpt lat="44.6554" lon="5.04899">
        <ele>669</ele>
        <time>2026-05-26T09:06:18.000Z</time>
      </trkpt>
      <trkpt lat="44.65541" lon="5.049">
        <ele>669</ele>
        <time>2026-05-26T09:06:19.000Z</time>
      </trkpt>
      <trkpt lat="44.65542" lon="5.049">
        <ele>670</ele>
        <time>2026-05-26T09:06:20.000Z</time>
      </trkpt>
      <trkpt lat="44.65542" lon="5.04901">
        <ele>670</ele>
        <time>2026-05-26T09:06:21.000Z</time>
      </trkpt>
      <trkpt lat="44.65542" lon="5.04901">
        <ele>670</ele>
        <time>2026-05-26T09:06:22.000Z</time>
      </trkpt>
      <trkpt lat="44.65542" lon="5.04901">
        <ele>671</ele>
        <time>2026-05-26T09:06:23.000Z</time>
      </trkpt>
      <trkpt lat="44.65542" lon="5.04901">
        <ele>671</ele>
        <time>2026-05-26T09:06:24.000Z</time>
      </trkpt>
      <trkpt lat="44.65541" lon="5.04901">
        <ele>671</ele>
        <time>2026-05-26T09:06:25.000Z</time>
      </trkpt>
      <trkpt lat="44.65542" lon="5.049">
        <ele>671</ele>
        <time>2026-05-26T09:06:26.000Z</time>
      </trkpt>
      <trkpt lat="44.65543" lon="5.04899">
        <ele>671</ele>
        <time>2026-05-26T09:06:27.000Z</time>
      </trkpt>
      <trkpt lat="44.65545" lon="5.049">
        <ele>671</ele>
        <time>2026-05-26T09:06:28.000Z</time>
      </trkpt>
      <trkpt lat="44.65546" lon="5.049">
        <ele>670</ele>
        <time>2026-05-26T09:06:29.000Z</time>
      </trkpt>
      <trkpt lat="44.65547" lon="5.04902">
        <ele>670</ele>
        <time>2026-05-26T09:06:30.000Z</time>
      </trkpt>
      <trkpt lat="44.65546" lon="5.04903">
        <ele>672</ele>
        <time>2026-05-26T09:06:31.000Z</time>
      </trkpt>
      <trkpt lat="44.65547" lon="5.04901">
        <ele>672</ele>
        <time>2026-05-26T09:06:32.000Z</time>
      </trkpt>
      <trkpt lat="44.65548" lon="5.04902">
        <ele>673</ele>
        <time>2026-05-26T09:06:33.000Z</time>
      </trkpt>
      <trkpt lat="44.6555" lon="5.04901">
        <ele>674</ele>
        <time>2026-05-26T09:06:34.000Z</time>
      </trkpt>
      <trkpt lat="44.65551" lon="5.049">
        <ele>675</ele>
        <time>2026-05-26T09:06:35.000Z</time>
      </trkpt>
      <trkpt lat="44.65551" lon="5.049">
        <ele>674</ele>
        <time>2026-05-26T09:06:36.000Z</time>
      </trkpt>
      <trkpt lat="44.65551" lon="5.049">
        <ele>675</ele>
        <time>2026-05-26T09:06:37.000Z</time>
      </trkpt>
      <trkpt lat="44.65551" lon="5.049">
        <ele>675</ele>
        <time>2026-05-26T09:06:38.000Z</time>
      </trkpt>
      <trkpt lat="44.65551" lon="5.04899">
        <ele>675</ele>
        <time>2026-05-26T09:06:39.000Z</time>
      </trkpt>
      <trkpt lat="44.65551" lon="5.049">
        <ele>675</ele>
        <time>2026-05-26T09:06:40.000Z</time>
      </trkpt>
      <trkpt lat="44.65551" lon="5.049">
        <ele>676</ele>
        <time>2026-05-26T09:06:41.000Z</time>
      </trkpt>
      <trkpt lat="44.65551" lon="5.04901">
        <ele>678</ele>
        <time>2026-05-26T09:06:42.000Z</time>
      </trkpt>
      <trkpt lat="44.65552" lon="5.04902">
        <ele>677</ele>
        <time>2026-05-26T09:06:43.000Z</time>
      </trkpt>
      <trkpt lat="44.65552" lon="5.04901">
        <ele>677</ele>
        <time>2026-05-26T09:06:44.000Z</time>
      </trkpt>
      <trkpt lat="44.65553" lon="5.049">
        <ele>676</ele>
        <time>2026-05-26T09:06:45.000Z</time>
      </trkpt>
      <trkpt lat="44.65553" lon="5.049">
        <ele>676</ele>
        <time>2026-05-26T09:06:46.000Z</time>
      </trkpt>
      <trkpt lat="44.65552" lon="5.04901">
        <ele>677</ele>
        <time>2026-05-26T09:06:47.000Z</time>
      </trkpt>
      <trkpt lat="44.65553" lon="5.04902">
        <ele>677</ele>
        <time>2026-05-26T09:06:48.000Z</time>
      </trkpt>
      <trkpt lat="44.65553" lon="5.04901">
        <ele>676</ele>
        <time>2026-05-26T09:06:49.000Z</time>
      </trkpt>
      <trkpt lat="44.65554" lon="5.04901">
        <ele>677</ele>
        <time>2026-05-26T09:06:50.000Z</time>
      </trkpt>
      <trkpt lat="44.65553" lon="5.049">
        <ele>677</ele>
        <time>2026-05-26T09:06:51.000Z</time>
      </trkpt>
      <trkpt lat="44.65552" lon="5.04899">
        <ele>677</ele>
        <time>2026-05-26T09:06:52.000Z</time>
      </trkpt>
      <trkpt lat="44.65552" lon="5.04896">
        <ele>679</ele>
        <time>2026-05-26T09:06:53.000Z</time>
      </trkpt>
      <trkpt lat="44.65552" lon="5.04896">
        <ele>679</ele>
        <time>2026-05-26T09:06:54.000Z</time>
      </trkpt>
      <trkpt lat="44.65551" lon="5.04896">
        <ele>680</ele>
        <time>2026-05-26T09:06:55.000Z</time>
      </trkpt>
      <trkpt lat="44.65549" lon="5.04897">
        <ele>681</ele>
        <time>2026-05-26T09:06:56.000Z</time>
      </trkpt>
      <trkpt lat="44.6555" lon="5.04897">
        <ele>683</ele>
        <time>2026-05-26T09:06:57.000Z</time>
      </trkpt>
      <trkpt lat="44.65551" lon="5.04897">
        <ele>683</ele>
        <time>2026-05-26T09:06:58.000Z</time>
      </trkpt>
      <trkpt lat="44.65552" lon="5.04897">
        <ele>684</ele>
        <time>2026-05-26T09:06:59.000Z</time>
      </trkpt>
      <trkpt lat="44.65554" lon="5.04897">
        <ele>683</ele>
        <time>2026-05-26T09:07:00.000Z</time>
      </trkpt>
      <trkpt lat="44.65556" lon="5.04896">
        <ele>682</ele>
        <time>2026-05-26T09:07:01.000Z</time>
      </trkpt>
      <trkpt lat="44.65558" lon="5.04897">
        <ele>683</ele>
        <time>2026-05-26T09:07:02.000Z</time>
      </trkpt>
      <trkpt lat="44.65559" lon="5.04897">
        <ele>683</ele>
        <time>2026-05-26T09:07:03.000Z</time>
      </trkpt>
      <trkpt lat="44.6556" lon="5.04896">
        <ele>682</ele>
        <time>2026-05-26T09:07:04.000Z</time>
      </trkpt>
      <trkpt lat="44.65561" lon="5.04897">
        <ele>683</ele>
        <time>2026-05-26T09:07:05.000Z</time>
      </trkpt>
      <trkpt lat="44.65562" lon="5.04897">
        <ele>683</ele>
        <time>2026-05-26T09:07:06.000Z</time>
      </trkpt>
      <trkpt lat="44.65562" lon="5.04897">
        <ele>683</ele>
        <time>2026-05-26T09:07:07.000Z</time>
      </trkpt>
      <trkpt lat="44.65562" lon="5.04897">
        <ele>684</ele>
        <time>2026-05-26T09:07:08.000Z</time>
      </trkpt>
      <trkpt lat="44.65563" lon="5.04896">
        <ele>684</ele>
        <time>2026-05-26T09:07:09.000Z</time>
      </trkpt>
      <trkpt lat="44.65563" lon="5.04895">
        <ele>684</ele>
        <time>2026-05-26T09:07:10.000Z</time>
      </trkpt>
      <trkpt lat="44.65563" lon="5.04895">
        <ele>683</ele>
        <time>2026-05-26T09:07:11.000Z</time>
      </trkpt>
      <trkpt lat="44.65563" lon="5.04894">
        <ele>682</ele>
        <time>2026-05-26T09:07:12.000Z</time>
      </trkpt>
      <trkpt lat="44.65563" lon="5.04894">
        <ele>682</ele>
        <time>2026-05-26T09:07:13.000Z</time>
      </trkpt>
      <trkpt lat="44.65564" lon="5.04893">
        <ele>682</ele>
        <time>2026-05-26T09:07:14.000Z</time>
      </trkpt>
      <trkpt lat="44.65564" lon="5.04892">
        <ele>684</ele>
        <time>2026-05-26T09:07:15.000Z</time>
      </trkpt>
      <trkpt lat="44.65566" lon="5.04892">
        <ele>685</ele>
        <time>2026-05-26T09:07:16.000Z</time>
      </trkpt>
      <trkpt lat="44.65567" lon="5.04892">
        <ele>685</ele>
        <time>2026-05-26T09:07:17.000Z</time>
      </trkpt>
      <trkpt lat="44.65567" lon="5.04892">
        <ele>685</ele>
        <time>2026-05-26T09:07:18.000Z</time>
      </trkpt>
      <trkpt lat="44.65568" lon="5.04892">
        <ele>685</ele>
        <time>2026-05-26T09:07:19.000Z</time>
      </trkpt>
      <trkpt lat="44.65568" lon="5.04892">
        <ele>684</ele>
        <time>2026-05-26T09:07:20.000Z</time>
      </trkpt>
      <trkpt lat="44.65568" lon="5.04893">
        <ele>684</ele>
        <time>2026-05-26T09:07:21.000Z</time>
      </trkpt>
      <trkpt lat="44.65567" lon="5.04892">
        <ele>683</ele>
        <time>2026-05-26T09:07:22.000Z</time>
      </trkpt>
      <trkpt lat="44.65569" lon="5.04892">
        <ele>681</ele>
        <time>2026-05-26T09:07:23.000Z</time>
      </trkpt>
      <trkpt lat="44.6557" lon="5.04892">
        <ele>681</ele>
        <time>2026-05-26T09:07:24.000Z</time>
      </trkpt>
      <trkpt lat="44.65572" lon="5.04892">
        <ele>681</ele>
        <time>2026-05-26T09:07:25.000Z</time>
      </trkpt>
      <trkpt lat="44.65573" lon="5.04891">
        <ele>681</ele>
        <time>2026-05-26T09:07:26.000Z</time>
      </trkpt>
      <trkpt lat="44.65574" lon="5.04892">
        <ele>682</ele>
        <time>2026-05-26T09:07:27.000Z</time>
      </trkpt>
      <trkpt lat="44.65575" lon="5.04891">
        <ele>681</ele>
        <time>2026-05-26T09:07:28.000Z</time>
      </trkpt>
      <trkpt lat="44.65576" lon="5.0489">
        <ele>682</ele>
        <time>2026-05-26T09:07:29.000Z</time>
      </trkpt>
      <trkpt lat="44.65577" lon="5.0489">
        <ele>681</ele>
        <time>2026-05-26T09:07:30.000Z</time>
      </trkpt>
      <trkpt lat="44.65577" lon="5.04889">
        <ele>682</ele>
        <time>2026-05-26T09:07:31.000Z</time>
      </trkpt>
      <trkpt lat="44.65577" lon="5.04889">
        <ele>681</ele>
        <time>2026-05-26T09:07:32.000Z</time>
      </trkpt>
      <trkpt lat="44.65577" lon="5.04888">
        <ele>681</ele>
        <time>2026-05-26T09:07:33.000Z</time>
      </trkpt>
      <trkpt lat="44.65578" lon="5.04888">
        <ele>681</ele>
        <time>2026-05-26T09:07:34.000Z</time>
      </trkpt>
      <trkpt lat="44.65579" lon="5.04888">
        <ele>683</ele>
        <time>2026-05-26T09:07:35.000Z</time>
      </trkpt>
      <trkpt lat="44.6558" lon="5.04889">
        <ele>683</ele>
        <time>2026-05-26T09:07:36.000Z</time>
      </trkpt>
      <trkpt lat="44.65581" lon="5.04889">
        <ele>683</ele>
        <time>2026-05-26T09:07:37.000Z</time>
      </trkpt>
      <trkpt lat="44.65582" lon="5.04887">
        <ele>683</ele>
        <time>2026-05-26T09:07:38.000Z</time>
      </trkpt>
      <trkpt lat="44.65582" lon="5.04886">
        <ele>683</ele>
        <time>2026-05-26T09:07:39.000Z</time>
      </trkpt>
      <trkpt lat="44.65582" lon="5.04884">
        <ele>683</ele>
        <time>2026-05-26T09:07:40.000Z</time>
      </trkpt>
      <trkpt lat="44.65581" lon="5.04883">
        <ele>683</ele>
        <time>2026-05-26T09:07:41.000Z</time>
      </trkpt>
      <trkpt lat="44.65581" lon="5.04882">
        <ele>683</ele>
        <time>2026-05-26T09:07:42.000Z</time>
      </trkpt>
      <trkpt lat="44.65581" lon="5.04883">
        <ele>684</ele>
        <time>2026-05-26T09:07:43.000Z</time>
      </trkpt>
      <trkpt lat="44.65582" lon="5.04881">
        <ele>684</ele>
        <time>2026-05-26T09:07:44.000Z</time>
      </trkpt>
      <trkpt lat="44.65583" lon="5.0488">
        <ele>684</ele>
        <time>2026-05-26T09:07:45.000Z</time>
      </trkpt>
      <trkpt lat="44.65585" lon="5.0488">
        <ele>685</ele>
        <time>2026-05-26T09:07:46.000Z</time>
      </trkpt>
      <trkpt lat="44.65586" lon="5.04881">
        <ele>684</ele>
        <time>2026-05-26T09:07:47.000Z</time>
      </trkpt>
      <trkpt lat="44.65586" lon="5.04881">
        <ele>685</ele>
        <time>2026-05-26T09:07:48.000Z</time>
      </trkpt>
      <trkpt lat="44.65587" lon="5.04882">
        <ele>684</ele>
        <time>2026-05-26T09:07:49.000Z</time>
      </trkpt>
      <trkpt lat="44.65588" lon="5.04883">
        <ele>684</ele>
        <time>2026-05-26T09:07:50.000Z</time>
      </trkpt>
      <trkpt lat="44.65588" lon="5.04883">
        <ele>686</ele>
        <time>2026-05-26T09:07:51.000Z</time>
      </trkpt>
      <trkpt lat="44.65588" lon="5.04882">
        <ele>686</ele>
        <time>2026-05-26T09:07:52.000Z</time>
      </trkpt>
      <trkpt lat="44.65587" lon="5.04883">
        <ele>686</ele>
        <time>2026-05-26T09:07:53.000Z</time>
      </trkpt>
      <trkpt lat="44.65588" lon="5.04882">
        <ele>687</ele>
        <time>2026-05-26T09:07:54.000Z</time>
      </trkpt>
      <trkpt lat="44.65586" lon="5.04883">
        <ele>687</ele>
        <time>2026-05-26T09:07:55.000Z</time>
      </trkpt>
      <trkpt lat="44.65586" lon="5.04881">
        <ele>688</ele>
        <time>2026-05-26T09:07:56.000Z</time>
      </trkpt>
      <trkpt lat="44.65586" lon="5.0488">
        <ele>688</ele>
        <time>2026-05-26T09:07:57.000Z</time>
      </trkpt>
      <trkpt lat="44.65587" lon="5.04877">
        <ele>689</ele>
        <time>2026-05-26T09:07:58.000Z</time>
      </trkpt>
      <trkpt lat="44.65588" lon="5.04877">
        <ele>689</ele>
        <time>2026-05-26T09:07:59.000Z</time>
      </trkpt>
      <trkpt lat="44.65589" lon="5.04877">
        <ele>689</ele>
        <time>2026-05-26T09:08:00.000Z</time>
      </trkpt>
      <trkpt lat="44.65589" lon="5.04876">
        <ele>690</ele>
        <time>2026-05-26T09:08:01.000Z</time>
      </trkpt>
      <trkpt lat="44.6559" lon="5.04876">
        <ele>689</ele>
        <time>2026-05-26T09:08:02.000Z</time>
      </trkpt>
      <trkpt lat="44.65591" lon="5.04875">
        <ele>690</ele>
        <time>2026-05-26T09:08:03.000Z</time>
      </trkpt>
      <trkpt lat="44.65592" lon="5.04874">
        <ele>690</ele>
        <time>2026-05-26T09:08:04.000Z</time>
      </trkpt>
      <trkpt lat="44.65592" lon="5.04874">
        <ele>691</ele>
        <time>2026-05-26T09:08:05.000Z</time>
      </trkpt>
      <trkpt lat="44.65593" lon="5.04873">
        <ele>691</ele>
        <time>2026-05-26T09:08:06.000Z</time>
      </trkpt>
      <trkpt lat="44.65593" lon="5.04873">
        <ele>691</ele>
        <time>2026-05-26T09:08:07.000Z</time>
      </trkpt>
      <trkpt lat="44.65594" lon="5.04872">
        <ele>692</ele>
        <time>2026-05-26T09:08:08.000Z</time>
      </trkpt>
      <trkpt lat="44.65595" lon="5.04871">
        <ele>691</ele>
        <time>2026-05-26T09:08:09.000Z</time>
      </trkpt>
      <trkpt lat="44.65595" lon="5.04871">
        <ele>691</ele>
        <time>2026-05-26T09:08:10.000Z</time>
      </trkpt>
      <trkpt lat="44.65595" lon="5.04869">
        <ele>691</ele>
        <time>2026-05-26T09:08:11.000Z</time>
      </trkpt>
      <trkpt lat="44.65595" lon="5.04869">
        <ele>692</ele>
        <time>2026-05-26T09:08:12.000Z</time>
      </trkpt>
      <trkpt lat="44.65595" lon="5.04869">
        <ele>692</ele>
        <time>2026-05-26T09:08:13.000Z</time>
      </trkpt>
      <trkpt lat="44.65595" lon="5.04869">
        <ele>691</ele>
        <time>2026-05-26T09:08:14.000Z</time>
      </trkpt>
      <trkpt lat="44.65595" lon="5.04869">
        <ele>691</ele>
        <time>2026-05-26T09:08:15.000Z</time>
      </trkpt>
      <trkpt lat="44.65595" lon="5.04867">
        <ele>691</ele>
        <time>2026-05-26T09:08:16.000Z</time>
      </trkpt>
      <trkpt lat="44.65594" lon="5.04866">
        <ele>691</ele>
        <time>2026-05-26T09:08:17.000Z</time>
      </trkpt>
      <trkpt lat="44.65595" lon="5.04865">
        <ele>692</ele>
        <time>2026-05-26T09:08:18.000Z</time>
      </trkpt>
      <trkpt lat="44.65595" lon="5.04865">
        <ele>692</ele>
        <time>2026-05-26T09:08:19.000Z</time>
      </trkpt>
      <trkpt lat="44.65596" lon="5.04864">
        <ele>692</ele>
        <time>2026-05-26T09:08:20.000Z</time>
      </trkpt>
      <trkpt lat="44.65596" lon="5.04863">
        <ele>692</ele>
        <time>2026-05-26T09:08:21.000Z</time>
      </trkpt>
      <trkpt lat="44.65596" lon="5.04863">
        <ele>692</ele>
        <time>2026-05-26T09:08:22.000Z</time>
      </trkpt>
      <trkpt lat="44.65596" lon="5.04862">
        <ele>693</ele>
        <time>2026-05-26T09:08:23.000Z</time>
      </trkpt>
      <trkpt lat="44.65597" lon="5.04862">
        <ele>694</ele>
        <time>2026-05-26T09:08:24.000Z</time>
      </trkpt>
      <trkpt lat="44.65598" lon="5.04861">
        <ele>694</ele>
        <time>2026-05-26T09:08:25.000Z</time>
      </trkpt>
      <trkpt lat="44.65598" lon="5.04861">
        <ele>693</ele>
        <time>2026-05-26T09:08:26.000Z</time>
      </trkpt>
      <trkpt lat="44.65599" lon="5.04861">
        <ele>694</ele>
        <time>2026-05-26T09:08:27.000Z</time>
      </trkpt>
      <trkpt lat="44.65599" lon="5.0486">
        <ele>694</ele>
        <time>2026-05-26T09:08:28.000Z</time>
      </trkpt>
      <trkpt lat="44.65599" lon="5.04859">
        <ele>695</ele>
        <time>2026-05-26T09:08:29.000Z</time>
      </trkpt>
      <trkpt lat="44.65599" lon="5.04859">
        <ele>695</ele>
        <time>2026-05-26T09:08:30.000Z</time>
      </trkpt>
      <trkpt lat="44.65599" lon="5.04859">
        <ele>696</ele>
        <time>2026-05-26T09:08:31.000Z</time>
      </trkpt>
      <trkpt lat="44.65598" lon="5.04859">
        <ele>696</ele>
        <time>2026-05-26T09:08:32.000Z</time>
      </trkpt>
      <trkpt lat="44.656" lon="5.04859">
        <ele>696</ele>
        <time>2026-05-26T09:08:33.000Z</time>
      </trkpt>
      <trkpt lat="44.656" lon="5.04858">
        <ele>697</ele>
        <time>2026-05-26T09:08:34.000Z</time>
      </trkpt>
      <trkpt lat="44.65601" lon="5.04856">
        <ele>696</ele>
        <time>2026-05-26T09:08:35.000Z</time>
      </trkpt>
      <trkpt lat="44.65601" lon="5.04856">
        <ele>696</ele>
        <time>2026-05-26T09:08:36.000Z</time>
      </trkpt>
      <trkpt lat="44.65602" lon="5.04856">
        <ele>697</ele>
        <time>2026-05-26T09:08:37.000Z</time>
      </trkpt>
      <trkpt lat="44.65602" lon="5.04855">
        <ele>697</ele>
        <time>2026-05-26T09:08:38.000Z</time>
      </trkpt>
      <trkpt lat="44.65603" lon="5.04854">
        <ele>697</ele>
        <time>2026-05-26T09:08:39.000Z</time>
      </trkpt>
      <trkpt lat="44.65604" lon="5.04854">
        <ele>697</ele>
        <time>2026-05-26T09:08:40.000Z</time>
      </trkpt>
      <trkpt lat="44.65604" lon="5.04852">
        <ele>698</ele>
        <time>2026-05-26T09:08:41.000Z</time>
      </trkpt>
      <trkpt lat="44.65604" lon="5.04853">
        <ele>697</ele>
        <time>2026-05-26T09:08:42.000Z</time>
      </trkpt>
      <trkpt lat="44.65604" lon="5.04853">
        <ele>697</ele>
        <time>2026-05-26T09:08:43.000Z</time>
      </trkpt>
      <trkpt lat="44.65603" lon="5.04852">
        <ele>695</ele>
        <time>2026-05-26T09:08:44.000Z</time>
      </trkpt>
      <trkpt lat="44.65603" lon="5.04851">
        <ele>695</ele>
        <time>2026-05-26T09:08:45.000Z</time>
      </trkpt>
      <trkpt lat="44.65604" lon="5.0485">
        <ele>695</ele>
        <time>2026-05-26T09:08:46.000Z</time>
      </trkpt>
      <trkpt lat="44.65605" lon="5.0485">
        <ele>695</ele>
        <time>2026-05-26T09:08:47.000Z</time>
      </trkpt>
      <trkpt lat="44.65605" lon="5.04849">
        <ele>695</ele>
        <time>2026-05-26T09:08:48.000Z</time>
      </trkpt>
      <trkpt lat="44.65605" lon="5.04849">
        <ele>695</ele>
        <time>2026-05-26T09:08:49.000Z</time>
      </trkpt>
      <trkpt lat="44.65606" lon="5.04848">
        <ele>696</ele>
        <time>2026-05-26T09:08:50.000Z</time>
      </trkpt>
      <trkpt lat="44.65606" lon="5.04848">
        <ele>696</ele>
        <time>2026-05-26T09:08:51.000Z</time>
      </trkpt>
      <trkpt lat="44.65604" lon="5.04846">
        <ele>697</ele>
        <time>2026-05-26T09:08:52.000Z</time>
      </trkpt>
      <trkpt lat="44.65603" lon="5.04846">
        <ele>698</ele>
        <time>2026-05-26T09:08:53.000Z</time>
      </trkpt>
      <trkpt lat="44.65603" lon="5.04844">
        <ele>698</ele>
        <time>2026-05-26T09:08:54.000Z</time>
      </trkpt>
      <trkpt lat="44.65603" lon="5.04843">
        <ele>698</ele>
        <time>2026-05-26T09:08:55.000Z</time>
      </trkpt>
      <trkpt lat="44.65602" lon="5.04842">
        <ele>698</ele>
        <time>2026-05-26T09:08:56.000Z</time>
      </trkpt>
      <trkpt lat="44.65602" lon="5.04843">
        <ele>698</ele>
        <time>2026-05-26T09:08:57.000Z</time>
      </trkpt>
      <trkpt lat="44.65602" lon="5.04844">
        <ele>699</ele>
        <time>2026-05-26T09:08:58.000Z</time>
      </trkpt>
      <trkpt lat="44.65602" lon="5.04845">
        <ele>699</ele>
        <time>2026-05-26T09:08:59.000Z</time>
      </trkpt>
      <trkpt lat="44.65603" lon="5.04845">
        <ele>699</ele>
        <time>2026-05-26T09:09:00.000Z</time>
      </trkpt>
      <trkpt lat="44.65605" lon="5.04844">
        <ele>700</ele>
        <time>2026-05-26T09:09:01.000Z</time>
      </trkpt>
      <trkpt lat="44.65607" lon="5.04845">
        <ele>701</ele>
        <time>2026-05-26T09:09:02.000Z</time>
      </trkpt>
      <trkpt lat="44.65607" lon="5.04845">
        <ele>700</ele>
        <time>2026-05-26T09:09:03.000Z</time>
      </trkpt>
      <trkpt lat="44.65608" lon="5.04844">
        <ele>702</ele>
        <time>2026-05-26T09:09:04.000Z</time>
      </trkpt>
      <trkpt lat="44.65607" lon="5.04843">
        <ele>702</ele>
        <time>2026-05-26T09:09:05.000Z</time>
      </trkpt>
      <trkpt lat="44.65607" lon="5.04843">
        <ele>703</ele>
        <time>2026-05-26T09:09:06.000Z</time>
      </trkpt>
      <trkpt lat="44.65608" lon="5.04843">
        <ele>703</ele>
        <time>2026-05-26T09:09:07.000Z</time>
      </trkpt>
      <trkpt lat="44.65608" lon="5.04843">
        <ele>703</ele>
        <time>2026-05-26T09:09:08.000Z</time>
      </trkpt>
      <trkpt lat="44.65607" lon="5.04842">
        <ele>702</ele>
        <time>2026-05-26T09:09:09.000Z</time>
      </trkpt>
      <trkpt lat="44.65606" lon="5.04841">
        <ele>702</ele>
        <time>2026-05-26T09:09:10.000Z</time>
      </trkpt>
      <trkpt lat="44.65606" lon="5.0484">
        <ele>702</ele>
        <time>2026-05-26T09:09:11.000Z</time>
      </trkpt>
      <trkpt lat="44.65606" lon="5.04839">
        <ele>702</ele>
        <time>2026-05-26T09:09:12.000Z</time>
      </trkpt>
      <trkpt lat="44.65606" lon="5.04838">
        <ele>703</ele>
        <time>2026-05-26T09:09:13.000Z</time>
      </trkpt>
      <trkpt lat="44.65608" lon="5.04836">
        <ele>703</ele>
        <time>2026-05-26T09:09:14.000Z</time>
      </trkpt>
      <trkpt lat="44.65608" lon="5.04836">
        <ele>703</ele>
        <time>2026-05-26T09:09:15.000Z</time>
      </trkpt>
      <trkpt lat="44.65608" lon="5.04836">
        <ele>703</ele>
        <time>2026-05-26T09:09:16.000Z</time>
      </trkpt>
      <trkpt lat="44.65608" lon="5.04836">
        <ele>703</ele>
        <time>2026-05-26T09:09:17.000Z</time>
      </trkpt>
      <trkpt lat="44.65608" lon="5.04836">
        <ele>703</ele>
        <time>2026-05-26T09:09:18.000Z</time>
      </trkpt>
      <trkpt lat="44.65608" lon="5.04836">
        <ele>703</ele>
        <time>2026-05-26T09:09:19.000Z</time>
      </trkpt>
      <trkpt lat="44.65608" lon="5.04836">
        <ele>703</ele>
        <time>2026-05-26T09:09:20.000Z</time>
      </trkpt>
      <trkpt lat="44.65608" lon="5.04836">
        <ele>703</ele>
        <time>2026-05-26T09:09:21.000Z</time>
      </trkpt>
      <trkpt lat="44.65608" lon="5.04836">
        <ele>703</ele>
        <time>2026-05-26T09:09:22.000Z</time>
      </trkpt>
      <trkpt lat="44.65608" lon="5.04836">
        <ele>703</ele>
        <time>2026-05-26T09:09:23.000Z</time>
      </trkpt>
      <trkpt lat="44.65608" lon="5.04836">
        <ele>703</ele>
        <time>2026-05-26T09:09:24.000Z</time>
      </trkpt>
      <trkpt lat="44.65608" lon="5.04836">
        <ele>703</ele>
        <time>2026-05-26T09:09:25.000Z</time>
      </trkpt>
      <trkpt lat="44.65608" lon="5.04836">
        <ele>703</ele>
        <time>2026-05-26T09:09:26.000Z</time>
      </trkpt>
      <trkpt lat="44.65608" lon="5.04836">
        <ele>703</ele>
        <time>2026-05-26T09:09:27.000Z</time>
      </trkpt>
      <trkpt lat="44.65608" lon="5.04836">
        <ele>703</ele>
        <time>2026-05-26T09:09:28.000Z</time>
      </trkpt>
      <trkpt lat="44.65608" lon="5.04836">
        <ele>703</ele>
        <time>2026-05-26T09:09:29.000Z</time>
      </trkpt>
      <trkpt lat="44.65608" lon="5.04836">
        <ele>703</ele>
        <time>2026-05-26T09:09:30.000Z</time>
      </trkpt>
      <trkpt lat="44.65608" lon="5.04836">
        <ele>703</ele>
        <time>2026-05-26T09:09:31.000Z</time>
      </trkpt>
      <trkpt lat="44.65608" lon="5.04836">
        <ele>703</ele>
        <time>2026-05-26T09:09:32.000Z</time>
      </trkpt>
      <trkpt lat="44.65608" lon="5.04836">
        <ele>703</ele>
        <time>2026-05-26T09:09:33.000Z</time>
      </trkpt>
      <trkpt lat="44.65609" lon="5.04837">
        <ele>704</ele>
        <time>2026-05-26T09:09:34.000Z</time>
      </trkpt>
      <trkpt lat="44.65609" lon="5.04838">
        <ele>704</ele>
        <time>2026-05-26T09:09:35.000Z</time>
      </trkpt>
      <trkpt lat="44.65609" lon="5.04838">
        <ele>704</ele>
        <time>2026-05-26T09:09:36.000Z</time>
      </trkpt>
      <trkpt lat="44.65609" lon="5.04838">
        <ele>704</ele>
        <time>2026-05-26T09:09:37.000Z</time>
      </trkpt>
      <trkpt lat="44.65609" lon="5.04838">
        <ele>704</ele>
        <time>2026-05-26T09:09:38.000Z</time>
      </trkpt>
      <trkpt lat="44.65609" lon="5.04838">
        <ele>704</ele>
        <time>2026-05-26T09:09:39.000Z</time>
      </trkpt>
      <trkpt lat="44.65609" lon="5.04838">
        <ele>704</ele>
        <time>2026-05-26T09:09:40.000Z</time>
      </trkpt>
      <trkpt lat="44.65609" lon="5.04838">
        <ele>704</ele>
        <time>2026-05-26T09:09:41.000Z</time>
      </trkpt>
      <trkpt lat="44.65609" lon="5.04838">
        <ele>704</ele>
        <time>2026-05-26T09:09:42.000Z</time>
      </trkpt>
      <trkpt lat="44.65609" lon="5.04838">
        <ele>704</ele>
        <time>2026-05-26T09:09:43.000Z</time>
      </trkpt>
      <trkpt lat="44.65609" lon="5.04838">
        <ele>704</ele>
        <time>2026-05-26T09:09:44.000Z</time>
      </trkpt>
      <trkpt lat="44.65609" lon="5.04838">
        <ele>704</ele>
        <time>2026-05-26T09:09:45.000Z</time>
      </trkpt>
      <trkpt lat="44.65609" lon="5.04838">
        <ele>704</ele>
        <time>2026-05-26T09:09:46.000Z</time>
      </trkpt>
      <trkpt lat="44.65609" lon="5.04838">
        <ele>704</ele>
        <time>2026-05-26T09:09:47.000Z</time>
      </trkpt>
      <trkpt lat="44.65609" lon="5.04838">
        <ele>704</ele>
        <time>2026-05-26T09:09:48.000Z</time>
      </trkpt>
      <trkpt lat="44.65609" lon="5.04838">
        <ele>704</ele>
        <time>2026-05-26T09:09:49.000Z</time>
      </trkpt>
      <trkpt lat="44.65609" lon="5.04838">
        <ele>704</ele>
        <time>2026-05-26T09:09:50.000Z</time>
      </trkpt>
      <trkpt lat="44.65609" lon="5.04838">
        <ele>704</ele>
        <time>2026-05-26T09:09:51.000Z</time>
      </trkpt>
      <trkpt lat="44.65609" lon="5.04838">
        <ele>704</ele>
        <time>2026-05-26T09:09:52.000Z</time>
      </trkpt>
      <trkpt lat="44.65609" lon="5.04837">
        <ele>704</ele>
        <time>2026-05-26T09:09:53.000Z</time>
      </trkpt>
      <trkpt lat="44.6561" lon="5.04837">
        <ele>704</ele>
        <time>2026-05-26T09:09:54.000Z</time>
      </trkpt>
      <trkpt lat="44.6561" lon="5.04837">
        <ele>704</ele>
        <time>2026-05-26T09:09:55.000Z</time>
      </trkpt>
      <trkpt lat="44.6561" lon="5.04837">
        <ele>704</ele>
        <time>2026-05-26T09:09:56.000Z</time>
      </trkpt>
      <trkpt lat="44.6561" lon="5.04837">
        <ele>704</ele>
        <time>2026-05-26T09:09:57.000Z</time>
      </trkpt>
      <trkpt lat="44.6561" lon="5.04837">
        <ele>704</ele>
        <time>2026-05-26T09:09:58.000Z</time>
      </trkpt>
      <trkpt lat="44.6561" lon="5.04837">
        <ele>704</ele>
        <time>2026-05-26T09:09:59.000Z</time>
      </trkpt>
      <trkpt lat="44.6561" lon="5.04837">
        <ele>704</ele>
        <time>2026-05-26T09:10:00.000Z</time>
      </trkpt>
      <trkpt lat="44.6561" lon="5.04837">
        <ele>704</ele>
        <time>2026-05-26T09:10:01.000Z</time>
      </trkpt>
      <trkpt lat="44.6561" lon="5.04837">
        <ele>704</ele>
        <time>2026-05-26T09:10:02.000Z</time>
      </trkpt>
      <trkpt lat="44.6561" lon="5.04837">
        <ele>704</ele>
        <time>2026-05-26T09:10:03.000Z</time>
      </trkpt>
      <trkpt lat="44.6561" lon="5.04837">
        <ele>704</ele>
        <time>2026-05-26T09:10:04.000Z</time>
      </trkpt>
      <trkpt lat="44.6561" lon="5.04837">
        <ele>704</ele>
        <time>2026-05-26T09:10:05.000Z</time>
      </trkpt>
      <trkpt lat="44.6561" lon="5.04837">
        <ele>704</ele>
        <time>2026-05-26T09:10:06.000Z</time>
      </trkpt>
      <trkpt lat="44.6561" lon="5.04837">
        <ele>704</ele>
        <time>2026-05-26T09:10:07.000Z</time>
      </trkpt>
      <trkpt lat="44.6561" lon="5.04837">
        <ele>704</ele>
        <time>2026-05-26T09:10:08.000Z</time>
      </trkpt>
      <trkpt lat="44.6561" lon="5.04837">
        <ele>704</ele>
        <time>2026-05-26T09:10:09.000Z</time>
      </trkpt>
      <trkpt lat="44.6561" lon="5.04837">
        <ele>704</ele>
        <time>2026-05-26T09:10:10.000Z</time>
      </trkpt>
      <trkpt lat="44.6561" lon="5.04837">
        <ele>704</ele>
        <time>2026-05-26T09:10:11.000Z</time>
      </trkpt>
      <trkpt lat="44.6561" lon="5.04837">
        <ele>704</ele>
        <time>2026-05-26T09:10:12.000Z</time>
      </trkpt>
      <trkpt lat="44.6561" lon="5.04837">
        <ele>704</ele>
        <time>2026-05-26T09:10:13.000Z</time>
      </trkpt>
      <trkpt lat="44.6561" lon="5.04837">
        <ele>704</ele>
        <time>2026-05-26T09:10:14.000Z</time>
      </trkpt>
      <trkpt lat="44.6561" lon="5.04837">
        <ele>704</ele>
        <time>2026-05-26T09:10:15.000Z</time>
      </trkpt>
      <trkpt lat="44.6561" lon="5.04837">
        <ele>704</ele>
        <time>2026-05-26T09:10:16.000Z</time>
      </trkpt>
      <trkpt lat="44.6561" lon="5.04837">
        <ele>704</ele>
        <time>2026-05-26T09:10:17.000Z</time>
      </trkpt>
      <trkpt lat="44.6561" lon="5.04837">
        <ele>704</ele>
        <time>2026-05-26T09:10:18.000Z</time>
      </trkpt>
      <trkpt lat="44.6561" lon="5.04837">
        <ele>704</ele>
        <time>2026-05-26T09:10:19.000Z</time>
      </trkpt>
      <trkpt lat="44.6561" lon="5.04837">
        <ele>704</ele>
        <time>2026-05-26T09:10:20.000Z</time>
      </trkpt>
      <trkpt lat="44.6561" lon="5.04837">
        <ele>704</ele>
        <time>2026-05-26T09:10:21.000Z</time>
      </trkpt>
      <trkpt lat="44.6561" lon="5.04837">
        <ele>704</ele>
        <time>2026-05-26T09:10:22.000Z</time>
      </trkpt>
      <trkpt lat="44.6561" lon="5.04837">
        <ele>704</ele>
        <time>2026-05-26T09:10:23.000Z</time>
      </trkpt>
      <trkpt lat="44.6561" lon="5.04837">
        <ele>704</ele>
        <time>2026-05-26T09:10:24.000Z</time>
      </trkpt>
      <trkpt lat="44.6561" lon="5.04837">
        <ele>704</ele>
        <time>2026-05-26T09:10:25.000Z</time>
      </trkpt>
      <trkpt lat="44.6561" lon="5.04837">
        <ele>704</ele>
        <time>2026-05-26T09:10:26.000Z</time>
      </trkpt>
      <trkpt lat="44.6561" lon="5.04837">
        <ele>704</ele>
        <time>2026-05-26T09:10:27.000Z</time>
      </trkpt>
      <trkpt lat="44.6561" lon="5.04837">
        <ele>704</ele>
        <time>2026-05-26T09:10:28.000Z</time>
      </trkpt>
      <trkpt lat="44.6561" lon="5.04837">
        <ele>704</ele>
        <time>2026-05-26T09:10:29.000Z</time>
      </trkpt>
      <trkpt lat="44.6561" lon="5.04837">
        <ele>704</ele>
        <time>2026-05-26T09:10:30.000Z</time>
      </trkpt>
      <trkpt lat="44.6561" lon="5.04837">
        <ele>704</ele>
        <time>2026-05-26T09:10:31.000Z</time>
      </trkpt>
      <trkpt lat="44.6561" lon="5.04837">
        <ele>704</ele>
        <time>2026-05-26T09:10:32.000Z</time>
      </trkpt>
      <trkpt lat="44.6561" lon="5.04837">
        <ele>704</ele>
        <time>2026-05-26T09:10:33.000Z</time>
      </trkpt>
      <trkpt lat="44.6561" lon="5.04837">
        <ele>704</ele>
        <time>2026-05-26T09:10:34.000Z</time>
      </trkpt>
      <trkpt lat="44.6561" lon="5.04837">
        <ele>704</ele>
        <time>2026-05-26T09:10:35.000Z</time>
      </trkpt>
      <trkpt lat="44.6561" lon="5.04837">
        <ele>704</ele>
        <time>2026-05-26T09:10:36.000Z</time>
      </trkpt>
      <trkpt lat="44.6561" lon="5.04837">
        <ele>704</ele>
        <time>2026-05-26T09:10:37.000Z</time>
      </trkpt>
      <trkpt lat="44.6561" lon="5.04837">
        <ele>704</ele>
        <time>2026-05-26T09:10:38.000Z</time>
      </trkpt>
      <trkpt lat="44.6561" lon="5.04837">
        <ele>704</ele>
        <time>2026-05-26T09:10:39.000Z</time>
      </trkpt>
      <trkpt lat="44.6561" lon="5.04837">
        <ele>704</ele>
        <time>2026-05-26T09:10:40.000Z</time>
      </trkpt>
      <trkpt lat="44.6561" lon="5.04837">
        <ele>704</ele>
        <time>2026-05-26T09:10:41.000Z</time>
      </trkpt>
      <trkpt lat="44.6561" lon="5.04837">
        <ele>704</ele>
        <time>2026-05-26T09:10:42.000Z</time>
      </trkpt>
      <trkpt lat="44.6561" lon="5.04837">
        <ele>704</ele>
        <time>2026-05-26T09:10:43.000Z</time>
      </trkpt>
      <trkpt lat="44.6561" lon="5.04837">
        <ele>704</ele>
        <time>2026-05-26T09:10:44.000Z</time>
      </trkpt>
      <trkpt lat="44.6561" lon="5.04837">
        <ele>704</ele>
        <time>2026-05-26T09:10:45.000Z</time>
      </trkpt>
      <trkpt lat="44.6561" lon="5.04837">
        <ele>704</ele>
        <time>2026-05-26T09:10:46.000Z</time>
      </trkpt>
      <trkpt lat="44.6561" lon="5.04837">
        <ele>704</ele>
        <time>2026-05-26T09:10:47.000Z</time>
      </trkpt>
      <trkpt lat="44.6561" lon="5.04837">
        <ele>704</ele>
        <time>2026-05-26T09:10:48.000Z</time>
      </trkpt>
      <trkpt lat="44.65611" lon="5.04838">
        <ele>705</ele>
        <time>2026-05-26T09:10:49.000Z</time>
      </trkpt>
      <trkpt lat="44.65612" lon="5.04839">
        <ele>705</ele>
        <time>2026-05-26T09:10:50.000Z</time>
      </trkpt>
      <trkpt lat="44.65612" lon="5.04838">
        <ele>705</ele>
        <time>2026-05-26T09:10:51.000Z</time>
      </trkpt>
      <trkpt lat="44.65612" lon="5.04838">
        <ele>705</ele>
        <time>2026-05-26T09:10:52.000Z</time>
      </trkpt>
      <trkpt lat="44.65612" lon="5.04838">
        <ele>705</ele>
        <time>2026-05-26T09:10:53.000Z</time>
      </trkpt>
      <trkpt lat="44.65612" lon="5.04838">
        <ele>705</ele>
        <time>2026-05-26T09:10:54.000Z</time>
      </trkpt>
      <trkpt lat="44.65612" lon="5.04838">
        <ele>705</ele>
        <time>2026-05-26T09:10:55.000Z</time>
      </trkpt>
      <trkpt lat="44.65612" lon="5.04838">
        <ele>705</ele>
        <time>2026-05-26T09:10:56.000Z</time>
      </trkpt>
      <trkpt lat="44.65612" lon="5.04838">
        <ele>705</ele>
        <time>2026-05-26T09:10:57.000Z</time>
      </trkpt>
      <trkpt lat="44.65612" lon="5.04838">
        <ele>705</ele>
        <time>2026-05-26T09:10:58.000Z</time>
      </trkpt>
      <trkpt lat="44.65611" lon="5.04838">
        <ele>705</ele>
        <time>2026-05-26T09:10:59.000Z</time>
      </trkpt>
      <trkpt lat="44.65611" lon="5.04838">
        <ele>704</ele>
        <time>2026-05-26T09:11:00.000Z</time>
      </trkpt>
      <trkpt lat="44.65611" lon="5.04839">
        <ele>704</ele>
        <time>2026-05-26T09:11:01.000Z</time>
      </trkpt>
      <trkpt lat="44.65613" lon="5.0484">
        <ele>705</ele>
        <time>2026-05-26T09:11:02.000Z</time>
      </trkpt>
      <trkpt lat="44.65613" lon="5.0484">
        <ele>705</ele>
        <time>2026-05-26T09:11:03.000Z</time>
      </trkpt>
      <trkpt lat="44.65613" lon="5.0484">
        <ele>705</ele>
        <time>2026-05-26T09:11:04.000Z</time>
      </trkpt>
      <trkpt lat="44.65613" lon="5.0484">
        <ele>705</ele>
        <time>2026-05-26T09:11:05.000Z</time>
      </trkpt>
      <trkpt lat="44.65613" lon="5.0484">
        <ele>705</ele>
        <time>2026-05-26T09:11:06.000Z</time>
      </trkpt>
      <trkpt lat="44.65613" lon="5.04839">
        <ele>704</ele>
        <time>2026-05-26T09:11:07.000Z</time>
      </trkpt>
      <trkpt lat="44.65613" lon="5.04839">
        <ele>704</ele>
        <time>2026-05-26T09:11:08.000Z</time>
      </trkpt>
      <trkpt lat="44.65613" lon="5.04839">
        <ele>704</ele>
        <time>2026-05-26T09:11:09.000Z</time>
      </trkpt>
      <trkpt lat="44.65613" lon="5.04839">
        <ele>704</ele>
        <time>2026-05-26T09:11:10.000Z</time>
      </trkpt>
      <trkpt lat="44.65613" lon="5.04839">
        <ele>704</ele>
        <time>2026-05-26T09:11:11.000Z</time>
      </trkpt>
      <trkpt lat="44.65613" lon="5.04839">
        <ele>704</ele>
        <time>2026-05-26T09:11:12.000Z</time>
      </trkpt>
      <trkpt lat="44.65613" lon="5.04839">
        <ele>704</ele>
        <time>2026-05-26T09:11:13.000Z</time>
      </trkpt>
      <trkpt lat="44.65613" lon="5.04839">
        <ele>704</ele>
        <time>2026-05-26T09:11:14.000Z</time>
      </trkpt>
      <trkpt lat="44.65613" lon="5.04839">
        <ele>704</ele>
        <time>2026-05-26T09:11:15.000Z</time>
      </trkpt>
      <trkpt lat="44.65613" lon="5.04839">
        <ele>704</ele>
        <time>2026-05-26T09:11:16.000Z</time>
      </trkpt>
      <trkpt lat="44.65613" lon="5.04839">
        <ele>704</ele>
        <time>2026-05-26T09:11:17.000Z</time>
      </trkpt>
      <trkpt lat="44.65613" lon="5.04839">
        <ele>704</ele>
        <time>2026-05-26T09:11:18.000Z</time>
      </trkpt>
      <trkpt lat="44.65613" lon="5.04839">
        <ele>704</ele>
        <time>2026-05-26T09:11:19.000Z</time>
      </trkpt>
      <trkpt lat="44.65613" lon="5.04839">
        <ele>704</ele>
        <time>2026-05-26T09:11:20.000Z</time>
      </trkpt>
      <trkpt lat="44.65613" lon="5.04839">
        <ele>704</ele>
        <time>2026-05-26T09:11:21.000Z</time>
      </trkpt>
      <trkpt lat="44.65613" lon="5.04839">
        <ele>704</ele>
        <time>2026-05-26T09:11:22.000Z</time>
      </trkpt>
      <trkpt lat="44.65613" lon="5.04839">
        <ele>704</ele>
        <time>2026-05-26T09:11:23.000Z</time>
      </trkpt>
      <trkpt lat="44.65611" lon="5.04838">
        <ele>704</ele>
        <time>2026-05-26T09:11:24.000Z</time>
      </trkpt>
      <trkpt lat="44.65611" lon="5.04838">
        <ele>704</ele>
        <time>2026-05-26T09:11:25.000Z</time>
      </trkpt>
      <trkpt lat="44.65611" lon="5.04838">
        <ele>704</ele>
        <time>2026-05-26T09:11:26.000Z</time>
      </trkpt>
      <trkpt lat="44.65611" lon="5.04838">
        <ele>704</ele>
        <time>2026-05-26T09:11:27.000Z</time>
      </trkpt>
      <trkpt lat="44.65611" lon="5.04838">
        <ele>704</ele>
        <time>2026-05-26T09:11:28.000Z</time>
      </trkpt>
      <trkpt lat="44.65611" lon="5.04838">
        <ele>704</ele>
        <time>2026-05-26T09:11:29.000Z</time>
      </trkpt>
      <trkpt lat="44.65611" lon="5.04838">
        <ele>704</ele>
        <time>2026-05-26T09:11:30.000Z</time>
      </trkpt>
      <trkpt lat="44.65611" lon="5.04838">
        <ele>704</ele>
        <time>2026-05-26T09:11:31.000Z</time>
      </trkpt>
      <trkpt lat="44.65611" lon="5.04838">
        <ele>704</ele>
        <time>2026-05-26T09:11:32.000Z</time>
      </trkpt>
      <trkpt lat="44.65611" lon="5.04838">
        <ele>704</ele>
        <time>2026-05-26T09:11:33.000Z</time>
      </trkpt>
      <trkpt lat="44.65611" lon="5.04838">
        <ele>704</ele>
        <time>2026-05-26T09:11:34.000Z</time>
      </trkpt>
      <trkpt lat="44.65611" lon="5.04838">
        <ele>704</ele>
        <time>2026-05-26T09:11:35.000Z</time>
      </trkpt>
      <trkpt lat="44.65611" lon="5.04838">
        <ele>704</ele>
        <time>2026-05-26T09:11:36.000Z</time>
      </trkpt>
      <trkpt lat="44.65611" lon="5.04838">
        <ele>704</ele>
        <time>2026-05-26T09:11:37.000Z</time>
      </trkpt>
      <trkpt lat="44.65611" lon="5.04838">
        <ele>704</ele>
        <time>2026-05-26T09:11:38.000Z</time>
      </trkpt>
      <trkpt lat="44.65611" lon="5.04838">
        <ele>704</ele>
        <time>2026-05-26T09:11:39.000Z</time>
      </trkpt>
      <trkpt lat="44.65611" lon="5.04838">
        <ele>704</ele>
        <time>2026-05-26T09:11:40.000Z</time>
      </trkpt>
      <trkpt lat="44.6561" lon="5.04836">
        <ele>705</ele>
        <time>2026-05-26T09:11:41.000Z</time>
      </trkpt>
      <trkpt lat="44.65611" lon="5.04835">
        <ele>707</ele>
        <time>2026-05-26T09:11:42.000Z</time>
      </trkpt>
      <trkpt lat="44.65611" lon="5.04834">
        <ele>706</ele>
        <time>2026-05-26T09:11:43.000Z</time>
      </trkpt>
      <trkpt lat="44.65611" lon="5.04833">
        <ele>706</ele>
        <time>2026-05-26T09:11:44.000Z</time>
      </trkpt>
      <trkpt lat="44.6561" lon="5.04832">
        <ele>706</ele>
        <time>2026-05-26T09:11:45.000Z</time>
      </trkpt>
      <trkpt lat="44.65611" lon="5.04831">
        <ele>706</ele>
        <time>2026-05-26T09:11:46.000Z</time>
      </trkpt>
      <trkpt lat="44.65611" lon="5.04832">
        <ele>706</ele>
        <time>2026-05-26T09:11:47.000Z</time>
      </trkpt>
      <trkpt lat="44.65611" lon="5.04832">
        <ele>706</ele>
        <time>2026-05-26T09:11:48.000Z</time>
      </trkpt>
      <trkpt lat="44.65611" lon="5.04832">
        <ele>706</ele>
        <time>2026-05-26T09:11:49.000Z</time>
      </trkpt>
      <trkpt lat="44.65611" lon="5.04833">
        <ele>705</ele>
        <time>2026-05-26T09:11:50.000Z</time>
      </trkpt>
      <trkpt lat="44.65611" lon="5.04834">
        <ele>704</ele>
        <time>2026-05-26T09:11:51.000Z</time>
      </trkpt>
      <trkpt lat="44.65609" lon="5.04834">
        <ele>705</ele>
        <time>2026-05-26T09:11:52.000Z</time>
      </trkpt>
      <trkpt lat="44.65609" lon="5.04834">
        <ele>704</ele>
        <time>2026-05-26T09:11:53.000Z</time>
      </trkpt>
      <trkpt lat="44.65609" lon="5.04833">
        <ele>705</ele>
        <time>2026-05-26T09:11:54.000Z</time>
      </trkpt>
      <trkpt lat="44.6561" lon="5.04832">
        <ele>704</ele>
        <time>2026-05-26T09:11:55.000Z</time>
      </trkpt>
      <trkpt lat="44.6561" lon="5.04832">
        <ele>704</ele>
        <time>2026-05-26T09:11:56.000Z</time>
      </trkpt>
      <trkpt lat="44.65609" lon="5.04832">
        <ele>705</ele>
        <time>2026-05-26T09:11:57.000Z</time>
      </trkpt>
      <trkpt lat="44.6561" lon="5.04832">
        <ele>705</ele>
        <time>2026-05-26T09:11:58.000Z</time>
      </trkpt>
      <trkpt lat="44.65611" lon="5.0483">
        <ele>706</ele>
        <time>2026-05-26T09:11:59.000Z</time>
      </trkpt>
      <trkpt lat="44.65611" lon="5.0483">
        <ele>705</ele>
        <time>2026-05-26T09:12:00.000Z</time>
      </trkpt>
      <trkpt lat="44.65611" lon="5.0483">
        <ele>706</ele>
        <time>2026-05-26T09:12:01.000Z</time>
      </trkpt>
      <trkpt lat="44.65611" lon="5.04831">
        <ele>705</ele>
        <time>2026-05-26T09:12:02.000Z</time>
      </trkpt>
      <trkpt lat="44.65611" lon="5.04832">
        <ele>705</ele>
        <time>2026-05-26T09:12:03.000Z</time>
      </trkpt>
      <trkpt lat="44.65612" lon="5.04831">
        <ele>706</ele>
        <time>2026-05-26T09:12:04.000Z</time>
      </trkpt>
      <trkpt lat="44.65614" lon="5.04831">
        <ele>706</ele>
        <time>2026-05-26T09:12:05.000Z</time>
      </trkpt>
      <trkpt lat="44.65614" lon="5.0483">
        <ele>707</ele>
        <time>2026-05-26T09:12:06.000Z</time>
      </trkpt>
      <trkpt lat="44.65614" lon="5.0483">
        <ele>708</ele>
        <time>2026-05-26T09:12:07.000Z</time>
      </trkpt>
      <trkpt lat="44.65615" lon="5.0483">
        <ele>707</ele>
        <time>2026-05-26T09:12:08.000Z</time>
      </trkpt>
      <trkpt lat="44.65614" lon="5.0483">
        <ele>708</ele>
        <time>2026-05-26T09:12:09.000Z</time>
      </trkpt>
      <trkpt lat="44.65614" lon="5.04829">
        <ele>708</ele>
        <time>2026-05-26T09:12:10.000Z</time>
      </trkpt>
      <trkpt lat="44.65614" lon="5.04829">
        <ele>707</ele>
        <time>2026-05-26T09:12:11.000Z</time>
      </trkpt>
      <trkpt lat="44.65614" lon="5.04829">
        <ele>707</ele>
        <time>2026-05-26T09:12:12.000Z</time>
      </trkpt>
      <trkpt lat="44.65614" lon="5.04829">
        <ele>707</ele>
        <time>2026-05-26T09:12:13.000Z</time>
      </trkpt>
      <trkpt lat="44.65614" lon="5.04829">
        <ele>707</ele>
        <time>2026-05-26T09:12:14.000Z</time>
      </trkpt>
      <trkpt lat="44.65614" lon="5.04827">
        <ele>707</ele>
        <time>2026-05-26T09:12:15.000Z</time>
      </trkpt>
      <trkpt lat="44.65615" lon="5.04828">
        <ele>708</ele>
        <time>2026-05-26T09:12:16.000Z</time>
      </trkpt>
      <trkpt lat="44.65614" lon="5.04827">
        <ele>709</ele>
        <time>2026-05-26T09:12:17.000Z</time>
      </trkpt>
      <trkpt lat="44.65614" lon="5.04826">
        <ele>709</ele>
        <time>2026-05-26T09:12:18.000Z</time>
      </trkpt>
      <trkpt lat="44.65614" lon="5.04825">
        <ele>709</ele>
        <time>2026-05-26T09:12:19.000Z</time>
      </trkpt>
      <trkpt lat="44.65614" lon="5.04825">
        <ele>708</ele>
        <time>2026-05-26T09:12:20.000Z</time>
      </trkpt>
      <trkpt lat="44.65614" lon="5.04826">
        <ele>707</ele>
        <time>2026-05-26T09:12:21.000Z</time>
      </trkpt>
      <trkpt lat="44.65613" lon="5.04827">
        <ele>708</ele>
        <time>2026-05-26T09:12:22.000Z</time>
      </trkpt>
      <trkpt lat="44.65613" lon="5.04826">
        <ele>708</ele>
        <time>2026-05-26T09:12:23.000Z</time>
      </trkpt>
      <trkpt lat="44.65613" lon="5.04825">
        <ele>709</ele>
        <time>2026-05-26T09:12:24.000Z</time>
      </trkpt>
      <trkpt lat="44.65614" lon="5.04824">
        <ele>709</ele>
        <time>2026-05-26T09:12:25.000Z</time>
      </trkpt>
      <trkpt lat="44.65615" lon="5.04822">
        <ele>708</ele>
        <time>2026-05-26T09:12:26.000Z</time>
      </trkpt>
      <trkpt lat="44.65616" lon="5.0482">
        <ele>709</ele>
        <time>2026-05-26T09:12:27.000Z</time>
      </trkpt>
      <trkpt lat="44.65616" lon="5.0482">
        <ele>709</ele>
        <time>2026-05-26T09:12:28.000Z</time>
      </trkpt>
      <trkpt lat="44.65616" lon="5.0482">
        <ele>709</ele>
        <time>2026-05-26T09:12:29.000Z</time>
      </trkpt>
      <trkpt lat="44.65616" lon="5.0482">
        <ele>709</ele>
        <time>2026-05-26T09:12:30.000Z</time>
      </trkpt>
      <trkpt lat="44.65616" lon="5.0482">
        <ele>709</ele>
        <time>2026-05-26T09:12:31.000Z</time>
      </trkpt>
      <trkpt lat="44.65616" lon="5.0482">
        <ele>709</ele>
        <time>2026-05-26T09:12:32.000Z</time>
      </trkpt>
      <trkpt lat="44.65616" lon="5.0482">
        <ele>709</ele>
        <time>2026-05-26T09:12:33.000Z</time>
      </trkpt>
      <trkpt lat="44.65616" lon="5.0482">
        <ele>709</ele>
        <time>2026-05-26T09:12:34.000Z</time>
      </trkpt>
      <trkpt lat="44.65616" lon="5.0482">
        <ele>710</ele>
        <time>2026-05-26T09:12:35.000Z</time>
      </trkpt>
      <trkpt lat="44.65616" lon="5.0482">
        <ele>710</ele>
        <time>2026-05-26T09:12:36.000Z</time>
      </trkpt>
      <trkpt lat="44.65616" lon="5.0482">
        <ele>710</ele>
        <time>2026-05-26T09:12:37.000Z</time>
      </trkpt>
      <trkpt lat="44.65617" lon="5.04819">
        <ele>709</ele>
        <time>2026-05-26T09:12:38.000Z</time>
      </trkpt>
      <trkpt lat="44.65617" lon="5.04819">
        <ele>709</ele>
        <time>2026-05-26T09:12:39.000Z</time>
      </trkpt>
      <trkpt lat="44.65617" lon="5.04818">
        <ele>709</ele>
        <time>2026-05-26T09:12:40.000Z</time>
      </trkpt>
      <trkpt lat="44.65617" lon="5.04818">
        <ele>709</ele>
        <time>2026-05-26T09:12:41.000Z</time>
      </trkpt>
      <trkpt lat="44.65617" lon="5.04818">
        <ele>709</ele>
        <time>2026-05-26T09:12:42.000Z</time>
      </trkpt>
      <trkpt lat="44.65617" lon="5.04818">
        <ele>709</ele>
        <time>2026-05-26T09:12:43.000Z</time>
      </trkpt>
      <trkpt lat="44.65617" lon="5.04818">
        <ele>709</ele>
        <time>2026-05-26T09:12:44.000Z</time>
      </trkpt>
      <trkpt lat="44.65617" lon="5.04818">
        <ele>709</ele>
        <time>2026-05-26T09:12:45.000Z</time>
      </trkpt>
      <trkpt lat="44.65617" lon="5.04818">
        <ele>709</ele>
        <time>2026-05-26T09:12:46.000Z</time>
      </trkpt>
      <trkpt lat="44.65617" lon="5.04818">
        <ele>709</ele>
        <time>2026-05-26T09:12:47.000Z</time>
      </trkpt>
      <trkpt lat="44.65617" lon="5.04818">
        <ele>709</ele>
        <time>2026-05-26T09:12:48.000Z</time>
      </trkpt>
      <trkpt lat="44.65617" lon="5.04818">
        <ele>709</ele>
        <time>2026-05-26T09:12:49.000Z</time>
      </trkpt>
      <trkpt lat="44.65617" lon="5.04818">
        <ele>709</ele>
        <time>2026-05-26T09:12:50.000Z</time>
      </trkpt>
      <trkpt lat="44.65617" lon="5.04818">
        <ele>709</ele>
        <time>2026-05-26T09:12:51.000Z</time>
      </trkpt>
      <trkpt lat="44.65617" lon="5.04818">
        <ele>709</ele>
        <time>2026-05-26T09:12:52.000Z</time>
      </trkpt>
      <trkpt lat="44.65617" lon="5.04818">
        <ele>709</ele>
        <time>2026-05-26T09:12:53.000Z</time>
      </trkpt>
      <trkpt lat="44.65617" lon="5.04818">
        <ele>709</ele>
        <time>2026-05-26T09:12:54.000Z</time>
      </trkpt>
      <trkpt lat="44.65617" lon="5.04818">
        <ele>709</ele>
        <time>2026-05-26T09:12:55.000Z</time>
      </trkpt>
      <trkpt lat="44.65617" lon="5.04818">
        <ele>709</ele>
        <time>2026-05-26T09:12:56.000Z</time>
      </trkpt>
      <trkpt lat="44.65617" lon="5.04818">
        <ele>709</ele>
        <time>2026-05-26T09:12:57.000Z</time>
      </trkpt>
      <trkpt lat="44.65617" lon="5.04818">
        <ele>709</ele>
        <time>2026-05-26T09:12:58.000Z</time>
      </trkpt>
      <trkpt lat="44.65617" lon="5.04818">
        <ele>709</ele>
        <time>2026-05-26T09:12:59.000Z</time>
      </trkpt>
      <trkpt lat="44.65617" lon="5.04818">
        <ele>709</ele>
        <time>2026-05-26T09:13:00.000Z</time>
      </trkpt>
      <trkpt lat="44.65617" lon="5.04818">
        <ele>710</ele>
        <time>2026-05-26T09:13:01.000Z</time>
      </trkpt>
      <trkpt lat="44.65616" lon="5.04818">
        <ele>711</ele>
        <time>2026-05-26T09:13:02.000Z</time>
      </trkpt>
      <trkpt lat="44.65616" lon="5.04817">
        <ele>711</ele>
        <time>2026-05-26T09:13:03.000Z</time>
      </trkpt>
      <trkpt lat="44.65616" lon="5.04817">
        <ele>712</ele>
        <time>2026-05-26T09:13:04.000Z</time>
      </trkpt>
      <trkpt lat="44.65616" lon="5.04816">
        <ele>713</ele>
        <time>2026-05-26T09:13:05.000Z</time>
      </trkpt>
      <trkpt lat="44.65616" lon="5.04816">
        <ele>713</ele>
        <time>2026-05-26T09:13:06.000Z</time>
      </trkpt>
      <trkpt lat="44.65616" lon="5.04816">
        <ele>713</ele>
        <time>2026-05-26T09:13:07.000Z</time>
      </trkpt>
      <trkpt lat="44.65616" lon="5.04816">
        <ele>713</ele>
        <time>2026-05-26T09:13:08.000Z</time>
      </trkpt>
      <trkpt lat="44.65616" lon="5.04816">
        <ele>713</ele>
        <time>2026-05-26T09:13:09.000Z</time>
      </trkpt>
      <trkpt lat="44.65616" lon="5.04816">
        <ele>713</ele>
        <time>2026-05-26T09:13:10.000Z</time>
      </trkpt>
      <trkpt lat="44.65616" lon="5.04816">
        <ele>713</ele>
        <time>2026-05-26T09:13:11.000Z</time>
      </trkpt>
      <trkpt lat="44.65616" lon="5.04816">
        <ele>713</ele>
        <time>2026-05-26T09:13:12.000Z</time>
      </trkpt>
      <trkpt lat="44.65616" lon="5.04816">
        <ele>713</ele>
        <time>2026-05-26T09:13:13.000Z</time>
      </trkpt>
      <trkpt lat="44.65616" lon="5.04816">
        <ele>713</ele>
        <time>2026-05-26T09:13:14.000Z</time>
      </trkpt>
      <trkpt lat="44.65616" lon="5.04816">
        <ele>713</ele>
        <time>2026-05-26T09:13:15.000Z</time>
      </trkpt>
      <trkpt lat="44.65616" lon="5.04816">
        <ele>713</ele>
        <time>2026-05-26T09:13:16.000Z</time>
      </trkpt>
      <trkpt lat="44.65616" lon="5.04816">
        <ele>713</ele>
        <time>2026-05-26T09:13:17.000Z</time>
      </trkpt>
      <trkpt lat="44.65616" lon="5.04816">
        <ele>713</ele>
        <time>2026-05-26T09:13:18.000Z</time>
      </trkpt>
      <trkpt lat="44.65616" lon="5.04816">
        <ele>713</ele>
        <time>2026-05-26T09:13:19.000Z</time>
      </trkpt>
      <trkpt lat="44.65616" lon="5.04816">
        <ele>713</ele>
        <time>2026-05-26T09:13:20.000Z</time>
      </trkpt>
      <trkpt lat="44.65616" lon="5.04816">
        <ele>713</ele>
        <time>2026-05-26T09:13:21.000Z</time>
      </trkpt>
      <trkpt lat="44.65616" lon="5.04816">
        <ele>713</ele>
        <time>2026-05-26T09:13:22.000Z</time>
      </trkpt>
      <trkpt lat="44.65616" lon="5.04816">
        <ele>713</ele>
        <time>2026-05-26T09:13:23.000Z</time>
      </trkpt>
      <trkpt lat="44.65616" lon="5.04816">
        <ele>713</ele>
        <time>2026-05-26T09:13:24.000Z</time>
      </trkpt>
      <trkpt lat="44.65616" lon="5.04816">
        <ele>713</ele>
        <time>2026-05-26T09:13:25.000Z</time>
      </trkpt>
      <trkpt lat="44.65617" lon="5.04816">
        <ele>713</ele>
        <time>2026-05-26T09:13:26.000Z</time>
      </trkpt>
      <trkpt lat="44.65617" lon="5.04816">
        <ele>713</ele>
        <time>2026-05-26T09:13:27.000Z</time>
      </trkpt>
      <trkpt lat="44.65617" lon="5.04816">
        <ele>713</ele>
        <time>2026-05-26T09:13:28.000Z</time>
      </trkpt>
      <trkpt lat="44.65617" lon="5.04816">
        <ele>713</ele>
        <time>2026-05-26T09:13:29.000Z</time>
      </trkpt>
      <trkpt lat="44.65617" lon="5.04816">
        <ele>713</ele>
        <time>2026-05-26T09:13:30.000Z</time>
      </trkpt>
      <trkpt lat="44.65617" lon="5.04816">
        <ele>713</ele>
        <time>2026-05-26T09:13:31.000Z</time>
      </trkpt>
      <trkpt lat="44.65617" lon="5.04816">
        <ele>713</ele>
        <time>2026-05-26T09:13:32.000Z</time>
      </trkpt>
      <trkpt lat="44.65617" lon="5.04816">
        <ele>713</ele>
        <time>2026-05-26T09:13:33.000Z</time>
      </trkpt>
      <trkpt lat="44.65617" lon="5.04816">
        <ele>713</ele>
        <time>2026-05-26T09:13:34.000Z</time>
      </trkpt>
      <trkpt lat="44.65617" lon="5.04816">
        <ele>713</ele>
        <time>2026-05-26T09:13:35.000Z</time>
      </trkpt>
      <trkpt lat="44.65617" lon="5.04816">
        <ele>713</ele>
        <time>2026-05-26T09:13:36.000Z</time>
      </trkpt>
      <trkpt lat="44.65617" lon="5.04816">
        <ele>713</ele>
        <time>2026-05-26T09:13:37.000Z</time>
      </trkpt>
      <trkpt lat="44.65617" lon="5.04816">
        <ele>713</ele>
        <time>2026-05-26T09:13:38.000Z</time>
      </trkpt>
      <trkpt lat="44.65617" lon="5.04816">
        <ele>713</ele>
        <time>2026-05-26T09:13:39.000Z</time>
      </trkpt>
      <trkpt lat="44.65617" lon="5.04816">
        <ele>713</ele>
        <time>2026-05-26T09:13:40.000Z</time>
      </trkpt>
      <trkpt lat="44.65618" lon="5.04817">
        <ele>711</ele>
        <time>2026-05-26T09:13:41.000Z</time>
      </trkpt>
      <trkpt lat="44.65618" lon="5.04817">
        <ele>711</ele>
        <time>2026-05-26T09:13:42.000Z</time>
      </trkpt>
      <trkpt lat="44.65618" lon="5.04817">
        <ele>710</ele>
        <time>2026-05-26T09:13:43.000Z</time>
      </trkpt>
      <trkpt lat="44.65618" lon="5.04817">
        <ele>710</ele>
        <time>2026-05-26T09:13:44.000Z</time>
      </trkpt>
      <trkpt lat="44.65618" lon="5.04817">
        <ele>710</ele>
        <time>2026-05-26T09:13:45.000Z</time>
      </trkpt>
      <trkpt lat="44.65618" lon="5.04817">
        <ele>710</ele>
        <time>2026-05-26T09:13:46.000Z</time>
      </trkpt>
      <trkpt lat="44.65618" lon="5.04817">
        <ele>710</ele>
        <time>2026-05-26T09:13:47.000Z</time>
      </trkpt>
      <trkpt lat="44.65618" lon="5.04817">
        <ele>710</ele>
        <time>2026-05-26T09:13:48.000Z</time>
      </trkpt>
      <trkpt lat="44.65618" lon="5.04817">
        <ele>710</ele>
        <time>2026-05-26T09:13:49.000Z</time>
      </trkpt>
      <trkpt lat="44.65618" lon="5.04817">
        <ele>710</ele>
        <time>2026-05-26T09:13:50.000Z</time>
      </trkpt>
      <trkpt lat="44.65618" lon="5.04817">
        <ele>710</ele>
        <time>2026-05-26T09:13:51.000Z</time>
      </trkpt>
      <trkpt lat="44.65618" lon="5.04817">
        <ele>710</ele>
        <time>2026-05-26T09:13:52.000Z</time>
      </trkpt>
      <trkpt lat="44.65618" lon="5.04817">
        <ele>710</ele>
        <time>2026-05-26T09:13:53.000Z</time>
      </trkpt>
      <trkpt lat="44.65618" lon="5.04817">
        <ele>710</ele>
        <time>2026-05-26T09:13:54.000Z</time>
      </trkpt>
      <trkpt lat="44.65618" lon="5.04817">
        <ele>710</ele>
        <time>2026-05-26T09:13:55.000Z</time>
      </trkpt>
      <trkpt lat="44.65618" lon="5.04818">
        <ele>711</ele>
        <time>2026-05-26T09:13:56.000Z</time>
      </trkpt>
      <trkpt lat="44.65618" lon="5.04818">
        <ele>711</ele>
        <time>2026-05-26T09:13:57.000Z</time>
      </trkpt>
      <trkpt lat="44.65618" lon="5.04817">
        <ele>711</ele>
        <time>2026-05-26T09:13:58.000Z</time>
      </trkpt>
      <trkpt lat="44.65618" lon="5.04817">
        <ele>711</ele>
        <time>2026-05-26T09:13:59.000Z</time>
      </trkpt>
      <trkpt lat="44.65618" lon="5.04817">
        <ele>711</ele>
        <time>2026-05-26T09:14:00.000Z</time>
      </trkpt>
      <trkpt lat="44.65618" lon="5.04817">
        <ele>711</ele>
        <time>2026-05-26T09:14:01.000Z</time>
      </trkpt>
      <trkpt lat="44.65618" lon="5.04817">
        <ele>711</ele>
        <time>2026-05-26T09:14:02.000Z</time>
      </trkpt>
      <trkpt lat="44.65618" lon="5.04817">
        <ele>711</ele>
        <time>2026-05-26T09:14:03.000Z</time>
      </trkpt>
      <trkpt lat="44.65618" lon="5.04817">
        <ele>711</ele>
        <time>2026-05-26T09:14:04.000Z</time>
      </trkpt>
      <trkpt lat="44.65618" lon="5.04817">
        <ele>711</ele>
        <time>2026-05-26T09:14:05.000Z</time>
      </trkpt>
      <trkpt lat="44.65618" lon="5.04817">
        <ele>711</ele>
        <time>2026-05-26T09:14:06.000Z</time>
      </trkpt>
      <trkpt lat="44.65618" lon="5.04817">
        <ele>711</ele>
        <time>2026-05-26T09:14:07.000Z</time>
      </trkpt>
      <trkpt lat="44.65618" lon="5.04817">
        <ele>711</ele>
        <time>2026-05-26T09:14:08.000Z</time>
      </trkpt>
      <trkpt lat="44.65618" lon="5.04817">
        <ele>711</ele>
        <time>2026-05-26T09:14:09.000Z</time>
      </trkpt>
      <trkpt lat="44.65618" lon="5.04817">
        <ele>711</ele>
        <time>2026-05-26T09:14:10.000Z</time>
      </trkpt>
      <trkpt lat="44.65618" lon="5.04817">
        <ele>711</ele>
        <time>2026-05-26T09:14:11.000Z</time>
      </trkpt>
      <trkpt lat="44.65618" lon="5.04817">
        <ele>711</ele>
        <time>2026-05-26T09:14:12.000Z</time>
      </trkpt>
      <trkpt lat="44.65618" lon="5.04817">
        <ele>711</ele>
        <time>2026-05-26T09:14:13.000Z</time>
      </trkpt>
      <trkpt lat="44.65618" lon="5.04817">
        <ele>711</ele>
        <time>2026-05-26T09:14:14.000Z</time>
      </trkpt>
      <trkpt lat="44.65618" lon="5.04817">
        <ele>711</ele>
        <time>2026-05-26T09:14:15.000Z</time>
      </trkpt>
      <trkpt lat="44.65618" lon="5.04817">
        <ele>711</ele>
        <time>2026-05-26T09:14:16.000Z</time>
      </trkpt>
      <trkpt lat="44.65618" lon="5.04817">
        <ele>711</ele>
        <time>2026-05-26T09:14:17.000Z</time>
      </trkpt>
      <trkpt lat="44.65618" lon="5.04817">
        <ele>711</ele>
        <time>2026-05-26T09:14:18.000Z</time>
      </trkpt>
      <trkpt lat="44.65618" lon="5.04817">
        <ele>711</ele>
        <time>2026-05-26T09:14:19.000Z</time>
      </trkpt>
      <trkpt lat="44.65618" lon="5.04817">
        <ele>711</ele>
        <time>2026-05-26T09:14:20.000Z</time>
      </trkpt>
      <trkpt lat="44.65618" lon="5.04817">
        <ele>711</ele>
        <time>2026-05-26T09:14:21.000Z</time>
      </trkpt>
      <trkpt lat="44.65618" lon="5.04817">
        <ele>711</ele>
        <time>2026-05-26T09:14:22.000Z</time>
      </trkpt>
      <trkpt lat="44.65618" lon="5.04817">
        <ele>711</ele>
        <time>2026-05-26T09:14:23.000Z</time>
      </trkpt>
      <trkpt lat="44.65618" lon="5.04817">
        <ele>711</ele>
        <time>2026-05-26T09:14:24.000Z</time>
      </trkpt>
      <trkpt lat="44.65618" lon="5.04817">
        <ele>711</ele>
        <time>2026-05-26T09:14:25.000Z</time>
      </trkpt>
      <trkpt lat="44.65618" lon="5.04817">
        <ele>711</ele>
        <time>2026-05-26T09:14:26.000Z</time>
      </trkpt>
      <trkpt lat="44.65618" lon="5.04817">
        <ele>711</ele>
        <time>2026-05-26T09:14:27.000Z</time>
      </trkpt>
      <trkpt lat="44.65618" lon="5.04817">
        <ele>711</ele>
        <time>2026-05-26T09:14:28.000Z</time>
      </trkpt>
      <trkpt lat="44.65618" lon="5.04817">
        <ele>711</ele>
        <time>2026-05-26T09:14:29.000Z</time>
      </trkpt>
      <trkpt lat="44.65618" lon="5.04817">
        <ele>711</ele>
        <time>2026-05-26T09:14:30.000Z</time>
      </trkpt>
      <trkpt lat="44.65618" lon="5.04817">
        <ele>711</ele>
        <time>2026-05-26T09:14:31.000Z</time>
      </trkpt>
      <trkpt lat="44.65618" lon="5.04817">
        <ele>711</ele>
        <time>2026-05-26T09:14:32.000Z</time>
      </trkpt>
      <trkpt lat="44.65618" lon="5.04817">
        <ele>711</ele>
        <time>2026-05-26T09:14:33.000Z</time>
      </trkpt>
      <trkpt lat="44.65618" lon="5.04817">
        <ele>711</ele>
        <time>2026-05-26T09:14:34.000Z</time>
      </trkpt>
      <trkpt lat="44.65619" lon="5.04817">
        <ele>712</ele>
        <time>2026-05-26T09:14:35.000Z</time>
      </trkpt>
      <trkpt lat="44.65617" lon="5.04819">
        <ele>712</ele>
        <time>2026-05-26T09:14:36.000Z</time>
      </trkpt>
      <trkpt lat="44.65616" lon="5.04821">
        <ele>712</ele>
        <time>2026-05-26T09:14:37.000Z</time>
      </trkpt>
      <trkpt lat="44.65616" lon="5.0482">
        <ele>712</ele>
        <time>2026-05-26T09:14:38.000Z</time>
      </trkpt>
      <trkpt lat="44.65617" lon="5.04818">
        <ele>712</ele>
        <time>2026-05-26T09:14:39.000Z</time>
      </trkpt>
      <trkpt lat="44.65617" lon="5.04818">
        <ele>712</ele>
        <time>2026-05-26T09:14:40.000Z</time>
      </trkpt>
      <trkpt lat="44.65617" lon="5.04818">
        <ele>712</ele>
        <time>2026-05-26T09:14:41.000Z</time>
      </trkpt>
      <trkpt lat="44.65617" lon="5.04818">
        <ele>712</ele>
        <time>2026-05-26T09:14:42.000Z</time>
      </trkpt>
      <trkpt lat="44.65617" lon="5.04818">
        <ele>712</ele>
        <time>2026-05-26T09:14:43.000Z</time>
      </trkpt>
      <trkpt lat="44.65617" lon="5.04818">
        <ele>712</ele>
        <time>2026-05-26T09:14:44.000Z</time>
      </trkpt>
      <trkpt lat="44.65617" lon="5.04818">
        <ele>712</ele>
        <time>2026-05-26T09:14:45.000Z</time>
      </trkpt>
      <trkpt lat="44.65617" lon="5.04818">
        <ele>712</ele>
        <time>2026-05-26T09:14:46.000Z</time>
      </trkpt>
      <trkpt lat="44.65617" lon="5.04818">
        <ele>712</ele>
        <time>2026-05-26T09:14:47.000Z</time>
      </trkpt>
      <trkpt lat="44.65617" lon="5.04818">
        <ele>712</ele>
        <time>2026-05-26T09:14:48.000Z</time>
      </trkpt>
      <trkpt lat="44.65617" lon="5.04818">
        <ele>712</ele>
        <time>2026-05-26T09:14:49.000Z</time>
      </trkpt>
      <trkpt lat="44.65617" lon="5.04818">
        <ele>712</ele>
        <time>2026-05-26T09:14:50.000Z</time>
      </trkpt>
      <trkpt lat="44.65617" lon="5.04818">
        <ele>712</ele>
        <time>2026-05-26T09:14:51.000Z</time>
      </trkpt>
      <trkpt lat="44.65617" lon="5.04818">
        <ele>712</ele>
        <time>2026-05-26T09:14:52.000Z</time>
      </trkpt>
      <trkpt lat="44.65617" lon="5.04818">
        <ele>712</ele>
        <time>2026-05-26T09:14:53.000Z</time>
      </trkpt>
      <trkpt lat="44.65617" lon="5.04818">
        <ele>711</ele>
        <time>2026-05-26T09:14:54.000Z</time>
      </trkpt>
      <trkpt lat="44.65616" lon="5.04819">
        <ele>711</ele>
        <time>2026-05-26T09:14:55.000Z</time>
      </trkpt>
      <trkpt lat="44.65616" lon="5.0482">
        <ele>712</ele>
        <time>2026-05-26T09:14:56.000Z</time>
      </trkpt>
      <trkpt lat="44.65616" lon="5.04821">
        <ele>712</ele>
        <time>2026-05-26T09:14:57.000Z</time>
      </trkpt>
      <trkpt lat="44.65616" lon="5.04821">
        <ele>712</ele>
        <time>2026-05-26T09:14:58.000Z</time>
      </trkpt>
      <trkpt lat="44.65617" lon="5.0482">
        <ele>713</ele>
        <time>2026-05-26T09:14:59.000Z</time>
      </trkpt>
      <trkpt lat="44.65617" lon="5.04821">
        <ele>713</ele>
        <time>2026-05-26T09:15:00.000Z</time>
      </trkpt>
      <trkpt lat="44.65617" lon="5.04822">
        <ele>714</ele>
        <time>2026-05-26T09:15:01.000Z</time>
      </trkpt>
      <trkpt lat="44.65617" lon="5.04822">
        <ele>714</ele>
        <time>2026-05-26T09:15:02.000Z</time>
      </trkpt>
      <trkpt lat="44.65617" lon="5.04823">
        <ele>713</ele>
        <time>2026-05-26T09:15:03.000Z</time>
      </trkpt>
      <trkpt lat="44.65617" lon="5.04823">
        <ele>714</ele>
        <time>2026-05-26T09:15:04.000Z</time>
      </trkpt>
      <trkpt lat="44.65619" lon="5.04822">
        <ele>714</ele>
        <time>2026-05-26T09:15:05.000Z</time>
      </trkpt>
      <trkpt lat="44.65621" lon="5.04822">
        <ele>714</ele>
        <time>2026-05-26T09:15:06.000Z</time>
      </trkpt>
      <trkpt lat="44.65621" lon="5.04822">
        <ele>714</ele>
        <time>2026-05-26T09:15:07.000Z</time>
      </trkpt>
      <trkpt lat="44.65622" lon="5.04821">
        <ele>715</ele>
        <time>2026-05-26T09:15:08.000Z</time>
      </trkpt>
      <trkpt lat="44.65622" lon="5.04822">
        <ele>715</ele>
        <time>2026-05-26T09:15:09.000Z</time>
      </trkpt>
      <trkpt lat="44.65623" lon="5.04823">
        <ele>715</ele>
        <time>2026-05-26T09:15:10.000Z</time>
      </trkpt>
      <trkpt lat="44.65624" lon="5.04824">
        <ele>715</ele>
        <time>2026-05-26T09:15:11.000Z</time>
      </trkpt>
      <trkpt lat="44.65624" lon="5.04824">
        <ele>716</ele>
        <time>2026-05-26T09:15:12.000Z</time>
      </trkpt>
      <trkpt lat="44.65625" lon="5.04823">
        <ele>716</ele>
        <time>2026-05-26T09:15:13.000Z</time>
      </trkpt>
      <trkpt lat="44.65626" lon="5.04824">
        <ele>716</ele>
        <time>2026-05-26T09:15:14.000Z</time>
      </trkpt>
      <trkpt lat="44.65625" lon="5.04825">
        <ele>716</ele>
        <time>2026-05-26T09:15:15.000Z</time>
      </trkpt>
      <trkpt lat="44.65625" lon="5.04824">
        <ele>715</ele>
        <time>2026-05-26T09:15:16.000Z</time>
      </trkpt>
      <trkpt lat="44.65625" lon="5.04823">
        <ele>715</ele>
        <time>2026-05-26T09:15:17.000Z</time>
      </trkpt>
      <trkpt lat="44.65626" lon="5.04824">
        <ele>715</ele>
        <time>2026-05-26T09:15:18.000Z</time>
      </trkpt>
      <trkpt lat="44.65626" lon="5.04824">
        <ele>716</ele>
        <time>2026-05-26T09:15:19.000Z</time>
      </trkpt>
      <trkpt lat="44.65626" lon="5.04824">
        <ele>716</ele>
        <time>2026-05-26T09:15:20.000Z</time>
      </trkpt>
      <trkpt lat="44.65627" lon="5.04823">
        <ele>716</ele>
        <time>2026-05-26T09:15:21.000Z</time>
      </trkpt>
      <trkpt lat="44.65626" lon="5.04825">
        <ele>717</ele>
        <time>2026-05-26T09:15:22.000Z</time>
      </trkpt>
      <trkpt lat="44.65626" lon="5.04825">
        <ele>718</ele>
        <time>2026-05-26T09:15:23.000Z</time>
      </trkpt>
      <trkpt lat="44.65627" lon="5.04825">
        <ele>718</ele>
        <time>2026-05-26T09:15:24.000Z</time>
      </trkpt>
      <trkpt lat="44.65627" lon="5.04825">
        <ele>718</ele>
        <time>2026-05-26T09:15:25.000Z</time>
      </trkpt>
      <trkpt lat="44.65626" lon="5.04826">
        <ele>717</ele>
        <time>2026-05-26T09:15:26.000Z</time>
      </trkpt>
      <trkpt lat="44.65627" lon="5.04827">
        <ele>718</ele>
        <time>2026-05-26T09:15:27.000Z</time>
      </trkpt>
      <trkpt lat="44.65628" lon="5.04827">
        <ele>718</ele>
        <time>2026-05-26T09:15:28.000Z</time>
      </trkpt>
      <trkpt lat="44.6563" lon="5.04828">
        <ele>718</ele>
        <time>2026-05-26T09:15:29.000Z</time>
      </trkpt>
      <trkpt lat="44.65632" lon="5.04829">
        <ele>719</ele>
        <time>2026-05-26T09:15:30.000Z</time>
      </trkpt>
      <trkpt lat="44.65633" lon="5.04829">
        <ele>718</ele>
        <time>2026-05-26T09:15:31.000Z</time>
      </trkpt>
      <trkpt lat="44.65634" lon="5.0483">
        <ele>718</ele>
        <time>2026-05-26T09:15:32.000Z</time>
      </trkpt>
      <trkpt lat="44.65634" lon="5.0483">
        <ele>718</ele>
        <time>2026-05-26T09:15:33.000Z</time>
      </trkpt>
      <trkpt lat="44.65635" lon="5.04831">
        <ele>718</ele>
        <time>2026-05-26T09:15:34.000Z</time>
      </trkpt>
      <trkpt lat="44.65636" lon="5.04831">
        <ele>718</ele>
        <time>2026-05-26T09:15:35.000Z</time>
      </trkpt>
      <trkpt lat="44.65637" lon="5.04831">
        <ele>717</ele>
        <time>2026-05-26T09:15:36.000Z</time>
      </trkpt>
      <trkpt lat="44.65637" lon="5.04831">
        <ele>717</ele>
        <time>2026-05-26T09:15:37.000Z</time>
      </trkpt>
      <trkpt lat="44.65637" lon="5.0483">
        <ele>718</ele>
        <time>2026-05-26T09:15:38.000Z</time>
      </trkpt>
      <trkpt lat="44.65638" lon="5.04831">
        <ele>718</ele>
        <time>2026-05-26T09:15:39.000Z</time>
      </trkpt>
      <trkpt lat="44.65639" lon="5.04831">
        <ele>718</ele>
        <time>2026-05-26T09:15:40.000Z</time>
      </trkpt>
      <trkpt lat="44.65639" lon="5.04833">
        <ele>719</ele>
        <time>2026-05-26T09:15:41.000Z</time>
      </trkpt>
      <trkpt lat="44.65639" lon="5.04833">
        <ele>719</ele>
        <time>2026-05-26T09:15:42.000Z</time>
      </trkpt>
      <trkpt lat="44.65639" lon="5.04833">
        <ele>720</ele>
        <time>2026-05-26T09:15:43.000Z</time>
      </trkpt>
      <trkpt lat="44.65639" lon="5.04834">
        <ele>720</ele>
        <time>2026-05-26T09:15:44.000Z</time>
      </trkpt>
      <trkpt lat="44.65639" lon="5.04835">
        <ele>721</ele>
        <time>2026-05-26T09:15:45.000Z</time>
      </trkpt>
      <trkpt lat="44.65639" lon="5.04835">
        <ele>722</ele>
        <time>2026-05-26T09:15:46.000Z</time>
      </trkpt>
      <trkpt lat="44.6564" lon="5.04836">
        <ele>722</ele>
        <time>2026-05-26T09:15:47.000Z</time>
      </trkpt>
      <trkpt lat="44.6564" lon="5.04837">
        <ele>722</ele>
        <time>2026-05-26T09:15:48.000Z</time>
      </trkpt>
      <trkpt lat="44.6564" lon="5.04837">
        <ele>722</ele>
        <time>2026-05-26T09:15:49.000Z</time>
      </trkpt>
      <trkpt lat="44.65641" lon="5.04839">
        <ele>722</ele>
        <time>2026-05-26T09:15:50.000Z</time>
      </trkpt>
      <trkpt lat="44.65641" lon="5.04839">
        <ele>724</ele>
        <time>2026-05-26T09:15:51.000Z</time>
      </trkpt>
      <trkpt lat="44.65641" lon="5.04839">
        <ele>724</ele>
        <time>2026-05-26T09:15:52.000Z</time>
      </trkpt>
      <trkpt lat="44.65641" lon="5.0484">
        <ele>724</ele>
        <time>2026-05-26T09:15:53.000Z</time>
      </trkpt>
      <trkpt lat="44.65641" lon="5.0484">
        <ele>724</ele>
        <time>2026-05-26T09:15:54.000Z</time>
      </trkpt>
      <trkpt lat="44.65642" lon="5.04839">
        <ele>724</ele>
        <time>2026-05-26T09:15:55.000Z</time>
      </trkpt>
      <trkpt lat="44.65643" lon="5.04839">
        <ele>724</ele>
        <time>2026-05-26T09:15:56.000Z</time>
      </trkpt>
      <trkpt lat="44.65643" lon="5.04839">
        <ele>724</ele>
        <time>2026-05-26T09:15:57.000Z</time>
      </trkpt>
      <trkpt lat="44.65644" lon="5.04839">
        <ele>723</ele>
        <time>2026-05-26T09:15:58.000Z</time>
      </trkpt>
      <trkpt lat="44.65644" lon="5.04837">
        <ele>721</ele>
        <time>2026-05-26T09:15:59.000Z</time>
      </trkpt>
      <trkpt lat="44.65644" lon="5.04837">
        <ele>721</ele>
        <time>2026-05-26T09:16:00.000Z</time>
      </trkpt>
      <trkpt lat="44.65643" lon="5.04837">
        <ele>721</ele>
        <time>2026-05-26T09:16:01.000Z</time>
      </trkpt>
      <trkpt lat="44.65643" lon="5.04838">
        <ele>720</ele>
        <time>2026-05-26T09:16:02.000Z</time>
      </trkpt>
      <trkpt lat="44.65643" lon="5.04838">
        <ele>720</ele>
        <time>2026-05-26T09:16:03.000Z</time>
      </trkpt>
      <trkpt lat="44.65643" lon="5.04838">
        <ele>720</ele>
        <time>2026-05-26T09:16:04.000Z</time>
      </trkpt>
      <trkpt lat="44.65643" lon="5.04838">
        <ele>720</ele>
        <time>2026-05-26T09:16:05.000Z</time>
      </trkpt>
      <trkpt lat="44.65643" lon="5.04838">
        <ele>720</ele>
        <time>2026-05-26T09:16:06.000Z</time>
      </trkpt>
      <trkpt lat="44.65643" lon="5.04838">
        <ele>720</ele>
        <time>2026-05-26T09:16:07.000Z</time>
      </trkpt>
      <trkpt lat="44.65643" lon="5.04838">
        <ele>720</ele>
        <time>2026-05-26T09:16:08.000Z</time>
      </trkpt>
      <trkpt lat="44.65643" lon="5.04838">
        <ele>720</ele>
        <time>2026-05-26T09:16:09.000Z</time>
      </trkpt>
      <trkpt lat="44.65643" lon="5.04838">
        <ele>720</ele>
        <time>2026-05-26T09:16:10.000Z</time>
      </trkpt>
      <trkpt lat="44.65643" lon="5.0484">
        <ele>720</ele>
        <time>2026-05-26T09:16:11.000Z</time>
      </trkpt>
      <trkpt lat="44.65642" lon="5.04841">
        <ele>720</ele>
        <time>2026-05-26T09:16:12.000Z</time>
      </trkpt>
      <trkpt lat="44.65641" lon="5.04842">
        <ele>720</ele>
        <time>2026-05-26T09:16:13.000Z</time>
      </trkpt>
      <trkpt lat="44.65641" lon="5.04843">
        <ele>720</ele>
        <time>2026-05-26T09:16:14.000Z</time>
      </trkpt>
      <trkpt lat="44.65641" lon="5.04844">
        <ele>721</ele>
        <time>2026-05-26T09:16:15.000Z</time>
      </trkpt>
      <trkpt lat="44.65641" lon="5.04845">
        <ele>721</ele>
        <time>2026-05-26T09:16:16.000Z</time>
      </trkpt>
      <trkpt lat="44.65642" lon="5.04845">
        <ele>721</ele>
        <time>2026-05-26T09:16:17.000Z</time>
      </trkpt>
      <trkpt lat="44.65643" lon="5.04846">
        <ele>722</ele>
        <time>2026-05-26T09:16:18.000Z</time>
      </trkpt>
      <trkpt lat="44.65643" lon="5.04846">
        <ele>722</ele>
        <time>2026-05-26T09:16:19.000Z</time>
      </trkpt>
      <trkpt lat="44.65644" lon="5.04847">
        <ele>722</ele>
        <time>2026-05-26T09:16:20.000Z</time>
      </trkpt>
      <trkpt lat="44.65644" lon="5.04846">
        <ele>723</ele>
        <time>2026-05-26T09:16:21.000Z</time>
      </trkpt>
      <trkpt lat="44.65643" lon="5.04847">
        <ele>723</ele>
        <time>2026-05-26T09:16:22.000Z</time>
      </trkpt>
      <trkpt lat="44.65644" lon="5.04847">
        <ele>723</ele>
        <time>2026-05-26T09:16:23.000Z</time>
      </trkpt>
      <trkpt lat="44.65645" lon="5.04847">
        <ele>723</ele>
        <time>2026-05-26T09:16:24.000Z</time>
      </trkpt>
      <trkpt lat="44.65645" lon="5.04847">
        <ele>723</ele>
        <time>2026-05-26T09:16:25.000Z</time>
      </trkpt>
      <trkpt lat="44.65645" lon="5.04848">
        <ele>723</ele>
        <time>2026-05-26T09:16:26.000Z</time>
      </trkpt>
      <trkpt lat="44.65646" lon="5.04848">
        <ele>723</ele>
        <time>2026-05-26T09:16:27.000Z</time>
      </trkpt>
      <trkpt lat="44.65646" lon="5.04848">
        <ele>723</ele>
        <time>2026-05-26T09:16:28.000Z</time>
      </trkpt>
      <trkpt lat="44.65647" lon="5.04849">
        <ele>723</ele>
        <time>2026-05-26T09:16:29.000Z</time>
      </trkpt>
      <trkpt lat="44.65648" lon="5.04849">
        <ele>723</ele>
        <time>2026-05-26T09:16:30.000Z</time>
      </trkpt>
      <trkpt lat="44.65648" lon="5.04849">
        <ele>723</ele>
        <time>2026-05-26T09:16:31.000Z</time>
      </trkpt>
      <trkpt lat="44.65648" lon="5.04849">
        <ele>723</ele>
        <time>2026-05-26T09:16:32.000Z</time>
      </trkpt>
      <trkpt lat="44.65648" lon="5.04849">
        <ele>723</ele>
        <time>2026-05-26T09:16:33.000Z</time>
      </trkpt>
      <trkpt lat="44.65648" lon="5.04849">
        <ele>723</ele>
        <time>2026-05-26T09:16:34.000Z</time>
      </trkpt>
      <trkpt lat="44.65648" lon="5.04848">
        <ele>724</ele>
        <time>2026-05-26T09:16:35.000Z</time>
      </trkpt>
      <trkpt lat="44.65649" lon="5.04849">
        <ele>724</ele>
        <time>2026-05-26T09:16:36.000Z</time>
      </trkpt>
      <trkpt lat="44.65649" lon="5.04849">
        <ele>724</ele>
        <time>2026-05-26T09:16:37.000Z</time>
      </trkpt>
      <trkpt lat="44.65649" lon="5.04849">
        <ele>724</ele>
        <time>2026-05-26T09:16:38.000Z</time>
      </trkpt>
      <trkpt lat="44.65649" lon="5.0485">
        <ele>724</ele>
        <time>2026-05-26T09:16:39.000Z</time>
      </trkpt>
      <trkpt lat="44.6565" lon="5.04851">
        <ele>724</ele>
        <time>2026-05-26T09:16:40.000Z</time>
      </trkpt>
      <trkpt lat="44.6565" lon="5.04851">
        <ele>724</ele>
        <time>2026-05-26T09:16:41.000Z</time>
      </trkpt>
      <trkpt lat="44.6565" lon="5.04852">
        <ele>725</ele>
        <time>2026-05-26T09:16:42.000Z</time>
      </trkpt>
      <trkpt lat="44.6565" lon="5.04853">
        <ele>725</ele>
        <time>2026-05-26T09:16:43.000Z</time>
      </trkpt>
      <trkpt lat="44.6565" lon="5.04855">
        <ele>725</ele>
        <time>2026-05-26T09:16:44.000Z</time>
      </trkpt>
      <trkpt lat="44.65649" lon="5.04855">
        <ele>725</ele>
        <time>2026-05-26T09:16:45.000Z</time>
      </trkpt>
      <trkpt lat="44.6565" lon="5.04855">
        <ele>725</ele>
        <time>2026-05-26T09:16:46.000Z</time>
      </trkpt>
      <trkpt lat="44.65651" lon="5.04856">
        <ele>725</ele>
        <time>2026-05-26T09:16:47.000Z</time>
      </trkpt>
      <trkpt lat="44.65651" lon="5.04856">
        <ele>725</ele>
        <time>2026-05-26T09:16:48.000Z</time>
      </trkpt>
      <trkpt lat="44.65652" lon="5.04858">
        <ele>725</ele>
        <time>2026-05-26T09:16:49.000Z</time>
      </trkpt>
      <trkpt lat="44.65652" lon="5.04859">
        <ele>726</ele>
        <time>2026-05-26T09:16:50.000Z</time>
      </trkpt>
      <trkpt lat="44.65652" lon="5.0486">
        <ele>727</ele>
        <time>2026-05-26T09:16:51.000Z</time>
      </trkpt>
      <trkpt lat="44.65652" lon="5.0486">
        <ele>727</ele>
        <time>2026-05-26T09:16:52.000Z</time>
      </trkpt>
      <trkpt lat="44.65651" lon="5.04859">
        <ele>728</ele>
        <time>2026-05-26T09:16:53.000Z</time>
      </trkpt>
      <trkpt lat="44.6565" lon="5.0486">
        <ele>728</ele>
        <time>2026-05-26T09:16:54.000Z</time>
      </trkpt>
      <trkpt lat="44.6565" lon="5.04862">
        <ele>728</ele>
        <time>2026-05-26T09:16:55.000Z</time>
      </trkpt>
      <trkpt lat="44.65649" lon="5.04863">
        <ele>728</ele>
        <time>2026-05-26T09:16:56.000Z</time>
      </trkpt>
      <trkpt lat="44.65649" lon="5.04864">
        <ele>729</ele>
        <time>2026-05-26T09:16:57.000Z</time>
      </trkpt>
      <trkpt lat="44.6565" lon="5.04863">
        <ele>729</ele>
        <time>2026-05-26T09:16:58.000Z</time>
      </trkpt>
      <trkpt lat="44.6565" lon="5.04863">
        <ele>729</ele>
        <time>2026-05-26T09:16:59.000Z</time>
      </trkpt>
      <trkpt lat="44.65652" lon="5.04864">
        <ele>729</ele>
        <time>2026-05-26T09:17:00.000Z</time>
      </trkpt>
      <trkpt lat="44.65651" lon="5.04864">
        <ele>730</ele>
        <time>2026-05-26T09:17:01.000Z</time>
      </trkpt>
      <trkpt lat="44.65652" lon="5.04864">
        <ele>730</ele>
        <time>2026-05-26T09:17:02.000Z</time>
      </trkpt>
      <trkpt lat="44.65652" lon="5.04865">
        <ele>730</ele>
        <time>2026-05-26T09:17:03.000Z</time>
      </trkpt>
      <trkpt lat="44.65651" lon="5.04866">
        <ele>730</ele>
        <time>2026-05-26T09:17:04.000Z</time>
      </trkpt>
      <trkpt lat="44.65651" lon="5.04868">
        <ele>730</ele>
        <time>2026-05-26T09:17:05.000Z</time>
      </trkpt>
      <trkpt lat="44.65652" lon="5.04867">
        <ele>731</ele>
        <time>2026-05-26T09:17:06.000Z</time>
      </trkpt>
      <trkpt lat="44.65653" lon="5.04867">
        <ele>730</ele>
        <time>2026-05-26T09:17:07.000Z</time>
      </trkpt>
      <trkpt lat="44.65654" lon="5.04867">
        <ele>731</ele>
        <time>2026-05-26T09:17:08.000Z</time>
      </trkpt>
      <trkpt lat="44.65653" lon="5.04866">
        <ele>730</ele>
        <time>2026-05-26T09:17:09.000Z</time>
      </trkpt>
      <trkpt lat="44.65653" lon="5.04866">
        <ele>731</ele>
        <time>2026-05-26T09:17:10.000Z</time>
      </trkpt>
      <trkpt lat="44.65653" lon="5.04867">
        <ele>731</ele>
        <time>2026-05-26T09:17:11.000Z</time>
      </trkpt>
      <trkpt lat="44.65653" lon="5.04867">
        <ele>732</ele>
        <time>2026-05-26T09:17:12.000Z</time>
      </trkpt>
      <trkpt lat="44.65652" lon="5.04868">
        <ele>732</ele>
        <time>2026-05-26T09:17:13.000Z</time>
      </trkpt>
      <trkpt lat="44.65652" lon="5.0487">
        <ele>732</ele>
        <time>2026-05-26T09:17:14.000Z</time>
      </trkpt>
      <trkpt lat="44.65651" lon="5.04869">
        <ele>731</ele>
        <time>2026-05-26T09:17:15.000Z</time>
      </trkpt>
      <trkpt lat="44.6565" lon="5.04869">
        <ele>732</ele>
        <time>2026-05-26T09:17:16.000Z</time>
      </trkpt>
      <trkpt lat="44.65651" lon="5.0487">
        <ele>732</ele>
        <time>2026-05-26T09:17:17.000Z</time>
      </trkpt>
      <trkpt lat="44.65651" lon="5.0487">
        <ele>732</ele>
        <time>2026-05-26T09:17:18.000Z</time>
      </trkpt>
      <trkpt lat="44.65653" lon="5.0487">
        <ele>733</ele>
        <time>2026-05-26T09:17:19.000Z</time>
      </trkpt>
      <trkpt lat="44.65654" lon="5.04871">
        <ele>733</ele>
        <time>2026-05-26T09:17:20.000Z</time>
      </trkpt>
      <trkpt lat="44.65654" lon="5.04872">
        <ele>733</ele>
        <time>2026-05-26T09:17:21.000Z</time>
      </trkpt>
      <trkpt lat="44.65656" lon="5.04874">
        <ele>733</ele>
        <time>2026-05-26T09:17:22.000Z</time>
      </trkpt>
      <trkpt lat="44.65655" lon="5.04876">
        <ele>734</ele>
        <time>2026-05-26T09:17:23.000Z</time>
      </trkpt>
      <trkpt lat="44.65655" lon="5.04877">
        <ele>734</ele>
        <time>2026-05-26T09:17:24.000Z</time>
      </trkpt>
      <trkpt lat="44.65654" lon="5.04877">
        <ele>734</ele>
        <time>2026-05-26T09:17:25.000Z</time>
      </trkpt>
      <trkpt lat="44.65654" lon="5.04877">
        <ele>735</ele>
        <time>2026-05-26T09:17:26.000Z</time>
      </trkpt>
      <trkpt lat="44.65653" lon="5.04878">
        <ele>735</ele>
        <time>2026-05-26T09:17:27.000Z</time>
      </trkpt>
      <trkpt lat="44.65653" lon="5.04879">
        <ele>735</ele>
        <time>2026-05-26T09:17:28.000Z</time>
      </trkpt>
      <trkpt lat="44.65652" lon="5.0488">
        <ele>736</ele>
        <time>2026-05-26T09:17:29.000Z</time>
      </trkpt>
      <trkpt lat="44.65651" lon="5.0488">
        <ele>737</ele>
        <time>2026-05-26T09:17:30.000Z</time>
      </trkpt>
      <trkpt lat="44.6565" lon="5.04879">
        <ele>737</ele>
        <time>2026-05-26T09:17:31.000Z</time>
      </trkpt>
      <trkpt lat="44.65651" lon="5.04879">
        <ele>737</ele>
        <time>2026-05-26T09:17:32.000Z</time>
      </trkpt>
      <trkpt lat="44.6565" lon="5.04879">
        <ele>738</ele>
        <time>2026-05-26T09:17:33.000Z</time>
      </trkpt>
      <trkpt lat="44.6565" lon="5.0488">
        <ele>738</ele>
        <time>2026-05-26T09:17:34.000Z</time>
      </trkpt>
      <trkpt lat="44.65651" lon="5.04881">
        <ele>738</ele>
        <time>2026-05-26T09:17:35.000Z</time>
      </trkpt>
      <trkpt lat="44.6565" lon="5.04882">
        <ele>738</ele>
        <time>2026-05-26T09:17:36.000Z</time>
      </trkpt>
      <trkpt lat="44.65649" lon="5.04883">
        <ele>738</ele>
        <time>2026-05-26T09:17:37.000Z</time>
      </trkpt>
      <trkpt lat="44.65647" lon="5.04883">
        <ele>739</ele>
        <time>2026-05-26T09:17:38.000Z</time>
      </trkpt>
      <trkpt lat="44.65647" lon="5.04884">
        <ele>740</ele>
        <time>2026-05-26T09:17:39.000Z</time>
      </trkpt>
      <trkpt lat="44.65646" lon="5.04885">
        <ele>740</ele>
        <time>2026-05-26T09:17:40.000Z</time>
      </trkpt>
      <trkpt lat="44.65645" lon="5.04884">
        <ele>741</ele>
        <time>2026-05-26T09:17:41.000Z</time>
      </trkpt>
      <trkpt lat="44.65645" lon="5.04884">
        <ele>741</ele>
        <time>2026-05-26T09:17:42.000Z</time>
      </trkpt>
      <trkpt lat="44.65645" lon="5.04885">
        <ele>741</ele>
        <time>2026-05-26T09:17:43.000Z</time>
      </trkpt>
      <trkpt lat="44.65646" lon="5.04885">
        <ele>742</ele>
        <time>2026-05-26T09:17:44.000Z</time>
      </trkpt>
      <trkpt lat="44.65647" lon="5.04885">
        <ele>742</ele>
        <time>2026-05-26T09:17:45.000Z</time>
      </trkpt>
      <trkpt lat="44.65647" lon="5.04886">
        <ele>741</ele>
        <time>2026-05-26T09:17:46.000Z</time>
      </trkpt>
      <trkpt lat="44.65647" lon="5.04886">
        <ele>741</ele>
        <time>2026-05-26T09:17:47.000Z</time>
      </trkpt>
      <trkpt lat="44.65645" lon="5.04888">
        <ele>742</ele>
        <time>2026-05-26T09:17:48.000Z</time>
      </trkpt>
      <trkpt lat="44.65644" lon="5.04889">
        <ele>741</ele>
        <time>2026-05-26T09:17:49.000Z</time>
      </trkpt>
      <trkpt lat="44.65644" lon="5.04889">
        <ele>741</ele>
        <time>2026-05-26T09:17:50.000Z</time>
      </trkpt>
      <trkpt lat="44.65643" lon="5.04888">
        <ele>741</ele>
        <time>2026-05-26T09:17:51.000Z</time>
      </trkpt>
      <trkpt lat="44.65642" lon="5.04886">
        <ele>741</ele>
        <time>2026-05-26T09:17:52.000Z</time>
      </trkpt>
      <trkpt lat="44.65642" lon="5.04885">
        <ele>742</ele>
        <time>2026-05-26T09:17:53.000Z</time>
      </trkpt>
      <trkpt lat="44.65641" lon="5.04886">
        <ele>742</ele>
        <time>2026-05-26T09:17:54.000Z</time>
      </trkpt>
      <trkpt lat="44.6564" lon="5.04888">
        <ele>742</ele>
        <time>2026-05-26T09:17:55.000Z</time>
      </trkpt>
      <trkpt lat="44.65639" lon="5.04888">
        <ele>743</ele>
        <time>2026-05-26T09:17:56.000Z</time>
      </trkpt>
      <trkpt lat="44.6564" lon="5.04889">
        <ele>743</ele>
        <time>2026-05-26T09:17:57.000Z</time>
      </trkpt>
      <trkpt lat="44.65641" lon="5.04891">
        <ele>743</ele>
        <time>2026-05-26T09:17:58.000Z</time>
      </trkpt>
      <trkpt lat="44.65641" lon="5.04894">
        <ele>742</ele>
        <time>2026-05-26T09:17:59.000Z</time>
      </trkpt>
      <trkpt lat="44.65638" lon="5.04895">
        <ele>743</ele>
        <time>2026-05-26T09:18:00.000Z</time>
      </trkpt>
      <trkpt lat="44.65636" lon="5.04896">
        <ele>744</ele>
        <time>2026-05-26T09:18:01.000Z</time>
      </trkpt>
      <trkpt lat="44.65634" lon="5.04896">
        <ele>744</ele>
        <time>2026-05-26T09:18:02.000Z</time>
      </trkpt>
      <trkpt lat="44.65633" lon="5.04897">
        <ele>744</ele>
        <time>2026-05-26T09:18:03.000Z</time>
      </trkpt>
      <trkpt lat="44.65632" lon="5.04897">
        <ele>745</ele>
        <time>2026-05-26T09:18:04.000Z</time>
      </trkpt>
      <trkpt lat="44.65631" lon="5.04897">
        <ele>745</ele>
        <time>2026-05-26T09:18:05.000Z</time>
      </trkpt>
      <trkpt lat="44.65631" lon="5.04897">
        <ele>745</ele>
        <time>2026-05-26T09:18:06.000Z</time>
      </trkpt>
      <trkpt lat="44.65631" lon="5.04896">
        <ele>745</ele>
        <time>2026-05-26T09:18:07.000Z</time>
      </trkpt>
      <trkpt lat="44.65633" lon="5.04897">
        <ele>745</ele>
        <time>2026-05-26T09:18:08.000Z</time>
      </trkpt>
      <trkpt lat="44.65635" lon="5.04897">
        <ele>745</ele>
        <time>2026-05-26T09:18:09.000Z</time>
      </trkpt>
      <trkpt lat="44.65637" lon="5.04898">
        <ele>745</ele>
        <time>2026-05-26T09:18:10.000Z</time>
      </trkpt>
      <trkpt lat="44.65638" lon="5.04898">
        <ele>746</ele>
        <time>2026-05-26T09:18:11.000Z</time>
      </trkpt>
      <trkpt lat="44.6564" lon="5.04899">
        <ele>746</ele>
        <time>2026-05-26T09:18:12.000Z</time>
      </trkpt>
      <trkpt lat="44.6564" lon="5.04899">
        <ele>746</ele>
        <time>2026-05-26T09:18:13.000Z</time>
      </trkpt>
      <trkpt lat="44.65641" lon="5.049">
        <ele>746</ele>
        <time>2026-05-26T09:18:14.000Z</time>
      </trkpt>
      <trkpt lat="44.65643" lon="5.04899">
        <ele>747</ele>
        <time>2026-05-26T09:18:15.000Z</time>
      </trkpt>
      <trkpt lat="44.65645" lon="5.049">
        <ele>746</ele>
        <time>2026-05-26T09:18:16.000Z</time>
      </trkpt>
      <trkpt lat="44.65647" lon="5.049">
        <ele>747</ele>
        <time>2026-05-26T09:18:17.000Z</time>
      </trkpt>
      <trkpt lat="44.65647" lon="5.04899">
        <ele>747</ele>
        <time>2026-05-26T09:18:18.000Z</time>
      </trkpt>
      <trkpt lat="44.65648" lon="5.04899">
        <ele>747</ele>
        <time>2026-05-26T09:18:19.000Z</time>
      </trkpt>
      <trkpt lat="44.65649" lon="5.04898">
        <ele>747</ele>
        <time>2026-05-26T09:18:20.000Z</time>
      </trkpt>
      <trkpt lat="44.65649" lon="5.04898">
        <ele>747</ele>
        <time>2026-05-26T09:18:21.000Z</time>
      </trkpt>
      <trkpt lat="44.65648" lon="5.049">
        <ele>747</ele>
        <time>2026-05-26T09:18:22.000Z</time>
      </trkpt>
      <trkpt lat="44.65648" lon="5.04901">
        <ele>747</ele>
        <time>2026-05-26T09:18:23.000Z</time>
      </trkpt>
      <trkpt lat="44.65649" lon="5.04902">
        <ele>748</ele>
        <time>2026-05-26T09:18:24.000Z</time>
      </trkpt>
      <trkpt lat="44.6565" lon="5.04903">
        <ele>747</ele>
        <time>2026-05-26T09:18:25.000Z</time>
      </trkpt>
      <trkpt lat="44.6565" lon="5.04903">
        <ele>747</ele>
        <time>2026-05-26T09:18:26.000Z</time>
      </trkpt>
      <trkpt lat="44.6565" lon="5.04903">
        <ele>748</ele>
        <time>2026-05-26T09:18:27.000Z</time>
      </trkpt>
      <trkpt lat="44.6565" lon="5.04903">
        <ele>748</ele>
        <time>2026-05-26T09:18:28.000Z</time>
      </trkpt>
      <trkpt lat="44.6565" lon="5.04903">
        <ele>748</ele>
        <time>2026-05-26T09:18:29.000Z</time>
      </trkpt>
      <trkpt lat="44.65651" lon="5.04903">
        <ele>747</ele>
        <time>2026-05-26T09:18:30.000Z</time>
      </trkpt>
      <trkpt lat="44.65652" lon="5.04904">
        <ele>747</ele>
        <time>2026-05-26T09:18:31.000Z</time>
      </trkpt>
      <trkpt lat="44.65652" lon="5.04904">
        <ele>747</ele>
        <time>2026-05-26T09:18:32.000Z</time>
      </trkpt>
      <trkpt lat="44.65652" lon="5.04904">
        <ele>747</ele>
        <time>2026-05-26T09:18:33.000Z</time>
      </trkpt>
      <trkpt lat="44.65652" lon="5.04903">
        <ele>747</ele>
        <time>2026-05-26T09:18:34.000Z</time>
      </trkpt>
      <trkpt lat="44.65652" lon="5.04904">
        <ele>747</ele>
        <time>2026-05-26T09:18:35.000Z</time>
      </trkpt>
      <trkpt lat="44.65652" lon="5.04903">
        <ele>747</ele>
        <time>2026-05-26T09:18:36.000Z</time>
      </trkpt>
      <trkpt lat="44.65652" lon="5.04903">
        <ele>747</ele>
        <time>2026-05-26T09:18:37.000Z</time>
      </trkpt>
      <trkpt lat="44.65652" lon="5.04903">
        <ele>747</ele>
        <time>2026-05-26T09:18:38.000Z</time>
      </trkpt>
      <trkpt lat="44.65652" lon="5.04903">
        <ele>747</ele>
        <time>2026-05-26T09:18:39.000Z</time>
      </trkpt>
      <trkpt lat="44.65652" lon="5.04903">
        <ele>747</ele>
        <time>2026-05-26T09:18:40.000Z</time>
      </trkpt>
      <trkpt lat="44.65652" lon="5.04903">
        <ele>747</ele>
        <time>2026-05-26T09:18:41.000Z</time>
      </trkpt>
      <trkpt lat="44.65652" lon="5.04903">
        <ele>747</ele>
        <time>2026-05-26T09:18:42.000Z</time>
      </trkpt>
      <trkpt lat="44.65652" lon="5.04903">
        <ele>747</ele>
        <time>2026-05-26T09:18:43.000Z</time>
      </trkpt>
      <trkpt lat="44.65652" lon="5.04903">
        <ele>747</ele>
        <time>2026-05-26T09:18:44.000Z</time>
      </trkpt>
      <trkpt lat="44.65652" lon="5.04903">
        <ele>747</ele>
        <time>2026-05-26T09:18:45.000Z</time>
      </trkpt>
      <trkpt lat="44.65652" lon="5.04903">
        <ele>747</ele>
        <time>2026-05-26T09:18:46.000Z</time>
      </trkpt>
      <trkpt lat="44.65652" lon="5.04903">
        <ele>747</ele>
        <time>2026-05-26T09:18:47.000Z</time>
      </trkpt>
      <trkpt lat="44.65652" lon="5.04903">
        <ele>747</ele>
        <time>2026-05-26T09:18:48.000Z</time>
      </trkpt>
      <trkpt lat="44.65652" lon="5.04903">
        <ele>747</ele>
        <time>2026-05-26T09:18:49.000Z</time>
      </trkpt>
      <trkpt lat="44.65652" lon="5.04903">
        <ele>747</ele>
        <time>2026-05-26T09:18:50.000Z</time>
      </trkpt>
      <trkpt lat="44.65651" lon="5.04903">
        <ele>747</ele>
        <time>2026-05-26T09:18:51.000Z</time>
      </trkpt>
      <trkpt lat="44.65652" lon="5.04902">
        <ele>746</ele>
        <time>2026-05-26T09:18:52.000Z</time>
      </trkpt>
      <trkpt lat="44.65652" lon="5.04902">
        <ele>746</ele>
        <time>2026-05-26T09:18:53.000Z</time>
      </trkpt>
      <trkpt lat="44.65652" lon="5.04902">
        <ele>746</ele>
        <time>2026-05-26T09:18:54.000Z</time>
      </trkpt>
      <trkpt lat="44.65652" lon="5.04902">
        <ele>746</ele>
        <time>2026-05-26T09:18:55.000Z</time>
      </trkpt>
      <trkpt lat="44.65652" lon="5.04902">
        <ele>746</ele>
        <time>2026-05-26T09:18:56.000Z</time>
      </trkpt>
      <trkpt lat="44.65652" lon="5.04902">
        <ele>746</ele>
        <time>2026-05-26T09:18:57.000Z</time>
      </trkpt>
      <trkpt lat="44.65652" lon="5.04902">
        <ele>746</ele>
        <time>2026-05-26T09:18:58.000Z</time>
      </trkpt>
      <trkpt lat="44.65652" lon="5.04902">
        <ele>746</ele>
        <time>2026-05-26T09:18:59.000Z</time>
      </trkpt>
      <trkpt lat="44.65652" lon="5.04902">
        <ele>746</ele>
        <time>2026-05-26T09:19:00.000Z</time>
      </trkpt>
      <trkpt lat="44.65652" lon="5.04902">
        <ele>746</ele>
        <time>2026-05-26T09:19:01.000Z</time>
      </trkpt>
      <trkpt lat="44.65652" lon="5.04902">
        <ele>746</ele>
        <time>2026-05-26T09:19:02.000Z</time>
      </trkpt>
      <trkpt lat="44.65652" lon="5.04902">
        <ele>746</ele>
        <time>2026-05-26T09:19:03.000Z</time>
      </trkpt>
      <trkpt lat="44.65652" lon="5.04902">
        <ele>746</ele>
        <time>2026-05-26T09:19:04.000Z</time>
      </trkpt>
      <trkpt lat="44.65652" lon="5.04902">
        <ele>746</ele>
        <time>2026-05-26T09:19:05.000Z</time>
      </trkpt>
      <trkpt lat="44.65652" lon="5.04902">
        <ele>746</ele>
        <time>2026-05-26T09:19:06.000Z</time>
      </trkpt>
      <trkpt lat="44.65652" lon="5.04902">
        <ele>746</ele>
        <time>2026-05-26T09:19:07.000Z</time>
      </trkpt>
      <trkpt lat="44.65652" lon="5.04902">
        <ele>746</ele>
        <time>2026-05-26T09:19:08.000Z</time>
      </trkpt>
      <trkpt lat="44.65652" lon="5.04902">
        <ele>746</ele>
        <time>2026-05-26T09:19:09.000Z</time>
      </trkpt>
      <trkpt lat="44.65652" lon="5.04902">
        <ele>746</ele>
        <time>2026-05-26T09:19:10.000Z</time>
      </trkpt>
      <trkpt lat="44.65652" lon="5.04902">
        <ele>746</ele>
        <time>2026-05-26T09:19:11.000Z</time>
      </trkpt>
      <trkpt lat="44.65652" lon="5.04902">
        <ele>746</ele>
        <time>2026-05-26T09:19:12.000Z</time>
      </trkpt>
      <trkpt lat="44.65652" lon="5.04902">
        <ele>746</ele>
        <time>2026-05-26T09:19:13.000Z</time>
      </trkpt>
      <trkpt lat="44.65652" lon="5.04902">
        <ele>747</ele>
        <time>2026-05-26T09:19:14.000Z</time>
      </trkpt>
      <trkpt lat="44.65652" lon="5.04902">
        <ele>747</ele>
        <time>2026-05-26T09:19:15.000Z</time>
      </trkpt>
      <trkpt lat="44.65652" lon="5.04902">
        <ele>747</ele>
        <time>2026-05-26T09:19:16.000Z</time>
      </trkpt>
      <trkpt lat="44.65652" lon="5.04902">
        <ele>747</ele>
        <time>2026-05-26T09:19:17.000Z</time>
      </trkpt>
      <trkpt lat="44.65652" lon="5.04902">
        <ele>747</ele>
        <time>2026-05-26T09:19:18.000Z</time>
      </trkpt>
      <trkpt lat="44.65652" lon="5.04902">
        <ele>747</ele>
        <time>2026-05-26T09:19:19.000Z</time>
      </trkpt>
      <trkpt lat="44.65652" lon="5.04902">
        <ele>747</ele>
        <time>2026-05-26T09:19:20.000Z</time>
      </trkpt>
      <trkpt lat="44.65652" lon="5.04902">
        <ele>747</ele>
        <time>2026-05-26T09:19:21.000Z</time>
      </trkpt>
      <trkpt lat="44.65652" lon="5.04902">
        <ele>747</ele>
        <time>2026-05-26T09:19:22.000Z</time>
      </trkpt>
      <trkpt lat="44.65652" lon="5.04902">
        <ele>747</ele>
        <time>2026-05-26T09:19:23.000Z</time>
      </trkpt>
      <trkpt lat="44.65652" lon="5.04902">
        <ele>747</ele>
        <time>2026-05-26T09:19:24.000Z</time>
      </trkpt>
      <trkpt lat="44.65652" lon="5.04902">
        <ele>747</ele>
        <time>2026-05-26T09:19:25.000Z</time>
      </trkpt>
      <trkpt lat="44.65652" lon="5.04902">
        <ele>747</ele>
        <time>2026-05-26T09:19:26.000Z</time>
      </trkpt>
      <trkpt lat="44.65652" lon="5.04902">
        <ele>747</ele>
        <time>2026-05-26T09:19:27.000Z</time>
      </trkpt>
      <trkpt lat="44.65652" lon="5.04902">
        <ele>747</ele>
        <time>2026-05-26T09:19:28.000Z</time>
      </trkpt>
      <trkpt lat="44.65652" lon="5.04902">
        <ele>747</ele>
        <time>2026-05-26T09:19:29.000Z</time>
      </trkpt>
      <trkpt lat="44.65652" lon="5.04902">
        <ele>747</ele>
        <time>2026-05-26T09:19:30.000Z</time>
      </trkpt>
      <trkpt lat="44.65652" lon="5.04902">
        <ele>747</ele>
        <time>2026-05-26T09:19:31.000Z</time>
      </trkpt>
      <trkpt lat="44.65652" lon="5.04902">
        <ele>747</ele>
        <time>2026-05-26T09:19:32.000Z</time>
      </trkpt>
      <trkpt lat="44.65653" lon="5.04901">
        <ele>747</ele>
        <time>2026-05-26T09:19:33.000Z</time>
      </trkpt>
      <trkpt lat="44.65653" lon="5.04901">
        <ele>747</ele>
        <time>2026-05-26T09:19:34.000Z</time>
      </trkpt>
      <trkpt lat="44.65653" lon="5.04901">
        <ele>747</ele>
        <time>2026-05-26T09:19:35.000Z</time>
      </trkpt>
      <trkpt lat="44.65653" lon="5.04901">
        <ele>747</ele>
        <time>2026-05-26T09:19:36.000Z</time>
      </trkpt>
      <trkpt lat="44.65653" lon="5.04901">
        <ele>747</ele>
        <time>2026-05-26T09:19:37.000Z</time>
      </trkpt>
      <trkpt lat="44.65653" lon="5.04901">
        <ele>747</ele>
        <time>2026-05-26T09:19:38.000Z</time>
      </trkpt>
      <trkpt lat="44.65653" lon="5.04901">
        <ele>747</ele>
        <time>2026-05-26T09:19:39.000Z</time>
      </trkpt>
      <trkpt lat="44.65653" lon="5.04901">
        <ele>747</ele>
        <time>2026-05-26T09:19:40.000Z</time>
      </trkpt>
      <trkpt lat="44.65653" lon="5.04902">
        <ele>746</ele>
        <time>2026-05-26T09:19:41.000Z</time>
      </trkpt>
      <trkpt lat="44.65652" lon="5.049">
        <ele>746</ele>
        <time>2026-05-26T09:19:42.000Z</time>
      </trkpt>
      <trkpt lat="44.65653" lon="5.04901">
        <ele>746</ele>
        <time>2026-05-26T09:19:43.000Z</time>
      </trkpt>
      <trkpt lat="44.65654" lon="5.049">
        <ele>745</ele>
        <time>2026-05-26T09:19:44.000Z</time>
      </trkpt>
      <trkpt lat="44.65654" lon="5.049">
        <ele>745</ele>
        <time>2026-05-26T09:19:45.000Z</time>
      </trkpt>
      <trkpt lat="44.65653" lon="5.04899">
        <ele>747</ele>
        <time>2026-05-26T09:19:46.000Z</time>
      </trkpt>
      <trkpt lat="44.65653" lon="5.049">
        <ele>747</ele>
        <time>2026-05-26T09:19:47.000Z</time>
      </trkpt>
      <trkpt lat="44.65653" lon="5.049">
        <ele>747</ele>
        <time>2026-05-26T09:19:48.000Z</time>
      </trkpt>
      <trkpt lat="44.65653" lon="5.049">
        <ele>747</ele>
        <time>2026-05-26T09:19:49.000Z</time>
      </trkpt>
      <trkpt lat="44.65653" lon="5.049">
        <ele>747</ele>
        <time>2026-05-26T09:19:50.000Z</time>
      </trkpt>
      <trkpt lat="44.65653" lon="5.049">
        <ele>747</ele>
        <time>2026-05-26T09:19:51.000Z</time>
      </trkpt>
      <trkpt lat="44.65653" lon="5.049">
        <ele>747</ele>
        <time>2026-05-26T09:19:52.000Z</time>
      </trkpt>
      <trkpt lat="44.65653" lon="5.049">
        <ele>747</ele>
        <time>2026-05-26T09:19:53.000Z</time>
      </trkpt>
      <trkpt lat="44.65653" lon="5.049">
        <ele>747</ele>
        <time>2026-05-26T09:19:54.000Z</time>
      </trkpt>
      <trkpt lat="44.65655" lon="5.049">
        <ele>751</ele>
        <time>2026-05-26T09:19:55.000Z</time>
      </trkpt>
      <trkpt lat="44.65656" lon="5.049">
        <ele>750</ele>
        <time>2026-05-26T09:19:56.000Z</time>
      </trkpt>
      <trkpt lat="44.65658" lon="5.04902">
        <ele>749</ele>
        <time>2026-05-26T09:19:57.000Z</time>
      </trkpt>
      <trkpt lat="44.65659" lon="5.04903">
        <ele>749</ele>
        <time>2026-05-26T09:19:58.000Z</time>
      </trkpt>
      <trkpt lat="44.65659" lon="5.04901">
        <ele>749</ele>
        <time>2026-05-26T09:19:59.000Z</time>
      </trkpt>
      <trkpt lat="44.6566" lon="5.049">
        <ele>748</ele>
        <time>2026-05-26T09:20:00.000Z</time>
      </trkpt>
      <trkpt lat="44.65661" lon="5.049">
        <ele>748</ele>
        <time>2026-05-26T09:20:01.000Z</time>
      </trkpt>
      <trkpt lat="44.65661" lon="5.04899">
        <ele>749</ele>
        <time>2026-05-26T09:20:02.000Z</time>
      </trkpt>
      <trkpt lat="44.65662" lon="5.04899">
        <ele>749</ele>
        <time>2026-05-26T09:20:03.000Z</time>
      </trkpt>
      <trkpt lat="44.65662" lon="5.04899">
        <ele>749</ele>
        <time>2026-05-26T09:20:04.000Z</time>
      </trkpt>
      <trkpt lat="44.65662" lon="5.04899">
        <ele>749</ele>
        <time>2026-05-26T09:20:05.000Z</time>
      </trkpt>
      <trkpt lat="44.65663" lon="5.04898">
        <ele>749</ele>
        <time>2026-05-26T09:20:06.000Z</time>
      </trkpt>
      <trkpt lat="44.65663" lon="5.04897">
        <ele>749</ele>
        <time>2026-05-26T09:20:07.000Z</time>
      </trkpt>
      <trkpt lat="44.65663" lon="5.04897">
        <ele>748</ele>
        <time>2026-05-26T09:20:08.000Z</time>
      </trkpt>
      <trkpt lat="44.65663" lon="5.04897">
        <ele>748</ele>
        <time>2026-05-26T09:20:09.000Z</time>
      </trkpt>
      <trkpt lat="44.65663" lon="5.04898">
        <ele>748</ele>
        <time>2026-05-26T09:20:10.000Z</time>
      </trkpt>
      <trkpt lat="44.65663" lon="5.04898">
        <ele>748</ele>
        <time>2026-05-26T09:20:11.000Z</time>
      </trkpt>
      <trkpt lat="44.65662" lon="5.04898">
        <ele>748</ele>
        <time>2026-05-26T09:20:12.000Z</time>
      </trkpt>
      <trkpt lat="44.65663" lon="5.04898">
        <ele>749</ele>
        <time>2026-05-26T09:20:13.000Z</time>
      </trkpt>
      <trkpt lat="44.65663" lon="5.04898">
        <ele>748</ele>
        <time>2026-05-26T09:20:14.000Z</time>
      </trkpt>
      <trkpt lat="44.65663" lon="5.04898">
        <ele>749</ele>
        <time>2026-05-26T09:20:15.000Z</time>
      </trkpt>
      <trkpt lat="44.65663" lon="5.04899">
        <ele>750</ele>
        <time>2026-05-26T09:20:16.000Z</time>
      </trkpt>
      <trkpt lat="44.65664" lon="5.049">
        <ele>750</ele>
        <time>2026-05-26T09:20:17.000Z</time>
      </trkpt>
      <trkpt lat="44.65663" lon="5.04901">
        <ele>749</ele>
        <time>2026-05-26T09:20:18.000Z</time>
      </trkpt>
      <trkpt lat="44.65662" lon="5.04903">
        <ele>749</ele>
        <time>2026-05-26T09:20:19.000Z</time>
      </trkpt>
      <trkpt lat="44.65661" lon="5.04905">
        <ele>750</ele>
        <time>2026-05-26T09:20:20.000Z</time>
      </trkpt>
      <trkpt lat="44.65661" lon="5.04906">
        <ele>750</ele>
        <time>2026-05-26T09:20:21.000Z</time>
      </trkpt>
      <trkpt lat="44.65661" lon="5.04907">
        <ele>750</ele>
        <time>2026-05-26T09:20:22.000Z</time>
      </trkpt>
      <trkpt lat="44.65663" lon="5.04906">
        <ele>751</ele>
        <time>2026-05-26T09:20:23.000Z</time>
      </trkpt>
      <trkpt lat="44.65664" lon="5.04907">
        <ele>751</ele>
        <time>2026-05-26T09:20:24.000Z</time>
      </trkpt>
      <trkpt lat="44.65665" lon="5.04907">
        <ele>752</ele>
        <time>2026-05-26T09:20:25.000Z</time>
      </trkpt>
      <trkpt lat="44.65666" lon="5.04907">
        <ele>752</ele>
        <time>2026-05-26T09:20:26.000Z</time>
      </trkpt>
      <trkpt lat="44.65667" lon="5.04906">
        <ele>752</ele>
        <time>2026-05-26T09:20:27.000Z</time>
      </trkpt>
      <trkpt lat="44.65669" lon="5.04906">
        <ele>752</ele>
        <time>2026-05-26T09:20:28.000Z</time>
      </trkpt>
      <trkpt lat="44.65668" lon="5.04907">
        <ele>753</ele>
        <time>2026-05-26T09:20:29.000Z</time>
      </trkpt>
      <trkpt lat="44.65667" lon="5.04908">
        <ele>753</ele>
        <time>2026-05-26T09:20:30.000Z</time>
      </trkpt>
      <trkpt lat="44.65666" lon="5.04907">
        <ele>753</ele>
        <time>2026-05-26T09:20:31.000Z</time>
      </trkpt>
      <trkpt lat="44.65666" lon="5.04907">
        <ele>752</ele>
        <time>2026-05-26T09:20:32.000Z</time>
      </trkpt>
      <trkpt lat="44.65668" lon="5.04907">
        <ele>753</ele>
        <time>2026-05-26T09:20:33.000Z</time>
      </trkpt>
      <trkpt lat="44.65669" lon="5.04907">
        <ele>753</ele>
        <time>2026-05-26T09:20:34.000Z</time>
      </trkpt>
      <trkpt lat="44.6567" lon="5.04908">
        <ele>753</ele>
        <time>2026-05-26T09:20:35.000Z</time>
      </trkpt>
      <trkpt lat="44.6567" lon="5.04908">
        <ele>753</ele>
        <time>2026-05-26T09:20:36.000Z</time>
      </trkpt>
      <trkpt lat="44.65671" lon="5.04908">
        <ele>753</ele>
        <time>2026-05-26T09:20:37.000Z</time>
      </trkpt>
      <trkpt lat="44.65672" lon="5.04908">
        <ele>753</ele>
        <time>2026-05-26T09:20:38.000Z</time>
      </trkpt>
      <trkpt lat="44.65672" lon="5.04909">
        <ele>753</ele>
        <time>2026-05-26T09:20:39.000Z</time>
      </trkpt>
      <trkpt lat="44.65673" lon="5.0491">
        <ele>753</ele>
        <time>2026-05-26T09:20:40.000Z</time>
      </trkpt>
      <trkpt lat="44.65674" lon="5.0491">
        <ele>753</ele>
        <time>2026-05-26T09:20:41.000Z</time>
      </trkpt>
      <trkpt lat="44.65674" lon="5.0491">
        <ele>753</ele>
        <time>2026-05-26T09:20:42.000Z</time>
      </trkpt>
      <trkpt lat="44.65676" lon="5.04911">
        <ele>754</ele>
        <time>2026-05-26T09:20:43.000Z</time>
      </trkpt>
      <trkpt lat="44.65676" lon="5.04912">
        <ele>754</ele>
        <time>2026-05-26T09:20:44.000Z</time>
      </trkpt>
      <trkpt lat="44.65676" lon="5.04915">
        <ele>754</ele>
        <time>2026-05-26T09:20:45.000Z</time>
      </trkpt>
      <trkpt lat="44.65676" lon="5.04916">
        <ele>754</ele>
        <time>2026-05-26T09:20:46.000Z</time>
      </trkpt>
      <trkpt lat="44.65676" lon="5.04917">
        <ele>754</ele>
        <time>2026-05-26T09:20:47.000Z</time>
      </trkpt>
      <trkpt lat="44.65676" lon="5.04917">
        <ele>754</ele>
        <time>2026-05-26T09:20:48.000Z</time>
      </trkpt>
      <trkpt lat="44.65676" lon="5.04916">
        <ele>754</ele>
        <time>2026-05-26T09:20:49.000Z</time>
      </trkpt>
      <trkpt lat="44.65676" lon="5.04916">
        <ele>754</ele>
        <time>2026-05-26T09:20:50.000Z</time>
      </trkpt>
      <trkpt lat="44.65675" lon="5.04917">
        <ele>754</ele>
        <time>2026-05-26T09:20:51.000Z</time>
      </trkpt>
      <trkpt lat="44.65675" lon="5.04918">
        <ele>754</ele>
        <time>2026-05-26T09:20:52.000Z</time>
      </trkpt>
      <trkpt lat="44.65675" lon="5.04919">
        <ele>754</ele>
        <time>2026-05-26T09:20:53.000Z</time>
      </trkpt>
      <trkpt lat="44.65675" lon="5.0492">
        <ele>755</ele>
        <time>2026-05-26T09:20:54.000Z</time>
      </trkpt>
      <trkpt lat="44.65676" lon="5.0492">
        <ele>755</ele>
        <time>2026-05-26T09:20:55.000Z</time>
      </trkpt>
      <trkpt lat="44.65676" lon="5.0492">
        <ele>755</ele>
        <time>2026-05-26T09:20:56.000Z</time>
      </trkpt>
      <trkpt lat="44.65677" lon="5.04919">
        <ele>756</ele>
        <time>2026-05-26T09:20:57.000Z</time>
      </trkpt>
      <trkpt lat="44.65678" lon="5.04917">
        <ele>756</ele>
        <time>2026-05-26T09:20:58.000Z</time>
      </trkpt>
      <trkpt lat="44.65678" lon="5.04917">
        <ele>756</ele>
        <time>2026-05-26T09:20:59.000Z</time>
      </trkpt>
      <trkpt lat="44.65678" lon="5.04917">
        <ele>756</ele>
        <time>2026-05-26T09:21:00.000Z</time>
      </trkpt>
      <trkpt lat="44.65678" lon="5.04918">
        <ele>756</ele>
        <time>2026-05-26T09:21:01.000Z</time>
      </trkpt>
      <trkpt lat="44.65679" lon="5.04919">
        <ele>757</ele>
        <time>2026-05-26T09:21:02.000Z</time>
      </trkpt>
      <trkpt lat="44.65681" lon="5.0492">
        <ele>756</ele>
        <time>2026-05-26T09:21:03.000Z</time>
      </trkpt>
      <trkpt lat="44.65681" lon="5.04922">
        <ele>757</ele>
        <time>2026-05-26T09:21:04.000Z</time>
      </trkpt>
      <trkpt lat="44.65682" lon="5.04922">
        <ele>757</ele>
        <time>2026-05-26T09:21:05.000Z</time>
      </trkpt>
      <trkpt lat="44.65682" lon="5.04923">
        <ele>757</ele>
        <time>2026-05-26T09:21:06.000Z</time>
      </trkpt>
      <trkpt lat="44.65683" lon="5.04923">
        <ele>757</ele>
        <time>2026-05-26T09:21:07.000Z</time>
      </trkpt>
      <trkpt lat="44.65683" lon="5.04922">
        <ele>758</ele>
        <time>2026-05-26T09:21:08.000Z</time>
      </trkpt>
      <trkpt lat="44.65683" lon="5.04924">
        <ele>758</ele>
        <time>2026-05-26T09:21:09.000Z</time>
      </trkpt>
      <trkpt lat="44.65684" lon="5.04925">
        <ele>759</ele>
        <time>2026-05-26T09:21:10.000Z</time>
      </trkpt>
      <trkpt lat="44.65684" lon="5.04926">
        <ele>759</ele>
        <time>2026-05-26T09:21:11.000Z</time>
      </trkpt>
      <trkpt lat="44.65684" lon="5.04925">
        <ele>759</ele>
        <time>2026-05-26T09:21:12.000Z</time>
      </trkpt>
      <trkpt lat="44.65684" lon="5.04924">
        <ele>758</ele>
        <time>2026-05-26T09:21:13.000Z</time>
      </trkpt>
      <trkpt lat="44.65685" lon="5.04923">
        <ele>759</ele>
        <time>2026-05-26T09:21:14.000Z</time>
      </trkpt>
      <trkpt lat="44.65686" lon="5.04924">
        <ele>759</ele>
        <time>2026-05-26T09:21:15.000Z</time>
      </trkpt>
      <trkpt lat="44.65686" lon="5.04924">
        <ele>759</ele>
        <time>2026-05-26T09:21:16.000Z</time>
      </trkpt>
      <trkpt lat="44.65687" lon="5.04924">
        <ele>759</ele>
        <time>2026-05-26T09:21:17.000Z</time>
      </trkpt>
      <trkpt lat="44.65688" lon="5.04925">
        <ele>760</ele>
        <time>2026-05-26T09:21:18.000Z</time>
      </trkpt>
      <trkpt lat="44.65688" lon="5.04925">
        <ele>760</ele>
        <time>2026-05-26T09:21:19.000Z</time>
      </trkpt>
      <trkpt lat="44.65689" lon="5.04924">
        <ele>760</ele>
        <time>2026-05-26T09:21:20.000Z</time>
      </trkpt>
      <trkpt lat="44.6569" lon="5.04923">
        <ele>760</ele>
        <time>2026-05-26T09:21:21.000Z</time>
      </trkpt>
      <trkpt lat="44.65691" lon="5.04923">
        <ele>761</ele>
        <time>2026-05-26T09:21:22.000Z</time>
      </trkpt>
      <trkpt lat="44.65691" lon="5.04924">
        <ele>761</ele>
        <time>2026-05-26T09:21:23.000Z</time>
      </trkpt>
      <trkpt lat="44.65691" lon="5.04923">
        <ele>762</ele>
        <time>2026-05-26T09:21:24.000Z</time>
      </trkpt>
      <trkpt lat="44.65692" lon="5.04924">
        <ele>762</ele>
        <time>2026-05-26T09:21:25.000Z</time>
      </trkpt>
      <trkpt lat="44.65692" lon="5.04924">
        <ele>762</ele>
        <time>2026-05-26T09:21:26.000Z</time>
      </trkpt>
      <trkpt lat="44.65692" lon="5.04925">
        <ele>762</ele>
        <time>2026-05-26T09:21:27.000Z</time>
      </trkpt>
      <trkpt lat="44.65692" lon="5.04926">
        <ele>762</ele>
        <time>2026-05-26T09:21:28.000Z</time>
      </trkpt>
      <trkpt lat="44.65692" lon="5.04927">
        <ele>762</ele>
        <time>2026-05-26T09:21:29.000Z</time>
      </trkpt>
      <trkpt lat="44.65693" lon="5.04928">
        <ele>762</ele>
        <time>2026-05-26T09:21:30.000Z</time>
      </trkpt>
      <trkpt lat="44.65695" lon="5.04929">
        <ele>762</ele>
        <time>2026-05-26T09:21:31.000Z</time>
      </trkpt>
      <trkpt lat="44.65695" lon="5.04928">
        <ele>761</ele>
        <time>2026-05-26T09:21:32.000Z</time>
      </trkpt>
      <trkpt lat="44.65695" lon="5.04927">
        <ele>761</ele>
        <time>2026-05-26T09:21:33.000Z</time>
      </trkpt>
      <trkpt lat="44.65694" lon="5.04926">
        <ele>761</ele>
        <time>2026-05-26T09:21:34.000Z</time>
      </trkpt>
      <trkpt lat="44.65693" lon="5.04926">
        <ele>762</ele>
        <time>2026-05-26T09:21:35.000Z</time>
      </trkpt>
      <trkpt lat="44.65694" lon="5.04925">
        <ele>763</ele>
        <time>2026-05-26T09:21:36.000Z</time>
      </trkpt>
      <trkpt lat="44.65695" lon="5.04924">
        <ele>764</ele>
        <time>2026-05-26T09:21:37.000Z</time>
      </trkpt>
      <trkpt lat="44.65696" lon="5.04923">
        <ele>764</ele>
        <time>2026-05-26T09:21:38.000Z</time>
      </trkpt>
      <trkpt lat="44.65697" lon="5.04923">
        <ele>764</ele>
        <time>2026-05-26T09:21:39.000Z</time>
      </trkpt>
      <trkpt lat="44.65698" lon="5.04924">
        <ele>764</ele>
        <time>2026-05-26T09:21:40.000Z</time>
      </trkpt>
      <trkpt lat="44.65698" lon="5.04925">
        <ele>764</ele>
        <time>2026-05-26T09:21:41.000Z</time>
      </trkpt>
      <trkpt lat="44.65699" lon="5.04925">
        <ele>765</ele>
        <time>2026-05-26T09:21:42.000Z</time>
      </trkpt>
      <trkpt lat="44.657" lon="5.04923">
        <ele>765</ele>
        <time>2026-05-26T09:21:43.000Z</time>
      </trkpt>
      <trkpt lat="44.657" lon="5.04922">
        <ele>765</ele>
        <time>2026-05-26T09:21:44.000Z</time>
      </trkpt>
      <trkpt lat="44.657" lon="5.04921">
        <ele>765</ele>
        <time>2026-05-26T09:21:45.000Z</time>
      </trkpt>
      <trkpt lat="44.657" lon="5.04921">
        <ele>765</ele>
        <time>2026-05-26T09:21:46.000Z</time>
      </trkpt>
      <trkpt lat="44.657" lon="5.04922">
        <ele>765</ele>
        <time>2026-05-26T09:21:47.000Z</time>
      </trkpt>
      <trkpt lat="44.65699" lon="5.04923">
        <ele>765</ele>
        <time>2026-05-26T09:21:48.000Z</time>
      </trkpt>
      <trkpt lat="44.65699" lon="5.04925">
        <ele>765</ele>
        <time>2026-05-26T09:21:49.000Z</time>
      </trkpt>
      <trkpt lat="44.65697" lon="5.04927">
        <ele>765</ele>
        <time>2026-05-26T09:21:50.000Z</time>
      </trkpt>
      <trkpt lat="44.65698" lon="5.04928">
        <ele>766</ele>
        <time>2026-05-26T09:21:51.000Z</time>
      </trkpt>
      <trkpt lat="44.65699" lon="5.04929">
        <ele>765</ele>
        <time>2026-05-26T09:21:52.000Z</time>
      </trkpt>
      <trkpt lat="44.657" lon="5.04928">
        <ele>766</ele>
        <time>2026-05-26T09:21:53.000Z</time>
      </trkpt>
      <trkpt lat="44.657" lon="5.04927">
        <ele>765</ele>
        <time>2026-05-26T09:21:54.000Z</time>
      </trkpt>
      <trkpt lat="44.65701" lon="5.04927">
        <ele>765</ele>
        <time>2026-05-26T09:21:55.000Z</time>
      </trkpt>
      <trkpt lat="44.65702" lon="5.04927">
        <ele>765</ele>
        <time>2026-05-26T09:21:56.000Z</time>
      </trkpt>
      <trkpt lat="44.65703" lon="5.04926">
        <ele>766</ele>
        <time>2026-05-26T09:21:57.000Z</time>
      </trkpt>
      <trkpt lat="44.65704" lon="5.04925">
        <ele>766</ele>
        <time>2026-05-26T09:21:58.000Z</time>
      </trkpt>
      <trkpt lat="44.65705" lon="5.04923">
        <ele>767</ele>
        <time>2026-05-26T09:21:59.000Z</time>
      </trkpt>
      <trkpt lat="44.65706" lon="5.04923">
        <ele>767</ele>
        <time>2026-05-26T09:22:00.000Z</time>
      </trkpt>
      <trkpt lat="44.65706" lon="5.04923">
        <ele>767</ele>
        <time>2026-05-26T09:22:01.000Z</time>
      </trkpt>
      <trkpt lat="44.65706" lon="5.04922">
        <ele>767</ele>
        <time>2026-05-26T09:22:02.000Z</time>
      </trkpt>
      <trkpt lat="44.65706" lon="5.04921">
        <ele>766</ele>
        <time>2026-05-26T09:22:03.000Z</time>
      </trkpt>
      <trkpt lat="44.65707" lon="5.0492">
        <ele>766</ele>
        <time>2026-05-26T09:22:04.000Z</time>
      </trkpt>
      <trkpt lat="44.65708" lon="5.04919">
        <ele>766</ele>
        <time>2026-05-26T09:22:05.000Z</time>
      </trkpt>
      <trkpt lat="44.65708" lon="5.0492">
        <ele>766</ele>
        <time>2026-05-26T09:22:06.000Z</time>
      </trkpt>
      <trkpt lat="44.65708" lon="5.0492">
        <ele>767</ele>
        <time>2026-05-26T09:22:07.000Z</time>
      </trkpt>
      <trkpt lat="44.65709" lon="5.0492">
        <ele>767</ele>
        <time>2026-05-26T09:22:08.000Z</time>
      </trkpt>
      <trkpt lat="44.6571" lon="5.04921">
        <ele>767</ele>
        <time>2026-05-26T09:22:09.000Z</time>
      </trkpt>
      <trkpt lat="44.65708" lon="5.04922">
        <ele>768</ele>
        <time>2026-05-26T09:22:10.000Z</time>
      </trkpt>
      <trkpt lat="44.65707" lon="5.04923">
        <ele>768</ele>
        <time>2026-05-26T09:22:11.000Z</time>
      </trkpt>
      <trkpt lat="44.65707" lon="5.04924">
        <ele>768</ele>
        <time>2026-05-26T09:22:12.000Z</time>
      </trkpt>
      <trkpt lat="44.65709" lon="5.04923">
        <ele>768</ele>
        <time>2026-05-26T09:22:13.000Z</time>
      </trkpt>
      <trkpt lat="44.6571" lon="5.04922">
        <ele>768</ele>
        <time>2026-05-26T09:22:14.000Z</time>
      </trkpt>
      <trkpt lat="44.65709" lon="5.04922">
        <ele>768</ele>
        <time>2026-05-26T09:22:15.000Z</time>
      </trkpt>
      <trkpt lat="44.65709" lon="5.04922">
        <ele>768</ele>
        <time>2026-05-26T09:22:16.000Z</time>
      </trkpt>
      <trkpt lat="44.65708" lon="5.04923">
        <ele>769</ele>
        <time>2026-05-26T09:22:17.000Z</time>
      </trkpt>
      <trkpt lat="44.65707" lon="5.04925">
        <ele>769</ele>
        <time>2026-05-26T09:22:18.000Z</time>
      </trkpt>
      <trkpt lat="44.65708" lon="5.04926">
        <ele>770</ele>
        <time>2026-05-26T09:22:19.000Z</time>
      </trkpt>
      <trkpt lat="44.65709" lon="5.04928">
        <ele>770</ele>
        <time>2026-05-26T09:22:20.000Z</time>
      </trkpt>
      <trkpt lat="44.65709" lon="5.04929">
        <ele>770</ele>
        <time>2026-05-26T09:22:21.000Z</time>
      </trkpt>
      <trkpt lat="44.65709" lon="5.04929">
        <ele>770</ele>
        <time>2026-05-26T09:22:22.000Z</time>
      </trkpt>
      <trkpt lat="44.65709" lon="5.04929">
        <ele>770</ele>
        <time>2026-05-26T09:22:23.000Z</time>
      </trkpt>
      <trkpt lat="44.65709" lon="5.04929">
        <ele>770</ele>
        <time>2026-05-26T09:22:24.000Z</time>
      </trkpt>
      <trkpt lat="44.65708" lon="5.04929">
        <ele>771</ele>
        <time>2026-05-26T09:22:25.000Z</time>
      </trkpt>
      <trkpt lat="44.65708" lon="5.04929">
        <ele>771</ele>
        <time>2026-05-26T09:22:26.000Z</time>
      </trkpt>
      <trkpt lat="44.65708" lon="5.04928">
        <ele>771</ele>
        <time>2026-05-26T09:22:27.000Z</time>
      </trkpt>
      <trkpt lat="44.6571" lon="5.04929">
        <ele>770</ele>
        <time>2026-05-26T09:22:28.000Z</time>
      </trkpt>
      <trkpt lat="44.6571" lon="5.04929">
        <ele>770</ele>
        <time>2026-05-26T09:22:29.000Z</time>
      </trkpt>
      <trkpt lat="44.6571" lon="5.04929">
        <ele>770</ele>
        <time>2026-05-26T09:22:30.000Z</time>
      </trkpt>
      <trkpt lat="44.6571" lon="5.04929">
        <ele>770</ele>
        <time>2026-05-26T09:22:31.000Z</time>
      </trkpt>
      <trkpt lat="44.65709" lon="5.04929">
        <ele>770</ele>
        <time>2026-05-26T09:22:32.000Z</time>
      </trkpt>
      <trkpt lat="44.65709" lon="5.04929">
        <ele>769</ele>
        <time>2026-05-26T09:22:33.000Z</time>
      </trkpt>
      <trkpt lat="44.65711" lon="5.04928">
        <ele>770</ele>
        <time>2026-05-26T09:22:34.000Z</time>
      </trkpt>
      <trkpt lat="44.65712" lon="5.04927">
        <ele>770</ele>
        <time>2026-05-26T09:22:35.000Z</time>
      </trkpt>
      <trkpt lat="44.65712" lon="5.04927">
        <ele>770</ele>
        <time>2026-05-26T09:22:36.000Z</time>
      </trkpt>
      <trkpt lat="44.65712" lon="5.04927">
        <ele>770</ele>
        <time>2026-05-26T09:22:37.000Z</time>
      </trkpt>
      <trkpt lat="44.65712" lon="5.04927">
        <ele>770</ele>
        <time>2026-05-26T09:22:38.000Z</time>
      </trkpt>
      <trkpt lat="44.65712" lon="5.04927">
        <ele>770</ele>
        <time>2026-05-26T09:22:39.000Z</time>
      </trkpt>
      <trkpt lat="44.65712" lon="5.04927">
        <ele>770</ele>
        <time>2026-05-26T09:22:40.000Z</time>
      </trkpt>
      <trkpt lat="44.65713" lon="5.04927">
        <ele>770</ele>
        <time>2026-05-26T09:22:41.000Z</time>
      </trkpt>
      <trkpt lat="44.65713" lon="5.04927">
        <ele>770</ele>
        <time>2026-05-26T09:22:42.000Z</time>
      </trkpt>
      <trkpt lat="44.65713" lon="5.04927">
        <ele>771</ele>
        <time>2026-05-26T09:22:43.000Z</time>
      </trkpt>
      <trkpt lat="44.65713" lon="5.04927">
        <ele>771</ele>
        <time>2026-05-26T09:22:44.000Z</time>
      </trkpt>
      <trkpt lat="44.65712" lon="5.04928">
        <ele>771</ele>
        <time>2026-05-26T09:22:45.000Z</time>
      </trkpt>
      <trkpt lat="44.65712" lon="5.04928">
        <ele>771</ele>
        <time>2026-05-26T09:22:46.000Z</time>
      </trkpt>
      <trkpt lat="44.65712" lon="5.04928">
        <ele>771</ele>
        <time>2026-05-26T09:22:47.000Z</time>
      </trkpt>
      <trkpt lat="44.65712" lon="5.04928">
        <ele>771</ele>
        <time>2026-05-26T09:22:48.000Z</time>
      </trkpt>
      <trkpt lat="44.65712" lon="5.04928">
        <ele>771</ele>
        <time>2026-05-26T09:22:49.000Z</time>
      </trkpt>
      <trkpt lat="44.65712" lon="5.04928">
        <ele>771</ele>
        <time>2026-05-26T09:22:50.000Z</time>
      </trkpt>
      <trkpt lat="44.65712" lon="5.04928">
        <ele>771</ele>
        <time>2026-05-26T09:22:51.000Z</time>
      </trkpt>
      <trkpt lat="44.65712" lon="5.04928">
        <ele>771</ele>
        <time>2026-05-26T09:22:52.000Z</time>
      </trkpt>
      <trkpt lat="44.65712" lon="5.04928">
        <ele>771</ele>
        <time>2026-05-26T09:22:53.000Z</time>
      </trkpt>
      <trkpt lat="44.65712" lon="5.04928">
        <ele>771</ele>
        <time>2026-05-26T09:22:54.000Z</time>
      </trkpt>
      <trkpt lat="44.65712" lon="5.04928">
        <ele>771</ele>
        <time>2026-05-26T09:22:55.000Z</time>
      </trkpt>
      <trkpt lat="44.65712" lon="5.04928">
        <ele>771</ele>
        <time>2026-05-26T09:22:56.000Z</time>
      </trkpt>
      <trkpt lat="44.65712" lon="5.04928">
        <ele>771</ele>
        <time>2026-05-26T09:22:57.000Z</time>
      </trkpt>
      <trkpt lat="44.65712" lon="5.04928">
        <ele>771</ele>
        <time>2026-05-26T09:22:58.000Z</time>
      </trkpt>
      <trkpt lat="44.65712" lon="5.04928">
        <ele>771</ele>
        <time>2026-05-26T09:22:59.000Z</time>
      </trkpt>
      <trkpt lat="44.65712" lon="5.04928">
        <ele>771</ele>
        <time>2026-05-26T09:23:00.000Z</time>
      </trkpt>
      <trkpt lat="44.65712" lon="5.04928">
        <ele>771</ele>
        <time>2026-05-26T09:23:01.000Z</time>
      </trkpt>
      <trkpt lat="44.65713" lon="5.04928">
        <ele>772</ele>
        <time>2026-05-26T09:23:02.000Z</time>
      </trkpt>
      <trkpt lat="44.65713" lon="5.04928">
        <ele>772</ele>
        <time>2026-05-26T09:23:03.000Z</time>
      </trkpt>
      <trkpt lat="44.65713" lon="5.04928">
        <ele>772</ele>
        <time>2026-05-26T09:23:04.000Z</time>
      </trkpt>
      <trkpt lat="44.65713" lon="5.04928">
        <ele>772</ele>
        <time>2026-05-26T09:23:05.000Z</time>
      </trkpt>
      <trkpt lat="44.65713" lon="5.04928">
        <ele>772</ele>
        <time>2026-05-26T09:23:06.000Z</time>
      </trkpt>
      <trkpt lat="44.65713" lon="5.04928">
        <ele>772</ele>
        <time>2026-05-26T09:23:07.000Z</time>
      </trkpt>
      <trkpt lat="44.65713" lon="5.04928">
        <ele>772</ele>
        <time>2026-05-26T09:23:08.000Z</time>
      </trkpt>
      <trkpt lat="44.65713" lon="5.04928">
        <ele>772</ele>
        <time>2026-05-26T09:23:09.000Z</time>
      </trkpt>
      <trkpt lat="44.65713" lon="5.04928">
        <ele>772</ele>
        <time>2026-05-26T09:23:10.000Z</time>
      </trkpt>
      <trkpt lat="44.65713" lon="5.04928">
        <ele>772</ele>
        <time>2026-05-26T09:23:11.000Z</time>
      </trkpt>
      <trkpt lat="44.65713" lon="5.04928">
        <ele>772</ele>
        <time>2026-05-26T09:23:12.000Z</time>
      </trkpt>
      <trkpt lat="44.65713" lon="5.04928">
        <ele>772</ele>
        <time>2026-05-26T09:23:13.000Z</time>
      </trkpt>
      <trkpt lat="44.65713" lon="5.04928">
        <ele>772</ele>
        <time>2026-05-26T09:23:14.000Z</time>
      </trkpt>
      <trkpt lat="44.65713" lon="5.04927">
        <ele>772</ele>
        <time>2026-05-26T09:23:15.000Z</time>
      </trkpt>
      <trkpt lat="44.65713" lon="5.04927">
        <ele>772</ele>
        <time>2026-05-26T09:23:16.000Z</time>
      </trkpt>
      <trkpt lat="44.65712" lon="5.04927">
        <ele>772</ele>
        <time>2026-05-26T09:23:17.000Z</time>
      </trkpt>
      <trkpt lat="44.65712" lon="5.04928">
        <ele>772</ele>
        <time>2026-05-26T09:23:18.000Z</time>
      </trkpt>
      <trkpt lat="44.65712" lon="5.04928">
        <ele>772</ele>
        <time>2026-05-26T09:23:19.000Z</time>
      </trkpt>
      <trkpt lat="44.65712" lon="5.04927">
        <ele>773</ele>
        <time>2026-05-26T09:23:20.000Z</time>
      </trkpt>
      <trkpt lat="44.65712" lon="5.04927">
        <ele>773</ele>
        <time>2026-05-26T09:23:21.000Z</time>
      </trkpt>
      <trkpt lat="44.65712" lon="5.04927">
        <ele>773</ele>
        <time>2026-05-26T09:23:22.000Z</time>
      </trkpt>
      <trkpt lat="44.65712" lon="5.04927">
        <ele>773</ele>
        <time>2026-05-26T09:23:23.000Z</time>
      </trkpt>
      <trkpt lat="44.65712" lon="5.04927">
        <ele>774</ele>
        <time>2026-05-26T09:23:24.000Z</time>
      </trkpt>
      <trkpt lat="44.65712" lon="5.04927">
        <ele>774</ele>
        <time>2026-05-26T09:23:25.000Z</time>
      </trkpt>
      <trkpt lat="44.65712" lon="5.04927">
        <ele>774</ele>
        <time>2026-05-26T09:23:26.000Z</time>
      </trkpt>
      <trkpt lat="44.65712" lon="5.04927">
        <ele>774</ele>
        <time>2026-05-26T09:23:27.000Z</time>
      </trkpt>
      <trkpt lat="44.65712" lon="5.04927">
        <ele>774</ele>
        <time>2026-05-26T09:23:28.000Z</time>
      </trkpt>
      <trkpt lat="44.65712" lon="5.04927">
        <ele>774</ele>
        <time>2026-05-26T09:23:29.000Z</time>
      </trkpt>
      <trkpt lat="44.65712" lon="5.04927">
        <ele>774</ele>
        <time>2026-05-26T09:23:30.000Z</time>
      </trkpt>
      <trkpt lat="44.65712" lon="5.04927">
        <ele>774</ele>
        <time>2026-05-26T09:23:31.000Z</time>
      </trkpt>
      <trkpt lat="44.65712" lon="5.04927">
        <ele>774</ele>
        <time>2026-05-26T09:23:32.000Z</time>
      </trkpt>
      <trkpt lat="44.65712" lon="5.04927">
        <ele>775</ele>
        <time>2026-05-26T09:23:33.000Z</time>
      </trkpt>
      <trkpt lat="44.65712" lon="5.04927">
        <ele>775</ele>
        <time>2026-05-26T09:23:34.000Z</time>
      </trkpt>
      <trkpt lat="44.65712" lon="5.04927">
        <ele>775</ele>
        <time>2026-05-26T09:23:35.000Z</time>
      </trkpt>
      <trkpt lat="44.65712" lon="5.04926">
        <ele>775</ele>
        <time>2026-05-26T09:23:36.000Z</time>
      </trkpt>
      <trkpt lat="44.6571" lon="5.04925">
        <ele>775</ele>
        <time>2026-05-26T09:23:37.000Z</time>
      </trkpt>
      <trkpt lat="44.6571" lon="5.04925">
        <ele>775</ele>
        <time>2026-05-26T09:23:38.000Z</time>
      </trkpt>
      <trkpt lat="44.6571" lon="5.04925">
        <ele>775</ele>
        <time>2026-05-26T09:23:39.000Z</time>
      </trkpt>
      <trkpt lat="44.6571" lon="5.04925">
        <ele>775</ele>
        <time>2026-05-26T09:23:40.000Z</time>
      </trkpt>
      <trkpt lat="44.6571" lon="5.04925">
        <ele>775</ele>
        <time>2026-05-26T09:23:41.000Z</time>
      </trkpt>
      <trkpt lat="44.6571" lon="5.04925">
        <ele>774</ele>
        <time>2026-05-26T09:23:42.000Z</time>
      </trkpt>
      <trkpt lat="44.6571" lon="5.04925">
        <ele>774</ele>
        <time>2026-05-26T09:23:43.000Z</time>
      </trkpt>
      <trkpt lat="44.6571" lon="5.04925">
        <ele>774</ele>
        <time>2026-05-26T09:23:44.000Z</time>
      </trkpt>
      <trkpt lat="44.65709" lon="5.04924">
        <ele>773</ele>
        <time>2026-05-26T09:23:45.000Z</time>
      </trkpt>
      <trkpt lat="44.65709" lon="5.04924">
        <ele>773</ele>
        <time>2026-05-26T09:23:46.000Z</time>
      </trkpt>
      <trkpt lat="44.65709" lon="5.04924">
        <ele>773</ele>
        <time>2026-05-26T09:23:47.000Z</time>
      </trkpt>
      <trkpt lat="44.65709" lon="5.04924">
        <ele>773</ele>
        <time>2026-05-26T09:23:48.000Z</time>
      </trkpt>
      <trkpt lat="44.65709" lon="5.04924">
        <ele>773</ele>
        <time>2026-05-26T09:23:49.000Z</time>
      </trkpt>
      <trkpt lat="44.65709" lon="5.04924">
        <ele>773</ele>
        <time>2026-05-26T09:23:50.000Z</time>
      </trkpt>
      <trkpt lat="44.65709" lon="5.04924">
        <ele>773</ele>
        <time>2026-05-26T09:23:51.000Z</time>
      </trkpt>
      <trkpt lat="44.65709" lon="5.04924">
        <ele>773</ele>
        <time>2026-05-26T09:23:52.000Z</time>
      </trkpt>
      <trkpt lat="44.65709" lon="5.04924">
        <ele>773</ele>
        <time>2026-05-26T09:23:53.000Z</time>
      </trkpt>
      <trkpt lat="44.65709" lon="5.04924">
        <ele>773</ele>
        <time>2026-05-26T09:23:54.000Z</time>
      </trkpt>
      <trkpt lat="44.65709" lon="5.04924">
        <ele>773</ele>
        <time>2026-05-26T09:23:55.000Z</time>
      </trkpt>
      <trkpt lat="44.65709" lon="5.04924">
        <ele>773</ele>
        <time>2026-05-26T09:23:56.000Z</time>
      </trkpt>
      <trkpt lat="44.65709" lon="5.04924">
        <ele>773</ele>
        <time>2026-05-26T09:23:57.000Z</time>
      </trkpt>
      <trkpt lat="44.65709" lon="5.04924">
        <ele>773</ele>
        <time>2026-05-26T09:23:58.000Z</time>
      </trkpt>
      <trkpt lat="44.65709" lon="5.04924">
        <ele>773</ele>
        <time>2026-05-26T09:23:59.000Z</time>
      </trkpt>
      <trkpt lat="44.65709" lon="5.04924">
        <ele>773</ele>
        <time>2026-05-26T09:24:00.000Z</time>
      </trkpt>
      <trkpt lat="44.65709" lon="5.04924">
        <ele>773</ele>
        <time>2026-05-26T09:24:01.000Z</time>
      </trkpt>
      <trkpt lat="44.6571" lon="5.04923">
        <ele>774</ele>
        <time>2026-05-26T09:24:02.000Z</time>
      </trkpt>
      <trkpt lat="44.6571" lon="5.04923">
        <ele>775</ele>
        <time>2026-05-26T09:24:03.000Z</time>
      </trkpt>
      <trkpt lat="44.65712" lon="5.04923">
        <ele>775</ele>
        <time>2026-05-26T09:24:04.000Z</time>
      </trkpt>
      <trkpt lat="44.6571" lon="5.04923">
        <ele>775</ele>
        <time>2026-05-26T09:24:05.000Z</time>
      </trkpt>
      <trkpt lat="44.65709" lon="5.04924">
        <ele>775</ele>
        <time>2026-05-26T09:24:06.000Z</time>
      </trkpt>
      <trkpt lat="44.65708" lon="5.04925">
        <ele>776</ele>
        <time>2026-05-26T09:24:07.000Z</time>
      </trkpt>
      <trkpt lat="44.65708" lon="5.04926">
        <ele>776</ele>
        <time>2026-05-26T09:24:08.000Z</time>
      </trkpt>
      <trkpt lat="44.65709" lon="5.04926">
        <ele>776</ele>
        <time>2026-05-26T09:24:09.000Z</time>
      </trkpt>
      <trkpt lat="44.6571" lon="5.04927">
        <ele>776</ele>
        <time>2026-05-26T09:24:10.000Z</time>
      </trkpt>
      <trkpt lat="44.6571" lon="5.04927">
        <ele>777</ele>
        <time>2026-05-26T09:24:11.000Z</time>
      </trkpt>
      <trkpt lat="44.65711" lon="5.04926">
        <ele>776</ele>
        <time>2026-05-26T09:24:12.000Z</time>
      </trkpt>
      <trkpt lat="44.65712" lon="5.04926">
        <ele>777</ele>
        <time>2026-05-26T09:24:13.000Z</time>
      </trkpt>
      <trkpt lat="44.65713" lon="5.04926">
        <ele>777</ele>
        <time>2026-05-26T09:24:14.000Z</time>
      </trkpt>
      <trkpt lat="44.65713" lon="5.04926">
        <ele>777</ele>
        <time>2026-05-26T09:24:15.000Z</time>
      </trkpt>
      <trkpt lat="44.65714" lon="5.04925">
        <ele>777</ele>
        <time>2026-05-26T09:24:16.000Z</time>
      </trkpt>
      <trkpt lat="44.65714" lon="5.04925">
        <ele>777</ele>
        <time>2026-05-26T09:24:17.000Z</time>
      </trkpt>
      <trkpt lat="44.65714" lon="5.04925">
        <ele>777</ele>
        <time>2026-05-26T09:24:18.000Z</time>
      </trkpt>
      <trkpt lat="44.65714" lon="5.04926">
        <ele>776</ele>
        <time>2026-05-26T09:24:19.000Z</time>
      </trkpt>
      <trkpt lat="44.65715" lon="5.04926">
        <ele>776</ele>
        <time>2026-05-26T09:24:20.000Z</time>
      </trkpt>
      <trkpt lat="44.65715" lon="5.04927">
        <ele>776</ele>
        <time>2026-05-26T09:24:21.000Z</time>
      </trkpt>
      <trkpt lat="44.65715" lon="5.04928">
        <ele>776</ele>
        <time>2026-05-26T09:24:22.000Z</time>
      </trkpt>
      <trkpt lat="44.65715" lon="5.0493">
        <ele>776</ele>
        <time>2026-05-26T09:24:23.000Z</time>
      </trkpt>
      <trkpt lat="44.65717" lon="5.04931">
        <ele>777</ele>
        <time>2026-05-26T09:24:24.000Z</time>
      </trkpt>
      <trkpt lat="44.65717" lon="5.04931">
        <ele>777</ele>
        <time>2026-05-26T09:24:25.000Z</time>
      </trkpt>
      <trkpt lat="44.65718" lon="5.04931">
        <ele>776</ele>
        <time>2026-05-26T09:24:26.000Z</time>
      </trkpt>
      <trkpt lat="44.65719" lon="5.04933">
        <ele>776</ele>
        <time>2026-05-26T09:24:27.000Z</time>
      </trkpt>
      <trkpt lat="44.6572" lon="5.04931">
        <ele>775</ele>
        <time>2026-05-26T09:24:28.000Z</time>
      </trkpt>
      <trkpt lat="44.6572" lon="5.0493">
        <ele>775</ele>
        <time>2026-05-26T09:24:29.000Z</time>
      </trkpt>
      <trkpt lat="44.6572" lon="5.04929">
        <ele>776</ele>
        <time>2026-05-26T09:24:30.000Z</time>
      </trkpt>
      <trkpt lat="44.65721" lon="5.04929">
        <ele>776</ele>
        <time>2026-05-26T09:24:31.000Z</time>
      </trkpt>
      <trkpt lat="44.65721" lon="5.04928">
        <ele>777</ele>
        <time>2026-05-26T09:24:32.000Z</time>
      </trkpt>
      <trkpt lat="44.65722" lon="5.04929">
        <ele>778</ele>
        <time>2026-05-26T09:24:33.000Z</time>
      </trkpt>
      <trkpt lat="44.65723" lon="5.04931">
        <ele>778</ele>
        <time>2026-05-26T09:24:34.000Z</time>
      </trkpt>
      <trkpt lat="44.65722" lon="5.04931">
        <ele>778</ele>
        <time>2026-05-26T09:24:35.000Z</time>
      </trkpt>
      <trkpt lat="44.65723" lon="5.04931">
        <ele>778</ele>
        <time>2026-05-26T09:24:36.000Z</time>
      </trkpt>
      <trkpt lat="44.65723" lon="5.04928">
        <ele>779</ele>
        <time>2026-05-26T09:24:37.000Z</time>
      </trkpt>
      <trkpt lat="44.65721" lon="5.04928">
        <ele>779</ele>
        <time>2026-05-26T09:24:38.000Z</time>
      </trkpt>
      <trkpt lat="44.6572" lon="5.04927">
        <ele>780</ele>
        <time>2026-05-26T09:24:39.000Z</time>
      </trkpt>
      <trkpt lat="44.6572" lon="5.04927">
        <ele>780</ele>
        <time>2026-05-26T09:24:40.000Z</time>
      </trkpt>
      <trkpt lat="44.65722" lon="5.04929">
        <ele>779</ele>
        <time>2026-05-26T09:24:41.000Z</time>
      </trkpt>
      <trkpt lat="44.65723" lon="5.04929">
        <ele>779</ele>
        <time>2026-05-26T09:24:42.000Z</time>
      </trkpt>
      <trkpt lat="44.65724" lon="5.04929">
        <ele>781</ele>
        <time>2026-05-26T09:24:43.000Z</time>
      </trkpt>
      <trkpt lat="44.65724" lon="5.0493">
        <ele>781</ele>
        <time>2026-05-26T09:24:44.000Z</time>
      </trkpt>
      <trkpt lat="44.65724" lon="5.04928">
        <ele>781</ele>
        <time>2026-05-26T09:24:45.000Z</time>
      </trkpt>
      <trkpt lat="44.65725" lon="5.04927">
        <ele>782</ele>
        <time>2026-05-26T09:24:46.000Z</time>
      </trkpt>
      <trkpt lat="44.65725" lon="5.04925">
        <ele>783</ele>
        <time>2026-05-26T09:24:47.000Z</time>
      </trkpt>
      <trkpt lat="44.65725" lon="5.04924">
        <ele>783</ele>
        <time>2026-05-26T09:24:48.000Z</time>
      </trkpt>
      <trkpt lat="44.65726" lon="5.04922">
        <ele>783</ele>
        <time>2026-05-26T09:24:49.000Z</time>
      </trkpt>
      <trkpt lat="44.65726" lon="5.04921">
        <ele>783</ele>
        <time>2026-05-26T09:24:50.000Z</time>
      </trkpt>
      <trkpt lat="44.65727" lon="5.0492">
        <ele>783</ele>
        <time>2026-05-26T09:24:51.000Z</time>
      </trkpt>
      <trkpt lat="44.65728" lon="5.04921">
        <ele>782</ele>
        <time>2026-05-26T09:24:52.000Z</time>
      </trkpt>
      <trkpt lat="44.65728" lon="5.0492">
        <ele>781</ele>
        <time>2026-05-26T09:24:53.000Z</time>
      </trkpt>
      <trkpt lat="44.65728" lon="5.04919">
        <ele>781</ele>
        <time>2026-05-26T09:24:54.000Z</time>
      </trkpt>
      <trkpt lat="44.65727" lon="5.04918">
        <ele>782</ele>
        <time>2026-05-26T09:24:55.000Z</time>
      </trkpt>
      <trkpt lat="44.65725" lon="5.04917">
        <ele>782</ele>
        <time>2026-05-26T09:24:56.000Z</time>
      </trkpt>
      <trkpt lat="44.65724" lon="5.04916">
        <ele>782</ele>
        <time>2026-05-26T09:24:57.000Z</time>
      </trkpt>
      <trkpt lat="44.65724" lon="5.04916">
        <ele>782</ele>
        <time>2026-05-26T09:24:58.000Z</time>
      </trkpt>
      <trkpt lat="44.65724" lon="5.04916">
        <ele>782</ele>
        <time>2026-05-26T09:24:59.000Z</time>
      </trkpt>
      <trkpt lat="44.65724" lon="5.04916">
        <ele>782</ele>
        <time>2026-05-26T09:25:00.000Z</time>
      </trkpt>
      <trkpt lat="44.65724" lon="5.04916">
        <ele>782</ele>
        <time>2026-05-26T09:25:01.000Z</time>
      </trkpt>
      <trkpt lat="44.65724" lon="5.04916">
        <ele>782</ele>
        <time>2026-05-26T09:25:02.000Z</time>
      </trkpt>
      <trkpt lat="44.65724" lon="5.04916">
        <ele>782</ele>
        <time>2026-05-26T09:25:03.000Z</time>
      </trkpt>
      <trkpt lat="44.65724" lon="5.04916">
        <ele>782</ele>
        <time>2026-05-26T09:25:04.000Z</time>
      </trkpt>
      <trkpt lat="44.65724" lon="5.04916">
        <ele>782</ele>
        <time>2026-05-26T09:25:05.000Z</time>
      </trkpt>
      <trkpt lat="44.65724" lon="5.04916">
        <ele>782</ele>
        <time>2026-05-26T09:25:06.000Z</time>
      </trkpt>
      <trkpt lat="44.65724" lon="5.04916">
        <ele>782</ele>
        <time>2026-05-26T09:25:07.000Z</time>
      </trkpt>
      <trkpt lat="44.65724" lon="5.04916">
        <ele>782</ele>
        <time>2026-05-26T09:25:08.000Z</time>
      </trkpt>
      <trkpt lat="44.65724" lon="5.04916">
        <ele>782</ele>
        <time>2026-05-26T09:25:09.000Z</time>
      </trkpt>
      <trkpt lat="44.65724" lon="5.04916">
        <ele>782</ele>
        <time>2026-05-26T09:25:10.000Z</time>
      </trkpt>
      <trkpt lat="44.65724" lon="5.04916">
        <ele>782</ele>
        <time>2026-05-26T09:25:11.000Z</time>
      </trkpt>
      <trkpt lat="44.65724" lon="5.04916">
        <ele>782</ele>
        <time>2026-05-26T09:25:12.000Z</time>
      </trkpt>
      <trkpt lat="44.65724" lon="5.04916">
        <ele>782</ele>
        <time>2026-05-26T09:25:13.000Z</time>
      </trkpt>
      <trkpt lat="44.65724" lon="5.04916">
        <ele>782</ele>
        <time>2026-05-26T09:25:14.000Z</time>
      </trkpt>
      <trkpt lat="44.65724" lon="5.04916">
        <ele>782</ele>
        <time>2026-05-26T09:25:15.000Z</time>
      </trkpt>
      <trkpt lat="44.65724" lon="5.04916">
        <ele>782</ele>
        <time>2026-05-26T09:25:16.000Z</time>
      </trkpt>
      <trkpt lat="44.65724" lon="5.04916">
        <ele>782</ele>
        <time>2026-05-26T09:25:17.000Z</time>
      </trkpt>
      <trkpt lat="44.65724" lon="5.04916">
        <ele>782</ele>
        <time>2026-05-26T09:25:18.000Z</time>
      </trkpt>
      <trkpt lat="44.65724" lon="5.04916">
        <ele>782</ele>
        <time>2026-05-26T09:25:19.000Z</time>
      </trkpt>
      <trkpt lat="44.65724" lon="5.04916">
        <ele>782</ele>
        <time>2026-05-26T09:25:20.000Z</time>
      </trkpt>
      <trkpt lat="44.65724" lon="5.04916">
        <ele>782</ele>
        <time>2026-05-26T09:25:21.000Z</time>
      </trkpt>
      <trkpt lat="44.65724" lon="5.04916">
        <ele>782</ele>
        <time>2026-05-26T09:25:22.000Z</time>
      </trkpt>
      <trkpt lat="44.65724" lon="5.04916">
        <ele>782</ele>
        <time>2026-05-26T09:25:23.000Z</time>
      </trkpt>
      <trkpt lat="44.65724" lon="5.04916">
        <ele>782</ele>
        <time>2026-05-26T09:25:24.000Z</time>
      </trkpt>
      <trkpt lat="44.65724" lon="5.04916">
        <ele>782</ele>
        <time>2026-05-26T09:25:25.000Z</time>
      </trkpt>
      <trkpt lat="44.65724" lon="5.04916">
        <ele>782</ele>
        <time>2026-05-26T09:25:26.000Z</time>
      </trkpt>
      <trkpt lat="44.65724" lon="5.04916">
        <ele>782</ele>
        <time>2026-05-26T09:25:27.000Z</time>
      </trkpt>
      <trkpt lat="44.65724" lon="5.04916">
        <ele>782</ele>
        <time>2026-05-26T09:25:28.000Z</time>
      </trkpt>
      <trkpt lat="44.65724" lon="5.04916">
        <ele>782</ele>
        <time>2026-05-26T09:25:29.000Z</time>
      </trkpt>
      <trkpt lat="44.65724" lon="5.04916">
        <ele>782</ele>
        <time>2026-05-26T09:25:30.000Z</time>
      </trkpt>
      <trkpt lat="44.65724" lon="5.04916">
        <ele>782</ele>
        <time>2026-05-26T09:25:31.000Z</time>
      </trkpt>
      <trkpt lat="44.65724" lon="5.04916">
        <ele>782</ele>
        <time>2026-05-26T09:25:32.000Z</time>
      </trkpt>
      <trkpt lat="44.65724" lon="5.04916">
        <ele>782</ele>
        <time>2026-05-26T09:25:33.000Z</time>
      </trkpt>
      <trkpt lat="44.65724" lon="5.04916">
        <ele>782</ele>
        <time>2026-05-26T09:25:34.000Z</time>
      </trkpt>
      <trkpt lat="44.65724" lon="5.04916">
        <ele>782</ele>
        <time>2026-05-26T09:25:35.000Z</time>
      </trkpt>
      <trkpt lat="44.65724" lon="5.04916">
        <ele>782</ele>
        <time>2026-05-26T09:25:36.000Z</time>
      </trkpt>
      <trkpt lat="44.65724" lon="5.04916">
        <ele>782</ele>
        <time>2026-05-26T09:25:37.000Z</time>
      </trkpt>
      <trkpt lat="44.65724" lon="5.04916">
        <ele>782</ele>
        <time>2026-05-26T09:25:38.000Z</time>
      </trkpt>
      <trkpt lat="44.65724" lon="5.04916">
        <ele>782</ele>
        <time>2026-05-26T09:25:39.000Z</time>
      </trkpt>
      <trkpt lat="44.65724" lon="5.04916">
        <ele>782</ele>
        <time>2026-05-26T09:25:40.000Z</time>
      </trkpt>
      <trkpt lat="44.65724" lon="5.04916">
        <ele>782</ele>
        <time>2026-05-26T09:25:41.000Z</time>
      </trkpt>
      <trkpt lat="44.65724" lon="5.04916">
        <ele>782</ele>
        <time>2026-05-26T09:25:42.000Z</time>
      </trkpt>
      <trkpt lat="44.65724" lon="5.04916">
        <ele>782</ele>
        <time>2026-05-26T09:25:43.000Z</time>
      </trkpt>
      <trkpt lat="44.65724" lon="5.04916">
        <ele>782</ele>
        <time>2026-05-26T09:25:44.000Z</time>
      </trkpt>
      <trkpt lat="44.65724" lon="5.04916">
        <ele>782</ele>
        <time>2026-05-26T09:25:45.000Z</time>
      </trkpt>
      <trkpt lat="44.65724" lon="5.04916">
        <ele>782</ele>
        <time>2026-05-26T09:25:46.000Z</time>
      </trkpt>
      <trkpt lat="44.65724" lon="5.04916">
        <ele>782</ele>
        <time>2026-05-26T09:25:47.000Z</time>
      </trkpt>
      <trkpt lat="44.65724" lon="5.04916">
        <ele>782</ele>
        <time>2026-05-26T09:25:48.000Z</time>
      </trkpt>
      <trkpt lat="44.65724" lon="5.04916">
        <ele>782</ele>
        <time>2026-05-26T09:25:49.000Z</time>
      </trkpt>
      <trkpt lat="44.65724" lon="5.04916">
        <ele>782</ele>
        <time>2026-05-26T09:25:50.000Z</time>
      </trkpt>
      <trkpt lat="44.65724" lon="5.04916">
        <ele>782</ele>
        <time>2026-05-26T09:25:51.000Z</time>
      </trkpt>
      <trkpt lat="44.65724" lon="5.04916">
        <ele>782</ele>
        <time>2026-05-26T09:25:52.000Z</time>
      </trkpt>
      <trkpt lat="44.65724" lon="5.04916">
        <ele>782</ele>
        <time>2026-05-26T09:25:53.000Z</time>
      </trkpt>
      <trkpt lat="44.65724" lon="5.04916">
        <ele>782</ele>
        <time>2026-05-26T09:25:54.000Z</time>
      </trkpt>
      <trkpt lat="44.65724" lon="5.04916">
        <ele>782</ele>
        <time>2026-05-26T09:25:55.000Z</time>
      </trkpt>
      <trkpt lat="44.65724" lon="5.04916">
        <ele>782</ele>
        <time>2026-05-26T09:25:56.000Z</time>
      </trkpt>
      <trkpt lat="44.65724" lon="5.04916">
        <ele>782</ele>
        <time>2026-05-26T09:25:57.000Z</time>
      </trkpt>
      <trkpt lat="44.65724" lon="5.04916">
        <ele>782</ele>
        <time>2026-05-26T09:25:58.000Z</time>
      </trkpt>
      <trkpt lat="44.65724" lon="5.04915">
        <ele>784</ele>
        <time>2026-05-26T09:25:59.000Z</time>
      </trkpt>
      <trkpt lat="44.65724" lon="5.04914">
        <ele>784</ele>
        <time>2026-05-26T09:26:00.000Z</time>
      </trkpt>
      <trkpt lat="44.65724" lon="5.04915">
        <ele>784</ele>
        <time>2026-05-26T09:26:01.000Z</time>
      </trkpt>
      <trkpt lat="44.65725" lon="5.04916">
        <ele>785</ele>
        <time>2026-05-26T09:26:02.000Z</time>
      </trkpt>
      <trkpt lat="44.65726" lon="5.04917">
        <ele>785</ele>
        <time>2026-05-26T09:26:03.000Z</time>
      </trkpt>
      <trkpt lat="44.65727" lon="5.04918">
        <ele>785</ele>
        <time>2026-05-26T09:26:04.000Z</time>
      </trkpt>
      <trkpt lat="44.65727" lon="5.04919">
        <ele>785</ele>
        <time>2026-05-26T09:26:05.000Z</time>
      </trkpt>
      <trkpt lat="44.65727" lon="5.0492">
        <ele>784</ele>
        <time>2026-05-26T09:26:06.000Z</time>
      </trkpt>
      <trkpt lat="44.65728" lon="5.04921">
        <ele>784</ele>
        <time>2026-05-26T09:26:07.000Z</time>
      </trkpt>
      <trkpt lat="44.65728" lon="5.04922">
        <ele>785</ele>
        <time>2026-05-26T09:26:08.000Z</time>
      </trkpt>
      <trkpt lat="44.65728" lon="5.0492">
        <ele>785</ele>
        <time>2026-05-26T09:26:09.000Z</time>
      </trkpt>
      <trkpt lat="44.65727" lon="5.0492">
        <ele>786</ele>
        <time>2026-05-26T09:26:10.000Z</time>
      </trkpt>
      <trkpt lat="44.65727" lon="5.04921">
        <ele>786</ele>
        <time>2026-05-26T09:26:11.000Z</time>
      </trkpt>
      <trkpt lat="44.65727" lon="5.04923">
        <ele>786</ele>
        <time>2026-05-26T09:26:12.000Z</time>
      </trkpt>
      <trkpt lat="44.65727" lon="5.04924">
        <ele>787</ele>
        <time>2026-05-26T09:26:13.000Z</time>
      </trkpt>
      <trkpt lat="44.65728" lon="5.04924">
        <ele>787</ele>
        <time>2026-05-26T09:26:14.000Z</time>
      </trkpt>
      <trkpt lat="44.65728" lon="5.04925">
        <ele>787</ele>
        <time>2026-05-26T09:26:15.000Z</time>
      </trkpt>
      <trkpt lat="44.65729" lon="5.04927">
        <ele>788</ele>
        <time>2026-05-26T09:26:16.000Z</time>
      </trkpt>
      <trkpt lat="44.65729" lon="5.04928">
        <ele>788</ele>
        <time>2026-05-26T09:26:17.000Z</time>
      </trkpt>
      <trkpt lat="44.6573" lon="5.0493">
        <ele>788</ele>
        <time>2026-05-26T09:26:18.000Z</time>
      </trkpt>
      <trkpt lat="44.6573" lon="5.0493">
        <ele>788</ele>
        <time>2026-05-26T09:26:19.000Z</time>
      </trkpt>
      <trkpt lat="44.65731" lon="5.04931">
        <ele>789</ele>
        <time>2026-05-26T09:26:20.000Z</time>
      </trkpt>
      <trkpt lat="44.6573" lon="5.04931">
        <ele>789</ele>
        <time>2026-05-26T09:26:21.000Z</time>
      </trkpt>
      <trkpt lat="44.65731" lon="5.04931">
        <ele>788</ele>
        <time>2026-05-26T09:26:22.000Z</time>
      </trkpt>
      <trkpt lat="44.65731" lon="5.04932">
        <ele>788</ele>
        <time>2026-05-26T09:26:23.000Z</time>
      </trkpt>
      <trkpt lat="44.65731" lon="5.04932">
        <ele>788</ele>
        <time>2026-05-26T09:26:24.000Z</time>
      </trkpt>
      <trkpt lat="44.65731" lon="5.04932">
        <ele>788</ele>
        <time>2026-05-26T09:26:25.000Z</time>
      </trkpt>
      <trkpt lat="44.65731" lon="5.04933">
        <ele>788</ele>
        <time>2026-05-26T09:26:26.000Z</time>
      </trkpt>
      <trkpt lat="44.65731" lon="5.04933">
        <ele>788</ele>
        <time>2026-05-26T09:26:27.000Z</time>
      </trkpt>
      <trkpt lat="44.65731" lon="5.04934">
        <ele>788</ele>
        <time>2026-05-26T09:26:28.000Z</time>
      </trkpt>
      <trkpt lat="44.65732" lon="5.04935">
        <ele>789</ele>
        <time>2026-05-26T09:26:29.000Z</time>
      </trkpt>
      <trkpt lat="44.65732" lon="5.04935">
        <ele>789</ele>
        <time>2026-05-26T09:26:30.000Z</time>
      </trkpt>
      <trkpt lat="44.65732" lon="5.04935">
        <ele>789</ele>
        <time>2026-05-26T09:26:31.000Z</time>
      </trkpt>
      <trkpt lat="44.65732" lon="5.04936">
        <ele>789</ele>
        <time>2026-05-26T09:26:32.000Z</time>
      </trkpt>
      <trkpt lat="44.65732" lon="5.04936">
        <ele>789</ele>
        <time>2026-05-26T09:26:33.000Z</time>
      </trkpt>
      <trkpt lat="44.65732" lon="5.04936">
        <ele>789</ele>
        <time>2026-05-26T09:26:34.000Z</time>
      </trkpt>
      <trkpt lat="44.65732" lon="5.04936">
        <ele>789</ele>
        <time>2026-05-26T09:26:35.000Z</time>
      </trkpt>
      <trkpt lat="44.65732" lon="5.04936">
        <ele>789</ele>
        <time>2026-05-26T09:26:36.000Z</time>
      </trkpt>
      <trkpt lat="44.65733" lon="5.04937">
        <ele>789</ele>
        <time>2026-05-26T09:26:37.000Z</time>
      </trkpt>
      <trkpt lat="44.65732" lon="5.04937">
        <ele>789</ele>
        <time>2026-05-26T09:26:38.000Z</time>
      </trkpt>
      <trkpt lat="44.65732" lon="5.04936">
        <ele>790</ele>
        <time>2026-05-26T09:26:39.000Z</time>
      </trkpt>
      <trkpt lat="44.65732" lon="5.04936">
        <ele>790</ele>
        <time>2026-05-26T09:26:40.000Z</time>
      </trkpt>
      <trkpt lat="44.65732" lon="5.04936">
        <ele>790</ele>
        <time>2026-05-26T09:26:41.000Z</time>
      </trkpt>
      <trkpt lat="44.65732" lon="5.04936">
        <ele>791</ele>
        <time>2026-05-26T09:26:42.000Z</time>
      </trkpt>
      <trkpt lat="44.65732" lon="5.04936">
        <ele>791</ele>
        <time>2026-05-26T09:26:43.000Z</time>
      </trkpt>
      <trkpt lat="44.65732" lon="5.04936">
        <ele>791</ele>
        <time>2026-05-26T09:26:44.000Z</time>
      </trkpt>
      <trkpt lat="44.65732" lon="5.04936">
        <ele>791</ele>
        <time>2026-05-26T09:26:45.000Z</time>
      </trkpt>
      <trkpt lat="44.65732" lon="5.04936">
        <ele>791</ele>
        <time>2026-05-26T09:26:46.000Z</time>
      </trkpt>
      <trkpt lat="44.65732" lon="5.04936">
        <ele>791</ele>
        <time>2026-05-26T09:26:47.000Z</time>
      </trkpt>
      <trkpt lat="44.65732" lon="5.04936">
        <ele>791</ele>
        <time>2026-05-26T09:26:48.000Z</time>
      </trkpt>
      <trkpt lat="44.65732" lon="5.04936">
        <ele>791</ele>
        <time>2026-05-26T09:26:49.000Z</time>
      </trkpt>
      <trkpt lat="44.65732" lon="5.04936">
        <ele>791</ele>
        <time>2026-05-26T09:26:50.000Z</time>
      </trkpt>
      <trkpt lat="44.65733" lon="5.04937">
        <ele>791</ele>
        <time>2026-05-26T09:26:51.000Z</time>
      </trkpt>
      <trkpt lat="44.65732" lon="5.04938">
        <ele>793</ele>
        <time>2026-05-26T09:26:52.000Z</time>
      </trkpt>
      <trkpt lat="44.65732" lon="5.04939">
        <ele>794</ele>
        <time>2026-05-26T09:26:53.000Z</time>
      </trkpt>
      <trkpt lat="44.65732" lon="5.04941">
        <ele>794</ele>
        <time>2026-05-26T09:26:54.000Z</time>
      </trkpt>
      <trkpt lat="44.65732" lon="5.04941">
        <ele>793</ele>
        <time>2026-05-26T09:26:55.000Z</time>
      </trkpt>
      <trkpt lat="44.65732" lon="5.04942">
        <ele>793</ele>
        <time>2026-05-26T09:26:56.000Z</time>
      </trkpt>
      <trkpt lat="44.65733" lon="5.04941">
        <ele>792</ele>
        <time>2026-05-26T09:26:57.000Z</time>
      </trkpt>
      <trkpt lat="44.65733" lon="5.04942">
        <ele>793</ele>
        <time>2026-05-26T09:26:58.000Z</time>
      </trkpt>
      <trkpt lat="44.65733" lon="5.04942">
        <ele>792</ele>
        <time>2026-05-26T09:26:59.000Z</time>
      </trkpt>
      <trkpt lat="44.65733" lon="5.04942">
        <ele>792</ele>
        <time>2026-05-26T09:27:00.000Z</time>
      </trkpt>
      <trkpt lat="44.65733" lon="5.04942">
        <ele>792</ele>
        <time>2026-05-26T09:27:01.000Z</time>
      </trkpt>
      <trkpt lat="44.65733" lon="5.04942">
        <ele>792</ele>
        <time>2026-05-26T09:27:02.000Z</time>
      </trkpt>
      <trkpt lat="44.65733" lon="5.04943">
        <ele>792</ele>
        <time>2026-05-26T09:27:03.000Z</time>
      </trkpt>
      <trkpt lat="44.65734" lon="5.04943">
        <ele>790</ele>
        <time>2026-05-26T09:27:04.000Z</time>
      </trkpt>
      <trkpt lat="44.65734" lon="5.04943">
        <ele>790</ele>
        <time>2026-05-26T09:27:05.000Z</time>
      </trkpt>
      <trkpt lat="44.65734" lon="5.04943">
        <ele>790</ele>
        <time>2026-05-26T09:27:06.000Z</time>
      </trkpt>
      <trkpt lat="44.65734" lon="5.04943">
        <ele>790</ele>
        <time>2026-05-26T09:27:07.000Z</time>
      </trkpt>
      <trkpt lat="44.65735" lon="5.04942">
        <ele>789</ele>
        <time>2026-05-26T09:27:08.000Z</time>
      </trkpt>
      <trkpt lat="44.65736" lon="5.04943">
        <ele>789</ele>
        <time>2026-05-26T09:27:09.000Z</time>
      </trkpt>
      <trkpt lat="44.65736" lon="5.04943">
        <ele>789</ele>
        <time>2026-05-26T09:27:10.000Z</time>
      </trkpt>
      <trkpt lat="44.65736" lon="5.04943">
        <ele>789</ele>
        <time>2026-05-26T09:27:11.000Z</time>
      </trkpt>
      <trkpt lat="44.65736" lon="5.04942">
        <ele>789</ele>
        <time>2026-05-26T09:27:12.000Z</time>
      </trkpt>
      <trkpt lat="44.65736" lon="5.04942">
        <ele>789</ele>
        <time>2026-05-26T09:27:13.000Z</time>
      </trkpt>
      <trkpt lat="44.65736" lon="5.04943">
        <ele>788</ele>
        <time>2026-05-26T09:27:14.000Z</time>
      </trkpt>
      <trkpt lat="44.65735" lon="5.04944">
        <ele>788</ele>
        <time>2026-05-26T09:27:15.000Z</time>
      </trkpt>
      <trkpt lat="44.65735" lon="5.04945">
        <ele>788</ele>
        <time>2026-05-26T09:27:16.000Z</time>
      </trkpt>
      <trkpt lat="44.65735" lon="5.04946">
        <ele>788</ele>
        <time>2026-05-26T09:27:17.000Z</time>
      </trkpt>
      <trkpt lat="44.65735" lon="5.04947">
        <ele>788</ele>
        <time>2026-05-26T09:27:18.000Z</time>
      </trkpt>
      <trkpt lat="44.65734" lon="5.04945">
        <ele>788</ele>
        <time>2026-05-26T09:27:19.000Z</time>
      </trkpt>
      <trkpt lat="44.65734" lon="5.04945">
        <ele>788</ele>
        <time>2026-05-26T09:27:20.000Z</time>
      </trkpt>
      <trkpt lat="44.65734" lon="5.04945">
        <ele>788</ele>
        <time>2026-05-26T09:27:21.000Z</time>
      </trkpt>
      <trkpt lat="44.65734" lon="5.04945">
        <ele>788</ele>
        <time>2026-05-26T09:27:22.000Z</time>
      </trkpt>
      <trkpt lat="44.65734" lon="5.04945">
        <ele>788</ele>
        <time>2026-05-26T09:27:23.000Z</time>
      </trkpt>
      <trkpt lat="44.65734" lon="5.04945">
        <ele>788</ele>
        <time>2026-05-26T09:27:24.000Z</time>
      </trkpt>
      <trkpt lat="44.65734" lon="5.04947">
        <ele>789</ele>
        <time>2026-05-26T09:27:25.000Z</time>
      </trkpt>
      <trkpt lat="44.65734" lon="5.04949">
        <ele>789</ele>
        <time>2026-05-26T09:27:26.000Z</time>
      </trkpt>
      <trkpt lat="44.65733" lon="5.04949">
        <ele>789</ele>
        <time>2026-05-26T09:27:27.000Z</time>
      </trkpt>
      <trkpt lat="44.65733" lon="5.04948">
        <ele>789</ele>
        <time>2026-05-26T09:27:28.000Z</time>
      </trkpt>
      <trkpt lat="44.65733" lon="5.04949">
        <ele>790</ele>
        <time>2026-05-26T09:27:29.000Z</time>
      </trkpt>
      <trkpt lat="44.65732" lon="5.0495">
        <ele>790</ele>
        <time>2026-05-26T09:27:30.000Z</time>
      </trkpt>
      <trkpt lat="44.65732" lon="5.0495">
        <ele>790</ele>
        <time>2026-05-26T09:27:31.000Z</time>
      </trkpt>
      <trkpt lat="44.65732" lon="5.0495">
        <ele>790</ele>
        <time>2026-05-26T09:27:32.000Z</time>
      </trkpt>
      <trkpt lat="44.65731" lon="5.0495">
        <ele>791</ele>
        <time>2026-05-26T09:27:33.000Z</time>
      </trkpt>
      <trkpt lat="44.65732" lon="5.0495">
        <ele>791</ele>
        <time>2026-05-26T09:27:34.000Z</time>
      </trkpt>
      <trkpt lat="44.65732" lon="5.04949">
        <ele>791</ele>
        <time>2026-05-26T09:27:35.000Z</time>
      </trkpt>
      <trkpt lat="44.65732" lon="5.04949">
        <ele>791</ele>
        <time>2026-05-26T09:27:36.000Z</time>
      </trkpt>
      <trkpt lat="44.65732" lon="5.04949">
        <ele>791</ele>
        <time>2026-05-26T09:27:37.000Z</time>
      </trkpt>
      <trkpt lat="44.65732" lon="5.04949">
        <ele>791</ele>
        <time>2026-05-26T09:27:38.000Z</time>
      </trkpt>
      <trkpt lat="44.65732" lon="5.04949">
        <ele>791</ele>
        <time>2026-05-26T09:27:39.000Z</time>
      </trkpt>
      <trkpt lat="44.65732" lon="5.04949">
        <ele>791</ele>
        <time>2026-05-26T09:27:40.000Z</time>
      </trkpt>
      <trkpt lat="44.65732" lon="5.04949">
        <ele>791</ele>
        <time>2026-05-26T09:27:41.000Z</time>
      </trkpt>
      <trkpt lat="44.65732" lon="5.04949">
        <ele>791</ele>
        <time>2026-05-26T09:27:42.000Z</time>
      </trkpt>
      <trkpt lat="44.65732" lon="5.04949">
        <ele>791</ele>
        <time>2026-05-26T09:27:43.000Z</time>
      </trkpt>
      <trkpt lat="44.65732" lon="5.04949">
        <ele>791</ele>
        <time>2026-05-26T09:27:44.000Z</time>
      </trkpt>
      <trkpt lat="44.65732" lon="5.04949">
        <ele>791</ele>
        <time>2026-05-26T09:27:45.000Z</time>
      </trkpt>
      <trkpt lat="44.65732" lon="5.04949">
        <ele>791</ele>
        <time>2026-05-26T09:27:46.000Z</time>
      </trkpt>
      <trkpt lat="44.65731" lon="5.04951">
        <ele>791</ele>
        <time>2026-05-26T09:27:47.000Z</time>
      </trkpt>
      <trkpt lat="44.65731" lon="5.04953">
        <ele>791</ele>
        <time>2026-05-26T09:27:48.000Z</time>
      </trkpt>
      <trkpt lat="44.65731" lon="5.04952">
        <ele>791</ele>
        <time>2026-05-26T09:27:49.000Z</time>
      </trkpt>
      <trkpt lat="44.6573" lon="5.04949">
        <ele>792</ele>
        <time>2026-05-26T09:27:50.000Z</time>
      </trkpt>
      <trkpt lat="44.6573" lon="5.04949">
        <ele>792</ele>
        <time>2026-05-26T09:27:51.000Z</time>
      </trkpt>
      <trkpt lat="44.65731" lon="5.04946">
        <ele>792</ele>
        <time>2026-05-26T09:27:52.000Z</time>
      </trkpt>
      <trkpt lat="44.6573" lon="5.04944">
        <ele>792</ele>
        <time>2026-05-26T09:27:53.000Z</time>
      </trkpt>
      <trkpt lat="44.65729" lon="5.04944">
        <ele>792</ele>
        <time>2026-05-26T09:27:54.000Z</time>
      </trkpt>
      <trkpt lat="44.65728" lon="5.04943">
        <ele>793</ele>
        <time>2026-05-26T09:27:55.000Z</time>
      </trkpt>
      <trkpt lat="44.65728" lon="5.04943">
        <ele>793</ele>
        <time>2026-05-26T09:27:56.000Z</time>
      </trkpt>
      <trkpt lat="44.65726" lon="5.04944">
        <ele>794</ele>
        <time>2026-05-26T09:27:57.000Z</time>
      </trkpt>
      <trkpt lat="44.65724" lon="5.04943">
        <ele>795</ele>
        <time>2026-05-26T09:27:58.000Z</time>
      </trkpt>
      <trkpt lat="44.65723" lon="5.04942">
        <ele>795</ele>
        <time>2026-05-26T09:27:59.000Z</time>
      </trkpt>
      <trkpt lat="44.65721" lon="5.04942">
        <ele>795</ele>
        <time>2026-05-26T09:28:00.000Z</time>
      </trkpt>
      <trkpt lat="44.65721" lon="5.04941">
        <ele>796</ele>
        <time>2026-05-26T09:28:01.000Z</time>
      </trkpt>
      <trkpt lat="44.65722" lon="5.04941">
        <ele>796</ele>
        <time>2026-05-26T09:28:02.000Z</time>
      </trkpt>
      <trkpt lat="44.65722" lon="5.04942">
        <ele>796</ele>
        <time>2026-05-26T09:28:03.000Z</time>
      </trkpt>
      <trkpt lat="44.65722" lon="5.04942">
        <ele>796</ele>
        <time>2026-05-26T09:28:04.000Z</time>
      </trkpt>
      <trkpt lat="44.65721" lon="5.04945">
        <ele>796</ele>
        <time>2026-05-26T09:28:05.000Z</time>
      </trkpt>
      <trkpt lat="44.65721" lon="5.04945">
        <ele>797</ele>
        <time>2026-05-26T09:28:06.000Z</time>
      </trkpt>
      <trkpt lat="44.65719" lon="5.04947">
        <ele>798</ele>
        <time>2026-05-26T09:28:07.000Z</time>
      </trkpt>
      <trkpt lat="44.65718" lon="5.04948">
        <ele>798</ele>
        <time>2026-05-26T09:28:08.000Z</time>
      </trkpt>
      <trkpt lat="44.65717" lon="5.04949">
        <ele>798</ele>
        <time>2026-05-26T09:28:09.000Z</time>
      </trkpt>
      <trkpt lat="44.65717" lon="5.04949">
        <ele>798</ele>
        <time>2026-05-26T09:28:10.000Z</time>
      </trkpt>
      <trkpt lat="44.65717" lon="5.04949">
        <ele>799</ele>
        <time>2026-05-26T09:28:11.000Z</time>
      </trkpt>
      <trkpt lat="44.65716" lon="5.0495">
        <ele>799</ele>
        <time>2026-05-26T09:28:12.000Z</time>
      </trkpt>
      <trkpt lat="44.65716" lon="5.04951">
        <ele>799</ele>
        <time>2026-05-26T09:28:13.000Z</time>
      </trkpt>
      <trkpt lat="44.65716" lon="5.04951">
        <ele>799</ele>
        <time>2026-05-26T09:28:14.000Z</time>
      </trkpt>
      <trkpt lat="44.65716" lon="5.04948">
        <ele>800</ele>
        <time>2026-05-26T09:28:15.000Z</time>
      </trkpt>
      <trkpt lat="44.65715" lon="5.04947">
        <ele>801</ele>
        <time>2026-05-26T09:28:16.000Z</time>
      </trkpt>
      <trkpt lat="44.65714" lon="5.04947">
        <ele>801</ele>
        <time>2026-05-26T09:28:17.000Z</time>
      </trkpt>
      <trkpt lat="44.65714" lon="5.04949">
        <ele>802</ele>
        <time>2026-05-26T09:28:18.000Z</time>
      </trkpt>
      <trkpt lat="44.65713" lon="5.0495">
        <ele>803</ele>
        <time>2026-05-26T09:28:19.000Z</time>
      </trkpt>
      <trkpt lat="44.65712" lon="5.04952">
        <ele>802</ele>
        <time>2026-05-26T09:28:20.000Z</time>
      </trkpt>
      <trkpt lat="44.65712" lon="5.04954">
        <ele>802</ele>
        <time>2026-05-26T09:28:21.000Z</time>
      </trkpt>
      <trkpt lat="44.65712" lon="5.04955">
        <ele>802</ele>
        <time>2026-05-26T09:28:22.000Z</time>
      </trkpt>
      <trkpt lat="44.65713" lon="5.04956">
        <ele>802</ele>
        <time>2026-05-26T09:28:23.000Z</time>
      </trkpt>
      <trkpt lat="44.65714" lon="5.04958">
        <ele>803</ele>
        <time>2026-05-26T09:28:24.000Z</time>
      </trkpt>
      <trkpt lat="44.65715" lon="5.04959">
        <ele>803</ele>
        <time>2026-05-26T09:28:25.000Z</time>
      </trkpt>
      <trkpt lat="44.65716" lon="5.04959">
        <ele>803</ele>
        <time>2026-05-26T09:28:26.000Z</time>
      </trkpt>
      <trkpt lat="44.65717" lon="5.04961">
        <ele>802</ele>
        <time>2026-05-26T09:28:27.000Z</time>
      </trkpt>
      <trkpt lat="44.65717" lon="5.0496">
        <ele>802</ele>
        <time>2026-05-26T09:28:28.000Z</time>
      </trkpt>
      <trkpt lat="44.65718" lon="5.04962">
        <ele>801</ele>
        <time>2026-05-26T09:28:29.000Z</time>
      </trkpt>
      <trkpt lat="44.65719" lon="5.04963">
        <ele>801</ele>
        <time>2026-05-26T09:28:30.000Z</time>
      </trkpt>
      <trkpt lat="44.65719" lon="5.04963">
        <ele>801</ele>
        <time>2026-05-26T09:28:31.000Z</time>
      </trkpt>
      <trkpt lat="44.6572" lon="5.04964">
        <ele>801</ele>
        <time>2026-05-26T09:28:32.000Z</time>
      </trkpt>
      <trkpt lat="44.6572" lon="5.04964">
        <ele>801</ele>
        <time>2026-05-26T09:28:33.000Z</time>
      </trkpt>
      <trkpt lat="44.6572" lon="5.04964">
        <ele>801</ele>
        <time>2026-05-26T09:28:34.000Z</time>
      </trkpt>
      <trkpt lat="44.65719" lon="5.04964">
        <ele>801</ele>
        <time>2026-05-26T09:28:35.000Z</time>
      </trkpt>
      <trkpt lat="44.65719" lon="5.04965">
        <ele>801</ele>
        <time>2026-05-26T09:28:36.000Z</time>
      </trkpt>
      <trkpt lat="44.65719" lon="5.04965">
        <ele>801</ele>
        <time>2026-05-26T09:28:37.000Z</time>
      </trkpt>
      <trkpt lat="44.6572" lon="5.04965">
        <ele>801</ele>
        <time>2026-05-26T09:28:38.000Z</time>
      </trkpt>
      <trkpt lat="44.65722" lon="5.04966">
        <ele>801</ele>
        <time>2026-05-26T09:28:39.000Z</time>
      </trkpt>
      <trkpt lat="44.65723" lon="5.04966">
        <ele>801</ele>
        <time>2026-05-26T09:28:40.000Z</time>
      </trkpt>
      <trkpt lat="44.65725" lon="5.04966">
        <ele>801</ele>
        <time>2026-05-26T09:28:41.000Z</time>
      </trkpt>
      <trkpt lat="44.65724" lon="5.04965">
        <ele>802</ele>
        <time>2026-05-26T09:28:42.000Z</time>
      </trkpt>
      <trkpt lat="44.65725" lon="5.04965">
        <ele>802</ele>
        <time>2026-05-26T09:28:43.000Z</time>
      </trkpt>
      <trkpt lat="44.65725" lon="5.04966">
        <ele>802</ele>
        <time>2026-05-26T09:28:44.000Z</time>
      </trkpt>
      <trkpt lat="44.65726" lon="5.04967">
        <ele>802</ele>
        <time>2026-05-26T09:28:45.000Z</time>
      </trkpt>
      <trkpt lat="44.65725" lon="5.04967">
        <ele>802</ele>
        <time>2026-05-26T09:28:46.000Z</time>
      </trkpt>
      <trkpt lat="44.65725" lon="5.04967">
        <ele>802</ele>
        <time>2026-05-26T09:28:47.000Z</time>
      </trkpt>
      <trkpt lat="44.65726" lon="5.04966">
        <ele>803</ele>
        <time>2026-05-26T09:28:48.000Z</time>
      </trkpt>
      <trkpt lat="44.65725" lon="5.04966">
        <ele>803</ele>
        <time>2026-05-26T09:28:49.000Z</time>
      </trkpt>
      <trkpt lat="44.65725" lon="5.04967">
        <ele>802</ele>
        <time>2026-05-26T09:28:50.000Z</time>
      </trkpt>
      <trkpt lat="44.65724" lon="5.04966">
        <ele>803</ele>
        <time>2026-05-26T09:28:51.000Z</time>
      </trkpt>
      <trkpt lat="44.65724" lon="5.04966">
        <ele>803</ele>
        <time>2026-05-26T09:28:52.000Z</time>
      </trkpt>
      <trkpt lat="44.65724" lon="5.04966">
        <ele>803</ele>
        <time>2026-05-26T09:28:53.000Z</time>
      </trkpt>
      <trkpt lat="44.65725" lon="5.04967">
        <ele>803</ele>
        <time>2026-05-26T09:28:54.000Z</time>
      </trkpt>
      <trkpt lat="44.65724" lon="5.04969">
        <ele>804</ele>
        <time>2026-05-26T09:28:55.000Z</time>
      </trkpt>
      <trkpt lat="44.65722" lon="5.04969">
        <ele>803</ele>
        <time>2026-05-26T09:28:56.000Z</time>
      </trkpt>
      <trkpt lat="44.65721" lon="5.04969">
        <ele>803</ele>
        <time>2026-05-26T09:28:57.000Z</time>
      </trkpt>
      <trkpt lat="44.65721" lon="5.04968">
        <ele>803</ele>
        <time>2026-05-26T09:28:58.000Z</time>
      </trkpt>
      <trkpt lat="44.65721" lon="5.0497">
        <ele>803</ele>
        <time>2026-05-26T09:28:59.000Z</time>
      </trkpt>
      <trkpt lat="44.65721" lon="5.04971">
        <ele>803</ele>
        <time>2026-05-26T09:29:00.000Z</time>
      </trkpt>
      <trkpt lat="44.65721" lon="5.04974">
        <ele>802</ele>
        <time>2026-05-26T09:29:01.000Z</time>
      </trkpt>
      <trkpt lat="44.65721" lon="5.04975">
        <ele>801</ele>
        <time>2026-05-26T09:29:02.000Z</time>
      </trkpt>
      <trkpt lat="44.65721" lon="5.04976">
        <ele>801</ele>
        <time>2026-05-26T09:29:03.000Z</time>
      </trkpt>
      <trkpt lat="44.6572" lon="5.04975">
        <ele>802</ele>
        <time>2026-05-26T09:29:04.000Z</time>
      </trkpt>
      <trkpt lat="44.65719" lon="5.04976">
        <ele>802</ele>
        <time>2026-05-26T09:29:05.000Z</time>
      </trkpt>
      <trkpt lat="44.65717" lon="5.04975">
        <ele>802</ele>
        <time>2026-05-26T09:29:06.000Z</time>
      </trkpt>
      <trkpt lat="44.65717" lon="5.04974">
        <ele>802</ele>
        <time>2026-05-26T09:29:07.000Z</time>
      </trkpt>
      <trkpt lat="44.65717" lon="5.04975">
        <ele>803</ele>
        <time>2026-05-26T09:29:08.000Z</time>
      </trkpt>
      <trkpt lat="44.65716" lon="5.04976">
        <ele>803</ele>
        <time>2026-05-26T09:29:09.000Z</time>
      </trkpt>
      <trkpt lat="44.65715" lon="5.04975">
        <ele>803</ele>
        <time>2026-05-26T09:29:10.000Z</time>
      </trkpt>
      <trkpt lat="44.65715" lon="5.04975">
        <ele>803</ele>
        <time>2026-05-26T09:29:11.000Z</time>
      </trkpt>
      <trkpt lat="44.65714" lon="5.04973">
        <ele>804</ele>
        <time>2026-05-26T09:29:12.000Z</time>
      </trkpt>
      <trkpt lat="44.65713" lon="5.04973">
        <ele>805</ele>
        <time>2026-05-26T09:29:13.000Z</time>
      </trkpt>
      <trkpt lat="44.65712" lon="5.04972">
        <ele>806</ele>
        <time>2026-05-26T09:29:14.000Z</time>
      </trkpt>
      <trkpt lat="44.65713" lon="5.04973">
        <ele>807</ele>
        <time>2026-05-26T09:29:15.000Z</time>
      </trkpt>
      <trkpt lat="44.65712" lon="5.04973">
        <ele>806</ele>
        <time>2026-05-26T09:29:16.000Z</time>
      </trkpt>
      <trkpt lat="44.6571" lon="5.04974">
        <ele>807</ele>
        <time>2026-05-26T09:29:17.000Z</time>
      </trkpt>
      <trkpt lat="44.65709" lon="5.04975">
        <ele>807</ele>
        <time>2026-05-26T09:29:18.000Z</time>
      </trkpt>
      <trkpt lat="44.6571" lon="5.04975">
        <ele>807</ele>
        <time>2026-05-26T09:29:19.000Z</time>
      </trkpt>
      <trkpt lat="44.65708" lon="5.04974">
        <ele>808</ele>
        <time>2026-05-26T09:29:20.000Z</time>
      </trkpt>
      <trkpt lat="44.65708" lon="5.04974">
        <ele>808</ele>
        <time>2026-05-26T09:29:21.000Z</time>
      </trkpt>
      <trkpt lat="44.65707" lon="5.04974">
        <ele>808</ele>
        <time>2026-05-26T09:29:22.000Z</time>
      </trkpt>
      <trkpt lat="44.65707" lon="5.04972">
        <ele>808</ele>
        <time>2026-05-26T09:29:23.000Z</time>
      </trkpt>
      <trkpt lat="44.65707" lon="5.04973">
        <ele>808</ele>
        <time>2026-05-26T09:29:24.000Z</time>
      </trkpt>
      <trkpt lat="44.65707" lon="5.04971">
        <ele>809</ele>
        <time>2026-05-26T09:29:25.000Z</time>
      </trkpt>
      <trkpt lat="44.65707" lon="5.0497">
        <ele>809</ele>
        <time>2026-05-26T09:29:26.000Z</time>
      </trkpt>
      <trkpt lat="44.65708" lon="5.04971">
        <ele>809</ele>
        <time>2026-05-26T09:29:27.000Z</time>
      </trkpt>
      <trkpt lat="44.65707" lon="5.04972">
        <ele>809</ele>
        <time>2026-05-26T09:29:28.000Z</time>
      </trkpt>
      <trkpt lat="44.65708" lon="5.04971">
        <ele>809</ele>
        <time>2026-05-26T09:29:29.000Z</time>
      </trkpt>
      <trkpt lat="44.65708" lon="5.0497">
        <ele>809</ele>
        <time>2026-05-26T09:29:30.000Z</time>
      </trkpt>
      <trkpt lat="44.65708" lon="5.04968">
        <ele>809</ele>
        <time>2026-05-26T09:29:31.000Z</time>
      </trkpt>
      <trkpt lat="44.65707" lon="5.04968">
        <ele>809</ele>
        <time>2026-05-26T09:29:32.000Z</time>
      </trkpt>
      <trkpt lat="44.65707" lon="5.04968">
        <ele>809</ele>
        <time>2026-05-26T09:29:33.000Z</time>
      </trkpt>
      <trkpt lat="44.65707" lon="5.04968">
        <ele>810</ele>
        <time>2026-05-26T09:29:34.000Z</time>
      </trkpt>
      <trkpt lat="44.65707" lon="5.0497">
        <ele>810</ele>
        <time>2026-05-26T09:29:35.000Z</time>
      </trkpt>
      <trkpt lat="44.65706" lon="5.0497">
        <ele>810</ele>
        <time>2026-05-26T09:29:36.000Z</time>
      </trkpt>
      <trkpt lat="44.65704" lon="5.04969">
        <ele>809</ele>
        <time>2026-05-26T09:29:37.000Z</time>
      </trkpt>
      <trkpt lat="44.65704" lon="5.04969">
        <ele>810</ele>
        <time>2026-05-26T09:29:38.000Z</time>
      </trkpt>
      <trkpt lat="44.65704" lon="5.04969">
        <ele>811</ele>
        <time>2026-05-26T09:29:39.000Z</time>
      </trkpt>
      <trkpt lat="44.65704" lon="5.04969">
        <ele>811</ele>
        <time>2026-05-26T09:29:40.000Z</time>
      </trkpt>
      <trkpt lat="44.65702" lon="5.04974">
        <ele>809</ele>
        <time>2026-05-26T09:29:41.000Z</time>
      </trkpt>
      <trkpt lat="44.65702" lon="5.04974">
        <ele>809</ele>
        <time>2026-05-26T09:29:42.000Z</time>
      </trkpt>
      <trkpt lat="44.65702" lon="5.04974">
        <ele>809</ele>
        <time>2026-05-26T09:29:43.000Z</time>
      </trkpt>
      <trkpt lat="44.65702" lon="5.04974">
        <ele>809</ele>
        <time>2026-05-26T09:29:44.000Z</time>
      </trkpt>
      <trkpt lat="44.65702" lon="5.04974">
        <ele>809</ele>
        <time>2026-05-26T09:29:45.000Z</time>
      </trkpt>
      <trkpt lat="44.65702" lon="5.04974">
        <ele>809</ele>
        <time>2026-05-26T09:29:46.000Z</time>
      </trkpt>
      <trkpt lat="44.65702" lon="5.04974">
        <ele>809</ele>
        <time>2026-05-26T09:29:47.000Z</time>
      </trkpt>
      <trkpt lat="44.65702" lon="5.04974">
        <ele>809</ele>
        <time>2026-05-26T09:29:48.000Z</time>
      </trkpt>
      <trkpt lat="44.65702" lon="5.04974">
        <ele>809</ele>
        <time>2026-05-26T09:29:49.000Z</time>
      </trkpt>
      <trkpt lat="44.65702" lon="5.04974">
        <ele>809</ele>
        <time>2026-05-26T09:29:50.000Z</time>
      </trkpt>
      <trkpt lat="44.65702" lon="5.04974">
        <ele>809</ele>
        <time>2026-05-26T09:29:51.000Z</time>
      </trkpt>
      <trkpt lat="44.65702" lon="5.04974">
        <ele>809</ele>
        <time>2026-05-26T09:29:52.000Z</time>
      </trkpt>
      <trkpt lat="44.65702" lon="5.04974">
        <ele>809</ele>
        <time>2026-05-26T09:29:53.000Z</time>
      </trkpt>
      <trkpt lat="44.65702" lon="5.04974">
        <ele>809</ele>
        <time>2026-05-26T09:29:54.000Z</time>
      </trkpt>
      <trkpt lat="44.65702" lon="5.04974">
        <ele>809</ele>
        <time>2026-05-26T09:29:55.000Z</time>
      </trkpt>
      <trkpt lat="44.65702" lon="5.04974">
        <ele>809</ele>
        <time>2026-05-26T09:29:56.000Z</time>
      </trkpt>
      <trkpt lat="44.65702" lon="5.04974">
        <ele>809</ele>
        <time>2026-05-26T09:29:57.000Z</time>
      </trkpt>
      <trkpt lat="44.65702" lon="5.04974">
        <ele>809</ele>
        <time>2026-05-26T09:29:58.000Z</time>
      </trkpt>
      <trkpt lat="44.65702" lon="5.04974">
        <ele>809</ele>
        <time>2026-05-26T09:29:59.000Z</time>
      </trkpt>
      <trkpt lat="44.65702" lon="5.04974">
        <ele>809</ele>
        <time>2026-05-26T09:30:00.000Z</time>
      </trkpt>
      <trkpt lat="44.65702" lon="5.04974">
        <ele>809</ele>
        <time>2026-05-26T09:30:01.000Z</time>
      </trkpt>
      <trkpt lat="44.65702" lon="5.04974">
        <ele>809</ele>
        <time>2026-05-26T09:30:02.000Z</time>
      </trkpt>
      <trkpt lat="44.65702" lon="5.04974">
        <ele>809</ele>
        <time>2026-05-26T09:30:03.000Z</time>
      </trkpt>
      <trkpt lat="44.65702" lon="5.04974">
        <ele>809</ele>
        <time>2026-05-26T09:30:04.000Z</time>
      </trkpt>
      <trkpt lat="44.65702" lon="5.04974">
        <ele>809</ele>
        <time>2026-05-26T09:30:05.000Z</time>
      </trkpt>
      <trkpt lat="44.65702" lon="5.04974">
        <ele>809</ele>
        <time>2026-05-26T09:30:06.000Z</time>
      </trkpt>
      <trkpt lat="44.65702" lon="5.04974">
        <ele>809</ele>
        <time>2026-05-26T09:30:07.000Z</time>
      </trkpt>
      <trkpt lat="44.65702" lon="5.04974">
        <ele>809</ele>
        <time>2026-05-26T09:30:08.000Z</time>
      </trkpt>
      <trkpt lat="44.65702" lon="5.04974">
        <ele>809</ele>
        <time>2026-05-26T09:30:09.000Z</time>
      </trkpt>
      <trkpt lat="44.65702" lon="5.04974">
        <ele>809</ele>
        <time>2026-05-26T09:30:10.000Z</time>
      </trkpt>
      <trkpt lat="44.65702" lon="5.04974">
        <ele>809</ele>
        <time>2026-05-26T09:30:11.000Z</time>
      </trkpt>
      <trkpt lat="44.65702" lon="5.04974">
        <ele>809</ele>
        <time>2026-05-26T09:30:12.000Z</time>
      </trkpt>
      <trkpt lat="44.65702" lon="5.04974">
        <ele>809</ele>
        <time>2026-05-26T09:30:13.000Z</time>
      </trkpt>
      <trkpt lat="44.65702" lon="5.04974">
        <ele>809</ele>
        <time>2026-05-26T09:30:14.000Z</time>
      </trkpt>
      <trkpt lat="44.65702" lon="5.04974">
        <ele>809</ele>
        <time>2026-05-26T09:30:15.000Z</time>
      </trkpt>
      <trkpt lat="44.65702" lon="5.04974">
        <ele>809</ele>
        <time>2026-05-26T09:30:16.000Z</time>
      </trkpt>
      <trkpt lat="44.65702" lon="5.04974">
        <ele>809</ele>
        <time>2026-05-26T09:30:17.000Z</time>
      </trkpt>
      <trkpt lat="44.65702" lon="5.04974">
        <ele>809</ele>
        <time>2026-05-26T09:30:18.000Z</time>
      </trkpt>
      <trkpt lat="44.65702" lon="5.04974">
        <ele>809</ele>
        <time>2026-05-26T09:30:19.000Z</time>
      </trkpt>
      <trkpt lat="44.65702" lon="5.04974">
        <ele>809</ele>
        <time>2026-05-26T09:30:20.000Z</time>
      </trkpt>
      <trkpt lat="44.65702" lon="5.04974">
        <ele>809</ele>
        <time>2026-05-26T09:30:21.000Z</time>
      </trkpt>
      <trkpt lat="44.65702" lon="5.04974">
        <ele>809</ele>
        <time>2026-05-26T09:30:22.000Z</time>
      </trkpt>
      <trkpt lat="44.65702" lon="5.04974">
        <ele>809</ele>
        <time>2026-05-26T09:30:23.000Z</time>
      </trkpt>
      <trkpt lat="44.65702" lon="5.04974">
        <ele>809</ele>
        <time>2026-05-26T09:30:24.000Z</time>
      </trkpt>
      <trkpt lat="44.65702" lon="5.04974">
        <ele>809</ele>
        <time>2026-05-26T09:30:25.000Z</time>
      </trkpt>
      <trkpt lat="44.65702" lon="5.04974">
        <ele>809</ele>
        <time>2026-05-26T09:30:26.000Z</time>
      </trkpt>
      <trkpt lat="44.65702" lon="5.04974">
        <ele>809</ele>
        <time>2026-05-26T09:30:27.000Z</time>
      </trkpt>
      <trkpt lat="44.65702" lon="5.04974">
        <ele>809</ele>
        <time>2026-05-26T09:30:28.000Z</time>
      </trkpt>
      <trkpt lat="44.65702" lon="5.04974">
        <ele>809</ele>
        <time>2026-05-26T09:30:29.000Z</time>
      </trkpt>
      <trkpt lat="44.65702" lon="5.04974">
        <ele>809</ele>
        <time>2026-05-26T09:30:30.000Z</time>
      </trkpt>
      <trkpt lat="44.65702" lon="5.04974">
        <ele>809</ele>
        <time>2026-05-26T09:30:31.000Z</time>
      </trkpt>
      <trkpt lat="44.65702" lon="5.04974">
        <ele>809</ele>
        <time>2026-05-26T09:30:32.000Z</time>
      </trkpt>
      <trkpt lat="44.65702" lon="5.04974">
        <ele>809</ele>
        <time>2026-05-26T09:30:33.000Z</time>
      </trkpt>
      <trkpt lat="44.65702" lon="5.04974">
        <ele>809</ele>
        <time>2026-05-26T09:30:34.000Z</time>
      </trkpt>
      <trkpt lat="44.65702" lon="5.04974">
        <ele>809</ele>
        <time>2026-05-26T09:30:35.000Z</time>
      </trkpt>
      <trkpt lat="44.65702" lon="5.04974">
        <ele>809</ele>
        <time>2026-05-26T09:30:36.000Z</time>
      </trkpt>
      <trkpt lat="44.65702" lon="5.04974">
        <ele>809</ele>
        <time>2026-05-26T09:30:37.000Z</time>
      </trkpt>
      <trkpt lat="44.65702" lon="5.04974">
        <ele>809</ele>
        <time>2026-05-26T09:30:38.000Z</time>
      </trkpt>
      <trkpt lat="44.65702" lon="5.04974">
        <ele>809</ele>
        <time>2026-05-26T09:30:39.000Z</time>
      </trkpt>
      <trkpt lat="44.65702" lon="5.04974">
        <ele>809</ele>
        <time>2026-05-26T09:30:40.000Z</time>
      </trkpt>
      <trkpt lat="44.65702" lon="5.04974">
        <ele>809</ele>
        <time>2026-05-26T09:30:41.000Z</time>
      </trkpt>
      <trkpt lat="44.65702" lon="5.04974">
        <ele>809</ele>
        <time>2026-05-26T09:30:42.000Z</time>
      </trkpt>
      <trkpt lat="44.65702" lon="5.04974">
        <ele>809</ele>
        <time>2026-05-26T09:30:43.000Z</time>
      </trkpt>
      <trkpt lat="44.65702" lon="5.04974">
        <ele>809</ele>
        <time>2026-05-26T09:30:44.000Z</time>
      </trkpt>
      <trkpt lat="44.65702" lon="5.04974">
        <ele>809</ele>
        <time>2026-05-26T09:30:45.000Z</time>
      </trkpt>
      <trkpt lat="44.65702" lon="5.04974">
        <ele>809</ele>
        <time>2026-05-26T09:30:46.000Z</time>
      </trkpt>
      <trkpt lat="44.65702" lon="5.04974">
        <ele>809</ele>
        <time>2026-05-26T09:30:47.000Z</time>
      </trkpt>
      <trkpt lat="44.65702" lon="5.04974">
        <ele>809</ele>
        <time>2026-05-26T09:30:48.000Z</time>
      </trkpt>
      <trkpt lat="44.65702" lon="5.04974">
        <ele>809</ele>
        <time>2026-05-26T09:30:49.000Z</time>
      </trkpt>
      <trkpt lat="44.65702" lon="5.04974">
        <ele>809</ele>
        <time>2026-05-26T09:30:50.000Z</time>
      </trkpt>
      <trkpt lat="44.65702" lon="5.04974">
        <ele>809</ele>
        <time>2026-05-26T09:30:51.000Z</time>
      </trkpt>
      <trkpt lat="44.65702" lon="5.04974">
        <ele>809</ele>
        <time>2026-05-26T09:30:52.000Z</time>
      </trkpt>
      <trkpt lat="44.65702" lon="5.04974">
        <ele>809</ele>
        <time>2026-05-26T09:30:53.000Z</time>
      </trkpt>
      <trkpt lat="44.65702" lon="5.04974">
        <ele>809</ele>
        <time>2026-05-26T09:30:54.000Z</time>
      </trkpt>
      <trkpt lat="44.65703" lon="5.04975">
        <ele>809</ele>
        <time>2026-05-26T09:30:55.000Z</time>
      </trkpt>
      <trkpt lat="44.65702" lon="5.04976">
        <ele>808</ele>
        <time>2026-05-26T09:30:56.000Z</time>
      </trkpt>
      <trkpt lat="44.65701" lon="5.04976">
        <ele>809</ele>
        <time>2026-05-26T09:30:57.000Z</time>
      </trkpt>
      <trkpt lat="44.657" lon="5.04978">
        <ele>809</ele>
        <time>2026-05-26T09:30:58.000Z</time>
      </trkpt>
      <trkpt lat="44.65699" lon="5.04978">
        <ele>809</ele>
        <time>2026-05-26T09:30:59.000Z</time>
      </trkpt>
      <trkpt lat="44.65697" lon="5.04978">
        <ele>809</ele>
        <time>2026-05-26T09:31:00.000Z</time>
      </trkpt>
      <trkpt lat="44.65695" lon="5.04978">
        <ele>809</ele>
        <time>2026-05-26T09:31:01.000Z</time>
      </trkpt>
      <trkpt lat="44.65694" lon="5.04978">
        <ele>809</ele>
        <time>2026-05-26T09:31:02.000Z</time>
      </trkpt>
      <trkpt lat="44.65693" lon="5.04978">
        <ele>810</ele>
        <time>2026-05-26T09:31:03.000Z</time>
      </trkpt>
      <trkpt lat="44.65692" lon="5.04979">
        <ele>810</ele>
        <time>2026-05-26T09:31:04.000Z</time>
      </trkpt>
      <trkpt lat="44.65691" lon="5.04979">
        <ele>811</ele>
        <time>2026-05-26T09:31:05.000Z</time>
      </trkpt>
      <trkpt lat="44.6569" lon="5.04979">
        <ele>811</ele>
        <time>2026-05-26T09:31:06.000Z</time>
      </trkpt>
      <trkpt lat="44.65689" lon="5.04979">
        <ele>812</ele>
        <time>2026-05-26T09:31:07.000Z</time>
      </trkpt>
      <trkpt lat="44.65689" lon="5.04981">
        <ele>813</ele>
        <time>2026-05-26T09:31:08.000Z</time>
      </trkpt>
      <trkpt lat="44.65688" lon="5.04983">
        <ele>813</ele>
        <time>2026-05-26T09:31:09.000Z</time>
      </trkpt>
      <trkpt lat="44.65687" lon="5.04983">
        <ele>813</ele>
        <time>2026-05-26T09:31:10.000Z</time>
      </trkpt>
      <trkpt lat="44.65687" lon="5.04984">
        <ele>814</ele>
        <time>2026-05-26T09:31:11.000Z</time>
      </trkpt>
      <trkpt lat="44.65687" lon="5.04984">
        <ele>814</ele>
        <time>2026-05-26T09:31:12.000Z</time>
      </trkpt>
      <trkpt lat="44.65688" lon="5.04984">
        <ele>814</ele>
        <time>2026-05-26T09:31:13.000Z</time>
      </trkpt>
      <trkpt lat="44.65688" lon="5.04985">
        <ele>815</ele>
        <time>2026-05-26T09:31:14.000Z</time>
      </trkpt>
      <trkpt lat="44.65688" lon="5.04985">
        <ele>815</ele>
        <time>2026-05-26T09:31:15.000Z</time>
      </trkpt>
      <trkpt lat="44.65688" lon="5.04985">
        <ele>815</ele>
        <time>2026-05-26T09:31:16.000Z</time>
      </trkpt>
      <trkpt lat="44.65687" lon="5.04985">
        <ele>815</ele>
        <time>2026-05-26T09:31:17.000Z</time>
      </trkpt>
      <trkpt lat="44.65688" lon="5.04985">
        <ele>815</ele>
        <time>2026-05-26T09:31:18.000Z</time>
      </trkpt>
      <trkpt lat="44.65688" lon="5.04986">
        <ele>815</ele>
        <time>2026-05-26T09:31:19.000Z</time>
      </trkpt>
      <trkpt lat="44.65688" lon="5.04986">
        <ele>815</ele>
        <time>2026-05-26T09:31:20.000Z</time>
      </trkpt>
      <trkpt lat="44.65689" lon="5.04986">
        <ele>815</ele>
        <time>2026-05-26T09:31:21.000Z</time>
      </trkpt>
      <trkpt lat="44.65689" lon="5.04986">
        <ele>815</ele>
        <time>2026-05-26T09:31:22.000Z</time>
      </trkpt>
      <trkpt lat="44.65689" lon="5.04986">
        <ele>815</ele>
        <time>2026-05-26T09:31:23.000Z</time>
      </trkpt>
      <trkpt lat="44.65689" lon="5.04986">
        <ele>815</ele>
        <time>2026-05-26T09:31:24.000Z</time>
      </trkpt>
      <trkpt lat="44.65689" lon="5.04986">
        <ele>815</ele>
        <time>2026-05-26T09:31:25.000Z</time>
      </trkpt>
      <trkpt lat="44.65689" lon="5.04986">
        <ele>815</ele>
        <time>2026-05-26T09:31:26.000Z</time>
      </trkpt>
      <trkpt lat="44.65688" lon="5.04987">
        <ele>816</ele>
        <time>2026-05-26T09:31:27.000Z</time>
      </trkpt>
      <trkpt lat="44.65688" lon="5.04988">
        <ele>816</ele>
        <time>2026-05-26T09:31:28.000Z</time>
      </trkpt>
      <trkpt lat="44.65688" lon="5.04988">
        <ele>816</ele>
        <time>2026-05-26T09:31:29.000Z</time>
      </trkpt>
      <trkpt lat="44.65687" lon="5.04988">
        <ele>816</ele>
        <time>2026-05-26T09:31:30.000Z</time>
      </trkpt>
      <trkpt lat="44.65687" lon="5.04988">
        <ele>816</ele>
        <time>2026-05-26T09:31:31.000Z</time>
      </trkpt>
      <trkpt lat="44.65687" lon="5.04989">
        <ele>816</ele>
        <time>2026-05-26T09:31:32.000Z</time>
      </trkpt>
      <trkpt lat="44.65686" lon="5.04988">
        <ele>815</ele>
        <time>2026-05-26T09:31:33.000Z</time>
      </trkpt>
      <trkpt lat="44.65685" lon="5.04987">
        <ele>815</ele>
        <time>2026-05-26T09:31:34.000Z</time>
      </trkpt>
      <trkpt lat="44.65684" lon="5.04985">
        <ele>815</ele>
        <time>2026-05-26T09:31:35.000Z</time>
      </trkpt>
      <trkpt lat="44.65684" lon="5.04984">
        <ele>816</ele>
        <time>2026-05-26T09:31:36.000Z</time>
      </trkpt>
      <trkpt lat="44.65683" lon="5.04983">
        <ele>816</ele>
        <time>2026-05-26T09:31:37.000Z</time>
      </trkpt>
      <trkpt lat="44.65682" lon="5.04983">
        <ele>816</ele>
        <time>2026-05-26T09:31:38.000Z</time>
      </trkpt>
      <trkpt lat="44.65682" lon="5.04982">
        <ele>816</ele>
        <time>2026-05-26T09:31:39.000Z</time>
      </trkpt>
      <trkpt lat="44.65681" lon="5.04982">
        <ele>816</ele>
        <time>2026-05-26T09:31:40.000Z</time>
      </trkpt>
      <trkpt lat="44.65681" lon="5.04983">
        <ele>816</ele>
        <time>2026-05-26T09:31:41.000Z</time>
      </trkpt>
      <trkpt lat="44.6568" lon="5.04984">
        <ele>817</ele>
        <time>2026-05-26T09:31:42.000Z</time>
      </trkpt>
      <trkpt lat="44.6568" lon="5.04985">
        <ele>817</ele>
        <time>2026-05-26T09:31:43.000Z</time>
      </trkpt>
      <trkpt lat="44.65679" lon="5.04986">
        <ele>817</ele>
        <time>2026-05-26T09:31:44.000Z</time>
      </trkpt>
      <trkpt lat="44.65678" lon="5.04985">
        <ele>817</ele>
        <time>2026-05-26T09:31:45.000Z</time>
      </trkpt>
      <trkpt lat="44.65679" lon="5.04986">
        <ele>817</ele>
        <time>2026-05-26T09:31:46.000Z</time>
      </trkpt>
      <trkpt lat="44.65678" lon="5.04988">
        <ele>818</ele>
        <time>2026-05-26T09:31:47.000Z</time>
      </trkpt>
      <trkpt lat="44.65675" lon="5.04987">
        <ele>818</ele>
        <time>2026-05-26T09:31:48.000Z</time>
      </trkpt>
      <trkpt lat="44.65673" lon="5.04989">
        <ele>819</ele>
        <time>2026-05-26T09:31:49.000Z</time>
      </trkpt>
      <trkpt lat="44.65672" lon="5.04991">
        <ele>819</ele>
        <time>2026-05-26T09:31:50.000Z</time>
      </trkpt>
      <trkpt lat="44.65672" lon="5.04995">
        <ele>820</ele>
        <time>2026-05-26T09:31:51.000Z</time>
      </trkpt>
      <trkpt lat="44.65672" lon="5.04996">
        <ele>820</ele>
        <time>2026-05-26T09:31:52.000Z</time>
      </trkpt>
      <trkpt lat="44.65672" lon="5.04996">
        <ele>820</ele>
        <time>2026-05-26T09:31:53.000Z</time>
      </trkpt>
      <trkpt lat="44.65672" lon="5.04996">
        <ele>819</ele>
        <time>2026-05-26T09:31:54.000Z</time>
      </trkpt>
      <trkpt lat="44.65671" lon="5.04996">
        <ele>819</ele>
        <time>2026-05-26T09:31:55.000Z</time>
      </trkpt>
      <trkpt lat="44.65671" lon="5.04995">
        <ele>819</ele>
        <time>2026-05-26T09:31:56.000Z</time>
      </trkpt>
      <trkpt lat="44.65671" lon="5.04996">
        <ele>819</ele>
        <time>2026-05-26T09:31:57.000Z</time>
      </trkpt>
      <trkpt lat="44.6567" lon="5.04996">
        <ele>820</ele>
        <time>2026-05-26T09:31:58.000Z</time>
      </trkpt>
      <trkpt lat="44.65669" lon="5.04997">
        <ele>821</ele>
        <time>2026-05-26T09:31:59.000Z</time>
      </trkpt>
      <trkpt lat="44.65668" lon="5.04997">
        <ele>821</ele>
        <time>2026-05-26T09:32:00.000Z</time>
      </trkpt>
      <trkpt lat="44.65668" lon="5.04998">
        <ele>821</ele>
        <time>2026-05-26T09:32:01.000Z</time>
      </trkpt>
      <trkpt lat="44.65668" lon="5.04998">
        <ele>820</ele>
        <time>2026-05-26T09:32:02.000Z</time>
      </trkpt>
      <trkpt lat="44.65668" lon="5.04999">
        <ele>820</ele>
        <time>2026-05-26T09:32:03.000Z</time>
      </trkpt>
      <trkpt lat="44.65667" lon="5.04999">
        <ele>820</ele>
        <time>2026-05-26T09:32:04.000Z</time>
      </trkpt>
      <trkpt lat="44.65668" lon="5.04998">
        <ele>820</ele>
        <time>2026-05-26T09:32:05.000Z</time>
      </trkpt>
      <trkpt lat="44.65668" lon="5.04998">
        <ele>820</ele>
        <time>2026-05-26T09:32:06.000Z</time>
      </trkpt>
      <trkpt lat="44.65668" lon="5.04999">
        <ele>819</ele>
        <time>2026-05-26T09:32:07.000Z</time>
      </trkpt>
      <trkpt lat="44.65668" lon="5.04999">
        <ele>819</ele>
        <time>2026-05-26T09:32:08.000Z</time>
      </trkpt>
      <trkpt lat="44.65668" lon="5.04999">
        <ele>821</ele>
        <time>2026-05-26T09:32:09.000Z</time>
      </trkpt>
      <trkpt lat="44.65669" lon="5.05">
        <ele>821</ele>
        <time>2026-05-26T09:32:10.000Z</time>
      </trkpt>
      <trkpt lat="44.65668" lon="5.05001">
        <ele>821</ele>
        <time>2026-05-26T09:32:11.000Z</time>
      </trkpt>
      <trkpt lat="44.65666" lon="5.05002">
        <ele>821</ele>
        <time>2026-05-26T09:32:12.000Z</time>
      </trkpt>
      <trkpt lat="44.65665" lon="5.05001">
        <ele>821</ele>
        <time>2026-05-26T09:32:13.000Z</time>
      </trkpt>
      <trkpt lat="44.65665" lon="5.05001">
        <ele>821</ele>
        <time>2026-05-26T09:32:14.000Z</time>
      </trkpt>
      <trkpt lat="44.65664" lon="5.05001">
        <ele>821</ele>
        <time>2026-05-26T09:32:15.000Z</time>
      </trkpt>
      <trkpt lat="44.65663" lon="5.05001">
        <ele>821</ele>
        <time>2026-05-26T09:32:16.000Z</time>
      </trkpt>
      <trkpt lat="44.65663" lon="5.05002">
        <ele>821</ele>
        <time>2026-05-26T09:32:17.000Z</time>
      </trkpt>
      <trkpt lat="44.65663" lon="5.05002">
        <ele>821</ele>
        <time>2026-05-26T09:32:18.000Z</time>
      </trkpt>
      <trkpt lat="44.65663" lon="5.05003">
        <ele>821</ele>
        <time>2026-05-26T09:32:19.000Z</time>
      </trkpt>
      <trkpt lat="44.65663" lon="5.05003">
        <ele>821</ele>
        <time>2026-05-26T09:32:20.000Z</time>
      </trkpt>
      <trkpt lat="44.65663" lon="5.05003">
        <ele>821</ele>
        <time>2026-05-26T09:32:21.000Z</time>
      </trkpt>
      <trkpt lat="44.65663" lon="5.05003">
        <ele>821</ele>
        <time>2026-05-26T09:32:22.000Z</time>
      </trkpt>
      <trkpt lat="44.65663" lon="5.05003">
        <ele>821</ele>
        <time>2026-05-26T09:32:23.000Z</time>
      </trkpt>
      <trkpt lat="44.65663" lon="5.05003">
        <ele>821</ele>
        <time>2026-05-26T09:32:24.000Z</time>
      </trkpt>
      <trkpt lat="44.65663" lon="5.05003">
        <ele>821</ele>
        <time>2026-05-26T09:32:25.000Z</time>
      </trkpt>
      <trkpt lat="44.65663" lon="5.05003">
        <ele>821</ele>
        <time>2026-05-26T09:32:26.000Z</time>
      </trkpt>
      <trkpt lat="44.65663" lon="5.05003">
        <ele>821</ele>
        <time>2026-05-26T09:32:27.000Z</time>
      </trkpt>
      <trkpt lat="44.65663" lon="5.05003">
        <ele>821</ele>
        <time>2026-05-26T09:32:28.000Z</time>
      </trkpt>
      <trkpt lat="44.65663" lon="5.05003">
        <ele>821</ele>
        <time>2026-05-26T09:32:29.000Z</time>
      </trkpt>
      <trkpt lat="44.65663" lon="5.05003">
        <ele>821</ele>
        <time>2026-05-26T09:32:30.000Z</time>
      </trkpt>
      <trkpt lat="44.65663" lon="5.05003">
        <ele>821</ele>
        <time>2026-05-26T09:32:31.000Z</time>
      </trkpt>
      <trkpt lat="44.65663" lon="5.05003">
        <ele>821</ele>
        <time>2026-05-26T09:32:32.000Z</time>
      </trkpt>
      <trkpt lat="44.65663" lon="5.05003">
        <ele>821</ele>
        <time>2026-05-26T09:32:33.000Z</time>
      </trkpt>
      <trkpt lat="44.65663" lon="5.05004">
        <ele>821</ele>
        <time>2026-05-26T09:32:34.000Z</time>
      </trkpt>
      <trkpt lat="44.65663" lon="5.05004">
        <ele>821</ele>
        <time>2026-05-26T09:32:35.000Z</time>
      </trkpt>
      <trkpt lat="44.65664" lon="5.05004">
        <ele>822</ele>
        <time>2026-05-26T09:32:36.000Z</time>
      </trkpt>
      <trkpt lat="44.65664" lon="5.05004">
        <ele>822</ele>
        <time>2026-05-26T09:32:37.000Z</time>
      </trkpt>
      <trkpt lat="44.65664" lon="5.05004">
        <ele>822</ele>
        <time>2026-05-26T09:32:38.000Z</time>
      </trkpt>
      <trkpt lat="44.65664" lon="5.05004">
        <ele>822</ele>
        <time>2026-05-26T09:32:39.000Z</time>
      </trkpt>
      <trkpt lat="44.65664" lon="5.05004">
        <ele>822</ele>
        <time>2026-05-26T09:32:40.000Z</time>
      </trkpt>
      <trkpt lat="44.65664" lon="5.05004">
        <ele>822</ele>
        <time>2026-05-26T09:32:41.000Z</time>
      </trkpt>
      <trkpt lat="44.65664" lon="5.05004">
        <ele>822</ele>
        <time>2026-05-26T09:32:42.000Z</time>
      </trkpt>
      <trkpt lat="44.65664" lon="5.05004">
        <ele>822</ele>
        <time>2026-05-26T09:32:43.000Z</time>
      </trkpt>
      <trkpt lat="44.65664" lon="5.05004">
        <ele>822</ele>
        <time>2026-05-26T09:32:44.000Z</time>
      </trkpt>
      <trkpt lat="44.65664" lon="5.05005">
        <ele>820</ele>
        <time>2026-05-26T09:32:45.000Z</time>
      </trkpt>
      <trkpt lat="44.65664" lon="5.05004">
        <ele>821</ele>
        <time>2026-05-26T09:32:46.000Z</time>
      </trkpt>
      <trkpt lat="44.65664" lon="5.05004">
        <ele>820</ele>
        <time>2026-05-26T09:32:47.000Z</time>
      </trkpt>
      <trkpt lat="44.65664" lon="5.05004">
        <ele>820</ele>
        <time>2026-05-26T09:32:48.000Z</time>
      </trkpt>
      <trkpt lat="44.65664" lon="5.05004">
        <ele>820</ele>
        <time>2026-05-26T09:32:49.000Z</time>
      </trkpt>
      <trkpt lat="44.65663" lon="5.05003">
        <ele>820</ele>
        <time>2026-05-26T09:32:50.000Z</time>
      </trkpt>
      <trkpt lat="44.65663" lon="5.05003">
        <ele>820</ele>
        <time>2026-05-26T09:32:51.000Z</time>
      </trkpt>
      <trkpt lat="44.65663" lon="5.05003">
        <ele>820</ele>
        <time>2026-05-26T09:32:52.000Z</time>
      </trkpt>
      <trkpt lat="44.65663" lon="5.05003">
        <ele>820</ele>
        <time>2026-05-26T09:32:53.000Z</time>
      </trkpt>
      <trkpt lat="44.65663" lon="5.05003">
        <ele>820</ele>
        <time>2026-05-26T09:32:54.000Z</time>
      </trkpt>
      <trkpt lat="44.65663" lon="5.05003">
        <ele>820</ele>
        <time>2026-05-26T09:32:55.000Z</time>
      </trkpt>
      <trkpt lat="44.65663" lon="5.05003">
        <ele>820</ele>
        <time>2026-05-26T09:32:56.000Z</time>
      </trkpt>
      <trkpt lat="44.65663" lon="5.05003">
        <ele>820</ele>
        <time>2026-05-26T09:32:57.000Z</time>
      </trkpt>
      <trkpt lat="44.65663" lon="5.05003">
        <ele>820</ele>
        <time>2026-05-26T09:32:58.000Z</time>
      </trkpt>
      <trkpt lat="44.65663" lon="5.05003">
        <ele>820</ele>
        <time>2026-05-26T09:32:59.000Z</time>
      </trkpt>
      <trkpt lat="44.65663" lon="5.05003">
        <ele>820</ele>
        <time>2026-05-26T09:33:00.000Z</time>
      </trkpt>
      <trkpt lat="44.65663" lon="5.05003">
        <ele>820</ele>
        <time>2026-05-26T09:33:01.000Z</time>
      </trkpt>
      <trkpt lat="44.65663" lon="5.05003">
        <ele>820</ele>
        <time>2026-05-26T09:33:02.000Z</time>
      </trkpt>
      <trkpt lat="44.65663" lon="5.05003">
        <ele>820</ele>
        <time>2026-05-26T09:33:03.000Z</time>
      </trkpt>
      <trkpt lat="44.65663" lon="5.05003">
        <ele>820</ele>
        <time>2026-05-26T09:33:04.000Z</time>
      </trkpt>
      <trkpt lat="44.65663" lon="5.05003">
        <ele>820</ele>
        <time>2026-05-26T09:33:05.000Z</time>
      </trkpt>
      <trkpt lat="44.65663" lon="5.05003">
        <ele>820</ele>
        <time>2026-05-26T09:33:06.000Z</time>
      </trkpt>
      <trkpt lat="44.65663" lon="5.05003">
        <ele>820</ele>
        <time>2026-05-26T09:33:07.000Z</time>
      </trkpt>
      <trkpt lat="44.65663" lon="5.05003">
        <ele>820</ele>
        <time>2026-05-26T09:33:08.000Z</time>
      </trkpt>
      <trkpt lat="44.65663" lon="5.05003">
        <ele>820</ele>
        <time>2026-05-26T09:33:09.000Z</time>
      </trkpt>
      <trkpt lat="44.65663" lon="5.05003">
        <ele>820</ele>
        <time>2026-05-26T09:33:10.000Z</time>
      </trkpt>
      <trkpt lat="44.65663" lon="5.05003">
        <ele>820</ele>
        <time>2026-05-26T09:33:11.000Z</time>
      </trkpt>
      <trkpt lat="44.65663" lon="5.05003">
        <ele>820</ele>
        <time>2026-05-26T09:33:12.000Z</time>
      </trkpt>
      <trkpt lat="44.65663" lon="5.05003">
        <ele>820</ele>
        <time>2026-05-26T09:33:13.000Z</time>
      </trkpt>
      <trkpt lat="44.65663" lon="5.05003">
        <ele>820</ele>
        <time>2026-05-26T09:33:14.000Z</time>
      </trkpt>
      <trkpt lat="44.65663" lon="5.05003">
        <ele>820</ele>
        <time>2026-05-26T09:33:15.000Z</time>
      </trkpt>
      <trkpt lat="44.65663" lon="5.05003">
        <ele>820</ele>
        <time>2026-05-26T09:33:16.000Z</time>
      </trkpt>
      <trkpt lat="44.65663" lon="5.05003">
        <ele>820</ele>
        <time>2026-05-26T09:33:17.000Z</time>
      </trkpt>
      <trkpt lat="44.65663" lon="5.05003">
        <ele>820</ele>
        <time>2026-05-26T09:33:18.000Z</time>
      </trkpt>
      <trkpt lat="44.65663" lon="5.05003">
        <ele>820</ele>
        <time>2026-05-26T09:33:19.000Z</time>
      </trkpt>
      <trkpt lat="44.65663" lon="5.05003">
        <ele>820</ele>
        <time>2026-05-26T09:33:20.000Z</time>
      </trkpt>
      <trkpt lat="44.65663" lon="5.05003">
        <ele>820</ele>
        <time>2026-05-26T09:33:21.000Z</time>
      </trkpt>
      <trkpt lat="44.65663" lon="5.05003">
        <ele>820</ele>
        <time>2026-05-26T09:33:22.000Z</time>
      </trkpt>
      <trkpt lat="44.65663" lon="5.05003">
        <ele>820</ele>
        <time>2026-05-26T09:33:23.000Z</time>
      </trkpt>
      <trkpt lat="44.65663" lon="5.05003">
        <ele>820</ele>
        <time>2026-05-26T09:33:24.000Z</time>
      </trkpt>
      <trkpt lat="44.65663" lon="5.05003">
        <ele>820</ele>
        <time>2026-05-26T09:33:25.000Z</time>
      </trkpt>
      <trkpt lat="44.65663" lon="5.05003">
        <ele>820</ele>
        <time>2026-05-26T09:33:26.000Z</time>
      </trkpt>
      <trkpt lat="44.65663" lon="5.05003">
        <ele>820</ele>
        <time>2026-05-26T09:33:27.000Z</time>
      </trkpt>
      <trkpt lat="44.65663" lon="5.05003">
        <ele>820</ele>
        <time>2026-05-26T09:33:28.000Z</time>
      </trkpt>
      <trkpt lat="44.65663" lon="5.05003">
        <ele>820</ele>
        <time>2026-05-26T09:33:29.000Z</time>
      </trkpt>
      <trkpt lat="44.65663" lon="5.05003">
        <ele>820</ele>
        <time>2026-05-26T09:33:30.000Z</time>
      </trkpt>
      <trkpt lat="44.65663" lon="5.05003">
        <ele>821</ele>
        <time>2026-05-26T09:33:31.000Z</time>
      </trkpt>
      <trkpt lat="44.65663" lon="5.05003">
        <ele>821</ele>
        <time>2026-05-26T09:33:32.000Z</time>
      </trkpt>
      <trkpt lat="44.65664" lon="5.05002">
        <ele>821</ele>
        <time>2026-05-26T09:33:33.000Z</time>
      </trkpt>
      <trkpt lat="44.65664" lon="5.05002">
        <ele>821</ele>
        <time>2026-05-26T09:33:34.000Z</time>
      </trkpt>
      <trkpt lat="44.65664" lon="5.05002">
        <ele>821</ele>
        <time>2026-05-26T09:33:35.000Z</time>
      </trkpt>
      <trkpt lat="44.65664" lon="5.05002">
        <ele>821</ele>
        <time>2026-05-26T09:33:36.000Z</time>
      </trkpt>
      <trkpt lat="44.65665" lon="5.05">
        <ele>820</ele>
        <time>2026-05-26T09:33:37.000Z</time>
      </trkpt>
      <trkpt lat="44.65666" lon="5.04999">
        <ele>819</ele>
        <time>2026-05-26T09:33:38.000Z</time>
      </trkpt>
      <trkpt lat="44.65666" lon="5.04998">
        <ele>819</ele>
        <time>2026-05-26T09:33:39.000Z</time>
      </trkpt>
      <trkpt lat="44.65666" lon="5.04998">
        <ele>819</ele>
        <time>2026-05-26T09:33:40.000Z</time>
      </trkpt>
      <trkpt lat="44.65667" lon="5.04999">
        <ele>821</ele>
        <time>2026-05-26T09:33:41.000Z</time>
      </trkpt>
      <trkpt lat="44.65667" lon="5.04998">
        <ele>823</ele>
        <time>2026-05-26T09:33:42.000Z</time>
      </trkpt>
      <trkpt lat="44.65667" lon="5.04998">
        <ele>824</ele>
        <time>2026-05-26T09:33:43.000Z</time>
      </trkpt>
      <trkpt lat="44.65667" lon="5.04999">
        <ele>823</ele>
        <time>2026-05-26T09:33:44.000Z</time>
      </trkpt>
      <trkpt lat="44.65667" lon="5.04999">
        <ele>824</ele>
        <time>2026-05-26T09:33:45.000Z</time>
      </trkpt>
      <trkpt lat="44.65668" lon="5.05">
        <ele>825</ele>
        <time>2026-05-26T09:33:46.000Z</time>
      </trkpt>
      <trkpt lat="44.65668" lon="5.05">
        <ele>823</ele>
        <time>2026-05-26T09:33:47.000Z</time>
      </trkpt>
      <trkpt lat="44.65668" lon="5.05">
        <ele>823</ele>
        <time>2026-05-26T09:33:48.000Z</time>
      </trkpt>
      <trkpt lat="44.65668" lon="5.05">
        <ele>823</ele>
        <time>2026-05-26T09:33:49.000Z</time>
      </trkpt>
      <trkpt lat="44.65668" lon="5.05">
        <ele>823</ele>
        <time>2026-05-26T09:33:50.000Z</time>
      </trkpt>
      <trkpt lat="44.65668" lon="5.05">
        <ele>823</ele>
        <time>2026-05-26T09:33:51.000Z</time>
      </trkpt>
      <trkpt lat="44.65668" lon="5.05">
        <ele>823</ele>
        <time>2026-05-26T09:33:52.000Z</time>
      </trkpt>
      <trkpt lat="44.65668" lon="5.05">
        <ele>823</ele>
        <time>2026-05-26T09:33:53.000Z</time>
      </trkpt>
      <trkpt lat="44.65668" lon="5.05">
        <ele>823</ele>
        <time>2026-05-26T09:33:54.000Z</time>
      </trkpt>
      <trkpt lat="44.65668" lon="5.05">
        <ele>823</ele>
        <time>2026-05-26T09:33:55.000Z</time>
      </trkpt>
      <trkpt lat="44.65668" lon="5.05">
        <ele>823</ele>
        <time>2026-05-26T09:33:56.000Z</time>
      </trkpt>
      <trkpt lat="44.65668" lon="5.05">
        <ele>823</ele>
        <time>2026-05-26T09:33:57.000Z</time>
      </trkpt>
      <trkpt lat="44.65668" lon="5.05">
        <ele>823</ele>
        <time>2026-05-26T09:33:58.000Z</time>
      </trkpt>
      <trkpt lat="44.65669" lon="5.05001">
        <ele>824</ele>
        <time>2026-05-26T09:33:59.000Z</time>
      </trkpt>
      <trkpt lat="44.6567" lon="5.05001">
        <ele>824</ele>
        <time>2026-05-26T09:34:00.000Z</time>
      </trkpt>
      <trkpt lat="44.65671" lon="5.05002">
        <ele>822</ele>
        <time>2026-05-26T09:34:01.000Z</time>
      </trkpt>
      <trkpt lat="44.65671" lon="5.05">
        <ele>822</ele>
        <time>2026-05-26T09:34:02.000Z</time>
      </trkpt>
      <trkpt lat="44.65671" lon="5.05">
        <ele>821</ele>
        <time>2026-05-26T09:34:03.000Z</time>
      </trkpt>
      <trkpt lat="44.65671" lon="5.05001">
        <ele>822</ele>
        <time>2026-05-26T09:34:04.000Z</time>
      </trkpt>
      <trkpt lat="44.65672" lon="5.05002">
        <ele>823</ele>
        <time>2026-05-26T09:34:05.000Z</time>
      </trkpt>
      <trkpt lat="44.65671" lon="5.05002">
        <ele>822</ele>
        <time>2026-05-26T09:34:06.000Z</time>
      </trkpt>
      <trkpt lat="44.65671" lon="5.05003">
        <ele>823</ele>
        <time>2026-05-26T09:34:07.000Z</time>
      </trkpt>
      <trkpt lat="44.65671" lon="5.05004">
        <ele>822</ele>
        <time>2026-05-26T09:34:08.000Z</time>
      </trkpt>
      <trkpt lat="44.65671" lon="5.05004">
        <ele>823</ele>
        <time>2026-05-26T09:34:09.000Z</time>
      </trkpt>
      <trkpt lat="44.65672" lon="5.05005">
        <ele>823</ele>
        <time>2026-05-26T09:34:10.000Z</time>
      </trkpt>
      <trkpt lat="44.65673" lon="5.05005">
        <ele>822</ele>
        <time>2026-05-26T09:34:11.000Z</time>
      </trkpt>
      <trkpt lat="44.65673" lon="5.05006">
        <ele>822</ele>
        <time>2026-05-26T09:34:12.000Z</time>
      </trkpt>
      <trkpt lat="44.65673" lon="5.05006">
        <ele>822</ele>
        <time>2026-05-26T09:34:13.000Z</time>
      </trkpt>
      <trkpt lat="44.65674" lon="5.05005">
        <ele>823</ele>
        <time>2026-05-26T09:34:14.000Z</time>
      </trkpt>
      <trkpt lat="44.65674" lon="5.05005">
        <ele>823</ele>
        <time>2026-05-26T09:34:15.000Z</time>
      </trkpt>
      <trkpt lat="44.65673" lon="5.05004">
        <ele>822</ele>
        <time>2026-05-26T09:34:16.000Z</time>
      </trkpt>
      <trkpt lat="44.65673" lon="5.05004">
        <ele>821</ele>
        <time>2026-05-26T09:34:17.000Z</time>
      </trkpt>
      <trkpt lat="44.65673" lon="5.05004">
        <ele>822</ele>
        <time>2026-05-26T09:34:18.000Z</time>
      </trkpt>
      <trkpt lat="44.65674" lon="5.05004">
        <ele>822</ele>
        <time>2026-05-26T09:34:19.000Z</time>
      </trkpt>
      <trkpt lat="44.65673" lon="5.05005">
        <ele>822</ele>
        <time>2026-05-26T09:34:20.000Z</time>
      </trkpt>
      <trkpt lat="44.65674" lon="5.05006">
        <ele>821</ele>
        <time>2026-05-26T09:34:21.000Z</time>
      </trkpt>
      <trkpt lat="44.65674" lon="5.05007">
        <ele>823</ele>
        <time>2026-05-26T09:34:22.000Z</time>
      </trkpt>
      <trkpt lat="44.65674" lon="5.05007">
        <ele>823</ele>
        <time>2026-05-26T09:34:23.000Z</time>
      </trkpt>
      <trkpt lat="44.65674" lon="5.05008">
        <ele>823</ele>
        <time>2026-05-26T09:34:24.000Z</time>
      </trkpt>
      <trkpt lat="44.65674" lon="5.05009">
        <ele>823</ele>
        <time>2026-05-26T09:34:25.000Z</time>
      </trkpt>
      <trkpt lat="44.65675" lon="5.05011">
        <ele>823</ele>
        <time>2026-05-26T09:34:26.000Z</time>
      </trkpt>
      <trkpt lat="44.65675" lon="5.0501">
        <ele>823</ele>
        <time>2026-05-26T09:34:27.000Z</time>
      </trkpt>
      <trkpt lat="44.65674" lon="5.0501">
        <ele>823</ele>
        <time>2026-05-26T09:34:28.000Z</time>
      </trkpt>
      <trkpt lat="44.65675" lon="5.05011">
        <ele>824</ele>
        <time>2026-05-26T09:34:29.000Z</time>
      </trkpt>
      <trkpt lat="44.65676" lon="5.05011">
        <ele>824</ele>
        <time>2026-05-26T09:34:30.000Z</time>
      </trkpt>
      <trkpt lat="44.65677" lon="5.05011">
        <ele>824</ele>
        <time>2026-05-26T09:34:31.000Z</time>
      </trkpt>
      <trkpt lat="44.65677" lon="5.05013">
        <ele>826</ele>
        <time>2026-05-26T09:34:32.000Z</time>
      </trkpt>
      <trkpt lat="44.65677" lon="5.05014">
        <ele>826</ele>
        <time>2026-05-26T09:34:33.000Z</time>
      </trkpt>
      <trkpt lat="44.65676" lon="5.05015">
        <ele>827</ele>
        <time>2026-05-26T09:34:34.000Z</time>
      </trkpt>
      <trkpt lat="44.65676" lon="5.05017">
        <ele>827</ele>
        <time>2026-05-26T09:34:35.000Z</time>
      </trkpt>
      <trkpt lat="44.65677" lon="5.05017">
        <ele>828</ele>
        <time>2026-05-26T09:34:36.000Z</time>
      </trkpt>
      <trkpt lat="44.65677" lon="5.05017">
        <ele>829</ele>
        <time>2026-05-26T09:34:37.000Z</time>
      </trkpt>
      <trkpt lat="44.65676" lon="5.05016">
        <ele>828</ele>
        <time>2026-05-26T09:34:38.000Z</time>
      </trkpt>
      <trkpt lat="44.65674" lon="5.05017">
        <ele>828</ele>
        <time>2026-05-26T09:34:39.000Z</time>
      </trkpt>
      <trkpt lat="44.65672" lon="5.05017">
        <ele>828</ele>
        <time>2026-05-26T09:34:40.000Z</time>
      </trkpt>
      <trkpt lat="44.65671" lon="5.05018">
        <ele>827</ele>
        <time>2026-05-26T09:34:41.000Z</time>
      </trkpt>
      <trkpt lat="44.6567" lon="5.05018">
        <ele>827</ele>
        <time>2026-05-26T09:34:42.000Z</time>
      </trkpt>
      <trkpt lat="44.6567" lon="5.05018">
        <ele>827</ele>
        <time>2026-05-26T09:34:43.000Z</time>
      </trkpt>
      <trkpt lat="44.6567" lon="5.05019">
        <ele>827</ele>
        <time>2026-05-26T09:34:44.000Z</time>
      </trkpt>
      <trkpt lat="44.6567" lon="5.0502">
        <ele>827</ele>
        <time>2026-05-26T09:34:45.000Z</time>
      </trkpt>
      <trkpt lat="44.6567" lon="5.05021">
        <ele>827</ele>
        <time>2026-05-26T09:34:46.000Z</time>
      </trkpt>
      <trkpt lat="44.6567" lon="5.05021">
        <ele>827</ele>
        <time>2026-05-26T09:34:47.000Z</time>
      </trkpt>
      <trkpt lat="44.65669" lon="5.05022">
        <ele>827</ele>
        <time>2026-05-26T09:34:48.000Z</time>
      </trkpt>
      <trkpt lat="44.65669" lon="5.05022">
        <ele>826</ele>
        <time>2026-05-26T09:34:49.000Z</time>
      </trkpt>
      <trkpt lat="44.65669" lon="5.05023">
        <ele>826</ele>
        <time>2026-05-26T09:34:50.000Z</time>
      </trkpt>
      <trkpt lat="44.65669" lon="5.05024">
        <ele>826</ele>
        <time>2026-05-26T09:34:51.000Z</time>
      </trkpt>
      <trkpt lat="44.65669" lon="5.05024">
        <ele>826</ele>
        <time>2026-05-26T09:34:52.000Z</time>
      </trkpt>
      <trkpt lat="44.65669" lon="5.05024">
        <ele>826</ele>
        <time>2026-05-26T09:34:53.000Z</time>
      </trkpt>
      <trkpt lat="44.65669" lon="5.05024">
        <ele>826</ele>
        <time>2026-05-26T09:34:54.000Z</time>
      </trkpt>
      <trkpt lat="44.65669" lon="5.05024">
        <ele>826</ele>
        <time>2026-05-26T09:34:55.000Z</time>
      </trkpt>
      <trkpt lat="44.65669" lon="5.05024">
        <ele>826</ele>
        <time>2026-05-26T09:34:56.000Z</time>
      </trkpt>
      <trkpt lat="44.65669" lon="5.05024">
        <ele>826</ele>
        <time>2026-05-26T09:34:57.000Z</time>
      </trkpt>
      <trkpt lat="44.65669" lon="5.05024">
        <ele>826</ele>
        <time>2026-05-26T09:34:58.000Z</time>
      </trkpt>
      <trkpt lat="44.65669" lon="5.05024">
        <ele>826</ele>
        <time>2026-05-26T09:34:59.000Z</time>
      </trkpt>
      <trkpt lat="44.65669" lon="5.05024">
        <ele>826</ele>
        <time>2026-05-26T09:35:00.000Z</time>
      </trkpt>
      <trkpt lat="44.65669" lon="5.05024">
        <ele>826</ele>
        <time>2026-05-26T09:35:01.000Z</time>
      </trkpt>
      <trkpt lat="44.65669" lon="5.05024">
        <ele>826</ele>
        <time>2026-05-26T09:35:02.000Z</time>
      </trkpt>
      <trkpt lat="44.65669" lon="5.05024">
        <ele>826</ele>
        <time>2026-05-26T09:35:03.000Z</time>
      </trkpt>
      <trkpt lat="44.65669" lon="5.05024">
        <ele>826</ele>
        <time>2026-05-26T09:35:04.000Z</time>
      </trkpt>
      <trkpt lat="44.65669" lon="5.05024">
        <ele>826</ele>
        <time>2026-05-26T09:35:05.000Z</time>
      </trkpt>
      <trkpt lat="44.65669" lon="5.05024">
        <ele>826</ele>
        <time>2026-05-26T09:35:06.000Z</time>
      </trkpt>
      <trkpt lat="44.65669" lon="5.05024">
        <ele>826</ele>
        <time>2026-05-26T09:35:07.000Z</time>
      </trkpt>
      <trkpt lat="44.65669" lon="5.05024">
        <ele>826</ele>
        <time>2026-05-26T09:35:08.000Z</time>
      </trkpt>
      <trkpt lat="44.65669" lon="5.05024">
        <ele>826</ele>
        <time>2026-05-26T09:35:09.000Z</time>
      </trkpt>
      <trkpt lat="44.65669" lon="5.05024">
        <ele>826</ele>
        <time>2026-05-26T09:35:10.000Z</time>
      </trkpt>
      <trkpt lat="44.65669" lon="5.05024">
        <ele>826</ele>
        <time>2026-05-26T09:35:11.000Z</time>
      </trkpt>
      <trkpt lat="44.65669" lon="5.05024">
        <ele>826</ele>
        <time>2026-05-26T09:35:12.000Z</time>
      </trkpt>
      <trkpt lat="44.65669" lon="5.05024">
        <ele>826</ele>
        <time>2026-05-26T09:35:13.000Z</time>
      </trkpt>
      <trkpt lat="44.65669" lon="5.05024">
        <ele>826</ele>
        <time>2026-05-26T09:35:14.000Z</time>
      </trkpt>
      <trkpt lat="44.65669" lon="5.05024">
        <ele>826</ele>
        <time>2026-05-26T09:35:15.000Z</time>
      </trkpt>
      <trkpt lat="44.65669" lon="5.05024">
        <ele>826</ele>
        <time>2026-05-26T09:35:16.000Z</time>
      </trkpt>
      <trkpt lat="44.65669" lon="5.05025">
        <ele>827</ele>
        <time>2026-05-26T09:35:17.000Z</time>
      </trkpt>
      <trkpt lat="44.65669" lon="5.05025">
        <ele>827</ele>
        <time>2026-05-26T09:35:18.000Z</time>
      </trkpt>
      <trkpt lat="44.65669" lon="5.05025">
        <ele>827</ele>
        <time>2026-05-26T09:35:19.000Z</time>
      </trkpt>
      <trkpt lat="44.65669" lon="5.05025">
        <ele>827</ele>
        <time>2026-05-26T09:35:20.000Z</time>
      </trkpt>
      <trkpt lat="44.65669" lon="5.05025">
        <ele>827</ele>
        <time>2026-05-26T09:35:21.000Z</time>
      </trkpt>
      <trkpt lat="44.65669" lon="5.05025">
        <ele>827</ele>
        <time>2026-05-26T09:35:22.000Z</time>
      </trkpt>
      <trkpt lat="44.65669" lon="5.05025">
        <ele>827</ele>
        <time>2026-05-26T09:35:23.000Z</time>
      </trkpt>
      <trkpt lat="44.65669" lon="5.05024">
        <ele>827</ele>
        <time>2026-05-26T09:35:24.000Z</time>
      </trkpt>
      <trkpt lat="44.65669" lon="5.05023">
        <ele>827</ele>
        <time>2026-05-26T09:35:25.000Z</time>
      </trkpt>
      <trkpt lat="44.65669" lon="5.05023">
        <ele>827</ele>
        <time>2026-05-26T09:35:26.000Z</time>
      </trkpt>
      <trkpt lat="44.6567" lon="5.05022">
        <ele>827</ele>
        <time>2026-05-26T09:35:27.000Z</time>
      </trkpt>
      <trkpt lat="44.6567" lon="5.05022">
        <ele>827</ele>
        <time>2026-05-26T09:35:28.000Z</time>
      </trkpt>
      <trkpt lat="44.6567" lon="5.05022">
        <ele>827</ele>
        <time>2026-05-26T09:35:29.000Z</time>
      </trkpt>
      <trkpt lat="44.6567" lon="5.05022">
        <ele>827</ele>
        <time>2026-05-26T09:35:30.000Z</time>
      </trkpt>
      <trkpt lat="44.6567" lon="5.05022">
        <ele>827</ele>
        <time>2026-05-26T09:35:31.000Z</time>
      </trkpt>
      <trkpt lat="44.6567" lon="5.05022">
        <ele>827</ele>
        <time>2026-05-26T09:35:32.000Z</time>
      </trkpt>
      <trkpt lat="44.6567" lon="5.05022">
        <ele>827</ele>
        <time>2026-05-26T09:35:33.000Z</time>
      </trkpt>
      <trkpt lat="44.6567" lon="5.05022">
        <ele>827</ele>
        <time>2026-05-26T09:35:34.000Z</time>
      </trkpt>
      <trkpt lat="44.6567" lon="5.05022">
        <ele>827</ele>
        <time>2026-05-26T09:35:35.000Z</time>
      </trkpt>
      <trkpt lat="44.6567" lon="5.05022">
        <ele>827</ele>
        <time>2026-05-26T09:35:36.000Z</time>
      </trkpt>
      <trkpt lat="44.6567" lon="5.05022">
        <ele>827</ele>
        <time>2026-05-26T09:35:37.000Z</time>
      </trkpt>
      <trkpt lat="44.6567" lon="5.05022">
        <ele>827</ele>
        <time>2026-05-26T09:35:38.000Z</time>
      </trkpt>
      <trkpt lat="44.6567" lon="5.05022">
        <ele>827</ele>
        <time>2026-05-26T09:35:39.000Z</time>
      </trkpt>
      <trkpt lat="44.6567" lon="5.05022">
        <ele>827</ele>
        <time>2026-05-26T09:35:40.000Z</time>
      </trkpt>
      <trkpt lat="44.6567" lon="5.05022">
        <ele>827</ele>
        <time>2026-05-26T09:35:41.000Z</time>
      </trkpt>
      <trkpt lat="44.6567" lon="5.05022">
        <ele>827</ele>
        <time>2026-05-26T09:35:42.000Z</time>
      </trkpt>
      <trkpt lat="44.6567" lon="5.05022">
        <ele>827</ele>
        <time>2026-05-26T09:35:43.000Z</time>
      </trkpt>
      <trkpt lat="44.6567" lon="5.05022">
        <ele>827</ele>
        <time>2026-05-26T09:35:44.000Z</time>
      </trkpt>
      <trkpt lat="44.6567" lon="5.05022">
        <ele>827</ele>
        <time>2026-05-26T09:35:45.000Z</time>
      </trkpt>
      <trkpt lat="44.6567" lon="5.05022">
        <ele>827</ele>
        <time>2026-05-26T09:35:46.000Z</time>
      </trkpt>
      <trkpt lat="44.6567" lon="5.05022">
        <ele>827</ele>
        <time>2026-05-26T09:35:47.000Z</time>
      </trkpt>
      <trkpt lat="44.6567" lon="5.05022">
        <ele>827</ele>
        <time>2026-05-26T09:35:48.000Z</time>
      </trkpt>
      <trkpt lat="44.65671" lon="5.05022">
        <ele>827</ele>
        <time>2026-05-26T09:35:49.000Z</time>
      </trkpt>
      <trkpt lat="44.65672" lon="5.05022">
        <ele>827</ele>
        <time>2026-05-26T09:35:50.000Z</time>
      </trkpt>
      <trkpt lat="44.65672" lon="5.05022">
        <ele>827</ele>
        <time>2026-05-26T09:35:51.000Z</time>
      </trkpt>
      <trkpt lat="44.65673" lon="5.05023">
        <ele>827</ele>
        <time>2026-05-26T09:35:52.000Z</time>
      </trkpt>
      <trkpt lat="44.65674" lon="5.05023">
        <ele>827</ele>
        <time>2026-05-26T09:35:53.000Z</time>
      </trkpt>
      <trkpt lat="44.65675" lon="5.05024">
        <ele>827</ele>
        <time>2026-05-26T09:35:54.000Z</time>
      </trkpt>
      <trkpt lat="44.65675" lon="5.05025">
        <ele>827</ele>
        <time>2026-05-26T09:35:55.000Z</time>
      </trkpt>
      <trkpt lat="44.65675" lon="5.05026">
        <ele>827</ele>
        <time>2026-05-26T09:35:56.000Z</time>
      </trkpt>
      <trkpt lat="44.65676" lon="5.05026">
        <ele>827</ele>
        <time>2026-05-26T09:35:57.000Z</time>
      </trkpt>
      <trkpt lat="44.65677" lon="5.05027">
        <ele>827</ele>
        <time>2026-05-26T09:35:58.000Z</time>
      </trkpt>
      <trkpt lat="44.65678" lon="5.05028">
        <ele>826</ele>
        <time>2026-05-26T09:35:59.000Z</time>
      </trkpt>
      <trkpt lat="44.65678" lon="5.05028">
        <ele>827</ele>
        <time>2026-05-26T09:36:00.000Z</time>
      </trkpt>
      <trkpt lat="44.65678" lon="5.05028">
        <ele>826</ele>
        <time>2026-05-26T09:36:01.000Z</time>
      </trkpt>
      <trkpt lat="44.65678" lon="5.05029">
        <ele>829</ele>
        <time>2026-05-26T09:36:02.000Z</time>
      </trkpt>
      <trkpt lat="44.65679" lon="5.05029">
        <ele>827</ele>
        <time>2026-05-26T09:36:03.000Z</time>
      </trkpt>
      <trkpt lat="44.6568" lon="5.05029">
        <ele>827</ele>
        <time>2026-05-26T09:36:04.000Z</time>
      </trkpt>
      <trkpt lat="44.6568" lon="5.05031">
        <ele>828</ele>
        <time>2026-05-26T09:36:05.000Z</time>
      </trkpt>
      <trkpt lat="44.6568" lon="5.05032">
        <ele>830</ele>
        <time>2026-05-26T09:36:06.000Z</time>
      </trkpt>
      <trkpt lat="44.6568" lon="5.05033">
        <ele>831</ele>
        <time>2026-05-26T09:36:07.000Z</time>
      </trkpt>
      <trkpt lat="44.65681" lon="5.05035">
        <ele>832</ele>
        <time>2026-05-26T09:36:08.000Z</time>
      </trkpt>
      <trkpt lat="44.65682" lon="5.05036">
        <ele>832</ele>
        <time>2026-05-26T09:36:09.000Z</time>
      </trkpt>
      <trkpt lat="44.65683" lon="5.05037">
        <ele>832</ele>
        <time>2026-05-26T09:36:10.000Z</time>
      </trkpt>
      <trkpt lat="44.65683" lon="5.05038">
        <ele>831</ele>
        <time>2026-05-26T09:36:11.000Z</time>
      </trkpt>
      <trkpt lat="44.65683" lon="5.05037">
        <ele>832</ele>
        <time>2026-05-26T09:36:12.000Z</time>
      </trkpt>
      <trkpt lat="44.65683" lon="5.05037">
        <ele>831</ele>
        <time>2026-05-26T09:36:13.000Z</time>
      </trkpt>
      <trkpt lat="44.65684" lon="5.05037">
        <ele>831</ele>
        <time>2026-05-26T09:36:14.000Z</time>
      </trkpt>
      <trkpt lat="44.65685" lon="5.05039">
        <ele>832</ele>
        <time>2026-05-26T09:36:15.000Z</time>
      </trkpt>
      <trkpt lat="44.65686" lon="5.05039">
        <ele>832</ele>
        <time>2026-05-26T09:36:16.000Z</time>
      </trkpt>
      <trkpt lat="44.65686" lon="5.0504">
        <ele>831</ele>
        <time>2026-05-26T09:36:17.000Z</time>
      </trkpt>
      <trkpt lat="44.65687" lon="5.0504">
        <ele>832</ele>
        <time>2026-05-26T09:36:18.000Z</time>
      </trkpt>
      <trkpt lat="44.65687" lon="5.05041">
        <ele>832</ele>
        <time>2026-05-26T09:36:19.000Z</time>
      </trkpt>
      <trkpt lat="44.65688" lon="5.0504">
        <ele>831</ele>
        <time>2026-05-26T09:36:20.000Z</time>
      </trkpt>
      <trkpt lat="44.65689" lon="5.0504">
        <ele>831</ele>
        <time>2026-05-26T09:36:21.000Z</time>
      </trkpt>
      <trkpt lat="44.65689" lon="5.0504">
        <ele>832</ele>
        <time>2026-05-26T09:36:22.000Z</time>
      </trkpt>
      <trkpt lat="44.65689" lon="5.0504">
        <ele>832</ele>
        <time>2026-05-26T09:36:23.000Z</time>
      </trkpt>
      <trkpt lat="44.65689" lon="5.05039">
        <ele>832</ele>
        <time>2026-05-26T09:36:24.000Z</time>
      </trkpt>
      <trkpt lat="44.65689" lon="5.0504">
        <ele>832</ele>
        <time>2026-05-26T09:36:25.000Z</time>
      </trkpt>
      <trkpt lat="44.65689" lon="5.0504">
        <ele>832</ele>
        <time>2026-05-26T09:36:26.000Z</time>
      </trkpt>
      <trkpt lat="44.65689" lon="5.05041">
        <ele>831</ele>
        <time>2026-05-26T09:36:27.000Z</time>
      </trkpt>
      <trkpt lat="44.65689" lon="5.05041">
        <ele>831</ele>
        <time>2026-05-26T09:36:28.000Z</time>
      </trkpt>
      <trkpt lat="44.65689" lon="5.05041">
        <ele>831</ele>
        <time>2026-05-26T09:36:29.000Z</time>
      </trkpt>
      <trkpt lat="44.65689" lon="5.05041">
        <ele>831</ele>
        <time>2026-05-26T09:36:30.000Z</time>
      </trkpt>
      <trkpt lat="44.65689" lon="5.05041">
        <ele>831</ele>
        <time>2026-05-26T09:36:31.000Z</time>
      </trkpt>
      <trkpt lat="44.65689" lon="5.05041">
        <ele>831</ele>
        <time>2026-05-26T09:36:32.000Z</time>
      </trkpt>
      <trkpt lat="44.65689" lon="5.05041">
        <ele>831</ele>
        <time>2026-05-26T09:36:33.000Z</time>
      </trkpt>
      <trkpt lat="44.65689" lon="5.05041">
        <ele>831</ele>
        <time>2026-05-26T09:36:34.000Z</time>
      </trkpt>
      <trkpt lat="44.65689" lon="5.05041">
        <ele>831</ele>
        <time>2026-05-26T09:36:35.000Z</time>
      </trkpt>
      <trkpt lat="44.65689" lon="5.05041">
        <ele>831</ele>
        <time>2026-05-26T09:36:36.000Z</time>
      </trkpt>
      <trkpt lat="44.65689" lon="5.05041">
        <ele>831</ele>
        <time>2026-05-26T09:36:37.000Z</time>
      </trkpt>
      <trkpt lat="44.65689" lon="5.05041">
        <ele>831</ele>
        <time>2026-05-26T09:36:38.000Z</time>
      </trkpt>
      <trkpt lat="44.65689" lon="5.05041">
        <ele>831</ele>
        <time>2026-05-26T09:36:39.000Z</time>
      </trkpt>
      <trkpt lat="44.65689" lon="5.05041">
        <ele>831</ele>
        <time>2026-05-26T09:36:40.000Z</time>
      </trkpt>
      <trkpt lat="44.65689" lon="5.05041">
        <ele>831</ele>
        <time>2026-05-26T09:36:41.000Z</time>
      </trkpt>
      <trkpt lat="44.65689" lon="5.05041">
        <ele>831</ele>
        <time>2026-05-26T09:36:42.000Z</time>
      </trkpt>
      <trkpt lat="44.65689" lon="5.05041">
        <ele>831</ele>
        <time>2026-05-26T09:36:43.000Z</time>
      </trkpt>
      <trkpt lat="44.65689" lon="5.05039">
        <ele>831</ele>
        <time>2026-05-26T09:36:44.000Z</time>
      </trkpt>
      <trkpt lat="44.65689" lon="5.05037">
        <ele>831</ele>
        <time>2026-05-26T09:36:45.000Z</time>
      </trkpt>
      <trkpt lat="44.65689" lon="5.05036">
        <ele>831</ele>
        <time>2026-05-26T09:36:46.000Z</time>
      </trkpt>
      <trkpt lat="44.65689" lon="5.05036">
        <ele>831</ele>
        <time>2026-05-26T09:36:47.000Z</time>
      </trkpt>
      <trkpt lat="44.65689" lon="5.05038">
        <ele>831</ele>
        <time>2026-05-26T09:36:48.000Z</time>
      </trkpt>
      <trkpt lat="44.65689" lon="5.05038">
        <ele>831</ele>
        <time>2026-05-26T09:36:49.000Z</time>
      </trkpt>
      <trkpt lat="44.65689" lon="5.05038">
        <ele>831</ele>
        <time>2026-05-26T09:36:50.000Z</time>
      </trkpt>
      <trkpt lat="44.65689" lon="5.05038">
        <ele>831</ele>
        <time>2026-05-26T09:36:51.000Z</time>
      </trkpt>
      <trkpt lat="44.65689" lon="5.05038">
        <ele>831</ele>
        <time>2026-05-26T09:36:52.000Z</time>
      </trkpt>
      <trkpt lat="44.65689" lon="5.05038">
        <ele>831</ele>
        <time>2026-05-26T09:36:53.000Z</time>
      </trkpt>
      <trkpt lat="44.65689" lon="5.05038">
        <ele>831</ele>
        <time>2026-05-26T09:36:54.000Z</time>
      </trkpt>
      <trkpt lat="44.65689" lon="5.05038">
        <ele>831</ele>
        <time>2026-05-26T09:36:55.000Z</time>
      </trkpt>
      <trkpt lat="44.65688" lon="5.05037">
        <ele>831</ele>
        <time>2026-05-26T09:36:56.000Z</time>
      </trkpt>
      <trkpt lat="44.65689" lon="5.05038">
        <ele>831</ele>
        <time>2026-05-26T09:36:57.000Z</time>
      </trkpt>
      <trkpt lat="44.65688" lon="5.05039">
        <ele>831</ele>
        <time>2026-05-26T09:36:58.000Z</time>
      </trkpt>
      <trkpt lat="44.65688" lon="5.05039">
        <ele>831</ele>
        <time>2026-05-26T09:36:59.000Z</time>
      </trkpt>
      <trkpt lat="44.65688" lon="5.05039">
        <ele>831</ele>
        <time>2026-05-26T09:37:00.000Z</time>
      </trkpt>
      <trkpt lat="44.65688" lon="5.05039">
        <ele>831</ele>
        <time>2026-05-26T09:37:01.000Z</time>
      </trkpt>
      <trkpt lat="44.65688" lon="5.05039">
        <ele>831</ele>
        <time>2026-05-26T09:37:02.000Z</time>
      </trkpt>
      <trkpt lat="44.65688" lon="5.05039">
        <ele>831</ele>
        <time>2026-05-26T09:37:03.000Z</time>
      </trkpt>
      <trkpt lat="44.65688" lon="5.05039">
        <ele>831</ele>
        <time>2026-05-26T09:37:04.000Z</time>
      </trkpt>
      <trkpt lat="44.65688" lon="5.05039">
        <ele>831</ele>
        <time>2026-05-26T09:37:05.000Z</time>
      </trkpt>
      <trkpt lat="44.65688" lon="5.05039">
        <ele>831</ele>
        <time>2026-05-26T09:37:06.000Z</time>
      </trkpt>
      <trkpt lat="44.65688" lon="5.05039">
        <ele>831</ele>
        <time>2026-05-26T09:37:07.000Z</time>
      </trkpt>
      <trkpt lat="44.65688" lon="5.05039">
        <ele>831</ele>
        <time>2026-05-26T09:37:08.000Z</time>
      </trkpt>
      <trkpt lat="44.65688" lon="5.05039">
        <ele>831</ele>
        <time>2026-05-26T09:37:09.000Z</time>
      </trkpt>
      <trkpt lat="44.65688" lon="5.05039">
        <ele>831</ele>
        <time>2026-05-26T09:37:10.000Z</time>
      </trkpt>
      <trkpt lat="44.65688" lon="5.05039">
        <ele>831</ele>
        <time>2026-05-26T09:37:11.000Z</time>
      </trkpt>
      <trkpt lat="44.65688" lon="5.05039">
        <ele>831</ele>
        <time>2026-05-26T09:37:12.000Z</time>
      </trkpt>
      <trkpt lat="44.65688" lon="5.05039">
        <ele>831</ele>
        <time>2026-05-26T09:37:13.000Z</time>
      </trkpt>
      <trkpt lat="44.65688" lon="5.05039">
        <ele>831</ele>
        <time>2026-05-26T09:37:14.000Z</time>
      </trkpt>
      <trkpt lat="44.65688" lon="5.05039">
        <ele>831</ele>
        <time>2026-05-26T09:37:15.000Z</time>
      </trkpt>
      <trkpt lat="44.65688" lon="5.05039">
        <ele>831</ele>
        <time>2026-05-26T09:37:16.000Z</time>
      </trkpt>
      <trkpt lat="44.65688" lon="5.05039">
        <ele>831</ele>
        <time>2026-05-26T09:37:17.000Z</time>
      </trkpt>
      <trkpt lat="44.65688" lon="5.05039">
        <ele>831</ele>
        <time>2026-05-26T09:37:18.000Z</time>
      </trkpt>
      <trkpt lat="44.65688" lon="5.05039">
        <ele>831</ele>
        <time>2026-05-26T09:37:19.000Z</time>
      </trkpt>
      <trkpt lat="44.65688" lon="5.05039">
        <ele>831</ele>
        <time>2026-05-26T09:37:20.000Z</time>
      </trkpt>
      <trkpt lat="44.65688" lon="5.05039">
        <ele>831</ele>
        <time>2026-05-26T09:37:21.000Z</time>
      </trkpt>
      <trkpt lat="44.65688" lon="5.05039">
        <ele>831</ele>
        <time>2026-05-26T09:37:22.000Z</time>
      </trkpt>
      <trkpt lat="44.65688" lon="5.05039">
        <ele>831</ele>
        <time>2026-05-26T09:37:23.000Z</time>
      </trkpt>
      <trkpt lat="44.65688" lon="5.05039">
        <ele>831</ele>
        <time>2026-05-26T09:37:24.000Z</time>
      </trkpt>
      <trkpt lat="44.65688" lon="5.05039">
        <ele>831</ele>
        <time>2026-05-26T09:37:25.000Z</time>
      </trkpt>
      <trkpt lat="44.65688" lon="5.05039">
        <ele>831</ele>
        <time>2026-05-26T09:37:26.000Z</time>
      </trkpt>
      <trkpt lat="44.65688" lon="5.05039">
        <ele>831</ele>
        <time>2026-05-26T09:37:27.000Z</time>
      </trkpt>
      <trkpt lat="44.65688" lon="5.05039">
        <ele>831</ele>
        <time>2026-05-26T09:37:28.000Z</time>
      </trkpt>
      <trkpt lat="44.65688" lon="5.05039">
        <ele>831</ele>
        <time>2026-05-26T09:37:29.000Z</time>
      </trkpt>
      <trkpt lat="44.65688" lon="5.05039">
        <ele>831</ele>
        <time>2026-05-26T09:37:30.000Z</time>
      </trkpt>
      <trkpt lat="44.65688" lon="5.05039">
        <ele>831</ele>
        <time>2026-05-26T09:37:31.000Z</time>
      </trkpt>
      <trkpt lat="44.65688" lon="5.05039">
        <ele>831</ele>
        <time>2026-05-26T09:37:32.000Z</time>
      </trkpt>
      <trkpt lat="44.65688" lon="5.05039">
        <ele>831</ele>
        <time>2026-05-26T09:37:33.000Z</time>
      </trkpt>
      <trkpt lat="44.65688" lon="5.05039">
        <ele>831</ele>
        <time>2026-05-26T09:37:34.000Z</time>
      </trkpt>
      <trkpt lat="44.65688" lon="5.05039">
        <ele>831</ele>
        <time>2026-05-26T09:37:35.000Z</time>
      </trkpt>
      <trkpt lat="44.65688" lon="5.05039">
        <ele>831</ele>
        <time>2026-05-26T09:37:36.000Z</time>
      </trkpt>
      <trkpt lat="44.65688" lon="5.05039">
        <ele>831</ele>
        <time>2026-05-26T09:37:37.000Z</time>
      </trkpt>
      <trkpt lat="44.65688" lon="5.05039">
        <ele>831</ele>
        <time>2026-05-26T09:37:38.000Z</time>
      </trkpt>
      <trkpt lat="44.65688" lon="5.05039">
        <ele>831</ele>
        <time>2026-05-26T09:37:39.000Z</time>
      </trkpt>
      <trkpt lat="44.65688" lon="5.05039">
        <ele>831</ele>
        <time>2026-05-26T09:37:40.000Z</time>
      </trkpt>
      <trkpt lat="44.65688" lon="5.05039">
        <ele>831</ele>
        <time>2026-05-26T09:37:41.000Z</time>
      </trkpt>
      <trkpt lat="44.65688" lon="5.05039">
        <ele>831</ele>
        <time>2026-05-26T09:37:42.000Z</time>
      </trkpt>
      <trkpt lat="44.65688" lon="5.05039">
        <ele>831</ele>
        <time>2026-05-26T09:37:43.000Z</time>
      </trkpt>
      <trkpt lat="44.65688" lon="5.05039">
        <ele>831</ele>
        <time>2026-05-26T09:37:44.000Z</time>
      </trkpt>
      <trkpt lat="44.65688" lon="5.05039">
        <ele>831</ele>
        <time>2026-05-26T09:37:45.000Z</time>
      </trkpt>
      <trkpt lat="44.65688" lon="5.05039">
        <ele>831</ele>
        <time>2026-05-26T09:37:46.000Z</time>
      </trkpt>
      <trkpt lat="44.65688" lon="5.05039">
        <ele>831</ele>
        <time>2026-05-26T09:37:47.000Z</time>
      </trkpt>
      <trkpt lat="44.65688" lon="5.05039">
        <ele>831</ele>
        <time>2026-05-26T09:37:48.000Z</time>
      </trkpt>
      <trkpt lat="44.65688" lon="5.05039">
        <ele>831</ele>
        <time>2026-05-26T09:37:49.000Z</time>
      </trkpt>
      <trkpt lat="44.65688" lon="5.05039">
        <ele>831</ele>
        <time>2026-05-26T09:37:50.000Z</time>
      </trkpt>
      <trkpt lat="44.65688" lon="5.05038">
        <ele>832</ele>
        <time>2026-05-26T09:37:51.000Z</time>
      </trkpt>
      <trkpt lat="44.65688" lon="5.05038">
        <ele>831</ele>
        <time>2026-05-26T09:37:52.000Z</time>
      </trkpt>
      <trkpt lat="44.65688" lon="5.05039">
        <ele>832</ele>
        <time>2026-05-26T09:37:53.000Z</time>
      </trkpt>
      <trkpt lat="44.65688" lon="5.05039">
        <ele>832</ele>
        <time>2026-05-26T09:37:54.000Z</time>
      </trkpt>
      <trkpt lat="44.65688" lon="5.05039">
        <ele>832</ele>
        <time>2026-05-26T09:37:55.000Z</time>
      </trkpt>
      <trkpt lat="44.65688" lon="5.05039">
        <ele>832</ele>
        <time>2026-05-26T09:37:56.000Z</time>
      </trkpt>
      <trkpt lat="44.65688" lon="5.05039">
        <ele>831</ele>
        <time>2026-05-26T09:37:57.000Z</time>
      </trkpt>
      <trkpt lat="44.65689" lon="5.05039">
        <ele>831</ele>
        <time>2026-05-26T09:37:58.000Z</time>
      </trkpt>
      <trkpt lat="44.65688" lon="5.05039">
        <ele>831</ele>
        <time>2026-05-26T09:37:59.000Z</time>
      </trkpt>
      <trkpt lat="44.65688" lon="5.05039">
        <ele>831</ele>
        <time>2026-05-26T09:38:00.000Z</time>
      </trkpt>
      <trkpt lat="44.65688" lon="5.05039">
        <ele>831</ele>
        <time>2026-05-26T09:38:01.000Z</time>
      </trkpt>
      <trkpt lat="44.65688" lon="5.05039">
        <ele>831</ele>
        <time>2026-05-26T09:38:02.000Z</time>
      </trkpt>
      <trkpt lat="44.65688" lon="5.05039">
        <ele>831</ele>
        <time>2026-05-26T09:38:03.000Z</time>
      </trkpt>
      <trkpt lat="44.65688" lon="5.05039">
        <ele>831</ele>
        <time>2026-05-26T09:38:04.000Z</time>
      </trkpt>
      <trkpt lat="44.65688" lon="5.05039">
        <ele>831</ele>
        <time>2026-05-26T09:38:05.000Z</time>
      </trkpt>
      <trkpt lat="44.65688" lon="5.05039">
        <ele>831</ele>
        <time>2026-05-26T09:38:06.000Z</time>
      </trkpt>
      <trkpt lat="44.65688" lon="5.05039">
        <ele>831</ele>
        <time>2026-05-26T09:38:07.000Z</time>
      </trkpt>
      <trkpt lat="44.65688" lon="5.05039">
        <ele>831</ele>
        <time>2026-05-26T09:38:08.000Z</time>
      </trkpt>
      <trkpt lat="44.65688" lon="5.05039">
        <ele>831</ele>
        <time>2026-05-26T09:38:09.000Z</time>
      </trkpt>
      <trkpt lat="44.65688" lon="5.05039">
        <ele>831</ele>
        <time>2026-05-26T09:38:10.000Z</time>
      </trkpt>
      <trkpt lat="44.65688" lon="5.05039">
        <ele>831</ele>
        <time>2026-05-26T09:38:11.000Z</time>
      </trkpt>
      <trkpt lat="44.65688" lon="5.05039">
        <ele>831</ele>
        <time>2026-05-26T09:38:12.000Z</time>
      </trkpt>
      <trkpt lat="44.65688" lon="5.05039">
        <ele>831</ele>
        <time>2026-05-26T09:38:13.000Z</time>
      </trkpt>
      <trkpt lat="44.65688" lon="5.05039">
        <ele>831</ele>
        <time>2026-05-26T09:38:14.000Z</time>
      </trkpt>
      <trkpt lat="44.65688" lon="5.05039">
        <ele>831</ele>
        <time>2026-05-26T09:38:15.000Z</time>
      </trkpt>
      <trkpt lat="44.65688" lon="5.05039">
        <ele>831</ele>
        <time>2026-05-26T09:38:16.000Z</time>
      </trkpt>
      <trkpt lat="44.65688" lon="5.05039">
        <ele>831</ele>
        <time>2026-05-26T09:38:17.000Z</time>
      </trkpt>
      <trkpt lat="44.65688" lon="5.05039">
        <ele>831</ele>
        <time>2026-05-26T09:38:18.000Z</time>
      </trkpt>
      <trkpt lat="44.65688" lon="5.05039">
        <ele>831</ele>
        <time>2026-05-26T09:38:19.000Z</time>
      </trkpt>
      <trkpt lat="44.65688" lon="5.05039">
        <ele>831</ele>
        <time>2026-05-26T09:38:20.000Z</time>
      </trkpt>
      <trkpt lat="44.65688" lon="5.05039">
        <ele>831</ele>
        <time>2026-05-26T09:38:21.000Z</time>
      </trkpt>
      <trkpt lat="44.65688" lon="5.05039">
        <ele>831</ele>
        <time>2026-05-26T09:38:22.000Z</time>
      </trkpt>
      <trkpt lat="44.65688" lon="5.05039">
        <ele>831</ele>
        <time>2026-05-26T09:38:23.000Z</time>
      </trkpt>
      <trkpt lat="44.65688" lon="5.05039">
        <ele>831</ele>
        <time>2026-05-26T09:38:24.000Z</time>
      </trkpt>
      <trkpt lat="44.65688" lon="5.05039">
        <ele>831</ele>
        <time>2026-05-26T09:38:25.000Z</time>
      </trkpt>
      <trkpt lat="44.65688" lon="5.05039">
        <ele>831</ele>
        <time>2026-05-26T09:38:26.000Z</time>
      </trkpt>
      <trkpt lat="44.65688" lon="5.05039">
        <ele>831</ele>
        <time>2026-05-26T09:38:27.000Z</time>
      </trkpt>
      <trkpt lat="44.65688" lon="5.05039">
        <ele>831</ele>
        <time>2026-05-26T09:38:28.000Z</time>
      </trkpt>
      <trkpt lat="44.65688" lon="5.05039">
        <ele>831</ele>
        <time>2026-05-26T09:38:29.000Z</time>
      </trkpt>
      <trkpt lat="44.65688" lon="5.05039">
        <ele>831</ele>
        <time>2026-05-26T09:38:30.000Z</time>
      </trkpt>
      <trkpt lat="44.65688" lon="5.05039">
        <ele>831</ele>
        <time>2026-05-26T09:38:31.000Z</time>
      </trkpt>
      <trkpt lat="44.65688" lon="5.05039">
        <ele>831</ele>
        <time>2026-05-26T09:38:32.000Z</time>
      </trkpt>
      <trkpt lat="44.65688" lon="5.05039">
        <ele>831</ele>
        <time>2026-05-26T09:38:33.000Z</time>
      </trkpt>
      <trkpt lat="44.65688" lon="5.05039">
        <ele>831</ele>
        <time>2026-05-26T09:38:34.000Z</time>
      </trkpt>
      <trkpt lat="44.65688" lon="5.05039">
        <ele>831</ele>
        <time>2026-05-26T09:38:35.000Z</time>
      </trkpt>
      <trkpt lat="44.65688" lon="5.05039">
        <ele>831</ele>
        <time>2026-05-26T09:38:36.000Z</time>
      </trkpt>
      <trkpt lat="44.65688" lon="5.05039">
        <ele>831</ele>
        <time>2026-05-26T09:38:37.000Z</time>
      </trkpt>
      <trkpt lat="44.65688" lon="5.05039">
        <ele>831</ele>
        <time>2026-05-26T09:38:38.000Z</time>
      </trkpt>
      <trkpt lat="44.65688" lon="5.05039">
        <ele>831</ele>
        <time>2026-05-26T09:38:39.000Z</time>
      </trkpt>
      <trkpt lat="44.65688" lon="5.05039">
        <ele>831</ele>
        <time>2026-05-26T09:38:40.000Z</time>
      </trkpt>
      <trkpt lat="44.65688" lon="5.05039">
        <ele>831</ele>
        <time>2026-05-26T09:38:41.000Z</time>
      </trkpt>
      <trkpt lat="44.65688" lon="5.05039">
        <ele>831</ele>
        <time>2026-05-26T09:38:42.000Z</time>
      </trkpt>
      <trkpt lat="44.65688" lon="5.05039">
        <ele>831</ele>
        <time>2026-05-26T09:38:43.000Z</time>
      </trkpt>
      <trkpt lat="44.65688" lon="5.05039">
        <ele>831</ele>
        <time>2026-05-26T09:38:44.000Z</time>
      </trkpt>
      <trkpt lat="44.65688" lon="5.05039">
        <ele>831</ele>
        <time>2026-05-26T09:38:45.000Z</time>
      </trkpt>
      <trkpt lat="44.65688" lon="5.05039">
        <ele>831</ele>
        <time>2026-05-26T09:38:46.000Z</time>
      </trkpt>
      <trkpt lat="44.65688" lon="5.05039">
        <ele>831</ele>
        <time>2026-05-26T09:38:47.000Z</time>
      </trkpt>
      <trkpt lat="44.65688" lon="5.05039">
        <ele>831</ele>
        <time>2026-05-26T09:38:48.000Z</time>
      </trkpt>
      <trkpt lat="44.65688" lon="5.05039">
        <ele>831</ele>
        <time>2026-05-26T09:38:49.000Z</time>
      </trkpt>
      <trkpt lat="44.65688" lon="5.05039">
        <ele>831</ele>
        <time>2026-05-26T09:38:50.000Z</time>
      </trkpt>
      <trkpt lat="44.65688" lon="5.05039">
        <ele>831</ele>
        <time>2026-05-26T09:38:51.000Z</time>
      </trkpt>
      <trkpt lat="44.65688" lon="5.05039">
        <ele>831</ele>
        <time>2026-05-26T09:38:52.000Z</time>
      </trkpt>
      <trkpt lat="44.65688" lon="5.05039">
        <ele>831</ele>
        <time>2026-05-26T09:38:53.000Z</time>
      </trkpt>
      <trkpt lat="44.65688" lon="5.05039">
        <ele>831</ele>
        <time>2026-05-26T09:38:54.000Z</time>
      </trkpt>
      <trkpt lat="44.65688" lon="5.05039">
        <ele>831</ele>
        <time>2026-05-26T09:38:55.000Z</time>
      </trkpt>
      <trkpt lat="44.65688" lon="5.05039">
        <ele>831</ele>
        <time>2026-05-26T09:38:56.000Z</time>
      </trkpt>
      <trkpt lat="44.65688" lon="5.05039">
        <ele>831</ele>
        <time>2026-05-26T09:38:57.000Z</time>
      </trkpt>
      <trkpt lat="44.65688" lon="5.05039">
        <ele>831</ele>
        <time>2026-05-26T09:38:58.000Z</time>
      </trkpt>
      <trkpt lat="44.65688" lon="5.05039">
        <ele>831</ele>
        <time>2026-05-26T09:38:59.000Z</time>
      </trkpt>
      <trkpt lat="44.65688" lon="5.05039">
        <ele>831</ele>
        <time>2026-05-26T09:39:00.000Z</time>
      </trkpt>
      <trkpt lat="44.65688" lon="5.05039">
        <ele>831</ele>
        <time>2026-05-26T09:39:01.000Z</time>
      </trkpt>
      <trkpt lat="44.65688" lon="5.05039">
        <ele>831</ele>
        <time>2026-05-26T09:39:02.000Z</time>
      </trkpt>
      <trkpt lat="44.65688" lon="5.05039">
        <ele>831</ele>
        <time>2026-05-26T09:39:03.000Z</time>
      </trkpt>
      <trkpt lat="44.65688" lon="5.05039">
        <ele>831</ele>
        <time>2026-05-26T09:39:04.000Z</time>
      </trkpt>
      <trkpt lat="44.65688" lon="5.05039">
        <ele>831</ele>
        <time>2026-05-26T09:39:05.000Z</time>
      </trkpt>
      <trkpt lat="44.65688" lon="5.05039">
        <ele>831</ele>
        <time>2026-05-26T09:39:06.000Z</time>
      </trkpt>
      <trkpt lat="44.65688" lon="5.05039">
        <ele>831</ele>
        <time>2026-05-26T09:39:07.000Z</time>
      </trkpt>
      <trkpt lat="44.65688" lon="5.05039">
        <ele>831</ele>
        <time>2026-05-26T09:39:08.000Z</time>
      </trkpt>
      <trkpt lat="44.65688" lon="5.05039">
        <ele>831</ele>
        <time>2026-05-26T09:39:09.000Z</time>
      </trkpt>
      <trkpt lat="44.65688" lon="5.05039">
        <ele>831</ele>
        <time>2026-05-26T09:39:10.000Z</time>
      </trkpt>
      <trkpt lat="44.65688" lon="5.05039">
        <ele>831</ele>
        <time>2026-05-26T09:39:11.000Z</time>
      </trkpt>
      <trkpt lat="44.65688" lon="5.05039">
        <ele>831</ele>
        <time>2026-05-26T09:39:12.000Z</time>
      </trkpt>
      <trkpt lat="44.65688" lon="5.05039">
        <ele>831</ele>
        <time>2026-05-26T09:39:13.000Z</time>
      </trkpt>
      <trkpt lat="44.65688" lon="5.05039">
        <ele>831</ele>
        <time>2026-05-26T09:39:14.000Z</time>
      </trkpt>
      <trkpt lat="44.65688" lon="5.05039">
        <ele>831</ele>
        <time>2026-05-26T09:39:15.000Z</time>
      </trkpt>
      <trkpt lat="44.65688" lon="5.05039">
        <ele>831</ele>
        <time>2026-05-26T09:39:16.000Z</time>
      </trkpt>
      <trkpt lat="44.65688" lon="5.05039">
        <ele>831</ele>
        <time>2026-05-26T09:39:17.000Z</time>
      </trkpt>
      <trkpt lat="44.65688" lon="5.05039">
        <ele>831</ele>
        <time>2026-05-26T09:39:18.000Z</time>
      </trkpt>
      <trkpt lat="44.65688" lon="5.05039">
        <ele>831</ele>
        <time>2026-05-26T09:39:19.000Z</time>
      </trkpt>
      <trkpt lat="44.65688" lon="5.05039">
        <ele>831</ele>
        <time>2026-05-26T09:39:20.000Z</time>
      </trkpt>
      <trkpt lat="44.65688" lon="5.05039">
        <ele>831</ele>
        <time>2026-05-26T09:39:21.000Z</time>
      </trkpt>
      <trkpt lat="44.65688" lon="5.05039">
        <ele>831</ele>
        <time>2026-05-26T09:39:22.000Z</time>
      </trkpt>
      <trkpt lat="44.65688" lon="5.05039">
        <ele>831</ele>
        <time>2026-05-26T09:39:23.000Z</time>
      </trkpt>
      <trkpt lat="44.65688" lon="5.05039">
        <ele>831</ele>
        <time>2026-05-26T09:39:24.000Z</time>
      </trkpt>
      <trkpt lat="44.65688" lon="5.05039">
        <ele>831</ele>
        <time>2026-05-26T09:39:25.000Z</time>
      </trkpt>
      <trkpt lat="44.65688" lon="5.05039">
        <ele>831</ele>
        <time>2026-05-26T09:39:26.000Z</time>
      </trkpt>
      <trkpt lat="44.65688" lon="5.05039">
        <ele>831</ele>
        <time>2026-05-26T09:39:27.000Z</time>
      </trkpt>
      <trkpt lat="44.65688" lon="5.05039">
        <ele>831</ele>
        <time>2026-05-26T09:39:28.000Z</time>
      </trkpt>
      <trkpt lat="44.65688" lon="5.05039">
        <ele>831</ele>
        <time>2026-05-26T09:39:29.000Z</time>
      </trkpt>
      <trkpt lat="44.65688" lon="5.05039">
        <ele>831</ele>
        <time>2026-05-26T09:39:30.000Z</time>
      </trkpt>
      <trkpt lat="44.65688" lon="5.05039">
        <ele>831</ele>
        <time>2026-05-26T09:39:31.000Z</time>
      </trkpt>
      <trkpt lat="44.65688" lon="5.05039">
        <ele>831</ele>
        <time>2026-05-26T09:39:32.000Z</time>
      </trkpt>
      <trkpt lat="44.65688" lon="5.05039">
        <ele>831</ele>
        <time>2026-05-26T09:39:33.000Z</time>
      </trkpt>
      <trkpt lat="44.65688" lon="5.05039">
        <ele>831</ele>
        <time>2026-05-26T09:39:34.000Z</time>
      </trkpt>
      <trkpt lat="44.65688" lon="5.05039">
        <ele>831</ele>
        <time>2026-05-26T09:39:35.000Z</time>
      </trkpt>
      <trkpt lat="44.65689" lon="5.05041">
        <ele>831</ele>
        <time>2026-05-26T09:39:36.000Z</time>
      </trkpt>
      <trkpt lat="44.65689" lon="5.05041">
        <ele>831</ele>
        <time>2026-05-26T09:39:37.000Z</time>
      </trkpt>
      <trkpt lat="44.65689" lon="5.05041">
        <ele>831</ele>
        <time>2026-05-26T09:39:38.000Z</time>
      </trkpt>
      <trkpt lat="44.65689" lon="5.05041">
        <ele>831</ele>
        <time>2026-05-26T09:39:39.000Z</time>
      </trkpt>
      <trkpt lat="44.65689" lon="5.05041">
        <ele>831</ele>
        <time>2026-05-26T09:39:40.000Z</time>
      </trkpt>
      <trkpt lat="44.65689" lon="5.05041">
        <ele>831</ele>
        <time>2026-05-26T09:39:41.000Z</time>
      </trkpt>
      <trkpt lat="44.65689" lon="5.05041">
        <ele>831</ele>
        <time>2026-05-26T09:39:42.000Z</time>
      </trkpt>
      <trkpt lat="44.65689" lon="5.05041">
        <ele>831</ele>
        <time>2026-05-26T09:39:43.000Z</time>
      </trkpt>
      <trkpt lat="44.65689" lon="5.05041">
        <ele>831</ele>
        <time>2026-05-26T09:39:44.000Z</time>
      </trkpt>
      <trkpt lat="44.65689" lon="5.05041">
        <ele>831</ele>
        <time>2026-05-26T09:39:45.000Z</time>
      </trkpt>
      <trkpt lat="44.65689" lon="5.05041">
        <ele>831</ele>
        <time>2026-05-26T09:39:46.000Z</time>
      </trkpt>
      <trkpt lat="44.65689" lon="5.05041">
        <ele>831</ele>
        <time>2026-05-26T09:39:47.000Z</time>
      </trkpt>
      <trkpt lat="44.65689" lon="5.05041">
        <ele>831</ele>
        <time>2026-05-26T09:39:48.000Z</time>
      </trkpt>
      <trkpt lat="44.65689" lon="5.05041">
        <ele>831</ele>
        <time>2026-05-26T09:39:49.000Z</time>
      </trkpt>
      <trkpt lat="44.65689" lon="5.05041">
        <ele>831</ele>
        <time>2026-05-26T09:39:50.000Z</time>
      </trkpt>
      <trkpt lat="44.65689" lon="5.05041">
        <ele>831</ele>
        <time>2026-05-26T09:39:51.000Z</time>
      </trkpt>
      <trkpt lat="44.65689" lon="5.05041">
        <ele>831</ele>
        <time>2026-05-26T09:39:52.000Z</time>
      </trkpt>
      <trkpt lat="44.65689" lon="5.0504">
        <ele>831</ele>
        <time>2026-05-26T09:39:53.000Z</time>
      </trkpt>
      <trkpt lat="44.65688" lon="5.05039">
        <ele>832</ele>
        <time>2026-05-26T09:39:54.000Z</time>
      </trkpt>
      <trkpt lat="44.65687" lon="5.05038">
        <ele>833</ele>
        <time>2026-05-26T09:39:55.000Z</time>
      </trkpt>
      <trkpt lat="44.65688" lon="5.05039">
        <ele>833</ele>
        <time>2026-05-26T09:39:56.000Z</time>
      </trkpt>
      <trkpt lat="44.65688" lon="5.05039">
        <ele>833</ele>
        <time>2026-05-26T09:39:57.000Z</time>
      </trkpt>
      <trkpt lat="44.65688" lon="5.05039">
        <ele>833</ele>
        <time>2026-05-26T09:39:58.000Z</time>
      </trkpt>
      <trkpt lat="44.65688" lon="5.05039">
        <ele>833</ele>
        <time>2026-05-26T09:39:59.000Z</time>
      </trkpt>
      <trkpt lat="44.65688" lon="5.05039">
        <ele>833</ele>
        <time>2026-05-26T09:40:00.000Z</time>
      </trkpt>
      <trkpt lat="44.65688" lon="5.05039">
        <ele>833</ele>
        <time>2026-05-26T09:40:01.000Z</time>
      </trkpt>
      <trkpt lat="44.65688" lon="5.05039">
        <ele>833</ele>
        <time>2026-05-26T09:40:02.000Z</time>
      </trkpt>
      <trkpt lat="44.65688" lon="5.05039">
        <ele>833</ele>
        <time>2026-05-26T09:40:03.000Z</time>
      </trkpt>
      <trkpt lat="44.65688" lon="5.0504">
        <ele>833</ele>
        <time>2026-05-26T09:40:04.000Z</time>
      </trkpt>
      <trkpt lat="44.65688" lon="5.05041">
        <ele>833</ele>
        <time>2026-05-26T09:40:05.000Z</time>
      </trkpt>
      <trkpt lat="44.65689" lon="5.05042">
        <ele>833</ele>
        <time>2026-05-26T09:40:06.000Z</time>
      </trkpt>
      <trkpt lat="44.65689" lon="5.05043">
        <ele>832</ele>
        <time>2026-05-26T09:40:07.000Z</time>
      </trkpt>
      <trkpt lat="44.65689" lon="5.05045">
        <ele>833</ele>
        <time>2026-05-26T09:40:08.000Z</time>
      </trkpt>
      <trkpt lat="44.65689" lon="5.05046">
        <ele>834</ele>
        <time>2026-05-26T09:40:09.000Z</time>
      </trkpt>
      <trkpt lat="44.65691" lon="5.05047">
        <ele>833</ele>
        <time>2026-05-26T09:40:10.000Z</time>
      </trkpt>
      <trkpt lat="44.65691" lon="5.05049">
        <ele>832</ele>
        <time>2026-05-26T09:40:11.000Z</time>
      </trkpt>
      <trkpt lat="44.6569" lon="5.0505">
        <ele>832</ele>
        <time>2026-05-26T09:40:12.000Z</time>
      </trkpt>
      <trkpt lat="44.6569" lon="5.05051">
        <ele>832</ele>
        <time>2026-05-26T09:40:13.000Z</time>
      </trkpt>
      <trkpt lat="44.65691" lon="5.0505">
        <ele>832</ele>
        <time>2026-05-26T09:40:14.000Z</time>
      </trkpt>
      <trkpt lat="44.65691" lon="5.05049">
        <ele>832</ele>
        <time>2026-05-26T09:40:15.000Z</time>
      </trkpt>
      <trkpt lat="44.65692" lon="5.05048">
        <ele>834</ele>
        <time>2026-05-26T09:40:16.000Z</time>
      </trkpt>
      <trkpt lat="44.65692" lon="5.05048">
        <ele>834</ele>
        <time>2026-05-26T09:40:17.000Z</time>
      </trkpt>
      <trkpt lat="44.65692" lon="5.05049">
        <ele>835</ele>
        <time>2026-05-26T09:40:18.000Z</time>
      </trkpt>
      <trkpt lat="44.65693" lon="5.0505">
        <ele>835</ele>
        <time>2026-05-26T09:40:19.000Z</time>
      </trkpt>
      <trkpt lat="44.65694" lon="5.05051">
        <ele>836</ele>
        <time>2026-05-26T09:40:20.000Z</time>
      </trkpt>
      <trkpt lat="44.65695" lon="5.05051">
        <ele>836</ele>
        <time>2026-05-26T09:40:21.000Z</time>
      </trkpt>
      <trkpt lat="44.65696" lon="5.05051">
        <ele>834</ele>
        <time>2026-05-26T09:40:22.000Z</time>
      </trkpt>
      <trkpt lat="44.65696" lon="5.0505">
        <ele>834</ele>
        <time>2026-05-26T09:40:23.000Z</time>
      </trkpt>
      <trkpt lat="44.65697" lon="5.0505">
        <ele>834</ele>
        <time>2026-05-26T09:40:24.000Z</time>
      </trkpt>
      <trkpt lat="44.65698" lon="5.0505">
        <ele>834</ele>
        <time>2026-05-26T09:40:25.000Z</time>
      </trkpt>
      <trkpt lat="44.65699" lon="5.05049">
        <ele>835</ele>
        <time>2026-05-26T09:40:26.000Z</time>
      </trkpt>
      <trkpt lat="44.657" lon="5.05049">
        <ele>833</ele>
        <time>2026-05-26T09:40:27.000Z</time>
      </trkpt>
      <trkpt lat="44.657" lon="5.0505">
        <ele>835</ele>
        <time>2026-05-26T09:40:28.000Z</time>
      </trkpt>
      <trkpt lat="44.65701" lon="5.05049">
        <ele>835</ele>
        <time>2026-05-26T09:40:29.000Z</time>
      </trkpt>
      <trkpt lat="44.65701" lon="5.0505">
        <ele>836</ele>
        <time>2026-05-26T09:40:30.000Z</time>
      </trkpt>
      <trkpt lat="44.65701" lon="5.05051">
        <ele>836</ele>
        <time>2026-05-26T09:40:31.000Z</time>
      </trkpt>
      <trkpt lat="44.65701" lon="5.05052">
        <ele>837</ele>
        <time>2026-05-26T09:40:32.000Z</time>
      </trkpt>
      <trkpt lat="44.65701" lon="5.05055">
        <ele>836</ele>
        <time>2026-05-26T09:40:33.000Z</time>
      </trkpt>
      <trkpt lat="44.65701" lon="5.05056">
        <ele>836</ele>
        <time>2026-05-26T09:40:34.000Z</time>
      </trkpt>
      <trkpt lat="44.65701" lon="5.05056">
        <ele>836</ele>
        <time>2026-05-26T09:40:35.000Z</time>
      </trkpt>
      <trkpt lat="44.65701" lon="5.05057">
        <ele>836</ele>
        <time>2026-05-26T09:40:36.000Z</time>
      </trkpt>
      <trkpt lat="44.65702" lon="5.05058">
        <ele>835</ele>
        <time>2026-05-26T09:40:37.000Z</time>
      </trkpt>
      <trkpt lat="44.65702" lon="5.05059">
        <ele>835</ele>
        <time>2026-05-26T09:40:38.000Z</time>
      </trkpt>
      <trkpt lat="44.65703" lon="5.0506">
        <ele>835</ele>
        <time>2026-05-26T09:40:39.000Z</time>
      </trkpt>
      <trkpt lat="44.65703" lon="5.05061">
        <ele>835</ele>
        <time>2026-05-26T09:40:40.000Z</time>
      </trkpt>
      <trkpt lat="44.65704" lon="5.05062">
        <ele>836</ele>
        <time>2026-05-26T09:40:41.000Z</time>
      </trkpt>
      <trkpt lat="44.65705" lon="5.05063">
        <ele>836</ele>
        <time>2026-05-26T09:40:42.000Z</time>
      </trkpt>
      <trkpt lat="44.65706" lon="5.05064">
        <ele>836</ele>
        <time>2026-05-26T09:40:43.000Z</time>
      </trkpt>
      <trkpt lat="44.65706" lon="5.05065">
        <ele>837</ele>
        <time>2026-05-26T09:40:44.000Z</time>
      </trkpt>
      <trkpt lat="44.65706" lon="5.05066">
        <ele>837</ele>
        <time>2026-05-26T09:40:45.000Z</time>
      </trkpt>
      <trkpt lat="44.65707" lon="5.05067">
        <ele>837</ele>
        <time>2026-05-26T09:40:46.000Z</time>
      </trkpt>
      <trkpt lat="44.65707" lon="5.05068">
        <ele>837</ele>
        <time>2026-05-26T09:40:47.000Z</time>
      </trkpt>
      <trkpt lat="44.65707" lon="5.05068">
        <ele>836</ele>
        <time>2026-05-26T09:40:48.000Z</time>
      </trkpt>
      <trkpt lat="44.65706" lon="5.05069">
        <ele>837</ele>
        <time>2026-05-26T09:40:49.000Z</time>
      </trkpt>
      <trkpt lat="44.65707" lon="5.05069">
        <ele>837</ele>
        <time>2026-05-26T09:40:50.000Z</time>
      </trkpt>
      <trkpt lat="44.65707" lon="5.0507">
        <ele>837</ele>
        <time>2026-05-26T09:40:51.000Z</time>
      </trkpt>
      <trkpt lat="44.65706" lon="5.05072">
        <ele>838</ele>
        <time>2026-05-26T09:40:52.000Z</time>
      </trkpt>
      <trkpt lat="44.65707" lon="5.05074">
        <ele>839</ele>
        <time>2026-05-26T09:40:53.000Z</time>
      </trkpt>
      <trkpt lat="44.65708" lon="5.05075">
        <ele>839</ele>
        <time>2026-05-26T09:40:54.000Z</time>
      </trkpt>
      <trkpt lat="44.6571" lon="5.05077">
        <ele>838</ele>
        <time>2026-05-26T09:40:55.000Z</time>
      </trkpt>
      <trkpt lat="44.6571" lon="5.05078">
        <ele>837</ele>
        <time>2026-05-26T09:40:56.000Z</time>
      </trkpt>
      <trkpt lat="44.6571" lon="5.05078">
        <ele>837</ele>
        <time>2026-05-26T09:40:57.000Z</time>
      </trkpt>
      <trkpt lat="44.6571" lon="5.05079">
        <ele>837</ele>
        <time>2026-05-26T09:40:58.000Z</time>
      </trkpt>
      <trkpt lat="44.6571" lon="5.05078">
        <ele>837</ele>
        <time>2026-05-26T09:40:59.000Z</time>
      </trkpt>
      <trkpt lat="44.65712" lon="5.05078">
        <ele>837</ele>
        <time>2026-05-26T09:41:00.000Z</time>
      </trkpt>
      <trkpt lat="44.65712" lon="5.05079">
        <ele>838</ele>
        <time>2026-05-26T09:41:01.000Z</time>
      </trkpt>
      <trkpt lat="44.65712" lon="5.05079">
        <ele>839</ele>
        <time>2026-05-26T09:41:02.000Z</time>
      </trkpt>
      <trkpt lat="44.65713" lon="5.05079">
        <ele>838</ele>
        <time>2026-05-26T09:41:03.000Z</time>
      </trkpt>
      <trkpt lat="44.65713" lon="5.05079">
        <ele>838</ele>
        <time>2026-05-26T09:41:04.000Z</time>
      </trkpt>
      <trkpt lat="44.65714" lon="5.05078">
        <ele>838</ele>
        <time>2026-05-26T09:41:05.000Z</time>
      </trkpt>
      <trkpt lat="44.65715" lon="5.05077">
        <ele>838</ele>
        <time>2026-05-26T09:41:06.000Z</time>
      </trkpt>
      <trkpt lat="44.65716" lon="5.05077">
        <ele>837</ele>
        <time>2026-05-26T09:41:07.000Z</time>
      </trkpt>
      <trkpt lat="44.65716" lon="5.05077">
        <ele>837</ele>
        <time>2026-05-26T09:41:08.000Z</time>
      </trkpt>
      <trkpt lat="44.65717" lon="5.05077">
        <ele>837</ele>
        <time>2026-05-26T09:41:09.000Z</time>
      </trkpt>
      <trkpt lat="44.65717" lon="5.05077">
        <ele>837</ele>
        <time>2026-05-26T09:41:10.000Z</time>
      </trkpt>
      <trkpt lat="44.65717" lon="5.05077">
        <ele>837</ele>
        <time>2026-05-26T09:41:11.000Z</time>
      </trkpt>
      <trkpt lat="44.65716" lon="5.05077">
        <ele>837</ele>
        <time>2026-05-26T09:41:12.000Z</time>
      </trkpt>
      <trkpt lat="44.65716" lon="5.05078">
        <ele>837</ele>
        <time>2026-05-26T09:41:13.000Z</time>
      </trkpt>
      <trkpt lat="44.65715" lon="5.05078">
        <ele>837</ele>
        <time>2026-05-26T09:41:14.000Z</time>
      </trkpt>
      <trkpt lat="44.65717" lon="5.05079">
        <ele>838</ele>
        <time>2026-05-26T09:41:15.000Z</time>
      </trkpt>
      <trkpt lat="44.65718" lon="5.0508">
        <ele>839</ele>
        <time>2026-05-26T09:41:16.000Z</time>
      </trkpt>
      <trkpt lat="44.65718" lon="5.05081">
        <ele>840</ele>
        <time>2026-05-26T09:41:17.000Z</time>
      </trkpt>
      <trkpt lat="44.65718" lon="5.05082">
        <ele>840</ele>
        <time>2026-05-26T09:41:18.000Z</time>
      </trkpt>
      <trkpt lat="44.65718" lon="5.05083">
        <ele>840</ele>
        <time>2026-05-26T09:41:19.000Z</time>
      </trkpt>
      <trkpt lat="44.65719" lon="5.05082">
        <ele>841</ele>
        <time>2026-05-26T09:41:20.000Z</time>
      </trkpt>
      <trkpt lat="44.65719" lon="5.05082">
        <ele>841</ele>
        <time>2026-05-26T09:41:21.000Z</time>
      </trkpt>
      <trkpt lat="44.65719" lon="5.05082">
        <ele>841</ele>
        <time>2026-05-26T09:41:22.000Z</time>
      </trkpt>
      <trkpt lat="44.65718" lon="5.05082">
        <ele>842</ele>
        <time>2026-05-26T09:41:23.000Z</time>
      </trkpt>
      <trkpt lat="44.65719" lon="5.05082">
        <ele>842</ele>
        <time>2026-05-26T09:41:24.000Z</time>
      </trkpt>
      <trkpt lat="44.65719" lon="5.05082">
        <ele>842</ele>
        <time>2026-05-26T09:41:25.000Z</time>
      </trkpt>
      <trkpt lat="44.65718" lon="5.05084">
        <ele>843</ele>
        <time>2026-05-26T09:41:26.000Z</time>
      </trkpt>
      <trkpt lat="44.65718" lon="5.05084">
        <ele>843</ele>
        <time>2026-05-26T09:41:27.000Z</time>
      </trkpt>
      <trkpt lat="44.65718" lon="5.05085">
        <ele>843</ele>
        <time>2026-05-26T09:41:28.000Z</time>
      </trkpt>
      <trkpt lat="44.65719" lon="5.05083">
        <ele>842</ele>
        <time>2026-05-26T09:41:29.000Z</time>
      </trkpt>
      <trkpt lat="44.65721" lon="5.0508">
        <ele>842</ele>
        <time>2026-05-26T09:41:30.000Z</time>
      </trkpt>
      <trkpt lat="44.65722" lon="5.0508">
        <ele>843</ele>
        <time>2026-05-26T09:41:31.000Z</time>
      </trkpt>
      <trkpt lat="44.65721" lon="5.05082">
        <ele>843</ele>
        <time>2026-05-26T09:41:32.000Z</time>
      </trkpt>
      <trkpt lat="44.65722" lon="5.05083">
        <ele>843</ele>
        <time>2026-05-26T09:41:33.000Z</time>
      </trkpt>
      <trkpt lat="44.65723" lon="5.05083">
        <ele>842</ele>
        <time>2026-05-26T09:41:34.000Z</time>
      </trkpt>
      <trkpt lat="44.65725" lon="5.05082">
        <ele>843</ele>
        <time>2026-05-26T09:41:35.000Z</time>
      </trkpt>
      <trkpt lat="44.65726" lon="5.05082">
        <ele>843</ele>
        <time>2026-05-26T09:41:36.000Z</time>
      </trkpt>
      <trkpt lat="44.65727" lon="5.05082">
        <ele>842</ele>
        <time>2026-05-26T09:41:37.000Z</time>
      </trkpt>
      <trkpt lat="44.65728" lon="5.05081">
        <ele>842</ele>
        <time>2026-05-26T09:41:38.000Z</time>
      </trkpt>
      <trkpt lat="44.65729" lon="5.05081">
        <ele>842</ele>
        <time>2026-05-26T09:41:39.000Z</time>
      </trkpt>
      <trkpt lat="44.65729" lon="5.05081">
        <ele>843</ele>
        <time>2026-05-26T09:41:40.000Z</time>
      </trkpt>
      <trkpt lat="44.6573" lon="5.05081">
        <ele>842</ele>
        <time>2026-05-26T09:41:41.000Z</time>
      </trkpt>
      <trkpt lat="44.6573" lon="5.05083">
        <ele>842</ele>
        <time>2026-05-26T09:41:42.000Z</time>
      </trkpt>
      <trkpt lat="44.65729" lon="5.05084">
        <ele>842</ele>
        <time>2026-05-26T09:41:43.000Z</time>
      </trkpt>
      <trkpt lat="44.65729" lon="5.05084">
        <ele>843</ele>
        <time>2026-05-26T09:41:44.000Z</time>
      </trkpt>
      <trkpt lat="44.65729" lon="5.05084">
        <ele>843</ele>
        <time>2026-05-26T09:41:45.000Z</time>
      </trkpt>
      <trkpt lat="44.6573" lon="5.05083">
        <ele>843</ele>
        <time>2026-05-26T09:41:46.000Z</time>
      </trkpt>
      <trkpt lat="44.65731" lon="5.05083">
        <ele>844</ele>
        <time>2026-05-26T09:41:47.000Z</time>
      </trkpt>
      <trkpt lat="44.65732" lon="5.05082">
        <ele>845</ele>
        <time>2026-05-26T09:41:48.000Z</time>
      </trkpt>
      <trkpt lat="44.65732" lon="5.05082">
        <ele>845</ele>
        <time>2026-05-26T09:41:49.000Z</time>
      </trkpt>
      <trkpt lat="44.65733" lon="5.05082">
        <ele>845</ele>
        <time>2026-05-26T09:41:50.000Z</time>
      </trkpt>
      <trkpt lat="44.65733" lon="5.05083">
        <ele>845</ele>
        <time>2026-05-26T09:41:51.000Z</time>
      </trkpt>
      <trkpt lat="44.65733" lon="5.05083">
        <ele>845</ele>
        <time>2026-05-26T09:41:52.000Z</time>
      </trkpt>
      <trkpt lat="44.65733" lon="5.05083">
        <ele>845</ele>
        <time>2026-05-26T09:41:53.000Z</time>
      </trkpt>
      <trkpt lat="44.65733" lon="5.05083">
        <ele>845</ele>
        <time>2026-05-26T09:41:54.000Z</time>
      </trkpt>
      <trkpt lat="44.65733" lon="5.05083">
        <ele>845</ele>
        <time>2026-05-26T09:41:55.000Z</time>
      </trkpt>
      <trkpt lat="44.65733" lon="5.05083">
        <ele>845</ele>
        <time>2026-05-26T09:41:56.000Z</time>
      </trkpt>
      <trkpt lat="44.65733" lon="5.05083">
        <ele>845</ele>
        <time>2026-05-26T09:41:57.000Z</time>
      </trkpt>
      <trkpt lat="44.65733" lon="5.05083">
        <ele>845</ele>
        <time>2026-05-26T09:41:58.000Z</time>
      </trkpt>
      <trkpt lat="44.65733" lon="5.05083">
        <ele>845</ele>
        <time>2026-05-26T09:41:59.000Z</time>
      </trkpt>
      <trkpt lat="44.65733" lon="5.05083">
        <ele>845</ele>
        <time>2026-05-26T09:42:00.000Z</time>
      </trkpt>
      <trkpt lat="44.65733" lon="5.05083">
        <ele>845</ele>
        <time>2026-05-26T09:42:01.000Z</time>
      </trkpt>
      <trkpt lat="44.65733" lon="5.05083">
        <ele>845</ele>
        <time>2026-05-26T09:42:02.000Z</time>
      </trkpt>
      <trkpt lat="44.65733" lon="5.05083">
        <ele>845</ele>
        <time>2026-05-26T09:42:03.000Z</time>
      </trkpt>
      <trkpt lat="44.65733" lon="5.05083">
        <ele>845</ele>
        <time>2026-05-26T09:42:04.000Z</time>
      </trkpt>
      <trkpt lat="44.65733" lon="5.05083">
        <ele>845</ele>
        <time>2026-05-26T09:42:05.000Z</time>
      </trkpt>
      <trkpt lat="44.65733" lon="5.05083">
        <ele>845</ele>
        <time>2026-05-26T09:42:06.000Z</time>
      </trkpt>
      <trkpt lat="44.65733" lon="5.05083">
        <ele>845</ele>
        <time>2026-05-26T09:42:07.000Z</time>
      </trkpt>
      <trkpt lat="44.65733" lon="5.05083">
        <ele>845</ele>
        <time>2026-05-26T09:42:08.000Z</time>
      </trkpt>
      <trkpt lat="44.65733" lon="5.05083">
        <ele>845</ele>
        <time>2026-05-26T09:42:09.000Z</time>
      </trkpt>
      <trkpt lat="44.65733" lon="5.05083">
        <ele>845</ele>
        <time>2026-05-26T09:42:10.000Z</time>
      </trkpt>
      <trkpt lat="44.65733" lon="5.05083">
        <ele>845</ele>
        <time>2026-05-26T09:42:11.000Z</time>
      </trkpt>
      <trkpt lat="44.65733" lon="5.05083">
        <ele>845</ele>
        <time>2026-05-26T09:42:12.000Z</time>
      </trkpt>
      <trkpt lat="44.65733" lon="5.05083">
        <ele>845</ele>
        <time>2026-05-26T09:42:13.000Z</time>
      </trkpt>
      <trkpt lat="44.65733" lon="5.05083">
        <ele>845</ele>
        <time>2026-05-26T09:42:14.000Z</time>
      </trkpt>
      <trkpt lat="44.65733" lon="5.05083">
        <ele>845</ele>
        <time>2026-05-26T09:42:15.000Z</time>
      </trkpt>
      <trkpt lat="44.65733" lon="5.05083">
        <ele>845</ele>
        <time>2026-05-26T09:42:16.000Z</time>
      </trkpt>
      <trkpt lat="44.65733" lon="5.05083">
        <ele>845</ele>
        <time>2026-05-26T09:42:17.000Z</time>
      </trkpt>
      <trkpt lat="44.65733" lon="5.05083">
        <ele>845</ele>
        <time>2026-05-26T09:42:18.000Z</time>
      </trkpt>
      <trkpt lat="44.65733" lon="5.05083">
        <ele>845</ele>
        <time>2026-05-26T09:42:19.000Z</time>
      </trkpt>
      <trkpt lat="44.65733" lon="5.05083">
        <ele>845</ele>
        <time>2026-05-26T09:42:20.000Z</time>
      </trkpt>
      <trkpt lat="44.65733" lon="5.05083">
        <ele>845</ele>
        <time>2026-05-26T09:42:21.000Z</time>
      </trkpt>
      <trkpt lat="44.65733" lon="5.05083">
        <ele>845</ele>
        <time>2026-05-26T09:42:22.000Z</time>
      </trkpt>
      <trkpt lat="44.65733" lon="5.05083">
        <ele>845</ele>
        <time>2026-05-26T09:42:23.000Z</time>
      </trkpt>
      <trkpt lat="44.65734" lon="5.05082">
        <ele>845</ele>
        <time>2026-05-26T09:42:24.000Z</time>
      </trkpt>
      <trkpt lat="44.65734" lon="5.05081">
        <ele>846</ele>
        <time>2026-05-26T09:42:25.000Z</time>
      </trkpt>
      <trkpt lat="44.65734" lon="5.05081">
        <ele>847</ele>
        <time>2026-05-26T09:42:26.000Z</time>
      </trkpt>
      <trkpt lat="44.65734" lon="5.05081">
        <ele>847</ele>
        <time>2026-05-26T09:42:27.000Z</time>
      </trkpt>
      <trkpt lat="44.65734" lon="5.05081">
        <ele>847</ele>
        <time>2026-05-26T09:42:28.000Z</time>
      </trkpt>
      <trkpt lat="44.65733" lon="5.05081">
        <ele>847</ele>
        <time>2026-05-26T09:42:29.000Z</time>
      </trkpt>
      <trkpt lat="44.65733" lon="5.05081">
        <ele>847</ele>
        <time>2026-05-26T09:42:30.000Z</time>
      </trkpt>
      <trkpt lat="44.65733" lon="5.05081">
        <ele>847</ele>
        <time>2026-05-26T09:42:31.000Z</time>
      </trkpt>
      <trkpt lat="44.65734" lon="5.05081">
        <ele>847</ele>
        <time>2026-05-26T09:42:32.000Z</time>
      </trkpt>
      <trkpt lat="44.65734" lon="5.05081">
        <ele>847</ele>
        <time>2026-05-26T09:42:33.000Z</time>
      </trkpt>
      <trkpt lat="44.65734" lon="5.05081">
        <ele>847</ele>
        <time>2026-05-26T09:42:34.000Z</time>
      </trkpt>
      <trkpt lat="44.65734" lon="5.05081">
        <ele>847</ele>
        <time>2026-05-26T09:42:35.000Z</time>
      </trkpt>
      <trkpt lat="44.65734" lon="5.05082">
        <ele>847</ele>
        <time>2026-05-26T09:42:36.000Z</time>
      </trkpt>
      <trkpt lat="44.65733" lon="5.05082">
        <ele>848</ele>
        <time>2026-05-26T09:42:37.000Z</time>
      </trkpt>
      <trkpt lat="44.65734" lon="5.05082">
        <ele>848</ele>
        <time>2026-05-26T09:42:38.000Z</time>
      </trkpt>
      <trkpt lat="44.65735" lon="5.05082">
        <ele>848</ele>
        <time>2026-05-26T09:42:39.000Z</time>
      </trkpt>
      <trkpt lat="44.65736" lon="5.05084">
        <ele>848</ele>
        <time>2026-05-26T09:42:40.000Z</time>
      </trkpt>
      <trkpt lat="44.65736" lon="5.05084">
        <ele>848</ele>
        <time>2026-05-26T09:42:41.000Z</time>
      </trkpt>
      <trkpt lat="44.65737" lon="5.05083">
        <ele>849</ele>
        <time>2026-05-26T09:42:42.000Z</time>
      </trkpt>
      <trkpt lat="44.65738" lon="5.05083">
        <ele>848</ele>
        <time>2026-05-26T09:42:43.000Z</time>
      </trkpt>
      <trkpt lat="44.65738" lon="5.05082">
        <ele>848</ele>
        <time>2026-05-26T09:42:44.000Z</time>
      </trkpt>
      <trkpt lat="44.65738" lon="5.05081">
        <ele>848</ele>
        <time>2026-05-26T09:42:45.000Z</time>
      </trkpt>
      <trkpt lat="44.65738" lon="5.0508">
        <ele>848</ele>
        <time>2026-05-26T09:42:46.000Z</time>
      </trkpt>
      <trkpt lat="44.65738" lon="5.05079">
        <ele>847</ele>
        <time>2026-05-26T09:42:47.000Z</time>
      </trkpt>
      <trkpt lat="44.6574" lon="5.05079">
        <ele>848</ele>
        <time>2026-05-26T09:42:48.000Z</time>
      </trkpt>
      <trkpt lat="44.6574" lon="5.05079">
        <ele>847</ele>
        <time>2026-05-26T09:42:49.000Z</time>
      </trkpt>
      <trkpt lat="44.6574" lon="5.0508">
        <ele>847</ele>
        <time>2026-05-26T09:42:50.000Z</time>
      </trkpt>
      <trkpt lat="44.65741" lon="5.05081">
        <ele>848</ele>
        <time>2026-05-26T09:42:51.000Z</time>
      </trkpt>
      <trkpt lat="44.65741" lon="5.05082">
        <ele>848</ele>
        <time>2026-05-26T09:42:52.000Z</time>
      </trkpt>
      <trkpt lat="44.65742" lon="5.05082">
        <ele>848</ele>
        <time>2026-05-26T09:42:53.000Z</time>
      </trkpt>
      <trkpt lat="44.65743" lon="5.05081">
        <ele>848</ele>
        <time>2026-05-26T09:42:54.000Z</time>
      </trkpt>
      <trkpt lat="44.65745" lon="5.05081">
        <ele>848</ele>
        <time>2026-05-26T09:42:55.000Z</time>
      </trkpt>
      <trkpt lat="44.65746" lon="5.05081">
        <ele>848</ele>
        <time>2026-05-26T09:42:56.000Z</time>
      </trkpt>
      <trkpt lat="44.65746" lon="5.05081">
        <ele>848</ele>
        <time>2026-05-26T09:42:57.000Z</time>
      </trkpt>
      <trkpt lat="44.65747" lon="5.05081">
        <ele>849</ele>
        <time>2026-05-26T09:42:58.000Z</time>
      </trkpt>
      <trkpt lat="44.65747" lon="5.05082">
        <ele>849</ele>
        <time>2026-05-26T09:42:59.000Z</time>
      </trkpt>
      <trkpt lat="44.65747" lon="5.05083">
        <ele>849</ele>
        <time>2026-05-26T09:43:00.000Z</time>
      </trkpt>
      <trkpt lat="44.65747" lon="5.05083">
        <ele>849</ele>
        <time>2026-05-26T09:43:01.000Z</time>
      </trkpt>
      <trkpt lat="44.65747" lon="5.05083">
        <ele>848</ele>
        <time>2026-05-26T09:43:02.000Z</time>
      </trkpt>
      <trkpt lat="44.65748" lon="5.05083">
        <ele>848</ele>
        <time>2026-05-26T09:43:03.000Z</time>
      </trkpt>
      <trkpt lat="44.65749" lon="5.05083">
        <ele>848</ele>
        <time>2026-05-26T09:43:04.000Z</time>
      </trkpt>
      <trkpt lat="44.6575" lon="5.05083">
        <ele>848</ele>
        <time>2026-05-26T09:43:05.000Z</time>
      </trkpt>
      <trkpt lat="44.65751" lon="5.05083">
        <ele>849</ele>
        <time>2026-05-26T09:43:06.000Z</time>
      </trkpt>
      <trkpt lat="44.65752" lon="5.05083">
        <ele>848</ele>
        <time>2026-05-26T09:43:07.000Z</time>
      </trkpt>
      <trkpt lat="44.65753" lon="5.05083">
        <ele>849</ele>
        <time>2026-05-26T09:43:08.000Z</time>
      </trkpt>
      <trkpt lat="44.65755" lon="5.05084">
        <ele>848</ele>
        <time>2026-05-26T09:43:09.000Z</time>
      </trkpt>
      <trkpt lat="44.65756" lon="5.05084">
        <ele>848</ele>
        <time>2026-05-26T09:43:10.000Z</time>
      </trkpt>
      <trkpt lat="44.65756" lon="5.05084">
        <ele>848</ele>
        <time>2026-05-26T09:43:11.000Z</time>
      </trkpt>
      <trkpt lat="44.65756" lon="5.05085">
        <ele>848</ele>
        <time>2026-05-26T09:43:12.000Z</time>
      </trkpt>
      <trkpt lat="44.65757" lon="5.05085">
        <ele>848</ele>
        <time>2026-05-26T09:43:13.000Z</time>
      </trkpt>
      <trkpt lat="44.65757" lon="5.05085">
        <ele>848</ele>
        <time>2026-05-26T09:43:14.000Z</time>
      </trkpt>
      <trkpt lat="44.65757" lon="5.05085">
        <ele>848</ele>
        <time>2026-05-26T09:43:15.000Z</time>
      </trkpt>
      <trkpt lat="44.65757" lon="5.05085">
        <ele>849</ele>
        <time>2026-05-26T09:43:16.000Z</time>
      </trkpt>
      <trkpt lat="44.65758" lon="5.05085">
        <ele>849</ele>
        <time>2026-05-26T09:43:17.000Z</time>
      </trkpt>
      <trkpt lat="44.6576" lon="5.05086">
        <ele>850</ele>
        <time>2026-05-26T09:43:18.000Z</time>
      </trkpt>
      <trkpt lat="44.65761" lon="5.05086">
        <ele>851</ele>
        <time>2026-05-26T09:43:19.000Z</time>
      </trkpt>
      <trkpt lat="44.65761" lon="5.05085">
        <ele>852</ele>
        <time>2026-05-26T09:43:20.000Z</time>
      </trkpt>
      <trkpt lat="44.65762" lon="5.05083">
        <ele>852</ele>
        <time>2026-05-26T09:43:21.000Z</time>
      </trkpt>
      <trkpt lat="44.65763" lon="5.05083">
        <ele>852</ele>
        <time>2026-05-26T09:43:22.000Z</time>
      </trkpt>
      <trkpt lat="44.65764" lon="5.05082">
        <ele>853</ele>
        <time>2026-05-26T09:43:23.000Z</time>
      </trkpt>
      <trkpt lat="44.65765" lon="5.05082">
        <ele>853</ele>
        <time>2026-05-26T09:43:24.000Z</time>
      </trkpt>
      <trkpt lat="44.65765" lon="5.05082">
        <ele>853</ele>
        <time>2026-05-26T09:43:25.000Z</time>
      </trkpt>
      <trkpt lat="44.65766" lon="5.05081">
        <ele>852</ele>
        <time>2026-05-26T09:43:26.000Z</time>
      </trkpt>
      <trkpt lat="44.65766" lon="5.0508">
        <ele>853</ele>
        <time>2026-05-26T09:43:27.000Z</time>
      </trkpt>
      <trkpt lat="44.65766" lon="5.0508">
        <ele>853</ele>
        <time>2026-05-26T09:43:28.000Z</time>
      </trkpt>
      <trkpt lat="44.65766" lon="5.05079">
        <ele>853</ele>
        <time>2026-05-26T09:43:29.000Z</time>
      </trkpt>
      <trkpt lat="44.65766" lon="5.05079">
        <ele>853</ele>
        <time>2026-05-26T09:43:30.000Z</time>
      </trkpt>
      <trkpt lat="44.65767" lon="5.05078">
        <ele>853</ele>
        <time>2026-05-26T09:43:31.000Z</time>
      </trkpt>
      <trkpt lat="44.65768" lon="5.05078">
        <ele>853</ele>
        <time>2026-05-26T09:43:32.000Z</time>
      </trkpt>
      <trkpt lat="44.65768" lon="5.05078">
        <ele>853</ele>
        <time>2026-05-26T09:43:33.000Z</time>
      </trkpt>
      <trkpt lat="44.65769" lon="5.05077">
        <ele>853</ele>
        <time>2026-05-26T09:43:34.000Z</time>
      </trkpt>
      <trkpt lat="44.65771" lon="5.05077">
        <ele>854</ele>
        <time>2026-05-26T09:43:35.000Z</time>
      </trkpt>
      <trkpt lat="44.65772" lon="5.05077">
        <ele>854</ele>
        <time>2026-05-26T09:43:36.000Z</time>
      </trkpt>
      <trkpt lat="44.65773" lon="5.05077">
        <ele>854</ele>
        <time>2026-05-26T09:43:37.000Z</time>
      </trkpt>
      <trkpt lat="44.65773" lon="5.05077">
        <ele>854</ele>
        <time>2026-05-26T09:43:38.000Z</time>
      </trkpt>
      <trkpt lat="44.65774" lon="5.05078">
        <ele>854</ele>
        <time>2026-05-26T09:43:39.000Z</time>
      </trkpt>
      <trkpt lat="44.65775" lon="5.05078">
        <ele>854</ele>
        <time>2026-05-26T09:43:40.000Z</time>
      </trkpt>
      <trkpt lat="44.65776" lon="5.05077">
        <ele>854</ele>
        <time>2026-05-26T09:43:41.000Z</time>
      </trkpt>
      <trkpt lat="44.65776" lon="5.05077">
        <ele>854</ele>
        <time>2026-05-26T09:43:42.000Z</time>
      </trkpt>
      <trkpt lat="44.65777" lon="5.05077">
        <ele>854</ele>
        <time>2026-05-26T09:43:43.000Z</time>
      </trkpt>
      <trkpt lat="44.65777" lon="5.05078">
        <ele>854</ele>
        <time>2026-05-26T09:43:44.000Z</time>
      </trkpt>
      <trkpt lat="44.65778" lon="5.05078">
        <ele>853</ele>
        <time>2026-05-26T09:43:45.000Z</time>
      </trkpt>
      <trkpt lat="44.65779" lon="5.05078">
        <ele>853</ele>
        <time>2026-05-26T09:43:46.000Z</time>
      </trkpt>
      <trkpt lat="44.6578" lon="5.05077">
        <ele>854</ele>
        <time>2026-05-26T09:43:47.000Z</time>
      </trkpt>
      <trkpt lat="44.65781" lon="5.05077">
        <ele>853</ele>
        <time>2026-05-26T09:43:48.000Z</time>
      </trkpt>
      <trkpt lat="44.65781" lon="5.05076">
        <ele>853</ele>
        <time>2026-05-26T09:43:49.000Z</time>
      </trkpt>
      <trkpt lat="44.65782" lon="5.05076">
        <ele>853</ele>
        <time>2026-05-26T09:43:50.000Z</time>
      </trkpt>
      <trkpt lat="44.65783" lon="5.05076">
        <ele>852</ele>
        <time>2026-05-26T09:43:51.000Z</time>
      </trkpt>
      <trkpt lat="44.65784" lon="5.05075">
        <ele>852</ele>
        <time>2026-05-26T09:43:52.000Z</time>
      </trkpt>
      <trkpt lat="44.65784" lon="5.05074">
        <ele>853</ele>
        <time>2026-05-26T09:43:53.000Z</time>
      </trkpt>
      <trkpt lat="44.65785" lon="5.05072">
        <ele>853</ele>
        <time>2026-05-26T09:43:54.000Z</time>
      </trkpt>
      <trkpt lat="44.65785" lon="5.05071">
        <ele>853</ele>
        <time>2026-05-26T09:43:55.000Z</time>
      </trkpt>
      <trkpt lat="44.65786" lon="5.0507">
        <ele>853</ele>
        <time>2026-05-26T09:43:56.000Z</time>
      </trkpt>
      <trkpt lat="44.65786" lon="5.05068">
        <ele>852</ele>
        <time>2026-05-26T09:43:57.000Z</time>
      </trkpt>
      <trkpt lat="44.65786" lon="5.05068">
        <ele>852</ele>
        <time>2026-05-26T09:43:58.000Z</time>
      </trkpt>
      <trkpt lat="44.65787" lon="5.05067">
        <ele>851</ele>
        <time>2026-05-26T09:43:59.000Z</time>
      </trkpt>
      <trkpt lat="44.65787" lon="5.05067">
        <ele>851</ele>
        <time>2026-05-26T09:44:00.000Z</time>
      </trkpt>
      <trkpt lat="44.65786" lon="5.05066">
        <ele>850</ele>
        <time>2026-05-26T09:44:01.000Z</time>
      </trkpt>
      <trkpt lat="44.65786" lon="5.05066">
        <ele>849</ele>
        <time>2026-05-26T09:44:02.000Z</time>
      </trkpt>
      <trkpt lat="44.65786" lon="5.05066">
        <ele>848</ele>
        <time>2026-05-26T09:44:03.000Z</time>
      </trkpt>
      <trkpt lat="44.65787" lon="5.05065">
        <ele>848</ele>
        <time>2026-05-26T09:44:04.000Z</time>
      </trkpt>
      <trkpt lat="44.65787" lon="5.05065">
        <ele>848</ele>
        <time>2026-05-26T09:44:05.000Z</time>
      </trkpt>
      <trkpt lat="44.65788" lon="5.05064">
        <ele>848</ele>
        <time>2026-05-26T09:44:06.000Z</time>
      </trkpt>
      <trkpt lat="44.65789" lon="5.05064">
        <ele>848</ele>
        <time>2026-05-26T09:44:07.000Z</time>
      </trkpt>
      <trkpt lat="44.6579" lon="5.05063">
        <ele>850</ele>
        <time>2026-05-26T09:44:08.000Z</time>
      </trkpt>
      <trkpt lat="44.6579" lon="5.05063">
        <ele>849</ele>
        <time>2026-05-26T09:44:09.000Z</time>
      </trkpt>
      <trkpt lat="44.6579" lon="5.05061">
        <ele>849</ele>
        <time>2026-05-26T09:44:10.000Z</time>
      </trkpt>
      <trkpt lat="44.6579" lon="5.0506">
        <ele>849</ele>
        <time>2026-05-26T09:44:11.000Z</time>
      </trkpt>
      <trkpt lat="44.6579" lon="5.0506">
        <ele>849</ele>
        <time>2026-05-26T09:44:12.000Z</time>
      </trkpt>
      <trkpt lat="44.6579" lon="5.0506">
        <ele>849</ele>
        <time>2026-05-26T09:44:13.000Z</time>
      </trkpt>
      <trkpt lat="44.6579" lon="5.0506">
        <ele>849</ele>
        <time>2026-05-26T09:44:14.000Z</time>
      </trkpt>
      <trkpt lat="44.6579" lon="5.0506">
        <ele>849</ele>
        <time>2026-05-26T09:44:15.000Z</time>
      </trkpt>
      <trkpt lat="44.65791" lon="5.0506">
        <ele>849</ele>
        <time>2026-05-26T09:44:16.000Z</time>
      </trkpt>
      <trkpt lat="44.65791" lon="5.0506">
        <ele>849</ele>
        <time>2026-05-26T09:44:17.000Z</time>
      </trkpt>
      <trkpt lat="44.65791" lon="5.0506">
        <ele>849</ele>
        <time>2026-05-26T09:44:18.000Z</time>
      </trkpt>
      <trkpt lat="44.65793" lon="5.05059">
        <ele>848</ele>
        <time>2026-05-26T09:44:19.000Z</time>
      </trkpt>
      <trkpt lat="44.65794" lon="5.05059">
        <ele>848</ele>
        <time>2026-05-26T09:44:20.000Z</time>
      </trkpt>
      <trkpt lat="44.65794" lon="5.05058">
        <ele>846</ele>
        <time>2026-05-26T09:44:21.000Z</time>
      </trkpt>
      <trkpt lat="44.65796" lon="5.05058">
        <ele>845</ele>
        <time>2026-05-26T09:44:22.000Z</time>
      </trkpt>
      <trkpt lat="44.65797" lon="5.05057">
        <ele>844</ele>
        <time>2026-05-26T09:44:23.000Z</time>
      </trkpt>
      <trkpt lat="44.65798" lon="5.05056">
        <ele>844</ele>
        <time>2026-05-26T09:44:24.000Z</time>
      </trkpt>
      <trkpt lat="44.65799" lon="5.05055">
        <ele>845</ele>
        <time>2026-05-26T09:44:25.000Z</time>
      </trkpt>
      <trkpt lat="44.658" lon="5.05054">
        <ele>845</ele>
        <time>2026-05-26T09:44:26.000Z</time>
      </trkpt>
      <trkpt lat="44.65801" lon="5.05053">
        <ele>845</ele>
        <time>2026-05-26T09:44:27.000Z</time>
      </trkpt>
      <trkpt lat="44.65801" lon="5.05052">
        <ele>845</ele>
        <time>2026-05-26T09:44:28.000Z</time>
      </trkpt>
      <trkpt lat="44.658" lon="5.05049">
        <ele>846</ele>
        <time>2026-05-26T09:44:29.000Z</time>
      </trkpt>
      <trkpt lat="44.658" lon="5.05048">
        <ele>847</ele>
        <time>2026-05-26T09:44:30.000Z</time>
      </trkpt>
      <trkpt lat="44.658" lon="5.05047">
        <ele>847</ele>
        <time>2026-05-26T09:44:31.000Z</time>
      </trkpt>
      <trkpt lat="44.658" lon="5.05045">
        <ele>847</ele>
        <time>2026-05-26T09:44:32.000Z</time>
      </trkpt>
      <trkpt lat="44.658" lon="5.05044">
        <ele>847</ele>
        <time>2026-05-26T09:44:33.000Z</time>
      </trkpt>
      <trkpt lat="44.658" lon="5.05042">
        <ele>846</ele>
        <time>2026-05-26T09:44:34.000Z</time>
      </trkpt>
      <trkpt lat="44.658" lon="5.05041">
        <ele>847</ele>
        <time>2026-05-26T09:44:35.000Z</time>
      </trkpt>
      <trkpt lat="44.65801" lon="5.0504">
        <ele>848</ele>
        <time>2026-05-26T09:44:36.000Z</time>
      </trkpt>
      <trkpt lat="44.65801" lon="5.05039">
        <ele>847</ele>
        <time>2026-05-26T09:44:37.000Z</time>
      </trkpt>
      <trkpt lat="44.65801" lon="5.05038">
        <ele>846</ele>
        <time>2026-05-26T09:44:38.000Z</time>
      </trkpt>
      <trkpt lat="44.65801" lon="5.05037">
        <ele>846</ele>
        <time>2026-05-26T09:44:39.000Z</time>
      </trkpt>
      <trkpt lat="44.65801" lon="5.05036">
        <ele>846</ele>
        <time>2026-05-26T09:44:40.000Z</time>
      </trkpt>
      <trkpt lat="44.65801" lon="5.05035">
        <ele>846</ele>
        <time>2026-05-26T09:44:41.000Z</time>
      </trkpt>
      <trkpt lat="44.65802" lon="5.05034">
        <ele>846</ele>
        <time>2026-05-26T09:44:42.000Z</time>
      </trkpt>
      <trkpt lat="44.65803" lon="5.05034">
        <ele>846</ele>
        <time>2026-05-26T09:44:43.000Z</time>
      </trkpt>
      <trkpt lat="44.65805" lon="5.05033">
        <ele>846</ele>
        <time>2026-05-26T09:44:44.000Z</time>
      </trkpt>
      <trkpt lat="44.65805" lon="5.05033">
        <ele>846</ele>
        <time>2026-05-26T09:44:45.000Z</time>
      </trkpt>
      <trkpt lat="44.65804" lon="5.05033">
        <ele>847</ele>
        <time>2026-05-26T09:44:46.000Z</time>
      </trkpt>
      <trkpt lat="44.65804" lon="5.05032">
        <ele>847</ele>
        <time>2026-05-26T09:44:47.000Z</time>
      </trkpt>
      <trkpt lat="44.65805" lon="5.05029">
        <ele>847</ele>
        <time>2026-05-26T09:44:48.000Z</time>
      </trkpt>
      <trkpt lat="44.65806" lon="5.05027">
        <ele>848</ele>
        <time>2026-05-26T09:44:49.000Z</time>
      </trkpt>
      <trkpt lat="44.65806" lon="5.05027">
        <ele>847</ele>
        <time>2026-05-26T09:44:50.000Z</time>
      </trkpt>
      <trkpt lat="44.65806" lon="5.05026">
        <ele>847</ele>
        <time>2026-05-26T09:44:51.000Z</time>
      </trkpt>
      <trkpt lat="44.65807" lon="5.05025">
        <ele>847</ele>
        <time>2026-05-26T09:44:52.000Z</time>
      </trkpt>
      <trkpt lat="44.65808" lon="5.05024">
        <ele>847</ele>
        <time>2026-05-26T09:44:53.000Z</time>
      </trkpt>
      <trkpt lat="44.65808" lon="5.05023">
        <ele>846</ele>
        <time>2026-05-26T09:44:54.000Z</time>
      </trkpt>
      <trkpt lat="44.65808" lon="5.05023">
        <ele>846</ele>
        <time>2026-05-26T09:44:55.000Z</time>
      </trkpt>
      <trkpt lat="44.65808" lon="5.05023">
        <ele>846</ele>
        <time>2026-05-26T09:44:56.000Z</time>
      </trkpt>
      <trkpt lat="44.65808" lon="5.05022">
        <ele>843</ele>
        <time>2026-05-26T09:44:57.000Z</time>
      </trkpt>
      <trkpt lat="44.65808" lon="5.05022">
        <ele>843</ele>
        <time>2026-05-26T09:44:58.000Z</time>
      </trkpt>
      <trkpt lat="44.65808" lon="5.05023">
        <ele>843</ele>
        <time>2026-05-26T09:44:59.000Z</time>
      </trkpt>
      <trkpt lat="44.65808" lon="5.05023">
        <ele>842</ele>
        <time>2026-05-26T09:45:00.000Z</time>
      </trkpt>
      <trkpt lat="44.65808" lon="5.05024">
        <ele>842</ele>
        <time>2026-05-26T09:45:01.000Z</time>
      </trkpt>
      <trkpt lat="44.65808" lon="5.05024">
        <ele>842</ele>
        <time>2026-05-26T09:45:02.000Z</time>
      </trkpt>
      <trkpt lat="44.65807" lon="5.05022">
        <ele>842</ele>
        <time>2026-05-26T09:45:03.000Z</time>
      </trkpt>
      <trkpt lat="44.65807" lon="5.0502">
        <ele>842</ele>
        <time>2026-05-26T09:45:04.000Z</time>
      </trkpt>
      <trkpt lat="44.65808" lon="5.0502">
        <ele>842</ele>
        <time>2026-05-26T09:45:05.000Z</time>
      </trkpt>
      <trkpt lat="44.65809" lon="5.0502">
        <ele>843</ele>
        <time>2026-05-26T09:45:06.000Z</time>
      </trkpt>
      <trkpt lat="44.65809" lon="5.05019">
        <ele>842</ele>
        <time>2026-05-26T09:45:07.000Z</time>
      </trkpt>
      <trkpt lat="44.65809" lon="5.05019">
        <ele>843</ele>
        <time>2026-05-26T09:45:08.000Z</time>
      </trkpt>
      <trkpt lat="44.65809" lon="5.05019">
        <ele>843</ele>
        <time>2026-05-26T09:45:09.000Z</time>
      </trkpt>
      <trkpt lat="44.65809" lon="5.05019">
        <ele>843</ele>
        <time>2026-05-26T09:45:10.000Z</time>
      </trkpt>
      <trkpt lat="44.65809" lon="5.05019">
        <ele>843</ele>
        <time>2026-05-26T09:45:11.000Z</time>
      </trkpt>
      <trkpt lat="44.65809" lon="5.05019">
        <ele>843</ele>
        <time>2026-05-26T09:45:12.000Z</time>
      </trkpt>
      <trkpt lat="44.65809" lon="5.05019">
        <ele>843</ele>
        <time>2026-05-26T09:45:13.000Z</time>
      </trkpt>
      <trkpt lat="44.65809" lon="5.05019">
        <ele>843</ele>
        <time>2026-05-26T09:45:14.000Z</time>
      </trkpt>
      <trkpt lat="44.65808" lon="5.0502">
        <ele>844</ele>
        <time>2026-05-26T09:45:15.000Z</time>
      </trkpt>
      <trkpt lat="44.65808" lon="5.05021">
        <ele>843</ele>
        <time>2026-05-26T09:45:16.000Z</time>
      </trkpt>
      <trkpt lat="44.65808" lon="5.05021">
        <ele>843</ele>
        <time>2026-05-26T09:45:17.000Z</time>
      </trkpt>
      <trkpt lat="44.65808" lon="5.05021">
        <ele>843</ele>
        <time>2026-05-26T09:45:18.000Z</time>
      </trkpt>
      <trkpt lat="44.65808" lon="5.05021">
        <ele>843</ele>
        <time>2026-05-26T09:45:19.000Z</time>
      </trkpt>
      <trkpt lat="44.65808" lon="5.05021">
        <ele>843</ele>
        <time>2026-05-26T09:45:20.000Z</time>
      </trkpt>
      <trkpt lat="44.65808" lon="5.05021">
        <ele>843</ele>
        <time>2026-05-26T09:45:21.000Z</time>
      </trkpt>
      <trkpt lat="44.65808" lon="5.05021">
        <ele>843</ele>
        <time>2026-05-26T09:45:22.000Z</time>
      </trkpt>
      <trkpt lat="44.65808" lon="5.05021">
        <ele>843</ele>
        <time>2026-05-26T09:45:23.000Z</time>
      </trkpt>
      <trkpt lat="44.65808" lon="5.05021">
        <ele>843</ele>
        <time>2026-05-26T09:45:24.000Z</time>
      </trkpt>
      <trkpt lat="44.65808" lon="5.05021">
        <ele>843</ele>
        <time>2026-05-26T09:45:25.000Z</time>
      </trkpt>
      <trkpt lat="44.65808" lon="5.05021">
        <ele>843</ele>
        <time>2026-05-26T09:45:26.000Z</time>
      </trkpt>
      <trkpt lat="44.65808" lon="5.05021">
        <ele>843</ele>
        <time>2026-05-26T09:45:27.000Z</time>
      </trkpt>
      <trkpt lat="44.65807" lon="5.05018">
        <ele>845</ele>
        <time>2026-05-26T09:45:28.000Z</time>
      </trkpt>
      <trkpt lat="44.65808" lon="5.05017">
        <ele>845</ele>
        <time>2026-05-26T09:45:29.000Z</time>
      </trkpt>
      <trkpt lat="44.65809" lon="5.05015">
        <ele>845</ele>
        <time>2026-05-26T09:45:30.000Z</time>
      </trkpt>
      <trkpt lat="44.65809" lon="5.05014">
        <ele>846</ele>
        <time>2026-05-26T09:45:31.000Z</time>
      </trkpt>
      <trkpt lat="44.65809" lon="5.05013">
        <ele>845</ele>
        <time>2026-05-26T09:45:32.000Z</time>
      </trkpt>
      <trkpt lat="44.6581" lon="5.05012">
        <ele>845</ele>
        <time>2026-05-26T09:45:33.000Z</time>
      </trkpt>
      <trkpt lat="44.6581" lon="5.05011">
        <ele>844</ele>
        <time>2026-05-26T09:45:34.000Z</time>
      </trkpt>
      <trkpt lat="44.6581" lon="5.0501">
        <ele>844</ele>
        <time>2026-05-26T09:45:35.000Z</time>
      </trkpt>
      <trkpt lat="44.6581" lon="5.05008">
        <ele>843</ele>
        <time>2026-05-26T09:45:36.000Z</time>
      </trkpt>
      <trkpt lat="44.65809" lon="5.05005">
        <ele>843</ele>
        <time>2026-05-26T09:45:37.000Z</time>
      </trkpt>
      <trkpt lat="44.65808" lon="5.05004">
        <ele>842</ele>
        <time>2026-05-26T09:45:38.000Z</time>
      </trkpt>
      <trkpt lat="44.65808" lon="5.05003">
        <ele>841</ele>
        <time>2026-05-26T09:45:39.000Z</time>
      </trkpt>
      <trkpt lat="44.65809" lon="5.05002">
        <ele>841</ele>
        <time>2026-05-26T09:45:40.000Z</time>
      </trkpt>
      <trkpt lat="44.6581" lon="5.05001">
        <ele>842</ele>
        <time>2026-05-26T09:45:41.000Z</time>
      </trkpt>
      <trkpt lat="44.65811" lon="5.05">
        <ele>842</ele>
        <time>2026-05-26T09:45:42.000Z</time>
      </trkpt>
      <trkpt lat="44.65812" lon="5.04998">
        <ele>842</ele>
        <time>2026-05-26T09:45:43.000Z</time>
      </trkpt>
      <trkpt lat="44.65812" lon="5.04996">
        <ele>842</ele>
        <time>2026-05-26T09:45:44.000Z</time>
      </trkpt>
      <trkpt lat="44.65813" lon="5.04996">
        <ele>843</ele>
        <time>2026-05-26T09:45:45.000Z</time>
      </trkpt>
      <trkpt lat="44.65814" lon="5.04995">
        <ele>843</ele>
        <time>2026-05-26T09:45:46.000Z</time>
      </trkpt>
      <trkpt lat="44.65813" lon="5.04994">
        <ele>844</ele>
        <time>2026-05-26T09:45:47.000Z</time>
      </trkpt>
      <trkpt lat="44.65813" lon="5.04992">
        <ele>843</ele>
        <time>2026-05-26T09:45:48.000Z</time>
      </trkpt>
      <trkpt lat="44.65813" lon="5.04992">
        <ele>843</ele>
        <time>2026-05-26T09:45:49.000Z</time>
      </trkpt>
      <trkpt lat="44.65813" lon="5.04992">
        <ele>843</ele>
        <time>2026-05-26T09:45:50.000Z</time>
      </trkpt>
      <trkpt lat="44.65813" lon="5.04992">
        <ele>843</ele>
        <time>2026-05-26T09:45:51.000Z</time>
      </trkpt>
      <trkpt lat="44.65813" lon="5.04992">
        <ele>843</ele>
        <time>2026-05-26T09:45:52.000Z</time>
      </trkpt>
      <trkpt lat="44.65813" lon="5.04992">
        <ele>843</ele>
        <time>2026-05-26T09:45:53.000Z</time>
      </trkpt>
      <trkpt lat="44.65813" lon="5.04992">
        <ele>843</ele>
        <time>2026-05-26T09:45:54.000Z</time>
      </trkpt>
      <trkpt lat="44.65813" lon="5.04992">
        <ele>843</ele>
        <time>2026-05-26T09:45:55.000Z</time>
      </trkpt>
      <trkpt lat="44.65813" lon="5.04992">
        <ele>843</ele>
        <time>2026-05-26T09:45:56.000Z</time>
      </trkpt>
      <trkpt lat="44.65812" lon="5.04994">
        <ele>841</ele>
        <time>2026-05-26T09:45:57.000Z</time>
      </trkpt>
      <trkpt lat="44.65812" lon="5.04995">
        <ele>840</ele>
        <time>2026-05-26T09:45:58.000Z</time>
      </trkpt>
      <trkpt lat="44.65812" lon="5.04994">
        <ele>840</ele>
        <time>2026-05-26T09:45:59.000Z</time>
      </trkpt>
      <trkpt lat="44.65812" lon="5.04994">
        <ele>841</ele>
        <time>2026-05-26T09:46:00.000Z</time>
      </trkpt>
      <trkpt lat="44.65812" lon="5.04994">
        <ele>841</ele>
        <time>2026-05-26T09:46:01.000Z</time>
      </trkpt>
      <trkpt lat="44.65813" lon="5.04993">
        <ele>841</ele>
        <time>2026-05-26T09:46:02.000Z</time>
      </trkpt>
      <trkpt lat="44.65813" lon="5.04992">
        <ele>841</ele>
        <time>2026-05-26T09:46:03.000Z</time>
      </trkpt>
      <trkpt lat="44.65813" lon="5.04991">
        <ele>842</ele>
        <time>2026-05-26T09:46:04.000Z</time>
      </trkpt>
      <trkpt lat="44.65813" lon="5.0499">
        <ele>842</ele>
        <time>2026-05-26T09:46:05.000Z</time>
      </trkpt>
      <trkpt lat="44.65813" lon="5.0499">
        <ele>842</ele>
        <time>2026-05-26T09:46:06.000Z</time>
      </trkpt>
      <trkpt lat="44.65813" lon="5.04991">
        <ele>844</ele>
        <time>2026-05-26T09:46:07.000Z</time>
      </trkpt>
      <trkpt lat="44.65814" lon="5.04992">
        <ele>845</ele>
        <time>2026-05-26T09:46:08.000Z</time>
      </trkpt>
      <trkpt lat="44.65814" lon="5.04992">
        <ele>844</ele>
        <time>2026-05-26T09:46:09.000Z</time>
      </trkpt>
      <trkpt lat="44.65814" lon="5.04992">
        <ele>845</ele>
        <time>2026-05-26T09:46:10.000Z</time>
      </trkpt>
      <trkpt lat="44.65815" lon="5.0499">
        <ele>845</ele>
        <time>2026-05-26T09:46:11.000Z</time>
      </trkpt>
      <trkpt lat="44.65816" lon="5.04989">
        <ele>845</ele>
        <time>2026-05-26T09:46:12.000Z</time>
      </trkpt>
      <trkpt lat="44.65817" lon="5.04988">
        <ele>844</ele>
        <time>2026-05-26T09:46:13.000Z</time>
      </trkpt>
      <trkpt lat="44.65817" lon="5.04988">
        <ele>844</ele>
        <time>2026-05-26T09:46:14.000Z</time>
      </trkpt>
      <trkpt lat="44.65817" lon="5.04988">
        <ele>844</ele>
        <time>2026-05-26T09:46:15.000Z</time>
      </trkpt>
      <trkpt lat="44.65818" lon="5.04987">
        <ele>844</ele>
        <time>2026-05-26T09:46:16.000Z</time>
      </trkpt>
      <trkpt lat="44.65818" lon="5.04986">
        <ele>845</ele>
        <time>2026-05-26T09:46:17.000Z</time>
      </trkpt>
      <trkpt lat="44.65819" lon="5.04984">
        <ele>844</ele>
        <time>2026-05-26T09:46:18.000Z</time>
      </trkpt>
      <trkpt lat="44.6582" lon="5.04981">
        <ele>844</ele>
        <time>2026-05-26T09:46:19.000Z</time>
      </trkpt>
      <trkpt lat="44.65821" lon="5.04979">
        <ele>844</ele>
        <time>2026-05-26T09:46:20.000Z</time>
      </trkpt>
      <trkpt lat="44.65822" lon="5.04979">
        <ele>844</ele>
        <time>2026-05-26T09:46:21.000Z</time>
      </trkpt>
      <trkpt lat="44.65822" lon="5.04978">
        <ele>844</ele>
        <time>2026-05-26T09:46:22.000Z</time>
      </trkpt>
      <trkpt lat="44.65822" lon="5.04977">
        <ele>844</ele>
        <time>2026-05-26T09:46:23.000Z</time>
      </trkpt>
      <trkpt lat="44.65822" lon="5.04975">
        <ele>844</ele>
        <time>2026-05-26T09:46:24.000Z</time>
      </trkpt>
      <trkpt lat="44.65823" lon="5.04974">
        <ele>844</ele>
        <time>2026-05-26T09:46:25.000Z</time>
      </trkpt>
      <trkpt lat="44.65823" lon="5.04973">
        <ele>843</ele>
        <time>2026-05-26T09:46:26.000Z</time>
      </trkpt>
      <trkpt lat="44.65823" lon="5.04972">
        <ele>844</ele>
        <time>2026-05-26T09:46:27.000Z</time>
      </trkpt>
      <trkpt lat="44.65823" lon="5.04972">
        <ele>843</ele>
        <time>2026-05-26T09:46:28.000Z</time>
      </trkpt>
      <trkpt lat="44.65823" lon="5.04971">
        <ele>843</ele>
        <time>2026-05-26T09:46:29.000Z</time>
      </trkpt>
      <trkpt lat="44.65824" lon="5.04971">
        <ele>844</ele>
        <time>2026-05-26T09:46:30.000Z</time>
      </trkpt>
      <trkpt lat="44.65825" lon="5.04971">
        <ele>844</ele>
        <time>2026-05-26T09:46:31.000Z</time>
      </trkpt>
      <trkpt lat="44.65825" lon="5.0497">
        <ele>844</ele>
        <time>2026-05-26T09:46:32.000Z</time>
      </trkpt>
      <trkpt lat="44.65825" lon="5.04968">
        <ele>844</ele>
        <time>2026-05-26T09:46:33.000Z</time>
      </trkpt>
      <trkpt lat="44.65826" lon="5.04967">
        <ele>844</ele>
        <time>2026-05-26T09:46:34.000Z</time>
      </trkpt>
      <trkpt lat="44.65825" lon="5.04965">
        <ele>843</ele>
        <time>2026-05-26T09:46:35.000Z</time>
      </trkpt>
      <trkpt lat="44.65826" lon="5.04964">
        <ele>842</ele>
        <time>2026-05-26T09:46:36.000Z</time>
      </trkpt>
      <trkpt lat="44.65826" lon="5.04963">
        <ele>843</ele>
        <time>2026-05-26T09:46:37.000Z</time>
      </trkpt>
      <trkpt lat="44.65827" lon="5.04963">
        <ele>842</ele>
        <time>2026-05-26T09:46:38.000Z</time>
      </trkpt>
      <trkpt lat="44.65827" lon="5.04962">
        <ele>843</ele>
        <time>2026-05-26T09:46:39.000Z</time>
      </trkpt>
      <trkpt lat="44.65828" lon="5.04961">
        <ele>842</ele>
        <time>2026-05-26T09:46:40.000Z</time>
      </trkpt>
      <trkpt lat="44.65828" lon="5.0496">
        <ele>843</ele>
        <time>2026-05-26T09:46:41.000Z</time>
      </trkpt>
      <trkpt lat="44.65828" lon="5.0496">
        <ele>843</ele>
        <time>2026-05-26T09:46:42.000Z</time>
      </trkpt>
      <trkpt lat="44.65827" lon="5.04958">
        <ele>844</ele>
        <time>2026-05-26T09:46:43.000Z</time>
      </trkpt>
      <trkpt lat="44.65827" lon="5.04958">
        <ele>844</ele>
        <time>2026-05-26T09:46:44.000Z</time>
      </trkpt>
      <trkpt lat="44.65828" lon="5.04957">
        <ele>844</ele>
        <time>2026-05-26T09:46:45.000Z</time>
      </trkpt>
      <trkpt lat="44.65828" lon="5.04956">
        <ele>844</ele>
        <time>2026-05-26T09:46:46.000Z</time>
      </trkpt>
      <trkpt lat="44.65828" lon="5.04954">
        <ele>844</ele>
        <time>2026-05-26T09:46:47.000Z</time>
      </trkpt>
      <trkpt lat="44.65829" lon="5.04953">
        <ele>844</ele>
        <time>2026-05-26T09:46:48.000Z</time>
      </trkpt>
      <trkpt lat="44.65829" lon="5.04952">
        <ele>843</ele>
        <time>2026-05-26T09:46:49.000Z</time>
      </trkpt>
      <trkpt lat="44.6583" lon="5.0495">
        <ele>844</ele>
        <time>2026-05-26T09:46:50.000Z</time>
      </trkpt>
      <trkpt lat="44.6583" lon="5.04949">
        <ele>844</ele>
        <time>2026-05-26T09:46:51.000Z</time>
      </trkpt>
      <trkpt lat="44.6583" lon="5.04947">
        <ele>843</ele>
        <time>2026-05-26T09:46:52.000Z</time>
      </trkpt>
      <trkpt lat="44.65831" lon="5.04946">
        <ele>842</ele>
        <time>2026-05-26T09:46:53.000Z</time>
      </trkpt>
      <trkpt lat="44.6583" lon="5.04946">
        <ele>843</ele>
        <time>2026-05-26T09:46:54.000Z</time>
      </trkpt>
      <trkpt lat="44.65831" lon="5.04945">
        <ele>843</ele>
        <time>2026-05-26T09:46:55.000Z</time>
      </trkpt>
      <trkpt lat="44.65831" lon="5.04945">
        <ele>843</ele>
        <time>2026-05-26T09:46:56.000Z</time>
      </trkpt>
      <trkpt lat="44.65832" lon="5.04943">
        <ele>843</ele>
        <time>2026-05-26T09:46:57.000Z</time>
      </trkpt>
      <trkpt lat="44.65832" lon="5.04942">
        <ele>843</ele>
        <time>2026-05-26T09:46:58.000Z</time>
      </trkpt>
      <trkpt lat="44.65832" lon="5.04941">
        <ele>843</ele>
        <time>2026-05-26T09:46:59.000Z</time>
      </trkpt>
      <trkpt lat="44.65832" lon="5.0494">
        <ele>843</ele>
        <time>2026-05-26T09:47:00.000Z</time>
      </trkpt>
      <trkpt lat="44.65832" lon="5.04938">
        <ele>844</ele>
        <time>2026-05-26T09:47:01.000Z</time>
      </trkpt>
      <trkpt lat="44.65832" lon="5.04936">
        <ele>843</ele>
        <time>2026-05-26T09:47:02.000Z</time>
      </trkpt>
      <trkpt lat="44.65833" lon="5.04935">
        <ele>844</ele>
        <time>2026-05-26T09:47:03.000Z</time>
      </trkpt>
      <trkpt lat="44.65833" lon="5.04935">
        <ele>844</ele>
        <time>2026-05-26T09:47:04.000Z</time>
      </trkpt>
      <trkpt lat="44.65832" lon="5.04935">
        <ele>842</ele>
        <time>2026-05-26T09:47:05.000Z</time>
      </trkpt>
      <trkpt lat="44.65832" lon="5.04935">
        <ele>842</ele>
        <time>2026-05-26T09:47:06.000Z</time>
      </trkpt>
      <trkpt lat="44.65832" lon="5.04935">
        <ele>843</ele>
        <time>2026-05-26T09:47:07.000Z</time>
      </trkpt>
      <trkpt lat="44.65832" lon="5.04935">
        <ele>844</ele>
        <time>2026-05-26T09:47:08.000Z</time>
      </trkpt>
      <trkpt lat="44.65833" lon="5.04934">
        <ele>845</ele>
        <time>2026-05-26T09:47:09.000Z</time>
      </trkpt>
      <trkpt lat="44.65833" lon="5.04934">
        <ele>845</ele>
        <time>2026-05-26T09:47:10.000Z</time>
      </trkpt>
      <trkpt lat="44.65832" lon="5.04933">
        <ele>845</ele>
        <time>2026-05-26T09:47:11.000Z</time>
      </trkpt>
      <trkpt lat="44.65832" lon="5.04932">
        <ele>845</ele>
        <time>2026-05-26T09:47:12.000Z</time>
      </trkpt>
      <trkpt lat="44.65832" lon="5.0493">
        <ele>845</ele>
        <time>2026-05-26T09:47:13.000Z</time>
      </trkpt>
      <trkpt lat="44.65832" lon="5.04928">
        <ele>846</ele>
        <time>2026-05-26T09:47:14.000Z</time>
      </trkpt>
      <trkpt lat="44.65832" lon="5.04926">
        <ele>846</ele>
        <time>2026-05-26T09:47:15.000Z</time>
      </trkpt>
      <trkpt lat="44.65832" lon="5.04926">
        <ele>847</ele>
        <time>2026-05-26T09:47:16.000Z</time>
      </trkpt>
      <trkpt lat="44.65832" lon="5.04925">
        <ele>847</ele>
        <time>2026-05-26T09:47:17.000Z</time>
      </trkpt>
      <trkpt lat="44.65832" lon="5.04924">
        <ele>846</ele>
        <time>2026-05-26T09:47:18.000Z</time>
      </trkpt>
      <trkpt lat="44.65833" lon="5.04922">
        <ele>847</ele>
        <time>2026-05-26T09:47:19.000Z</time>
      </trkpt>
      <trkpt lat="44.65834" lon="5.04921">
        <ele>846</ele>
        <time>2026-05-26T09:47:20.000Z</time>
      </trkpt>
      <trkpt lat="44.65834" lon="5.0492">
        <ele>847</ele>
        <time>2026-05-26T09:47:21.000Z</time>
      </trkpt>
      <trkpt lat="44.65835" lon="5.04918">
        <ele>847</ele>
        <time>2026-05-26T09:47:22.000Z</time>
      </trkpt>
      <trkpt lat="44.65835" lon="5.04916">
        <ele>846</ele>
        <time>2026-05-26T09:47:23.000Z</time>
      </trkpt>
      <trkpt lat="44.65835" lon="5.04915">
        <ele>846</ele>
        <time>2026-05-26T09:47:24.000Z</time>
      </trkpt>
      <trkpt lat="44.65835" lon="5.04914">
        <ele>847</ele>
        <time>2026-05-26T09:47:25.000Z</time>
      </trkpt>
      <trkpt lat="44.65835" lon="5.04914">
        <ele>846</ele>
        <time>2026-05-26T09:47:26.000Z</time>
      </trkpt>
      <trkpt lat="44.65835" lon="5.04914">
        <ele>847</ele>
        <time>2026-05-26T09:47:27.000Z</time>
      </trkpt>
      <trkpt lat="44.65835" lon="5.04914">
        <ele>847</ele>
        <time>2026-05-26T09:47:28.000Z</time>
      </trkpt>
      <trkpt lat="44.65835" lon="5.04915">
        <ele>847</ele>
        <time>2026-05-26T09:47:29.000Z</time>
      </trkpt>
      <trkpt lat="44.65835" lon="5.04915">
        <ele>847</ele>
        <time>2026-05-26T09:47:30.000Z</time>
      </trkpt>
      <trkpt lat="44.65836" lon="5.04913">
        <ele>847</ele>
        <time>2026-05-26T09:47:31.000Z</time>
      </trkpt>
      <trkpt lat="44.65836" lon="5.04913">
        <ele>849</ele>
        <time>2026-05-26T09:47:32.000Z</time>
      </trkpt>
      <trkpt lat="44.65836" lon="5.04911">
        <ele>850</ele>
        <time>2026-05-26T09:47:33.000Z</time>
      </trkpt>
      <trkpt lat="44.65834" lon="5.0491">
        <ele>850</ele>
        <time>2026-05-26T09:47:34.000Z</time>
      </trkpt>
      <trkpt lat="44.65833" lon="5.04909">
        <ele>850</ele>
        <time>2026-05-26T09:47:35.000Z</time>
      </trkpt>
      <trkpt lat="44.65834" lon="5.04908">
        <ele>850</ele>
        <time>2026-05-26T09:47:36.000Z</time>
      </trkpt>
      <trkpt lat="44.65834" lon="5.04906">
        <ele>849</ele>
        <time>2026-05-26T09:47:37.000Z</time>
      </trkpt>
      <trkpt lat="44.65834" lon="5.04904">
        <ele>850</ele>
        <time>2026-05-26T09:47:38.000Z</time>
      </trkpt>
      <trkpt lat="44.65834" lon="5.04903">
        <ele>849</ele>
        <time>2026-05-26T09:47:39.000Z</time>
      </trkpt>
      <trkpt lat="44.65833" lon="5.04902">
        <ele>849</ele>
        <time>2026-05-26T09:47:40.000Z</time>
      </trkpt>
      <trkpt lat="44.65833" lon="5.04901">
        <ele>850</ele>
        <time>2026-05-26T09:47:41.000Z</time>
      </trkpt>
      <trkpt lat="44.65831" lon="5.04901">
        <ele>850</ele>
        <time>2026-05-26T09:47:42.000Z</time>
      </trkpt>
      <trkpt lat="44.6583" lon="5.049">
        <ele>850</ele>
        <time>2026-05-26T09:47:43.000Z</time>
      </trkpt>
      <trkpt lat="44.6583" lon="5.049">
        <ele>850</ele>
        <time>2026-05-26T09:47:44.000Z</time>
      </trkpt>
      <trkpt lat="44.6583" lon="5.04899">
        <ele>850</ele>
        <time>2026-05-26T09:47:45.000Z</time>
      </trkpt>
      <trkpt lat="44.6583" lon="5.04898">
        <ele>850</ele>
        <time>2026-05-26T09:47:46.000Z</time>
      </trkpt>
      <trkpt lat="44.6583" lon="5.04897">
        <ele>850</ele>
        <time>2026-05-26T09:47:47.000Z</time>
      </trkpt>
      <trkpt lat="44.65831" lon="5.04895">
        <ele>852</ele>
        <time>2026-05-26T09:47:48.000Z</time>
      </trkpt>
      <trkpt lat="44.65832" lon="5.04894">
        <ele>853</ele>
        <time>2026-05-26T09:47:49.000Z</time>
      </trkpt>
      <trkpt lat="44.65832" lon="5.04893">
        <ele>854</ele>
        <time>2026-05-26T09:47:50.000Z</time>
      </trkpt>
      <trkpt lat="44.65832" lon="5.04892">
        <ele>855</ele>
        <time>2026-05-26T09:47:51.000Z</time>
      </trkpt>
      <trkpt lat="44.65832" lon="5.04891">
        <ele>855</ele>
        <time>2026-05-26T09:47:52.000Z</time>
      </trkpt>
      <trkpt lat="44.65833" lon="5.0489">
        <ele>855</ele>
        <time>2026-05-26T09:47:53.000Z</time>
      </trkpt>
      <trkpt lat="44.65833" lon="5.0489">
        <ele>855</ele>
        <time>2026-05-26T09:47:54.000Z</time>
      </trkpt>
      <trkpt lat="44.65834" lon="5.0489">
        <ele>855</ele>
        <time>2026-05-26T09:47:55.000Z</time>
      </trkpt>
      <trkpt lat="44.65834" lon="5.04889">
        <ele>855</ele>
        <time>2026-05-26T09:47:56.000Z</time>
      </trkpt>
      <trkpt lat="44.65833" lon="5.04888">
        <ele>857</ele>
        <time>2026-05-26T09:47:57.000Z</time>
      </trkpt>
      <trkpt lat="44.65833" lon="5.04887">
        <ele>857</ele>
        <time>2026-05-26T09:47:58.000Z</time>
      </trkpt>
      <trkpt lat="44.65832" lon="5.04885">
        <ele>856</ele>
        <time>2026-05-26T09:47:59.000Z</time>
      </trkpt>
      <trkpt lat="44.65832" lon="5.04883">
        <ele>856</ele>
        <time>2026-05-26T09:48:00.000Z</time>
      </trkpt>
      <trkpt lat="44.65833" lon="5.04884">
        <ele>856</ele>
        <time>2026-05-26T09:48:01.000Z</time>
      </trkpt>
      <trkpt lat="44.65832" lon="5.04882">
        <ele>856</ele>
        <time>2026-05-26T09:48:02.000Z</time>
      </trkpt>
      <trkpt lat="44.65832" lon="5.04882">
        <ele>856</ele>
        <time>2026-05-26T09:48:03.000Z</time>
      </trkpt>
      <trkpt lat="44.65832" lon="5.04881">
        <ele>856</ele>
        <time>2026-05-26T09:48:04.000Z</time>
      </trkpt>
      <trkpt lat="44.65832" lon="5.04878">
        <ele>856</ele>
        <time>2026-05-26T09:48:05.000Z</time>
      </trkpt>
      <trkpt lat="44.65832" lon="5.04876">
        <ele>856</ele>
        <time>2026-05-26T09:48:06.000Z</time>
      </trkpt>
      <trkpt lat="44.65832" lon="5.04873">
        <ele>856</ele>
        <time>2026-05-26T09:48:07.000Z</time>
      </trkpt>
      <trkpt lat="44.65832" lon="5.04872">
        <ele>856</ele>
        <time>2026-05-26T09:48:08.000Z</time>
      </trkpt>
      <trkpt lat="44.65831" lon="5.04871">
        <ele>856</ele>
        <time>2026-05-26T09:48:09.000Z</time>
      </trkpt>
      <trkpt lat="44.65831" lon="5.04871">
        <ele>856</ele>
        <time>2026-05-26T09:48:10.000Z</time>
      </trkpt>
      <trkpt lat="44.65831" lon="5.0487">
        <ele>858</ele>
        <time>2026-05-26T09:48:11.000Z</time>
      </trkpt>
      <trkpt lat="44.65831" lon="5.0487">
        <ele>858</ele>
        <time>2026-05-26T09:48:12.000Z</time>
      </trkpt>
      <trkpt lat="44.65832" lon="5.04869">
        <ele>859</ele>
        <time>2026-05-26T09:48:13.000Z</time>
      </trkpt>
      <trkpt lat="44.65833" lon="5.04868">
        <ele>859</ele>
        <time>2026-05-26T09:48:14.000Z</time>
      </trkpt>
      <trkpt lat="44.65833" lon="5.04867">
        <ele>860</ele>
        <time>2026-05-26T09:48:15.000Z</time>
      </trkpt>
      <trkpt lat="44.65833" lon="5.04866">
        <ele>860</ele>
        <time>2026-05-26T09:48:16.000Z</time>
      </trkpt>
      <trkpt lat="44.65833" lon="5.04865">
        <ele>860</ele>
        <time>2026-05-26T09:48:17.000Z</time>
      </trkpt>
      <trkpt lat="44.65833" lon="5.04863">
        <ele>860</ele>
        <time>2026-05-26T09:48:18.000Z</time>
      </trkpt>
      <trkpt lat="44.65833" lon="5.04861">
        <ele>860</ele>
        <time>2026-05-26T09:48:19.000Z</time>
      </trkpt>
      <trkpt lat="44.65832" lon="5.04859">
        <ele>859</ele>
        <time>2026-05-26T09:48:20.000Z</time>
      </trkpt>
      <trkpt lat="44.65832" lon="5.04859">
        <ele>859</ele>
        <time>2026-05-26T09:48:21.000Z</time>
      </trkpt>
      <trkpt lat="44.65832" lon="5.04859">
        <ele>859</ele>
        <time>2026-05-26T09:48:22.000Z</time>
      </trkpt>
      <trkpt lat="44.65832" lon="5.04859">
        <ele>859</ele>
        <time>2026-05-26T09:48:23.000Z</time>
      </trkpt>
      <trkpt lat="44.65831" lon="5.04857">
        <ele>859</ele>
        <time>2026-05-26T09:48:24.000Z</time>
      </trkpt>
      <trkpt lat="44.65831" lon="5.04857">
        <ele>859</ele>
        <time>2026-05-26T09:48:25.000Z</time>
      </trkpt>
      <trkpt lat="44.65831" lon="5.04856">
        <ele>859</ele>
        <time>2026-05-26T09:48:26.000Z</time>
      </trkpt>
      <trkpt lat="44.65831" lon="5.04856">
        <ele>860</ele>
        <time>2026-05-26T09:48:27.000Z</time>
      </trkpt>
      <trkpt lat="44.6583" lon="5.04856">
        <ele>861</ele>
        <time>2026-05-26T09:48:28.000Z</time>
      </trkpt>
      <trkpt lat="44.6583" lon="5.04854">
        <ele>861</ele>
        <time>2026-05-26T09:48:29.000Z</time>
      </trkpt>
      <trkpt lat="44.6583" lon="5.04854">
        <ele>861</ele>
        <time>2026-05-26T09:48:30.000Z</time>
      </trkpt>
      <trkpt lat="44.65831" lon="5.04852">
        <ele>860</ele>
        <time>2026-05-26T09:48:31.000Z</time>
      </trkpt>
      <trkpt lat="44.65831" lon="5.04853">
        <ele>861</ele>
        <time>2026-05-26T09:48:32.000Z</time>
      </trkpt>
      <trkpt lat="44.65832" lon="5.04853">
        <ele>860</ele>
        <time>2026-05-26T09:48:33.000Z</time>
      </trkpt>
      <trkpt lat="44.65832" lon="5.04853">
        <ele>861</ele>
        <time>2026-05-26T09:48:34.000Z</time>
      </trkpt>
      <trkpt lat="44.65832" lon="5.04852">
        <ele>860</ele>
        <time>2026-05-26T09:48:35.000Z</time>
      </trkpt>
      <trkpt lat="44.65832" lon="5.0485">
        <ele>860</ele>
        <time>2026-05-26T09:48:36.000Z</time>
      </trkpt>
      <trkpt lat="44.65832" lon="5.04849">
        <ele>861</ele>
        <time>2026-05-26T09:48:37.000Z</time>
      </trkpt>
      <trkpt lat="44.65832" lon="5.04848">
        <ele>862</ele>
        <time>2026-05-26T09:48:38.000Z</time>
      </trkpt>
      <trkpt lat="44.65832" lon="5.04846">
        <ele>862</ele>
        <time>2026-05-26T09:48:39.000Z</time>
      </trkpt>
      <trkpt lat="44.65833" lon="5.04844">
        <ele>862</ele>
        <time>2026-05-26T09:48:40.000Z</time>
      </trkpt>
      <trkpt lat="44.65832" lon="5.04843">
        <ele>863</ele>
        <time>2026-05-26T09:48:41.000Z</time>
      </trkpt>
      <trkpt lat="44.65832" lon="5.04843">
        <ele>864</ele>
        <time>2026-05-26T09:48:42.000Z</time>
      </trkpt>
      <trkpt lat="44.65832" lon="5.04842">
        <ele>864</ele>
        <time>2026-05-26T09:48:43.000Z</time>
      </trkpt>
      <trkpt lat="44.65833" lon="5.04842">
        <ele>863</ele>
        <time>2026-05-26T09:48:44.000Z</time>
      </trkpt>
      <trkpt lat="44.65832" lon="5.04842">
        <ele>864</ele>
        <time>2026-05-26T09:48:45.000Z</time>
      </trkpt>
      <trkpt lat="44.65832" lon="5.04841">
        <ele>864</ele>
        <time>2026-05-26T09:48:46.000Z</time>
      </trkpt>
      <trkpt lat="44.65831" lon="5.04841">
        <ele>864</ele>
        <time>2026-05-26T09:48:47.000Z</time>
      </trkpt>
      <trkpt lat="44.65832" lon="5.04841">
        <ele>864</ele>
        <time>2026-05-26T09:48:48.000Z</time>
      </trkpt>
      <trkpt lat="44.65833" lon="5.0484">
        <ele>864</ele>
        <time>2026-05-26T09:48:49.000Z</time>
      </trkpt>
      <trkpt lat="44.65833" lon="5.04839">
        <ele>864</ele>
        <time>2026-05-26T09:48:50.000Z</time>
      </trkpt>
      <trkpt lat="44.65832" lon="5.04838">
        <ele>865</ele>
        <time>2026-05-26T09:48:51.000Z</time>
      </trkpt>
      <trkpt lat="44.65831" lon="5.04838">
        <ele>866</ele>
        <time>2026-05-26T09:48:52.000Z</time>
      </trkpt>
      <trkpt lat="44.65831" lon="5.04837">
        <ele>866</ele>
        <time>2026-05-26T09:48:53.000Z</time>
      </trkpt>
      <trkpt lat="44.65831" lon="5.04837">
        <ele>868</ele>
        <time>2026-05-26T09:48:54.000Z</time>
      </trkpt>
      <trkpt lat="44.65831" lon="5.04837">
        <ele>868</ele>
        <time>2026-05-26T09:48:55.000Z</time>
      </trkpt>
      <trkpt lat="44.65831" lon="5.04835">
        <ele>867</ele>
        <time>2026-05-26T09:48:56.000Z</time>
      </trkpt>
      <trkpt lat="44.65832" lon="5.04834">
        <ele>869</ele>
        <time>2026-05-26T09:48:57.000Z</time>
      </trkpt>
      <trkpt lat="44.65833" lon="5.04832">
        <ele>868</ele>
        <time>2026-05-26T09:48:58.000Z</time>
      </trkpt>
      <trkpt lat="44.65832" lon="5.0483">
        <ele>870</ele>
        <time>2026-05-26T09:48:59.000Z</time>
      </trkpt>
      <trkpt lat="44.65833" lon="5.04828">
        <ele>869</ele>
        <time>2026-05-26T09:49:00.000Z</time>
      </trkpt>
      <trkpt lat="44.65832" lon="5.04827">
        <ele>870</ele>
        <time>2026-05-26T09:49:01.000Z</time>
      </trkpt>
      <trkpt lat="44.65831" lon="5.04826">
        <ele>870</ele>
        <time>2026-05-26T09:49:02.000Z</time>
      </trkpt>
      <trkpt lat="44.65832" lon="5.04826">
        <ele>869</ele>
        <time>2026-05-26T09:49:03.000Z</time>
      </trkpt>
      <trkpt lat="44.65832" lon="5.04827">
        <ele>868</ele>
        <time>2026-05-26T09:49:04.000Z</time>
      </trkpt>
      <trkpt lat="44.65831" lon="5.04826">
        <ele>869</ele>
        <time>2026-05-26T09:49:05.000Z</time>
      </trkpt>
      <trkpt lat="44.65831" lon="5.04828">
        <ele>871</ele>
        <time>2026-05-26T09:49:06.000Z</time>
      </trkpt>
      <trkpt lat="44.65831" lon="5.04829">
        <ele>870</ele>
        <time>2026-05-26T09:49:07.000Z</time>
      </trkpt>
      <trkpt lat="44.65831" lon="5.04829">
        <ele>871</ele>
        <time>2026-05-26T09:49:08.000Z</time>
      </trkpt>
      <trkpt lat="44.65832" lon="5.04828">
        <ele>871</ele>
        <time>2026-05-26T09:49:09.000Z</time>
      </trkpt>
      <trkpt lat="44.65832" lon="5.04826">
        <ele>870</ele>
        <time>2026-05-26T09:49:10.000Z</time>
      </trkpt>
      <trkpt lat="44.65832" lon="5.04824">
        <ele>869</ele>
        <time>2026-05-26T09:49:11.000Z</time>
      </trkpt>
      <trkpt lat="44.65832" lon="5.04824">
        <ele>870</ele>
        <time>2026-05-26T09:49:12.000Z</time>
      </trkpt>
      <trkpt lat="44.65833" lon="5.04822">
        <ele>870</ele>
        <time>2026-05-26T09:49:13.000Z</time>
      </trkpt>
      <trkpt lat="44.65833" lon="5.04822">
        <ele>871</ele>
        <time>2026-05-26T09:49:14.000Z</time>
      </trkpt>
      <trkpt lat="44.65834" lon="5.04821">
        <ele>870</ele>
        <time>2026-05-26T09:49:15.000Z</time>
      </trkpt>
      <trkpt lat="44.65834" lon="5.0482">
        <ele>871</ele>
        <time>2026-05-26T09:49:16.000Z</time>
      </trkpt>
      <trkpt lat="44.65834" lon="5.04819">
        <ele>871</ele>
        <time>2026-05-26T09:49:17.000Z</time>
      </trkpt>
      <trkpt lat="44.65834" lon="5.0482">
        <ele>870</ele>
        <time>2026-05-26T09:49:18.000Z</time>
      </trkpt>
      <trkpt lat="44.65834" lon="5.04818">
        <ele>870</ele>
        <time>2026-05-26T09:49:19.000Z</time>
      </trkpt>
      <trkpt lat="44.65835" lon="5.04818">
        <ele>870</ele>
        <time>2026-05-26T09:49:20.000Z</time>
      </trkpt>
      <trkpt lat="44.65836" lon="5.04816">
        <ele>871</ele>
        <time>2026-05-26T09:49:21.000Z</time>
      </trkpt>
      <trkpt lat="44.65837" lon="5.04816">
        <ele>870</ele>
        <time>2026-05-26T09:49:22.000Z</time>
      </trkpt>
      <trkpt lat="44.65837" lon="5.04815">
        <ele>871</ele>
        <time>2026-05-26T09:49:23.000Z</time>
      </trkpt>
      <trkpt lat="44.65837" lon="5.04815">
        <ele>871</ele>
        <time>2026-05-26T09:49:24.000Z</time>
      </trkpt>
      <trkpt lat="44.65837" lon="5.04814">
        <ele>871</ele>
        <time>2026-05-26T09:49:25.000Z</time>
      </trkpt>
      <trkpt lat="44.65837" lon="5.04813">
        <ele>871</ele>
        <time>2026-05-26T09:49:26.000Z</time>
      </trkpt>
      <trkpt lat="44.65837" lon="5.04811">
        <ele>871</ele>
        <time>2026-05-26T09:49:27.000Z</time>
      </trkpt>
      <trkpt lat="44.65838" lon="5.0481">
        <ele>871</ele>
        <time>2026-05-26T09:49:28.000Z</time>
      </trkpt>
      <trkpt lat="44.65839" lon="5.0481">
        <ele>871</ele>
        <time>2026-05-26T09:49:29.000Z</time>
      </trkpt>
      <trkpt lat="44.6584" lon="5.04808">
        <ele>870</ele>
        <time>2026-05-26T09:49:30.000Z</time>
      </trkpt>
      <trkpt lat="44.65841" lon="5.04808">
        <ele>870</ele>
        <time>2026-05-26T09:49:31.000Z</time>
      </trkpt>
      <trkpt lat="44.65842" lon="5.04808">
        <ele>871</ele>
        <time>2026-05-26T09:49:32.000Z</time>
      </trkpt>
      <trkpt lat="44.65842" lon="5.04807">
        <ele>871</ele>
        <time>2026-05-26T09:49:33.000Z</time>
      </trkpt>
      <trkpt lat="44.65841" lon="5.04807">
        <ele>871</ele>
        <time>2026-05-26T09:49:34.000Z</time>
      </trkpt>
      <trkpt lat="44.65841" lon="5.04806">
        <ele>871</ele>
        <time>2026-05-26T09:49:35.000Z</time>
      </trkpt>
      <trkpt lat="44.65841" lon="5.04805">
        <ele>872</ele>
        <time>2026-05-26T09:49:36.000Z</time>
      </trkpt>
      <trkpt lat="44.65841" lon="5.04805">
        <ele>872</ele>
        <time>2026-05-26T09:49:37.000Z</time>
      </trkpt>
      <trkpt lat="44.6584" lon="5.04804">
        <ele>872</ele>
        <time>2026-05-26T09:49:38.000Z</time>
      </trkpt>
      <trkpt lat="44.65839" lon="5.04804">
        <ele>873</ele>
        <time>2026-05-26T09:49:39.000Z</time>
      </trkpt>
      <trkpt lat="44.6584" lon="5.04803">
        <ele>873</ele>
        <time>2026-05-26T09:49:40.000Z</time>
      </trkpt>
      <trkpt lat="44.65839" lon="5.04802">
        <ele>875</ele>
        <time>2026-05-26T09:49:41.000Z</time>
      </trkpt>
      <trkpt lat="44.65839" lon="5.04801">
        <ele>875</ele>
        <time>2026-05-26T09:49:42.000Z</time>
      </trkpt>
      <trkpt lat="44.6584" lon="5.048">
        <ele>875</ele>
        <time>2026-05-26T09:49:43.000Z</time>
      </trkpt>
      <trkpt lat="44.65839" lon="5.04798">
        <ele>875</ele>
        <time>2026-05-26T09:49:44.000Z</time>
      </trkpt>
      <trkpt lat="44.65839" lon="5.04798">
        <ele>875</ele>
        <time>2026-05-26T09:49:45.000Z</time>
      </trkpt>
      <trkpt lat="44.65839" lon="5.04797">
        <ele>875</ele>
        <time>2026-05-26T09:49:46.000Z</time>
      </trkpt>
      <trkpt lat="44.65839" lon="5.04796">
        <ele>875</ele>
        <time>2026-05-26T09:49:47.000Z</time>
      </trkpt>
      <trkpt lat="44.65839" lon="5.04796">
        <ele>874</ele>
        <time>2026-05-26T09:49:48.000Z</time>
      </trkpt>
      <trkpt lat="44.65839" lon="5.04795">
        <ele>873</ele>
        <time>2026-05-26T09:49:49.000Z</time>
      </trkpt>
      <trkpt lat="44.65838" lon="5.04795">
        <ele>874</ele>
        <time>2026-05-26T09:49:50.000Z</time>
      </trkpt>
      <trkpt lat="44.65838" lon="5.04794">
        <ele>874</ele>
        <time>2026-05-26T09:49:51.000Z</time>
      </trkpt>
      <trkpt lat="44.65837" lon="5.04794">
        <ele>873</ele>
        <time>2026-05-26T09:49:52.000Z</time>
      </trkpt>
      <trkpt lat="44.65838" lon="5.04793">
        <ele>874</ele>
        <time>2026-05-26T09:49:53.000Z</time>
      </trkpt>
      <trkpt lat="44.65838" lon="5.04792">
        <ele>874</ele>
        <time>2026-05-26T09:49:54.000Z</time>
      </trkpt>
      <trkpt lat="44.65839" lon="5.04791">
        <ele>875</ele>
        <time>2026-05-26T09:49:55.000Z</time>
      </trkpt>
      <trkpt lat="44.65839" lon="5.04791">
        <ele>875</ele>
        <time>2026-05-26T09:49:56.000Z</time>
      </trkpt>
      <trkpt lat="44.65839" lon="5.04791">
        <ele>874</ele>
        <time>2026-05-26T09:49:57.000Z</time>
      </trkpt>
      <trkpt lat="44.65839" lon="5.04789">
        <ele>875</ele>
        <time>2026-05-26T09:49:58.000Z</time>
      </trkpt>
      <trkpt lat="44.6584" lon="5.04789">
        <ele>876</ele>
        <time>2026-05-26T09:49:59.000Z</time>
      </trkpt>
      <trkpt lat="44.6584" lon="5.04787">
        <ele>877</ele>
        <time>2026-05-26T09:50:00.000Z</time>
      </trkpt>
      <trkpt lat="44.6584" lon="5.04786">
        <ele>876</ele>
        <time>2026-05-26T09:50:01.000Z</time>
      </trkpt>
      <trkpt lat="44.6584" lon="5.04785">
        <ele>876</ele>
        <time>2026-05-26T09:50:02.000Z</time>
      </trkpt>
      <trkpt lat="44.65839" lon="5.04784">
        <ele>876</ele>
        <time>2026-05-26T09:50:03.000Z</time>
      </trkpt>
      <trkpt lat="44.65839" lon="5.04784">
        <ele>876</ele>
        <time>2026-05-26T09:50:04.000Z</time>
      </trkpt>
      <trkpt lat="44.65839" lon="5.04785">
        <ele>876</ele>
        <time>2026-05-26T09:50:05.000Z</time>
      </trkpt>
      <trkpt lat="44.65838" lon="5.04785">
        <ele>876</ele>
        <time>2026-05-26T09:50:06.000Z</time>
      </trkpt>
      <trkpt lat="44.65839" lon="5.04784">
        <ele>877</ele>
        <time>2026-05-26T09:50:07.000Z</time>
      </trkpt>
      <trkpt lat="44.65839" lon="5.04783">
        <ele>877</ele>
        <time>2026-05-26T09:50:08.000Z</time>
      </trkpt>
      <trkpt lat="44.65839" lon="5.04782">
        <ele>877</ele>
        <time>2026-05-26T09:50:09.000Z</time>
      </trkpt>
      <trkpt lat="44.65839" lon="5.04782">
        <ele>879</ele>
        <time>2026-05-26T09:50:10.000Z</time>
      </trkpt>
      <trkpt lat="44.65839" lon="5.04782">
        <ele>880</ele>
        <time>2026-05-26T09:50:11.000Z</time>
      </trkpt>
      <trkpt lat="44.65837" lon="5.04783">
        <ele>881</ele>
        <time>2026-05-26T09:50:12.000Z</time>
      </trkpt>
      <trkpt lat="44.65837" lon="5.04783">
        <ele>882</ele>
        <time>2026-05-26T09:50:13.000Z</time>
      </trkpt>
      <trkpt lat="44.65837" lon="5.04783">
        <ele>882</ele>
        <time>2026-05-26T09:50:14.000Z</time>
      </trkpt>
      <trkpt lat="44.65837" lon="5.04782">
        <ele>882</ele>
        <time>2026-05-26T09:50:15.000Z</time>
      </trkpt>
      <trkpt lat="44.65836" lon="5.04781">
        <ele>882</ele>
        <time>2026-05-26T09:50:16.000Z</time>
      </trkpt>
      <trkpt lat="44.65837" lon="5.04781">
        <ele>882</ele>
        <time>2026-05-26T09:50:17.000Z</time>
      </trkpt>
      <trkpt lat="44.65837" lon="5.04781">
        <ele>883</ele>
        <time>2026-05-26T09:50:18.000Z</time>
      </trkpt>
      <trkpt lat="44.65838" lon="5.0478">
        <ele>883</ele>
        <time>2026-05-26T09:50:19.000Z</time>
      </trkpt>
      <trkpt lat="44.65838" lon="5.04779">
        <ele>883</ele>
        <time>2026-05-26T09:50:20.000Z</time>
      </trkpt>
      <trkpt lat="44.65838" lon="5.04777">
        <ele>883</ele>
        <time>2026-05-26T09:50:21.000Z</time>
      </trkpt>
      <trkpt lat="44.65838" lon="5.04776">
        <ele>884</ele>
        <time>2026-05-26T09:50:22.000Z</time>
      </trkpt>
      <trkpt lat="44.65837" lon="5.04775">
        <ele>883</ele>
        <time>2026-05-26T09:50:23.000Z</time>
      </trkpt>
      <trkpt lat="44.65838" lon="5.04775">
        <ele>884</ele>
        <time>2026-05-26T09:50:24.000Z</time>
      </trkpt>
      <trkpt lat="44.65836" lon="5.04773">
        <ele>883</ele>
        <time>2026-05-26T09:50:25.000Z</time>
      </trkpt>
      <trkpt lat="44.65836" lon="5.04772">
        <ele>883</ele>
        <time>2026-05-26T09:50:26.000Z</time>
      </trkpt>
      <trkpt lat="44.65836" lon="5.04771">
        <ele>882</ele>
        <time>2026-05-26T09:50:27.000Z</time>
      </trkpt>
      <trkpt lat="44.65836" lon="5.04771">
        <ele>882</ele>
        <time>2026-05-26T09:50:28.000Z</time>
      </trkpt>
      <trkpt lat="44.65836" lon="5.04771">
        <ele>882</ele>
        <time>2026-05-26T09:50:29.000Z</time>
      </trkpt>
      <trkpt lat="44.65836" lon="5.04771">
        <ele>882</ele>
        <time>2026-05-26T09:50:30.000Z</time>
      </trkpt>
      <trkpt lat="44.65836" lon="5.04771">
        <ele>882</ele>
        <time>2026-05-26T09:50:31.000Z</time>
      </trkpt>
      <trkpt lat="44.65836" lon="5.04771">
        <ele>882</ele>
        <time>2026-05-26T09:50:32.000Z</time>
      </trkpt>
      <trkpt lat="44.65836" lon="5.04771">
        <ele>882</ele>
        <time>2026-05-26T09:50:33.000Z</time>
      </trkpt>
      <trkpt lat="44.65835" lon="5.04769">
        <ele>881</ele>
        <time>2026-05-26T09:50:34.000Z</time>
      </trkpt>
      <trkpt lat="44.65834" lon="5.04769">
        <ele>880</ele>
        <time>2026-05-26T09:50:35.000Z</time>
      </trkpt>
      <trkpt lat="44.65834" lon="5.04769">
        <ele>880</ele>
        <time>2026-05-26T09:50:36.000Z</time>
      </trkpt>
      <trkpt lat="44.65833" lon="5.04769">
        <ele>880</ele>
        <time>2026-05-26T09:50:37.000Z</time>
      </trkpt>
      <trkpt lat="44.65832" lon="5.04767">
        <ele>879</ele>
        <time>2026-05-26T09:50:38.000Z</time>
      </trkpt>
      <trkpt lat="44.65832" lon="5.04767">
        <ele>879</ele>
        <time>2026-05-26T09:50:39.000Z</time>
      </trkpt>
      <trkpt lat="44.65832" lon="5.04766">
        <ele>878</ele>
        <time>2026-05-26T09:50:40.000Z</time>
      </trkpt>
      <trkpt lat="44.65832" lon="5.04766">
        <ele>878</ele>
        <time>2026-05-26T09:50:41.000Z</time>
      </trkpt>
      <trkpt lat="44.65832" lon="5.04766">
        <ele>878</ele>
        <time>2026-05-26T09:50:42.000Z</time>
      </trkpt>
      <trkpt lat="44.65832" lon="5.04767">
        <ele>878</ele>
        <time>2026-05-26T09:50:43.000Z</time>
      </trkpt>
      <trkpt lat="44.65832" lon="5.04767">
        <ele>878</ele>
        <time>2026-05-26T09:50:44.000Z</time>
      </trkpt>
      <trkpt lat="44.65832" lon="5.04767">
        <ele>878</ele>
        <time>2026-05-26T09:50:45.000Z</time>
      </trkpt>
      <trkpt lat="44.65832" lon="5.04767">
        <ele>878</ele>
        <time>2026-05-26T09:50:46.000Z</time>
      </trkpt>
      <trkpt lat="44.65832" lon="5.04767">
        <ele>878</ele>
        <time>2026-05-26T09:50:47.000Z</time>
      </trkpt>
      <trkpt lat="44.65833" lon="5.04767">
        <ele>877</ele>
        <time>2026-05-26T09:50:48.000Z</time>
      </trkpt>
      <trkpt lat="44.65832" lon="5.04767">
        <ele>877</ele>
        <time>2026-05-26T09:50:49.000Z</time>
      </trkpt>
      <trkpt lat="44.65832" lon="5.04767">
        <ele>878</ele>
        <time>2026-05-26T09:50:50.000Z</time>
      </trkpt>
      <trkpt lat="44.65832" lon="5.04767">
        <ele>877</ele>
        <time>2026-05-26T09:50:51.000Z</time>
      </trkpt>
      <trkpt lat="44.65833" lon="5.04767">
        <ele>876</ele>
        <time>2026-05-26T09:50:52.000Z</time>
      </trkpt>
      <trkpt lat="44.65834" lon="5.04765">
        <ele>876</ele>
        <time>2026-05-26T09:50:53.000Z</time>
      </trkpt>
      <trkpt lat="44.65834" lon="5.04764">
        <ele>876</ele>
        <time>2026-05-26T09:50:54.000Z</time>
      </trkpt>
      <trkpt lat="44.65834" lon="5.04764">
        <ele>876</ele>
        <time>2026-05-26T09:50:55.000Z</time>
      </trkpt>
      <trkpt lat="44.65834" lon="5.04764">
        <ele>876</ele>
        <time>2026-05-26T09:50:56.000Z</time>
      </trkpt>
      <trkpt lat="44.65834" lon="5.04765">
        <ele>875</ele>
        <time>2026-05-26T09:50:57.000Z</time>
      </trkpt>
      <trkpt lat="44.65834" lon="5.04764">
        <ele>874</ele>
        <time>2026-05-26T09:50:58.000Z</time>
      </trkpt>
      <trkpt lat="44.65834" lon="5.04764">
        <ele>874</ele>
        <time>2026-05-26T09:50:59.000Z</time>
      </trkpt>
      <trkpt lat="44.65834" lon="5.04764">
        <ele>874</ele>
        <time>2026-05-26T09:51:00.000Z</time>
      </trkpt>
      <trkpt lat="44.65834" lon="5.04764">
        <ele>874</ele>
        <time>2026-05-26T09:51:01.000Z</time>
      </trkpt>
      <trkpt lat="44.65834" lon="5.04764">
        <ele>874</ele>
        <time>2026-05-26T09:51:02.000Z</time>
      </trkpt>
      <trkpt lat="44.65834" lon="5.04764">
        <ele>874</ele>
        <time>2026-05-26T09:51:03.000Z</time>
      </trkpt>
      <trkpt lat="44.65833" lon="5.04763">
        <ele>875</ele>
        <time>2026-05-26T09:51:04.000Z</time>
      </trkpt>
      <trkpt lat="44.65834" lon="5.04763">
        <ele>875</ele>
        <time>2026-05-26T09:51:05.000Z</time>
      </trkpt>
      <trkpt lat="44.65833" lon="5.04763">
        <ele>876</ele>
        <time>2026-05-26T09:51:06.000Z</time>
      </trkpt>
      <trkpt lat="44.65833" lon="5.04764">
        <ele>877</ele>
        <time>2026-05-26T09:51:07.000Z</time>
      </trkpt>
      <trkpt lat="44.65833" lon="5.04764">
        <ele>877</ele>
        <time>2026-05-26T09:51:08.000Z</time>
      </trkpt>
      <trkpt lat="44.65833" lon="5.04764">
        <ele>877</ele>
        <time>2026-05-26T09:51:09.000Z</time>
      </trkpt>
      <trkpt lat="44.65833" lon="5.04764">
        <ele>877</ele>
        <time>2026-05-26T09:51:10.000Z</time>
      </trkpt>
      <trkpt lat="44.65833" lon="5.04764">
        <ele>877</ele>
        <time>2026-05-26T09:51:11.000Z</time>
      </trkpt>
      <trkpt lat="44.65833" lon="5.04764">
        <ele>877</ele>
        <time>2026-05-26T09:51:12.000Z</time>
      </trkpt>
      <trkpt lat="44.65833" lon="5.04764">
        <ele>877</ele>
        <time>2026-05-26T09:51:13.000Z</time>
      </trkpt>
      <trkpt lat="44.65833" lon="5.04764">
        <ele>877</ele>
        <time>2026-05-26T09:51:14.000Z</time>
      </trkpt>
      <trkpt lat="44.65833" lon="5.04764">
        <ele>877</ele>
        <time>2026-05-26T09:51:15.000Z</time>
      </trkpt>
      <trkpt lat="44.65833" lon="5.04764">
        <ele>877</ele>
        <time>2026-05-26T09:51:16.000Z</time>
      </trkpt>
      <trkpt lat="44.65833" lon="5.04764">
        <ele>877</ele>
        <time>2026-05-26T09:51:17.000Z</time>
      </trkpt>
      <trkpt lat="44.65833" lon="5.04764">
        <ele>877</ele>
        <time>2026-05-26T09:51:18.000Z</time>
      </trkpt>
      <trkpt lat="44.65833" lon="5.04764">
        <ele>877</ele>
        <time>2026-05-26T09:51:19.000Z</time>
      </trkpt>
      <trkpt lat="44.65834" lon="5.04766">
        <ele>879</ele>
        <time>2026-05-26T09:51:20.000Z</time>
      </trkpt>
      <trkpt lat="44.65834" lon="5.04767">
        <ele>879</ele>
        <time>2026-05-26T09:51:21.000Z</time>
      </trkpt>
      <trkpt lat="44.65835" lon="5.04768">
        <ele>878</ele>
        <time>2026-05-26T09:51:22.000Z</time>
      </trkpt>
      <trkpt lat="44.65834" lon="5.04768">
        <ele>879</ele>
        <time>2026-05-26T09:51:23.000Z</time>
      </trkpt>
      <trkpt lat="44.65834" lon="5.04768">
        <ele>879</ele>
        <time>2026-05-26T09:51:24.000Z</time>
      </trkpt>
      <trkpt lat="44.65834" lon="5.04768">
        <ele>879</ele>
        <time>2026-05-26T09:51:25.000Z</time>
      </trkpt>
      <trkpt lat="44.65834" lon="5.04768">
        <ele>879</ele>
        <time>2026-05-26T09:51:26.000Z</time>
      </trkpt>
      <trkpt lat="44.65833" lon="5.04768">
        <ele>880</ele>
        <time>2026-05-26T09:51:27.000Z</time>
      </trkpt>
      <trkpt lat="44.65833" lon="5.04768">
        <ele>880</ele>
        <time>2026-05-26T09:51:28.000Z</time>
      </trkpt>
      <trkpt lat="44.65832" lon="5.04768">
        <ele>880</ele>
        <time>2026-05-26T09:51:29.000Z</time>
      </trkpt>
      <trkpt lat="44.65832" lon="5.04768">
        <ele>880</ele>
        <time>2026-05-26T09:51:30.000Z</time>
      </trkpt>
      <trkpt lat="44.65832" lon="5.04768">
        <ele>880</ele>
        <time>2026-05-26T09:51:31.000Z</time>
      </trkpt>
      <trkpt lat="44.65832" lon="5.04768">
        <ele>880</ele>
        <time>2026-05-26T09:51:32.000Z</time>
      </trkpt>
      <trkpt lat="44.65832" lon="5.04768">
        <ele>880</ele>
        <time>2026-05-26T09:51:33.000Z</time>
      </trkpt>
      <trkpt lat="44.65832" lon="5.04768">
        <ele>880</ele>
        <time>2026-05-26T09:51:34.000Z</time>
      </trkpt>
      <trkpt lat="44.65832" lon="5.04768">
        <ele>880</ele>
        <time>2026-05-26T09:51:35.000Z</time>
      </trkpt>
      <trkpt lat="44.65832" lon="5.04768">
        <ele>880</ele>
        <time>2026-05-26T09:51:36.000Z</time>
      </trkpt>
      <trkpt lat="44.65832" lon="5.04768">
        <ele>880</ele>
        <time>2026-05-26T09:51:37.000Z</time>
      </trkpt>
      <trkpt lat="44.65832" lon="5.04768">
        <ele>880</ele>
        <time>2026-05-26T09:51:38.000Z</time>
      </trkpt>
      <trkpt lat="44.65832" lon="5.04768">
        <ele>880</ele>
        <time>2026-05-26T09:51:39.000Z</time>
      </trkpt>
      <trkpt lat="44.65832" lon="5.04768">
        <ele>880</ele>
        <time>2026-05-26T09:51:40.000Z</time>
      </trkpt>
      <trkpt lat="44.65832" lon="5.04768">
        <ele>880</ele>
        <time>2026-05-26T09:51:41.000Z</time>
      </trkpt>
      <trkpt lat="44.65832" lon="5.04768">
        <ele>880</ele>
        <time>2026-05-26T09:51:42.000Z</time>
      </trkpt>
      <trkpt lat="44.65832" lon="5.04768">
        <ele>880</ele>
        <time>2026-05-26T09:51:43.000Z</time>
      </trkpt>
      <trkpt lat="44.65832" lon="5.04768">
        <ele>880</ele>
        <time>2026-05-26T09:51:44.000Z</time>
      </trkpt>
      <trkpt lat="44.65832" lon="5.04768">
        <ele>880</ele>
        <time>2026-05-26T09:51:45.000Z</time>
      </trkpt>
      <trkpt lat="44.65832" lon="5.04768">
        <ele>880</ele>
        <time>2026-05-26T09:51:46.000Z</time>
      </trkpt>
      <trkpt lat="44.65832" lon="5.04768">
        <ele>880</ele>
        <time>2026-05-26T09:51:47.000Z</time>
      </trkpt>
      <trkpt lat="44.65832" lon="5.04768">
        <ele>880</ele>
        <time>2026-05-26T09:51:48.000Z</time>
      </trkpt>
      <trkpt lat="44.65832" lon="5.04768">
        <ele>880</ele>
        <time>2026-05-26T09:51:49.000Z</time>
      </trkpt>
      <trkpt lat="44.65832" lon="5.04768">
        <ele>880</ele>
        <time>2026-05-26T09:51:50.000Z</time>
      </trkpt>
      <trkpt lat="44.65833" lon="5.04768">
        <ele>881</ele>
        <time>2026-05-26T09:51:51.000Z</time>
      </trkpt>
      <trkpt lat="44.65833" lon="5.04768">
        <ele>881</ele>
        <time>2026-05-26T09:51:52.000Z</time>
      </trkpt>
      <trkpt lat="44.65833" lon="5.04768">
        <ele>881</ele>
        <time>2026-05-26T09:51:53.000Z</time>
      </trkpt>
      <trkpt lat="44.65833" lon="5.04768">
        <ele>881</ele>
        <time>2026-05-26T09:51:54.000Z</time>
      </trkpt>
      <trkpt lat="44.65833" lon="5.04768">
        <ele>881</ele>
        <time>2026-05-26T09:51:55.000Z</time>
      </trkpt>
      <trkpt lat="44.65833" lon="5.04768">
        <ele>881</ele>
        <time>2026-05-26T09:51:56.000Z</time>
      </trkpt>
      <trkpt lat="44.65833" lon="5.04768">
        <ele>881</ele>
        <time>2026-05-26T09:51:57.000Z</time>
      </trkpt>
      <trkpt lat="44.65833" lon="5.04768">
        <ele>881</ele>
        <time>2026-05-26T09:51:58.000Z</time>
      </trkpt>
      <trkpt lat="44.65833" lon="5.04768">
        <ele>881</ele>
        <time>2026-05-26T09:51:59.000Z</time>
      </trkpt>
      <trkpt lat="44.65832" lon="5.04767">
        <ele>881</ele>
        <time>2026-05-26T09:52:00.000Z</time>
      </trkpt>
      <trkpt lat="44.65832" lon="5.04767">
        <ele>881</ele>
        <time>2026-05-26T09:52:01.000Z</time>
      </trkpt>
      <trkpt lat="44.65832" lon="5.04767">
        <ele>881</ele>
        <time>2026-05-26T09:52:02.000Z</time>
      </trkpt>
      <trkpt lat="44.65832" lon="5.04767">
        <ele>881</ele>
        <time>2026-05-26T09:52:03.000Z</time>
      </trkpt>
      <trkpt lat="44.65832" lon="5.04767">
        <ele>881</ele>
        <time>2026-05-26T09:52:04.000Z</time>
      </trkpt>
      <trkpt lat="44.65832" lon="5.04767">
        <ele>881</ele>
        <time>2026-05-26T09:52:05.000Z</time>
      </trkpt>
      <trkpt lat="44.65832" lon="5.04767">
        <ele>881</ele>
        <time>2026-05-26T09:52:06.000Z</time>
      </trkpt>
      <trkpt lat="44.65832" lon="5.04767">
        <ele>881</ele>
        <time>2026-05-26T09:52:07.000Z</time>
      </trkpt>
      <trkpt lat="44.65832" lon="5.04767">
        <ele>881</ele>
        <time>2026-05-26T09:52:08.000Z</time>
      </trkpt>
      <trkpt lat="44.65832" lon="5.04767">
        <ele>881</ele>
        <time>2026-05-26T09:52:09.000Z</time>
      </trkpt>
      <trkpt lat="44.65832" lon="5.04767">
        <ele>881</ele>
        <time>2026-05-26T09:52:10.000Z</time>
      </trkpt>
      <trkpt lat="44.65832" lon="5.04767">
        <ele>881</ele>
        <time>2026-05-26T09:52:11.000Z</time>
      </trkpt>
      <trkpt lat="44.65832" lon="5.04767">
        <ele>881</ele>
        <time>2026-05-26T09:52:12.000Z</time>
      </trkpt>
      <trkpt lat="44.65832" lon="5.04767">
        <ele>882</ele>
        <time>2026-05-26T09:52:13.000Z</time>
      </trkpt>
      <trkpt lat="44.65832" lon="5.04767">
        <ele>881</ele>
        <time>2026-05-26T09:52:14.000Z</time>
      </trkpt>
      <trkpt lat="44.65832" lon="5.04767">
        <ele>882</ele>
        <time>2026-05-26T09:52:15.000Z</time>
      </trkpt>
      <trkpt lat="44.65832" lon="5.04767">
        <ele>882</ele>
        <time>2026-05-26T09:52:16.000Z</time>
      </trkpt>
      <trkpt lat="44.65832" lon="5.04767">
        <ele>882</ele>
        <time>2026-05-26T09:52:17.000Z</time>
      </trkpt>
      <trkpt lat="44.65832" lon="5.04767">
        <ele>882</ele>
        <time>2026-05-26T09:52:18.000Z</time>
      </trkpt>
      <trkpt lat="44.65832" lon="5.04767">
        <ele>882</ele>
        <time>2026-05-26T09:52:19.000Z</time>
      </trkpt>
      <trkpt lat="44.65832" lon="5.04767">
        <ele>882</ele>
        <time>2026-05-26T09:52:20.000Z</time>
      </trkpt>
      <trkpt lat="44.65832" lon="5.04767">
        <ele>882</ele>
        <time>2026-05-26T09:52:21.000Z</time>
      </trkpt>
      <trkpt lat="44.65832" lon="5.04767">
        <ele>882</ele>
        <time>2026-05-26T09:52:22.000Z</time>
      </trkpt>
      <trkpt lat="44.65832" lon="5.04767">
        <ele>882</ele>
        <time>2026-05-26T09:52:23.000Z</time>
      </trkpt>
      <trkpt lat="44.65832" lon="5.04767">
        <ele>882</ele>
        <time>2026-05-26T09:52:24.000Z</time>
      </trkpt>
      <trkpt lat="44.65832" lon="5.04767">
        <ele>882</ele>
        <time>2026-05-26T09:52:25.000Z</time>
      </trkpt>
      <trkpt lat="44.65832" lon="5.04767">
        <ele>882</ele>
        <time>2026-05-26T09:52:26.000Z</time>
      </trkpt>
      <trkpt lat="44.65832" lon="5.04767">
        <ele>882</ele>
        <time>2026-05-26T09:52:27.000Z</time>
      </trkpt>
      <trkpt lat="44.65832" lon="5.04767">
        <ele>882</ele>
        <time>2026-05-26T09:52:28.000Z</time>
      </trkpt>
      <trkpt lat="44.65832" lon="5.04767">
        <ele>882</ele>
        <time>2026-05-26T09:52:29.000Z</time>
      </trkpt>
      <trkpt lat="44.65832" lon="5.04768">
        <ele>882</ele>
        <time>2026-05-26T09:52:30.000Z</time>
      </trkpt>
      <trkpt lat="44.65832" lon="5.04768">
        <ele>882</ele>
        <time>2026-05-26T09:52:31.000Z</time>
      </trkpt>
      <trkpt lat="44.65832" lon="5.04768">
        <ele>882</ele>
        <time>2026-05-26T09:52:32.000Z</time>
      </trkpt>
      <trkpt lat="44.65832" lon="5.04768">
        <ele>882</ele>
        <time>2026-05-26T09:52:33.000Z</time>
      </trkpt>
      <trkpt lat="44.65832" lon="5.04768">
        <ele>882</ele>
        <time>2026-05-26T09:52:34.000Z</time>
      </trkpt>
      <trkpt lat="44.65832" lon="5.04768">
        <ele>882</ele>
        <time>2026-05-26T09:52:35.000Z</time>
      </trkpt>
      <trkpt lat="44.65832" lon="5.04768">
        <ele>882</ele>
        <time>2026-05-26T09:52:36.000Z</time>
      </trkpt>
      <trkpt lat="44.65832" lon="5.04768">
        <ele>882</ele>
        <time>2026-05-26T09:52:37.000Z</time>
      </trkpt>
      <trkpt lat="44.65832" lon="5.04768">
        <ele>882</ele>
        <time>2026-05-26T09:52:38.000Z</time>
      </trkpt>
      <trkpt lat="44.65832" lon="5.04768">
        <ele>882</ele>
        <time>2026-05-26T09:52:39.000Z</time>
      </trkpt>
      <trkpt lat="44.65833" lon="5.04768">
        <ele>881</ele>
        <time>2026-05-26T09:52:40.000Z</time>
      </trkpt>
      <trkpt lat="44.65834" lon="5.04768">
        <ele>883</ele>
        <time>2026-05-26T09:52:41.000Z</time>
      </trkpt>
      <trkpt lat="44.65834" lon="5.0477">
        <ele>884</ele>
        <time>2026-05-26T09:52:42.000Z</time>
      </trkpt>
      <trkpt lat="44.65835" lon="5.0477">
        <ele>884</ele>
        <time>2026-05-26T09:52:43.000Z</time>
      </trkpt>
      <trkpt lat="44.65834" lon="5.0477">
        <ele>884</ele>
        <time>2026-05-26T09:52:44.000Z</time>
      </trkpt>
      <trkpt lat="44.65833" lon="5.04769">
        <ele>885</ele>
        <time>2026-05-26T09:52:45.000Z</time>
      </trkpt>
      <trkpt lat="44.65834" lon="5.04769">
        <ele>884</ele>
        <time>2026-05-26T09:52:46.000Z</time>
      </trkpt>
      <trkpt lat="44.65835" lon="5.04767">
        <ele>884</ele>
        <time>2026-05-26T09:52:47.000Z</time>
      </trkpt>
      <trkpt lat="44.65835" lon="5.04767">
        <ele>885</ele>
        <time>2026-05-26T09:52:48.000Z</time>
      </trkpt>
      <trkpt lat="44.65835" lon="5.04766">
        <ele>884</ele>
        <time>2026-05-26T09:52:49.000Z</time>
      </trkpt>
      <trkpt lat="44.65836" lon="5.04766">
        <ele>885</ele>
        <time>2026-05-26T09:52:50.000Z</time>
      </trkpt>
      <trkpt lat="44.65836" lon="5.04766">
        <ele>884</ele>
        <time>2026-05-26T09:52:51.000Z</time>
      </trkpt>
      <trkpt lat="44.65837" lon="5.04765">
        <ele>884</ele>
        <time>2026-05-26T09:52:52.000Z</time>
      </trkpt>
      <trkpt lat="44.65836" lon="5.04766">
        <ele>885</ele>
        <time>2026-05-26T09:52:53.000Z</time>
      </trkpt>
      <trkpt lat="44.65837" lon="5.04765">
        <ele>886</ele>
        <time>2026-05-26T09:52:54.000Z</time>
      </trkpt>
      <trkpt lat="44.65837" lon="5.04764">
        <ele>886</ele>
        <time>2026-05-26T09:52:55.000Z</time>
      </trkpt>
      <trkpt lat="44.65838" lon="5.04764">
        <ele>885</ele>
        <time>2026-05-26T09:52:56.000Z</time>
      </trkpt>
      <trkpt lat="44.65839" lon="5.04764">
        <ele>885</ele>
        <time>2026-05-26T09:52:57.000Z</time>
      </trkpt>
      <trkpt lat="44.65839" lon="5.04764">
        <ele>885</ele>
        <time>2026-05-26T09:52:58.000Z</time>
      </trkpt>
      <trkpt lat="44.65839" lon="5.04763">
        <ele>884</ele>
        <time>2026-05-26T09:52:59.000Z</time>
      </trkpt>
      <trkpt lat="44.65839" lon="5.04763">
        <ele>885</ele>
        <time>2026-05-26T09:53:00.000Z</time>
      </trkpt>
      <trkpt lat="44.6584" lon="5.04761">
        <ele>886</ele>
        <time>2026-05-26T09:53:01.000Z</time>
      </trkpt>
      <trkpt lat="44.6584" lon="5.04761">
        <ele>887</ele>
        <time>2026-05-26T09:53:02.000Z</time>
      </trkpt>
      <trkpt lat="44.6584" lon="5.04759">
        <ele>886</ele>
        <time>2026-05-26T09:53:03.000Z</time>
      </trkpt>
      <trkpt lat="44.65841" lon="5.04758">
        <ele>887</ele>
        <time>2026-05-26T09:53:04.000Z</time>
      </trkpt>
      <trkpt lat="44.65842" lon="5.04757">
        <ele>886</ele>
        <time>2026-05-26T09:53:05.000Z</time>
      </trkpt>
      <trkpt lat="44.65842" lon="5.04756">
        <ele>886</ele>
        <time>2026-05-26T09:53:06.000Z</time>
      </trkpt>
      <trkpt lat="44.65843" lon="5.04754">
        <ele>888</ele>
        <time>2026-05-26T09:53:07.000Z</time>
      </trkpt>
      <trkpt lat="44.65844" lon="5.04754">
        <ele>887</ele>
        <time>2026-05-26T09:53:08.000Z</time>
      </trkpt>
      <trkpt lat="44.65844" lon="5.04753">
        <ele>886</ele>
        <time>2026-05-26T09:53:09.000Z</time>
      </trkpt>
      <trkpt lat="44.65845" lon="5.04753">
        <ele>886</ele>
        <time>2026-05-26T09:53:10.000Z</time>
      </trkpt>
      <trkpt lat="44.65845" lon="5.04752">
        <ele>886</ele>
        <time>2026-05-26T09:53:11.000Z</time>
      </trkpt>
      <trkpt lat="44.65845" lon="5.0475">
        <ele>887</ele>
        <time>2026-05-26T09:53:12.000Z</time>
      </trkpt>
      <trkpt lat="44.65846" lon="5.0475">
        <ele>886</ele>
        <time>2026-05-26T09:53:13.000Z</time>
      </trkpt>
      <trkpt lat="44.65846" lon="5.04749">
        <ele>886</ele>
        <time>2026-05-26T09:53:14.000Z</time>
      </trkpt>
      <trkpt lat="44.65847" lon="5.04749">
        <ele>886</ele>
        <time>2026-05-26T09:53:15.000Z</time>
      </trkpt>
      <trkpt lat="44.65848" lon="5.04748">
        <ele>886</ele>
        <time>2026-05-26T09:53:16.000Z</time>
      </trkpt>
      <trkpt lat="44.65847" lon="5.04748">
        <ele>887</ele>
        <time>2026-05-26T09:53:17.000Z</time>
      </trkpt>
      <trkpt lat="44.65848" lon="5.04747">
        <ele>888</ele>
        <time>2026-05-26T09:53:18.000Z</time>
      </trkpt>
      <trkpt lat="44.65849" lon="5.04745">
        <ele>887</ele>
        <time>2026-05-26T09:53:19.000Z</time>
      </trkpt>
      <trkpt lat="44.6585" lon="5.04745">
        <ele>889</ele>
        <time>2026-05-26T09:53:20.000Z</time>
      </trkpt>
      <trkpt lat="44.65851" lon="5.04745">
        <ele>890</ele>
        <time>2026-05-26T09:53:21.000Z</time>
      </trkpt>
      <trkpt lat="44.65851" lon="5.04745">
        <ele>890</ele>
        <time>2026-05-26T09:53:22.000Z</time>
      </trkpt>
      <trkpt lat="44.65852" lon="5.04744">
        <ele>890</ele>
        <time>2026-05-26T09:53:23.000Z</time>
      </trkpt>
      <trkpt lat="44.65852" lon="5.04742">
        <ele>890</ele>
        <time>2026-05-26T09:53:24.000Z</time>
      </trkpt>
      <trkpt lat="44.65853" lon="5.04741">
        <ele>890</ele>
        <time>2026-05-26T09:53:25.000Z</time>
      </trkpt>
      <trkpt lat="44.65853" lon="5.04739">
        <ele>891</ele>
        <time>2026-05-26T09:53:26.000Z</time>
      </trkpt>
      <trkpt lat="44.65854" lon="5.04739">
        <ele>892</ele>
        <time>2026-05-26T09:53:27.000Z</time>
      </trkpt>
      <trkpt lat="44.65855" lon="5.04739">
        <ele>894</ele>
        <time>2026-05-26T09:53:28.000Z</time>
      </trkpt>
      <trkpt lat="44.65855" lon="5.04736">
        <ele>895</ele>
        <time>2026-05-26T09:53:29.000Z</time>
      </trkpt>
      <trkpt lat="44.65854" lon="5.04736">
        <ele>895</ele>
        <time>2026-05-26T09:53:30.000Z</time>
      </trkpt>
      <trkpt lat="44.65854" lon="5.04735">
        <ele>895</ele>
        <time>2026-05-26T09:53:31.000Z</time>
      </trkpt>
      <trkpt lat="44.65853" lon="5.04735">
        <ele>895</ele>
        <time>2026-05-26T09:53:32.000Z</time>
      </trkpt>
      <trkpt lat="44.65854" lon="5.04734">
        <ele>895</ele>
        <time>2026-05-26T09:53:33.000Z</time>
      </trkpt>
      <trkpt lat="44.65854" lon="5.04733">
        <ele>894</ele>
        <time>2026-05-26T09:53:34.000Z</time>
      </trkpt>
      <trkpt lat="44.65854" lon="5.04734">
        <ele>896</ele>
        <time>2026-05-26T09:53:35.000Z</time>
      </trkpt>
      <trkpt lat="44.65854" lon="5.04733">
        <ele>896</ele>
        <time>2026-05-26T09:53:36.000Z</time>
      </trkpt>
      <trkpt lat="44.65854" lon="5.04734">
        <ele>895</ele>
        <time>2026-05-26T09:53:37.000Z</time>
      </trkpt>
      <trkpt lat="44.65854" lon="5.04736">
        <ele>895</ele>
        <time>2026-05-26T09:53:38.000Z</time>
      </trkpt>
      <trkpt lat="44.65855" lon="5.04734">
        <ele>896</ele>
        <time>2026-05-26T09:53:39.000Z</time>
      </trkpt>
      <trkpt lat="44.65855" lon="5.04735">
        <ele>898</ele>
        <time>2026-05-26T09:53:40.000Z</time>
      </trkpt>
      <trkpt lat="44.65854" lon="5.04734">
        <ele>899</ele>
        <time>2026-05-26T09:53:41.000Z</time>
      </trkpt>
      <trkpt lat="44.65853" lon="5.04731">
        <ele>898</ele>
        <time>2026-05-26T09:53:42.000Z</time>
      </trkpt>
      <trkpt lat="44.65853" lon="5.04729">
        <ele>899</ele>
        <time>2026-05-26T09:53:43.000Z</time>
      </trkpt>
      <trkpt lat="44.65852" lon="5.04726">
        <ele>899</ele>
        <time>2026-05-26T09:53:44.000Z</time>
      </trkpt>
      <trkpt lat="44.65852" lon="5.04726">
        <ele>899</ele>
        <time>2026-05-26T09:53:45.000Z</time>
      </trkpt>
      <trkpt lat="44.65853" lon="5.04726">
        <ele>900</ele>
        <time>2026-05-26T09:53:46.000Z</time>
      </trkpt>
      <trkpt lat="44.65853" lon="5.04725">
        <ele>900</ele>
        <time>2026-05-26T09:53:47.000Z</time>
      </trkpt>
      <trkpt lat="44.65853" lon="5.04724">
        <ele>899</ele>
        <time>2026-05-26T09:53:48.000Z</time>
      </trkpt>
      <trkpt lat="44.65853" lon="5.04723">
        <ele>899</ele>
        <time>2026-05-26T09:53:49.000Z</time>
      </trkpt>
      <trkpt lat="44.65853" lon="5.04722">
        <ele>898</ele>
        <time>2026-05-26T09:53:50.000Z</time>
      </trkpt>
      <trkpt lat="44.65853" lon="5.04721">
        <ele>899</ele>
        <time>2026-05-26T09:53:51.000Z</time>
      </trkpt>
      <trkpt lat="44.65853" lon="5.0472">
        <ele>898</ele>
        <time>2026-05-26T09:53:52.000Z</time>
      </trkpt>
      <trkpt lat="44.65852" lon="5.0472">
        <ele>898</ele>
        <time>2026-05-26T09:53:53.000Z</time>
      </trkpt>
      <trkpt lat="44.65852" lon="5.04719">
        <ele>898</ele>
        <time>2026-05-26T09:53:54.000Z</time>
      </trkpt>
      <trkpt lat="44.65852" lon="5.04719">
        <ele>898</ele>
        <time>2026-05-26T09:53:55.000Z</time>
      </trkpt>
      <trkpt lat="44.65852" lon="5.04718">
        <ele>898</ele>
        <time>2026-05-26T09:53:56.000Z</time>
      </trkpt>
      <trkpt lat="44.65851" lon="5.04718">
        <ele>898</ele>
        <time>2026-05-26T09:53:57.000Z</time>
      </trkpt>
      <trkpt lat="44.65851" lon="5.04717">
        <ele>899</ele>
        <time>2026-05-26T09:53:58.000Z</time>
      </trkpt>
      <trkpt lat="44.65851" lon="5.04716">
        <ele>900</ele>
        <time>2026-05-26T09:53:59.000Z</time>
      </trkpt>
      <trkpt lat="44.65851" lon="5.04715">
        <ele>900</ele>
        <time>2026-05-26T09:54:00.000Z</time>
      </trkpt>
      <trkpt lat="44.6585" lon="5.04715">
        <ele>900</ele>
        <time>2026-05-26T09:54:01.000Z</time>
      </trkpt>
      <trkpt lat="44.6585" lon="5.04713">
        <ele>900</ele>
        <time>2026-05-26T09:54:02.000Z</time>
      </trkpt>
      <trkpt lat="44.65849" lon="5.04713">
        <ele>900</ele>
        <time>2026-05-26T09:54:03.000Z</time>
      </trkpt>
      <trkpt lat="44.65848" lon="5.04713">
        <ele>899</ele>
        <time>2026-05-26T09:54:04.000Z</time>
      </trkpt>
      <trkpt lat="44.65847" lon="5.04712">
        <ele>899</ele>
        <time>2026-05-26T09:54:05.000Z</time>
      </trkpt>
      <trkpt lat="44.65847" lon="5.04711">
        <ele>899</ele>
        <time>2026-05-26T09:54:06.000Z</time>
      </trkpt>
      <trkpt lat="44.65846" lon="5.04711">
        <ele>900</ele>
        <time>2026-05-26T09:54:07.000Z</time>
      </trkpt>
      <trkpt lat="44.65846" lon="5.04711">
        <ele>900</ele>
        <time>2026-05-26T09:54:08.000Z</time>
      </trkpt>
      <trkpt lat="44.65846" lon="5.0471">
        <ele>900</ele>
        <time>2026-05-26T09:54:09.000Z</time>
      </trkpt>
      <trkpt lat="44.65846" lon="5.04709">
        <ele>900</ele>
        <time>2026-05-26T09:54:10.000Z</time>
      </trkpt>
      <trkpt lat="44.65846" lon="5.04709">
        <ele>900</ele>
        <time>2026-05-26T09:54:11.000Z</time>
      </trkpt>
      <trkpt lat="44.65845" lon="5.04709">
        <ele>901</ele>
        <time>2026-05-26T09:54:12.000Z</time>
      </trkpt>
      <trkpt lat="44.65846" lon="5.04709">
        <ele>900</ele>
        <time>2026-05-26T09:54:13.000Z</time>
      </trkpt>
      <trkpt lat="44.65846" lon="5.04709">
        <ele>899</ele>
        <time>2026-05-26T09:54:14.000Z</time>
      </trkpt>
      <trkpt lat="44.65846" lon="5.04709">
        <ele>900</ele>
        <time>2026-05-26T09:54:15.000Z</time>
      </trkpt>
      <trkpt lat="44.65846" lon="5.04708">
        <ele>900</ele>
        <time>2026-05-26T09:54:16.000Z</time>
      </trkpt>
      <trkpt lat="44.65846" lon="5.04707">
        <ele>901</ele>
        <time>2026-05-26T09:54:17.000Z</time>
      </trkpt>
      <trkpt lat="44.65846" lon="5.04706">
        <ele>901</ele>
        <time>2026-05-26T09:54:18.000Z</time>
      </trkpt>
      <trkpt lat="44.65845" lon="5.04705">
        <ele>900</ele>
        <time>2026-05-26T09:54:19.000Z</time>
      </trkpt>
      <trkpt lat="44.65844" lon="5.04705">
        <ele>900</ele>
        <time>2026-05-26T09:54:20.000Z</time>
      </trkpt>
      <trkpt lat="44.65845" lon="5.04705">
        <ele>901</ele>
        <time>2026-05-26T09:54:21.000Z</time>
      </trkpt>
      <trkpt lat="44.65845" lon="5.04705">
        <ele>902</ele>
        <time>2026-05-26T09:54:22.000Z</time>
      </trkpt>
      <trkpt lat="44.65845" lon="5.04705">
        <ele>902</ele>
        <time>2026-05-26T09:54:23.000Z</time>
      </trkpt>
      <trkpt lat="44.65846" lon="5.04704">
        <ele>903</ele>
        <time>2026-05-26T09:54:24.000Z</time>
      </trkpt>
      <trkpt lat="44.65846" lon="5.04703">
        <ele>904</ele>
        <time>2026-05-26T09:54:25.000Z</time>
      </trkpt>
      <trkpt lat="44.65846" lon="5.04702">
        <ele>905</ele>
        <time>2026-05-26T09:54:26.000Z</time>
      </trkpt>
      <trkpt lat="44.65847" lon="5.047">
        <ele>907</ele>
        <time>2026-05-26T09:54:27.000Z</time>
      </trkpt>
      <trkpt lat="44.65846" lon="5.04698">
        <ele>908</ele>
        <time>2026-05-26T09:54:28.000Z</time>
      </trkpt>
      <trkpt lat="44.65846" lon="5.04696">
        <ele>908</ele>
        <time>2026-05-26T09:54:29.000Z</time>
      </trkpt>
      <trkpt lat="44.65846" lon="5.04694">
        <ele>908</ele>
        <time>2026-05-26T09:54:30.000Z</time>
      </trkpt>
      <trkpt lat="44.65846" lon="5.04694">
        <ele>907</ele>
        <time>2026-05-26T09:54:31.000Z</time>
      </trkpt>
      <trkpt lat="44.65846" lon="5.04692">
        <ele>906</ele>
        <time>2026-05-26T09:54:32.000Z</time>
      </trkpt>
      <trkpt lat="44.65846" lon="5.04691">
        <ele>906</ele>
        <time>2026-05-26T09:54:33.000Z</time>
      </trkpt>
      <trkpt lat="44.65846" lon="5.04691">
        <ele>907</ele>
        <time>2026-05-26T09:54:34.000Z</time>
      </trkpt>
      <trkpt lat="44.65847" lon="5.04691">
        <ele>908</ele>
        <time>2026-05-26T09:54:35.000Z</time>
      </trkpt>
      <trkpt lat="44.65847" lon="5.04692">
        <ele>909</ele>
        <time>2026-05-26T09:54:36.000Z</time>
      </trkpt>
      <trkpt lat="44.65848" lon="5.04693">
        <ele>908</ele>
        <time>2026-05-26T09:54:37.000Z</time>
      </trkpt>
      <trkpt lat="44.65848" lon="5.04692">
        <ele>909</ele>
        <time>2026-05-26T09:54:38.000Z</time>
      </trkpt>
      <trkpt lat="44.65848" lon="5.04692">
        <ele>909</ele>
        <time>2026-05-26T09:54:39.000Z</time>
      </trkpt>
      <trkpt lat="44.65848" lon="5.04691">
        <ele>909</ele>
        <time>2026-05-26T09:54:40.000Z</time>
      </trkpt>
      <trkpt lat="44.65848" lon="5.04691">
        <ele>910</ele>
        <time>2026-05-26T09:54:41.000Z</time>
      </trkpt>
      <trkpt lat="44.65848" lon="5.04691">
        <ele>911</ele>
        <time>2026-05-26T09:54:42.000Z</time>
      </trkpt>
      <trkpt lat="44.65849" lon="5.04691">
        <ele>912</ele>
        <time>2026-05-26T09:54:43.000Z</time>
      </trkpt>
      <trkpt lat="44.6585" lon="5.04692">
        <ele>912</ele>
        <time>2026-05-26T09:54:44.000Z</time>
      </trkpt>
      <trkpt lat="44.6585" lon="5.04691">
        <ele>912</ele>
        <time>2026-05-26T09:54:45.000Z</time>
      </trkpt>
      <trkpt lat="44.6585" lon="5.04691">
        <ele>912</ele>
        <time>2026-05-26T09:54:46.000Z</time>
      </trkpt>
      <trkpt lat="44.6585" lon="5.04691">
        <ele>912</ele>
        <time>2026-05-26T09:54:47.000Z</time>
      </trkpt>
      <trkpt lat="44.6585" lon="5.04689">
        <ele>913</ele>
        <time>2026-05-26T09:54:48.000Z</time>
      </trkpt>
      <trkpt lat="44.65851" lon="5.04686">
        <ele>912</ele>
        <time>2026-05-26T09:54:49.000Z</time>
      </trkpt>
      <trkpt lat="44.65851" lon="5.04685">
        <ele>912</ele>
        <time>2026-05-26T09:54:50.000Z</time>
      </trkpt>
      <trkpt lat="44.6585" lon="5.04684">
        <ele>911</ele>
        <time>2026-05-26T09:54:51.000Z</time>
      </trkpt>
      <trkpt lat="44.65849" lon="5.04682">
        <ele>910</ele>
        <time>2026-05-26T09:54:52.000Z</time>
      </trkpt>
      <trkpt lat="44.65848" lon="5.04681">
        <ele>910</ele>
        <time>2026-05-26T09:54:53.000Z</time>
      </trkpt>
      <trkpt lat="44.65847" lon="5.04679">
        <ele>909</ele>
        <time>2026-05-26T09:54:54.000Z</time>
      </trkpt>
      <trkpt lat="44.65846" lon="5.04679">
        <ele>910</ele>
        <time>2026-05-26T09:54:55.000Z</time>
      </trkpt>
      <trkpt lat="44.65845" lon="5.04679">
        <ele>909</ele>
        <time>2026-05-26T09:54:56.000Z</time>
      </trkpt>
      <trkpt lat="44.65844" lon="5.04678">
        <ele>910</ele>
        <time>2026-05-26T09:54:57.000Z</time>
      </trkpt>
      <trkpt lat="44.65844" lon="5.04678">
        <ele>910</ele>
        <time>2026-05-26T09:54:58.000Z</time>
      </trkpt>
      <trkpt lat="44.65844" lon="5.04677">
        <ele>911</ele>
        <time>2026-05-26T09:54:59.000Z</time>
      </trkpt>
      <trkpt lat="44.65842" lon="5.04676">
        <ele>912</ele>
        <time>2026-05-26T09:55:00.000Z</time>
      </trkpt>
      <trkpt lat="44.65841" lon="5.04675">
        <ele>912</ele>
        <time>2026-05-26T09:55:01.000Z</time>
      </trkpt>
      <trkpt lat="44.6584" lon="5.04674">
        <ele>912</ele>
        <time>2026-05-26T09:55:02.000Z</time>
      </trkpt>
      <trkpt lat="44.6584" lon="5.04673">
        <ele>912</ele>
        <time>2026-05-26T09:55:03.000Z</time>
      </trkpt>
      <trkpt lat="44.65839" lon="5.04672">
        <ele>912</ele>
        <time>2026-05-26T09:55:04.000Z</time>
      </trkpt>
      <trkpt lat="44.65839" lon="5.04672">
        <ele>913</ele>
        <time>2026-05-26T09:55:05.000Z</time>
      </trkpt>
      <trkpt lat="44.65838" lon="5.04672">
        <ele>913</ele>
        <time>2026-05-26T09:55:06.000Z</time>
      </trkpt>
      <trkpt lat="44.65839" lon="5.04672">
        <ele>913</ele>
        <time>2026-05-26T09:55:07.000Z</time>
      </trkpt>
      <trkpt lat="44.65839" lon="5.04671">
        <ele>914</ele>
        <time>2026-05-26T09:55:08.000Z</time>
      </trkpt>
      <trkpt lat="44.6584" lon="5.0467">
        <ele>913</ele>
        <time>2026-05-26T09:55:09.000Z</time>
      </trkpt>
      <trkpt lat="44.65839" lon="5.04671">
        <ele>913</ele>
        <time>2026-05-26T09:55:10.000Z</time>
      </trkpt>
      <trkpt lat="44.65839" lon="5.04671">
        <ele>913</ele>
        <time>2026-05-26T09:55:11.000Z</time>
      </trkpt>
      <trkpt lat="44.65837" lon="5.04671">
        <ele>913</ele>
        <time>2026-05-26T09:55:12.000Z</time>
      </trkpt>
      <trkpt lat="44.65836" lon="5.04671">
        <ele>912</ele>
        <time>2026-05-26T09:55:13.000Z</time>
      </trkpt>
      <trkpt lat="44.65835" lon="5.04671">
        <ele>913</ele>
        <time>2026-05-26T09:55:14.000Z</time>
      </trkpt>
      <trkpt lat="44.65835" lon="5.04671">
        <ele>913</ele>
        <time>2026-05-26T09:55:15.000Z</time>
      </trkpt>
      <trkpt lat="44.65835" lon="5.0467">
        <ele>913</ele>
        <time>2026-05-26T09:55:16.000Z</time>
      </trkpt>
      <trkpt lat="44.65836" lon="5.04668">
        <ele>914</ele>
        <time>2026-05-26T09:55:17.000Z</time>
      </trkpt>
      <trkpt lat="44.65835" lon="5.04667">
        <ele>913</ele>
        <time>2026-05-26T09:55:18.000Z</time>
      </trkpt>
      <trkpt lat="44.65835" lon="5.04666">
        <ele>913</ele>
        <time>2026-05-26T09:55:19.000Z</time>
      </trkpt>
      <trkpt lat="44.65834" lon="5.04665">
        <ele>913</ele>
        <time>2026-05-26T09:55:20.000Z</time>
      </trkpt>
      <trkpt lat="44.65834" lon="5.04665">
        <ele>912</ele>
        <time>2026-05-26T09:55:21.000Z</time>
      </trkpt>
      <trkpt lat="44.65833" lon="5.04664">
        <ele>912</ele>
        <time>2026-05-26T09:55:22.000Z</time>
      </trkpt>
      <trkpt lat="44.65833" lon="5.04664">
        <ele>911</ele>
        <time>2026-05-26T09:55:23.000Z</time>
      </trkpt>
      <trkpt lat="44.65832" lon="5.04663">
        <ele>911</ele>
        <time>2026-05-26T09:55:24.000Z</time>
      </trkpt>
      <trkpt lat="44.6583" lon="5.04663">
        <ele>911</ele>
        <time>2026-05-26T09:55:25.000Z</time>
      </trkpt>
      <trkpt lat="44.6583" lon="5.04663">
        <ele>910</ele>
        <time>2026-05-26T09:55:26.000Z</time>
      </trkpt>
      <trkpt lat="44.65829" lon="5.04663">
        <ele>911</ele>
        <time>2026-05-26T09:55:27.000Z</time>
      </trkpt>
      <trkpt lat="44.65829" lon="5.04664">
        <ele>912</ele>
        <time>2026-05-26T09:55:28.000Z</time>
      </trkpt>
      <trkpt lat="44.65828" lon="5.04663">
        <ele>913</ele>
        <time>2026-05-26T09:55:29.000Z</time>
      </trkpt>
      <trkpt lat="44.65828" lon="5.04662">
        <ele>912</ele>
        <time>2026-05-26T09:55:30.000Z</time>
      </trkpt>
      <trkpt lat="44.65827" lon="5.04662">
        <ele>913</ele>
        <time>2026-05-26T09:55:31.000Z</time>
      </trkpt>
      <trkpt lat="44.65827" lon="5.04661">
        <ele>913</ele>
        <time>2026-05-26T09:55:32.000Z</time>
      </trkpt>
      <trkpt lat="44.65825" lon="5.0466">
        <ele>916</ele>
        <time>2026-05-26T09:55:33.000Z</time>
      </trkpt>
      <trkpt lat="44.65823" lon="5.04659">
        <ele>916</ele>
        <time>2026-05-26T09:55:34.000Z</time>
      </trkpt>
      <trkpt lat="44.65823" lon="5.04659">
        <ele>916</ele>
        <time>2026-05-26T09:55:35.000Z</time>
      </trkpt>
      <trkpt lat="44.65822" lon="5.04659">
        <ele>916</ele>
        <time>2026-05-26T09:55:36.000Z</time>
      </trkpt>
      <trkpt lat="44.65822" lon="5.04658">
        <ele>916</ele>
        <time>2026-05-26T09:55:37.000Z</time>
      </trkpt>
      <trkpt lat="44.65822" lon="5.04658">
        <ele>916</ele>
        <time>2026-05-26T09:55:38.000Z</time>
      </trkpt>
      <trkpt lat="44.65822" lon="5.04658">
        <ele>916</ele>
        <time>2026-05-26T09:55:39.000Z</time>
      </trkpt>
      <trkpt lat="44.65822" lon="5.04658">
        <ele>916</ele>
        <time>2026-05-26T09:55:40.000Z</time>
      </trkpt>
      <trkpt lat="44.65822" lon="5.04658">
        <ele>916</ele>
        <time>2026-05-26T09:55:41.000Z</time>
      </trkpt>
      <trkpt lat="44.65822" lon="5.04658">
        <ele>916</ele>
        <time>2026-05-26T09:55:42.000Z</time>
      </trkpt>
      <trkpt lat="44.65822" lon="5.04658">
        <ele>916</ele>
        <time>2026-05-26T09:55:43.000Z</time>
      </trkpt>
      <trkpt lat="44.65822" lon="5.04658">
        <ele>916</ele>
        <time>2026-05-26T09:55:44.000Z</time>
      </trkpt>
      <trkpt lat="44.65822" lon="5.04658">
        <ele>916</ele>
        <time>2026-05-26T09:55:45.000Z</time>
      </trkpt>
      <trkpt lat="44.65822" lon="5.04658">
        <ele>916</ele>
        <time>2026-05-26T09:55:46.000Z</time>
      </trkpt>
      <trkpt lat="44.65822" lon="5.04658">
        <ele>916</ele>
        <time>2026-05-26T09:55:47.000Z</time>
      </trkpt>
      <trkpt lat="44.65822" lon="5.04658">
        <ele>916</ele>
        <time>2026-05-26T09:55:48.000Z</time>
      </trkpt>
      <trkpt lat="44.65822" lon="5.04658">
        <ele>916</ele>
        <time>2026-05-26T09:55:49.000Z</time>
      </trkpt>
      <trkpt lat="44.65822" lon="5.04658">
        <ele>916</ele>
        <time>2026-05-26T09:55:50.000Z</time>
      </trkpt>
      <trkpt lat="44.65822" lon="5.04658">
        <ele>916</ele>
        <time>2026-05-26T09:55:51.000Z</time>
      </trkpt>
      <trkpt lat="44.65822" lon="5.04658">
        <ele>916</ele>
        <time>2026-05-26T09:55:52.000Z</time>
      </trkpt>
      <trkpt lat="44.65822" lon="5.04658">
        <ele>916</ele>
        <time>2026-05-26T09:55:53.000Z</time>
      </trkpt>
      <trkpt lat="44.65822" lon="5.04658">
        <ele>916</ele>
        <time>2026-05-26T09:55:54.000Z</time>
      </trkpt>
      <trkpt lat="44.65822" lon="5.04658">
        <ele>916</ele>
        <time>2026-05-26T09:55:55.000Z</time>
      </trkpt>
      <trkpt lat="44.65822" lon="5.04658">
        <ele>916</ele>
        <time>2026-05-26T09:55:56.000Z</time>
      </trkpt>
      <trkpt lat="44.65823" lon="5.04658">
        <ele>915</ele>
        <time>2026-05-26T09:55:57.000Z</time>
      </trkpt>
      <trkpt lat="44.65822" lon="5.04659">
        <ele>915</ele>
        <time>2026-05-26T09:55:58.000Z</time>
      </trkpt>
      <trkpt lat="44.65822" lon="5.04659">
        <ele>915</ele>
        <time>2026-05-26T09:55:59.000Z</time>
      </trkpt>
      <trkpt lat="44.65822" lon="5.04659">
        <ele>915</ele>
        <time>2026-05-26T09:56:00.000Z</time>
      </trkpt>
      <trkpt lat="44.65822" lon="5.04659">
        <ele>915</ele>
        <time>2026-05-26T09:56:01.000Z</time>
      </trkpt>
      <trkpt lat="44.65822" lon="5.04659">
        <ele>915</ele>
        <time>2026-05-26T09:56:02.000Z</time>
      </trkpt>
      <trkpt lat="44.65822" lon="5.04659">
        <ele>915</ele>
        <time>2026-05-26T09:56:03.000Z</time>
      </trkpt>
      <trkpt lat="44.65822" lon="5.04659">
        <ele>915</ele>
        <time>2026-05-26T09:56:04.000Z</time>
      </trkpt>
      <trkpt lat="44.65822" lon="5.04659">
        <ele>915</ele>
        <time>2026-05-26T09:56:05.000Z</time>
      </trkpt>
      <trkpt lat="44.65822" lon="5.04659">
        <ele>915</ele>
        <time>2026-05-26T09:56:06.000Z</time>
      </trkpt>
      <trkpt lat="44.65822" lon="5.04659">
        <ele>915</ele>
        <time>2026-05-26T09:56:07.000Z</time>
      </trkpt>
      <trkpt lat="44.65821" lon="5.04658">
        <ele>916</ele>
        <time>2026-05-26T09:56:08.000Z</time>
      </trkpt>
      <trkpt lat="44.65821" lon="5.04659">
        <ele>916</ele>
        <time>2026-05-26T09:56:09.000Z</time>
      </trkpt>
      <trkpt lat="44.65821" lon="5.04659">
        <ele>916</ele>
        <time>2026-05-26T09:56:10.000Z</time>
      </trkpt>
      <trkpt lat="44.65822" lon="5.04659">
        <ele>916</ele>
        <time>2026-05-26T09:56:11.000Z</time>
      </trkpt>
      <trkpt lat="44.65822" lon="5.04659">
        <ele>916</ele>
        <time>2026-05-26T09:56:12.000Z</time>
      </trkpt>
      <trkpt lat="44.65822" lon="5.04659">
        <ele>916</ele>
        <time>2026-05-26T09:56:13.000Z</time>
      </trkpt>
      <trkpt lat="44.65822" lon="5.04659">
        <ele>916</ele>
        <time>2026-05-26T09:56:14.000Z</time>
      </trkpt>
      <trkpt lat="44.65822" lon="5.04659">
        <ele>916</ele>
        <time>2026-05-26T09:56:15.000Z</time>
      </trkpt>
      <trkpt lat="44.65822" lon="5.04659">
        <ele>916</ele>
        <time>2026-05-26T09:56:16.000Z</time>
      </trkpt>
      <trkpt lat="44.65822" lon="5.04659">
        <ele>916</ele>
        <time>2026-05-26T09:56:17.000Z</time>
      </trkpt>
      <trkpt lat="44.65822" lon="5.04659">
        <ele>916</ele>
        <time>2026-05-26T09:56:18.000Z</time>
      </trkpt>
      <trkpt lat="44.65822" lon="5.04659">
        <ele>916</ele>
        <time>2026-05-26T09:56:19.000Z</time>
      </trkpt>
      <trkpt lat="44.65822" lon="5.04659">
        <ele>916</ele>
        <time>2026-05-26T09:56:20.000Z</time>
      </trkpt>
      <trkpt lat="44.65822" lon="5.04659">
        <ele>916</ele>
        <time>2026-05-26T09:56:21.000Z</time>
      </trkpt>
      <trkpt lat="44.65822" lon="5.04659">
        <ele>916</ele>
        <time>2026-05-26T09:56:22.000Z</time>
      </trkpt>
      <trkpt lat="44.65822" lon="5.04659">
        <ele>916</ele>
        <time>2026-05-26T09:56:23.000Z</time>
      </trkpt>
      <trkpt lat="44.65822" lon="5.04659">
        <ele>916</ele>
        <time>2026-05-26T09:56:24.000Z</time>
      </trkpt>
      <trkpt lat="44.65822" lon="5.04659">
        <ele>916</ele>
        <time>2026-05-26T09:56:25.000Z</time>
      </trkpt>
      <trkpt lat="44.65822" lon="5.04659">
        <ele>916</ele>
        <time>2026-05-26T09:56:26.000Z</time>
      </trkpt>
      <trkpt lat="44.65822" lon="5.04659">
        <ele>916</ele>
        <time>2026-05-26T09:56:27.000Z</time>
      </trkpt>
      <trkpt lat="44.65822" lon="5.04659">
        <ele>916</ele>
        <time>2026-05-26T09:56:28.000Z</time>
      </trkpt>
      <trkpt lat="44.65822" lon="5.04659">
        <ele>916</ele>
        <time>2026-05-26T09:56:29.000Z</time>
      </trkpt>
      <trkpt lat="44.65822" lon="5.04659">
        <ele>916</ele>
        <time>2026-05-26T09:56:30.000Z</time>
      </trkpt>
      <trkpt lat="44.65822" lon="5.04659">
        <ele>916</ele>
        <time>2026-05-26T09:56:31.000Z</time>
      </trkpt>
      <trkpt lat="44.65822" lon="5.04659">
        <ele>916</ele>
        <time>2026-05-26T09:56:32.000Z</time>
      </trkpt>
      <trkpt lat="44.65822" lon="5.04659">
        <ele>916</ele>
        <time>2026-05-26T09:56:33.000Z</time>
      </trkpt>
      <trkpt lat="44.65822" lon="5.04659">
        <ele>916</ele>
        <time>2026-05-26T09:56:34.000Z</time>
      </trkpt>
      <trkpt lat="44.65822" lon="5.04659">
        <ele>916</ele>
        <time>2026-05-26T09:56:35.000Z</time>
      </trkpt>
      <trkpt lat="44.65822" lon="5.04659">
        <ele>916</ele>
        <time>2026-05-26T09:56:36.000Z</time>
      </trkpt>
      <trkpt lat="44.65822" lon="5.04659">
        <ele>916</ele>
        <time>2026-05-26T09:56:37.000Z</time>
      </trkpt>
      <trkpt lat="44.65822" lon="5.04659">
        <ele>916</ele>
        <time>2026-05-26T09:56:38.000Z</time>
      </trkpt>
      <trkpt lat="44.65822" lon="5.04659">
        <ele>916</ele>
        <time>2026-05-26T09:56:39.000Z</time>
      </trkpt>
      <trkpt lat="44.65822" lon="5.04659">
        <ele>916</ele>
        <time>2026-05-26T09:56:40.000Z</time>
      </trkpt>
      <trkpt lat="44.65822" lon="5.04659">
        <ele>916</ele>
        <time>2026-05-26T09:56:41.000Z</time>
      </trkpt>
      <trkpt lat="44.65822" lon="5.04659">
        <ele>916</ele>
        <time>2026-05-26T09:56:42.000Z</time>
      </trkpt>
      <trkpt lat="44.65822" lon="5.04659">
        <ele>916</ele>
        <time>2026-05-26T09:56:43.000Z</time>
      </trkpt>
      <trkpt lat="44.65822" lon="5.04659">
        <ele>916</ele>
        <time>2026-05-26T09:56:44.000Z</time>
      </trkpt>
      <trkpt lat="44.65822" lon="5.04659">
        <ele>916</ele>
        <time>2026-05-26T09:56:45.000Z</time>
      </trkpt>
      <trkpt lat="44.65822" lon="5.04659">
        <ele>916</ele>
        <time>2026-05-26T09:56:46.000Z</time>
      </trkpt>
      <trkpt lat="44.65822" lon="5.04659">
        <ele>916</ele>
        <time>2026-05-26T09:56:47.000Z</time>
      </trkpt>
      <trkpt lat="44.65822" lon="5.04659">
        <ele>916</ele>
        <time>2026-05-26T09:56:48.000Z</time>
      </trkpt>
      <trkpt lat="44.65822" lon="5.04659">
        <ele>916</ele>
        <time>2026-05-26T09:56:49.000Z</time>
      </trkpt>
      <trkpt lat="44.65822" lon="5.04659">
        <ele>916</ele>
        <time>2026-05-26T09:56:50.000Z</time>
      </trkpt>
      <trkpt lat="44.65822" lon="5.04659">
        <ele>916</ele>
        <time>2026-05-26T09:56:51.000Z</time>
      </trkpt>
      <trkpt lat="44.65822" lon="5.04659">
        <ele>916</ele>
        <time>2026-05-26T09:56:52.000Z</time>
      </trkpt>
      <trkpt lat="44.65822" lon="5.04659">
        <ele>916</ele>
        <time>2026-05-26T09:56:53.000Z</time>
      </trkpt>
      <trkpt lat="44.65822" lon="5.04659">
        <ele>916</ele>
        <time>2026-05-26T09:56:54.000Z</time>
      </trkpt>
      <trkpt lat="44.65822" lon="5.04659">
        <ele>916</ele>
        <time>2026-05-26T09:56:55.000Z</time>
      </trkpt>
      <trkpt lat="44.65822" lon="5.04659">
        <ele>916</ele>
        <time>2026-05-26T09:56:56.000Z</time>
      </trkpt>
      <trkpt lat="44.65822" lon="5.04659">
        <ele>916</ele>
        <time>2026-05-26T09:56:57.000Z</time>
      </trkpt>
      <trkpt lat="44.65822" lon="5.04659">
        <ele>916</ele>
        <time>2026-05-26T09:56:58.000Z</time>
      </trkpt>
      <trkpt lat="44.65822" lon="5.04659">
        <ele>916</ele>
        <time>2026-05-26T09:56:59.000Z</time>
      </trkpt>
      <trkpt lat="44.65822" lon="5.04659">
        <ele>916</ele>
        <time>2026-05-26T09:57:00.000Z</time>
      </trkpt>
      <trkpt lat="44.65822" lon="5.04659">
        <ele>916</ele>
        <time>2026-05-26T09:57:01.000Z</time>
      </trkpt>
      <trkpt lat="44.65822" lon="5.04659">
        <ele>916</ele>
        <time>2026-05-26T09:57:02.000Z</time>
      </trkpt>
      <trkpt lat="44.65822" lon="5.04659">
        <ele>916</ele>
        <time>2026-05-26T09:57:03.000Z</time>
      </trkpt>
      <trkpt lat="44.65822" lon="5.04659">
        <ele>916</ele>
        <time>2026-05-26T09:57:04.000Z</time>
      </trkpt>
      <trkpt lat="44.65822" lon="5.04659">
        <ele>916</ele>
        <time>2026-05-26T09:57:05.000Z</time>
      </trkpt>
      <trkpt lat="44.65822" lon="5.04659">
        <ele>916</ele>
        <time>2026-05-26T09:57:06.000Z</time>
      </trkpt>
      <trkpt lat="44.65822" lon="5.0466">
        <ele>916</ele>
        <time>2026-05-26T09:57:07.000Z</time>
      </trkpt>
      <trkpt lat="44.65821" lon="5.0466">
        <ele>916</ele>
        <time>2026-05-26T09:57:08.000Z</time>
      </trkpt>
      <trkpt lat="44.65821" lon="5.0466">
        <ele>916</ele>
        <time>2026-05-26T09:57:09.000Z</time>
      </trkpt>
      <trkpt lat="44.65821" lon="5.0466">
        <ele>916</ele>
        <time>2026-05-26T09:57:10.000Z</time>
      </trkpt>
      <trkpt lat="44.65821" lon="5.0466">
        <ele>916</ele>
        <time>2026-05-26T09:57:11.000Z</time>
      </trkpt>
      <trkpt lat="44.65821" lon="5.0466">
        <ele>916</ele>
        <time>2026-05-26T09:57:12.000Z</time>
      </trkpt>
      <trkpt lat="44.65821" lon="5.0466">
        <ele>916</ele>
        <time>2026-05-26T09:57:13.000Z</time>
      </trkpt>
      <trkpt lat="44.65821" lon="5.0466">
        <ele>916</ele>
        <time>2026-05-26T09:57:14.000Z</time>
      </trkpt>
      <trkpt lat="44.65821" lon="5.0466">
        <ele>916</ele>
        <time>2026-05-26T09:57:15.000Z</time>
      </trkpt>
      <trkpt lat="44.65821" lon="5.0466">
        <ele>916</ele>
        <time>2026-05-26T09:57:16.000Z</time>
      </trkpt>
      <trkpt lat="44.65821" lon="5.0466">
        <ele>916</ele>
        <time>2026-05-26T09:57:17.000Z</time>
      </trkpt>
      <trkpt lat="44.65821" lon="5.0466">
        <ele>916</ele>
        <time>2026-05-26T09:57:18.000Z</time>
      </trkpt>
      <trkpt lat="44.65821" lon="5.0466">
        <ele>916</ele>
        <time>2026-05-26T09:57:19.000Z</time>
      </trkpt>
      <trkpt lat="44.65821" lon="5.0466">
        <ele>916</ele>
        <time>2026-05-26T09:57:20.000Z</time>
      </trkpt>
      <trkpt lat="44.65821" lon="5.0466">
        <ele>916</ele>
        <time>2026-05-26T09:57:21.000Z</time>
      </trkpt>
      <trkpt lat="44.65821" lon="5.0466">
        <ele>916</ele>
        <time>2026-05-26T09:57:22.000Z</time>
      </trkpt>
      <trkpt lat="44.65821" lon="5.0466">
        <ele>916</ele>
        <time>2026-05-26T09:57:23.000Z</time>
      </trkpt>
      <trkpt lat="44.65821" lon="5.0466">
        <ele>916</ele>
        <time>2026-05-26T09:57:24.000Z</time>
      </trkpt>
      <trkpt lat="44.65821" lon="5.0466">
        <ele>916</ele>
        <time>2026-05-26T09:57:25.000Z</time>
      </trkpt>
      <trkpt lat="44.65821" lon="5.0466">
        <ele>916</ele>
        <time>2026-05-26T09:57:26.000Z</time>
      </trkpt>
      <trkpt lat="44.65821" lon="5.0466">
        <ele>916</ele>
        <time>2026-05-26T09:57:27.000Z</time>
      </trkpt>
      <trkpt lat="44.65821" lon="5.0466">
        <ele>916</ele>
        <time>2026-05-26T09:57:28.000Z</time>
      </trkpt>
      <trkpt lat="44.65821" lon="5.0466">
        <ele>916</ele>
        <time>2026-05-26T09:57:29.000Z</time>
      </trkpt>
      <trkpt lat="44.65821" lon="5.0466">
        <ele>916</ele>
        <time>2026-05-26T09:57:30.000Z</time>
      </trkpt>
      <trkpt lat="44.65821" lon="5.04659">
        <ele>916</ele>
        <time>2026-05-26T09:57:31.000Z</time>
      </trkpt>
      <trkpt lat="44.65821" lon="5.04659">
        <ele>916</ele>
        <time>2026-05-26T09:57:32.000Z</time>
      </trkpt>
      <trkpt lat="44.65821" lon="5.04658">
        <ele>916</ele>
        <time>2026-05-26T09:57:33.000Z</time>
      </trkpt>
      <trkpt lat="44.65821" lon="5.04658">
        <ele>917</ele>
        <time>2026-05-26T09:57:34.000Z</time>
      </trkpt>
      <trkpt lat="44.65821" lon="5.04658">
        <ele>917</ele>
        <time>2026-05-26T09:57:35.000Z</time>
      </trkpt>
      <trkpt lat="44.65821" lon="5.04658">
        <ele>917</ele>
        <time>2026-05-26T09:57:36.000Z</time>
      </trkpt>
      <trkpt lat="44.65821" lon="5.04658">
        <ele>917</ele>
        <time>2026-05-26T09:57:37.000Z</time>
      </trkpt>
      <trkpt lat="44.65821" lon="5.04658">
        <ele>917</ele>
        <time>2026-05-26T09:57:38.000Z</time>
      </trkpt>
      <trkpt lat="44.65821" lon="5.04658">
        <ele>917</ele>
        <time>2026-05-26T09:57:39.000Z</time>
      </trkpt>
      <trkpt lat="44.65821" lon="5.04658">
        <ele>917</ele>
        <time>2026-05-26T09:57:40.000Z</time>
      </trkpt>
      <trkpt lat="44.65821" lon="5.04658">
        <ele>917</ele>
        <time>2026-05-26T09:57:41.000Z</time>
      </trkpt>
      <trkpt lat="44.65821" lon="5.04658">
        <ele>917</ele>
        <time>2026-05-26T09:57:42.000Z</time>
      </trkpt>
      <trkpt lat="44.65821" lon="5.04658">
        <ele>917</ele>
        <time>2026-05-26T09:57:43.000Z</time>
      </trkpt>
      <trkpt lat="44.65821" lon="5.04658">
        <ele>917</ele>
        <time>2026-05-26T09:57:44.000Z</time>
      </trkpt>
      <trkpt lat="44.65821" lon="5.04658">
        <ele>917</ele>
        <time>2026-05-26T09:57:45.000Z</time>
      </trkpt>
      <trkpt lat="44.6582" lon="5.04658">
        <ele>917</ele>
        <time>2026-05-26T09:57:46.000Z</time>
      </trkpt>
      <trkpt lat="44.65821" lon="5.04658">
        <ele>916</ele>
        <time>2026-05-26T09:57:47.000Z</time>
      </trkpt>
      <trkpt lat="44.65821" lon="5.04658">
        <ele>916</ele>
        <time>2026-05-26T09:57:48.000Z</time>
      </trkpt>
      <trkpt lat="44.65821" lon="5.04659">
        <ele>916</ele>
        <time>2026-05-26T09:57:49.000Z</time>
      </trkpt>
      <trkpt lat="44.65821" lon="5.04659">
        <ele>916</ele>
        <time>2026-05-26T09:57:50.000Z</time>
      </trkpt>
      <trkpt lat="44.65821" lon="5.04659">
        <ele>916</ele>
        <time>2026-05-26T09:57:51.000Z</time>
      </trkpt>
      <trkpt lat="44.65821" lon="5.04659">
        <ele>916</ele>
        <time>2026-05-26T09:57:52.000Z</time>
      </trkpt>
      <trkpt lat="44.65821" lon="5.04659">
        <ele>916</ele>
        <time>2026-05-26T09:57:53.000Z</time>
      </trkpt>
      <trkpt lat="44.65821" lon="5.04659">
        <ele>916</ele>
        <time>2026-05-26T09:57:54.000Z</time>
      </trkpt>
      <trkpt lat="44.65821" lon="5.04659">
        <ele>916</ele>
        <time>2026-05-26T09:57:55.000Z</time>
      </trkpt>
      <trkpt lat="44.65821" lon="5.04659">
        <ele>916</ele>
        <time>2026-05-26T09:57:56.000Z</time>
      </trkpt>
      <trkpt lat="44.65821" lon="5.04659">
        <ele>916</ele>
        <time>2026-05-26T09:57:57.000Z</time>
      </trkpt>
      <trkpt lat="44.65821" lon="5.04659">
        <ele>916</ele>
        <time>2026-05-26T09:57:58.000Z</time>
      </trkpt>
      <trkpt lat="44.65821" lon="5.04659">
        <ele>916</ele>
        <time>2026-05-26T09:57:59.000Z</time>
      </trkpt>
      <trkpt lat="44.65821" lon="5.04659">
        <ele>916</ele>
        <time>2026-05-26T09:58:00.000Z</time>
      </trkpt>
      <trkpt lat="44.65821" lon="5.04659">
        <ele>916</ele>
        <time>2026-05-26T09:58:01.000Z</time>
      </trkpt>
      <trkpt lat="44.65821" lon="5.04659">
        <ele>916</ele>
        <time>2026-05-26T09:58:02.000Z</time>
      </trkpt>
      <trkpt lat="44.65821" lon="5.04659">
        <ele>916</ele>
        <time>2026-05-26T09:58:03.000Z</time>
      </trkpt>
      <trkpt lat="44.65821" lon="5.04659">
        <ele>916</ele>
        <time>2026-05-26T09:58:04.000Z</time>
      </trkpt>
      <trkpt lat="44.65821" lon="5.04659">
        <ele>916</ele>
        <time>2026-05-26T09:58:05.000Z</time>
      </trkpt>
      <trkpt lat="44.65821" lon="5.04659">
        <ele>916</ele>
        <time>2026-05-26T09:58:06.000Z</time>
      </trkpt>
      <trkpt lat="44.65821" lon="5.04659">
        <ele>916</ele>
        <time>2026-05-26T09:58:07.000Z</time>
      </trkpt>
      <trkpt lat="44.65821" lon="5.04659">
        <ele>916</ele>
        <time>2026-05-26T09:58:08.000Z</time>
      </trkpt>
      <trkpt lat="44.65821" lon="5.04659">
        <ele>916</ele>
        <time>2026-05-26T09:58:09.000Z</time>
      </trkpt>
      <trkpt lat="44.65821" lon="5.04659">
        <ele>916</ele>
        <time>2026-05-26T09:58:10.000Z</time>
      </trkpt>
      <trkpt lat="44.65821" lon="5.04659">
        <ele>916</ele>
        <time>2026-05-26T09:58:11.000Z</time>
      </trkpt>
      <trkpt lat="44.65821" lon="5.04659">
        <ele>916</ele>
        <time>2026-05-26T09:58:12.000Z</time>
      </trkpt>
      <trkpt lat="44.65821" lon="5.04659">
        <ele>916</ele>
        <time>2026-05-26T09:58:13.000Z</time>
      </trkpt>
      <trkpt lat="44.65821" lon="5.04659">
        <ele>916</ele>
        <time>2026-05-26T09:58:14.000Z</time>
      </trkpt>
      <trkpt lat="44.65821" lon="5.04659">
        <ele>916</ele>
        <time>2026-05-26T09:58:15.000Z</time>
      </trkpt>
      <trkpt lat="44.65821" lon="5.04659">
        <ele>916</ele>
        <time>2026-05-26T09:58:16.000Z</time>
      </trkpt>
      <trkpt lat="44.65821" lon="5.04659">
        <ele>916</ele>
        <time>2026-05-26T09:58:17.000Z</time>
      </trkpt>
      <trkpt lat="44.65821" lon="5.04659">
        <ele>916</ele>
        <time>2026-05-26T09:58:18.000Z</time>
      </trkpt>
      <trkpt lat="44.65821" lon="5.04659">
        <ele>916</ele>
        <time>2026-05-26T09:58:19.000Z</time>
      </trkpt>
      <trkpt lat="44.65821" lon="5.04659">
        <ele>916</ele>
        <time>2026-05-26T09:58:20.000Z</time>
      </trkpt>
      <trkpt lat="44.65821" lon="5.04659">
        <ele>916</ele>
        <time>2026-05-26T09:58:21.000Z</time>
      </trkpt>
      <trkpt lat="44.65821" lon="5.04659">
        <ele>916</ele>
        <time>2026-05-26T09:58:22.000Z</time>
      </trkpt>
      <trkpt lat="44.65821" lon="5.04659">
        <ele>916</ele>
        <time>2026-05-26T09:58:23.000Z</time>
      </trkpt>
      <trkpt lat="44.65821" lon="5.04659">
        <ele>916</ele>
        <time>2026-05-26T09:58:24.000Z</time>
      </trkpt>
      <trkpt lat="44.65821" lon="5.04659">
        <ele>916</ele>
        <time>2026-05-26T09:58:25.000Z</time>
      </trkpt>
      <trkpt lat="44.65821" lon="5.04659">
        <ele>916</ele>
        <time>2026-05-26T09:58:26.000Z</time>
      </trkpt>
      <trkpt lat="44.65821" lon="5.04659">
        <ele>916</ele>
        <time>2026-05-26T09:58:27.000Z</time>
      </trkpt>
      <trkpt lat="44.65821" lon="5.04659">
        <ele>916</ele>
        <time>2026-05-26T09:58:28.000Z</time>
      </trkpt>
      <trkpt lat="44.65821" lon="5.04659">
        <ele>916</ele>
        <time>2026-05-26T09:58:29.000Z</time>
      </trkpt>
      <trkpt lat="44.65821" lon="5.04659">
        <ele>916</ele>
        <time>2026-05-26T09:58:30.000Z</time>
      </trkpt>
      <trkpt lat="44.65821" lon="5.04659">
        <ele>916</ele>
        <time>2026-05-26T09:58:31.000Z</time>
      </trkpt>
      <trkpt lat="44.65821" lon="5.04659">
        <ele>916</ele>
        <time>2026-05-26T09:58:32.000Z</time>
      </trkpt>
      <trkpt lat="44.65821" lon="5.04659">
        <ele>916</ele>
        <time>2026-05-26T09:58:33.000Z</time>
      </trkpt>
      <trkpt lat="44.65821" lon="5.04659">
        <ele>916</ele>
        <time>2026-05-26T09:58:34.000Z</time>
      </trkpt>
      <trkpt lat="44.65821" lon="5.04659">
        <ele>916</ele>
        <time>2026-05-26T09:58:35.000Z</time>
      </trkpt>
      <trkpt lat="44.65821" lon="5.04659">
        <ele>916</ele>
        <time>2026-05-26T09:58:36.000Z</time>
      </trkpt>
      <trkpt lat="44.65821" lon="5.0466">
        <ele>916</ele>
        <time>2026-05-26T09:58:37.000Z</time>
      </trkpt>
      <trkpt lat="44.6582" lon="5.0466">
        <ele>917</ele>
        <time>2026-05-26T09:58:38.000Z</time>
      </trkpt>
      <trkpt lat="44.6582" lon="5.04659">
        <ele>917</ele>
        <time>2026-05-26T09:58:39.000Z</time>
      </trkpt>
      <trkpt lat="44.65819" lon="5.04659">
        <ele>916</ele>
        <time>2026-05-26T09:58:40.000Z</time>
      </trkpt>
      <trkpt lat="44.65819" lon="5.04659">
        <ele>916</ele>
        <time>2026-05-26T09:58:41.000Z</time>
      </trkpt>
      <trkpt lat="44.65819" lon="5.04659">
        <ele>916</ele>
        <time>2026-05-26T09:58:42.000Z</time>
      </trkpt>
      <trkpt lat="44.65819" lon="5.04658">
        <ele>916</ele>
        <time>2026-05-26T09:58:43.000Z</time>
      </trkpt>
      <trkpt lat="44.65819" lon="5.04659">
        <ele>916</ele>
        <time>2026-05-26T09:58:44.000Z</time>
      </trkpt>
      <trkpt lat="44.65819" lon="5.04659">
        <ele>916</ele>
        <time>2026-05-26T09:58:45.000Z</time>
      </trkpt>
      <trkpt lat="44.65819" lon="5.04659">
        <ele>916</ele>
        <time>2026-05-26T09:58:46.000Z</time>
      </trkpt>
      <trkpt lat="44.6582" lon="5.04658">
        <ele>916</ele>
        <time>2026-05-26T09:58:47.000Z</time>
      </trkpt>
      <trkpt lat="44.6582" lon="5.04658">
        <ele>916</ele>
        <time>2026-05-26T09:58:48.000Z</time>
      </trkpt>
      <trkpt lat="44.6582" lon="5.04658">
        <ele>916</ele>
        <time>2026-05-26T09:58:49.000Z</time>
      </trkpt>
      <trkpt lat="44.6582" lon="5.04658">
        <ele>916</ele>
        <time>2026-05-26T09:58:50.000Z</time>
      </trkpt>
      <trkpt lat="44.6582" lon="5.04658">
        <ele>916</ele>
        <time>2026-05-26T09:58:51.000Z</time>
      </trkpt>
      <trkpt lat="44.6582" lon="5.04658">
        <ele>916</ele>
        <time>2026-05-26T09:58:52.000Z</time>
      </trkpt>
      <trkpt lat="44.6582" lon="5.04658">
        <ele>916</ele>
        <time>2026-05-26T09:58:53.000Z</time>
      </trkpt>
      <trkpt lat="44.6582" lon="5.04658">
        <ele>916</ele>
        <time>2026-05-26T09:58:54.000Z</time>
      </trkpt>
      <trkpt lat="44.6582" lon="5.04658">
        <ele>916</ele>
        <time>2026-05-26T09:58:55.000Z</time>
      </trkpt>
      <trkpt lat="44.6582" lon="5.04658">
        <ele>916</ele>
        <time>2026-05-26T09:58:56.000Z</time>
      </trkpt>
      <trkpt lat="44.6582" lon="5.04658">
        <ele>916</ele>
        <time>2026-05-26T09:58:57.000Z</time>
      </trkpt>
      <trkpt lat="44.6582" lon="5.04658">
        <ele>916</ele>
        <time>2026-05-26T09:58:58.000Z</time>
      </trkpt>
      <trkpt lat="44.6582" lon="5.04658">
        <ele>916</ele>
        <time>2026-05-26T09:58:59.000Z</time>
      </trkpt>
      <trkpt lat="44.6582" lon="5.04658">
        <ele>916</ele>
        <time>2026-05-26T09:59:00.000Z</time>
      </trkpt>
      <trkpt lat="44.6582" lon="5.04658">
        <ele>916</ele>
        <time>2026-05-26T09:59:01.000Z</time>
      </trkpt>
      <trkpt lat="44.6582" lon="5.04658">
        <ele>916</ele>
        <time>2026-05-26T09:59:02.000Z</time>
      </trkpt>
      <trkpt lat="44.6582" lon="5.04658">
        <ele>916</ele>
        <time>2026-05-26T09:59:03.000Z</time>
      </trkpt>
      <trkpt lat="44.6582" lon="5.04658">
        <ele>916</ele>
        <time>2026-05-26T09:59:04.000Z</time>
      </trkpt>
      <trkpt lat="44.6582" lon="5.04658">
        <ele>916</ele>
        <time>2026-05-26T09:59:05.000Z</time>
      </trkpt>
      <trkpt lat="44.6582" lon="5.04658">
        <ele>916</ele>
        <time>2026-05-26T09:59:06.000Z</time>
      </trkpt>
      <trkpt lat="44.6582" lon="5.04658">
        <ele>916</ele>
        <time>2026-05-26T09:59:07.000Z</time>
      </trkpt>
      <trkpt lat="44.6582" lon="5.04658">
        <ele>916</ele>
        <time>2026-05-26T09:59:08.000Z</time>
      </trkpt>
      <trkpt lat="44.6582" lon="5.04658">
        <ele>916</ele>
        <time>2026-05-26T09:59:09.000Z</time>
      </trkpt>
      <trkpt lat="44.6582" lon="5.04658">
        <ele>916</ele>
        <time>2026-05-26T09:59:10.000Z</time>
      </trkpt>
      <trkpt lat="44.6582" lon="5.04658">
        <ele>916</ele>
        <time>2026-05-26T09:59:11.000Z</time>
      </trkpt>
      <trkpt lat="44.6582" lon="5.04658">
        <ele>916</ele>
        <time>2026-05-26T09:59:12.000Z</time>
      </trkpt>
      <trkpt lat="44.6582" lon="5.04658">
        <ele>916</ele>
        <time>2026-05-26T09:59:13.000Z</time>
      </trkpt>
      <trkpt lat="44.6582" lon="5.04658">
        <ele>916</ele>
        <time>2026-05-26T09:59:14.000Z</time>
      </trkpt>
      <trkpt lat="44.6582" lon="5.04658">
        <ele>916</ele>
        <time>2026-05-26T09:59:15.000Z</time>
      </trkpt>
      <trkpt lat="44.6582" lon="5.04658">
        <ele>916</ele>
        <time>2026-05-26T09:59:16.000Z</time>
      </trkpt>
      <trkpt lat="44.6582" lon="5.04658">
        <ele>916</ele>
        <time>2026-05-26T09:59:17.000Z</time>
      </trkpt>
      <trkpt lat="44.6582" lon="5.04658">
        <ele>916</ele>
        <time>2026-05-26T09:59:18.000Z</time>
      </trkpt>
      <trkpt lat="44.6582" lon="5.04658">
        <ele>916</ele>
        <time>2026-05-26T09:59:19.000Z</time>
      </trkpt>
      <trkpt lat="44.6582" lon="5.04658">
        <ele>916</ele>
        <time>2026-05-26T09:59:20.000Z</time>
      </trkpt>
      <trkpt lat="44.6582" lon="5.04658">
        <ele>916</ele>
        <time>2026-05-26T09:59:21.000Z</time>
      </trkpt>
      <trkpt lat="44.6582" lon="5.04658">
        <ele>916</ele>
        <time>2026-05-26T09:59:22.000Z</time>
      </trkpt>
      <trkpt lat="44.6582" lon="5.04658">
        <ele>916</ele>
        <time>2026-05-26T09:59:23.000Z</time>
      </trkpt>
      <trkpt lat="44.6582" lon="5.04658">
        <ele>916</ele>
        <time>2026-05-26T09:59:24.000Z</time>
      </trkpt>
      <trkpt lat="44.65821" lon="5.04659">
        <ele>916</ele>
        <time>2026-05-26T09:59:25.000Z</time>
      </trkpt>
      <trkpt lat="44.65822" lon="5.04659">
        <ele>916</ele>
        <time>2026-05-26T09:59:26.000Z</time>
      </trkpt>
      <trkpt lat="44.65823" lon="5.0466">
        <ele>916</ele>
        <time>2026-05-26T09:59:27.000Z</time>
      </trkpt>
      <trkpt lat="44.65823" lon="5.0466">
        <ele>917</ele>
        <time>2026-05-26T09:59:28.000Z</time>
      </trkpt>
      <trkpt lat="44.65824" lon="5.0466">
        <ele>917</ele>
        <time>2026-05-26T09:59:29.000Z</time>
      </trkpt>
      <trkpt lat="44.65825" lon="5.04659">
        <ele>917</ele>
        <time>2026-05-26T09:59:30.000Z</time>
      </trkpt>
      <trkpt lat="44.65826" lon="5.04659">
        <ele>918</ele>
        <time>2026-05-26T09:59:31.000Z</time>
      </trkpt>
      <trkpt lat="44.65826" lon="5.0466">
        <ele>918</ele>
        <time>2026-05-26T09:59:32.000Z</time>
      </trkpt>
      <trkpt lat="44.65826" lon="5.04661">
        <ele>918</ele>
        <time>2026-05-26T09:59:33.000Z</time>
      </trkpt>
      <trkpt lat="44.65827" lon="5.0466">
        <ele>918</ele>
        <time>2026-05-26T09:59:34.000Z</time>
      </trkpt>
      <trkpt lat="44.65827" lon="5.04659">
        <ele>919</ele>
        <time>2026-05-26T09:59:35.000Z</time>
      </trkpt>
      <trkpt lat="44.65826" lon="5.0466">
        <ele>919</ele>
        <time>2026-05-26T09:59:36.000Z</time>
      </trkpt>
      <trkpt lat="44.65827" lon="5.04659">
        <ele>918</ele>
        <time>2026-05-26T09:59:37.000Z</time>
      </trkpt>
      <trkpt lat="44.65827" lon="5.04658">
        <ele>918</ele>
        <time>2026-05-26T09:59:38.000Z</time>
      </trkpt>
      <trkpt lat="44.65826" lon="5.04658">
        <ele>918</ele>
        <time>2026-05-26T09:59:39.000Z</time>
      </trkpt>
      <trkpt lat="44.65827" lon="5.04657">
        <ele>920</ele>
        <time>2026-05-26T09:59:40.000Z</time>
      </trkpt>
      <trkpt lat="44.65828" lon="5.04656">
        <ele>919</ele>
        <time>2026-05-26T09:59:41.000Z</time>
      </trkpt>
      <trkpt lat="44.65828" lon="5.04655">
        <ele>919</ele>
        <time>2026-05-26T09:59:42.000Z</time>
      </trkpt>
      <trkpt lat="44.65828" lon="5.04655">
        <ele>919</ele>
        <time>2026-05-26T09:59:43.000Z</time>
      </trkpt>
      <trkpt lat="44.65828" lon="5.04654">
        <ele>920</ele>
        <time>2026-05-26T09:59:44.000Z</time>
      </trkpt>
      <trkpt lat="44.65829" lon="5.04652">
        <ele>921</ele>
        <time>2026-05-26T09:59:45.000Z</time>
      </trkpt>
      <trkpt lat="44.65829" lon="5.04651">
        <ele>922</ele>
        <time>2026-05-26T09:59:46.000Z</time>
      </trkpt>
      <trkpt lat="44.6583" lon="5.0465">
        <ele>921</ele>
        <time>2026-05-26T09:59:47.000Z</time>
      </trkpt>
      <trkpt lat="44.65831" lon="5.04648">
        <ele>921</ele>
        <time>2026-05-26T09:59:48.000Z</time>
      </trkpt>
      <trkpt lat="44.65831" lon="5.04647">
        <ele>921</ele>
        <time>2026-05-26T09:59:49.000Z</time>
      </trkpt>
      <trkpt lat="44.65831" lon="5.04646">
        <ele>920</ele>
        <time>2026-05-26T09:59:50.000Z</time>
      </trkpt>
      <trkpt lat="44.6583" lon="5.04645">
        <ele>920</ele>
        <time>2026-05-26T09:59:51.000Z</time>
      </trkpt>
      <trkpt lat="44.65831" lon="5.04644">
        <ele>921</ele>
        <time>2026-05-26T09:59:52.000Z</time>
      </trkpt>
      <trkpt lat="44.6583" lon="5.04642">
        <ele>921</ele>
        <time>2026-05-26T09:59:53.000Z</time>
      </trkpt>
      <trkpt lat="44.65829" lon="5.04642">
        <ele>921</ele>
        <time>2026-05-26T09:59:54.000Z</time>
      </trkpt>
      <trkpt lat="44.65829" lon="5.04641">
        <ele>923</ele>
        <time>2026-05-26T09:59:55.000Z</time>
      </trkpt>
      <trkpt lat="44.65829" lon="5.0464">
        <ele>923</ele>
        <time>2026-05-26T09:59:56.000Z</time>
      </trkpt>
      <trkpt lat="44.65828" lon="5.04639">
        <ele>923</ele>
        <time>2026-05-26T09:59:57.000Z</time>
      </trkpt>
      <trkpt lat="44.65828" lon="5.04639">
        <ele>923</ele>
        <time>2026-05-26T09:59:58.000Z</time>
      </trkpt>
      <trkpt lat="44.65828" lon="5.04639">
        <ele>924</ele>
        <time>2026-05-26T09:59:59.000Z</time>
      </trkpt>
      <trkpt lat="44.65828" lon="5.04637">
        <ele>925</ele>
        <time>2026-05-26T10:00:00.000Z</time>
      </trkpt>
      <trkpt lat="44.65828" lon="5.04636">
        <ele>925</ele>
        <time>2026-05-26T10:00:01.000Z</time>
      </trkpt>
      <trkpt lat="44.65828" lon="5.04636">
        <ele>925</ele>
        <time>2026-05-26T10:00:02.000Z</time>
      </trkpt>
      <trkpt lat="44.65828" lon="5.04637">
        <ele>925</ele>
        <time>2026-05-26T10:00:03.000Z</time>
      </trkpt>
      <trkpt lat="44.65828" lon="5.04638">
        <ele>925</ele>
        <time>2026-05-26T10:00:04.000Z</time>
      </trkpt>
      <trkpt lat="44.65828" lon="5.04637">
        <ele>925</ele>
        <time>2026-05-26T10:00:05.000Z</time>
      </trkpt>
      <trkpt lat="44.65829" lon="5.04636">
        <ele>926</ele>
        <time>2026-05-26T10:00:06.000Z</time>
      </trkpt>
      <trkpt lat="44.6583" lon="5.04637">
        <ele>931</ele>
        <time>2026-05-26T10:00:07.000Z</time>
      </trkpt>
      <trkpt lat="44.6583" lon="5.04636">
        <ele>932</ele>
        <time>2026-05-26T10:00:08.000Z</time>
      </trkpt>
      <trkpt lat="44.6583" lon="5.04634">
        <ele>930</ele>
        <time>2026-05-26T10:00:09.000Z</time>
      </trkpt>
      <trkpt lat="44.6583" lon="5.04635">
        <ele>930</ele>
        <time>2026-05-26T10:00:10.000Z</time>
      </trkpt>
      <trkpt lat="44.65829" lon="5.04634">
        <ele>928</ele>
        <time>2026-05-26T10:00:11.000Z</time>
      </trkpt>
      <trkpt lat="44.65829" lon="5.04633">
        <ele>928</ele>
        <time>2026-05-26T10:00:12.000Z</time>
      </trkpt>
      <trkpt lat="44.65829" lon="5.04631">
        <ele>929</ele>
        <time>2026-05-26T10:00:13.000Z</time>
      </trkpt>
      <trkpt lat="44.6583" lon="5.04629">
        <ele>933</ele>
        <time>2026-05-26T10:00:14.000Z</time>
      </trkpt>
      <trkpt lat="44.65831" lon="5.04628">
        <ele>932</ele>
        <time>2026-05-26T10:00:15.000Z</time>
      </trkpt>
      <trkpt lat="44.65831" lon="5.04627">
        <ele>931</ele>
        <time>2026-05-26T10:00:16.000Z</time>
      </trkpt>
      <trkpt lat="44.65832" lon="5.04628">
        <ele>931</ele>
        <time>2026-05-26T10:00:17.000Z</time>
      </trkpt>
      <trkpt lat="44.65833" lon="5.04629">
        <ele>930</ele>
        <time>2026-05-26T10:00:18.000Z</time>
      </trkpt>
      <trkpt lat="44.65833" lon="5.04627">
        <ele>929</ele>
        <time>2026-05-26T10:00:19.000Z</time>
      </trkpt>
      <trkpt lat="44.65832" lon="5.04626">
        <ele>929</ele>
        <time>2026-05-26T10:00:20.000Z</time>
      </trkpt>
      <trkpt lat="44.65832" lon="5.04625">
        <ele>929</ele>
        <time>2026-05-26T10:00:21.000Z</time>
      </trkpt>
      <trkpt lat="44.65832" lon="5.04624">
        <ele>930</ele>
        <time>2026-05-26T10:00:22.000Z</time>
      </trkpt>
      <trkpt lat="44.65832" lon="5.04624">
        <ele>929</ele>
        <time>2026-05-26T10:00:23.000Z</time>
      </trkpt>
      <trkpt lat="44.65831" lon="5.04623">
        <ele>930</ele>
        <time>2026-05-26T10:00:24.000Z</time>
      </trkpt>
      <trkpt lat="44.65831" lon="5.04621">
        <ele>929</ele>
        <time>2026-05-26T10:00:25.000Z</time>
      </trkpt>
      <trkpt lat="44.65831" lon="5.04621">
        <ele>929</ele>
        <time>2026-05-26T10:00:26.000Z</time>
      </trkpt>
      <trkpt lat="44.65831" lon="5.0462">
        <ele>929</ele>
        <time>2026-05-26T10:00:27.000Z</time>
      </trkpt>
      <trkpt lat="44.65832" lon="5.04619">
        <ele>928</ele>
        <time>2026-05-26T10:00:28.000Z</time>
      </trkpt>
      <trkpt lat="44.65832" lon="5.04617">
        <ele>929</ele>
        <time>2026-05-26T10:00:29.000Z</time>
      </trkpt>
      <trkpt lat="44.65832" lon="5.04616">
        <ele>929</ele>
        <time>2026-05-26T10:00:30.000Z</time>
      </trkpt>
      <trkpt lat="44.65831" lon="5.04615">
        <ele>929</ele>
        <time>2026-05-26T10:00:31.000Z</time>
      </trkpt>
      <trkpt lat="44.65832" lon="5.04615">
        <ele>929</ele>
        <time>2026-05-26T10:00:32.000Z</time>
      </trkpt>
      <trkpt lat="44.65832" lon="5.04614">
        <ele>929</ele>
        <time>2026-05-26T10:00:33.000Z</time>
      </trkpt>
      <trkpt lat="44.65832" lon="5.04612">
        <ele>930</ele>
        <time>2026-05-26T10:00:34.000Z</time>
      </trkpt>
      <trkpt lat="44.65832" lon="5.04612">
        <ele>931</ele>
        <time>2026-05-26T10:00:35.000Z</time>
      </trkpt>
      <trkpt lat="44.65832" lon="5.04611">
        <ele>931</ele>
        <time>2026-05-26T10:00:36.000Z</time>
      </trkpt>
      <trkpt lat="44.65832" lon="5.04611">
        <ele>931</ele>
        <time>2026-05-26T10:00:37.000Z</time>
      </trkpt>
      <trkpt lat="44.65832" lon="5.04611">
        <ele>931</ele>
        <time>2026-05-26T10:00:38.000Z</time>
      </trkpt>
      <trkpt lat="44.65832" lon="5.04611">
        <ele>931</ele>
        <time>2026-05-26T10:00:39.000Z</time>
      </trkpt>
      <trkpt lat="44.65832" lon="5.04612">
        <ele>931</ele>
        <time>2026-05-26T10:00:40.000Z</time>
      </trkpt>
      <trkpt lat="44.65832" lon="5.04612">
        <ele>931</ele>
        <time>2026-05-26T10:00:41.000Z</time>
      </trkpt>
      <trkpt lat="44.65832" lon="5.04612">
        <ele>931</ele>
        <time>2026-05-26T10:00:42.000Z</time>
      </trkpt>
      <trkpt lat="44.65832" lon="5.04612">
        <ele>931</ele>
        <time>2026-05-26T10:00:43.000Z</time>
      </trkpt>
      <trkpt lat="44.65832" lon="5.04611">
        <ele>930</ele>
        <time>2026-05-26T10:00:44.000Z</time>
      </trkpt>
      <trkpt lat="44.65832" lon="5.04611">
        <ele>930</ele>
        <time>2026-05-26T10:00:45.000Z</time>
      </trkpt>
      <trkpt lat="44.65832" lon="5.04611">
        <ele>931</ele>
        <time>2026-05-26T10:00:46.000Z</time>
      </trkpt>
      <trkpt lat="44.65832" lon="5.0461">
        <ele>930</ele>
        <time>2026-05-26T10:00:47.000Z</time>
      </trkpt>
      <trkpt lat="44.65831" lon="5.04611">
        <ele>931</ele>
        <time>2026-05-26T10:00:48.000Z</time>
      </trkpt>
      <trkpt lat="44.65831" lon="5.0461">
        <ele>931</ele>
        <time>2026-05-26T10:00:49.000Z</time>
      </trkpt>
      <trkpt lat="44.6583" lon="5.04611">
        <ele>931</ele>
        <time>2026-05-26T10:00:50.000Z</time>
      </trkpt>
      <trkpt lat="44.65829" lon="5.04612">
        <ele>931</ele>
        <time>2026-05-26T10:00:51.000Z</time>
      </trkpt>
      <trkpt lat="44.65829" lon="5.04612">
        <ele>931</ele>
        <time>2026-05-26T10:00:52.000Z</time>
      </trkpt>
      <trkpt lat="44.65829" lon="5.04612">
        <ele>931</ele>
        <time>2026-05-26T10:00:53.000Z</time>
      </trkpt>
      <trkpt lat="44.65829" lon="5.04612">
        <ele>931</ele>
        <time>2026-05-26T10:00:54.000Z</time>
      </trkpt>
      <trkpt lat="44.65829" lon="5.04612">
        <ele>931</ele>
        <time>2026-05-26T10:00:55.000Z</time>
      </trkpt>
      <trkpt lat="44.65829" lon="5.04612">
        <ele>931</ele>
        <time>2026-05-26T10:00:56.000Z</time>
      </trkpt>
      <trkpt lat="44.65829" lon="5.04612">
        <ele>931</ele>
        <time>2026-05-26T10:00:57.000Z</time>
      </trkpt>
      <trkpt lat="44.65829" lon="5.04612">
        <ele>931</ele>
        <time>2026-05-26T10:00:58.000Z</time>
      </trkpt>
      <trkpt lat="44.65829" lon="5.04612">
        <ele>931</ele>
        <time>2026-05-26T10:00:59.000Z</time>
      </trkpt>
      <trkpt lat="44.65829" lon="5.04612">
        <ele>931</ele>
        <time>2026-05-26T10:01:00.000Z</time>
      </trkpt>
      <trkpt lat="44.65829" lon="5.04612">
        <ele>931</ele>
        <time>2026-05-26T10:01:01.000Z</time>
      </trkpt>
      <trkpt lat="44.65829" lon="5.04612">
        <ele>931</ele>
        <time>2026-05-26T10:01:02.000Z</time>
      </trkpt>
      <trkpt lat="44.65829" lon="5.04612">
        <ele>931</ele>
        <time>2026-05-26T10:01:03.000Z</time>
      </trkpt>
      <trkpt lat="44.65829" lon="5.04612">
        <ele>931</ele>
        <time>2026-05-26T10:01:04.000Z</time>
      </trkpt>
      <trkpt lat="44.65829" lon="5.04612">
        <ele>931</ele>
        <time>2026-05-26T10:01:05.000Z</time>
      </trkpt>
      <trkpt lat="44.65829" lon="5.04612">
        <ele>931</ele>
        <time>2026-05-26T10:01:06.000Z</time>
      </trkpt>
      <trkpt lat="44.65829" lon="5.04612">
        <ele>931</ele>
        <time>2026-05-26T10:01:07.000Z</time>
      </trkpt>
      <trkpt lat="44.65829" lon="5.04612">
        <ele>931</ele>
        <time>2026-05-26T10:01:08.000Z</time>
      </trkpt>
      <trkpt lat="44.65829" lon="5.04612">
        <ele>931</ele>
        <time>2026-05-26T10:01:09.000Z</time>
      </trkpt>
      <trkpt lat="44.65829" lon="5.04612">
        <ele>931</ele>
        <time>2026-05-26T10:01:10.000Z</time>
      </trkpt>
      <trkpt lat="44.65829" lon="5.04612">
        <ele>931</ele>
        <time>2026-05-26T10:01:11.000Z</time>
      </trkpt>
      <trkpt lat="44.65829" lon="5.04612">
        <ele>931</ele>
        <time>2026-05-26T10:01:12.000Z</time>
      </trkpt>
      <trkpt lat="44.65829" lon="5.04612">
        <ele>931</ele>
        <time>2026-05-26T10:01:13.000Z</time>
      </trkpt>
      <trkpt lat="44.65829" lon="5.04612">
        <ele>931</ele>
        <time>2026-05-26T10:01:14.000Z</time>
      </trkpt>
      <trkpt lat="44.65829" lon="5.04612">
        <ele>931</ele>
        <time>2026-05-26T10:01:15.000Z</time>
      </trkpt>
      <trkpt lat="44.65829" lon="5.04612">
        <ele>931</ele>
        <time>2026-05-26T10:01:16.000Z</time>
      </trkpt>
      <trkpt lat="44.65829" lon="5.04612">
        <ele>931</ele>
        <time>2026-05-26T10:01:17.000Z</time>
      </trkpt>
      <trkpt lat="44.65829" lon="5.04612">
        <ele>931</ele>
        <time>2026-05-26T10:01:18.000Z</time>
      </trkpt>
      <trkpt lat="44.65829" lon="5.04612">
        <ele>931</ele>
        <time>2026-05-26T10:01:19.000Z</time>
      </trkpt>
      <trkpt lat="44.65829" lon="5.04612">
        <ele>931</ele>
        <time>2026-05-26T10:01:20.000Z</time>
      </trkpt>
      <trkpt lat="44.65829" lon="5.04612">
        <ele>931</ele>
        <time>2026-05-26T10:01:21.000Z</time>
      </trkpt>
      <trkpt lat="44.65829" lon="5.04612">
        <ele>931</ele>
        <time>2026-05-26T10:01:22.000Z</time>
      </trkpt>
      <trkpt lat="44.65829" lon="5.04612">
        <ele>931</ele>
        <time>2026-05-26T10:01:23.000Z</time>
      </trkpt>
      <trkpt lat="44.65829" lon="5.04612">
        <ele>931</ele>
        <time>2026-05-26T10:01:24.000Z</time>
      </trkpt>
      <trkpt lat="44.65829" lon="5.04612">
        <ele>931</ele>
        <time>2026-05-26T10:01:25.000Z</time>
      </trkpt>
      <trkpt lat="44.65831" lon="5.04611">
        <ele>930</ele>
        <time>2026-05-26T10:01:26.000Z</time>
      </trkpt>
      <trkpt lat="44.65831" lon="5.04612">
        <ele>930</ele>
        <time>2026-05-26T10:01:27.000Z</time>
      </trkpt>
      <trkpt lat="44.65831" lon="5.04612">
        <ele>930</ele>
        <time>2026-05-26T10:01:28.000Z</time>
      </trkpt>
      <trkpt lat="44.65832" lon="5.04611">
        <ele>931</ele>
        <time>2026-05-26T10:01:29.000Z</time>
      </trkpt>
      <trkpt lat="44.65832" lon="5.04611">
        <ele>931</ele>
        <time>2026-05-26T10:01:30.000Z</time>
      </trkpt>
      <trkpt lat="44.65832" lon="5.04611">
        <ele>931</ele>
        <time>2026-05-26T10:01:31.000Z</time>
      </trkpt>
      <trkpt lat="44.65832" lon="5.04611">
        <ele>931</ele>
        <time>2026-05-26T10:01:32.000Z</time>
      </trkpt>
      <trkpt lat="44.65832" lon="5.04612">
        <ele>931</ele>
        <time>2026-05-26T10:01:33.000Z</time>
      </trkpt>
      <trkpt lat="44.65833" lon="5.04612">
        <ele>931</ele>
        <time>2026-05-26T10:01:34.000Z</time>
      </trkpt>
      <trkpt lat="44.65833" lon="5.04612">
        <ele>931</ele>
        <time>2026-05-26T10:01:35.000Z</time>
      </trkpt>
      <trkpt lat="44.65833" lon="5.04612">
        <ele>931</ele>
        <time>2026-05-26T10:01:36.000Z</time>
      </trkpt>
      <trkpt lat="44.65833" lon="5.04612">
        <ele>931</ele>
        <time>2026-05-26T10:01:37.000Z</time>
      </trkpt>
      <trkpt lat="44.65833" lon="5.04612">
        <ele>931</ele>
        <time>2026-05-26T10:01:38.000Z</time>
      </trkpt>
      <trkpt lat="44.65833" lon="5.04612">
        <ele>931</ele>
        <time>2026-05-26T10:01:39.000Z</time>
      </trkpt>
      <trkpt lat="44.65833" lon="5.04612">
        <ele>931</ele>
        <time>2026-05-26T10:01:40.000Z</time>
      </trkpt>
      <trkpt lat="44.65833" lon="5.04612">
        <ele>931</ele>
        <time>2026-05-26T10:01:41.000Z</time>
      </trkpt>
      <trkpt lat="44.65833" lon="5.04612">
        <ele>931</ele>
        <time>2026-05-26T10:01:42.000Z</time>
      </trkpt>
      <trkpt lat="44.65832" lon="5.04612">
        <ele>930</ele>
        <time>2026-05-26T10:01:43.000Z</time>
      </trkpt>
      <trkpt lat="44.65831" lon="5.04613">
        <ele>931</ele>
        <time>2026-05-26T10:01:44.000Z</time>
      </trkpt>
      <trkpt lat="44.65831" lon="5.04612">
        <ele>931</ele>
        <time>2026-05-26T10:01:45.000Z</time>
      </trkpt>
      <trkpt lat="44.6583" lon="5.04612">
        <ele>931</ele>
        <time>2026-05-26T10:01:46.000Z</time>
      </trkpt>
      <trkpt lat="44.6583" lon="5.04612">
        <ele>931</ele>
        <time>2026-05-26T10:01:47.000Z</time>
      </trkpt>
      <trkpt lat="44.6583" lon="5.04612">
        <ele>931</ele>
        <time>2026-05-26T10:01:48.000Z</time>
      </trkpt>
      <trkpt lat="44.6583" lon="5.04612">
        <ele>931</ele>
        <time>2026-05-26T10:01:49.000Z</time>
      </trkpt>
      <trkpt lat="44.6583" lon="5.04612">
        <ele>931</ele>
        <time>2026-05-26T10:01:50.000Z</time>
      </trkpt>
      <trkpt lat="44.6583" lon="5.04611">
        <ele>931</ele>
        <time>2026-05-26T10:01:51.000Z</time>
      </trkpt>
      <trkpt lat="44.65829" lon="5.04611">
        <ele>931</ele>
        <time>2026-05-26T10:01:52.000Z</time>
      </trkpt>
      <trkpt lat="44.65829" lon="5.0461">
        <ele>930</ele>
        <time>2026-05-26T10:01:53.000Z</time>
      </trkpt>
      <trkpt lat="44.65829" lon="5.0461">
        <ele>930</ele>
        <time>2026-05-26T10:01:54.000Z</time>
      </trkpt>
      <trkpt lat="44.65829" lon="5.0461">
        <ele>930</ele>
        <time>2026-05-26T10:01:55.000Z</time>
      </trkpt>
      <trkpt lat="44.65828" lon="5.0461">
        <ele>930</ele>
        <time>2026-05-26T10:01:56.000Z</time>
      </trkpt>
      <trkpt lat="44.65828" lon="5.0461">
        <ele>930</ele>
        <time>2026-05-26T10:01:57.000Z</time>
      </trkpt>
      <trkpt lat="44.65828" lon="5.0461">
        <ele>930</ele>
        <time>2026-05-26T10:01:58.000Z</time>
      </trkpt>
      <trkpt lat="44.65828" lon="5.0461">
        <ele>930</ele>
        <time>2026-05-26T10:01:59.000Z</time>
      </trkpt>
      <trkpt lat="44.65828" lon="5.0461">
        <ele>930</ele>
        <time>2026-05-26T10:02:00.000Z</time>
      </trkpt>
      <trkpt lat="44.65828" lon="5.0461">
        <ele>930</ele>
        <time>2026-05-26T10:02:01.000Z</time>
      </trkpt>
      <trkpt lat="44.65828" lon="5.0461">
        <ele>930</ele>
        <time>2026-05-26T10:02:02.000Z</time>
      </trkpt>
      <trkpt lat="44.65828" lon="5.0461">
        <ele>930</ele>
        <time>2026-05-26T10:02:03.000Z</time>
      </trkpt>
      <trkpt lat="44.65828" lon="5.0461">
        <ele>930</ele>
        <time>2026-05-26T10:02:04.000Z</time>
      </trkpt>
      <trkpt lat="44.65828" lon="5.0461">
        <ele>930</ele>
        <time>2026-05-26T10:02:05.000Z</time>
      </trkpt>
      <trkpt lat="44.65828" lon="5.0461">
        <ele>930</ele>
        <time>2026-05-26T10:02:06.000Z</time>
      </trkpt>
      <trkpt lat="44.65828" lon="5.0461">
        <ele>930</ele>
        <time>2026-05-26T10:02:07.000Z</time>
      </trkpt>
      <trkpt lat="44.65828" lon="5.0461">
        <ele>930</ele>
        <time>2026-05-26T10:02:08.000Z</time>
      </trkpt>
      <trkpt lat="44.65828" lon="5.0461">
        <ele>930</ele>
        <time>2026-05-26T10:02:09.000Z</time>
      </trkpt>
      <trkpt lat="44.65828" lon="5.0461">
        <ele>930</ele>
        <time>2026-05-26T10:02:10.000Z</time>
      </trkpt>
      <trkpt lat="44.65828" lon="5.0461">
        <ele>930</ele>
        <time>2026-05-26T10:02:11.000Z</time>
      </trkpt>
      <trkpt lat="44.6583" lon="5.04612">
        <ele>931</ele>
        <time>2026-05-26T10:02:12.000Z</time>
      </trkpt>
      <trkpt lat="44.65831" lon="5.04612">
        <ele>931</ele>
        <time>2026-05-26T10:02:13.000Z</time>
      </trkpt>
      <trkpt lat="44.65831" lon="5.04613">
        <ele>931</ele>
        <time>2026-05-26T10:02:14.000Z</time>
      </trkpt>
      <trkpt lat="44.65831" lon="5.04613">
        <ele>931</ele>
        <time>2026-05-26T10:02:15.000Z</time>
      </trkpt>
      <trkpt lat="44.65832" lon="5.04613">
        <ele>931</ele>
        <time>2026-05-26T10:02:16.000Z</time>
      </trkpt>
      <trkpt lat="44.65832" lon="5.04613">
        <ele>931</ele>
        <time>2026-05-26T10:02:17.000Z</time>
      </trkpt>
      <trkpt lat="44.65832" lon="5.04613">
        <ele>931</ele>
        <time>2026-05-26T10:02:18.000Z</time>
      </trkpt>
      <trkpt lat="44.65832" lon="5.04613">
        <ele>931</ele>
        <time>2026-05-26T10:02:19.000Z</time>
      </trkpt>
      <trkpt lat="44.65832" lon="5.04613">
        <ele>931</ele>
        <time>2026-05-26T10:02:20.000Z</time>
      </trkpt>
      <trkpt lat="44.65832" lon="5.04613">
        <ele>931</ele>
        <time>2026-05-26T10:02:21.000Z</time>
      </trkpt>
      <trkpt lat="44.65832" lon="5.04613">
        <ele>931</ele>
        <time>2026-05-26T10:02:22.000Z</time>
      </trkpt>
      <trkpt lat="44.65832" lon="5.04613">
        <ele>931</ele>
        <time>2026-05-26T10:02:23.000Z</time>
      </trkpt>
      <trkpt lat="44.65832" lon="5.04613">
        <ele>931</ele>
        <time>2026-05-26T10:02:24.000Z</time>
      </trkpt>
      <trkpt lat="44.65832" lon="5.04613">
        <ele>931</ele>
        <time>2026-05-26T10:02:25.000Z</time>
      </trkpt>
      <trkpt lat="44.65832" lon="5.04613">
        <ele>931</ele>
        <time>2026-05-26T10:02:26.000Z</time>
      </trkpt>
      <trkpt lat="44.65832" lon="5.04613">
        <ele>931</ele>
        <time>2026-05-26T10:02:27.000Z</time>
      </trkpt>
      <trkpt lat="44.65832" lon="5.04613">
        <ele>931</ele>
        <time>2026-05-26T10:02:28.000Z</time>
      </trkpt>
      <trkpt lat="44.65832" lon="5.04613">
        <ele>931</ele>
        <time>2026-05-26T10:02:29.000Z</time>
      </trkpt>
      <trkpt lat="44.65832" lon="5.04613">
        <ele>931</ele>
        <time>2026-05-26T10:02:30.000Z</time>
      </trkpt>
      <trkpt lat="44.65832" lon="5.04613">
        <ele>931</ele>
        <time>2026-05-26T10:02:31.000Z</time>
      </trkpt>
      <trkpt lat="44.65832" lon="5.04613">
        <ele>931</ele>
        <time>2026-05-26T10:02:32.000Z</time>
      </trkpt>
      <trkpt lat="44.65832" lon="5.04613">
        <ele>931</ele>
        <time>2026-05-26T10:02:33.000Z</time>
      </trkpt>
      <trkpt lat="44.65832" lon="5.04613">
        <ele>931</ele>
        <time>2026-05-26T10:02:34.000Z</time>
      </trkpt>
      <trkpt lat="44.65832" lon="5.04613">
        <ele>931</ele>
        <time>2026-05-26T10:02:35.000Z</time>
      </trkpt>
      <trkpt lat="44.65832" lon="5.04613">
        <ele>931</ele>
        <time>2026-05-26T10:02:36.000Z</time>
      </trkpt>
      <trkpt lat="44.65832" lon="5.04613">
        <ele>931</ele>
        <time>2026-05-26T10:02:37.000Z</time>
      </trkpt>
      <trkpt lat="44.65832" lon="5.04613">
        <ele>931</ele>
        <time>2026-05-26T10:02:38.000Z</time>
      </trkpt>
      <trkpt lat="44.65832" lon="5.04613">
        <ele>931</ele>
        <time>2026-05-26T10:02:39.000Z</time>
      </trkpt>
      <trkpt lat="44.65832" lon="5.04613">
        <ele>931</ele>
        <time>2026-05-26T10:02:40.000Z</time>
      </trkpt>
      <trkpt lat="44.65832" lon="5.04613">
        <ele>931</ele>
        <time>2026-05-26T10:02:41.000Z</time>
      </trkpt>
      <trkpt lat="44.65832" lon="5.04613">
        <ele>931</ele>
        <time>2026-05-26T10:02:42.000Z</time>
      </trkpt>
      <trkpt lat="44.65832" lon="5.04613">
        <ele>931</ele>
        <time>2026-05-26T10:02:43.000Z</time>
      </trkpt>
      <trkpt lat="44.65832" lon="5.04613">
        <ele>931</ele>
        <time>2026-05-26T10:02:44.000Z</time>
      </trkpt>
      <trkpt lat="44.65832" lon="5.04613">
        <ele>931</ele>
        <time>2026-05-26T10:02:45.000Z</time>
      </trkpt>
      <trkpt lat="44.65832" lon="5.04613">
        <ele>931</ele>
        <time>2026-05-26T10:02:46.000Z</time>
      </trkpt>
      <trkpt lat="44.65832" lon="5.04613">
        <ele>931</ele>
        <time>2026-05-26T10:02:47.000Z</time>
      </trkpt>
      <trkpt lat="44.65832" lon="5.04613">
        <ele>931</ele>
        <time>2026-05-26T10:02:48.000Z</time>
      </trkpt>
      <trkpt lat="44.65831" lon="5.04613">
        <ele>933</ele>
        <time>2026-05-26T10:02:49.000Z</time>
      </trkpt>
      <trkpt lat="44.65831" lon="5.04613">
        <ele>933</ele>
        <time>2026-05-26T10:02:50.000Z</time>
      </trkpt>
      <trkpt lat="44.65831" lon="5.04613">
        <ele>933</ele>
        <time>2026-05-26T10:02:51.000Z</time>
      </trkpt>
      <trkpt lat="44.65831" lon="5.04613">
        <ele>933</ele>
        <time>2026-05-26T10:02:52.000Z</time>
      </trkpt>
      <trkpt lat="44.65831" lon="5.04613">
        <ele>933</ele>
        <time>2026-05-26T10:02:53.000Z</time>
      </trkpt>
      <trkpt lat="44.65831" lon="5.04613">
        <ele>933</ele>
        <time>2026-05-26T10:02:54.000Z</time>
      </trkpt>
      <trkpt lat="44.65831" lon="5.04613">
        <ele>933</ele>
        <time>2026-05-26T10:02:55.000Z</time>
      </trkpt>
      <trkpt lat="44.65831" lon="5.04613">
        <ele>933</ele>
        <time>2026-05-26T10:02:56.000Z</time>
      </trkpt>
      <trkpt lat="44.65831" lon="5.04613">
        <ele>933</ele>
        <time>2026-05-26T10:02:57.000Z</time>
      </trkpt>
      <trkpt lat="44.65831" lon="5.04613">
        <ele>933</ele>
        <time>2026-05-26T10:02:58.000Z</time>
      </trkpt>
      <trkpt lat="44.65831" lon="5.04613">
        <ele>933</ele>
        <time>2026-05-26T10:02:59.000Z</time>
      </trkpt>
      <trkpt lat="44.65831" lon="5.04613">
        <ele>933</ele>
        <time>2026-05-26T10:03:00.000Z</time>
      </trkpt>
      <trkpt lat="44.65831" lon="5.04613">
        <ele>933</ele>
        <time>2026-05-26T10:03:01.000Z</time>
      </trkpt>
      <trkpt lat="44.65831" lon="5.04613">
        <ele>933</ele>
        <time>2026-05-26T10:03:02.000Z</time>
      </trkpt>
      <trkpt lat="44.65831" lon="5.04613">
        <ele>933</ele>
        <time>2026-05-26T10:03:03.000Z</time>
      </trkpt>
      <trkpt lat="44.65831" lon="5.04613">
        <ele>933</ele>
        <time>2026-05-26T10:03:04.000Z</time>
      </trkpt>
      <trkpt lat="44.65831" lon="5.04613">
        <ele>933</ele>
        <time>2026-05-26T10:03:05.000Z</time>
      </trkpt>
      <trkpt lat="44.65831" lon="5.04613">
        <ele>933</ele>
        <time>2026-05-26T10:03:06.000Z</time>
      </trkpt>
      <trkpt lat="44.65831" lon="5.04613">
        <ele>933</ele>
        <time>2026-05-26T10:03:07.000Z</time>
      </trkpt>
      <trkpt lat="44.65831" lon="5.04613">
        <ele>933</ele>
        <time>2026-05-26T10:03:08.000Z</time>
      </trkpt>
      <trkpt lat="44.65831" lon="5.04613">
        <ele>933</ele>
        <time>2026-05-26T10:03:09.000Z</time>
      </trkpt>
      <trkpt lat="44.65831" lon="5.04613">
        <ele>933</ele>
        <time>2026-05-26T10:03:10.000Z</time>
      </trkpt>
      <trkpt lat="44.65831" lon="5.04613">
        <ele>933</ele>
        <time>2026-05-26T10:03:11.000Z</time>
      </trkpt>
      <trkpt lat="44.65829" lon="5.04612">
        <ele>932</ele>
        <time>2026-05-26T10:03:12.000Z</time>
      </trkpt>
      <trkpt lat="44.65829" lon="5.04611">
        <ele>932</ele>
        <time>2026-05-26T10:03:13.000Z</time>
      </trkpt>
      <trkpt lat="44.65828" lon="5.04611">
        <ele>932</ele>
        <time>2026-05-26T10:03:14.000Z</time>
      </trkpt>
      <trkpt lat="44.65828" lon="5.04611">
        <ele>932</ele>
        <time>2026-05-26T10:03:15.000Z</time>
      </trkpt>
      <trkpt lat="44.65828" lon="5.04611">
        <ele>932</ele>
        <time>2026-05-26T10:03:16.000Z</time>
      </trkpt>
      <trkpt lat="44.65828" lon="5.04611">
        <ele>932</ele>
        <time>2026-05-26T10:03:17.000Z</time>
      </trkpt>
      <trkpt lat="44.65828" lon="5.04611">
        <ele>932</ele>
        <time>2026-05-26T10:03:18.000Z</time>
      </trkpt>
      <trkpt lat="44.65828" lon="5.04611">
        <ele>932</ele>
        <time>2026-05-26T10:03:19.000Z</time>
      </trkpt>
      <trkpt lat="44.65828" lon="5.04611">
        <ele>932</ele>
        <time>2026-05-26T10:03:20.000Z</time>
      </trkpt>
      <trkpt lat="44.65828" lon="5.04611">
        <ele>932</ele>
        <time>2026-05-26T10:03:21.000Z</time>
      </trkpt>
      <trkpt lat="44.65828" lon="5.04611">
        <ele>931</ele>
        <time>2026-05-26T10:03:22.000Z</time>
      </trkpt>
      <trkpt lat="44.65828" lon="5.04611">
        <ele>931</ele>
        <time>2026-05-26T10:03:23.000Z</time>
      </trkpt>
      <trkpt lat="44.65828" lon="5.04612">
        <ele>931</ele>
        <time>2026-05-26T10:03:24.000Z</time>
      </trkpt>
      <trkpt lat="44.65828" lon="5.04612">
        <ele>931</ele>
        <time>2026-05-26T10:03:25.000Z</time>
      </trkpt>
      <trkpt lat="44.65828" lon="5.04612">
        <ele>931</ele>
        <time>2026-05-26T10:03:26.000Z</time>
      </trkpt>
      <trkpt lat="44.65828" lon="5.04612">
        <ele>931</ele>
        <time>2026-05-26T10:03:27.000Z</time>
      </trkpt>
      <trkpt lat="44.65828" lon="5.04612">
        <ele>931</ele>
        <time>2026-05-26T10:03:28.000Z</time>
      </trkpt>
      <trkpt lat="44.65828" lon="5.04612">
        <ele>931</ele>
        <time>2026-05-26T10:03:29.000Z</time>
      </trkpt>
      <trkpt lat="44.65828" lon="5.04612">
        <ele>931</ele>
        <time>2026-05-26T10:03:30.000Z</time>
      </trkpt>
      <trkpt lat="44.65828" lon="5.04612">
        <ele>931</ele>
        <time>2026-05-26T10:03:31.000Z</time>
      </trkpt>
      <trkpt lat="44.65828" lon="5.04612">
        <ele>931</ele>
        <time>2026-05-26T10:03:32.000Z</time>
      </trkpt>
      <trkpt lat="44.65828" lon="5.04612">
        <ele>931</ele>
        <time>2026-05-26T10:03:33.000Z</time>
      </trkpt>
      <trkpt lat="44.65828" lon="5.04612">
        <ele>931</ele>
        <time>2026-05-26T10:03:34.000Z</time>
      </trkpt>
      <trkpt lat="44.65828" lon="5.04612">
        <ele>931</ele>
        <time>2026-05-26T10:03:35.000Z</time>
      </trkpt>
      <trkpt lat="44.65828" lon="5.04612">
        <ele>931</ele>
        <time>2026-05-26T10:03:36.000Z</time>
      </trkpt>
      <trkpt lat="44.65828" lon="5.04612">
        <ele>931</ele>
        <time>2026-05-26T10:03:37.000Z</time>
      </trkpt>
      <trkpt lat="44.65828" lon="5.04612">
        <ele>931</ele>
        <time>2026-05-26T10:03:38.000Z</time>
      </trkpt>
      <trkpt lat="44.65828" lon="5.04612">
        <ele>931</ele>
        <time>2026-05-26T10:03:39.000Z</time>
      </trkpt>
      <trkpt lat="44.65828" lon="5.04612">
        <ele>931</ele>
        <time>2026-05-26T10:03:40.000Z</time>
      </trkpt>
      <trkpt lat="44.65828" lon="5.04612">
        <ele>931</ele>
        <time>2026-05-26T10:03:41.000Z</time>
      </trkpt>
      <trkpt lat="44.65828" lon="5.04612">
        <ele>931</ele>
        <time>2026-05-26T10:03:42.000Z</time>
      </trkpt>
      <trkpt lat="44.65828" lon="5.04612">
        <ele>931</ele>
        <time>2026-05-26T10:03:43.000Z</time>
      </trkpt>
      <trkpt lat="44.65828" lon="5.04612">
        <ele>932</ele>
        <time>2026-05-26T10:03:44.000Z</time>
      </trkpt>
      <trkpt lat="44.65828" lon="5.04612">
        <ele>932</ele>
        <time>2026-05-26T10:03:45.000Z</time>
      </trkpt>
      <trkpt lat="44.65828" lon="5.04613">
        <ele>932</ele>
        <time>2026-05-26T10:03:46.000Z</time>
      </trkpt>
      <trkpt lat="44.65827" lon="5.04614">
        <ele>932</ele>
        <time>2026-05-26T10:03:47.000Z</time>
      </trkpt>
      <trkpt lat="44.65827" lon="5.04614">
        <ele>932</ele>
        <time>2026-05-26T10:03:48.000Z</time>
      </trkpt>
      <trkpt lat="44.65827" lon="5.04614">
        <ele>932</ele>
        <time>2026-05-26T10:03:49.000Z</time>
      </trkpt>
      <trkpt lat="44.65826" lon="5.04614">
        <ele>932</ele>
        <time>2026-05-26T10:03:50.000Z</time>
      </trkpt>
      <trkpt lat="44.65826" lon="5.04614">
        <ele>932</ele>
        <time>2026-05-26T10:03:51.000Z</time>
      </trkpt>
      <trkpt lat="44.65826" lon="5.04614">
        <ele>932</ele>
        <time>2026-05-26T10:03:52.000Z</time>
      </trkpt>
      <trkpt lat="44.65825" lon="5.04614">
        <ele>932</ele>
        <time>2026-05-26T10:03:53.000Z</time>
      </trkpt>
      <trkpt lat="44.65826" lon="5.04614">
        <ele>932</ele>
        <time>2026-05-26T10:03:54.000Z</time>
      </trkpt>
      <trkpt lat="44.65826" lon="5.04614">
        <ele>932</ele>
        <time>2026-05-26T10:03:55.000Z</time>
      </trkpt>
      <trkpt lat="44.65826" lon="5.04614">
        <ele>932</ele>
        <time>2026-05-26T10:03:56.000Z</time>
      </trkpt>
      <trkpt lat="44.65826" lon="5.04614">
        <ele>932</ele>
        <time>2026-05-26T10:03:57.000Z</time>
      </trkpt>
      <trkpt lat="44.65826" lon="5.04614">
        <ele>932</ele>
        <time>2026-05-26T10:03:58.000Z</time>
      </trkpt>
      <trkpt lat="44.65826" lon="5.04614">
        <ele>932</ele>
        <time>2026-05-26T10:03:59.000Z</time>
      </trkpt>
      <trkpt lat="44.65826" lon="5.04614">
        <ele>932</ele>
        <time>2026-05-26T10:04:00.000Z</time>
      </trkpt>
      <trkpt lat="44.65826" lon="5.04614">
        <ele>932</ele>
        <time>2026-05-26T10:04:01.000Z</time>
      </trkpt>
      <trkpt lat="44.65826" lon="5.04614">
        <ele>932</ele>
        <time>2026-05-26T10:04:02.000Z</time>
      </trkpt>
      <trkpt lat="44.65826" lon="5.04614">
        <ele>932</ele>
        <time>2026-05-26T10:04:03.000Z</time>
      </trkpt>
      <trkpt lat="44.65826" lon="5.04614">
        <ele>932</ele>
        <time>2026-05-26T10:04:04.000Z</time>
      </trkpt>
      <trkpt lat="44.65825" lon="5.04614">
        <ele>932</ele>
        <time>2026-05-26T10:04:05.000Z</time>
      </trkpt>
      <trkpt lat="44.65825" lon="5.04614">
        <ele>932</ele>
        <time>2026-05-26T10:04:06.000Z</time>
      </trkpt>
      <trkpt lat="44.65826" lon="5.04613">
        <ele>932</ele>
        <time>2026-05-26T10:04:07.000Z</time>
      </trkpt>
      <trkpt lat="44.65826" lon="5.04613">
        <ele>932</ele>
        <time>2026-05-26T10:04:08.000Z</time>
      </trkpt>
      <trkpt lat="44.65826" lon="5.04613">
        <ele>932</ele>
        <time>2026-05-26T10:04:09.000Z</time>
      </trkpt>
      <trkpt lat="44.65826" lon="5.04613">
        <ele>932</ele>
        <time>2026-05-26T10:04:10.000Z</time>
      </trkpt>
      <trkpt lat="44.65826" lon="5.04613">
        <ele>932</ele>
        <time>2026-05-26T10:04:11.000Z</time>
      </trkpt>
      <trkpt lat="44.65826" lon="5.04613">
        <ele>932</ele>
        <time>2026-05-26T10:04:12.000Z</time>
      </trkpt>
      <trkpt lat="44.65826" lon="5.04613">
        <ele>932</ele>
        <time>2026-05-26T10:04:13.000Z</time>
      </trkpt>
      <trkpt lat="44.65826" lon="5.04613">
        <ele>932</ele>
        <time>2026-05-26T10:04:14.000Z</time>
      </trkpt>
      <trkpt lat="44.65826" lon="5.04613">
        <ele>932</ele>
        <time>2026-05-26T10:04:15.000Z</time>
      </trkpt>
      <trkpt lat="44.65826" lon="5.04613">
        <ele>932</ele>
        <time>2026-05-26T10:04:16.000Z</time>
      </trkpt>
      <trkpt lat="44.65826" lon="5.04613">
        <ele>932</ele>
        <time>2026-05-26T10:04:17.000Z</time>
      </trkpt>
      <trkpt lat="44.65826" lon="5.04613">
        <ele>932</ele>
        <time>2026-05-26T10:04:18.000Z</time>
      </trkpt>
      <trkpt lat="44.65826" lon="5.04613">
        <ele>932</ele>
        <time>2026-05-26T10:04:19.000Z</time>
      </trkpt>
      <trkpt lat="44.65826" lon="5.04613">
        <ele>932</ele>
        <time>2026-05-26T10:04:20.000Z</time>
      </trkpt>
      <trkpt lat="44.65826" lon="5.04613">
        <ele>932</ele>
        <time>2026-05-26T10:04:21.000Z</time>
      </trkpt>
      <trkpt lat="44.65826" lon="5.04613">
        <ele>932</ele>
        <time>2026-05-26T10:04:22.000Z</time>
      </trkpt>
      <trkpt lat="44.65826" lon="5.04613">
        <ele>932</ele>
        <time>2026-05-26T10:04:23.000Z</time>
      </trkpt>
      <trkpt lat="44.65826" lon="5.04613">
        <ele>932</ele>
        <time>2026-05-26T10:04:24.000Z</time>
      </trkpt>
      <trkpt lat="44.65826" lon="5.04613">
        <ele>932</ele>
        <time>2026-05-26T10:04:25.000Z</time>
      </trkpt>
      <trkpt lat="44.65826" lon="5.04614">
        <ele>932</ele>
        <time>2026-05-26T10:04:26.000Z</time>
      </trkpt>
      <trkpt lat="44.65826" lon="5.04614">
        <ele>932</ele>
        <time>2026-05-26T10:04:27.000Z</time>
      </trkpt>
      <trkpt lat="44.65827" lon="5.04614">
        <ele>931</ele>
        <time>2026-05-26T10:04:28.000Z</time>
      </trkpt>
      <trkpt lat="44.65827" lon="5.04613">
        <ele>931</ele>
        <time>2026-05-26T10:04:29.000Z</time>
      </trkpt>
      <trkpt lat="44.65827" lon="5.04613">
        <ele>931</ele>
        <time>2026-05-26T10:04:30.000Z</time>
      </trkpt>
      <trkpt lat="44.65827" lon="5.04614">
        <ele>931</ele>
        <time>2026-05-26T10:04:31.000Z</time>
      </trkpt>
      <trkpt lat="44.65827" lon="5.04614">
        <ele>931</ele>
        <time>2026-05-26T10:04:32.000Z</time>
      </trkpt>
      <trkpt lat="44.65827" lon="5.04614">
        <ele>931</ele>
        <time>2026-05-26T10:04:33.000Z</time>
      </trkpt>
      <trkpt lat="44.65827" lon="5.04614">
        <ele>931</ele>
        <time>2026-05-26T10:04:34.000Z</time>
      </trkpt>
      <trkpt lat="44.65827" lon="5.04614">
        <ele>931</ele>
        <time>2026-05-26T10:04:35.000Z</time>
      </trkpt>
      <trkpt lat="44.65827" lon="5.04614">
        <ele>931</ele>
        <time>2026-05-26T10:04:36.000Z</time>
      </trkpt>
      <trkpt lat="44.65827" lon="5.04614">
        <ele>931</ele>
        <time>2026-05-26T10:04:37.000Z</time>
      </trkpt>
      <trkpt lat="44.65827" lon="5.04614">
        <ele>931</ele>
        <time>2026-05-26T10:04:38.000Z</time>
      </trkpt>
      <trkpt lat="44.65827" lon="5.04614">
        <ele>931</ele>
        <time>2026-05-26T10:04:39.000Z</time>
      </trkpt>
      <trkpt lat="44.65827" lon="5.04614">
        <ele>933</ele>
        <time>2026-05-26T10:04:40.000Z</time>
      </trkpt>
      <trkpt lat="44.65826" lon="5.04615">
        <ele>934</ele>
        <time>2026-05-26T10:04:41.000Z</time>
      </trkpt>
      <trkpt lat="44.65826" lon="5.04616">
        <ele>935</ele>
        <time>2026-05-26T10:04:42.000Z</time>
      </trkpt>
      <trkpt lat="44.65826" lon="5.04616">
        <ele>936</ele>
        <time>2026-05-26T10:04:43.000Z</time>
      </trkpt>
      <trkpt lat="44.65826" lon="5.04616">
        <ele>936</ele>
        <time>2026-05-26T10:04:44.000Z</time>
      </trkpt>
      <trkpt lat="44.65826" lon="5.04616">
        <ele>936</ele>
        <time>2026-05-26T10:04:45.000Z</time>
      </trkpt>
      <trkpt lat="44.65825" lon="5.04616">
        <ele>936</ele>
        <time>2026-05-26T10:04:46.000Z</time>
      </trkpt>
      <trkpt lat="44.65825" lon="5.04615">
        <ele>936</ele>
        <time>2026-05-26T10:04:47.000Z</time>
      </trkpt>
      <trkpt lat="44.65825" lon="5.04615">
        <ele>936</ele>
        <time>2026-05-26T10:04:48.000Z</time>
      </trkpt>
      <trkpt lat="44.65825" lon="5.04615">
        <ele>936</ele>
        <time>2026-05-26T10:04:49.000Z</time>
      </trkpt>
      <trkpt lat="44.65825" lon="5.04615">
        <ele>936</ele>
        <time>2026-05-26T10:04:50.000Z</time>
      </trkpt>
      <trkpt lat="44.65825" lon="5.04615">
        <ele>936</ele>
        <time>2026-05-26T10:04:51.000Z</time>
      </trkpt>
      <trkpt lat="44.65825" lon="5.04615">
        <ele>936</ele>
        <time>2026-05-26T10:04:52.000Z</time>
      </trkpt>
      <trkpt lat="44.65825" lon="5.04615">
        <ele>936</ele>
        <time>2026-05-26T10:04:53.000Z</time>
      </trkpt>
      <trkpt lat="44.65825" lon="5.04615">
        <ele>936</ele>
        <time>2026-05-26T10:04:54.000Z</time>
      </trkpt>
      <trkpt lat="44.65825" lon="5.04614">
        <ele>935</ele>
        <time>2026-05-26T10:04:55.000Z</time>
      </trkpt>
      <trkpt lat="44.65825" lon="5.04614">
        <ele>935</ele>
        <time>2026-05-26T10:04:56.000Z</time>
      </trkpt>
      <trkpt lat="44.65825" lon="5.04614">
        <ele>935</ele>
        <time>2026-05-26T10:04:57.000Z</time>
      </trkpt>
      <trkpt lat="44.65827" lon="5.04614">
        <ele>934</ele>
        <time>2026-05-26T10:04:58.000Z</time>
      </trkpt>
      <trkpt lat="44.65827" lon="5.04613">
        <ele>934</ele>
        <time>2026-05-26T10:04:59.000Z</time>
      </trkpt>
      <trkpt lat="44.65827" lon="5.04613">
        <ele>934</ele>
        <time>2026-05-26T10:05:00.000Z</time>
      </trkpt>
      <trkpt lat="44.65827" lon="5.04613">
        <ele>934</ele>
        <time>2026-05-26T10:05:01.000Z</time>
      </trkpt>
      <trkpt lat="44.65827" lon="5.04613">
        <ele>934</ele>
        <time>2026-05-26T10:05:02.000Z</time>
      </trkpt>
      <trkpt lat="44.65827" lon="5.04613">
        <ele>934</ele>
        <time>2026-05-26T10:05:03.000Z</time>
      </trkpt>
      <trkpt lat="44.65827" lon="5.04613">
        <ele>934</ele>
        <time>2026-05-26T10:05:04.000Z</time>
      </trkpt>
      <trkpt lat="44.65827" lon="5.04613">
        <ele>934</ele>
        <time>2026-05-26T10:05:05.000Z</time>
      </trkpt>
      <trkpt lat="44.65827" lon="5.04613">
        <ele>934</ele>
        <time>2026-05-26T10:05:06.000Z</time>
      </trkpt>
      <trkpt lat="44.65827" lon="5.04613">
        <ele>934</ele>
        <time>2026-05-26T10:05:07.000Z</time>
      </trkpt>
      <trkpt lat="44.65827" lon="5.04613">
        <ele>934</ele>
        <time>2026-05-26T10:05:08.000Z</time>
      </trkpt>
      <trkpt lat="44.65827" lon="5.04613">
        <ele>934</ele>
        <time>2026-05-26T10:05:09.000Z</time>
      </trkpt>
      <trkpt lat="44.65827" lon="5.04613">
        <ele>934</ele>
        <time>2026-05-26T10:05:10.000Z</time>
      </trkpt>
      <trkpt lat="44.65827" lon="5.04613">
        <ele>934</ele>
        <time>2026-05-26T10:05:11.000Z</time>
      </trkpt>
      <trkpt lat="44.65827" lon="5.04613">
        <ele>934</ele>
        <time>2026-05-26T10:05:12.000Z</time>
      </trkpt>
      <trkpt lat="44.65827" lon="5.04613">
        <ele>934</ele>
        <time>2026-05-26T10:05:13.000Z</time>
      </trkpt>
      <trkpt lat="44.65827" lon="5.04613">
        <ele>934</ele>
        <time>2026-05-26T10:05:14.000Z</time>
      </trkpt>
      <trkpt lat="44.65827" lon="5.04613">
        <ele>934</ele>
        <time>2026-05-26T10:05:15.000Z</time>
      </trkpt>
      <trkpt lat="44.65827" lon="5.04613">
        <ele>934</ele>
        <time>2026-05-26T10:05:16.000Z</time>
      </trkpt>
      <trkpt lat="44.65827" lon="5.04613">
        <ele>934</ele>
        <time>2026-05-26T10:05:17.000Z</time>
      </trkpt>
      <trkpt lat="44.65827" lon="5.04613">
        <ele>934</ele>
        <time>2026-05-26T10:05:18.000Z</time>
      </trkpt>
      <trkpt lat="44.65827" lon="5.04613">
        <ele>934</ele>
        <time>2026-05-26T10:05:19.000Z</time>
      </trkpt>
      <trkpt lat="44.65827" lon="5.04613">
        <ele>934</ele>
        <time>2026-05-26T10:05:20.000Z</time>
      </trkpt>
      <trkpt lat="44.65827" lon="5.04613">
        <ele>934</ele>
        <time>2026-05-26T10:05:21.000Z</time>
      </trkpt>
      <trkpt lat="44.65827" lon="5.04613">
        <ele>934</ele>
        <time>2026-05-26T10:05:22.000Z</time>
      </trkpt>
      <trkpt lat="44.65827" lon="5.04613">
        <ele>934</ele>
        <time>2026-05-26T10:05:23.000Z</time>
      </trkpt>
      <trkpt lat="44.65827" lon="5.04613">
        <ele>934</ele>
        <time>2026-05-26T10:05:24.000Z</time>
      </trkpt>
      <trkpt lat="44.65827" lon="5.04613">
        <ele>934</ele>
        <time>2026-05-26T10:05:25.000Z</time>
      </trkpt>
      <trkpt lat="44.65827" lon="5.04613">
        <ele>934</ele>
        <time>2026-05-26T10:05:26.000Z</time>
      </trkpt>
      <trkpt lat="44.65827" lon="5.04613">
        <ele>934</ele>
        <time>2026-05-26T10:05:27.000Z</time>
      </trkpt>
      <trkpt lat="44.65827" lon="5.04613">
        <ele>934</ele>
        <time>2026-05-26T10:05:28.000Z</time>
      </trkpt>
      <trkpt lat="44.65827" lon="5.04613">
        <ele>934</ele>
        <time>2026-05-26T10:05:29.000Z</time>
      </trkpt>
      <trkpt lat="44.65827" lon="5.04613">
        <ele>934</ele>
        <time>2026-05-26T10:05:30.000Z</time>
      </trkpt>
      <trkpt lat="44.65827" lon="5.04613">
        <ele>934</ele>
        <time>2026-05-26T10:05:31.000Z</time>
      </trkpt>
      <trkpt lat="44.65827" lon="5.04613">
        <ele>934</ele>
        <time>2026-05-26T10:05:32.000Z</time>
      </trkpt>
      <trkpt lat="44.65827" lon="5.04614">
        <ele>933</ele>
        <time>2026-05-26T10:05:33.000Z</time>
      </trkpt>
      <trkpt lat="44.65827" lon="5.04614">
        <ele>932</ele>
        <time>2026-05-26T10:05:34.000Z</time>
      </trkpt>
      <trkpt lat="44.65827" lon="5.04614">
        <ele>932</ele>
        <time>2026-05-26T10:05:35.000Z</time>
      </trkpt>
      <trkpt lat="44.65826" lon="5.04614">
        <ele>931</ele>
        <time>2026-05-26T10:05:36.000Z</time>
      </trkpt>
      <trkpt lat="44.65825" lon="5.04614">
        <ele>931</ele>
        <time>2026-05-26T10:05:37.000Z</time>
      </trkpt>
      <trkpt lat="44.65824" lon="5.04615">
        <ele>931</ele>
        <time>2026-05-26T10:05:38.000Z</time>
      </trkpt>
      <trkpt lat="44.65823" lon="5.04615">
        <ele>931</ele>
        <time>2026-05-26T10:05:39.000Z</time>
      </trkpt>
      <trkpt lat="44.65822" lon="5.04615">
        <ele>931</ele>
        <time>2026-05-26T10:05:40.000Z</time>
      </trkpt>
      <trkpt lat="44.65821" lon="5.04615">
        <ele>931</ele>
        <time>2026-05-26T10:05:41.000Z</time>
      </trkpt>
      <trkpt lat="44.65821" lon="5.04614">
        <ele>931</ele>
        <time>2026-05-26T10:05:42.000Z</time>
      </trkpt>
      <trkpt lat="44.6582" lon="5.04614">
        <ele>931</ele>
        <time>2026-05-26T10:05:43.000Z</time>
      </trkpt>
      <trkpt lat="44.65818" lon="5.04615">
        <ele>930</ele>
        <time>2026-05-26T10:05:44.000Z</time>
      </trkpt>
      <trkpt lat="44.65817" lon="5.04615">
        <ele>930</ele>
        <time>2026-05-26T10:05:45.000Z</time>
      </trkpt>
      <trkpt lat="44.65816" lon="5.04615">
        <ele>930</ele>
        <time>2026-05-26T10:05:46.000Z</time>
      </trkpt>
      <trkpt lat="44.65816" lon="5.04615">
        <ele>930</ele>
        <time>2026-05-26T10:05:47.000Z</time>
      </trkpt>
      <trkpt lat="44.65815" lon="5.04616">
        <ele>930</ele>
        <time>2026-05-26T10:05:48.000Z</time>
      </trkpt>
      <trkpt lat="44.65815" lon="5.04615">
        <ele>930</ele>
        <time>2026-05-26T10:05:49.000Z</time>
      </trkpt>
      <trkpt lat="44.65813" lon="5.04613">
        <ele>931</ele>
        <time>2026-05-26T10:05:50.000Z</time>
      </trkpt>
      <trkpt lat="44.65813" lon="5.04612">
        <ele>931</ele>
        <time>2026-05-26T10:05:51.000Z</time>
      </trkpt>
      <trkpt lat="44.65812" lon="5.04612">
        <ele>931</ele>
        <time>2026-05-26T10:05:52.000Z</time>
      </trkpt>
      <trkpt lat="44.65811" lon="5.04611">
        <ele>931</ele>
        <time>2026-05-26T10:05:53.000Z</time>
      </trkpt>
      <trkpt lat="44.65811" lon="5.04611">
        <ele>931</ele>
        <time>2026-05-26T10:05:54.000Z</time>
      </trkpt>
      <trkpt lat="44.6581" lon="5.04611">
        <ele>930</ele>
        <time>2026-05-26T10:05:55.000Z</time>
      </trkpt>
      <trkpt lat="44.65809" lon="5.04611">
        <ele>931</ele>
        <time>2026-05-26T10:05:56.000Z</time>
      </trkpt>
      <trkpt lat="44.65808" lon="5.04611">
        <ele>930</ele>
        <time>2026-05-26T10:05:57.000Z</time>
      </trkpt>
      <trkpt lat="44.65806" lon="5.04611">
        <ele>930</ele>
        <time>2026-05-26T10:05:58.000Z</time>
      </trkpt>
      <trkpt lat="44.65806" lon="5.04611">
        <ele>930</ele>
        <time>2026-05-26T10:05:59.000Z</time>
      </trkpt>
      <trkpt lat="44.65805" lon="5.04611">
        <ele>930</ele>
        <time>2026-05-26T10:06:00.000Z</time>
      </trkpt>
      <trkpt lat="44.65803" lon="5.0461">
        <ele>930</ele>
        <time>2026-05-26T10:06:01.000Z</time>
      </trkpt>
      <trkpt lat="44.65802" lon="5.0461">
        <ele>929</ele>
        <time>2026-05-26T10:06:02.000Z</time>
      </trkpt>
      <trkpt lat="44.65801" lon="5.04611">
        <ele>929</ele>
        <time>2026-05-26T10:06:03.000Z</time>
      </trkpt>
      <trkpt lat="44.658" lon="5.0461">
        <ele>929</ele>
        <time>2026-05-26T10:06:04.000Z</time>
      </trkpt>
      <trkpt lat="44.65799" lon="5.04611">
        <ele>929</ele>
        <time>2026-05-26T10:06:05.000Z</time>
      </trkpt>
      <trkpt lat="44.65798" lon="5.04611">
        <ele>930</ele>
        <time>2026-05-26T10:06:06.000Z</time>
      </trkpt>
      <trkpt lat="44.65797" lon="5.04611">
        <ele>930</ele>
        <time>2026-05-26T10:06:07.000Z</time>
      </trkpt>
      <trkpt lat="44.65796" lon="5.04612">
        <ele>930</ele>
        <time>2026-05-26T10:06:08.000Z</time>
      </trkpt>
      <trkpt lat="44.65795" lon="5.04612">
        <ele>930</ele>
        <time>2026-05-26T10:06:09.000Z</time>
      </trkpt>
      <trkpt lat="44.65794" lon="5.04612">
        <ele>929</ele>
        <time>2026-05-26T10:06:10.000Z</time>
      </trkpt>
      <trkpt lat="44.65793" lon="5.04612">
        <ele>929</ele>
        <time>2026-05-26T10:06:11.000Z</time>
      </trkpt>
      <trkpt lat="44.65793" lon="5.04612">
        <ele>929</ele>
        <time>2026-05-26T10:06:12.000Z</time>
      </trkpt>
      <trkpt lat="44.65793" lon="5.04612">
        <ele>929</ele>
        <time>2026-05-26T10:06:13.000Z</time>
      </trkpt>
      <trkpt lat="44.65793" lon="5.04612">
        <ele>929</ele>
        <time>2026-05-26T10:06:14.000Z</time>
      </trkpt>
      <trkpt lat="44.65793" lon="5.04612">
        <ele>929</ele>
        <time>2026-05-26T10:06:15.000Z</time>
      </trkpt>
      <trkpt lat="44.65792" lon="5.04612">
        <ele>929</ele>
        <time>2026-05-26T10:06:16.000Z</time>
      </trkpt>
      <trkpt lat="44.65792" lon="5.04613">
        <ele>930</ele>
        <time>2026-05-26T10:06:17.000Z</time>
      </trkpt>
      <trkpt lat="44.65791" lon="5.04613">
        <ele>930</ele>
        <time>2026-05-26T10:06:18.000Z</time>
      </trkpt>
      <trkpt lat="44.65791" lon="5.04613">
        <ele>929</ele>
        <time>2026-05-26T10:06:19.000Z</time>
      </trkpt>
      <trkpt lat="44.65791" lon="5.04613">
        <ele>929</ele>
        <time>2026-05-26T10:06:20.000Z</time>
      </trkpt>
      <trkpt lat="44.65791" lon="5.04613">
        <ele>929</ele>
        <time>2026-05-26T10:06:21.000Z</time>
      </trkpt>
      <trkpt lat="44.65791" lon="5.04613">
        <ele>929</ele>
        <time>2026-05-26T10:06:22.000Z</time>
      </trkpt>
      <trkpt lat="44.65791" lon="5.04613">
        <ele>929</ele>
        <time>2026-05-26T10:06:23.000Z</time>
      </trkpt>
      <trkpt lat="44.65791" lon="5.04613">
        <ele>929</ele>
        <time>2026-05-26T10:06:24.000Z</time>
      </trkpt>
      <trkpt lat="44.65791" lon="5.04613">
        <ele>929</ele>
        <time>2026-05-26T10:06:25.000Z</time>
      </trkpt>
      <trkpt lat="44.65791" lon="5.04613">
        <ele>929</ele>
        <time>2026-05-26T10:06:26.000Z</time>
      </trkpt>
      <trkpt lat="44.65791" lon="5.04613">
        <ele>929</ele>
        <time>2026-05-26T10:06:27.000Z</time>
      </trkpt>
      <trkpt lat="44.65791" lon="5.04613">
        <ele>929</ele>
        <time>2026-05-26T10:06:28.000Z</time>
      </trkpt>
      <trkpt lat="44.65791" lon="5.04613">
        <ele>929</ele>
        <time>2026-05-26T10:06:29.000Z</time>
      </trkpt>
      <trkpt lat="44.65791" lon="5.04613">
        <ele>929</ele>
        <time>2026-05-26T10:06:30.000Z</time>
      </trkpt>
      <trkpt lat="44.65791" lon="5.04613">
        <ele>929</ele>
        <time>2026-05-26T10:06:31.000Z</time>
      </trkpt>
      <trkpt lat="44.65791" lon="5.04613">
        <ele>928</ele>
        <time>2026-05-26T10:06:32.000Z</time>
      </trkpt>
      <trkpt lat="44.65791" lon="5.04613">
        <ele>928</ele>
        <time>2026-05-26T10:06:33.000Z</time>
      </trkpt>
      <trkpt lat="44.65792" lon="5.04613">
        <ele>928</ele>
        <time>2026-05-26T10:06:34.000Z</time>
      </trkpt>
      <trkpt lat="44.65792" lon="5.04614">
        <ele>928</ele>
        <time>2026-05-26T10:06:35.000Z</time>
      </trkpt>
      <trkpt lat="44.65793" lon="5.04615">
        <ele>927</ele>
        <time>2026-05-26T10:06:36.000Z</time>
      </trkpt>
      <trkpt lat="44.65792" lon="5.04615">
        <ele>927</ele>
        <time>2026-05-26T10:06:37.000Z</time>
      </trkpt>
      <trkpt lat="44.65791" lon="5.04615">
        <ele>927</ele>
        <time>2026-05-26T10:06:38.000Z</time>
      </trkpt>
      <trkpt lat="44.65791" lon="5.04615">
        <ele>927</ele>
        <time>2026-05-26T10:06:39.000Z</time>
      </trkpt>
      <trkpt lat="44.65792" lon="5.04615">
        <ele>927</ele>
        <time>2026-05-26T10:06:40.000Z</time>
      </trkpt>
      <trkpt lat="44.65793" lon="5.04615">
        <ele>927</ele>
        <time>2026-05-26T10:06:41.000Z</time>
      </trkpt>
      <trkpt lat="44.65793" lon="5.04615">
        <ele>927</ele>
        <time>2026-05-26T10:06:42.000Z</time>
      </trkpt>
      <trkpt lat="44.65793" lon="5.04615">
        <ele>927</ele>
        <time>2026-05-26T10:06:43.000Z</time>
      </trkpt>
      <trkpt lat="44.65793" lon="5.04615">
        <ele>927</ele>
        <time>2026-05-26T10:06:44.000Z</time>
      </trkpt>
      <trkpt lat="44.65793" lon="5.04615">
        <ele>927</ele>
        <time>2026-05-26T10:06:45.000Z</time>
      </trkpt>
      <trkpt lat="44.65793" lon="5.04615">
        <ele>927</ele>
        <time>2026-05-26T10:06:46.000Z</time>
      </trkpt>
      <trkpt lat="44.65793" lon="5.04615">
        <ele>927</ele>
        <time>2026-05-26T10:06:47.000Z</time>
      </trkpt>
      <trkpt lat="44.65793" lon="5.04615">
        <ele>927</ele>
        <time>2026-05-26T10:06:48.000Z</time>
      </trkpt>
      <trkpt lat="44.65793" lon="5.04615">
        <ele>927</ele>
        <time>2026-05-26T10:06:49.000Z</time>
      </trkpt>
      <trkpt lat="44.65793" lon="5.04615">
        <ele>927</ele>
        <time>2026-05-26T10:06:50.000Z</time>
      </trkpt>
      <trkpt lat="44.65792" lon="5.04614">
        <ele>926</ele>
        <time>2026-05-26T10:06:51.000Z</time>
      </trkpt>
      <trkpt lat="44.65791" lon="5.04614">
        <ele>927</ele>
        <time>2026-05-26T10:06:52.000Z</time>
      </trkpt>
      <trkpt lat="44.6579" lon="5.04613">
        <ele>926</ele>
        <time>2026-05-26T10:06:53.000Z</time>
      </trkpt>
      <trkpt lat="44.6579" lon="5.04615">
        <ele>926</ele>
        <time>2026-05-26T10:06:54.000Z</time>
      </trkpt>
      <trkpt lat="44.6579" lon="5.04614">
        <ele>927</ele>
        <time>2026-05-26T10:06:55.000Z</time>
      </trkpt>
      <trkpt lat="44.65791" lon="5.04613">
        <ele>928</ele>
        <time>2026-05-26T10:06:56.000Z</time>
      </trkpt>
      <trkpt lat="44.65793" lon="5.04612">
        <ele>928</ele>
        <time>2026-05-26T10:06:57.000Z</time>
      </trkpt>
      <trkpt lat="44.65795" lon="5.0461">
        <ele>929</ele>
        <time>2026-05-26T10:06:58.000Z</time>
      </trkpt>
      <trkpt lat="44.65796" lon="5.04608">
        <ele>929</ele>
        <time>2026-05-26T10:06:59.000Z</time>
      </trkpt>
      <trkpt lat="44.65797" lon="5.04607">
        <ele>929</ele>
        <time>2026-05-26T10:07:00.000Z</time>
      </trkpt>
      <trkpt lat="44.65797" lon="5.04608">
        <ele>929</ele>
        <time>2026-05-26T10:07:01.000Z</time>
      </trkpt>
      <trkpt lat="44.65797" lon="5.04609">
        <ele>929</ele>
        <time>2026-05-26T10:07:02.000Z</time>
      </trkpt>
      <trkpt lat="44.65798" lon="5.04608">
        <ele>928</ele>
        <time>2026-05-26T10:07:03.000Z</time>
      </trkpt>
      <trkpt lat="44.65798" lon="5.04607">
        <ele>928</ele>
        <time>2026-05-26T10:07:04.000Z</time>
      </trkpt>
      <trkpt lat="44.65799" lon="5.04607">
        <ele>928</ele>
        <time>2026-05-26T10:07:05.000Z</time>
      </trkpt>
      <trkpt lat="44.65801" lon="5.04607">
        <ele>929</ele>
        <time>2026-05-26T10:07:06.000Z</time>
      </trkpt>
      <trkpt lat="44.65802" lon="5.04607">
        <ele>928</ele>
        <time>2026-05-26T10:07:07.000Z</time>
      </trkpt>
      <trkpt lat="44.65802" lon="5.04607">
        <ele>928</ele>
        <time>2026-05-26T10:07:08.000Z</time>
      </trkpt>
      <trkpt lat="44.65802" lon="5.04609">
        <ele>928</ele>
        <time>2026-05-26T10:07:09.000Z</time>
      </trkpt>
      <trkpt lat="44.65803" lon="5.04609">
        <ele>928</ele>
        <time>2026-05-26T10:07:10.000Z</time>
      </trkpt>
      <trkpt lat="44.65803" lon="5.04609">
        <ele>928</ele>
        <time>2026-05-26T10:07:11.000Z</time>
      </trkpt>
      <trkpt lat="44.65804" lon="5.0461">
        <ele>929</ele>
        <time>2026-05-26T10:07:12.000Z</time>
      </trkpt>
      <trkpt lat="44.65805" lon="5.0461">
        <ele>930</ele>
        <time>2026-05-26T10:07:13.000Z</time>
      </trkpt>
      <trkpt lat="44.65806" lon="5.0461">
        <ele>930</ele>
        <time>2026-05-26T10:07:14.000Z</time>
      </trkpt>
      <trkpt lat="44.65807" lon="5.0461">
        <ele>930</ele>
        <time>2026-05-26T10:07:15.000Z</time>
      </trkpt>
      <trkpt lat="44.65808" lon="5.0461">
        <ele>930</ele>
        <time>2026-05-26T10:07:16.000Z</time>
      </trkpt>
      <trkpt lat="44.65808" lon="5.0461">
        <ele>930</ele>
        <time>2026-05-26T10:07:17.000Z</time>
      </trkpt>
      <trkpt lat="44.65809" lon="5.0461">
        <ele>930</ele>
        <time>2026-05-26T10:07:18.000Z</time>
      </trkpt>
      <trkpt lat="44.6581" lon="5.0461">
        <ele>931</ele>
        <time>2026-05-26T10:07:19.000Z</time>
      </trkpt>
      <trkpt lat="44.65811" lon="5.0461">
        <ele>930</ele>
        <time>2026-05-26T10:07:20.000Z</time>
      </trkpt>
      <trkpt lat="44.65812" lon="5.0461">
        <ele>930</ele>
        <time>2026-05-26T10:07:21.000Z</time>
      </trkpt>
      <trkpt lat="44.65813" lon="5.04611">
        <ele>930</ele>
        <time>2026-05-26T10:07:22.000Z</time>
      </trkpt>
      <trkpt lat="44.65813" lon="5.04611">
        <ele>931</ele>
        <time>2026-05-26T10:07:23.000Z</time>
      </trkpt>
      <trkpt lat="44.65814" lon="5.04612">
        <ele>930</ele>
        <time>2026-05-26T10:07:24.000Z</time>
      </trkpt>
      <trkpt lat="44.65815" lon="5.04612">
        <ele>930</ele>
        <time>2026-05-26T10:07:25.000Z</time>
      </trkpt>
      <trkpt lat="44.65816" lon="5.04612">
        <ele>931</ele>
        <time>2026-05-26T10:07:26.000Z</time>
      </trkpt>
      <trkpt lat="44.65816" lon="5.04613">
        <ele>930</ele>
        <time>2026-05-26T10:07:27.000Z</time>
      </trkpt>
      <trkpt lat="44.65816" lon="5.04613">
        <ele>931</ele>
        <time>2026-05-26T10:07:28.000Z</time>
      </trkpt>
      <trkpt lat="44.65816" lon="5.04612">
        <ele>931</ele>
        <time>2026-05-26T10:07:29.000Z</time>
      </trkpt>
      <trkpt lat="44.65816" lon="5.04612">
        <ele>931</ele>
        <time>2026-05-26T10:07:30.000Z</time>
      </trkpt>
      <trkpt lat="44.65816" lon="5.04612">
        <ele>931</ele>
        <time>2026-05-26T10:07:31.000Z</time>
      </trkpt>
      <trkpt lat="44.65815" lon="5.04611">
        <ele>931</ele>
        <time>2026-05-26T10:07:32.000Z</time>
      </trkpt>
      <trkpt lat="44.65815" lon="5.04611">
        <ele>931</ele>
        <time>2026-05-26T10:07:33.000Z</time>
      </trkpt>
      <trkpt lat="44.65815" lon="5.04611">
        <ele>931</ele>
        <time>2026-05-26T10:07:34.000Z</time>
      </trkpt>
      <trkpt lat="44.65815" lon="5.04611">
        <ele>931</ele>
        <time>2026-05-26T10:07:35.000Z</time>
      </trkpt>
      <trkpt lat="44.65815" lon="5.04611">
        <ele>931</ele>
        <time>2026-05-26T10:07:36.000Z</time>
      </trkpt>
      <trkpt lat="44.65815" lon="5.04611">
        <ele>931</ele>
        <time>2026-05-26T10:07:37.000Z</time>
      </trkpt>
      <trkpt lat="44.65815" lon="5.04611">
        <ele>931</ele>
        <time>2026-05-26T10:07:38.000Z</time>
      </trkpt>
      <trkpt lat="44.65815" lon="5.04611">
        <ele>931</ele>
        <time>2026-05-26T10:07:39.000Z</time>
      </trkpt>
      <trkpt lat="44.65815" lon="5.04611">
        <ele>931</ele>
        <time>2026-05-26T10:07:40.000Z</time>
      </trkpt>
      <trkpt lat="44.65815" lon="5.04611">
        <ele>931</ele>
        <time>2026-05-26T10:07:41.000Z</time>
      </trkpt>
      <trkpt lat="44.65815" lon="5.04611">
        <ele>931</ele>
        <time>2026-05-26T10:07:42.000Z</time>
      </trkpt>
      <trkpt lat="44.65815" lon="5.04611">
        <ele>931</ele>
        <time>2026-05-26T10:07:43.000Z</time>
      </trkpt>
      <trkpt lat="44.65815" lon="5.04611">
        <ele>931</ele>
        <time>2026-05-26T10:07:44.000Z</time>
      </trkpt>
      <trkpt lat="44.65815" lon="5.04611">
        <ele>931</ele>
        <time>2026-05-26T10:07:45.000Z</time>
      </trkpt>
      <trkpt lat="44.65815" lon="5.04611">
        <ele>931</ele>
        <time>2026-05-26T10:07:46.000Z</time>
      </trkpt>
      <trkpt lat="44.65814" lon="5.04612">
        <ele>930</ele>
        <time>2026-05-26T10:07:47.000Z</time>
      </trkpt>
      <trkpt lat="44.65814" lon="5.04611">
        <ele>930</ele>
        <time>2026-05-26T10:07:48.000Z</time>
      </trkpt>
      <trkpt lat="44.65814" lon="5.04611">
        <ele>930</ele>
        <time>2026-05-26T10:07:49.000Z</time>
      </trkpt>
      <trkpt lat="44.65815" lon="5.04611">
        <ele>930</ele>
        <time>2026-05-26T10:07:50.000Z</time>
      </trkpt>
      <trkpt lat="44.65815" lon="5.04611">
        <ele>930</ele>
        <time>2026-05-26T10:07:51.000Z</time>
      </trkpt>
      <trkpt lat="44.65815" lon="5.04611">
        <ele>930</ele>
        <time>2026-05-26T10:07:52.000Z</time>
      </trkpt>
      <trkpt lat="44.65815" lon="5.04611">
        <ele>930</ele>
        <time>2026-05-26T10:07:53.000Z</time>
      </trkpt>
      <trkpt lat="44.65815" lon="5.04611">
        <ele>930</ele>
        <time>2026-05-26T10:07:54.000Z</time>
      </trkpt>
      <trkpt lat="44.65815" lon="5.04611">
        <ele>930</ele>
        <time>2026-05-26T10:07:55.000Z</time>
      </trkpt>
      <trkpt lat="44.65815" lon="5.04611">
        <ele>930</ele>
        <time>2026-05-26T10:07:56.000Z</time>
      </trkpt>
      <trkpt lat="44.65815" lon="5.04612">
        <ele>931</ele>
        <time>2026-05-26T10:07:57.000Z</time>
      </trkpt>
      <trkpt lat="44.65816" lon="5.04613">
        <ele>931</ele>
        <time>2026-05-26T10:07:58.000Z</time>
      </trkpt>
      <trkpt lat="44.65816" lon="5.04613">
        <ele>931</ele>
        <time>2026-05-26T10:07:59.000Z</time>
      </trkpt>
      <trkpt lat="44.65817" lon="5.04613">
        <ele>930</ele>
        <time>2026-05-26T10:08:00.000Z</time>
      </trkpt>
      <trkpt lat="44.65817" lon="5.04614">
        <ele>931</ele>
        <time>2026-05-26T10:08:01.000Z</time>
      </trkpt>
      <trkpt lat="44.65817" lon="5.04614">
        <ele>931</ele>
        <time>2026-05-26T10:08:02.000Z</time>
      </trkpt>
      <trkpt lat="44.65817" lon="5.04614">
        <ele>931</ele>
        <time>2026-05-26T10:08:03.000Z</time>
      </trkpt>
      <trkpt lat="44.65817" lon="5.04614">
        <ele>931</ele>
        <time>2026-05-26T10:08:04.000Z</time>
      </trkpt>
      <trkpt lat="44.65817" lon="5.04614">
        <ele>931</ele>
        <time>2026-05-26T10:08:05.000Z</time>
      </trkpt>
      <trkpt lat="44.65817" lon="5.04614">
        <ele>931</ele>
        <time>2026-05-26T10:08:06.000Z</time>
      </trkpt>
      <trkpt lat="44.65817" lon="5.04614">
        <ele>931</ele>
        <time>2026-05-26T10:08:07.000Z</time>
      </trkpt>
      <trkpt lat="44.65817" lon="5.04614">
        <ele>931</ele>
        <time>2026-05-26T10:08:08.000Z</time>
      </trkpt>
      <trkpt lat="44.65817" lon="5.04614">
        <ele>931</ele>
        <time>2026-05-26T10:08:09.000Z</time>
      </trkpt>
      <trkpt lat="44.65817" lon="5.04614">
        <ele>931</ele>
        <time>2026-05-26T10:08:10.000Z</time>
      </trkpt>
      <trkpt lat="44.65817" lon="5.04614">
        <ele>931</ele>
        <time>2026-05-26T10:08:11.000Z</time>
      </trkpt>
      <trkpt lat="44.65817" lon="5.04614">
        <ele>931</ele>
        <time>2026-05-26T10:08:12.000Z</time>
      </trkpt>
      <trkpt lat="44.65817" lon="5.04613">
        <ele>931</ele>
        <time>2026-05-26T10:08:13.000Z</time>
      </trkpt>
      <trkpt lat="44.65817" lon="5.04612">
        <ele>931</ele>
        <time>2026-05-26T10:08:14.000Z</time>
      </trkpt>
      <trkpt lat="44.65817" lon="5.04613">
        <ele>931</ele>
        <time>2026-05-26T10:08:15.000Z</time>
      </trkpt>
      <trkpt lat="44.65818" lon="5.04614">
        <ele>931</ele>
        <time>2026-05-26T10:08:16.000Z</time>
      </trkpt>
      <trkpt lat="44.65818" lon="5.04614">
        <ele>931</ele>
        <time>2026-05-26T10:08:17.000Z</time>
      </trkpt>
      <trkpt lat="44.65818" lon="5.04614">
        <ele>931</ele>
        <time>2026-05-26T10:08:18.000Z</time>
      </trkpt>
      <trkpt lat="44.65818" lon="5.04614">
        <ele>931</ele>
        <time>2026-05-26T10:08:19.000Z</time>
      </trkpt>
      <trkpt lat="44.65818" lon="5.04614">
        <ele>931</ele>
        <time>2026-05-26T10:08:20.000Z</time>
      </trkpt>
      <trkpt lat="44.65818" lon="5.04614">
        <ele>931</ele>
        <time>2026-05-26T10:08:21.000Z</time>
      </trkpt>
      <trkpt lat="44.65818" lon="5.04614">
        <ele>931</ele>
        <time>2026-05-26T10:08:22.000Z</time>
      </trkpt>
      <trkpt lat="44.65818" lon="5.04614">
        <ele>931</ele>
        <time>2026-05-26T10:08:23.000Z</time>
      </trkpt>
      <trkpt lat="44.65818" lon="5.04616">
        <ele>931</ele>
        <time>2026-05-26T10:08:24.000Z</time>
      </trkpt>
      <trkpt lat="44.65818" lon="5.04618">
        <ele>931</ele>
        <time>2026-05-26T10:08:25.000Z</time>
      </trkpt>
      <trkpt lat="44.65819" lon="5.04618">
        <ele>931</ele>
        <time>2026-05-26T10:08:26.000Z</time>
      </trkpt>
      <trkpt lat="44.6582" lon="5.04619">
        <ele>931</ele>
        <time>2026-05-26T10:08:27.000Z</time>
      </trkpt>
      <trkpt lat="44.6582" lon="5.0462">
        <ele>930</ele>
        <time>2026-05-26T10:08:28.000Z</time>
      </trkpt>
      <trkpt lat="44.6582" lon="5.04621">
        <ele>930</ele>
        <time>2026-05-26T10:08:29.000Z</time>
      </trkpt>
      <trkpt lat="44.6582" lon="5.04621">
        <ele>930</ele>
        <time>2026-05-26T10:08:30.000Z</time>
      </trkpt>
      <trkpt lat="44.6582" lon="5.04621">
        <ele>930</ele>
        <time>2026-05-26T10:08:31.000Z</time>
      </trkpt>
      <trkpt lat="44.6582" lon="5.04622">
        <ele>930</ele>
        <time>2026-05-26T10:08:32.000Z</time>
      </trkpt>
      <trkpt lat="44.65821" lon="5.04623">
        <ele>930</ele>
        <time>2026-05-26T10:08:33.000Z</time>
      </trkpt>
      <trkpt lat="44.65822" lon="5.04624">
        <ele>930</ele>
        <time>2026-05-26T10:08:34.000Z</time>
      </trkpt>
      <trkpt lat="44.65823" lon="5.04625">
        <ele>930</ele>
        <time>2026-05-26T10:08:35.000Z</time>
      </trkpt>
      <trkpt lat="44.65823" lon="5.04625">
        <ele>930</ele>
        <time>2026-05-26T10:08:36.000Z</time>
      </trkpt>
      <trkpt lat="44.65823" lon="5.04626">
        <ele>930</ele>
        <time>2026-05-26T10:08:37.000Z</time>
      </trkpt>
      <trkpt lat="44.65824" lon="5.04626">
        <ele>930</ele>
        <time>2026-05-26T10:08:38.000Z</time>
      </trkpt>
      <trkpt lat="44.65825" lon="5.04627">
        <ele>929</ele>
        <time>2026-05-26T10:08:39.000Z</time>
      </trkpt>
      <trkpt lat="44.65825" lon="5.04627">
        <ele>929</ele>
        <time>2026-05-26T10:08:40.000Z</time>
      </trkpt>
      <trkpt lat="44.65826" lon="5.04627">
        <ele>929</ele>
        <time>2026-05-26T10:08:41.000Z</time>
      </trkpt>
      <trkpt lat="44.65827" lon="5.04627">
        <ele>929</ele>
        <time>2026-05-26T10:08:42.000Z</time>
      </trkpt>
      <trkpt lat="44.65828" lon="5.04628">
        <ele>929</ele>
        <time>2026-05-26T10:08:43.000Z</time>
      </trkpt>
      <trkpt lat="44.65828" lon="5.04628">
        <ele>929</ele>
        <time>2026-05-26T10:08:44.000Z</time>
      </trkpt>
      <trkpt lat="44.65828" lon="5.0463">
        <ele>928</ele>
        <time>2026-05-26T10:08:45.000Z</time>
      </trkpt>
      <trkpt lat="44.65829" lon="5.04631">
        <ele>929</ele>
        <time>2026-05-26T10:08:46.000Z</time>
      </trkpt>
      <trkpt lat="44.6583" lon="5.04632">
        <ele>928</ele>
        <time>2026-05-26T10:08:47.000Z</time>
      </trkpt>
      <trkpt lat="44.65832" lon="5.04631">
        <ele>928</ele>
        <time>2026-05-26T10:08:48.000Z</time>
      </trkpt>
      <trkpt lat="44.65833" lon="5.04631">
        <ele>928</ele>
        <time>2026-05-26T10:08:49.000Z</time>
      </trkpt>
      <trkpt lat="44.65834" lon="5.0463">
        <ele>928</ele>
        <time>2026-05-26T10:08:50.000Z</time>
      </trkpt>
      <trkpt lat="44.65835" lon="5.0463">
        <ele>927</ele>
        <time>2026-05-26T10:08:51.000Z</time>
      </trkpt>
      <trkpt lat="44.65835" lon="5.04631">
        <ele>927</ele>
        <time>2026-05-26T10:08:52.000Z</time>
      </trkpt>
      <trkpt lat="44.65836" lon="5.04631">
        <ele>926</ele>
        <time>2026-05-26T10:08:53.000Z</time>
      </trkpt>
      <trkpt lat="44.65836" lon="5.04631">
        <ele>926</ele>
        <time>2026-05-26T10:08:54.000Z</time>
      </trkpt>
      <trkpt lat="44.65837" lon="5.04632">
        <ele>926</ele>
        <time>2026-05-26T10:08:55.000Z</time>
      </trkpt>
      <trkpt lat="44.65837" lon="5.04633">
        <ele>926</ele>
        <time>2026-05-26T10:08:56.000Z</time>
      </trkpt>
      <trkpt lat="44.65838" lon="5.04634">
        <ele>926</ele>
        <time>2026-05-26T10:08:57.000Z</time>
      </trkpt>
      <trkpt lat="44.65839" lon="5.04634">
        <ele>926</ele>
        <time>2026-05-26T10:08:58.000Z</time>
      </trkpt>
      <trkpt lat="44.6584" lon="5.04635">
        <ele>926</ele>
        <time>2026-05-26T10:08:59.000Z</time>
      </trkpt>
      <trkpt lat="44.65841" lon="5.04634">
        <ele>926</ele>
        <time>2026-05-26T10:09:00.000Z</time>
      </trkpt>
      <trkpt lat="44.65841" lon="5.04635">
        <ele>927</ele>
        <time>2026-05-26T10:09:01.000Z</time>
      </trkpt>
      <trkpt lat="44.65844" lon="5.04635">
        <ele>927</ele>
        <time>2026-05-26T10:09:02.000Z</time>
      </trkpt>
      <trkpt lat="44.65844" lon="5.04634">
        <ele>927</ele>
        <time>2026-05-26T10:09:03.000Z</time>
      </trkpt>
      <trkpt lat="44.65845" lon="5.04632">
        <ele>927</ele>
        <time>2026-05-26T10:09:04.000Z</time>
      </trkpt>
      <trkpt lat="44.65845" lon="5.04632">
        <ele>928</ele>
        <time>2026-05-26T10:09:05.000Z</time>
      </trkpt>
      <trkpt lat="44.65846" lon="5.04632">
        <ele>927</ele>
        <time>2026-05-26T10:09:06.000Z</time>
      </trkpt>
      <trkpt lat="44.65847" lon="5.04632">
        <ele>926</ele>
        <time>2026-05-26T10:09:07.000Z</time>
      </trkpt>
      <trkpt lat="44.65849" lon="5.04632">
        <ele>926</ele>
        <time>2026-05-26T10:09:08.000Z</time>
      </trkpt>
      <trkpt lat="44.65849" lon="5.04632">
        <ele>926</ele>
        <time>2026-05-26T10:09:09.000Z</time>
      </trkpt>
      <trkpt lat="44.65849" lon="5.04632">
        <ele>927</ele>
        <time>2026-05-26T10:09:10.000Z</time>
      </trkpt>
      <trkpt lat="44.6585" lon="5.04631">
        <ele>927</ele>
        <time>2026-05-26T10:09:11.000Z</time>
      </trkpt>
      <trkpt lat="44.65851" lon="5.04631">
        <ele>926</ele>
        <time>2026-05-26T10:09:12.000Z</time>
      </trkpt>
      <trkpt lat="44.65851" lon="5.04631">
        <ele>925</ele>
        <time>2026-05-26T10:09:13.000Z</time>
      </trkpt>
      <trkpt lat="44.65851" lon="5.04631">
        <ele>925</ele>
        <time>2026-05-26T10:09:14.000Z</time>
      </trkpt>
      <trkpt lat="44.65851" lon="5.04631">
        <ele>926</ele>
        <time>2026-05-26T10:09:15.000Z</time>
      </trkpt>
      <trkpt lat="44.65851" lon="5.04631">
        <ele>925</ele>
        <time>2026-05-26T10:09:16.000Z</time>
      </trkpt>
      <trkpt lat="44.65851" lon="5.04631">
        <ele>925</ele>
        <time>2026-05-26T10:09:17.000Z</time>
      </trkpt>
      <trkpt lat="44.65851" lon="5.04631">
        <ele>925</ele>
        <time>2026-05-26T10:09:18.000Z</time>
      </trkpt>
      <trkpt lat="44.65851" lon="5.04631">
        <ele>925</ele>
        <time>2026-05-26T10:09:19.000Z</time>
      </trkpt>
      <trkpt lat="44.65851" lon="5.04631">
        <ele>925</ele>
        <time>2026-05-26T10:09:20.000Z</time>
      </trkpt>
      <trkpt lat="44.65851" lon="5.04631">
        <ele>925</ele>
        <time>2026-05-26T10:09:21.000Z</time>
      </trkpt>
      <trkpt lat="44.65851" lon="5.04631">
        <ele>925</ele>
        <time>2026-05-26T10:09:22.000Z</time>
      </trkpt>
      <trkpt lat="44.65851" lon="5.04631">
        <ele>925</ele>
        <time>2026-05-26T10:09:23.000Z</time>
      </trkpt>
      <trkpt lat="44.65851" lon="5.04634">
        <ele>925</ele>
        <time>2026-05-26T10:09:24.000Z</time>
      </trkpt>
      <trkpt lat="44.65851" lon="5.04635">
        <ele>925</ele>
        <time>2026-05-26T10:09:25.000Z</time>
      </trkpt>
      <trkpt lat="44.65852" lon="5.04636">
        <ele>925</ele>
        <time>2026-05-26T10:09:26.000Z</time>
      </trkpt>
      <trkpt lat="44.65853" lon="5.04637">
        <ele>924</ele>
        <time>2026-05-26T10:09:27.000Z</time>
      </trkpt>
      <trkpt lat="44.65853" lon="5.04638">
        <ele>924</ele>
        <time>2026-05-26T10:09:28.000Z</time>
      </trkpt>
      <trkpt lat="44.65854" lon="5.04638">
        <ele>925</ele>
        <time>2026-05-26T10:09:29.000Z</time>
      </trkpt>
      <trkpt lat="44.65855" lon="5.04637">
        <ele>925</ele>
        <time>2026-05-26T10:09:30.000Z</time>
      </trkpt>
      <trkpt lat="44.65855" lon="5.04636">
        <ele>924</ele>
        <time>2026-05-26T10:09:31.000Z</time>
      </trkpt>
      <trkpt lat="44.65855" lon="5.04636">
        <ele>924</ele>
        <time>2026-05-26T10:09:32.000Z</time>
      </trkpt>
      <trkpt lat="44.65855" lon="5.04637">
        <ele>924</ele>
        <time>2026-05-26T10:09:33.000Z</time>
      </trkpt>
      <trkpt lat="44.65856" lon="5.04637">
        <ele>924</ele>
        <time>2026-05-26T10:09:34.000Z</time>
      </trkpt>
      <trkpt lat="44.65856" lon="5.04637">
        <ele>924</ele>
        <time>2026-05-26T10:09:35.000Z</time>
      </trkpt>
      <trkpt lat="44.65857" lon="5.04638">
        <ele>924</ele>
        <time>2026-05-26T10:09:36.000Z</time>
      </trkpt>
      <trkpt lat="44.65857" lon="5.04637">
        <ele>923</ele>
        <time>2026-05-26T10:09:37.000Z</time>
      </trkpt>
      <trkpt lat="44.65858" lon="5.04637">
        <ele>923</ele>
        <time>2026-05-26T10:09:38.000Z</time>
      </trkpt>
      <trkpt lat="44.65858" lon="5.04637">
        <ele>922</ele>
        <time>2026-05-26T10:09:39.000Z</time>
      </trkpt>
      <trkpt lat="44.65858" lon="5.04637">
        <ele>922</ele>
        <time>2026-05-26T10:09:40.000Z</time>
      </trkpt>
      <trkpt lat="44.65858" lon="5.04637">
        <ele>922</ele>
        <time>2026-05-26T10:09:41.000Z</time>
      </trkpt>
      <trkpt lat="44.65858" lon="5.04637">
        <ele>922</ele>
        <time>2026-05-26T10:09:42.000Z</time>
      </trkpt>
      <trkpt lat="44.65858" lon="5.04637">
        <ele>922</ele>
        <time>2026-05-26T10:09:43.000Z</time>
      </trkpt>
      <trkpt lat="44.65858" lon="5.04637">
        <ele>922</ele>
        <time>2026-05-26T10:09:44.000Z</time>
      </trkpt>
      <trkpt lat="44.65858" lon="5.04637">
        <ele>922</ele>
        <time>2026-05-26T10:09:45.000Z</time>
      </trkpt>
      <trkpt lat="44.65858" lon="5.04637">
        <ele>922</ele>
        <time>2026-05-26T10:09:46.000Z</time>
      </trkpt>
      <trkpt lat="44.65858" lon="5.04637">
        <ele>922</ele>
        <time>2026-05-26T10:09:47.000Z</time>
      </trkpt>
      <trkpt lat="44.65858" lon="5.04637">
        <ele>922</ele>
        <time>2026-05-26T10:09:48.000Z</time>
      </trkpt>
      <trkpt lat="44.65858" lon="5.04637">
        <ele>922</ele>
        <time>2026-05-26T10:09:49.000Z</time>
      </trkpt>
      <trkpt lat="44.65858" lon="5.04637">
        <ele>922</ele>
        <time>2026-05-26T10:09:50.000Z</time>
      </trkpt>
      <trkpt lat="44.65858" lon="5.04637">
        <ele>922</ele>
        <time>2026-05-26T10:09:51.000Z</time>
      </trkpt>
      <trkpt lat="44.65858" lon="5.04637">
        <ele>922</ele>
        <time>2026-05-26T10:09:52.000Z</time>
      </trkpt>
      <trkpt lat="44.65858" lon="5.04637">
        <ele>922</ele>
        <time>2026-05-26T10:09:53.000Z</time>
      </trkpt>
      <trkpt lat="44.65858" lon="5.04637">
        <ele>922</ele>
        <time>2026-05-26T10:09:54.000Z</time>
      </trkpt>
      <trkpt lat="44.65858" lon="5.04637">
        <ele>922</ele>
        <time>2026-05-26T10:09:55.000Z</time>
      </trkpt>
      <trkpt lat="44.65862" lon="5.04639">
        <ele>921</ele>
        <time>2026-05-26T10:09:56.000Z</time>
      </trkpt>
      <trkpt lat="44.65862" lon="5.04639">
        <ele>921</ele>
        <time>2026-05-26T10:09:57.000Z</time>
      </trkpt>
      <trkpt lat="44.65863" lon="5.0464">
        <ele>922</ele>
        <time>2026-05-26T10:09:58.000Z</time>
      </trkpt>
      <trkpt lat="44.65864" lon="5.0464">
        <ele>922</ele>
        <time>2026-05-26T10:09:59.000Z</time>
      </trkpt>
      <trkpt lat="44.65865" lon="5.04639">
        <ele>921</ele>
        <time>2026-05-26T10:10:00.000Z</time>
      </trkpt>
      <trkpt lat="44.65865" lon="5.0464">
        <ele>921</ele>
        <time>2026-05-26T10:10:01.000Z</time>
      </trkpt>
      <trkpt lat="44.65866" lon="5.04639">
        <ele>922</ele>
        <time>2026-05-26T10:10:02.000Z</time>
      </trkpt>
      <trkpt lat="44.65867" lon="5.04641">
        <ele>924</ele>
        <time>2026-05-26T10:10:03.000Z</time>
      </trkpt>
      <trkpt lat="44.65867" lon="5.0464">
        <ele>924</ele>
        <time>2026-05-26T10:10:04.000Z</time>
      </trkpt>
      <trkpt lat="44.65868" lon="5.04638">
        <ele>923</ele>
        <time>2026-05-26T10:10:05.000Z</time>
      </trkpt>
      <trkpt lat="44.65869" lon="5.04638">
        <ele>923</ele>
        <time>2026-05-26T10:10:06.000Z</time>
      </trkpt>
      <trkpt lat="44.65871" lon="5.04639">
        <ele>922</ele>
        <time>2026-05-26T10:10:07.000Z</time>
      </trkpt>
      <trkpt lat="44.65872" lon="5.04639">
        <ele>922</ele>
        <time>2026-05-26T10:10:08.000Z</time>
      </trkpt>
      <trkpt lat="44.65874" lon="5.0464">
        <ele>921</ele>
        <time>2026-05-26T10:10:09.000Z</time>
      </trkpt>
      <trkpt lat="44.65876" lon="5.0464">
        <ele>920</ele>
        <time>2026-05-26T10:10:10.000Z</time>
      </trkpt>
      <trkpt lat="44.65876" lon="5.0464">
        <ele>920</ele>
        <time>2026-05-26T10:10:11.000Z</time>
      </trkpt>
      <trkpt lat="44.65877" lon="5.0464">
        <ele>920</ele>
        <time>2026-05-26T10:10:12.000Z</time>
      </trkpt>
      <trkpt lat="44.65878" lon="5.0464">
        <ele>920</ele>
        <time>2026-05-26T10:10:13.000Z</time>
      </trkpt>
      <trkpt lat="44.65879" lon="5.0464">
        <ele>920</ele>
        <time>2026-05-26T10:10:14.000Z</time>
      </trkpt>
      <trkpt lat="44.65881" lon="5.0464">
        <ele>919</ele>
        <time>2026-05-26T10:10:15.000Z</time>
      </trkpt>
      <trkpt lat="44.65881" lon="5.0464">
        <ele>920</ele>
        <time>2026-05-26T10:10:16.000Z</time>
      </trkpt>
      <trkpt lat="44.65882" lon="5.04639">
        <ele>919</ele>
        <time>2026-05-26T10:10:17.000Z</time>
      </trkpt>
      <trkpt lat="44.65882" lon="5.04638">
        <ele>919</ele>
        <time>2026-05-26T10:10:18.000Z</time>
      </trkpt>
      <trkpt lat="44.65883" lon="5.04637">
        <ele>918</ele>
        <time>2026-05-26T10:10:19.000Z</time>
      </trkpt>
      <trkpt lat="44.65883" lon="5.04637">
        <ele>917</ele>
        <time>2026-05-26T10:10:20.000Z</time>
      </trkpt>
      <trkpt lat="44.65885" lon="5.04637">
        <ele>917</ele>
        <time>2026-05-26T10:10:21.000Z</time>
      </trkpt>
      <trkpt lat="44.65886" lon="5.04637">
        <ele>916</ele>
        <time>2026-05-26T10:10:22.000Z</time>
      </trkpt>
      <trkpt lat="44.65886" lon="5.04637">
        <ele>916</ele>
        <time>2026-05-26T10:10:23.000Z</time>
      </trkpt>
      <trkpt lat="44.65887" lon="5.04636">
        <ele>917</ele>
        <time>2026-05-26T10:10:24.000Z</time>
      </trkpt>
      <trkpt lat="44.65887" lon="5.04635">
        <ele>917</ele>
        <time>2026-05-26T10:10:25.000Z</time>
      </trkpt>
      <trkpt lat="44.65888" lon="5.04634">
        <ele>916</ele>
        <time>2026-05-26T10:10:26.000Z</time>
      </trkpt>
      <trkpt lat="44.65889" lon="5.04633">
        <ele>917</ele>
        <time>2026-05-26T10:10:27.000Z</time>
      </trkpt>
      <trkpt lat="44.65889" lon="5.04633">
        <ele>917</ele>
        <time>2026-05-26T10:10:28.000Z</time>
      </trkpt>
      <trkpt lat="44.65889" lon="5.04633">
        <ele>917</ele>
        <time>2026-05-26T10:10:29.000Z</time>
      </trkpt>
      <trkpt lat="44.65889" lon="5.04633">
        <ele>917</ele>
        <time>2026-05-26T10:10:30.000Z</time>
      </trkpt>
      <trkpt lat="44.65888" lon="5.04633">
        <ele>916</ele>
        <time>2026-05-26T10:10:31.000Z</time>
      </trkpt>
      <trkpt lat="44.65887" lon="5.04633">
        <ele>916</ele>
        <time>2026-05-26T10:10:32.000Z</time>
      </trkpt>
      <trkpt lat="44.65888" lon="5.04632">
        <ele>918</ele>
        <time>2026-05-26T10:10:33.000Z</time>
      </trkpt>
      <trkpt lat="44.65888" lon="5.04632">
        <ele>918</ele>
        <time>2026-05-26T10:10:34.000Z</time>
      </trkpt>
      <trkpt lat="44.65888" lon="5.04632">
        <ele>918</ele>
        <time>2026-05-26T10:10:35.000Z</time>
      </trkpt>
      <trkpt lat="44.65888" lon="5.04632">
        <ele>918</ele>
        <time>2026-05-26T10:10:36.000Z</time>
      </trkpt>
      <trkpt lat="44.65888" lon="5.04632">
        <ele>918</ele>
        <time>2026-05-26T10:10:37.000Z</time>
      </trkpt>
      <trkpt lat="44.65888" lon="5.04632">
        <ele>918</ele>
        <time>2026-05-26T10:10:38.000Z</time>
      </trkpt>
      <trkpt lat="44.6589" lon="5.04631">
        <ele>918</ele>
        <time>2026-05-26T10:10:39.000Z</time>
      </trkpt>
      <trkpt lat="44.65891" lon="5.04631">
        <ele>917</ele>
        <time>2026-05-26T10:10:40.000Z</time>
      </trkpt>
      <trkpt lat="44.65894" lon="5.04631">
        <ele>917</ele>
        <time>2026-05-26T10:10:41.000Z</time>
      </trkpt>
      <trkpt lat="44.65894" lon="5.04632">
        <ele>918</ele>
        <time>2026-05-26T10:10:42.000Z</time>
      </trkpt>
      <trkpt lat="44.65895" lon="5.04631">
        <ele>918</ele>
        <time>2026-05-26T10:10:43.000Z</time>
      </trkpt>
      <trkpt lat="44.65896" lon="5.0463">
        <ele>918</ele>
        <time>2026-05-26T10:10:44.000Z</time>
      </trkpt>
      <trkpt lat="44.65896" lon="5.0463">
        <ele>918</ele>
        <time>2026-05-26T10:10:45.000Z</time>
      </trkpt>
      <trkpt lat="44.65896" lon="5.04629">
        <ele>918</ele>
        <time>2026-05-26T10:10:46.000Z</time>
      </trkpt>
      <trkpt lat="44.65896" lon="5.04629">
        <ele>918</ele>
        <time>2026-05-26T10:10:47.000Z</time>
      </trkpt>
      <trkpt lat="44.65896" lon="5.04629">
        <ele>918</ele>
        <time>2026-05-26T10:10:48.000Z</time>
      </trkpt>
      <trkpt lat="44.65896" lon="5.04629">
        <ele>918</ele>
        <time>2026-05-26T10:10:49.000Z</time>
      </trkpt>
      <trkpt lat="44.65896" lon="5.04629">
        <ele>918</ele>
        <time>2026-05-26T10:10:50.000Z</time>
      </trkpt>
      <trkpt lat="44.65896" lon="5.04629">
        <ele>918</ele>
        <time>2026-05-26T10:10:51.000Z</time>
      </trkpt>
      <trkpt lat="44.65896" lon="5.04629">
        <ele>918</ele>
        <time>2026-05-26T10:10:52.000Z</time>
      </trkpt>
      <trkpt lat="44.65896" lon="5.04629">
        <ele>918</ele>
        <time>2026-05-26T10:10:53.000Z</time>
      </trkpt>
      <trkpt lat="44.65894" lon="5.0463">
        <ele>919</ele>
        <time>2026-05-26T10:10:54.000Z</time>
      </trkpt>
      <trkpt lat="44.65893" lon="5.0463">
        <ele>918</ele>
        <time>2026-05-26T10:10:55.000Z</time>
      </trkpt>
      <trkpt lat="44.65893" lon="5.04631">
        <ele>918</ele>
        <time>2026-05-26T10:10:56.000Z</time>
      </trkpt>
      <trkpt lat="44.65893" lon="5.04631">
        <ele>917</ele>
        <time>2026-05-26T10:10:57.000Z</time>
      </trkpt>
      <trkpt lat="44.65893" lon="5.04631">
        <ele>917</ele>
        <time>2026-05-26T10:10:58.000Z</time>
      </trkpt>
      <trkpt lat="44.65893" lon="5.04631">
        <ele>917</ele>
        <time>2026-05-26T10:10:59.000Z</time>
      </trkpt>
      <trkpt lat="44.65892" lon="5.04633">
        <ele>918</ele>
        <time>2026-05-26T10:11:00.000Z</time>
      </trkpt>
      <trkpt lat="44.65892" lon="5.04633">
        <ele>918</ele>
        <time>2026-05-26T10:11:01.000Z</time>
      </trkpt>
      <trkpt lat="44.65892" lon="5.04635">
        <ele>917</ele>
        <time>2026-05-26T10:11:02.000Z</time>
      </trkpt>
      <trkpt lat="44.65892" lon="5.04635">
        <ele>917</ele>
        <time>2026-05-26T10:11:03.000Z</time>
      </trkpt>
      <trkpt lat="44.65893" lon="5.04635">
        <ele>918</ele>
        <time>2026-05-26T10:11:04.000Z</time>
      </trkpt>
      <trkpt lat="44.65893" lon="5.04635">
        <ele>918</ele>
        <time>2026-05-26T10:11:05.000Z</time>
      </trkpt>
      <trkpt lat="44.65894" lon="5.04635">
        <ele>918</ele>
        <time>2026-05-26T10:11:06.000Z</time>
      </trkpt>
      <trkpt lat="44.65894" lon="5.04635">
        <ele>917</ele>
        <time>2026-05-26T10:11:07.000Z</time>
      </trkpt>
      <trkpt lat="44.65894" lon="5.04635">
        <ele>918</ele>
        <time>2026-05-26T10:11:08.000Z</time>
      </trkpt>
      <trkpt lat="44.65895" lon="5.04636">
        <ele>917</ele>
        <time>2026-05-26T10:11:09.000Z</time>
      </trkpt>
      <trkpt lat="44.65895" lon="5.04635">
        <ele>917</ele>
        <time>2026-05-26T10:11:10.000Z</time>
      </trkpt>
      <trkpt lat="44.65896" lon="5.04635">
        <ele>916</ele>
        <time>2026-05-26T10:11:11.000Z</time>
      </trkpt>
      <trkpt lat="44.65896" lon="5.04634">
        <ele>916</ele>
        <time>2026-05-26T10:11:12.000Z</time>
      </trkpt>
      <trkpt lat="44.65896" lon="5.04634">
        <ele>916</ele>
        <time>2026-05-26T10:11:13.000Z</time>
      </trkpt>
      <trkpt lat="44.65896" lon="5.04634">
        <ele>916</ele>
        <time>2026-05-26T10:11:14.000Z</time>
      </trkpt>
      <trkpt lat="44.65898" lon="5.04635">
        <ele>917</ele>
        <time>2026-05-26T10:11:15.000Z</time>
      </trkpt>
      <trkpt lat="44.65899" lon="5.04635">
        <ele>917</ele>
        <time>2026-05-26T10:11:16.000Z</time>
      </trkpt>
      <trkpt lat="44.65901" lon="5.04636">
        <ele>918</ele>
        <time>2026-05-26T10:11:17.000Z</time>
      </trkpt>
      <trkpt lat="44.65902" lon="5.04636">
        <ele>918</ele>
        <time>2026-05-26T10:11:18.000Z</time>
      </trkpt>
      <trkpt lat="44.65903" lon="5.04636">
        <ele>917</ele>
        <time>2026-05-26T10:11:19.000Z</time>
      </trkpt>
      <trkpt lat="44.65904" lon="5.04637">
        <ele>917</ele>
        <time>2026-05-26T10:11:20.000Z</time>
      </trkpt>
      <trkpt lat="44.65905" lon="5.04636">
        <ele>918</ele>
        <time>2026-05-26T10:11:21.000Z</time>
      </trkpt>
      <trkpt lat="44.65906" lon="5.04636">
        <ele>919</ele>
        <time>2026-05-26T10:11:22.000Z</time>
      </trkpt>
      <trkpt lat="44.65907" lon="5.04635">
        <ele>919</ele>
        <time>2026-05-26T10:11:23.000Z</time>
      </trkpt>
      <trkpt lat="44.65907" lon="5.04635">
        <ele>920</ele>
        <time>2026-05-26T10:11:24.000Z</time>
      </trkpt>
      <trkpt lat="44.65908" lon="5.04635">
        <ele>920</ele>
        <time>2026-05-26T10:11:25.000Z</time>
      </trkpt>
      <trkpt lat="44.65909" lon="5.04635">
        <ele>920</ele>
        <time>2026-05-26T10:11:26.000Z</time>
      </trkpt>
      <trkpt lat="44.65909" lon="5.04634">
        <ele>920</ele>
        <time>2026-05-26T10:11:27.000Z</time>
      </trkpt>
      <trkpt lat="44.6591" lon="5.04635">
        <ele>920</ele>
        <time>2026-05-26T10:11:28.000Z</time>
      </trkpt>
      <trkpt lat="44.65911" lon="5.04634">
        <ele>919</ele>
        <time>2026-05-26T10:11:29.000Z</time>
      </trkpt>
      <trkpt lat="44.65912" lon="5.04633">
        <ele>919</ele>
        <time>2026-05-26T10:11:30.000Z</time>
      </trkpt>
      <trkpt lat="44.65911" lon="5.04632">
        <ele>919</ele>
        <time>2026-05-26T10:11:31.000Z</time>
      </trkpt>
      <trkpt lat="44.65912" lon="5.04633">
        <ele>919</ele>
        <time>2026-05-26T10:11:32.000Z</time>
      </trkpt>
      <trkpt lat="44.65912" lon="5.04632">
        <ele>919</ele>
        <time>2026-05-26T10:11:33.000Z</time>
      </trkpt>
      <trkpt lat="44.65914" lon="5.04632">
        <ele>919</ele>
        <time>2026-05-26T10:11:34.000Z</time>
      </trkpt>
      <trkpt lat="44.65916" lon="5.04631">
        <ele>921</ele>
        <time>2026-05-26T10:11:35.000Z</time>
      </trkpt>
      <trkpt lat="44.65916" lon="5.04631">
        <ele>920</ele>
        <time>2026-05-26T10:11:36.000Z</time>
      </trkpt>
      <trkpt lat="44.65917" lon="5.04631">
        <ele>919</ele>
        <time>2026-05-26T10:11:37.000Z</time>
      </trkpt>
      <trkpt lat="44.65918" lon="5.0463">
        <ele>920</ele>
        <time>2026-05-26T10:11:38.000Z</time>
      </trkpt>
      <trkpt lat="44.65919" lon="5.0463">
        <ele>921</ele>
        <time>2026-05-26T10:11:39.000Z</time>
      </trkpt>
      <trkpt lat="44.65919" lon="5.04631">
        <ele>922</ele>
        <time>2026-05-26T10:11:40.000Z</time>
      </trkpt>
      <trkpt lat="44.6592" lon="5.04632">
        <ele>922</ele>
        <time>2026-05-26T10:11:41.000Z</time>
      </trkpt>
      <trkpt lat="44.65922" lon="5.04631">
        <ele>923</ele>
        <time>2026-05-26T10:11:42.000Z</time>
      </trkpt>
      <trkpt lat="44.65922" lon="5.04631">
        <ele>923</ele>
        <time>2026-05-26T10:11:43.000Z</time>
      </trkpt>
      <trkpt lat="44.65922" lon="5.04631">
        <ele>924</ele>
        <time>2026-05-26T10:11:44.000Z</time>
      </trkpt>
      <trkpt lat="44.65923" lon="5.0463">
        <ele>925</ele>
        <time>2026-05-26T10:11:45.000Z</time>
      </trkpt>
      <trkpt lat="44.65924" lon="5.04629">
        <ele>925</ele>
        <time>2026-05-26T10:11:46.000Z</time>
      </trkpt>
      <trkpt lat="44.65925" lon="5.04627">
        <ele>927</ele>
        <time>2026-05-26T10:11:47.000Z</time>
      </trkpt>
      <trkpt lat="44.65925" lon="5.04626">
        <ele>926</ele>
        <time>2026-05-26T10:11:48.000Z</time>
      </trkpt>
      <trkpt lat="44.65926" lon="5.04626">
        <ele>926</ele>
        <time>2026-05-26T10:11:49.000Z</time>
      </trkpt>
      <trkpt lat="44.65927" lon="5.04624">
        <ele>925</ele>
        <time>2026-05-26T10:11:50.000Z</time>
      </trkpt>
      <trkpt lat="44.65928" lon="5.04624">
        <ele>925</ele>
        <time>2026-05-26T10:11:51.000Z</time>
      </trkpt>
      <trkpt lat="44.65928" lon="5.04624">
        <ele>924</ele>
        <time>2026-05-26T10:11:52.000Z</time>
      </trkpt>
      <trkpt lat="44.65929" lon="5.04624">
        <ele>925</ele>
        <time>2026-05-26T10:11:53.000Z</time>
      </trkpt>
      <trkpt lat="44.6593" lon="5.04623">
        <ele>925</ele>
        <time>2026-05-26T10:11:54.000Z</time>
      </trkpt>
      <trkpt lat="44.6593" lon="5.04621">
        <ele>926</ele>
        <time>2026-05-26T10:11:55.000Z</time>
      </trkpt>
      <trkpt lat="44.6593" lon="5.0462">
        <ele>925</ele>
        <time>2026-05-26T10:11:56.000Z</time>
      </trkpt>
      <trkpt lat="44.6593" lon="5.04619">
        <ele>925</ele>
        <time>2026-05-26T10:11:57.000Z</time>
      </trkpt>
      <trkpt lat="44.6593" lon="5.04619">
        <ele>925</ele>
        <time>2026-05-26T10:11:58.000Z</time>
      </trkpt>
      <trkpt lat="44.65931" lon="5.04618">
        <ele>925</ele>
        <time>2026-05-26T10:11:59.000Z</time>
      </trkpt>
      <trkpt lat="44.65931" lon="5.04617">
        <ele>925</ele>
        <time>2026-05-26T10:12:00.000Z</time>
      </trkpt>
      <trkpt lat="44.65932" lon="5.04617">
        <ele>925</ele>
        <time>2026-05-26T10:12:01.000Z</time>
      </trkpt>
      <trkpt lat="44.65933" lon="5.04616">
        <ele>924</ele>
        <time>2026-05-26T10:12:02.000Z</time>
      </trkpt>
      <trkpt lat="44.65934" lon="5.04616">
        <ele>924</ele>
        <time>2026-05-26T10:12:03.000Z</time>
      </trkpt>
      <trkpt lat="44.65935" lon="5.04616">
        <ele>925</ele>
        <time>2026-05-26T10:12:04.000Z</time>
      </trkpt>
      <trkpt lat="44.65936" lon="5.04615">
        <ele>924</ele>
        <time>2026-05-26T10:12:05.000Z</time>
      </trkpt>
      <trkpt lat="44.65936" lon="5.04614">
        <ele>924</ele>
        <time>2026-05-26T10:12:06.000Z</time>
      </trkpt>
      <trkpt lat="44.65936" lon="5.04612">
        <ele>924</ele>
        <time>2026-05-26T10:12:07.000Z</time>
      </trkpt>
      <trkpt lat="44.65937" lon="5.04612">
        <ele>925</ele>
        <time>2026-05-26T10:12:08.000Z</time>
      </trkpt>
      <trkpt lat="44.65936" lon="5.04612">
        <ele>925</ele>
        <time>2026-05-26T10:12:09.000Z</time>
      </trkpt>
      <trkpt lat="44.65936" lon="5.04612">
        <ele>925</ele>
        <time>2026-05-26T10:12:10.000Z</time>
      </trkpt>
      <trkpt lat="44.65936" lon="5.04612">
        <ele>925</ele>
        <time>2026-05-26T10:12:11.000Z</time>
      </trkpt>
      <trkpt lat="44.65936" lon="5.04612">
        <ele>925</ele>
        <time>2026-05-26T10:12:12.000Z</time>
      </trkpt>
      <trkpt lat="44.65936" lon="5.04612">
        <ele>925</ele>
        <time>2026-05-26T10:12:13.000Z</time>
      </trkpt>
      <trkpt lat="44.65936" lon="5.04612">
        <ele>925</ele>
        <time>2026-05-26T10:12:14.000Z</time>
      </trkpt>
      <trkpt lat="44.65936" lon="5.04612">
        <ele>925</ele>
        <time>2026-05-26T10:12:15.000Z</time>
      </trkpt>
      <trkpt lat="44.65936" lon="5.04612">
        <ele>925</ele>
        <time>2026-05-26T10:12:16.000Z</time>
      </trkpt>
      <trkpt lat="44.65937" lon="5.04611">
        <ele>925</ele>
        <time>2026-05-26T10:12:17.000Z</time>
      </trkpt>
      <trkpt lat="44.65937" lon="5.04611">
        <ele>924</ele>
        <time>2026-05-26T10:12:18.000Z</time>
      </trkpt>
      <trkpt lat="44.65937" lon="5.04611">
        <ele>924</ele>
        <time>2026-05-26T10:12:19.000Z</time>
      </trkpt>
      <trkpt lat="44.65937" lon="5.04611">
        <ele>924</ele>
        <time>2026-05-26T10:12:20.000Z</time>
      </trkpt>
      <trkpt lat="44.65937" lon="5.04611">
        <ele>924</ele>
        <time>2026-05-26T10:12:21.000Z</time>
      </trkpt>
      <trkpt lat="44.65937" lon="5.04611">
        <ele>924</ele>
        <time>2026-05-26T10:12:22.000Z</time>
      </trkpt>
      <trkpt lat="44.65937" lon="5.04611">
        <ele>924</ele>
        <time>2026-05-26T10:12:23.000Z</time>
      </trkpt>
      <trkpt lat="44.65937" lon="5.0461">
        <ele>924</ele>
        <time>2026-05-26T10:12:24.000Z</time>
      </trkpt>
      <trkpt lat="44.65937" lon="5.0461">
        <ele>923</ele>
        <time>2026-05-26T10:12:25.000Z</time>
      </trkpt>
      <trkpt lat="44.65937" lon="5.0461">
        <ele>923</ele>
        <time>2026-05-26T10:12:26.000Z</time>
      </trkpt>
      <trkpt lat="44.65938" lon="5.04611">
        <ele>924</ele>
        <time>2026-05-26T10:12:27.000Z</time>
      </trkpt>
      <trkpt lat="44.65939" lon="5.04611">
        <ele>924</ele>
        <time>2026-05-26T10:12:28.000Z</time>
      </trkpt>
      <trkpt lat="44.6594" lon="5.04611">
        <ele>923</ele>
        <time>2026-05-26T10:12:29.000Z</time>
      </trkpt>
      <trkpt lat="44.65941" lon="5.04612">
        <ele>923</ele>
        <time>2026-05-26T10:12:30.000Z</time>
      </trkpt>
      <trkpt lat="44.65942" lon="5.04613">
        <ele>924</ele>
        <time>2026-05-26T10:12:31.000Z</time>
      </trkpt>
      <trkpt lat="44.65942" lon="5.04613">
        <ele>925</ele>
        <time>2026-05-26T10:12:32.000Z</time>
      </trkpt>
      <trkpt lat="44.65943" lon="5.04612">
        <ele>925</ele>
        <time>2026-05-26T10:12:33.000Z</time>
      </trkpt>
      <trkpt lat="44.65943" lon="5.04612">
        <ele>925</ele>
        <time>2026-05-26T10:12:34.000Z</time>
      </trkpt>
      <trkpt lat="44.65943" lon="5.04611">
        <ele>925</ele>
        <time>2026-05-26T10:12:35.000Z</time>
      </trkpt>
      <trkpt lat="44.65944" lon="5.04611">
        <ele>925</ele>
        <time>2026-05-26T10:12:36.000Z</time>
      </trkpt>
      <trkpt lat="44.65944" lon="5.04611">
        <ele>924</ele>
        <time>2026-05-26T10:12:37.000Z</time>
      </trkpt>
      <trkpt lat="44.65946" lon="5.0461">
        <ele>924</ele>
        <time>2026-05-26T10:12:38.000Z</time>
      </trkpt>
      <trkpt lat="44.65946" lon="5.0461">
        <ele>924</ele>
        <time>2026-05-26T10:12:39.000Z</time>
      </trkpt>
      <trkpt lat="44.65946" lon="5.0461">
        <ele>925</ele>
        <time>2026-05-26T10:12:40.000Z</time>
      </trkpt>
      <trkpt lat="44.65946" lon="5.0461">
        <ele>925</ele>
        <time>2026-05-26T10:12:41.000Z</time>
      </trkpt>
      <trkpt lat="44.65948" lon="5.04609">
        <ele>924</ele>
        <time>2026-05-26T10:12:42.000Z</time>
      </trkpt>
      <trkpt lat="44.6595" lon="5.04609">
        <ele>924</ele>
        <time>2026-05-26T10:12:43.000Z</time>
      </trkpt>
      <trkpt lat="44.65951" lon="5.04609">
        <ele>924</ele>
        <time>2026-05-26T10:12:44.000Z</time>
      </trkpt>
      <trkpt lat="44.65952" lon="5.04609">
        <ele>924</ele>
        <time>2026-05-26T10:12:45.000Z</time>
      </trkpt>
      <trkpt lat="44.65953" lon="5.0461">
        <ele>924</ele>
        <time>2026-05-26T10:12:46.000Z</time>
      </trkpt>
      <trkpt lat="44.65954" lon="5.0461">
        <ele>925</ele>
        <time>2026-05-26T10:12:47.000Z</time>
      </trkpt>
      <trkpt lat="44.65955" lon="5.0461">
        <ele>925</ele>
        <time>2026-05-26T10:12:48.000Z</time>
      </trkpt>
      <trkpt lat="44.65955" lon="5.0461">
        <ele>925</ele>
        <time>2026-05-26T10:12:49.000Z</time>
      </trkpt>
      <trkpt lat="44.65955" lon="5.04611">
        <ele>925</ele>
        <time>2026-05-26T10:12:50.000Z</time>
      </trkpt>
      <trkpt lat="44.65956" lon="5.04611">
        <ele>925</ele>
        <time>2026-05-26T10:12:51.000Z</time>
      </trkpt>
      <trkpt lat="44.65957" lon="5.04613">
        <ele>925</ele>
        <time>2026-05-26T10:12:52.000Z</time>
      </trkpt>
      <trkpt lat="44.65958" lon="5.04613">
        <ele>924</ele>
        <time>2026-05-26T10:12:53.000Z</time>
      </trkpt>
      <trkpt lat="44.65959" lon="5.04612">
        <ele>924</ele>
        <time>2026-05-26T10:12:54.000Z</time>
      </trkpt>
      <trkpt lat="44.65961" lon="5.04613">
        <ele>924</ele>
        <time>2026-05-26T10:12:55.000Z</time>
      </trkpt>
      <trkpt lat="44.65962" lon="5.04613">
        <ele>925</ele>
        <time>2026-05-26T10:12:56.000Z</time>
      </trkpt>
      <trkpt lat="44.65962" lon="5.04614">
        <ele>925</ele>
        <time>2026-05-26T10:12:57.000Z</time>
      </trkpt>
      <trkpt lat="44.65964" lon="5.04614">
        <ele>926</ele>
        <time>2026-05-26T10:12:58.000Z</time>
      </trkpt>
      <trkpt lat="44.65965" lon="5.04614">
        <ele>926</ele>
        <time>2026-05-26T10:12:59.000Z</time>
      </trkpt>
      <trkpt lat="44.65966" lon="5.04615">
        <ele>926</ele>
        <time>2026-05-26T10:13:00.000Z</time>
      </trkpt>
      <trkpt lat="44.65967" lon="5.04616">
        <ele>926</ele>
        <time>2026-05-26T10:13:01.000Z</time>
      </trkpt>
      <trkpt lat="44.65968" lon="5.04616">
        <ele>927</ele>
        <time>2026-05-26T10:13:02.000Z</time>
      </trkpt>
      <trkpt lat="44.65969" lon="5.04615">
        <ele>927</ele>
        <time>2026-05-26T10:13:03.000Z</time>
      </trkpt>
      <trkpt lat="44.6597" lon="5.04614">
        <ele>928</ele>
        <time>2026-05-26T10:13:04.000Z</time>
      </trkpt>
      <trkpt lat="44.65971" lon="5.04615">
        <ele>927</ele>
        <time>2026-05-26T10:13:05.000Z</time>
      </trkpt>
      <trkpt lat="44.65972" lon="5.04614">
        <ele>926</ele>
        <time>2026-05-26T10:13:06.000Z</time>
      </trkpt>
      <trkpt lat="44.65972" lon="5.04614">
        <ele>926</ele>
        <time>2026-05-26T10:13:07.000Z</time>
      </trkpt>
      <trkpt lat="44.65972" lon="5.04614">
        <ele>926</ele>
        <time>2026-05-26T10:13:08.000Z</time>
      </trkpt>
      <trkpt lat="44.65973" lon="5.04613">
        <ele>927</ele>
        <time>2026-05-26T10:13:09.000Z</time>
      </trkpt>
      <trkpt lat="44.65974" lon="5.04614">
        <ele>927</ele>
        <time>2026-05-26T10:13:10.000Z</time>
      </trkpt>
      <trkpt lat="44.65975" lon="5.04614">
        <ele>927</ele>
        <time>2026-05-26T10:13:11.000Z</time>
      </trkpt>
      <trkpt lat="44.65977" lon="5.04614">
        <ele>926</ele>
        <time>2026-05-26T10:13:12.000Z</time>
      </trkpt>
      <trkpt lat="44.65977" lon="5.04614">
        <ele>928</ele>
        <time>2026-05-26T10:13:13.000Z</time>
      </trkpt>
      <trkpt lat="44.65977" lon="5.04613">
        <ele>928</ele>
        <time>2026-05-26T10:13:14.000Z</time>
      </trkpt>
      <trkpt lat="44.65977" lon="5.04612">
        <ele>928</ele>
        <time>2026-05-26T10:13:15.000Z</time>
      </trkpt>
      <trkpt lat="44.65978" lon="5.0461">
        <ele>928</ele>
        <time>2026-05-26T10:13:16.000Z</time>
      </trkpt>
      <trkpt lat="44.65978" lon="5.04609">
        <ele>927</ele>
        <time>2026-05-26T10:13:17.000Z</time>
      </trkpt>
      <trkpt lat="44.65978" lon="5.04608">
        <ele>929</ele>
        <time>2026-05-26T10:13:18.000Z</time>
      </trkpt>
      <trkpt lat="44.65978" lon="5.04607">
        <ele>929</ele>
        <time>2026-05-26T10:13:19.000Z</time>
      </trkpt>
      <trkpt lat="44.65978" lon="5.04607">
        <ele>929</ele>
        <time>2026-05-26T10:13:20.000Z</time>
      </trkpt>
      <trkpt lat="44.65978" lon="5.04606">
        <ele>928</ele>
        <time>2026-05-26T10:13:21.000Z</time>
      </trkpt>
      <trkpt lat="44.65979" lon="5.04605">
        <ele>928</ele>
        <time>2026-05-26T10:13:22.000Z</time>
      </trkpt>
      <trkpt lat="44.6598" lon="5.04605">
        <ele>928</ele>
        <time>2026-05-26T10:13:23.000Z</time>
      </trkpt>
      <trkpt lat="44.6598" lon="5.04604">
        <ele>927</ele>
        <time>2026-05-26T10:13:24.000Z</time>
      </trkpt>
      <trkpt lat="44.6598" lon="5.04604">
        <ele>927</ele>
        <time>2026-05-26T10:13:25.000Z</time>
      </trkpt>
      <trkpt lat="44.6598" lon="5.04604">
        <ele>927</ele>
        <time>2026-05-26T10:13:26.000Z</time>
      </trkpt>
      <trkpt lat="44.6598" lon="5.04604">
        <ele>927</ele>
        <time>2026-05-26T10:13:27.000Z</time>
      </trkpt>
      <trkpt lat="44.6598" lon="5.04604">
        <ele>927</ele>
        <time>2026-05-26T10:13:28.000Z</time>
      </trkpt>
      <trkpt lat="44.6598" lon="5.04604">
        <ele>927</ele>
        <time>2026-05-26T10:13:29.000Z</time>
      </trkpt>
      <trkpt lat="44.6598" lon="5.04604">
        <ele>927</ele>
        <time>2026-05-26T10:13:30.000Z</time>
      </trkpt>
      <trkpt lat="44.6598" lon="5.04604">
        <ele>927</ele>
        <time>2026-05-26T10:13:31.000Z</time>
      </trkpt>
      <trkpt lat="44.6598" lon="5.04604">
        <ele>927</ele>
        <time>2026-05-26T10:13:32.000Z</time>
      </trkpt>
      <trkpt lat="44.6598" lon="5.04604">
        <ele>927</ele>
        <time>2026-05-26T10:13:33.000Z</time>
      </trkpt>
      <trkpt lat="44.6598" lon="5.04604">
        <ele>927</ele>
        <time>2026-05-26T10:13:34.000Z</time>
      </trkpt>
      <trkpt lat="44.6598" lon="5.04604">
        <ele>928</ele>
        <time>2026-05-26T10:13:35.000Z</time>
      </trkpt>
      <trkpt lat="44.6598" lon="5.04604">
        <ele>928</ele>
        <time>2026-05-26T10:13:36.000Z</time>
      </trkpt>
      <trkpt lat="44.65979" lon="5.04605">
        <ele>928</ele>
        <time>2026-05-26T10:13:37.000Z</time>
      </trkpt>
      <trkpt lat="44.65979" lon="5.04606">
        <ele>926</ele>
        <time>2026-05-26T10:13:38.000Z</time>
      </trkpt>
      <trkpt lat="44.65979" lon="5.04606">
        <ele>926</ele>
        <time>2026-05-26T10:13:39.000Z</time>
      </trkpt>
      <trkpt lat="44.65979" lon="5.04606">
        <ele>927</ele>
        <time>2026-05-26T10:13:40.000Z</time>
      </trkpt>
      <trkpt lat="44.65978" lon="5.04606">
        <ele>926</ele>
        <time>2026-05-26T10:13:41.000Z</time>
      </trkpt>
      <trkpt lat="44.65978" lon="5.04606">
        <ele>925</ele>
        <time>2026-05-26T10:13:42.000Z</time>
      </trkpt>
      <trkpt lat="44.65977" lon="5.04607">
        <ele>924</ele>
        <time>2026-05-26T10:13:43.000Z</time>
      </trkpt>
      <trkpt lat="44.65977" lon="5.04609">
        <ele>924</ele>
        <time>2026-05-26T10:13:44.000Z</time>
      </trkpt>
      <trkpt lat="44.65977" lon="5.04611">
        <ele>924</ele>
        <time>2026-05-26T10:13:45.000Z</time>
      </trkpt>
      <trkpt lat="44.65978" lon="5.04612">
        <ele>923</ele>
        <time>2026-05-26T10:13:46.000Z</time>
      </trkpt>
      <trkpt lat="44.65979" lon="5.04612">
        <ele>923</ele>
        <time>2026-05-26T10:13:47.000Z</time>
      </trkpt>
      <trkpt lat="44.6598" lon="5.04612">
        <ele>924</ele>
        <time>2026-05-26T10:13:48.000Z</time>
      </trkpt>
      <trkpt lat="44.65981" lon="5.04611">
        <ele>925</ele>
        <time>2026-05-26T10:13:49.000Z</time>
      </trkpt>
      <trkpt lat="44.65983" lon="5.04612">
        <ele>925</ele>
        <time>2026-05-26T10:13:50.000Z</time>
      </trkpt>
      <trkpt lat="44.65984" lon="5.04612">
        <ele>924</ele>
        <time>2026-05-26T10:13:51.000Z</time>
      </trkpt>
      <trkpt lat="44.65985" lon="5.04612">
        <ele>924</ele>
        <time>2026-05-26T10:13:52.000Z</time>
      </trkpt>
      <trkpt lat="44.65986" lon="5.04612">
        <ele>924</ele>
        <time>2026-05-26T10:13:53.000Z</time>
      </trkpt>
      <trkpt lat="44.65987" lon="5.04611">
        <ele>924</ele>
        <time>2026-05-26T10:13:54.000Z</time>
      </trkpt>
      <trkpt lat="44.65987" lon="5.04612">
        <ele>924</ele>
        <time>2026-05-26T10:13:55.000Z</time>
      </trkpt>
      <trkpt lat="44.65988" lon="5.04613">
        <ele>924</ele>
        <time>2026-05-26T10:13:56.000Z</time>
      </trkpt>
      <trkpt lat="44.65989" lon="5.04613">
        <ele>924</ele>
        <time>2026-05-26T10:13:57.000Z</time>
      </trkpt>
      <trkpt lat="44.6599" lon="5.04613">
        <ele>924</ele>
        <time>2026-05-26T10:13:58.000Z</time>
      </trkpt>
      <trkpt lat="44.6599" lon="5.04613">
        <ele>924</ele>
        <time>2026-05-26T10:13:59.000Z</time>
      </trkpt>
      <trkpt lat="44.6599" lon="5.04615">
        <ele>925</ele>
        <time>2026-05-26T10:14:00.000Z</time>
      </trkpt>
      <trkpt lat="44.65991" lon="5.04615">
        <ele>925</ele>
        <time>2026-05-26T10:14:01.000Z</time>
      </trkpt>
      <trkpt lat="44.65992" lon="5.04616">
        <ele>925</ele>
        <time>2026-05-26T10:14:02.000Z</time>
      </trkpt>
      <trkpt lat="44.65992" lon="5.04617">
        <ele>925</ele>
        <time>2026-05-26T10:14:03.000Z</time>
      </trkpt>
      <trkpt lat="44.65993" lon="5.04617">
        <ele>925</ele>
        <time>2026-05-26T10:14:04.000Z</time>
      </trkpt>
      <trkpt lat="44.65995" lon="5.04618">
        <ele>924</ele>
        <time>2026-05-26T10:14:05.000Z</time>
      </trkpt>
      <trkpt lat="44.65996" lon="5.04617">
        <ele>923</ele>
        <time>2026-05-26T10:14:06.000Z</time>
      </trkpt>
      <trkpt lat="44.65998" lon="5.04617">
        <ele>924</ele>
        <time>2026-05-26T10:14:07.000Z</time>
      </trkpt>
      <trkpt lat="44.65998" lon="5.04618">
        <ele>923</ele>
        <time>2026-05-26T10:14:08.000Z</time>
      </trkpt>
      <trkpt lat="44.65999" lon="5.04618">
        <ele>923</ele>
        <time>2026-05-26T10:14:09.000Z</time>
      </trkpt>
      <trkpt lat="44.66" lon="5.04619">
        <ele>922</ele>
        <time>2026-05-26T10:14:10.000Z</time>
      </trkpt>
      <trkpt lat="44.66002" lon="5.04618">
        <ele>923</ele>
        <time>2026-05-26T10:14:11.000Z</time>
      </trkpt>
      <trkpt lat="44.66003" lon="5.04618">
        <ele>923</ele>
        <time>2026-05-26T10:14:12.000Z</time>
      </trkpt>
      <trkpt lat="44.66005" lon="5.04618">
        <ele>922</ele>
        <time>2026-05-26T10:14:13.000Z</time>
      </trkpt>
      <trkpt lat="44.66006" lon="5.04618">
        <ele>922</ele>
        <time>2026-05-26T10:14:14.000Z</time>
      </trkpt>
      <trkpt lat="44.66007" lon="5.04618">
        <ele>922</ele>
        <time>2026-05-26T10:14:15.000Z</time>
      </trkpt>
      <trkpt lat="44.66008" lon="5.04618">
        <ele>922</ele>
        <time>2026-05-26T10:14:16.000Z</time>
      </trkpt>
      <trkpt lat="44.66008" lon="5.04618">
        <ele>921</ele>
        <time>2026-05-26T10:14:17.000Z</time>
      </trkpt>
      <trkpt lat="44.66009" lon="5.04619">
        <ele>921</ele>
        <time>2026-05-26T10:14:18.000Z</time>
      </trkpt>
      <trkpt lat="44.66009" lon="5.04619">
        <ele>922</ele>
        <time>2026-05-26T10:14:19.000Z</time>
      </trkpt>
      <trkpt lat="44.6601" lon="5.04618">
        <ele>923</ele>
        <time>2026-05-26T10:14:20.000Z</time>
      </trkpt>
      <trkpt lat="44.66011" lon="5.04618">
        <ele>923</ele>
        <time>2026-05-26T10:14:21.000Z</time>
      </trkpt>
      <trkpt lat="44.66012" lon="5.04617">
        <ele>923</ele>
        <time>2026-05-26T10:14:22.000Z</time>
      </trkpt>
      <trkpt lat="44.66013" lon="5.04616">
        <ele>922</ele>
        <time>2026-05-26T10:14:23.000Z</time>
      </trkpt>
      <trkpt lat="44.66015" lon="5.04616">
        <ele>922</ele>
        <time>2026-05-26T10:14:24.000Z</time>
      </trkpt>
      <trkpt lat="44.66016" lon="5.04615">
        <ele>923</ele>
        <time>2026-05-26T10:14:25.000Z</time>
      </trkpt>
      <trkpt lat="44.66017" lon="5.04614">
        <ele>923</ele>
        <time>2026-05-26T10:14:26.000Z</time>
      </trkpt>
      <trkpt lat="44.66017" lon="5.04613">
        <ele>924</ele>
        <time>2026-05-26T10:14:27.000Z</time>
      </trkpt>
      <trkpt lat="44.66018" lon="5.04613">
        <ele>924</ele>
        <time>2026-05-26T10:14:28.000Z</time>
      </trkpt>
      <trkpt lat="44.66018" lon="5.04612">
        <ele>924</ele>
        <time>2026-05-26T10:14:29.000Z</time>
      </trkpt>
      <trkpt lat="44.6602" lon="5.04612">
        <ele>925</ele>
        <time>2026-05-26T10:14:30.000Z</time>
      </trkpt>
      <trkpt lat="44.6602" lon="5.04613">
        <ele>923</ele>
        <time>2026-05-26T10:14:31.000Z</time>
      </trkpt>
      <trkpt lat="44.6602" lon="5.04613">
        <ele>923</ele>
        <time>2026-05-26T10:14:32.000Z</time>
      </trkpt>
      <trkpt lat="44.66021" lon="5.04612">
        <ele>922</ele>
        <time>2026-05-26T10:14:33.000Z</time>
      </trkpt>
      <trkpt lat="44.66021" lon="5.04612">
        <ele>922</ele>
        <time>2026-05-26T10:14:34.000Z</time>
      </trkpt>
      <trkpt lat="44.66022" lon="5.04612">
        <ele>922</ele>
        <time>2026-05-26T10:14:35.000Z</time>
      </trkpt>
      <trkpt lat="44.66023" lon="5.04612">
        <ele>924</ele>
        <time>2026-05-26T10:14:36.000Z</time>
      </trkpt>
      <trkpt lat="44.66024" lon="5.04612">
        <ele>924</ele>
        <time>2026-05-26T10:14:37.000Z</time>
      </trkpt>
      <trkpt lat="44.66026" lon="5.04612">
        <ele>925</ele>
        <time>2026-05-26T10:14:38.000Z</time>
      </trkpt>
      <trkpt lat="44.66027" lon="5.04611">
        <ele>925</ele>
        <time>2026-05-26T10:14:39.000Z</time>
      </trkpt>
      <trkpt lat="44.66027" lon="5.0461">
        <ele>926</ele>
        <time>2026-05-26T10:14:40.000Z</time>
      </trkpt>
      <trkpt lat="44.66027" lon="5.04609">
        <ele>927</ele>
        <time>2026-05-26T10:14:41.000Z</time>
      </trkpt>
      <trkpt lat="44.66028" lon="5.04609">
        <ele>927</ele>
        <time>2026-05-26T10:14:42.000Z</time>
      </trkpt>
      <trkpt lat="44.66029" lon="5.04608">
        <ele>927</ele>
        <time>2026-05-26T10:14:43.000Z</time>
      </trkpt>
      <trkpt lat="44.66029" lon="5.04609">
        <ele>927</ele>
        <time>2026-05-26T10:14:44.000Z</time>
      </trkpt>
      <trkpt lat="44.66029" lon="5.04608">
        <ele>926</ele>
        <time>2026-05-26T10:14:45.000Z</time>
      </trkpt>
      <trkpt lat="44.66029" lon="5.04608">
        <ele>926</ele>
        <time>2026-05-26T10:14:46.000Z</time>
      </trkpt>
      <trkpt lat="44.6603" lon="5.04609">
        <ele>926</ele>
        <time>2026-05-26T10:14:47.000Z</time>
      </trkpt>
      <trkpt lat="44.66032" lon="5.04609">
        <ele>925</ele>
        <time>2026-05-26T10:14:48.000Z</time>
      </trkpt>
      <trkpt lat="44.66033" lon="5.04608">
        <ele>925</ele>
        <time>2026-05-26T10:14:49.000Z</time>
      </trkpt>
      <trkpt lat="44.66034" lon="5.04608">
        <ele>925</ele>
        <time>2026-05-26T10:14:50.000Z</time>
      </trkpt>
      <trkpt lat="44.66035" lon="5.04607">
        <ele>926</ele>
        <time>2026-05-26T10:14:51.000Z</time>
      </trkpt>
      <trkpt lat="44.66036" lon="5.04606">
        <ele>927</ele>
        <time>2026-05-26T10:14:52.000Z</time>
      </trkpt>
      <trkpt lat="44.66037" lon="5.04605">
        <ele>926</ele>
        <time>2026-05-26T10:14:53.000Z</time>
      </trkpt>
      <trkpt lat="44.66038" lon="5.04605">
        <ele>926</ele>
        <time>2026-05-26T10:14:54.000Z</time>
      </trkpt>
      <trkpt lat="44.66039" lon="5.04603">
        <ele>926</ele>
        <time>2026-05-26T10:14:55.000Z</time>
      </trkpt>
      <trkpt lat="44.66041" lon="5.04601">
        <ele>926</ele>
        <time>2026-05-26T10:14:56.000Z</time>
      </trkpt>
      <trkpt lat="44.66042" lon="5.046">
        <ele>927</ele>
        <time>2026-05-26T10:14:57.000Z</time>
      </trkpt>
      <trkpt lat="44.66043" lon="5.046">
        <ele>926</ele>
        <time>2026-05-26T10:14:58.000Z</time>
      </trkpt>
      <trkpt lat="44.66043" lon="5.04599">
        <ele>926</ele>
        <time>2026-05-26T10:14:59.000Z</time>
      </trkpt>
      <trkpt lat="44.66044" lon="5.04598">
        <ele>926</ele>
        <time>2026-05-26T10:15:00.000Z</time>
      </trkpt>
      <trkpt lat="44.66044" lon="5.04598">
        <ele>926</ele>
        <time>2026-05-26T10:15:01.000Z</time>
      </trkpt>
      <trkpt lat="44.66045" lon="5.04597">
        <ele>926</ele>
        <time>2026-05-26T10:15:02.000Z</time>
      </trkpt>
      <trkpt lat="44.66045" lon="5.04596">
        <ele>926</ele>
        <time>2026-05-26T10:15:03.000Z</time>
      </trkpt>
      <trkpt lat="44.66046" lon="5.04596">
        <ele>926</ele>
        <time>2026-05-26T10:15:04.000Z</time>
      </trkpt>
      <trkpt lat="44.66046" lon="5.04595">
        <ele>927</ele>
        <time>2026-05-26T10:15:05.000Z</time>
      </trkpt>
      <trkpt lat="44.66046" lon="5.04594">
        <ele>927</ele>
        <time>2026-05-26T10:15:06.000Z</time>
      </trkpt>
      <trkpt lat="44.66046" lon="5.04594">
        <ele>927</ele>
        <time>2026-05-26T10:15:07.000Z</time>
      </trkpt>
      <trkpt lat="44.66046" lon="5.04594">
        <ele>928</ele>
        <time>2026-05-26T10:15:08.000Z</time>
      </trkpt>
      <trkpt lat="44.66047" lon="5.04593">
        <ele>929</ele>
        <time>2026-05-26T10:15:09.000Z</time>
      </trkpt>
      <trkpt lat="44.66047" lon="5.04592">
        <ele>929</ele>
        <time>2026-05-26T10:15:10.000Z</time>
      </trkpt>
      <trkpt lat="44.66047" lon="5.04591">
        <ele>929</ele>
        <time>2026-05-26T10:15:11.000Z</time>
      </trkpt>
      <trkpt lat="44.66046" lon="5.0459">
        <ele>932</ele>
        <time>2026-05-26T10:15:12.000Z</time>
      </trkpt>
      <trkpt lat="44.66046" lon="5.04591">
        <ele>935</ele>
        <time>2026-05-26T10:15:13.000Z</time>
      </trkpt>
      <trkpt lat="44.66046" lon="5.0459">
        <ele>935</ele>
        <time>2026-05-26T10:15:14.000Z</time>
      </trkpt>
      <trkpt lat="44.66046" lon="5.04591">
        <ele>934</ele>
        <time>2026-05-26T10:15:15.000Z</time>
      </trkpt>
      <trkpt lat="44.66046" lon="5.0459">
        <ele>933</ele>
        <time>2026-05-26T10:15:16.000Z</time>
      </trkpt>
      <trkpt lat="44.66046" lon="5.0459">
        <ele>933</ele>
        <time>2026-05-26T10:15:17.000Z</time>
      </trkpt>
      <trkpt lat="44.66046" lon="5.0459">
        <ele>933</ele>
        <time>2026-05-26T10:15:18.000Z</time>
      </trkpt>
      <trkpt lat="44.66046" lon="5.0459">
        <ele>933</ele>
        <time>2026-05-26T10:15:19.000Z</time>
      </trkpt>
      <trkpt lat="44.66046" lon="5.0459">
        <ele>933</ele>
        <time>2026-05-26T10:15:20.000Z</time>
      </trkpt>
      <trkpt lat="44.66046" lon="5.0459">
        <ele>933</ele>
        <time>2026-05-26T10:15:21.000Z</time>
      </trkpt>
      <trkpt lat="44.66046" lon="5.04591">
        <ele>930</ele>
        <time>2026-05-26T10:15:22.000Z</time>
      </trkpt>
      <trkpt lat="44.66046" lon="5.04592">
        <ele>930</ele>
        <time>2026-05-26T10:15:23.000Z</time>
      </trkpt>
      <trkpt lat="44.66046" lon="5.04593">
        <ele>929</ele>
        <time>2026-05-26T10:15:24.000Z</time>
      </trkpt>
      <trkpt lat="44.66046" lon="5.04593">
        <ele>929</ele>
        <time>2026-05-26T10:15:25.000Z</time>
      </trkpt>
      <trkpt lat="44.66047" lon="5.04593">
        <ele>929</ele>
        <time>2026-05-26T10:15:26.000Z</time>
      </trkpt>
      <trkpt lat="44.66047" lon="5.04593">
        <ele>929</ele>
        <time>2026-05-26T10:15:27.000Z</time>
      </trkpt>
      <trkpt lat="44.66047" lon="5.04593">
        <ele>929</ele>
        <time>2026-05-26T10:15:28.000Z</time>
      </trkpt>
      <trkpt lat="44.66047" lon="5.04593">
        <ele>929</ele>
        <time>2026-05-26T10:15:29.000Z</time>
      </trkpt>
      <trkpt lat="44.66047" lon="5.04593">
        <ele>929</ele>
        <time>2026-05-26T10:15:30.000Z</time>
      </trkpt>
      <trkpt lat="44.66047" lon="5.04593">
        <ele>929</ele>
        <time>2026-05-26T10:15:31.000Z</time>
      </trkpt>
      <trkpt lat="44.66047" lon="5.04593">
        <ele>929</ele>
        <time>2026-05-26T10:15:32.000Z</time>
      </trkpt>
      <trkpt lat="44.66047" lon="5.04593">
        <ele>929</ele>
        <time>2026-05-26T10:15:33.000Z</time>
      </trkpt>
      <trkpt lat="44.66047" lon="5.04593">
        <ele>929</ele>
        <time>2026-05-26T10:15:34.000Z</time>
      </trkpt>
      <trkpt lat="44.66047" lon="5.04593">
        <ele>929</ele>
        <time>2026-05-26T10:15:35.000Z</time>
      </trkpt>
      <trkpt lat="44.66047" lon="5.04593">
        <ele>929</ele>
        <time>2026-05-26T10:15:36.000Z</time>
      </trkpt>
      <trkpt lat="44.66047" lon="5.04593">
        <ele>929</ele>
        <time>2026-05-26T10:15:37.000Z</time>
      </trkpt>
      <trkpt lat="44.66047" lon="5.04593">
        <ele>929</ele>
        <time>2026-05-26T10:15:38.000Z</time>
      </trkpt>
      <trkpt lat="44.66047" lon="5.04593">
        <ele>929</ele>
        <time>2026-05-26T10:15:39.000Z</time>
      </trkpt>
      <trkpt lat="44.66047" lon="5.04593">
        <ele>929</ele>
        <time>2026-05-26T10:15:40.000Z</time>
      </trkpt>
      <trkpt lat="44.66047" lon="5.04593">
        <ele>929</ele>
        <time>2026-05-26T10:15:41.000Z</time>
      </trkpt>
      <trkpt lat="44.66047" lon="5.04593">
        <ele>929</ele>
        <time>2026-05-26T10:15:42.000Z</time>
      </trkpt>
      <trkpt lat="44.66047" lon="5.04593">
        <ele>929</ele>
        <time>2026-05-26T10:15:43.000Z</time>
      </trkpt>
      <trkpt lat="44.66047" lon="5.04593">
        <ele>929</ele>
        <time>2026-05-26T10:15:44.000Z</time>
      </trkpt>
      <trkpt lat="44.66047" lon="5.04593">
        <ele>929</ele>
        <time>2026-05-26T10:15:45.000Z</time>
      </trkpt>
      <trkpt lat="44.66047" lon="5.04593">
        <ele>929</ele>
        <time>2026-05-26T10:15:46.000Z</time>
      </trkpt>
      <trkpt lat="44.66047" lon="5.04593">
        <ele>929</ele>
        <time>2026-05-26T10:15:47.000Z</time>
      </trkpt>
      <trkpt lat="44.66047" lon="5.04593">
        <ele>929</ele>
        <time>2026-05-26T10:15:48.000Z</time>
      </trkpt>
      <trkpt lat="44.66047" lon="5.04593">
        <ele>929</ele>
        <time>2026-05-26T10:15:49.000Z</time>
      </trkpt>
      <trkpt lat="44.66047" lon="5.04593">
        <ele>929</ele>
        <time>2026-05-26T10:15:50.000Z</time>
      </trkpt>
      <trkpt lat="44.66047" lon="5.04593">
        <ele>929</ele>
        <time>2026-05-26T10:15:51.000Z</time>
      </trkpt>
      <trkpt lat="44.66047" lon="5.04593">
        <ele>929</ele>
        <time>2026-05-26T10:15:52.000Z</time>
      </trkpt>
      <trkpt lat="44.66047" lon="5.04593">
        <ele>929</ele>
        <time>2026-05-26T10:15:53.000Z</time>
      </trkpt>
      <trkpt lat="44.66047" lon="5.04593">
        <ele>929</ele>
        <time>2026-05-26T10:15:54.000Z</time>
      </trkpt>
      <trkpt lat="44.66047" lon="5.04593">
        <ele>929</ele>
        <time>2026-05-26T10:15:55.000Z</time>
      </trkpt>
      <trkpt lat="44.66047" lon="5.04593">
        <ele>929</ele>
        <time>2026-05-26T10:15:56.000Z</time>
      </trkpt>
      <trkpt lat="44.66047" lon="5.04593">
        <ele>929</ele>
        <time>2026-05-26T10:15:57.000Z</time>
      </trkpt>
      <trkpt lat="44.66047" lon="5.04593">
        <ele>929</ele>
        <time>2026-05-26T10:15:58.000Z</time>
      </trkpt>
      <trkpt lat="44.66047" lon="5.04593">
        <ele>929</ele>
        <time>2026-05-26T10:15:59.000Z</time>
      </trkpt>
      <trkpt lat="44.66047" lon="5.04593">
        <ele>929</ele>
        <time>2026-05-26T10:16:00.000Z</time>
      </trkpt>
      <trkpt lat="44.66047" lon="5.04593">
        <ele>929</ele>
        <time>2026-05-26T10:16:01.000Z</time>
      </trkpt>
      <trkpt lat="44.66047" lon="5.04593">
        <ele>929</ele>
        <time>2026-05-26T10:16:02.000Z</time>
      </trkpt>
      <trkpt lat="44.66047" lon="5.04593">
        <ele>928</ele>
        <time>2026-05-26T10:16:03.000Z</time>
      </trkpt>
      <trkpt lat="44.66047" lon="5.04593">
        <ele>928</ele>
        <time>2026-05-26T10:16:04.000Z</time>
      </trkpt>
      <trkpt lat="44.66047" lon="5.04593">
        <ele>928</ele>
        <time>2026-05-26T10:16:05.000Z</time>
      </trkpt>
      <trkpt lat="44.66047" lon="5.04594">
        <ele>928</ele>
        <time>2026-05-26T10:16:06.000Z</time>
      </trkpt>
      <trkpt lat="44.66047" lon="5.04594">
        <ele>928</ele>
        <time>2026-05-26T10:16:07.000Z</time>
      </trkpt>
      <trkpt lat="44.66046" lon="5.04595">
        <ele>928</ele>
        <time>2026-05-26T10:16:08.000Z</time>
      </trkpt>
      <trkpt lat="44.66046" lon="5.04596">
        <ele>928</ele>
        <time>2026-05-26T10:16:09.000Z</time>
      </trkpt>
      <trkpt lat="44.66046" lon="5.04597">
        <ele>929</ele>
        <time>2026-05-26T10:16:10.000Z</time>
      </trkpt>
      <trkpt lat="44.66046" lon="5.04598">
        <ele>929</ele>
        <time>2026-05-26T10:16:11.000Z</time>
      </trkpt>
      <trkpt lat="44.66045" lon="5.04599">
        <ele>929</ele>
        <time>2026-05-26T10:16:12.000Z</time>
      </trkpt>
      <trkpt lat="44.66045" lon="5.046">
        <ele>929</ele>
        <time>2026-05-26T10:16:13.000Z</time>
      </trkpt>
      <trkpt lat="44.66045" lon="5.04602">
        <ele>929</ele>
        <time>2026-05-26T10:16:14.000Z</time>
      </trkpt>
      <trkpt lat="44.66045" lon="5.04603">
        <ele>928</ele>
        <time>2026-05-26T10:16:15.000Z</time>
      </trkpt>
      <trkpt lat="44.66046" lon="5.04603">
        <ele>929</ele>
        <time>2026-05-26T10:16:16.000Z</time>
      </trkpt>
      <trkpt lat="44.66046" lon="5.04602">
        <ele>929</ele>
        <time>2026-05-26T10:16:17.000Z</time>
      </trkpt>
      <trkpt lat="44.66046" lon="5.04602">
        <ele>929</ele>
        <time>2026-05-26T10:16:18.000Z</time>
      </trkpt>
      <trkpt lat="44.66046" lon="5.04602">
        <ele>929</ele>
        <time>2026-05-26T10:16:19.000Z</time>
      </trkpt>
      <trkpt lat="44.66046" lon="5.04602">
        <ele>929</ele>
        <time>2026-05-26T10:16:20.000Z</time>
      </trkpt>
      <trkpt lat="44.66046" lon="5.04602">
        <ele>929</ele>
        <time>2026-05-26T10:16:21.000Z</time>
      </trkpt>
      <trkpt lat="44.66046" lon="5.04602">
        <ele>929</ele>
        <time>2026-05-26T10:16:22.000Z</time>
      </trkpt>
      <trkpt lat="44.66046" lon="5.04602">
        <ele>929</ele>
        <time>2026-05-26T10:16:23.000Z</time>
      </trkpt>
      <trkpt lat="44.66046" lon="5.04602">
        <ele>929</ele>
        <time>2026-05-26T10:16:24.000Z</time>
      </trkpt>
      <trkpt lat="44.66046" lon="5.04602">
        <ele>929</ele>
        <time>2026-05-26T10:16:25.000Z</time>
      </trkpt>
      <trkpt lat="44.66046" lon="5.04602">
        <ele>929</ele>
        <time>2026-05-26T10:16:26.000Z</time>
      </trkpt>
      <trkpt lat="44.66046" lon="5.04602">
        <ele>929</ele>
        <time>2026-05-26T10:16:27.000Z</time>
      </trkpt>
      <trkpt lat="44.66047" lon="5.04603">
        <ele>929</ele>
        <time>2026-05-26T10:16:28.000Z</time>
      </trkpt>
      <trkpt lat="44.66047" lon="5.04604">
        <ele>929</ele>
        <time>2026-05-26T10:16:29.000Z</time>
      </trkpt>
      <trkpt lat="44.66048" lon="5.04605">
        <ele>930</ele>
        <time>2026-05-26T10:16:30.000Z</time>
      </trkpt>
      <trkpt lat="44.66048" lon="5.04606">
        <ele>930</ele>
        <time>2026-05-26T10:16:31.000Z</time>
      </trkpt>
      <trkpt lat="44.66048" lon="5.04606">
        <ele>930</ele>
        <time>2026-05-26T10:16:32.000Z</time>
      </trkpt>
      <trkpt lat="44.66048" lon="5.04607">
        <ele>929</ele>
        <time>2026-05-26T10:16:33.000Z</time>
      </trkpt>
      <trkpt lat="44.66048" lon="5.04608">
        <ele>928</ele>
        <time>2026-05-26T10:16:34.000Z</time>
      </trkpt>
      <trkpt lat="44.66048" lon="5.04609">
        <ele>928</ele>
        <time>2026-05-26T10:16:35.000Z</time>
      </trkpt>
      <trkpt lat="44.66049" lon="5.0461">
        <ele>927</ele>
        <time>2026-05-26T10:16:36.000Z</time>
      </trkpt>
      <trkpt lat="44.66049" lon="5.04611">
        <ele>927</ele>
        <time>2026-05-26T10:16:37.000Z</time>
      </trkpt>
      <trkpt lat="44.6605" lon="5.04612">
        <ele>926</ele>
        <time>2026-05-26T10:16:38.000Z</time>
      </trkpt>
      <trkpt lat="44.66051" lon="5.04613">
        <ele>926</ele>
        <time>2026-05-26T10:16:39.000Z</time>
      </trkpt>
      <trkpt lat="44.66052" lon="5.04613">
        <ele>926</ele>
        <time>2026-05-26T10:16:40.000Z</time>
      </trkpt>
      <trkpt lat="44.66053" lon="5.04613">
        <ele>926</ele>
        <time>2026-05-26T10:16:41.000Z</time>
      </trkpt>
      <trkpt lat="44.66054" lon="5.04613">
        <ele>926</ele>
        <time>2026-05-26T10:16:42.000Z</time>
      </trkpt>
      <trkpt lat="44.66056" lon="5.04614">
        <ele>926</ele>
        <time>2026-05-26T10:16:43.000Z</time>
      </trkpt>
      <trkpt lat="44.66057" lon="5.04613">
        <ele>926</ele>
        <time>2026-05-26T10:16:44.000Z</time>
      </trkpt>
      <trkpt lat="44.66058" lon="5.04614">
        <ele>926</ele>
        <time>2026-05-26T10:16:45.000Z</time>
      </trkpt>
      <trkpt lat="44.66059" lon="5.04614">
        <ele>926</ele>
        <time>2026-05-26T10:16:46.000Z</time>
      </trkpt>
      <trkpt lat="44.6606" lon="5.04614">
        <ele>926</ele>
        <time>2026-05-26T10:16:47.000Z</time>
      </trkpt>
      <trkpt lat="44.66061" lon="5.04614">
        <ele>927</ele>
        <time>2026-05-26T10:16:48.000Z</time>
      </trkpt>
      <trkpt lat="44.66062" lon="5.04614">
        <ele>927</ele>
        <time>2026-05-26T10:16:49.000Z</time>
      </trkpt>
      <trkpt lat="44.66062" lon="5.04614">
        <ele>927</ele>
        <time>2026-05-26T10:16:50.000Z</time>
      </trkpt>
      <trkpt lat="44.66063" lon="5.04614">
        <ele>928</ele>
        <time>2026-05-26T10:16:51.000Z</time>
      </trkpt>
      <trkpt lat="44.66062" lon="5.04613">
        <ele>927</ele>
        <time>2026-05-26T10:16:52.000Z</time>
      </trkpt>
      <trkpt lat="44.66063" lon="5.04614">
        <ele>927</ele>
        <time>2026-05-26T10:16:53.000Z</time>
      </trkpt>
      <trkpt lat="44.66064" lon="5.04613">
        <ele>928</ele>
        <time>2026-05-26T10:16:54.000Z</time>
      </trkpt>
      <trkpt lat="44.66065" lon="5.04613">
        <ele>928</ele>
        <time>2026-05-26T10:16:55.000Z</time>
      </trkpt>
      <trkpt lat="44.66065" lon="5.04613">
        <ele>928</ele>
        <time>2026-05-26T10:16:56.000Z</time>
      </trkpt>
      <trkpt lat="44.66066" lon="5.04613">
        <ele>928</ele>
        <time>2026-05-26T10:16:57.000Z</time>
      </trkpt>
      <trkpt lat="44.66067" lon="5.04613">
        <ele>928</ele>
        <time>2026-05-26T10:16:58.000Z</time>
      </trkpt>
      <trkpt lat="44.66068" lon="5.04612">
        <ele>928</ele>
        <time>2026-05-26T10:16:59.000Z</time>
      </trkpt>
      <trkpt lat="44.66068" lon="5.04611">
        <ele>928</ele>
        <time>2026-05-26T10:17:00.000Z</time>
      </trkpt>
      <trkpt lat="44.66069" lon="5.04611">
        <ele>929</ele>
        <time>2026-05-26T10:17:01.000Z</time>
      </trkpt>
      <trkpt lat="44.6607" lon="5.0461">
        <ele>929</ele>
        <time>2026-05-26T10:17:02.000Z</time>
      </trkpt>
      <trkpt lat="44.6607" lon="5.0461">
        <ele>929</ele>
        <time>2026-05-26T10:17:03.000Z</time>
      </trkpt>
      <trkpt lat="44.66071" lon="5.0461">
        <ele>929</ele>
        <time>2026-05-26T10:17:04.000Z</time>
      </trkpt>
      <trkpt lat="44.66072" lon="5.0461">
        <ele>930</ele>
        <time>2026-05-26T10:17:05.000Z</time>
      </trkpt>
      <trkpt lat="44.66073" lon="5.04609">
        <ele>930</ele>
        <time>2026-05-26T10:17:06.000Z</time>
      </trkpt>
      <trkpt lat="44.66073" lon="5.04609">
        <ele>930</ele>
        <time>2026-05-26T10:17:07.000Z</time>
      </trkpt>
      <trkpt lat="44.66074" lon="5.04608">
        <ele>931</ele>
        <time>2026-05-26T10:17:08.000Z</time>
      </trkpt>
      <trkpt lat="44.66075" lon="5.04608">
        <ele>931</ele>
        <time>2026-05-26T10:17:09.000Z</time>
      </trkpt>
      <trkpt lat="44.66076" lon="5.04607">
        <ele>931</ele>
        <time>2026-05-26T10:17:10.000Z</time>
      </trkpt>
      <trkpt lat="44.66076" lon="5.04608">
        <ele>932</ele>
        <time>2026-05-26T10:17:11.000Z</time>
      </trkpt>
      <trkpt lat="44.66078" lon="5.04608">
        <ele>932</ele>
        <time>2026-05-26T10:17:12.000Z</time>
      </trkpt>
      <trkpt lat="44.66078" lon="5.04608">
        <ele>932</ele>
        <time>2026-05-26T10:17:13.000Z</time>
      </trkpt>
      <trkpt lat="44.66079" lon="5.04609">
        <ele>932</ele>
        <time>2026-05-26T10:17:14.000Z</time>
      </trkpt>
      <trkpt lat="44.66079" lon="5.04608">
        <ele>933</ele>
        <time>2026-05-26T10:17:15.000Z</time>
      </trkpt>
      <trkpt lat="44.6608" lon="5.04608">
        <ele>933</ele>
        <time>2026-05-26T10:17:16.000Z</time>
      </trkpt>
      <trkpt lat="44.66081" lon="5.04608">
        <ele>933</ele>
        <time>2026-05-26T10:17:17.000Z</time>
      </trkpt>
      <trkpt lat="44.66081" lon="5.04607">
        <ele>933</ele>
        <time>2026-05-26T10:17:18.000Z</time>
      </trkpt>
      <trkpt lat="44.66082" lon="5.04607">
        <ele>934</ele>
        <time>2026-05-26T10:17:19.000Z</time>
      </trkpt>
      <trkpt lat="44.66082" lon="5.04608">
        <ele>933</ele>
        <time>2026-05-26T10:17:20.000Z</time>
      </trkpt>
      <trkpt lat="44.66083" lon="5.04608">
        <ele>933</ele>
        <time>2026-05-26T10:17:21.000Z</time>
      </trkpt>
      <trkpt lat="44.66084" lon="5.04608">
        <ele>933</ele>
        <time>2026-05-26T10:17:22.000Z</time>
      </trkpt>
      <trkpt lat="44.66084" lon="5.04607">
        <ele>934</ele>
        <time>2026-05-26T10:17:23.000Z</time>
      </trkpt>
      <trkpt lat="44.66085" lon="5.04607">
        <ele>934</ele>
        <time>2026-05-26T10:17:24.000Z</time>
      </trkpt>
      <trkpt lat="44.66086" lon="5.04608">
        <ele>934</ele>
        <time>2026-05-26T10:17:25.000Z</time>
      </trkpt>
      <trkpt lat="44.66088" lon="5.04608">
        <ele>934</ele>
        <time>2026-05-26T10:17:26.000Z</time>
      </trkpt>
      <trkpt lat="44.66088" lon="5.04609">
        <ele>934</ele>
        <time>2026-05-26T10:17:27.000Z</time>
      </trkpt>
      <trkpt lat="44.66089" lon="5.0461">
        <ele>933</ele>
        <time>2026-05-26T10:17:28.000Z</time>
      </trkpt>
      <trkpt lat="44.6609" lon="5.04611">
        <ele>933</ele>
        <time>2026-05-26T10:17:29.000Z</time>
      </trkpt>
      <trkpt lat="44.66091" lon="5.04611">
        <ele>934</ele>
        <time>2026-05-26T10:17:30.000Z</time>
      </trkpt>
      <trkpt lat="44.66091" lon="5.04612">
        <ele>934</ele>
        <time>2026-05-26T10:17:31.000Z</time>
      </trkpt>
      <trkpt lat="44.66092" lon="5.04613">
        <ele>934</ele>
        <time>2026-05-26T10:17:32.000Z</time>
      </trkpt>
      <trkpt lat="44.66092" lon="5.04612">
        <ele>934</ele>
        <time>2026-05-26T10:17:33.000Z</time>
      </trkpt>
      <trkpt lat="44.66094" lon="5.04611">
        <ele>935</ele>
        <time>2026-05-26T10:17:34.000Z</time>
      </trkpt>
      <trkpt lat="44.66095" lon="5.04611">
        <ele>935</ele>
        <time>2026-05-26T10:17:35.000Z</time>
      </trkpt>
      <trkpt lat="44.66096" lon="5.04611">
        <ele>935</ele>
        <time>2026-05-26T10:17:36.000Z</time>
      </trkpt>
      <trkpt lat="44.66097" lon="5.04612">
        <ele>935</ele>
        <time>2026-05-26T10:17:37.000Z</time>
      </trkpt>
      <trkpt lat="44.66098" lon="5.04613">
        <ele>935</ele>
        <time>2026-05-26T10:17:38.000Z</time>
      </trkpt>
      <trkpt lat="44.66099" lon="5.04613">
        <ele>934</ele>
        <time>2026-05-26T10:17:39.000Z</time>
      </trkpt>
      <trkpt lat="44.661" lon="5.04614">
        <ele>934</ele>
        <time>2026-05-26T10:17:40.000Z</time>
      </trkpt>
      <trkpt lat="44.66101" lon="5.04615">
        <ele>934</ele>
        <time>2026-05-26T10:17:41.000Z</time>
      </trkpt>
      <trkpt lat="44.66102" lon="5.04616">
        <ele>935</ele>
        <time>2026-05-26T10:17:42.000Z</time>
      </trkpt>
      <trkpt lat="44.66102" lon="5.04617">
        <ele>935</ele>
        <time>2026-05-26T10:17:43.000Z</time>
      </trkpt>
      <trkpt lat="44.66103" lon="5.04618">
        <ele>934</ele>
        <time>2026-05-26T10:17:44.000Z</time>
      </trkpt>
      <trkpt lat="44.66104" lon="5.04619">
        <ele>934</ele>
        <time>2026-05-26T10:17:45.000Z</time>
      </trkpt>
      <trkpt lat="44.66105" lon="5.04621">
        <ele>935</ele>
        <time>2026-05-26T10:17:46.000Z</time>
      </trkpt>
      <trkpt lat="44.66105" lon="5.04622">
        <ele>934</ele>
        <time>2026-05-26T10:17:47.000Z</time>
      </trkpt>
      <trkpt lat="44.66106" lon="5.04622">
        <ele>934</ele>
        <time>2026-05-26T10:17:48.000Z</time>
      </trkpt>
      <trkpt lat="44.66107" lon="5.04623">
        <ele>934</ele>
        <time>2026-05-26T10:17:49.000Z</time>
      </trkpt>
      <trkpt lat="44.66108" lon="5.04623">
        <ele>933</ele>
        <time>2026-05-26T10:17:50.000Z</time>
      </trkpt>
      <trkpt lat="44.66108" lon="5.04625">
        <ele>933</ele>
        <time>2026-05-26T10:17:51.000Z</time>
      </trkpt>
      <trkpt lat="44.6611" lon="5.04626">
        <ele>933</ele>
        <time>2026-05-26T10:17:52.000Z</time>
      </trkpt>
      <trkpt lat="44.66111" lon="5.04626">
        <ele>933</ele>
        <time>2026-05-26T10:17:53.000Z</time>
      </trkpt>
      <trkpt lat="44.66112" lon="5.04628">
        <ele>933</ele>
        <time>2026-05-26T10:17:54.000Z</time>
      </trkpt>
      <trkpt lat="44.66113" lon="5.04628">
        <ele>934</ele>
        <time>2026-05-26T10:17:55.000Z</time>
      </trkpt>
      <trkpt lat="44.66114" lon="5.04628">
        <ele>933</ele>
        <time>2026-05-26T10:17:56.000Z</time>
      </trkpt>
      <trkpt lat="44.66115" lon="5.04628">
        <ele>933</ele>
        <time>2026-05-26T10:17:57.000Z</time>
      </trkpt>
      <trkpt lat="44.66116" lon="5.04627">
        <ele>932</ele>
        <time>2026-05-26T10:17:58.000Z</time>
      </trkpt>
      <trkpt lat="44.66117" lon="5.04626">
        <ele>932</ele>
        <time>2026-05-26T10:17:59.000Z</time>
      </trkpt>
      <trkpt lat="44.66119" lon="5.04626">
        <ele>931</ele>
        <time>2026-05-26T10:18:00.000Z</time>
      </trkpt>
      <trkpt lat="44.6612" lon="5.04625">
        <ele>931</ele>
        <time>2026-05-26T10:18:01.000Z</time>
      </trkpt>
      <trkpt lat="44.66121" lon="5.04625">
        <ele>932</ele>
        <time>2026-05-26T10:18:02.000Z</time>
      </trkpt>
      <trkpt lat="44.66122" lon="5.04625">
        <ele>932</ele>
        <time>2026-05-26T10:18:03.000Z</time>
      </trkpt>
      <trkpt lat="44.66124" lon="5.04625">
        <ele>931</ele>
        <time>2026-05-26T10:18:04.000Z</time>
      </trkpt>
      <trkpt lat="44.66125" lon="5.04624">
        <ele>932</ele>
        <time>2026-05-26T10:18:05.000Z</time>
      </trkpt>
      <trkpt lat="44.66125" lon="5.04625">
        <ele>934</ele>
        <time>2026-05-26T10:18:06.000Z</time>
      </trkpt>
      <trkpt lat="44.66126" lon="5.04625">
        <ele>934</ele>
        <time>2026-05-26T10:18:07.000Z</time>
      </trkpt>
      <trkpt lat="44.66126" lon="5.04626">
        <ele>934</ele>
        <time>2026-05-26T10:18:08.000Z</time>
      </trkpt>
      <trkpt lat="44.66127" lon="5.04625">
        <ele>934</ele>
        <time>2026-05-26T10:18:09.000Z</time>
      </trkpt>
      <trkpt lat="44.66128" lon="5.04625">
        <ele>933</ele>
        <time>2026-05-26T10:18:10.000Z</time>
      </trkpt>
      <trkpt lat="44.66128" lon="5.04625">
        <ele>932</ele>
        <time>2026-05-26T10:18:11.000Z</time>
      </trkpt>
      <trkpt lat="44.6613" lon="5.04625">
        <ele>933</ele>
        <time>2026-05-26T10:18:12.000Z</time>
      </trkpt>
      <trkpt lat="44.66131" lon="5.04625">
        <ele>933</ele>
        <time>2026-05-26T10:18:13.000Z</time>
      </trkpt>
      <trkpt lat="44.66131" lon="5.04626">
        <ele>933</ele>
        <time>2026-05-26T10:18:14.000Z</time>
      </trkpt>
      <trkpt lat="44.66132" lon="5.04625">
        <ele>933</ele>
        <time>2026-05-26T10:18:15.000Z</time>
      </trkpt>
      <trkpt lat="44.66133" lon="5.04624">
        <ele>934</ele>
        <time>2026-05-26T10:18:16.000Z</time>
      </trkpt>
      <trkpt lat="44.66134" lon="5.04622">
        <ele>932</ele>
        <time>2026-05-26T10:18:17.000Z</time>
      </trkpt>
      <trkpt lat="44.66134" lon="5.0462">
        <ele>933</ele>
        <time>2026-05-26T10:18:18.000Z</time>
      </trkpt>
      <trkpt lat="44.66135" lon="5.04619">
        <ele>933</ele>
        <time>2026-05-26T10:18:19.000Z</time>
      </trkpt>
      <trkpt lat="44.66135" lon="5.04618">
        <ele>933</ele>
        <time>2026-05-26T10:18:20.000Z</time>
      </trkpt>
      <trkpt lat="44.66136" lon="5.04618">
        <ele>934</ele>
        <time>2026-05-26T10:18:21.000Z</time>
      </trkpt>
      <trkpt lat="44.66137" lon="5.04619">
        <ele>935</ele>
        <time>2026-05-26T10:18:22.000Z</time>
      </trkpt>
      <trkpt lat="44.66137" lon="5.0462">
        <ele>936</ele>
        <time>2026-05-26T10:18:23.000Z</time>
      </trkpt>
      <trkpt lat="44.66138" lon="5.04621">
        <ele>936</ele>
        <time>2026-05-26T10:18:24.000Z</time>
      </trkpt>
      <trkpt lat="44.66139" lon="5.0462">
        <ele>936</ele>
        <time>2026-05-26T10:18:25.000Z</time>
      </trkpt>
      <trkpt lat="44.6614" lon="5.04619">
        <ele>937</ele>
        <time>2026-05-26T10:18:26.000Z</time>
      </trkpt>
      <trkpt lat="44.66141" lon="5.04617">
        <ele>937</ele>
        <time>2026-05-26T10:18:27.000Z</time>
      </trkpt>
      <trkpt lat="44.66141" lon="5.04614">
        <ele>936</ele>
        <time>2026-05-26T10:18:28.000Z</time>
      </trkpt>
      <trkpt lat="44.6614" lon="5.04613">
        <ele>935</ele>
        <time>2026-05-26T10:18:29.000Z</time>
      </trkpt>
      <trkpt lat="44.6614" lon="5.04613">
        <ele>935</ele>
        <time>2026-05-26T10:18:30.000Z</time>
      </trkpt>
      <trkpt lat="44.66139" lon="5.04613">
        <ele>935</ele>
        <time>2026-05-26T10:18:31.000Z</time>
      </trkpt>
      <trkpt lat="44.66139" lon="5.04614">
        <ele>935</ele>
        <time>2026-05-26T10:18:32.000Z</time>
      </trkpt>
      <trkpt lat="44.6614" lon="5.04614">
        <ele>935</ele>
        <time>2026-05-26T10:18:33.000Z</time>
      </trkpt>
      <trkpt lat="44.6614" lon="5.04614">
        <ele>935</ele>
        <time>2026-05-26T10:18:34.000Z</time>
      </trkpt>
      <trkpt lat="44.6614" lon="5.04614">
        <ele>935</ele>
        <time>2026-05-26T10:18:35.000Z</time>
      </trkpt>
      <trkpt lat="44.6614" lon="5.04614">
        <ele>935</ele>
        <time>2026-05-26T10:18:36.000Z</time>
      </trkpt>
      <trkpt lat="44.6614" lon="5.04614">
        <ele>935</ele>
        <time>2026-05-26T10:18:37.000Z</time>
      </trkpt>
      <trkpt lat="44.6614" lon="5.04614">
        <ele>935</ele>
        <time>2026-05-26T10:18:38.000Z</time>
      </trkpt>
      <trkpt lat="44.6614" lon="5.04614">
        <ele>935</ele>
        <time>2026-05-26T10:18:39.000Z</time>
      </trkpt>
      <trkpt lat="44.6614" lon="5.04614">
        <ele>935</ele>
        <time>2026-05-26T10:18:40.000Z</time>
      </trkpt>
      <trkpt lat="44.6614" lon="5.04614">
        <ele>935</ele>
        <time>2026-05-26T10:18:41.000Z</time>
      </trkpt>
      <trkpt lat="44.6614" lon="5.04614">
        <ele>935</ele>
        <time>2026-05-26T10:18:42.000Z</time>
      </trkpt>
      <trkpt lat="44.6614" lon="5.04614">
        <ele>935</ele>
        <time>2026-05-26T10:18:43.000Z</time>
      </trkpt>
      <trkpt lat="44.6614" lon="5.04614">
        <ele>935</ele>
        <time>2026-05-26T10:18:44.000Z</time>
      </trkpt>
      <trkpt lat="44.6614" lon="5.04614">
        <ele>935</ele>
        <time>2026-05-26T10:18:45.000Z</time>
      </trkpt>
      <trkpt lat="44.6614" lon="5.04614">
        <ele>935</ele>
        <time>2026-05-26T10:18:46.000Z</time>
      </trkpt>
      <trkpt lat="44.6614" lon="5.04614">
        <ele>935</ele>
        <time>2026-05-26T10:18:47.000Z</time>
      </trkpt>
      <trkpt lat="44.6614" lon="5.04614">
        <ele>935</ele>
        <time>2026-05-26T10:18:48.000Z</time>
      </trkpt>
      <trkpt lat="44.6614" lon="5.04614">
        <ele>935</ele>
        <time>2026-05-26T10:18:49.000Z</time>
      </trkpt>
      <trkpt lat="44.6614" lon="5.04614">
        <ele>935</ele>
        <time>2026-05-26T10:18:50.000Z</time>
      </trkpt>
      <trkpt lat="44.66139" lon="5.04614">
        <ele>935</ele>
        <time>2026-05-26T10:18:51.000Z</time>
      </trkpt>
      <trkpt lat="44.66139" lon="5.04614">
        <ele>935</ele>
        <time>2026-05-26T10:18:52.000Z</time>
      </trkpt>
      <trkpt lat="44.66139" lon="5.04614">
        <ele>935</ele>
        <time>2026-05-26T10:18:53.000Z</time>
      </trkpt>
      <trkpt lat="44.6614" lon="5.04613">
        <ele>936</ele>
        <time>2026-05-26T10:18:54.000Z</time>
      </trkpt>
      <trkpt lat="44.6614" lon="5.04611">
        <ele>936</ele>
        <time>2026-05-26T10:18:55.000Z</time>
      </trkpt>
      <trkpt lat="44.6614" lon="5.04611">
        <ele>936</ele>
        <time>2026-05-26T10:18:56.000Z</time>
      </trkpt>
      <trkpt lat="44.6614" lon="5.0461">
        <ele>936</ele>
        <time>2026-05-26T10:18:57.000Z</time>
      </trkpt>
      <trkpt lat="44.6614" lon="5.04609">
        <ele>935</ele>
        <time>2026-05-26T10:18:58.000Z</time>
      </trkpt>
      <trkpt lat="44.6614" lon="5.04609">
        <ele>935</ele>
        <time>2026-05-26T10:18:59.000Z</time>
      </trkpt>
      <trkpt lat="44.6614" lon="5.04609">
        <ele>935</ele>
        <time>2026-05-26T10:19:00.000Z</time>
      </trkpt>
      <trkpt lat="44.6614" lon="5.04609">
        <ele>935</ele>
        <time>2026-05-26T10:19:01.000Z</time>
      </trkpt>
      <trkpt lat="44.6614" lon="5.04609">
        <ele>935</ele>
        <time>2026-05-26T10:19:02.000Z</time>
      </trkpt>
      <trkpt lat="44.6614" lon="5.04609">
        <ele>935</ele>
        <time>2026-05-26T10:19:03.000Z</time>
      </trkpt>
      <trkpt lat="44.6614" lon="5.04609">
        <ele>935</ele>
        <time>2026-05-26T10:19:04.000Z</time>
      </trkpt>
      <trkpt lat="44.6614" lon="5.04609">
        <ele>935</ele>
        <time>2026-05-26T10:19:05.000Z</time>
      </trkpt>
      <trkpt lat="44.6614" lon="5.04609">
        <ele>935</ele>
        <time>2026-05-26T10:19:06.000Z</time>
      </trkpt>
      <trkpt lat="44.6614" lon="5.04609">
        <ele>935</ele>
        <time>2026-05-26T10:19:07.000Z</time>
      </trkpt>
      <trkpt lat="44.6614" lon="5.04609">
        <ele>935</ele>
        <time>2026-05-26T10:19:08.000Z</time>
      </trkpt>
      <trkpt lat="44.6614" lon="5.04609">
        <ele>935</ele>
        <time>2026-05-26T10:19:09.000Z</time>
      </trkpt>
      <trkpt lat="44.66139" lon="5.0461">
        <ele>935</ele>
        <time>2026-05-26T10:19:10.000Z</time>
      </trkpt>
      <trkpt lat="44.66139" lon="5.0461">
        <ele>935</ele>
        <time>2026-05-26T10:19:11.000Z</time>
      </trkpt>
      <trkpt lat="44.66139" lon="5.04611">
        <ele>934</ele>
        <time>2026-05-26T10:19:12.000Z</time>
      </trkpt>
      <trkpt lat="44.66139" lon="5.04612">
        <ele>935</ele>
        <time>2026-05-26T10:19:13.000Z</time>
      </trkpt>
      <trkpt lat="44.66138" lon="5.04612">
        <ele>935</ele>
        <time>2026-05-26T10:19:14.000Z</time>
      </trkpt>
      <trkpt lat="44.66138" lon="5.04613">
        <ele>935</ele>
        <time>2026-05-26T10:19:15.000Z</time>
      </trkpt>
      <trkpt lat="44.66139" lon="5.04614">
        <ele>935</ele>
        <time>2026-05-26T10:19:16.000Z</time>
      </trkpt>
      <trkpt lat="44.66139" lon="5.04614">
        <ele>935</ele>
        <time>2026-05-26T10:19:17.000Z</time>
      </trkpt>
      <trkpt lat="44.66139" lon="5.04614">
        <ele>935</ele>
        <time>2026-05-26T10:19:18.000Z</time>
      </trkpt>
      <trkpt lat="44.66139" lon="5.04614">
        <ele>935</ele>
        <time>2026-05-26T10:19:19.000Z</time>
      </trkpt>
      <trkpt lat="44.66139" lon="5.04614">
        <ele>935</ele>
        <time>2026-05-26T10:19:20.000Z</time>
      </trkpt>
      <trkpt lat="44.66139" lon="5.04614">
        <ele>935</ele>
        <time>2026-05-26T10:19:21.000Z</time>
      </trkpt>
      <trkpt lat="44.66139" lon="5.04614">
        <ele>935</ele>
        <time>2026-05-26T10:19:22.000Z</time>
      </trkpt>
      <trkpt lat="44.66138" lon="5.04613">
        <ele>934</ele>
        <time>2026-05-26T10:19:23.000Z</time>
      </trkpt>
      <trkpt lat="44.66138" lon="5.04613">
        <ele>933</ele>
        <time>2026-05-26T10:19:24.000Z</time>
      </trkpt>
      <trkpt lat="44.66137" lon="5.04613">
        <ele>933</ele>
        <time>2026-05-26T10:19:25.000Z</time>
      </trkpt>
      <trkpt lat="44.66137" lon="5.04613">
        <ele>932</ele>
        <time>2026-05-26T10:19:26.000Z</time>
      </trkpt>
      <trkpt lat="44.66137" lon="5.04613">
        <ele>932</ele>
        <time>2026-05-26T10:19:27.000Z</time>
      </trkpt>
      <trkpt lat="44.66138" lon="5.04613">
        <ele>932</ele>
        <time>2026-05-26T10:19:28.000Z</time>
      </trkpt>
      <trkpt lat="44.66138" lon="5.04613">
        <ele>932</ele>
        <time>2026-05-26T10:19:29.000Z</time>
      </trkpt>
      <trkpt lat="44.66139" lon="5.04613">
        <ele>934</ele>
        <time>2026-05-26T10:19:30.000Z</time>
      </trkpt>
      <trkpt lat="44.66139" lon="5.04612">
        <ele>936</ele>
        <time>2026-05-26T10:19:31.000Z</time>
      </trkpt>
      <trkpt lat="44.66138" lon="5.04612">
        <ele>936</ele>
        <time>2026-05-26T10:19:32.000Z</time>
      </trkpt>
      <trkpt lat="44.66138" lon="5.04612">
        <ele>936</ele>
        <time>2026-05-26T10:19:33.000Z</time>
      </trkpt>
      <trkpt lat="44.66138" lon="5.04611">
        <ele>936</ele>
        <time>2026-05-26T10:19:34.000Z</time>
      </trkpt>
      <trkpt lat="44.66138" lon="5.04612">
        <ele>936</ele>
        <time>2026-05-26T10:19:35.000Z</time>
      </trkpt>
      <trkpt lat="44.66138" lon="5.04612">
        <ele>936</ele>
        <time>2026-05-26T10:19:36.000Z</time>
      </trkpt>
      <trkpt lat="44.66139" lon="5.04611">
        <ele>936</ele>
        <time>2026-05-26T10:19:37.000Z</time>
      </trkpt>
      <trkpt lat="44.66139" lon="5.0461">
        <ele>936</ele>
        <time>2026-05-26T10:19:38.000Z</time>
      </trkpt>
      <trkpt lat="44.66139" lon="5.0461">
        <ele>936</ele>
        <time>2026-05-26T10:19:39.000Z</time>
      </trkpt>
      <trkpt lat="44.66139" lon="5.0461">
        <ele>936</ele>
        <time>2026-05-26T10:19:40.000Z</time>
      </trkpt>
      <trkpt lat="44.66139" lon="5.0461">
        <ele>936</ele>
        <time>2026-05-26T10:19:41.000Z</time>
      </trkpt>
      <trkpt lat="44.66139" lon="5.0461">
        <ele>936</ele>
        <time>2026-05-26T10:19:42.000Z</time>
      </trkpt>
      <trkpt lat="44.66139" lon="5.0461">
        <ele>936</ele>
        <time>2026-05-26T10:19:43.000Z</time>
      </trkpt>
      <trkpt lat="44.66139" lon="5.0461">
        <ele>936</ele>
        <time>2026-05-26T10:19:44.000Z</time>
      </trkpt>
      <trkpt lat="44.66139" lon="5.0461">
        <ele>936</ele>
        <time>2026-05-26T10:19:45.000Z</time>
      </trkpt>
      <trkpt lat="44.66139" lon="5.0461">
        <ele>936</ele>
        <time>2026-05-26T10:19:46.000Z</time>
      </trkpt>
      <trkpt lat="44.66139" lon="5.0461">
        <ele>936</ele>
        <time>2026-05-26T10:19:47.000Z</time>
      </trkpt>
      <trkpt lat="44.66139" lon="5.0461">
        <ele>936</ele>
        <time>2026-05-26T10:19:48.000Z</time>
      </trkpt>
      <trkpt lat="44.66139" lon="5.0461">
        <ele>936</ele>
        <time>2026-05-26T10:19:49.000Z</time>
      </trkpt>
      <trkpt lat="44.66139" lon="5.0461">
        <ele>936</ele>
        <time>2026-05-26T10:19:50.000Z</time>
      </trkpt>
      <trkpt lat="44.66139" lon="5.0461">
        <ele>936</ele>
        <time>2026-05-26T10:19:51.000Z</time>
      </trkpt>
      <trkpt lat="44.66139" lon="5.0461">
        <ele>936</ele>
        <time>2026-05-26T10:19:52.000Z</time>
      </trkpt>
      <trkpt lat="44.66139" lon="5.0461">
        <ele>936</ele>
        <time>2026-05-26T10:19:53.000Z</time>
      </trkpt>
      <trkpt lat="44.66139" lon="5.0461">
        <ele>936</ele>
        <time>2026-05-26T10:19:54.000Z</time>
      </trkpt>
      <trkpt lat="44.66139" lon="5.0461">
        <ele>936</ele>
        <time>2026-05-26T10:19:55.000Z</time>
      </trkpt>
      <trkpt lat="44.66139" lon="5.0461">
        <ele>936</ele>
        <time>2026-05-26T10:19:56.000Z</time>
      </trkpt>
      <trkpt lat="44.66139" lon="5.0461">
        <ele>936</ele>
        <time>2026-05-26T10:19:57.000Z</time>
      </trkpt>
      <trkpt lat="44.66139" lon="5.0461">
        <ele>936</ele>
        <time>2026-05-26T10:19:58.000Z</time>
      </trkpt>
      <trkpt lat="44.66139" lon="5.0461">
        <ele>936</ele>
        <time>2026-05-26T10:19:59.000Z</time>
      </trkpt>
      <trkpt lat="44.66139" lon="5.0461">
        <ele>936</ele>
        <time>2026-05-26T10:20:00.000Z</time>
      </trkpt>
      <trkpt lat="44.66139" lon="5.0461">
        <ele>936</ele>
        <time>2026-05-26T10:20:01.000Z</time>
      </trkpt>
      <trkpt lat="44.66139" lon="5.0461">
        <ele>936</ele>
        <time>2026-05-26T10:20:02.000Z</time>
      </trkpt>
      <trkpt lat="44.66139" lon="5.0461">
        <ele>936</ele>
        <time>2026-05-26T10:20:03.000Z</time>
      </trkpt>
      <trkpt lat="44.66139" lon="5.0461">
        <ele>936</ele>
        <time>2026-05-26T10:20:04.000Z</time>
      </trkpt>
      <trkpt lat="44.66139" lon="5.0461">
        <ele>936</ele>
        <time>2026-05-26T10:20:05.000Z</time>
      </trkpt>
      <trkpt lat="44.66139" lon="5.0461">
        <ele>936</ele>
        <time>2026-05-26T10:20:06.000Z</time>
      </trkpt>
      <trkpt lat="44.66139" lon="5.0461">
        <ele>936</ele>
        <time>2026-05-26T10:20:07.000Z</time>
      </trkpt>
      <trkpt lat="44.66139" lon="5.0461">
        <ele>936</ele>
        <time>2026-05-26T10:20:08.000Z</time>
      </trkpt>
      <trkpt lat="44.66139" lon="5.0461">
        <ele>936</ele>
        <time>2026-05-26T10:20:09.000Z</time>
      </trkpt>
      <trkpt lat="44.66139" lon="5.0461">
        <ele>936</ele>
        <time>2026-05-26T10:20:10.000Z</time>
      </trkpt>
      <trkpt lat="44.66139" lon="5.0461">
        <ele>936</ele>
        <time>2026-05-26T10:20:11.000Z</time>
      </trkpt>
      <trkpt lat="44.66139" lon="5.0461">
        <ele>936</ele>
        <time>2026-05-26T10:20:12.000Z</time>
      </trkpt>
      <trkpt lat="44.66139" lon="5.0461">
        <ele>936</ele>
        <time>2026-05-26T10:20:13.000Z</time>
      </trkpt>
      <trkpt lat="44.66139" lon="5.0461">
        <ele>936</ele>
        <time>2026-05-26T10:20:14.000Z</time>
      </trkpt>
      <trkpt lat="44.66139" lon="5.0461">
        <ele>936</ele>
        <time>2026-05-26T10:20:15.000Z</time>
      </trkpt>
      <trkpt lat="44.66139" lon="5.0461">
        <ele>936</ele>
        <time>2026-05-26T10:20:16.000Z</time>
      </trkpt>
      <trkpt lat="44.66139" lon="5.0461">
        <ele>936</ele>
        <time>2026-05-26T10:20:17.000Z</time>
      </trkpt>
      <trkpt lat="44.66139" lon="5.0461">
        <ele>936</ele>
        <time>2026-05-26T10:20:18.000Z</time>
      </trkpt>
      <trkpt lat="44.66139" lon="5.0461">
        <ele>936</ele>
        <time>2026-05-26T10:20:19.000Z</time>
      </trkpt>
      <trkpt lat="44.66139" lon="5.0461">
        <ele>936</ele>
        <time>2026-05-26T10:20:20.000Z</time>
      </trkpt>
      <trkpt lat="44.66139" lon="5.0461">
        <ele>936</ele>
        <time>2026-05-26T10:20:21.000Z</time>
      </trkpt>
      <trkpt lat="44.66139" lon="5.0461">
        <ele>936</ele>
        <time>2026-05-26T10:20:22.000Z</time>
      </trkpt>
      <trkpt lat="44.66139" lon="5.0461">
        <ele>936</ele>
        <time>2026-05-26T10:20:23.000Z</time>
      </trkpt>
      <trkpt lat="44.66139" lon="5.0461">
        <ele>936</ele>
        <time>2026-05-26T10:20:24.000Z</time>
      </trkpt>
      <trkpt lat="44.66139" lon="5.0461">
        <ele>936</ele>
        <time>2026-05-26T10:20:25.000Z</time>
      </trkpt>
      <trkpt lat="44.66139" lon="5.0461">
        <ele>936</ele>
        <time>2026-05-26T10:20:26.000Z</time>
      </trkpt>
      <trkpt lat="44.66139" lon="5.0461">
        <ele>936</ele>
        <time>2026-05-26T10:20:27.000Z</time>
      </trkpt>
      <trkpt lat="44.66139" lon="5.0461">
        <ele>936</ele>
        <time>2026-05-26T10:20:28.000Z</time>
      </trkpt>
      <trkpt lat="44.66139" lon="5.0461">
        <ele>936</ele>
        <time>2026-05-26T10:20:29.000Z</time>
      </trkpt>
      <trkpt lat="44.66139" lon="5.0461">
        <ele>936</ele>
        <time>2026-05-26T10:20:30.000Z</time>
      </trkpt>
      <trkpt lat="44.66139" lon="5.0461">
        <ele>936</ele>
        <time>2026-05-26T10:20:31.000Z</time>
      </trkpt>
      <trkpt lat="44.66139" lon="5.0461">
        <ele>936</ele>
        <time>2026-05-26T10:20:32.000Z</time>
      </trkpt>
      <trkpt lat="44.66139" lon="5.0461">
        <ele>936</ele>
        <time>2026-05-26T10:20:33.000Z</time>
      </trkpt>
      <trkpt lat="44.66139" lon="5.0461">
        <ele>936</ele>
        <time>2026-05-26T10:20:34.000Z</time>
      </trkpt>
      <trkpt lat="44.66139" lon="5.0461">
        <ele>936</ele>
        <time>2026-05-26T10:20:35.000Z</time>
      </trkpt>
      <trkpt lat="44.66139" lon="5.0461">
        <ele>936</ele>
        <time>2026-05-26T10:20:36.000Z</time>
      </trkpt>
      <trkpt lat="44.66139" lon="5.0461">
        <ele>936</ele>
        <time>2026-05-26T10:20:37.000Z</time>
      </trkpt>
      <trkpt lat="44.66139" lon="5.0461">
        <ele>936</ele>
        <time>2026-05-26T10:20:38.000Z</time>
      </trkpt>
      <trkpt lat="44.66139" lon="5.0461">
        <ele>936</ele>
        <time>2026-05-26T10:20:39.000Z</time>
      </trkpt>
      <trkpt lat="44.66139" lon="5.0461">
        <ele>936</ele>
        <time>2026-05-26T10:20:40.000Z</time>
      </trkpt>
      <trkpt lat="44.66139" lon="5.0461">
        <ele>936</ele>
        <time>2026-05-26T10:20:41.000Z</time>
      </trkpt>
      <trkpt lat="44.66139" lon="5.0461">
        <ele>936</ele>
        <time>2026-05-26T10:20:42.000Z</time>
      </trkpt>
      <trkpt lat="44.66139" lon="5.0461">
        <ele>936</ele>
        <time>2026-05-26T10:20:43.000Z</time>
      </trkpt>
      <trkpt lat="44.66139" lon="5.0461">
        <ele>936</ele>
        <time>2026-05-26T10:20:44.000Z</time>
      </trkpt>
      <trkpt lat="44.66139" lon="5.0461">
        <ele>936</ele>
        <time>2026-05-26T10:20:45.000Z</time>
      </trkpt>
      <trkpt lat="44.66139" lon="5.0461">
        <ele>936</ele>
        <time>2026-05-26T10:20:46.000Z</time>
      </trkpt>
      <trkpt lat="44.66139" lon="5.0461">
        <ele>936</ele>
        <time>2026-05-26T10:20:47.000Z</time>
      </trkpt>
      <trkpt lat="44.66139" lon="5.0461">
        <ele>936</ele>
        <time>2026-05-26T10:20:48.000Z</time>
      </trkpt>
      <trkpt lat="44.66139" lon="5.0461">
        <ele>936</ele>
        <time>2026-05-26T10:20:49.000Z</time>
      </trkpt>
      <trkpt lat="44.66139" lon="5.0461">
        <ele>936</ele>
        <time>2026-05-26T10:20:50.000Z</time>
      </trkpt>
      <trkpt lat="44.66139" lon="5.0461">
        <ele>936</ele>
        <time>2026-05-26T10:20:51.000Z</time>
      </trkpt>
      <trkpt lat="44.66139" lon="5.0461">
        <ele>936</ele>
        <time>2026-05-26T10:20:52.000Z</time>
      </trkpt>
      <trkpt lat="44.66139" lon="5.0461">
        <ele>936</ele>
        <time>2026-05-26T10:20:53.000Z</time>
      </trkpt>
      <trkpt lat="44.66139" lon="5.0461">
        <ele>936</ele>
        <time>2026-05-26T10:20:54.000Z</time>
      </trkpt>
      <trkpt lat="44.66139" lon="5.0461">
        <ele>936</ele>
        <time>2026-05-26T10:20:55.000Z</time>
      </trkpt>
      <trkpt lat="44.66139" lon="5.0461">
        <ele>936</ele>
        <time>2026-05-26T10:20:56.000Z</time>
      </trkpt>
      <trkpt lat="44.66139" lon="5.0461">
        <ele>936</ele>
        <time>2026-05-26T10:20:57.000Z</time>
      </trkpt>
      <trkpt lat="44.66139" lon="5.0461">
        <ele>936</ele>
        <time>2026-05-26T10:20:58.000Z</time>
      </trkpt>
      <trkpt lat="44.66139" lon="5.0461">
        <ele>936</ele>
        <time>2026-05-26T10:20:59.000Z</time>
      </trkpt>
      <trkpt lat="44.66139" lon="5.0461">
        <ele>936</ele>
        <time>2026-05-26T10:21:00.000Z</time>
      </trkpt>
      <trkpt lat="44.66139" lon="5.0461">
        <ele>936</ele>
        <time>2026-05-26T10:21:01.000Z</time>
      </trkpt>
      <trkpt lat="44.66139" lon="5.0461">
        <ele>936</ele>
        <time>2026-05-26T10:21:02.000Z</time>
      </trkpt>
      <trkpt lat="44.66139" lon="5.0461">
        <ele>936</ele>
        <time>2026-05-26T10:21:03.000Z</time>
      </trkpt>
      <trkpt lat="44.66139" lon="5.0461">
        <ele>936</ele>
        <time>2026-05-26T10:21:04.000Z</time>
      </trkpt>
      <trkpt lat="44.66139" lon="5.0461">
        <ele>936</ele>
        <time>2026-05-26T10:21:05.000Z</time>
      </trkpt>
      <trkpt lat="44.66139" lon="5.0461">
        <ele>936</ele>
        <time>2026-05-26T10:21:06.000Z</time>
      </trkpt>
      <trkpt lat="44.66139" lon="5.0461">
        <ele>936</ele>
        <time>2026-05-26T10:21:07.000Z</time>
      </trkpt>
      <trkpt lat="44.66139" lon="5.0461">
        <ele>936</ele>
        <time>2026-05-26T10:21:08.000Z</time>
      </trkpt>
      <trkpt lat="44.66139" lon="5.0461">
        <ele>936</ele>
        <time>2026-05-26T10:21:09.000Z</time>
      </trkpt>
      <trkpt lat="44.66139" lon="5.0461">
        <ele>936</ele>
        <time>2026-05-26T10:21:10.000Z</time>
      </trkpt>
      <trkpt lat="44.66139" lon="5.0461">
        <ele>936</ele>
        <time>2026-05-26T10:21:11.000Z</time>
      </trkpt>
      <trkpt lat="44.66139" lon="5.0461">
        <ele>936</ele>
        <time>2026-05-26T10:21:12.000Z</time>
      </trkpt>
      <trkpt lat="44.66139" lon="5.0461">
        <ele>936</ele>
        <time>2026-05-26T10:21:13.000Z</time>
      </trkpt>
      <trkpt lat="44.66139" lon="5.0461">
        <ele>936</ele>
        <time>2026-05-26T10:21:14.000Z</time>
      </trkpt>
      <trkpt lat="44.66139" lon="5.0461">
        <ele>936</ele>
        <time>2026-05-26T10:21:15.000Z</time>
      </trkpt>
      <trkpt lat="44.66139" lon="5.0461">
        <ele>936</ele>
        <time>2026-05-26T10:21:16.000Z</time>
      </trkpt>
      <trkpt lat="44.66139" lon="5.0461">
        <ele>937</ele>
        <time>2026-05-26T10:21:17.000Z</time>
      </trkpt>
      <trkpt lat="44.66139" lon="5.04611">
        <ele>937</ele>
        <time>2026-05-26T10:21:18.000Z</time>
      </trkpt>
      <trkpt lat="44.66139" lon="5.04612">
        <ele>937</ele>
        <time>2026-05-26T10:21:19.000Z</time>
      </trkpt>
      <trkpt lat="44.66139" lon="5.04612">
        <ele>936</ele>
        <time>2026-05-26T10:21:20.000Z</time>
      </trkpt>
      <trkpt lat="44.66139" lon="5.04613">
        <ele>936</ele>
        <time>2026-05-26T10:21:21.000Z</time>
      </trkpt>
      <trkpt lat="44.66139" lon="5.04613">
        <ele>936</ele>
        <time>2026-05-26T10:21:22.000Z</time>
      </trkpt>
      <trkpt lat="44.66139" lon="5.04613">
        <ele>936</ele>
        <time>2026-05-26T10:21:23.000Z</time>
      </trkpt>
      <trkpt lat="44.66139" lon="5.04613">
        <ele>936</ele>
        <time>2026-05-26T10:21:24.000Z</time>
      </trkpt>
      <trkpt lat="44.66139" lon="5.04613">
        <ele>936</ele>
        <time>2026-05-26T10:21:25.000Z</time>
      </trkpt>
      <trkpt lat="44.66139" lon="5.04613">
        <ele>936</ele>
        <time>2026-05-26T10:21:26.000Z</time>
      </trkpt>
      <trkpt lat="44.66139" lon="5.04613">
        <ele>936</ele>
        <time>2026-05-26T10:21:27.000Z</time>
      </trkpt>
      <trkpt lat="44.66139" lon="5.04613">
        <ele>936</ele>
        <time>2026-05-26T10:21:28.000Z</time>
      </trkpt>
      <trkpt lat="44.66139" lon="5.04613">
        <ele>936</ele>
        <time>2026-05-26T10:21:29.000Z</time>
      </trkpt>
      <trkpt lat="44.66138" lon="5.04612">
        <ele>936</ele>
        <time>2026-05-26T10:21:30.000Z</time>
      </trkpt>
      <trkpt lat="44.66137" lon="5.04612">
        <ele>936</ele>
        <time>2026-05-26T10:21:31.000Z</time>
      </trkpt>
      <trkpt lat="44.66135" lon="5.04612">
        <ele>936</ele>
        <time>2026-05-26T10:21:32.000Z</time>
      </trkpt>
      <trkpt lat="44.66136" lon="5.04613">
        <ele>938</ele>
        <time>2026-05-26T10:21:33.000Z</time>
      </trkpt>
      <trkpt lat="44.66137" lon="5.04613">
        <ele>938</ele>
        <time>2026-05-26T10:21:34.000Z</time>
      </trkpt>
      <trkpt lat="44.66137" lon="5.04613">
        <ele>938</ele>
        <time>2026-05-26T10:21:35.000Z</time>
      </trkpt>
      <trkpt lat="44.66137" lon="5.04612">
        <ele>939</ele>
        <time>2026-05-26T10:21:36.000Z</time>
      </trkpt>
      <trkpt lat="44.66137" lon="5.04612">
        <ele>940</ele>
        <time>2026-05-26T10:21:37.000Z</time>
      </trkpt>
      <trkpt lat="44.66138" lon="5.04614">
        <ele>939</ele>
        <time>2026-05-26T10:21:38.000Z</time>
      </trkpt>
      <trkpt lat="44.66138" lon="5.04614">
        <ele>939</ele>
        <time>2026-05-26T10:21:39.000Z</time>
      </trkpt>
      <trkpt lat="44.66137" lon="5.04616">
        <ele>938</ele>
        <time>2026-05-26T10:21:40.000Z</time>
      </trkpt>
      <trkpt lat="44.66138" lon="5.04617">
        <ele>938</ele>
        <time>2026-05-26T10:21:41.000Z</time>
      </trkpt>
      <trkpt lat="44.66138" lon="5.04618">
        <ele>938</ele>
        <time>2026-05-26T10:21:42.000Z</time>
      </trkpt>
      <trkpt lat="44.66139" lon="5.04619">
        <ele>939</ele>
        <time>2026-05-26T10:21:43.000Z</time>
      </trkpt>
      <trkpt lat="44.66139" lon="5.0462">
        <ele>938</ele>
        <time>2026-05-26T10:21:44.000Z</time>
      </trkpt>
      <trkpt lat="44.66139" lon="5.04621">
        <ele>938</ele>
        <time>2026-05-26T10:21:45.000Z</time>
      </trkpt>
      <trkpt lat="44.6614" lon="5.04623">
        <ele>938</ele>
        <time>2026-05-26T10:21:46.000Z</time>
      </trkpt>
      <trkpt lat="44.6614" lon="5.04624">
        <ele>937</ele>
        <time>2026-05-26T10:21:47.000Z</time>
      </trkpt>
      <trkpt lat="44.66141" lon="5.04625">
        <ele>937</ele>
        <time>2026-05-26T10:21:48.000Z</time>
      </trkpt>
      <trkpt lat="44.66141" lon="5.04625">
        <ele>937</ele>
        <time>2026-05-26T10:21:49.000Z</time>
      </trkpt>
      <trkpt lat="44.66142" lon="5.04625">
        <ele>936</ele>
        <time>2026-05-26T10:21:50.000Z</time>
      </trkpt>
      <trkpt lat="44.66142" lon="5.04626">
        <ele>936</ele>
        <time>2026-05-26T10:21:51.000Z</time>
      </trkpt>
      <trkpt lat="44.66143" lon="5.04626">
        <ele>936</ele>
        <time>2026-05-26T10:21:52.000Z</time>
      </trkpt>
      <trkpt lat="44.66144" lon="5.04627">
        <ele>935</ele>
        <time>2026-05-26T10:21:53.000Z</time>
      </trkpt>
      <trkpt lat="44.66144" lon="5.04627">
        <ele>935</ele>
        <time>2026-05-26T10:21:54.000Z</time>
      </trkpt>
      <trkpt lat="44.66144" lon="5.04627">
        <ele>935</ele>
        <time>2026-05-26T10:21:55.000Z</time>
      </trkpt>
      <trkpt lat="44.66145" lon="5.04627">
        <ele>935</ele>
        <time>2026-05-26T10:21:56.000Z</time>
      </trkpt>
      <trkpt lat="44.66145" lon="5.04627">
        <ele>935</ele>
        <time>2026-05-26T10:21:57.000Z</time>
      </trkpt>
      <trkpt lat="44.66146" lon="5.04628">
        <ele>934</ele>
        <time>2026-05-26T10:21:58.000Z</time>
      </trkpt>
      <trkpt lat="44.66147" lon="5.04629">
        <ele>934</ele>
        <time>2026-05-26T10:21:59.000Z</time>
      </trkpt>
      <trkpt lat="44.66147" lon="5.0463">
        <ele>934</ele>
        <time>2026-05-26T10:22:00.000Z</time>
      </trkpt>
      <trkpt lat="44.66148" lon="5.04631">
        <ele>935</ele>
        <time>2026-05-26T10:22:01.000Z</time>
      </trkpt>
      <trkpt lat="44.66147" lon="5.04633">
        <ele>934</ele>
        <time>2026-05-26T10:22:02.000Z</time>
      </trkpt>
      <trkpt lat="44.66147" lon="5.04634">
        <ele>933</ele>
        <time>2026-05-26T10:22:03.000Z</time>
      </trkpt>
      <trkpt lat="44.66147" lon="5.04634">
        <ele>934</ele>
        <time>2026-05-26T10:22:04.000Z</time>
      </trkpt>
      <trkpt lat="44.66147" lon="5.04635">
        <ele>934</ele>
        <time>2026-05-26T10:22:05.000Z</time>
      </trkpt>
      <trkpt lat="44.66147" lon="5.04637">
        <ele>933</ele>
        <time>2026-05-26T10:22:06.000Z</time>
      </trkpt>
      <trkpt lat="44.66147" lon="5.04638">
        <ele>932</ele>
        <time>2026-05-26T10:22:07.000Z</time>
      </trkpt>
      <trkpt lat="44.66146" lon="5.04639">
        <ele>932</ele>
        <time>2026-05-26T10:22:08.000Z</time>
      </trkpt>
      <trkpt lat="44.66145" lon="5.04641">
        <ele>931</ele>
        <time>2026-05-26T10:22:09.000Z</time>
      </trkpt>
      <trkpt lat="44.66145" lon="5.04642">
        <ele>930</ele>
        <time>2026-05-26T10:22:10.000Z</time>
      </trkpt>
      <trkpt lat="44.66146" lon="5.04643">
        <ele>929</ele>
        <time>2026-05-26T10:22:11.000Z</time>
      </trkpt>
      <trkpt lat="44.66146" lon="5.04643">
        <ele>929</ele>
        <time>2026-05-26T10:22:12.000Z</time>
      </trkpt>
      <trkpt lat="44.66147" lon="5.04644">
        <ele>929</ele>
        <time>2026-05-26T10:22:13.000Z</time>
      </trkpt>
      <trkpt lat="44.66147" lon="5.04645">
        <ele>929</ele>
        <time>2026-05-26T10:22:14.000Z</time>
      </trkpt>
      <trkpt lat="44.66148" lon="5.04645">
        <ele>929</ele>
        <time>2026-05-26T10:22:15.000Z</time>
      </trkpt>
      <trkpt lat="44.66149" lon="5.04646">
        <ele>929</ele>
        <time>2026-05-26T10:22:16.000Z</time>
      </trkpt>
      <trkpt lat="44.6615" lon="5.04647">
        <ele>929</ele>
        <time>2026-05-26T10:22:17.000Z</time>
      </trkpt>
      <trkpt lat="44.66151" lon="5.04648">
        <ele>929</ele>
        <time>2026-05-26T10:22:18.000Z</time>
      </trkpt>
      <trkpt lat="44.66152" lon="5.04648">
        <ele>929</ele>
        <time>2026-05-26T10:22:19.000Z</time>
      </trkpt>
      <trkpt lat="44.66153" lon="5.04648">
        <ele>929</ele>
        <time>2026-05-26T10:22:20.000Z</time>
      </trkpt>
      <trkpt lat="44.66153" lon="5.04649">
        <ele>928</ele>
        <time>2026-05-26T10:22:21.000Z</time>
      </trkpt>
      <trkpt lat="44.66154" lon="5.04648">
        <ele>928</ele>
        <time>2026-05-26T10:22:22.000Z</time>
      </trkpt>
      <trkpt lat="44.66155" lon="5.04649">
        <ele>928</ele>
        <time>2026-05-26T10:22:23.000Z</time>
      </trkpt>
      <trkpt lat="44.66156" lon="5.04648">
        <ele>929</ele>
        <time>2026-05-26T10:22:24.000Z</time>
      </trkpt>
      <trkpt lat="44.66157" lon="5.04648">
        <ele>929</ele>
        <time>2026-05-26T10:22:25.000Z</time>
      </trkpt>
      <trkpt lat="44.66157" lon="5.04649">
        <ele>928</ele>
        <time>2026-05-26T10:22:26.000Z</time>
      </trkpt>
      <trkpt lat="44.66158" lon="5.0465">
        <ele>929</ele>
        <time>2026-05-26T10:22:27.000Z</time>
      </trkpt>
      <trkpt lat="44.66159" lon="5.04651">
        <ele>928</ele>
        <time>2026-05-26T10:22:28.000Z</time>
      </trkpt>
      <trkpt lat="44.66161" lon="5.0465">
        <ele>928</ele>
        <time>2026-05-26T10:22:29.000Z</time>
      </trkpt>
      <trkpt lat="44.66161" lon="5.0465">
        <ele>928</ele>
        <time>2026-05-26T10:22:30.000Z</time>
      </trkpt>
      <trkpt lat="44.66162" lon="5.04649">
        <ele>927</ele>
        <time>2026-05-26T10:22:31.000Z</time>
      </trkpt>
      <trkpt lat="44.66163" lon="5.0465">
        <ele>928</ele>
        <time>2026-05-26T10:22:32.000Z</time>
      </trkpt>
      <trkpt lat="44.66164" lon="5.0465">
        <ele>928</ele>
        <time>2026-05-26T10:22:33.000Z</time>
      </trkpt>
      <trkpt lat="44.66165" lon="5.0465">
        <ele>927</ele>
        <time>2026-05-26T10:22:34.000Z</time>
      </trkpt>
      <trkpt lat="44.66166" lon="5.04651">
        <ele>927</ele>
        <time>2026-05-26T10:22:35.000Z</time>
      </trkpt>
      <trkpt lat="44.66166" lon="5.04652">
        <ele>926</ele>
        <time>2026-05-26T10:22:36.000Z</time>
      </trkpt>
      <trkpt lat="44.66167" lon="5.04652">
        <ele>928</ele>
        <time>2026-05-26T10:22:37.000Z</time>
      </trkpt>
      <trkpt lat="44.66168" lon="5.04652">
        <ele>927</ele>
        <time>2026-05-26T10:22:38.000Z</time>
      </trkpt>
      <trkpt lat="44.66169" lon="5.04652">
        <ele>926</ele>
        <time>2026-05-26T10:22:39.000Z</time>
      </trkpt>
      <trkpt lat="44.66169" lon="5.04653">
        <ele>926</ele>
        <time>2026-05-26T10:22:40.000Z</time>
      </trkpt>
      <trkpt lat="44.6617" lon="5.04654">
        <ele>926</ele>
        <time>2026-05-26T10:22:41.000Z</time>
      </trkpt>
      <trkpt lat="44.66171" lon="5.04654">
        <ele>926</ele>
        <time>2026-05-26T10:22:42.000Z</time>
      </trkpt>
      <trkpt lat="44.66173" lon="5.04653">
        <ele>926</ele>
        <time>2026-05-26T10:22:43.000Z</time>
      </trkpt>
      <trkpt lat="44.66174" lon="5.04653">
        <ele>926</ele>
        <time>2026-05-26T10:22:44.000Z</time>
      </trkpt>
      <trkpt lat="44.66176" lon="5.04653">
        <ele>925</ele>
        <time>2026-05-26T10:22:45.000Z</time>
      </trkpt>
      <trkpt lat="44.66177" lon="5.04653">
        <ele>925</ele>
        <time>2026-05-26T10:22:46.000Z</time>
      </trkpt>
      <trkpt lat="44.66177" lon="5.04652">
        <ele>924</ele>
        <time>2026-05-26T10:22:47.000Z</time>
      </trkpt>
      <trkpt lat="44.66178" lon="5.04652">
        <ele>924</ele>
        <time>2026-05-26T10:22:48.000Z</time>
      </trkpt>
      <trkpt lat="44.66179" lon="5.04652">
        <ele>924</ele>
        <time>2026-05-26T10:22:49.000Z</time>
      </trkpt>
      <trkpt lat="44.66179" lon="5.04652">
        <ele>924</ele>
        <time>2026-05-26T10:22:50.000Z</time>
      </trkpt>
      <trkpt lat="44.66179" lon="5.04652">
        <ele>924</ele>
        <time>2026-05-26T10:22:51.000Z</time>
      </trkpt>
      <trkpt lat="44.66179" lon="5.04652">
        <ele>924</ele>
        <time>2026-05-26T10:22:52.000Z</time>
      </trkpt>
      <trkpt lat="44.66179" lon="5.04652">
        <ele>924</ele>
        <time>2026-05-26T10:22:53.000Z</time>
      </trkpt>
      <trkpt lat="44.66179" lon="5.04652">
        <ele>924</ele>
        <time>2026-05-26T10:22:54.000Z</time>
      </trkpt>
      <trkpt lat="44.6618" lon="5.0465">
        <ele>923</ele>
        <time>2026-05-26T10:22:55.000Z</time>
      </trkpt>
      <trkpt lat="44.66181" lon="5.04651">
        <ele>924</ele>
        <time>2026-05-26T10:22:56.000Z</time>
      </trkpt>
      <trkpt lat="44.66181" lon="5.04651">
        <ele>924</ele>
        <time>2026-05-26T10:22:57.000Z</time>
      </trkpt>
      <trkpt lat="44.66182" lon="5.04651">
        <ele>924</ele>
        <time>2026-05-26T10:22:58.000Z</time>
      </trkpt>
      <trkpt lat="44.66182" lon="5.04651">
        <ele>924</ele>
        <time>2026-05-26T10:22:59.000Z</time>
      </trkpt>
      <trkpt lat="44.66182" lon="5.04651">
        <ele>924</ele>
        <time>2026-05-26T10:23:00.000Z</time>
      </trkpt>
      <trkpt lat="44.66184" lon="5.04649">
        <ele>923</ele>
        <time>2026-05-26T10:23:01.000Z</time>
      </trkpt>
      <trkpt lat="44.66184" lon="5.04649">
        <ele>923</ele>
        <time>2026-05-26T10:23:02.000Z</time>
      </trkpt>
      <trkpt lat="44.66183" lon="5.04649">
        <ele>922</ele>
        <time>2026-05-26T10:23:03.000Z</time>
      </trkpt>
      <trkpt lat="44.66182" lon="5.04649">
        <ele>923</ele>
        <time>2026-05-26T10:23:04.000Z</time>
      </trkpt>
      <trkpt lat="44.66182" lon="5.04649">
        <ele>923</ele>
        <time>2026-05-26T10:23:05.000Z</time>
      </trkpt>
      <trkpt lat="44.66182" lon="5.04649">
        <ele>923</ele>
        <time>2026-05-26T10:23:06.000Z</time>
      </trkpt>
      <trkpt lat="44.66182" lon="5.04649">
        <ele>922</ele>
        <time>2026-05-26T10:23:07.000Z</time>
      </trkpt>
      <trkpt lat="44.66182" lon="5.0465">
        <ele>922</ele>
        <time>2026-05-26T10:23:08.000Z</time>
      </trkpt>
      <trkpt lat="44.66182" lon="5.0465">
        <ele>922</ele>
        <time>2026-05-26T10:23:09.000Z</time>
      </trkpt>
      <trkpt lat="44.66182" lon="5.0465">
        <ele>922</ele>
        <time>2026-05-26T10:23:10.000Z</time>
      </trkpt>
      <trkpt lat="44.66182" lon="5.0465">
        <ele>922</ele>
        <time>2026-05-26T10:23:11.000Z</time>
      </trkpt>
      <trkpt lat="44.66182" lon="5.0465">
        <ele>922</ele>
        <time>2026-05-26T10:23:12.000Z</time>
      </trkpt>
      <trkpt lat="44.66182" lon="5.0465">
        <ele>922</ele>
        <time>2026-05-26T10:23:13.000Z</time>
      </trkpt>
      <trkpt lat="44.66182" lon="5.0465">
        <ele>922</ele>
        <time>2026-05-26T10:23:14.000Z</time>
      </trkpt>
      <trkpt lat="44.66182" lon="5.0465">
        <ele>922</ele>
        <time>2026-05-26T10:23:15.000Z</time>
      </trkpt>
      <trkpt lat="44.66182" lon="5.0465">
        <ele>922</ele>
        <time>2026-05-26T10:23:16.000Z</time>
      </trkpt>
      <trkpt lat="44.66182" lon="5.0465">
        <ele>922</ele>
        <time>2026-05-26T10:23:17.000Z</time>
      </trkpt>
      <trkpt lat="44.66182" lon="5.0465">
        <ele>922</ele>
        <time>2026-05-26T10:23:18.000Z</time>
      </trkpt>
      <trkpt lat="44.66182" lon="5.0465">
        <ele>922</ele>
        <time>2026-05-26T10:23:19.000Z</time>
      </trkpt>
      <trkpt lat="44.66182" lon="5.0465">
        <ele>922</ele>
        <time>2026-05-26T10:23:20.000Z</time>
      </trkpt>
      <trkpt lat="44.66182" lon="5.0465">
        <ele>922</ele>
        <time>2026-05-26T10:23:21.000Z</time>
      </trkpt>
      <trkpt lat="44.66182" lon="5.0465">
        <ele>922</ele>
        <time>2026-05-26T10:23:22.000Z</time>
      </trkpt>
      <trkpt lat="44.66182" lon="5.0465">
        <ele>922</ele>
        <time>2026-05-26T10:23:23.000Z</time>
      </trkpt>
      <trkpt lat="44.66182" lon="5.0465">
        <ele>922</ele>
        <time>2026-05-26T10:23:24.000Z</time>
      </trkpt>
      <trkpt lat="44.66182" lon="5.04654">
        <ele>922</ele>
        <time>2026-05-26T10:23:25.000Z</time>
      </trkpt>
      <trkpt lat="44.66183" lon="5.04654">
        <ele>921</ele>
        <time>2026-05-26T10:23:26.000Z</time>
      </trkpt>
      <trkpt lat="44.66183" lon="5.04654">
        <ele>921</ele>
        <time>2026-05-26T10:23:27.000Z</time>
      </trkpt>
      <trkpt lat="44.66184" lon="5.04654">
        <ele>921</ele>
        <time>2026-05-26T10:23:28.000Z</time>
      </trkpt>
      <trkpt lat="44.66185" lon="5.04655">
        <ele>922</ele>
        <time>2026-05-26T10:23:29.000Z</time>
      </trkpt>
      <trkpt lat="44.66186" lon="5.04654">
        <ele>921</ele>
        <time>2026-05-26T10:23:30.000Z</time>
      </trkpt>
      <trkpt lat="44.66187" lon="5.04654">
        <ele>922</ele>
        <time>2026-05-26T10:23:31.000Z</time>
      </trkpt>
      <trkpt lat="44.66187" lon="5.04654">
        <ele>923</ele>
        <time>2026-05-26T10:23:32.000Z</time>
      </trkpt>
      <trkpt lat="44.66188" lon="5.04653">
        <ele>924</ele>
        <time>2026-05-26T10:23:33.000Z</time>
      </trkpt>
      <trkpt lat="44.66189" lon="5.04653">
        <ele>924</ele>
        <time>2026-05-26T10:23:34.000Z</time>
      </trkpt>
      <trkpt lat="44.66189" lon="5.04653">
        <ele>924</ele>
        <time>2026-05-26T10:23:35.000Z</time>
      </trkpt>
      <trkpt lat="44.6619" lon="5.04653">
        <ele>924</ele>
        <time>2026-05-26T10:23:36.000Z</time>
      </trkpt>
      <trkpt lat="44.66192" lon="5.04653">
        <ele>924</ele>
        <time>2026-05-26T10:23:37.000Z</time>
      </trkpt>
      <trkpt lat="44.66193" lon="5.04653">
        <ele>923</ele>
        <time>2026-05-26T10:23:38.000Z</time>
      </trkpt>
      <trkpt lat="44.66193" lon="5.04653">
        <ele>924</ele>
        <time>2026-05-26T10:23:39.000Z</time>
      </trkpt>
      <trkpt lat="44.66195" lon="5.04655">
        <ele>923</ele>
        <time>2026-05-26T10:23:40.000Z</time>
      </trkpt>
      <trkpt lat="44.66196" lon="5.04655">
        <ele>923</ele>
        <time>2026-05-26T10:23:41.000Z</time>
      </trkpt>
      <trkpt lat="44.66197" lon="5.04655">
        <ele>922</ele>
        <time>2026-05-26T10:23:42.000Z</time>
      </trkpt>
      <trkpt lat="44.66198" lon="5.04655">
        <ele>921</ele>
        <time>2026-05-26T10:23:43.000Z</time>
      </trkpt>
      <trkpt lat="44.66199" lon="5.04656">
        <ele>921</ele>
        <time>2026-05-26T10:23:44.000Z</time>
      </trkpt>
      <trkpt lat="44.66199" lon="5.04656">
        <ele>921</ele>
        <time>2026-05-26T10:23:45.000Z</time>
      </trkpt>
      <trkpt lat="44.662" lon="5.04656">
        <ele>921</ele>
        <time>2026-05-26T10:23:46.000Z</time>
      </trkpt>
      <trkpt lat="44.66201" lon="5.04656">
        <ele>922</ele>
        <time>2026-05-26T10:23:47.000Z</time>
      </trkpt>
      <trkpt lat="44.66201" lon="5.04657">
        <ele>921</ele>
        <time>2026-05-26T10:23:48.000Z</time>
      </trkpt>
      <trkpt lat="44.66202" lon="5.04658">
        <ele>921</ele>
        <time>2026-05-26T10:23:49.000Z</time>
      </trkpt>
      <trkpt lat="44.66203" lon="5.04658">
        <ele>921</ele>
        <time>2026-05-26T10:23:50.000Z</time>
      </trkpt>
      <trkpt lat="44.66203" lon="5.04659">
        <ele>921</ele>
        <time>2026-05-26T10:23:51.000Z</time>
      </trkpt>
      <trkpt lat="44.66204" lon="5.04659">
        <ele>921</ele>
        <time>2026-05-26T10:23:52.000Z</time>
      </trkpt>
      <trkpt lat="44.66205" lon="5.04659">
        <ele>920</ele>
        <time>2026-05-26T10:23:53.000Z</time>
      </trkpt>
      <trkpt lat="44.66206" lon="5.04659">
        <ele>920</ele>
        <time>2026-05-26T10:23:54.000Z</time>
      </trkpt>
      <trkpt lat="44.66206" lon="5.0466">
        <ele>920</ele>
        <time>2026-05-26T10:23:55.000Z</time>
      </trkpt>
      <trkpt lat="44.66206" lon="5.0466">
        <ele>920</ele>
        <time>2026-05-26T10:23:56.000Z</time>
      </trkpt>
      <trkpt lat="44.66207" lon="5.0466">
        <ele>919</ele>
        <time>2026-05-26T10:23:57.000Z</time>
      </trkpt>
      <trkpt lat="44.66208" lon="5.04661">
        <ele>919</ele>
        <time>2026-05-26T10:23:58.000Z</time>
      </trkpt>
      <trkpt lat="44.66208" lon="5.04661">
        <ele>919</ele>
        <time>2026-05-26T10:23:59.000Z</time>
      </trkpt>
      <trkpt lat="44.66209" lon="5.04661">
        <ele>919</ele>
        <time>2026-05-26T10:24:00.000Z</time>
      </trkpt>
      <trkpt lat="44.6621" lon="5.04661">
        <ele>919</ele>
        <time>2026-05-26T10:24:01.000Z</time>
      </trkpt>
      <trkpt lat="44.6621" lon="5.04661">
        <ele>918</ele>
        <time>2026-05-26T10:24:02.000Z</time>
      </trkpt>
      <trkpt lat="44.66211" lon="5.04661">
        <ele>918</ele>
        <time>2026-05-26T10:24:03.000Z</time>
      </trkpt>
      <trkpt lat="44.66212" lon="5.04662">
        <ele>918</ele>
        <time>2026-05-26T10:24:04.000Z</time>
      </trkpt>
      <trkpt lat="44.66213" lon="5.04662">
        <ele>918</ele>
        <time>2026-05-26T10:24:05.000Z</time>
      </trkpt>
      <trkpt lat="44.66213" lon="5.04663">
        <ele>918</ele>
        <time>2026-05-26T10:24:06.000Z</time>
      </trkpt>
      <trkpt lat="44.66214" lon="5.04664">
        <ele>918</ele>
        <time>2026-05-26T10:24:07.000Z</time>
      </trkpt>
      <trkpt lat="44.66214" lon="5.04664">
        <ele>918</ele>
        <time>2026-05-26T10:24:08.000Z</time>
      </trkpt>
      <trkpt lat="44.66214" lon="5.04664">
        <ele>917</ele>
        <time>2026-05-26T10:24:09.000Z</time>
      </trkpt>
      <trkpt lat="44.66215" lon="5.04665">
        <ele>918</ele>
        <time>2026-05-26T10:24:10.000Z</time>
      </trkpt>
      <trkpt lat="44.66215" lon="5.04665">
        <ele>918</ele>
        <time>2026-05-26T10:24:11.000Z</time>
      </trkpt>
      <trkpt lat="44.66216" lon="5.04665">
        <ele>918</ele>
        <time>2026-05-26T10:24:12.000Z</time>
      </trkpt>
      <trkpt lat="44.66217" lon="5.04664">
        <ele>917</ele>
        <time>2026-05-26T10:24:13.000Z</time>
      </trkpt>
      <trkpt lat="44.66218" lon="5.04665">
        <ele>917</ele>
        <time>2026-05-26T10:24:14.000Z</time>
      </trkpt>
      <trkpt lat="44.66218" lon="5.04665">
        <ele>917</ele>
        <time>2026-05-26T10:24:15.000Z</time>
      </trkpt>
      <trkpt lat="44.66218" lon="5.04665">
        <ele>917</ele>
        <time>2026-05-26T10:24:16.000Z</time>
      </trkpt>
      <trkpt lat="44.66219" lon="5.04666">
        <ele>917</ele>
        <time>2026-05-26T10:24:17.000Z</time>
      </trkpt>
      <trkpt lat="44.6622" lon="5.04666">
        <ele>916</ele>
        <time>2026-05-26T10:24:18.000Z</time>
      </trkpt>
      <trkpt lat="44.6622" lon="5.04667">
        <ele>915</ele>
        <time>2026-05-26T10:24:19.000Z</time>
      </trkpt>
      <trkpt lat="44.6622" lon="5.04668">
        <ele>915</ele>
        <time>2026-05-26T10:24:20.000Z</time>
      </trkpt>
      <trkpt lat="44.66221" lon="5.04668">
        <ele>914</ele>
        <time>2026-05-26T10:24:21.000Z</time>
      </trkpt>
      <trkpt lat="44.66222" lon="5.04669">
        <ele>914</ele>
        <time>2026-05-26T10:24:22.000Z</time>
      </trkpt>
      <trkpt lat="44.66223" lon="5.04669">
        <ele>914</ele>
        <time>2026-05-26T10:24:23.000Z</time>
      </trkpt>
      <trkpt lat="44.66223" lon="5.04669">
        <ele>914</ele>
        <time>2026-05-26T10:24:24.000Z</time>
      </trkpt>
      <trkpt lat="44.66222" lon="5.0467">
        <ele>914</ele>
        <time>2026-05-26T10:24:25.000Z</time>
      </trkpt>
      <trkpt lat="44.66223" lon="5.0467">
        <ele>914</ele>
        <time>2026-05-26T10:24:26.000Z</time>
      </trkpt>
      <trkpt lat="44.66223" lon="5.04671">
        <ele>914</ele>
        <time>2026-05-26T10:24:27.000Z</time>
      </trkpt>
      <trkpt lat="44.66223" lon="5.04672">
        <ele>913</ele>
        <time>2026-05-26T10:24:28.000Z</time>
      </trkpt>
      <trkpt lat="44.66223" lon="5.04672">
        <ele>913</ele>
        <time>2026-05-26T10:24:29.000Z</time>
      </trkpt>
      <trkpt lat="44.66223" lon="5.04672">
        <ele>913</ele>
        <time>2026-05-26T10:24:30.000Z</time>
      </trkpt>
      <trkpt lat="44.66223" lon="5.04675">
        <ele>913</ele>
        <time>2026-05-26T10:24:31.000Z</time>
      </trkpt>
      <trkpt lat="44.66224" lon="5.04676">
        <ele>913</ele>
        <time>2026-05-26T10:24:32.000Z</time>
      </trkpt>
      <trkpt lat="44.66225" lon="5.04676">
        <ele>912</ele>
        <time>2026-05-26T10:24:33.000Z</time>
      </trkpt>
      <trkpt lat="44.66226" lon="5.04676">
        <ele>912</ele>
        <time>2026-05-26T10:24:34.000Z</time>
      </trkpt>
      <trkpt lat="44.66227" lon="5.04677">
        <ele>911</ele>
        <time>2026-05-26T10:24:35.000Z</time>
      </trkpt>
      <trkpt lat="44.66227" lon="5.04678">
        <ele>912</ele>
        <time>2026-05-26T10:24:36.000Z</time>
      </trkpt>
      <trkpt lat="44.66228" lon="5.0468">
        <ele>912</ele>
        <time>2026-05-26T10:24:37.000Z</time>
      </trkpt>
      <trkpt lat="44.66229" lon="5.0468">
        <ele>912</ele>
        <time>2026-05-26T10:24:38.000Z</time>
      </trkpt>
      <trkpt lat="44.66229" lon="5.04679">
        <ele>911</ele>
        <time>2026-05-26T10:24:39.000Z</time>
      </trkpt>
      <trkpt lat="44.66229" lon="5.04679">
        <ele>911</ele>
        <time>2026-05-26T10:24:40.000Z</time>
      </trkpt>
      <trkpt lat="44.6623" lon="5.0468">
        <ele>912</ele>
        <time>2026-05-26T10:24:41.000Z</time>
      </trkpt>
      <trkpt lat="44.66231" lon="5.0468">
        <ele>913</ele>
        <time>2026-05-26T10:24:42.000Z</time>
      </trkpt>
      <trkpt lat="44.66232" lon="5.0468">
        <ele>912</ele>
        <time>2026-05-26T10:24:43.000Z</time>
      </trkpt>
      <trkpt lat="44.66233" lon="5.04679">
        <ele>911</ele>
        <time>2026-05-26T10:24:44.000Z</time>
      </trkpt>
      <trkpt lat="44.66235" lon="5.04678">
        <ele>911</ele>
        <time>2026-05-26T10:24:45.000Z</time>
      </trkpt>
      <trkpt lat="44.66236" lon="5.04679">
        <ele>911</ele>
        <time>2026-05-26T10:24:46.000Z</time>
      </trkpt>
      <trkpt lat="44.66236" lon="5.0468">
        <ele>911</ele>
        <time>2026-05-26T10:24:47.000Z</time>
      </trkpt>
      <trkpt lat="44.66237" lon="5.04681">
        <ele>911</ele>
        <time>2026-05-26T10:24:48.000Z</time>
      </trkpt>
      <trkpt lat="44.66238" lon="5.04682">
        <ele>912</ele>
        <time>2026-05-26T10:24:49.000Z</time>
      </trkpt>
      <trkpt lat="44.66239" lon="5.04682">
        <ele>912</ele>
        <time>2026-05-26T10:24:50.000Z</time>
      </trkpt>
      <trkpt lat="44.6624" lon="5.04682">
        <ele>912</ele>
        <time>2026-05-26T10:24:51.000Z</time>
      </trkpt>
      <trkpt lat="44.6624" lon="5.04681">
        <ele>912</ele>
        <time>2026-05-26T10:24:52.000Z</time>
      </trkpt>
      <trkpt lat="44.6624" lon="5.0468">
        <ele>913</ele>
        <time>2026-05-26T10:24:53.000Z</time>
      </trkpt>
      <trkpt lat="44.66241" lon="5.04679">
        <ele>913</ele>
        <time>2026-05-26T10:24:54.000Z</time>
      </trkpt>
      <trkpt lat="44.66242" lon="5.04679">
        <ele>912</ele>
        <time>2026-05-26T10:24:55.000Z</time>
      </trkpt>
      <trkpt lat="44.66243" lon="5.0468">
        <ele>913</ele>
        <time>2026-05-26T10:24:56.000Z</time>
      </trkpt>
      <trkpt lat="44.66244" lon="5.0468">
        <ele>912</ele>
        <time>2026-05-26T10:24:57.000Z</time>
      </trkpt>
      <trkpt lat="44.66245" lon="5.0468">
        <ele>912</ele>
        <time>2026-05-26T10:24:58.000Z</time>
      </trkpt>
      <trkpt lat="44.66247" lon="5.0468">
        <ele>910</ele>
        <time>2026-05-26T10:24:59.000Z</time>
      </trkpt>
      <trkpt lat="44.66247" lon="5.0468">
        <ele>910</ele>
        <time>2026-05-26T10:25:00.000Z</time>
      </trkpt>
      <trkpt lat="44.66247" lon="5.0468">
        <ele>910</ele>
        <time>2026-05-26T10:25:01.000Z</time>
      </trkpt>
      <trkpt lat="44.66247" lon="5.0468">
        <ele>910</ele>
        <time>2026-05-26T10:25:02.000Z</time>
      </trkpt>
      <trkpt lat="44.66247" lon="5.0468">
        <ele>910</ele>
        <time>2026-05-26T10:25:03.000Z</time>
      </trkpt>
      <trkpt lat="44.66245" lon="5.04682">
        <ele>909</ele>
        <time>2026-05-26T10:25:04.000Z</time>
      </trkpt>
      <trkpt lat="44.66245" lon="5.04682">
        <ele>911</ele>
        <time>2026-05-26T10:25:05.000Z</time>
      </trkpt>
      <trkpt lat="44.66246" lon="5.04682">
        <ele>911</ele>
        <time>2026-05-26T10:25:06.000Z</time>
      </trkpt>
      <trkpt lat="44.66246" lon="5.04682">
        <ele>912</ele>
        <time>2026-05-26T10:25:07.000Z</time>
      </trkpt>
      <trkpt lat="44.66247" lon="5.04683">
        <ele>912</ele>
        <time>2026-05-26T10:25:08.000Z</time>
      </trkpt>
      <trkpt lat="44.66248" lon="5.04683">
        <ele>912</ele>
        <time>2026-05-26T10:25:09.000Z</time>
      </trkpt>
      <trkpt lat="44.66249" lon="5.04682">
        <ele>910</ele>
        <time>2026-05-26T10:25:10.000Z</time>
      </trkpt>
      <trkpt lat="44.66249" lon="5.04681">
        <ele>908</ele>
        <time>2026-05-26T10:25:11.000Z</time>
      </trkpt>
      <trkpt lat="44.6625" lon="5.0468">
        <ele>907</ele>
        <time>2026-05-26T10:25:12.000Z</time>
      </trkpt>
      <trkpt lat="44.66249" lon="5.04679">
        <ele>907</ele>
        <time>2026-05-26T10:25:13.000Z</time>
      </trkpt>
      <trkpt lat="44.6625" lon="5.04677">
        <ele>907</ele>
        <time>2026-05-26T10:25:14.000Z</time>
      </trkpt>
      <trkpt lat="44.66249" lon="5.04676">
        <ele>907</ele>
        <time>2026-05-26T10:25:15.000Z</time>
      </trkpt>
      <trkpt lat="44.66248" lon="5.04676">
        <ele>908</ele>
        <time>2026-05-26T10:25:16.000Z</time>
      </trkpt>
      <trkpt lat="44.66248" lon="5.04675">
        <ele>911</ele>
        <time>2026-05-26T10:25:17.000Z</time>
      </trkpt>
      <trkpt lat="44.66249" lon="5.04676">
        <ele>910</ele>
        <time>2026-05-26T10:25:18.000Z</time>
      </trkpt>
      <trkpt lat="44.66249" lon="5.04676">
        <ele>910</ele>
        <time>2026-05-26T10:25:19.000Z</time>
      </trkpt>
      <trkpt lat="44.66249" lon="5.04676">
        <ele>910</ele>
        <time>2026-05-26T10:25:20.000Z</time>
      </trkpt>
      <trkpt lat="44.66249" lon="5.04676">
        <ele>910</ele>
        <time>2026-05-26T10:25:21.000Z</time>
      </trkpt>
      <trkpt lat="44.66249" lon="5.04676">
        <ele>910</ele>
        <time>2026-05-26T10:25:22.000Z</time>
      </trkpt>
      <trkpt lat="44.66249" lon="5.04676">
        <ele>910</ele>
        <time>2026-05-26T10:25:23.000Z</time>
      </trkpt>
      <trkpt lat="44.66248" lon="5.04677">
        <ele>910</ele>
        <time>2026-05-26T10:25:24.000Z</time>
      </trkpt>
      <trkpt lat="44.66248" lon="5.04677">
        <ele>910</ele>
        <time>2026-05-26T10:25:25.000Z</time>
      </trkpt>
      <trkpt lat="44.66249" lon="5.04677">
        <ele>910</ele>
        <time>2026-05-26T10:25:26.000Z</time>
      </trkpt>
      <trkpt lat="44.66249" lon="5.04677">
        <ele>910</ele>
        <time>2026-05-26T10:25:27.000Z</time>
      </trkpt>
      <trkpt lat="44.66249" lon="5.04677">
        <ele>910</ele>
        <time>2026-05-26T10:25:28.000Z</time>
      </trkpt>
      <trkpt lat="44.66249" lon="5.04677">
        <ele>910</ele>
        <time>2026-05-26T10:25:29.000Z</time>
      </trkpt>
      <trkpt lat="44.66249" lon="5.0468">
        <ele>909</ele>
        <time>2026-05-26T10:25:30.000Z</time>
      </trkpt>
      <trkpt lat="44.66249" lon="5.04681">
        <ele>909</ele>
        <time>2026-05-26T10:25:31.000Z</time>
      </trkpt>
      <trkpt lat="44.66249" lon="5.04682">
        <ele>909</ele>
        <time>2026-05-26T10:25:32.000Z</time>
      </trkpt>
      <trkpt lat="44.66249" lon="5.04681">
        <ele>909</ele>
        <time>2026-05-26T10:25:33.000Z</time>
      </trkpt>
      <trkpt lat="44.66249" lon="5.04682">
        <ele>909</ele>
        <time>2026-05-26T10:25:34.000Z</time>
      </trkpt>
      <trkpt lat="44.6625" lon="5.04682">
        <ele>909</ele>
        <time>2026-05-26T10:25:35.000Z</time>
      </trkpt>
      <trkpt lat="44.6625" lon="5.04682">
        <ele>908</ele>
        <time>2026-05-26T10:25:36.000Z</time>
      </trkpt>
      <trkpt lat="44.66252" lon="5.0468">
        <ele>910</ele>
        <time>2026-05-26T10:25:37.000Z</time>
      </trkpt>
      <trkpt lat="44.66253" lon="5.04679">
        <ele>909</ele>
        <time>2026-05-26T10:25:38.000Z</time>
      </trkpt>
      <trkpt lat="44.66254" lon="5.04679">
        <ele>909</ele>
        <time>2026-05-26T10:25:39.000Z</time>
      </trkpt>
      <trkpt lat="44.66255" lon="5.0468">
        <ele>908</ele>
        <time>2026-05-26T10:25:40.000Z</time>
      </trkpt>
      <trkpt lat="44.66255" lon="5.0468">
        <ele>907</ele>
        <time>2026-05-26T10:25:41.000Z</time>
      </trkpt>
      <trkpt lat="44.66257" lon="5.0468">
        <ele>907</ele>
        <time>2026-05-26T10:25:42.000Z</time>
      </trkpt>
      <trkpt lat="44.66257" lon="5.04677">
        <ele>906</ele>
        <time>2026-05-26T10:25:43.000Z</time>
      </trkpt>
      <trkpt lat="44.66258" lon="5.04676">
        <ele>905</ele>
        <time>2026-05-26T10:25:44.000Z</time>
      </trkpt>
      <trkpt lat="44.66257" lon="5.04676">
        <ele>907</ele>
        <time>2026-05-26T10:25:45.000Z</time>
      </trkpt>
      <trkpt lat="44.66257" lon="5.04675">
        <ele>908</ele>
        <time>2026-05-26T10:25:46.000Z</time>
      </trkpt>
      <trkpt lat="44.66257" lon="5.04676">
        <ele>908</ele>
        <time>2026-05-26T10:25:47.000Z</time>
      </trkpt>
      <trkpt lat="44.66257" lon="5.04676">
        <ele>908</ele>
        <time>2026-05-26T10:25:48.000Z</time>
      </trkpt>
      <trkpt lat="44.66257" lon="5.04676">
        <ele>908</ele>
        <time>2026-05-26T10:25:49.000Z</time>
      </trkpt>
      <trkpt lat="44.66258" lon="5.04675">
        <ele>907</ele>
        <time>2026-05-26T10:25:50.000Z</time>
      </trkpt>
      <trkpt lat="44.6626" lon="5.04675">
        <ele>907</ele>
        <time>2026-05-26T10:25:51.000Z</time>
      </trkpt>
      <trkpt lat="44.6626" lon="5.04676">
        <ele>907</ele>
        <time>2026-05-26T10:25:52.000Z</time>
      </trkpt>
      <trkpt lat="44.66261" lon="5.04674">
        <ele>906</ele>
        <time>2026-05-26T10:25:53.000Z</time>
      </trkpt>
      <trkpt lat="44.66261" lon="5.04675">
        <ele>907</ele>
        <time>2026-05-26T10:25:54.000Z</time>
      </trkpt>
      <trkpt lat="44.66262" lon="5.04676">
        <ele>908</ele>
        <time>2026-05-26T10:25:55.000Z</time>
      </trkpt>
      <trkpt lat="44.66264" lon="5.04677">
        <ele>909</ele>
        <time>2026-05-26T10:25:56.000Z</time>
      </trkpt>
      <trkpt lat="44.66265" lon="5.04678">
        <ele>909</ele>
        <time>2026-05-26T10:25:57.000Z</time>
      </trkpt>
      <trkpt lat="44.66268" lon="5.04679">
        <ele>910</ele>
        <time>2026-05-26T10:25:58.000Z</time>
      </trkpt>
      <trkpt lat="44.66269" lon="5.04678">
        <ele>911</ele>
        <time>2026-05-26T10:25:59.000Z</time>
      </trkpt>
      <trkpt lat="44.6627" lon="5.04679">
        <ele>911</ele>
        <time>2026-05-26T10:26:00.000Z</time>
      </trkpt>
      <trkpt lat="44.66271" lon="5.04678">
        <ele>912</ele>
        <time>2026-05-26T10:26:01.000Z</time>
      </trkpt>
      <trkpt lat="44.66271" lon="5.04678">
        <ele>912</ele>
        <time>2026-05-26T10:26:02.000Z</time>
      </trkpt>
      <trkpt lat="44.66272" lon="5.04678">
        <ele>912</ele>
        <time>2026-05-26T10:26:03.000Z</time>
      </trkpt>
      <trkpt lat="44.66273" lon="5.04677">
        <ele>911</ele>
        <time>2026-05-26T10:26:04.000Z</time>
      </trkpt>
      <trkpt lat="44.66273" lon="5.04676">
        <ele>912</ele>
        <time>2026-05-26T10:26:05.000Z</time>
      </trkpt>
      <trkpt lat="44.66273" lon="5.04677">
        <ele>914</ele>
        <time>2026-05-26T10:26:06.000Z</time>
      </trkpt>
      <trkpt lat="44.66274" lon="5.04675">
        <ele>913</ele>
        <time>2026-05-26T10:26:07.000Z</time>
      </trkpt>
      <trkpt lat="44.66274" lon="5.04673">
        <ele>913</ele>
        <time>2026-05-26T10:26:08.000Z</time>
      </trkpt>
      <trkpt lat="44.66274" lon="5.04672">
        <ele>912</ele>
        <time>2026-05-26T10:26:09.000Z</time>
      </trkpt>
      <trkpt lat="44.66274" lon="5.04672">
        <ele>912</ele>
        <time>2026-05-26T10:26:10.000Z</time>
      </trkpt>
      <trkpt lat="44.66274" lon="5.04672">
        <ele>912</ele>
        <time>2026-05-26T10:26:11.000Z</time>
      </trkpt>
      <trkpt lat="44.66274" lon="5.04672">
        <ele>913</ele>
        <time>2026-05-26T10:26:12.000Z</time>
      </trkpt>
      <trkpt lat="44.66274" lon="5.04672">
        <ele>913</ele>
        <time>2026-05-26T10:26:13.000Z</time>
      </trkpt>
      <trkpt lat="44.66274" lon="5.04672">
        <ele>913</ele>
        <time>2026-05-26T10:26:14.000Z</time>
      </trkpt>
      <trkpt lat="44.66274" lon="5.04672">
        <ele>913</ele>
        <time>2026-05-26T10:26:15.000Z</time>
      </trkpt>
      <trkpt lat="44.66274" lon="5.04672">
        <ele>913</ele>
        <time>2026-05-26T10:26:16.000Z</time>
      </trkpt>
      <trkpt lat="44.66274" lon="5.04672">
        <ele>913</ele>
        <time>2026-05-26T10:26:17.000Z</time>
      </trkpt>
      <trkpt lat="44.66274" lon="5.04672">
        <ele>913</ele>
        <time>2026-05-26T10:26:18.000Z</time>
      </trkpt>
      <trkpt lat="44.66274" lon="5.04672">
        <ele>913</ele>
        <time>2026-05-26T10:26:19.000Z</time>
      </trkpt>
      <trkpt lat="44.66274" lon="5.04672">
        <ele>913</ele>
        <time>2026-05-26T10:26:20.000Z</time>
      </trkpt>
      <trkpt lat="44.66274" lon="5.04672">
        <ele>913</ele>
        <time>2026-05-26T10:26:21.000Z</time>
      </trkpt>
      <trkpt lat="44.66274" lon="5.04672">
        <ele>913</ele>
        <time>2026-05-26T10:26:22.000Z</time>
      </trkpt>
      <trkpt lat="44.66274" lon="5.04672">
        <ele>913</ele>
        <time>2026-05-26T10:26:23.000Z</time>
      </trkpt>
      <trkpt lat="44.66274" lon="5.04672">
        <ele>913</ele>
        <time>2026-05-26T10:26:24.000Z</time>
      </trkpt>
      <trkpt lat="44.66274" lon="5.04672">
        <ele>913</ele>
        <time>2026-05-26T10:26:25.000Z</time>
      </trkpt>
      <trkpt lat="44.66274" lon="5.04672">
        <ele>913</ele>
        <time>2026-05-26T10:26:26.000Z</time>
      </trkpt>
      <trkpt lat="44.66274" lon="5.04672">
        <ele>913</ele>
        <time>2026-05-26T10:26:27.000Z</time>
      </trkpt>
      <trkpt lat="44.66274" lon="5.04672">
        <ele>913</ele>
        <time>2026-05-26T10:26:28.000Z</time>
      </trkpt>
      <trkpt lat="44.66274" lon="5.04672">
        <ele>913</ele>
        <time>2026-05-26T10:26:29.000Z</time>
      </trkpt>
      <trkpt lat="44.66274" lon="5.04672">
        <ele>913</ele>
        <time>2026-05-26T10:26:30.000Z</time>
      </trkpt>
      <trkpt lat="44.66274" lon="5.04672">
        <ele>913</ele>
        <time>2026-05-26T10:26:31.000Z</time>
      </trkpt>
      <trkpt lat="44.66274" lon="5.04672">
        <ele>913</ele>
        <time>2026-05-26T10:26:32.000Z</time>
      </trkpt>
      <trkpt lat="44.66274" lon="5.04674">
        <ele>914</ele>
        <time>2026-05-26T10:26:33.000Z</time>
      </trkpt>
      <trkpt lat="44.66275" lon="5.04675">
        <ele>914</ele>
        <time>2026-05-26T10:26:34.000Z</time>
      </trkpt>
      <trkpt lat="44.66276" lon="5.04675">
        <ele>914</ele>
        <time>2026-05-26T10:26:35.000Z</time>
      </trkpt>
      <trkpt lat="44.66276" lon="5.04675">
        <ele>913</ele>
        <time>2026-05-26T10:26:36.000Z</time>
      </trkpt>
      <trkpt lat="44.66277" lon="5.04675">
        <ele>912</ele>
        <time>2026-05-26T10:26:37.000Z</time>
      </trkpt>
      <trkpt lat="44.66278" lon="5.04675">
        <ele>913</ele>
        <time>2026-05-26T10:26:38.000Z</time>
      </trkpt>
      <trkpt lat="44.66279" lon="5.04676">
        <ele>913</ele>
        <time>2026-05-26T10:26:39.000Z</time>
      </trkpt>
      <trkpt lat="44.6628" lon="5.04676">
        <ele>913</ele>
        <time>2026-05-26T10:26:40.000Z</time>
      </trkpt>
      <trkpt lat="44.66282" lon="5.04675">
        <ele>914</ele>
        <time>2026-05-26T10:26:41.000Z</time>
      </trkpt>
      <trkpt lat="44.66283" lon="5.04675">
        <ele>914</ele>
        <time>2026-05-26T10:26:42.000Z</time>
      </trkpt>
      <trkpt lat="44.66284" lon="5.04676">
        <ele>914</ele>
        <time>2026-05-26T10:26:43.000Z</time>
      </trkpt>
      <trkpt lat="44.66284" lon="5.04677">
        <ele>914</ele>
        <time>2026-05-26T10:26:44.000Z</time>
      </trkpt>
      <trkpt lat="44.66285" lon="5.04674">
        <ele>913</ele>
        <time>2026-05-26T10:26:45.000Z</time>
      </trkpt>
      <trkpt lat="44.66286" lon="5.04674">
        <ele>913</ele>
        <time>2026-05-26T10:26:46.000Z</time>
      </trkpt>
      <trkpt lat="44.66286" lon="5.04674">
        <ele>913</ele>
        <time>2026-05-26T10:26:47.000Z</time>
      </trkpt>
      <trkpt lat="44.66286" lon="5.04675">
        <ele>912</ele>
        <time>2026-05-26T10:26:48.000Z</time>
      </trkpt>
      <trkpt lat="44.66286" lon="5.04675">
        <ele>912</ele>
        <time>2026-05-26T10:26:49.000Z</time>
      </trkpt>
      <trkpt lat="44.66286" lon="5.04676">
        <ele>914</ele>
        <time>2026-05-26T10:26:50.000Z</time>
      </trkpt>
      <trkpt lat="44.66288" lon="5.04674">
        <ele>913</ele>
        <time>2026-05-26T10:26:51.000Z</time>
      </trkpt>
      <trkpt lat="44.66289" lon="5.04673">
        <ele>913</ele>
        <time>2026-05-26T10:26:52.000Z</time>
      </trkpt>
      <trkpt lat="44.6629" lon="5.04673">
        <ele>912</ele>
        <time>2026-05-26T10:26:53.000Z</time>
      </trkpt>
      <trkpt lat="44.66291" lon="5.04673">
        <ele>913</ele>
        <time>2026-05-26T10:26:54.000Z</time>
      </trkpt>
      <trkpt lat="44.66292" lon="5.04673">
        <ele>914</ele>
        <time>2026-05-26T10:26:55.000Z</time>
      </trkpt>
      <trkpt lat="44.66293" lon="5.04674">
        <ele>914</ele>
        <time>2026-05-26T10:26:56.000Z</time>
      </trkpt>
      <trkpt lat="44.66294" lon="5.04676">
        <ele>914</ele>
        <time>2026-05-26T10:26:57.000Z</time>
      </trkpt>
      <trkpt lat="44.66295" lon="5.04677">
        <ele>914</ele>
        <time>2026-05-26T10:26:58.000Z</time>
      </trkpt>
      <trkpt lat="44.66296" lon="5.04677">
        <ele>914</ele>
        <time>2026-05-26T10:26:59.000Z</time>
      </trkpt>
      <trkpt lat="44.66296" lon="5.04677">
        <ele>914</ele>
        <time>2026-05-26T10:27:00.000Z</time>
      </trkpt>
      <trkpt lat="44.66297" lon="5.04678">
        <ele>914</ele>
        <time>2026-05-26T10:27:01.000Z</time>
      </trkpt>
      <trkpt lat="44.66298" lon="5.04679">
        <ele>915</ele>
        <time>2026-05-26T10:27:02.000Z</time>
      </trkpt>
      <trkpt lat="44.66299" lon="5.04678">
        <ele>916</ele>
        <time>2026-05-26T10:27:03.000Z</time>
      </trkpt>
      <trkpt lat="44.663" lon="5.04678">
        <ele>914</ele>
        <time>2026-05-26T10:27:04.000Z</time>
      </trkpt>
      <trkpt lat="44.663" lon="5.04678">
        <ele>914</ele>
        <time>2026-05-26T10:27:05.000Z</time>
      </trkpt>
      <trkpt lat="44.66301" lon="5.04679">
        <ele>914</ele>
        <time>2026-05-26T10:27:06.000Z</time>
      </trkpt>
      <trkpt lat="44.66301" lon="5.0468">
        <ele>915</ele>
        <time>2026-05-26T10:27:07.000Z</time>
      </trkpt>
      <trkpt lat="44.66301" lon="5.04681">
        <ele>914</ele>
        <time>2026-05-26T10:27:08.000Z</time>
      </trkpt>
      <trkpt lat="44.66302" lon="5.0468">
        <ele>914</ele>
        <time>2026-05-26T10:27:09.000Z</time>
      </trkpt>
      <trkpt lat="44.66303" lon="5.04681">
        <ele>914</ele>
        <time>2026-05-26T10:27:10.000Z</time>
      </trkpt>
      <trkpt lat="44.66304" lon="5.04681">
        <ele>915</ele>
        <time>2026-05-26T10:27:11.000Z</time>
      </trkpt>
      <trkpt lat="44.66305" lon="5.04682">
        <ele>915</ele>
        <time>2026-05-26T10:27:12.000Z</time>
      </trkpt>
      <trkpt lat="44.66305" lon="5.04683">
        <ele>915</ele>
        <time>2026-05-26T10:27:13.000Z</time>
      </trkpt>
      <trkpt lat="44.66306" lon="5.04684">
        <ele>915</ele>
        <time>2026-05-26T10:27:14.000Z</time>
      </trkpt>
      <trkpt lat="44.66306" lon="5.04684">
        <ele>915</ele>
        <time>2026-05-26T10:27:15.000Z</time>
      </trkpt>
      <trkpt lat="44.66306" lon="5.04685">
        <ele>915</ele>
        <time>2026-05-26T10:27:16.000Z</time>
      </trkpt>
      <trkpt lat="44.66306" lon="5.04686">
        <ele>916</ele>
        <time>2026-05-26T10:27:17.000Z</time>
      </trkpt>
      <trkpt lat="44.66306" lon="5.04687">
        <ele>917</ele>
        <time>2026-05-26T10:27:18.000Z</time>
      </trkpt>
      <trkpt lat="44.66307" lon="5.04689">
        <ele>917</ele>
        <time>2026-05-26T10:27:19.000Z</time>
      </trkpt>
      <trkpt lat="44.66308" lon="5.0469">
        <ele>917</ele>
        <time>2026-05-26T10:27:20.000Z</time>
      </trkpt>
      <trkpt lat="44.66308" lon="5.04692">
        <ele>918</ele>
        <time>2026-05-26T10:27:21.000Z</time>
      </trkpt>
      <trkpt lat="44.66308" lon="5.04692">
        <ele>918</ele>
        <time>2026-05-26T10:27:22.000Z</time>
      </trkpt>
      <trkpt lat="44.66309" lon="5.04693">
        <ele>917</ele>
        <time>2026-05-26T10:27:23.000Z</time>
      </trkpt>
      <trkpt lat="44.6631" lon="5.04695">
        <ele>917</ele>
        <time>2026-05-26T10:27:24.000Z</time>
      </trkpt>
      <trkpt lat="44.6631" lon="5.04696">
        <ele>917</ele>
        <time>2026-05-26T10:27:25.000Z</time>
      </trkpt>
      <trkpt lat="44.6631" lon="5.04696">
        <ele>917</ele>
        <time>2026-05-26T10:27:26.000Z</time>
      </trkpt>
      <trkpt lat="44.66311" lon="5.04696">
        <ele>917</ele>
        <time>2026-05-26T10:27:27.000Z</time>
      </trkpt>
      <trkpt lat="44.66311" lon="5.04697">
        <ele>918</ele>
        <time>2026-05-26T10:27:28.000Z</time>
      </trkpt>
      <trkpt lat="44.66313" lon="5.04697">
        <ele>917</ele>
        <time>2026-05-26T10:27:29.000Z</time>
      </trkpt>
      <trkpt lat="44.66314" lon="5.04698">
        <ele>917</ele>
        <time>2026-05-26T10:27:30.000Z</time>
      </trkpt>
      <trkpt lat="44.66314" lon="5.04699">
        <ele>917</ele>
        <time>2026-05-26T10:27:31.000Z</time>
      </trkpt>
      <trkpt lat="44.66315" lon="5.047">
        <ele>916</ele>
        <time>2026-05-26T10:27:32.000Z</time>
      </trkpt>
      <trkpt lat="44.66316" lon="5.04702">
        <ele>916</ele>
        <time>2026-05-26T10:27:33.000Z</time>
      </trkpt>
      <trkpt lat="44.66317" lon="5.04704">
        <ele>916</ele>
        <time>2026-05-26T10:27:34.000Z</time>
      </trkpt>
      <trkpt lat="44.66318" lon="5.04704">
        <ele>916</ele>
        <time>2026-05-26T10:27:35.000Z</time>
      </trkpt>
      <trkpt lat="44.66319" lon="5.04705">
        <ele>915</ele>
        <time>2026-05-26T10:27:36.000Z</time>
      </trkpt>
      <trkpt lat="44.66319" lon="5.04706">
        <ele>916</ele>
        <time>2026-05-26T10:27:37.000Z</time>
      </trkpt>
      <trkpt lat="44.66321" lon="5.04708">
        <ele>917</ele>
        <time>2026-05-26T10:27:38.000Z</time>
      </trkpt>
      <trkpt lat="44.66323" lon="5.04707">
        <ele>917</ele>
        <time>2026-05-26T10:27:39.000Z</time>
      </trkpt>
      <trkpt lat="44.66325" lon="5.04708">
        <ele>916</ele>
        <time>2026-05-26T10:27:40.000Z</time>
      </trkpt>
      <trkpt lat="44.66325" lon="5.04707">
        <ele>915</ele>
        <time>2026-05-26T10:27:41.000Z</time>
      </trkpt>
      <trkpt lat="44.66326" lon="5.04707">
        <ele>915</ele>
        <time>2026-05-26T10:27:42.000Z</time>
      </trkpt>
      <trkpt lat="44.66327" lon="5.04708">
        <ele>915</ele>
        <time>2026-05-26T10:27:43.000Z</time>
      </trkpt>
      <trkpt lat="44.66327" lon="5.04708">
        <ele>915</ele>
        <time>2026-05-26T10:27:44.000Z</time>
      </trkpt>
      <trkpt lat="44.66327" lon="5.04709">
        <ele>914</ele>
        <time>2026-05-26T10:27:45.000Z</time>
      </trkpt>
      <trkpt lat="44.66328" lon="5.04711">
        <ele>913</ele>
        <time>2026-05-26T10:27:46.000Z</time>
      </trkpt>
      <trkpt lat="44.66329" lon="5.04713">
        <ele>913</ele>
        <time>2026-05-26T10:27:47.000Z</time>
      </trkpt>
      <trkpt lat="44.66329" lon="5.04713">
        <ele>913</ele>
        <time>2026-05-26T10:27:48.000Z</time>
      </trkpt>
      <trkpt lat="44.6633" lon="5.04714">
        <ele>912</ele>
        <time>2026-05-26T10:27:49.000Z</time>
      </trkpt>
      <trkpt lat="44.6633" lon="5.04714">
        <ele>912</ele>
        <time>2026-05-26T10:27:50.000Z</time>
      </trkpt>
      <trkpt lat="44.6633" lon="5.04714">
        <ele>912</ele>
        <time>2026-05-26T10:27:51.000Z</time>
      </trkpt>
      <trkpt lat="44.66332" lon="5.04715">
        <ele>911</ele>
        <time>2026-05-26T10:27:52.000Z</time>
      </trkpt>
      <trkpt lat="44.66332" lon="5.04716">
        <ele>911</ele>
        <time>2026-05-26T10:27:53.000Z</time>
      </trkpt>
      <trkpt lat="44.66333" lon="5.04717">
        <ele>910</ele>
        <time>2026-05-26T10:27:54.000Z</time>
      </trkpt>
      <trkpt lat="44.66334" lon="5.04718">
        <ele>911</ele>
        <time>2026-05-26T10:27:55.000Z</time>
      </trkpt>
      <trkpt lat="44.66334" lon="5.04718">
        <ele>911</ele>
        <time>2026-05-26T10:27:56.000Z</time>
      </trkpt>
      <trkpt lat="44.66334" lon="5.04719">
        <ele>911</ele>
        <time>2026-05-26T10:27:57.000Z</time>
      </trkpt>
      <trkpt lat="44.66334" lon="5.0472">
        <ele>911</ele>
        <time>2026-05-26T10:27:58.000Z</time>
      </trkpt>
      <trkpt lat="44.66335" lon="5.04721">
        <ele>911</ele>
        <time>2026-05-26T10:27:59.000Z</time>
      </trkpt>
      <trkpt lat="44.66336" lon="5.04721">
        <ele>911</ele>
        <time>2026-05-26T10:28:00.000Z</time>
      </trkpt>
      <trkpt lat="44.66336" lon="5.04721">
        <ele>910</ele>
        <time>2026-05-26T10:28:01.000Z</time>
      </trkpt>
      <trkpt lat="44.66336" lon="5.0472">
        <ele>910</ele>
        <time>2026-05-26T10:28:02.000Z</time>
      </trkpt>
      <trkpt lat="44.66336" lon="5.04721">
        <ele>910</ele>
        <time>2026-05-26T10:28:03.000Z</time>
      </trkpt>
      <trkpt lat="44.66335" lon="5.0472">
        <ele>910</ele>
        <time>2026-05-26T10:28:04.000Z</time>
      </trkpt>
      <trkpt lat="44.66335" lon="5.0472">
        <ele>910</ele>
        <time>2026-05-26T10:28:05.000Z</time>
      </trkpt>
      <trkpt lat="44.66335" lon="5.04719">
        <ele>910</ele>
        <time>2026-05-26T10:28:06.000Z</time>
      </trkpt>
      <trkpt lat="44.66335" lon="5.04719">
        <ele>910</ele>
        <time>2026-05-26T10:28:07.000Z</time>
      </trkpt>
      <trkpt lat="44.66336" lon="5.04719">
        <ele>910</ele>
        <time>2026-05-26T10:28:08.000Z</time>
      </trkpt>
      <trkpt lat="44.66336" lon="5.04719">
        <ele>910</ele>
        <time>2026-05-26T10:28:09.000Z</time>
      </trkpt>
      <trkpt lat="44.66336" lon="5.04719">
        <ele>910</ele>
        <time>2026-05-26T10:28:10.000Z</time>
      </trkpt>
      <trkpt lat="44.66336" lon="5.04719">
        <ele>910</ele>
        <time>2026-05-26T10:28:11.000Z</time>
      </trkpt>
      <trkpt lat="44.66336" lon="5.04719">
        <ele>910</ele>
        <time>2026-05-26T10:28:12.000Z</time>
      </trkpt>
      <trkpt lat="44.66336" lon="5.04719">
        <ele>910</ele>
        <time>2026-05-26T10:28:13.000Z</time>
      </trkpt>
      <trkpt lat="44.66336" lon="5.04719">
        <ele>910</ele>
        <time>2026-05-26T10:28:14.000Z</time>
      </trkpt>
      <trkpt lat="44.66336" lon="5.04719">
        <ele>910</ele>
        <time>2026-05-26T10:28:15.000Z</time>
      </trkpt>
      <trkpt lat="44.66336" lon="5.04719">
        <ele>910</ele>
        <time>2026-05-26T10:28:16.000Z</time>
      </trkpt>
      <trkpt lat="44.66335" lon="5.04721">
        <ele>910</ele>
        <time>2026-05-26T10:28:17.000Z</time>
      </trkpt>
      <trkpt lat="44.66336" lon="5.04722">
        <ele>911</ele>
        <time>2026-05-26T10:28:18.000Z</time>
      </trkpt>
      <trkpt lat="44.66336" lon="5.04722">
        <ele>910</ele>
        <time>2026-05-26T10:28:19.000Z</time>
      </trkpt>
      <trkpt lat="44.66337" lon="5.04723">
        <ele>910</ele>
        <time>2026-05-26T10:28:20.000Z</time>
      </trkpt>
      <trkpt lat="44.66337" lon="5.04724">
        <ele>911</ele>
        <time>2026-05-26T10:28:21.000Z</time>
      </trkpt>
      <trkpt lat="44.66337" lon="5.04724">
        <ele>911</ele>
        <time>2026-05-26T10:28:22.000Z</time>
      </trkpt>
      <trkpt lat="44.66337" lon="5.04724">
        <ele>911</ele>
        <time>2026-05-26T10:28:23.000Z</time>
      </trkpt>
      <trkpt lat="44.66337" lon="5.04724">
        <ele>911</ele>
        <time>2026-05-26T10:28:24.000Z</time>
      </trkpt>
      <trkpt lat="44.66338" lon="5.04725">
        <ele>909</ele>
        <time>2026-05-26T10:28:25.000Z</time>
      </trkpt>
      <trkpt lat="44.66338" lon="5.04725">
        <ele>909</ele>
        <time>2026-05-26T10:28:26.000Z</time>
      </trkpt>
      <trkpt lat="44.66338" lon="5.04725">
        <ele>909</ele>
        <time>2026-05-26T10:28:27.000Z</time>
      </trkpt>
      <trkpt lat="44.66338" lon="5.04725">
        <ele>909</ele>
        <time>2026-05-26T10:28:28.000Z</time>
      </trkpt>
      <trkpt lat="44.66338" lon="5.04725">
        <ele>909</ele>
        <time>2026-05-26T10:28:29.000Z</time>
      </trkpt>
      <trkpt lat="44.66338" lon="5.04725">
        <ele>909</ele>
        <time>2026-05-26T10:28:30.000Z</time>
      </trkpt>
      <trkpt lat="44.66338" lon="5.04725">
        <ele>909</ele>
        <time>2026-05-26T10:28:31.000Z</time>
      </trkpt>
      <trkpt lat="44.66338" lon="5.04725">
        <ele>909</ele>
        <time>2026-05-26T10:28:32.000Z</time>
      </trkpt>
      <trkpt lat="44.66338" lon="5.04725">
        <ele>909</ele>
        <time>2026-05-26T10:28:33.000Z</time>
      </trkpt>
      <trkpt lat="44.66338" lon="5.04725">
        <ele>909</ele>
        <time>2026-05-26T10:28:34.000Z</time>
      </trkpt>
      <trkpt lat="44.66338" lon="5.04725">
        <ele>909</ele>
        <time>2026-05-26T10:28:35.000Z</time>
      </trkpt>
      <trkpt lat="44.66338" lon="5.04725">
        <ele>909</ele>
        <time>2026-05-26T10:28:36.000Z</time>
      </trkpt>
      <trkpt lat="44.66338" lon="5.04725">
        <ele>909</ele>
        <time>2026-05-26T10:28:37.000Z</time>
      </trkpt>
      <trkpt lat="44.66338" lon="5.04725">
        <ele>909</ele>
        <time>2026-05-26T10:28:38.000Z</time>
      </trkpt>
      <trkpt lat="44.66338" lon="5.04725">
        <ele>909</ele>
        <time>2026-05-26T10:28:39.000Z</time>
      </trkpt>
      <trkpt lat="44.66338" lon="5.04725">
        <ele>909</ele>
        <time>2026-05-26T10:28:40.000Z</time>
      </trkpt>
      <trkpt lat="44.66338" lon="5.04725">
        <ele>909</ele>
        <time>2026-05-26T10:28:41.000Z</time>
      </trkpt>
      <trkpt lat="44.66338" lon="5.04725">
        <ele>909</ele>
        <time>2026-05-26T10:28:42.000Z</time>
      </trkpt>
      <trkpt lat="44.66338" lon="5.04725">
        <ele>909</ele>
        <time>2026-05-26T10:28:43.000Z</time>
      </trkpt>
      <trkpt lat="44.66338" lon="5.04725">
        <ele>909</ele>
        <time>2026-05-26T10:28:44.000Z</time>
      </trkpt>
      <trkpt lat="44.66338" lon="5.04725">
        <ele>909</ele>
        <time>2026-05-26T10:28:45.000Z</time>
      </trkpt>
      <trkpt lat="44.66338" lon="5.04725">
        <ele>909</ele>
        <time>2026-05-26T10:28:46.000Z</time>
      </trkpt>
      <trkpt lat="44.66338" lon="5.04725">
        <ele>909</ele>
        <time>2026-05-26T10:28:47.000Z</time>
      </trkpt>
      <trkpt lat="44.66338" lon="5.04725">
        <ele>909</ele>
        <time>2026-05-26T10:28:48.000Z</time>
      </trkpt>
      <trkpt lat="44.66338" lon="5.04725">
        <ele>909</ele>
        <time>2026-05-26T10:28:49.000Z</time>
      </trkpt>
      <trkpt lat="44.66338" lon="5.04725">
        <ele>909</ele>
        <time>2026-05-26T10:28:50.000Z</time>
      </trkpt>
      <trkpt lat="44.66338" lon="5.04725">
        <ele>909</ele>
        <time>2026-05-26T10:28:51.000Z</time>
      </trkpt>
      <trkpt lat="44.66338" lon="5.04725">
        <ele>909</ele>
        <time>2026-05-26T10:28:52.000Z</time>
      </trkpt>
      <trkpt lat="44.66338" lon="5.04725">
        <ele>909</ele>
        <time>2026-05-26T10:28:53.000Z</time>
      </trkpt>
      <trkpt lat="44.66338" lon="5.04725">
        <ele>909</ele>
        <time>2026-05-26T10:28:54.000Z</time>
      </trkpt>
      <trkpt lat="44.66338" lon="5.04725">
        <ele>909</ele>
        <time>2026-05-26T10:28:55.000Z</time>
      </trkpt>
      <trkpt lat="44.66338" lon="5.04725">
        <ele>909</ele>
        <time>2026-05-26T10:28:56.000Z</time>
      </trkpt>
      <trkpt lat="44.66338" lon="5.04725">
        <ele>909</ele>
        <time>2026-05-26T10:28:57.000Z</time>
      </trkpt>
      <trkpt lat="44.66338" lon="5.04725">
        <ele>909</ele>
        <time>2026-05-26T10:28:58.000Z</time>
      </trkpt>
      <trkpt lat="44.66338" lon="5.04725">
        <ele>909</ele>
        <time>2026-05-26T10:28:59.000Z</time>
      </trkpt>
      <trkpt lat="44.66338" lon="5.04725">
        <ele>909</ele>
        <time>2026-05-26T10:29:00.000Z</time>
      </trkpt>
      <trkpt lat="44.66338" lon="5.04725">
        <ele>909</ele>
        <time>2026-05-26T10:29:01.000Z</time>
      </trkpt>
      <trkpt lat="44.66338" lon="5.04725">
        <ele>909</ele>
        <time>2026-05-26T10:29:02.000Z</time>
      </trkpt>
      <trkpt lat="44.66338" lon="5.04725">
        <ele>909</ele>
        <time>2026-05-26T10:29:03.000Z</time>
      </trkpt>
      <trkpt lat="44.66338" lon="5.04725">
        <ele>909</ele>
        <time>2026-05-26T10:29:04.000Z</time>
      </trkpt>
      <trkpt lat="44.66339" lon="5.04726">
        <ele>910</ele>
        <time>2026-05-26T10:29:05.000Z</time>
      </trkpt>
      <trkpt lat="44.66339" lon="5.04727">
        <ele>910</ele>
        <time>2026-05-26T10:29:06.000Z</time>
      </trkpt>
      <trkpt lat="44.6634" lon="5.04728">
        <ele>910</ele>
        <time>2026-05-26T10:29:07.000Z</time>
      </trkpt>
      <trkpt lat="44.66341" lon="5.04729">
        <ele>910</ele>
        <time>2026-05-26T10:29:08.000Z</time>
      </trkpt>
      <trkpt lat="44.66342" lon="5.0473">
        <ele>910</ele>
        <time>2026-05-26T10:29:09.000Z</time>
      </trkpt>
      <trkpt lat="44.66343" lon="5.04732">
        <ele>910</ele>
        <time>2026-05-26T10:29:10.000Z</time>
      </trkpt>
      <trkpt lat="44.66344" lon="5.04732">
        <ele>910</ele>
        <time>2026-05-26T10:29:11.000Z</time>
      </trkpt>
      <trkpt lat="44.66344" lon="5.04734">
        <ele>911</ele>
        <time>2026-05-26T10:29:12.000Z</time>
      </trkpt>
      <trkpt lat="44.66344" lon="5.04734">
        <ele>911</ele>
        <time>2026-05-26T10:29:13.000Z</time>
      </trkpt>
      <trkpt lat="44.66344" lon="5.04735">
        <ele>912</ele>
        <time>2026-05-26T10:29:14.000Z</time>
      </trkpt>
      <trkpt lat="44.66345" lon="5.04736">
        <ele>913</ele>
        <time>2026-05-26T10:29:15.000Z</time>
      </trkpt>
      <trkpt lat="44.66346" lon="5.04737">
        <ele>913</ele>
        <time>2026-05-26T10:29:16.000Z</time>
      </trkpt>
      <trkpt lat="44.66347" lon="5.04737">
        <ele>912</ele>
        <time>2026-05-26T10:29:17.000Z</time>
      </trkpt>
      <trkpt lat="44.66347" lon="5.04737">
        <ele>913</ele>
        <time>2026-05-26T10:29:18.000Z</time>
      </trkpt>
      <trkpt lat="44.66348" lon="5.04737">
        <ele>914</ele>
        <time>2026-05-26T10:29:19.000Z</time>
      </trkpt>
      <trkpt lat="44.66348" lon="5.04738">
        <ele>914</ele>
        <time>2026-05-26T10:29:20.000Z</time>
      </trkpt>
      <trkpt lat="44.66349" lon="5.04739">
        <ele>914</ele>
        <time>2026-05-26T10:29:21.000Z</time>
      </trkpt>
      <trkpt lat="44.66349" lon="5.04742">
        <ele>914</ele>
        <time>2026-05-26T10:29:22.000Z</time>
      </trkpt>
      <trkpt lat="44.66349" lon="5.04743">
        <ele>914</ele>
        <time>2026-05-26T10:29:23.000Z</time>
      </trkpt>
      <trkpt lat="44.6635" lon="5.04743">
        <ele>914</ele>
        <time>2026-05-26T10:29:24.000Z</time>
      </trkpt>
      <trkpt lat="44.66351" lon="5.04744">
        <ele>913</ele>
        <time>2026-05-26T10:29:25.000Z</time>
      </trkpt>
      <trkpt lat="44.66352" lon="5.04745">
        <ele>912</ele>
        <time>2026-05-26T10:29:26.000Z</time>
      </trkpt>
      <trkpt lat="44.66353" lon="5.04746">
        <ele>912</ele>
        <time>2026-05-26T10:29:27.000Z</time>
      </trkpt>
      <trkpt lat="44.66354" lon="5.04747">
        <ele>912</ele>
        <time>2026-05-26T10:29:28.000Z</time>
      </trkpt>
      <trkpt lat="44.66355" lon="5.04748">
        <ele>911</ele>
        <time>2026-05-26T10:29:29.000Z</time>
      </trkpt>
      <trkpt lat="44.66356" lon="5.04749">
        <ele>911</ele>
        <time>2026-05-26T10:29:30.000Z</time>
      </trkpt>
      <trkpt lat="44.66357" lon="5.0475">
        <ele>910</ele>
        <time>2026-05-26T10:29:31.000Z</time>
      </trkpt>
      <trkpt lat="44.66358" lon="5.0475">
        <ele>910</ele>
        <time>2026-05-26T10:29:32.000Z</time>
      </trkpt>
      <trkpt lat="44.66358" lon="5.04752">
        <ele>909</ele>
        <time>2026-05-26T10:29:33.000Z</time>
      </trkpt>
      <trkpt lat="44.66358" lon="5.04752">
        <ele>909</ele>
        <time>2026-05-26T10:29:34.000Z</time>
      </trkpt>
      <trkpt lat="44.66358" lon="5.04753">
        <ele>909</ele>
        <time>2026-05-26T10:29:35.000Z</time>
      </trkpt>
      <trkpt lat="44.66358" lon="5.04754">
        <ele>908</ele>
        <time>2026-05-26T10:29:36.000Z</time>
      </trkpt>
      <trkpt lat="44.66357" lon="5.04755">
        <ele>908</ele>
        <time>2026-05-26T10:29:37.000Z</time>
      </trkpt>
      <trkpt lat="44.66357" lon="5.04756">
        <ele>908</ele>
        <time>2026-05-26T10:29:38.000Z</time>
      </trkpt>
      <trkpt lat="44.66358" lon="5.04757">
        <ele>907</ele>
        <time>2026-05-26T10:29:39.000Z</time>
      </trkpt>
      <trkpt lat="44.66358" lon="5.04758">
        <ele>907</ele>
        <time>2026-05-26T10:29:40.000Z</time>
      </trkpt>
      <trkpt lat="44.66358" lon="5.04759">
        <ele>907</ele>
        <time>2026-05-26T10:29:41.000Z</time>
      </trkpt>
      <trkpt lat="44.66358" lon="5.0476">
        <ele>907</ele>
        <time>2026-05-26T10:29:42.000Z</time>
      </trkpt>
      <trkpt lat="44.66359" lon="5.04761">
        <ele>906</ele>
        <time>2026-05-26T10:29:43.000Z</time>
      </trkpt>
      <trkpt lat="44.66359" lon="5.04761">
        <ele>906</ele>
        <time>2026-05-26T10:29:44.000Z</time>
      </trkpt>
      <trkpt lat="44.66359" lon="5.04761">
        <ele>906</ele>
        <time>2026-05-26T10:29:45.000Z</time>
      </trkpt>
      <trkpt lat="44.66359" lon="5.04761">
        <ele>906</ele>
        <time>2026-05-26T10:29:46.000Z</time>
      </trkpt>
      <trkpt lat="44.66359" lon="5.04761">
        <ele>906</ele>
        <time>2026-05-26T10:29:47.000Z</time>
      </trkpt>
      <trkpt lat="44.66359" lon="5.04761">
        <ele>906</ele>
        <time>2026-05-26T10:29:48.000Z</time>
      </trkpt>
      <trkpt lat="44.66359" lon="5.04761">
        <ele>906</ele>
        <time>2026-05-26T10:29:49.000Z</time>
      </trkpt>
      <trkpt lat="44.66359" lon="5.04761">
        <ele>906</ele>
        <time>2026-05-26T10:29:50.000Z</time>
      </trkpt>
      <trkpt lat="44.66359" lon="5.04761">
        <ele>906</ele>
        <time>2026-05-26T10:29:51.000Z</time>
      </trkpt>
      <trkpt lat="44.66359" lon="5.04761">
        <ele>906</ele>
        <time>2026-05-26T10:29:52.000Z</time>
      </trkpt>
      <trkpt lat="44.66359" lon="5.04761">
        <ele>906</ele>
        <time>2026-05-26T10:29:53.000Z</time>
      </trkpt>
      <trkpt lat="44.66359" lon="5.04761">
        <ele>906</ele>
        <time>2026-05-26T10:29:54.000Z</time>
      </trkpt>
      <trkpt lat="44.66359" lon="5.04761">
        <ele>906</ele>
        <time>2026-05-26T10:29:55.000Z</time>
      </trkpt>
      <trkpt lat="44.66359" lon="5.04761">
        <ele>906</ele>
        <time>2026-05-26T10:29:56.000Z</time>
      </trkpt>
      <trkpt lat="44.66359" lon="5.04761">
        <ele>906</ele>
        <time>2026-05-26T10:29:57.000Z</time>
      </trkpt>
      <trkpt lat="44.66359" lon="5.04761">
        <ele>906</ele>
        <time>2026-05-26T10:29:58.000Z</time>
      </trkpt>
      <trkpt lat="44.66359" lon="5.04762">
        <ele>906</ele>
        <time>2026-05-26T10:29:59.000Z</time>
      </trkpt>
      <trkpt lat="44.6636" lon="5.04763">
        <ele>906</ele>
        <time>2026-05-26T10:30:00.000Z</time>
      </trkpt>
      <trkpt lat="44.66361" lon="5.04763">
        <ele>906</ele>
        <time>2026-05-26T10:30:01.000Z</time>
      </trkpt>
      <trkpt lat="44.66362" lon="5.04764">
        <ele>906</ele>
        <time>2026-05-26T10:30:02.000Z</time>
      </trkpt>
      <trkpt lat="44.66363" lon="5.04765">
        <ele>906</ele>
        <time>2026-05-26T10:30:03.000Z</time>
      </trkpt>
      <trkpt lat="44.66364" lon="5.04765">
        <ele>906</ele>
        <time>2026-05-26T10:30:04.000Z</time>
      </trkpt>
      <trkpt lat="44.66365" lon="5.04766">
        <ele>906</ele>
        <time>2026-05-26T10:30:05.000Z</time>
      </trkpt>
      <trkpt lat="44.66365" lon="5.04766">
        <ele>906</ele>
        <time>2026-05-26T10:30:06.000Z</time>
      </trkpt>
      <trkpt lat="44.66365" lon="5.04767">
        <ele>906</ele>
        <time>2026-05-26T10:30:07.000Z</time>
      </trkpt>
      <trkpt lat="44.66366" lon="5.04768">
        <ele>905</ele>
        <time>2026-05-26T10:30:08.000Z</time>
      </trkpt>
      <trkpt lat="44.66366" lon="5.04769">
        <ele>905</ele>
        <time>2026-05-26T10:30:09.000Z</time>
      </trkpt>
      <trkpt lat="44.66366" lon="5.0477">
        <ele>905</ele>
        <time>2026-05-26T10:30:10.000Z</time>
      </trkpt>
      <trkpt lat="44.66366" lon="5.04772">
        <ele>905</ele>
        <time>2026-05-26T10:30:11.000Z</time>
      </trkpt>
      <trkpt lat="44.66366" lon="5.04772">
        <ele>905</ele>
        <time>2026-05-26T10:30:12.000Z</time>
      </trkpt>
      <trkpt lat="44.66365" lon="5.04773">
        <ele>905</ele>
        <time>2026-05-26T10:30:13.000Z</time>
      </trkpt>
      <trkpt lat="44.66365" lon="5.04774">
        <ele>905</ele>
        <time>2026-05-26T10:30:14.000Z</time>
      </trkpt>
      <trkpt lat="44.66364" lon="5.04775">
        <ele>905</ele>
        <time>2026-05-26T10:30:15.000Z</time>
      </trkpt>
      <trkpt lat="44.66365" lon="5.04776">
        <ele>905</ele>
        <time>2026-05-26T10:30:16.000Z</time>
      </trkpt>
      <trkpt lat="44.66365" lon="5.04777">
        <ele>905</ele>
        <time>2026-05-26T10:30:17.000Z</time>
      </trkpt>
      <trkpt lat="44.66365" lon="5.04779">
        <ele>904</ele>
        <time>2026-05-26T10:30:18.000Z</time>
      </trkpt>
      <trkpt lat="44.66366" lon="5.0478">
        <ele>904</ele>
        <time>2026-05-26T10:30:19.000Z</time>
      </trkpt>
      <trkpt lat="44.66366" lon="5.04782">
        <ele>903</ele>
        <time>2026-05-26T10:30:20.000Z</time>
      </trkpt>
      <trkpt lat="44.66366" lon="5.04783">
        <ele>903</ele>
        <time>2026-05-26T10:30:21.000Z</time>
      </trkpt>
      <trkpt lat="44.66366" lon="5.04785">
        <ele>902</ele>
        <time>2026-05-26T10:30:22.000Z</time>
      </trkpt>
      <trkpt lat="44.66367" lon="5.04786">
        <ele>902</ele>
        <time>2026-05-26T10:30:23.000Z</time>
      </trkpt>
      <trkpt lat="44.66367" lon="5.04786">
        <ele>902</ele>
        <time>2026-05-26T10:30:24.000Z</time>
      </trkpt>
      <trkpt lat="44.66367" lon="5.04787">
        <ele>901</ele>
        <time>2026-05-26T10:30:25.000Z</time>
      </trkpt>
      <trkpt lat="44.66368" lon="5.04789">
        <ele>901</ele>
        <time>2026-05-26T10:30:26.000Z</time>
      </trkpt>
      <trkpt lat="44.66369" lon="5.0479">
        <ele>900</ele>
        <time>2026-05-26T10:30:27.000Z</time>
      </trkpt>
      <trkpt lat="44.66369" lon="5.04791">
        <ele>900</ele>
        <time>2026-05-26T10:30:28.000Z</time>
      </trkpt>
      <trkpt lat="44.6637" lon="5.04792">
        <ele>900</ele>
        <time>2026-05-26T10:30:29.000Z</time>
      </trkpt>
      <trkpt lat="44.6637" lon="5.04793">
        <ele>899</ele>
        <time>2026-05-26T10:30:30.000Z</time>
      </trkpt>
      <trkpt lat="44.6637" lon="5.04794">
        <ele>899</ele>
        <time>2026-05-26T10:30:31.000Z</time>
      </trkpt>
      <trkpt lat="44.6637" lon="5.04795">
        <ele>900</ele>
        <time>2026-05-26T10:30:32.000Z</time>
      </trkpt>
      <trkpt lat="44.6637" lon="5.04796">
        <ele>900</ele>
        <time>2026-05-26T10:30:33.000Z</time>
      </trkpt>
      <trkpt lat="44.6637" lon="5.04797">
        <ele>900</ele>
        <time>2026-05-26T10:30:34.000Z</time>
      </trkpt>
      <trkpt lat="44.66371" lon="5.04799">
        <ele>899</ele>
        <time>2026-05-26T10:30:35.000Z</time>
      </trkpt>
      <trkpt lat="44.66371" lon="5.04801">
        <ele>899</ele>
        <time>2026-05-26T10:30:36.000Z</time>
      </trkpt>
      <trkpt lat="44.66372" lon="5.04803">
        <ele>899</ele>
        <time>2026-05-26T10:30:37.000Z</time>
      </trkpt>
      <trkpt lat="44.66373" lon="5.04804">
        <ele>898</ele>
        <time>2026-05-26T10:30:38.000Z</time>
      </trkpt>
      <trkpt lat="44.66373" lon="5.04805">
        <ele>898</ele>
        <time>2026-05-26T10:30:39.000Z</time>
      </trkpt>
      <trkpt lat="44.66374" lon="5.04805">
        <ele>898</ele>
        <time>2026-05-26T10:30:40.000Z</time>
      </trkpt>
      <trkpt lat="44.66374" lon="5.04806">
        <ele>897</ele>
        <time>2026-05-26T10:30:41.000Z</time>
      </trkpt>
      <trkpt lat="44.66374" lon="5.04807">
        <ele>897</ele>
        <time>2026-05-26T10:30:42.000Z</time>
      </trkpt>
      <trkpt lat="44.66375" lon="5.04808">
        <ele>897</ele>
        <time>2026-05-26T10:30:43.000Z</time>
      </trkpt>
      <trkpt lat="44.66375" lon="5.0481">
        <ele>896</ele>
        <time>2026-05-26T10:30:44.000Z</time>
      </trkpt>
      <trkpt lat="44.66376" lon="5.0481">
        <ele>896</ele>
        <time>2026-05-26T10:30:45.000Z</time>
      </trkpt>
      <trkpt lat="44.66376" lon="5.04811">
        <ele>896</ele>
        <time>2026-05-26T10:30:46.000Z</time>
      </trkpt>
      <trkpt lat="44.66377" lon="5.04811">
        <ele>896</ele>
        <time>2026-05-26T10:30:47.000Z</time>
      </trkpt>
      <trkpt lat="44.66377" lon="5.04813">
        <ele>895</ele>
        <time>2026-05-26T10:30:48.000Z</time>
      </trkpt>
      <trkpt lat="44.66376" lon="5.04814">
        <ele>895</ele>
        <time>2026-05-26T10:30:49.000Z</time>
      </trkpt>
      <trkpt lat="44.66376" lon="5.04815">
        <ele>894</ele>
        <time>2026-05-26T10:30:50.000Z</time>
      </trkpt>
      <trkpt lat="44.66376" lon="5.04816">
        <ele>894</ele>
        <time>2026-05-26T10:30:51.000Z</time>
      </trkpt>
      <trkpt lat="44.66376" lon="5.04818">
        <ele>894</ele>
        <time>2026-05-26T10:30:52.000Z</time>
      </trkpt>
      <trkpt lat="44.66375" lon="5.04818">
        <ele>894</ele>
        <time>2026-05-26T10:30:53.000Z</time>
      </trkpt>
      <trkpt lat="44.66375" lon="5.0482">
        <ele>894</ele>
        <time>2026-05-26T10:30:54.000Z</time>
      </trkpt>
      <trkpt lat="44.66376" lon="5.04821">
        <ele>893</ele>
        <time>2026-05-26T10:30:55.000Z</time>
      </trkpt>
      <trkpt lat="44.66375" lon="5.04821">
        <ele>893</ele>
        <time>2026-05-26T10:30:56.000Z</time>
      </trkpt>
      <trkpt lat="44.66375" lon="5.04822">
        <ele>893</ele>
        <time>2026-05-26T10:30:57.000Z</time>
      </trkpt>
      <trkpt lat="44.66375" lon="5.04823">
        <ele>893</ele>
        <time>2026-05-26T10:30:58.000Z</time>
      </trkpt>
      <trkpt lat="44.66375" lon="5.04825">
        <ele>893</ele>
        <time>2026-05-26T10:30:59.000Z</time>
      </trkpt>
      <trkpt lat="44.66376" lon="5.04825">
        <ele>892</ele>
        <time>2026-05-26T10:31:00.000Z</time>
      </trkpt>
      <trkpt lat="44.66375" lon="5.04826">
        <ele>893</ele>
        <time>2026-05-26T10:31:01.000Z</time>
      </trkpt>
      <trkpt lat="44.66376" lon="5.04827">
        <ele>893</ele>
        <time>2026-05-26T10:31:02.000Z</time>
      </trkpt>
      <trkpt lat="44.66376" lon="5.04827">
        <ele>892</ele>
        <time>2026-05-26T10:31:03.000Z</time>
      </trkpt>
      <trkpt lat="44.66377" lon="5.04829">
        <ele>892</ele>
        <time>2026-05-26T10:31:04.000Z</time>
      </trkpt>
      <trkpt lat="44.66377" lon="5.04829">
        <ele>892</ele>
        <time>2026-05-26T10:31:05.000Z</time>
      </trkpt>
      <trkpt lat="44.66378" lon="5.0483">
        <ele>892</ele>
        <time>2026-05-26T10:31:06.000Z</time>
      </trkpt>
      <trkpt lat="44.66378" lon="5.04831">
        <ele>892</ele>
        <time>2026-05-26T10:31:07.000Z</time>
      </trkpt>
      <trkpt lat="44.66378" lon="5.04832">
        <ele>892</ele>
        <time>2026-05-26T10:31:08.000Z</time>
      </trkpt>
      <trkpt lat="44.66378" lon="5.04834">
        <ele>891</ele>
        <time>2026-05-26T10:31:09.000Z</time>
      </trkpt>
      <trkpt lat="44.66377" lon="5.04835">
        <ele>891</ele>
        <time>2026-05-26T10:31:10.000Z</time>
      </trkpt>
      <trkpt lat="44.66377" lon="5.04836">
        <ele>892</ele>
        <time>2026-05-26T10:31:11.000Z</time>
      </trkpt>
      <trkpt lat="44.66377" lon="5.04838">
        <ele>892</ele>
        <time>2026-05-26T10:31:12.000Z</time>
      </trkpt>
      <trkpt lat="44.66378" lon="5.04839">
        <ele>891</ele>
        <time>2026-05-26T10:31:13.000Z</time>
      </trkpt>
      <trkpt lat="44.66378" lon="5.0484">
        <ele>890</ele>
        <time>2026-05-26T10:31:14.000Z</time>
      </trkpt>
      <trkpt lat="44.66378" lon="5.04841">
        <ele>890</ele>
        <time>2026-05-26T10:31:15.000Z</time>
      </trkpt>
      <trkpt lat="44.66379" lon="5.04841">
        <ele>890</ele>
        <time>2026-05-26T10:31:16.000Z</time>
      </trkpt>
      <trkpt lat="44.66379" lon="5.04841">
        <ele>890</ele>
        <time>2026-05-26T10:31:17.000Z</time>
      </trkpt>
      <trkpt lat="44.6638" lon="5.04843">
        <ele>889</ele>
        <time>2026-05-26T10:31:18.000Z</time>
      </trkpt>
      <trkpt lat="44.6638" lon="5.04845">
        <ele>888</ele>
        <time>2026-05-26T10:31:19.000Z</time>
      </trkpt>
      <trkpt lat="44.66381" lon="5.04848">
        <ele>888</ele>
        <time>2026-05-26T10:31:20.000Z</time>
      </trkpt>
      <trkpt lat="44.66382" lon="5.04849">
        <ele>888</ele>
        <time>2026-05-26T10:31:21.000Z</time>
      </trkpt>
      <trkpt lat="44.66383" lon="5.0485">
        <ele>888</ele>
        <time>2026-05-26T10:31:22.000Z</time>
      </trkpt>
      <trkpt lat="44.66384" lon="5.0485">
        <ele>887</ele>
        <time>2026-05-26T10:31:23.000Z</time>
      </trkpt>
      <trkpt lat="44.66386" lon="5.0485">
        <ele>886</ele>
        <time>2026-05-26T10:31:24.000Z</time>
      </trkpt>
      <trkpt lat="44.66387" lon="5.04849">
        <ele>886</ele>
        <time>2026-05-26T10:31:25.000Z</time>
      </trkpt>
      <trkpt lat="44.66387" lon="5.04849">
        <ele>886</ele>
        <time>2026-05-26T10:31:26.000Z</time>
      </trkpt>
      <trkpt lat="44.66387" lon="5.04851">
        <ele>886</ele>
        <time>2026-05-26T10:31:27.000Z</time>
      </trkpt>
      <trkpt lat="44.66387" lon="5.04851">
        <ele>886</ele>
        <time>2026-05-26T10:31:28.000Z</time>
      </trkpt>
      <trkpt lat="44.66387" lon="5.04852">
        <ele>886</ele>
        <time>2026-05-26T10:31:29.000Z</time>
      </trkpt>
      <trkpt lat="44.66388" lon="5.04853">
        <ele>886</ele>
        <time>2026-05-26T10:31:30.000Z</time>
      </trkpt>
      <trkpt lat="44.66389" lon="5.04854">
        <ele>886</ele>
        <time>2026-05-26T10:31:31.000Z</time>
      </trkpt>
      <trkpt lat="44.6639" lon="5.04853">
        <ele>886</ele>
        <time>2026-05-26T10:31:32.000Z</time>
      </trkpt>
      <trkpt lat="44.66391" lon="5.04853">
        <ele>886</ele>
        <time>2026-05-26T10:31:33.000Z</time>
      </trkpt>
      <trkpt lat="44.66391" lon="5.04853">
        <ele>885</ele>
        <time>2026-05-26T10:31:34.000Z</time>
      </trkpt>
      <trkpt lat="44.66391" lon="5.04854">
        <ele>885</ele>
        <time>2026-05-26T10:31:35.000Z</time>
      </trkpt>
      <trkpt lat="44.66391" lon="5.04855">
        <ele>884</ele>
        <time>2026-05-26T10:31:36.000Z</time>
      </trkpt>
      <trkpt lat="44.66392" lon="5.04856">
        <ele>884</ele>
        <time>2026-05-26T10:31:37.000Z</time>
      </trkpt>
      <trkpt lat="44.66392" lon="5.04857">
        <ele>884</ele>
        <time>2026-05-26T10:31:38.000Z</time>
      </trkpt>
      <trkpt lat="44.66391" lon="5.04858">
        <ele>884</ele>
        <time>2026-05-26T10:31:39.000Z</time>
      </trkpt>
      <trkpt lat="44.66391" lon="5.04859">
        <ele>884</ele>
        <time>2026-05-26T10:31:40.000Z</time>
      </trkpt>
      <trkpt lat="44.6639" lon="5.0486">
        <ele>883</ele>
        <time>2026-05-26T10:31:41.000Z</time>
      </trkpt>
      <trkpt lat="44.6639" lon="5.04861">
        <ele>883</ele>
        <time>2026-05-26T10:31:42.000Z</time>
      </trkpt>
      <trkpt lat="44.66389" lon="5.04863">
        <ele>883</ele>
        <time>2026-05-26T10:31:43.000Z</time>
      </trkpt>
      <trkpt lat="44.6639" lon="5.04864">
        <ele>883</ele>
        <time>2026-05-26T10:31:44.000Z</time>
      </trkpt>
      <trkpt lat="44.66389" lon="5.04865">
        <ele>883</ele>
        <time>2026-05-26T10:31:45.000Z</time>
      </trkpt>
      <trkpt lat="44.66389" lon="5.04866">
        <ele>883</ele>
        <time>2026-05-26T10:31:46.000Z</time>
      </trkpt>
      <trkpt lat="44.66389" lon="5.04866">
        <ele>884</ele>
        <time>2026-05-26T10:31:47.000Z</time>
      </trkpt>
      <trkpt lat="44.66389" lon="5.04866">
        <ele>884</ele>
        <time>2026-05-26T10:31:48.000Z</time>
      </trkpt>
      <trkpt lat="44.66389" lon="5.04867">
        <ele>882</ele>
        <time>2026-05-26T10:31:49.000Z</time>
      </trkpt>
      <trkpt lat="44.66388" lon="5.04869">
        <ele>882</ele>
        <time>2026-05-26T10:31:50.000Z</time>
      </trkpt>
      <trkpt lat="44.66387" lon="5.0487">
        <ele>882</ele>
        <time>2026-05-26T10:31:51.000Z</time>
      </trkpt>
      <trkpt lat="44.66386" lon="5.04871">
        <ele>881</ele>
        <time>2026-05-26T10:31:52.000Z</time>
      </trkpt>
      <trkpt lat="44.66385" lon="5.04873">
        <ele>882</ele>
        <time>2026-05-26T10:31:53.000Z</time>
      </trkpt>
      <trkpt lat="44.66385" lon="5.04873">
        <ele>881</ele>
        <time>2026-05-26T10:31:54.000Z</time>
      </trkpt>
      <trkpt lat="44.66385" lon="5.04872">
        <ele>880</ele>
        <time>2026-05-26T10:31:55.000Z</time>
      </trkpt>
      <trkpt lat="44.66385" lon="5.04872">
        <ele>880</ele>
        <time>2026-05-26T10:31:56.000Z</time>
      </trkpt>
      <trkpt lat="44.66385" lon="5.04872">
        <ele>880</ele>
        <time>2026-05-26T10:31:57.000Z</time>
      </trkpt>
      <trkpt lat="44.66385" lon="5.04872">
        <ele>880</ele>
        <time>2026-05-26T10:31:58.000Z</time>
      </trkpt>
      <trkpt lat="44.66385" lon="5.04872">
        <ele>880</ele>
        <time>2026-05-26T10:31:59.000Z</time>
      </trkpt>
      <trkpt lat="44.66385" lon="5.04872">
        <ele>880</ele>
        <time>2026-05-26T10:32:00.000Z</time>
      </trkpt>
      <trkpt lat="44.66385" lon="5.04872">
        <ele>880</ele>
        <time>2026-05-26T10:32:01.000Z</time>
      </trkpt>
      <trkpt lat="44.66385" lon="5.04872">
        <ele>880</ele>
        <time>2026-05-26T10:32:02.000Z</time>
      </trkpt>
      <trkpt lat="44.66385" lon="5.04875">
        <ele>879</ele>
        <time>2026-05-26T10:32:03.000Z</time>
      </trkpt>
      <trkpt lat="44.66385" lon="5.04875">
        <ele>879</ele>
        <time>2026-05-26T10:32:04.000Z</time>
      </trkpt>
      <trkpt lat="44.66385" lon="5.04875">
        <ele>879</ele>
        <time>2026-05-26T10:32:05.000Z</time>
      </trkpt>
      <trkpt lat="44.66385" lon="5.04875">
        <ele>879</ele>
        <time>2026-05-26T10:32:06.000Z</time>
      </trkpt>
      <trkpt lat="44.66385" lon="5.04875">
        <ele>879</ele>
        <time>2026-05-26T10:32:07.000Z</time>
      </trkpt>
      <trkpt lat="44.66385" lon="5.04875">
        <ele>879</ele>
        <time>2026-05-26T10:32:08.000Z</time>
      </trkpt>
      <trkpt lat="44.66385" lon="5.04875">
        <ele>879</ele>
        <time>2026-05-26T10:32:09.000Z</time>
      </trkpt>
      <trkpt lat="44.66385" lon="5.04875">
        <ele>879</ele>
        <time>2026-05-26T10:32:10.000Z</time>
      </trkpt>
      <trkpt lat="44.66385" lon="5.04875">
        <ele>879</ele>
        <time>2026-05-26T10:32:11.000Z</time>
      </trkpt>
      <trkpt lat="44.66385" lon="5.04875">
        <ele>879</ele>
        <time>2026-05-26T10:32:12.000Z</time>
      </trkpt>
      <trkpt lat="44.66385" lon="5.04875">
        <ele>879</ele>
        <time>2026-05-26T10:32:13.000Z</time>
      </trkpt>
      <trkpt lat="44.66385" lon="5.04875">
        <ele>879</ele>
        <time>2026-05-26T10:32:14.000Z</time>
      </trkpt>
      <trkpt lat="44.66385" lon="5.04875">
        <ele>879</ele>
        <time>2026-05-26T10:32:15.000Z</time>
      </trkpt>
      <trkpt lat="44.66385" lon="5.04875">
        <ele>879</ele>
        <time>2026-05-26T10:32:16.000Z</time>
      </trkpt>
      <trkpt lat="44.66385" lon="5.04875">
        <ele>879</ele>
        <time>2026-05-26T10:32:17.000Z</time>
      </trkpt>
      <trkpt lat="44.66385" lon="5.04875">
        <ele>879</ele>
        <time>2026-05-26T10:32:18.000Z</time>
      </trkpt>
      <trkpt lat="44.66385" lon="5.04875">
        <ele>879</ele>
        <time>2026-05-26T10:32:19.000Z</time>
      </trkpt>
      <trkpt lat="44.66385" lon="5.04875">
        <ele>879</ele>
        <time>2026-05-26T10:32:20.000Z</time>
      </trkpt>
      <trkpt lat="44.66386" lon="5.04875">
        <ele>879</ele>
        <time>2026-05-26T10:32:21.000Z</time>
      </trkpt>
      <trkpt lat="44.66385" lon="5.04875">
        <ele>879</ele>
        <time>2026-05-26T10:32:22.000Z</time>
      </trkpt>
      <trkpt lat="44.66385" lon="5.04874">
        <ele>879</ele>
        <time>2026-05-26T10:32:23.000Z</time>
      </trkpt>
      <trkpt lat="44.66385" lon="5.04874">
        <ele>879</ele>
        <time>2026-05-26T10:32:24.000Z</time>
      </trkpt>
      <trkpt lat="44.66385" lon="5.04874">
        <ele>879</ele>
        <time>2026-05-26T10:32:25.000Z</time>
      </trkpt>
      <trkpt lat="44.66385" lon="5.04874">
        <ele>879</ele>
        <time>2026-05-26T10:32:26.000Z</time>
      </trkpt>
      <trkpt lat="44.66385" lon="5.04874">
        <ele>879</ele>
        <time>2026-05-26T10:32:27.000Z</time>
      </trkpt>
      <trkpt lat="44.66385" lon="5.04874">
        <ele>879</ele>
        <time>2026-05-26T10:32:28.000Z</time>
      </trkpt>
      <trkpt lat="44.66385" lon="5.04874">
        <ele>879</ele>
        <time>2026-05-26T10:32:29.000Z</time>
      </trkpt>
      <trkpt lat="44.66385" lon="5.04874">
        <ele>879</ele>
        <time>2026-05-26T10:32:30.000Z</time>
      </trkpt>
      <trkpt lat="44.66385" lon="5.04874">
        <ele>879</ele>
        <time>2026-05-26T10:32:31.000Z</time>
      </trkpt>
      <trkpt lat="44.66385" lon="5.04875">
        <ele>879</ele>
        <time>2026-05-26T10:32:32.000Z</time>
      </trkpt>
      <trkpt lat="44.66385" lon="5.04874">
        <ele>879</ele>
        <time>2026-05-26T10:32:33.000Z</time>
      </trkpt>
      <trkpt lat="44.66385" lon="5.04874">
        <ele>878</ele>
        <time>2026-05-26T10:32:34.000Z</time>
      </trkpt>
      <trkpt lat="44.66386" lon="5.04874">
        <ele>878</ele>
        <time>2026-05-26T10:32:35.000Z</time>
      </trkpt>
      <trkpt lat="44.66386" lon="5.04874">
        <ele>878</ele>
        <time>2026-05-26T10:32:36.000Z</time>
      </trkpt>
      <trkpt lat="44.66386" lon="5.04874">
        <ele>878</ele>
        <time>2026-05-26T10:32:37.000Z</time>
      </trkpt>
      <trkpt lat="44.66386" lon="5.04874">
        <ele>878</ele>
        <time>2026-05-26T10:32:38.000Z</time>
      </trkpt>
      <trkpt lat="44.66386" lon="5.04874">
        <ele>878</ele>
        <time>2026-05-26T10:32:39.000Z</time>
      </trkpt>
      <trkpt lat="44.66386" lon="5.04874">
        <ele>878</ele>
        <time>2026-05-26T10:32:40.000Z</time>
      </trkpt>
      <trkpt lat="44.66386" lon="5.04874">
        <ele>878</ele>
        <time>2026-05-26T10:32:41.000Z</time>
      </trkpt>
      <trkpt lat="44.66386" lon="5.04874">
        <ele>878</ele>
        <time>2026-05-26T10:32:42.000Z</time>
      </trkpt>
      <trkpt lat="44.66386" lon="5.04874">
        <ele>878</ele>
        <time>2026-05-26T10:32:43.000Z</time>
      </trkpt>
      <trkpt lat="44.66386" lon="5.04874">
        <ele>878</ele>
        <time>2026-05-26T10:32:44.000Z</time>
      </trkpt>
      <trkpt lat="44.66386" lon="5.04874">
        <ele>878</ele>
        <time>2026-05-26T10:32:45.000Z</time>
      </trkpt>
      <trkpt lat="44.66386" lon="5.04874">
        <ele>878</ele>
        <time>2026-05-26T10:32:46.000Z</time>
      </trkpt>
      <trkpt lat="44.66386" lon="5.04874">
        <ele>878</ele>
        <time>2026-05-26T10:32:47.000Z</time>
      </trkpt>
      <trkpt lat="44.66386" lon="5.04874">
        <ele>878</ele>
        <time>2026-05-26T10:32:48.000Z</time>
      </trkpt>
      <trkpt lat="44.66386" lon="5.04874">
        <ele>878</ele>
        <time>2026-05-26T10:32:49.000Z</time>
      </trkpt>
      <trkpt lat="44.66386" lon="5.04874">
        <ele>878</ele>
        <time>2026-05-26T10:32:50.000Z</time>
      </trkpt>
      <trkpt lat="44.66386" lon="5.04874">
        <ele>878</ele>
        <time>2026-05-26T10:32:51.000Z</time>
      </trkpt>
      <trkpt lat="44.66386" lon="5.04874">
        <ele>878</ele>
        <time>2026-05-26T10:32:52.000Z</time>
      </trkpt>
      <trkpt lat="44.66386" lon="5.04874">
        <ele>878</ele>
        <time>2026-05-26T10:32:53.000Z</time>
      </trkpt>
      <trkpt lat="44.66386" lon="5.04874">
        <ele>878</ele>
        <time>2026-05-26T10:32:54.000Z</time>
      </trkpt>
      <trkpt lat="44.66386" lon="5.04874">
        <ele>878</ele>
        <time>2026-05-26T10:32:55.000Z</time>
      </trkpt>
      <trkpt lat="44.66386" lon="5.04874">
        <ele>878</ele>
        <time>2026-05-26T10:32:56.000Z</time>
      </trkpt>
      <trkpt lat="44.66386" lon="5.04874">
        <ele>878</ele>
        <time>2026-05-26T10:32:57.000Z</time>
      </trkpt>
      <trkpt lat="44.66386" lon="5.04874">
        <ele>878</ele>
        <time>2026-05-26T10:32:58.000Z</time>
      </trkpt>
      <trkpt lat="44.66387" lon="5.04873">
        <ele>878</ele>
        <time>2026-05-26T10:32:59.000Z</time>
      </trkpt>
      <trkpt lat="44.66386" lon="5.04874">
        <ele>879</ele>
        <time>2026-05-26T10:33:00.000Z</time>
      </trkpt>
      <trkpt lat="44.66385" lon="5.04874">
        <ele>878</ele>
        <time>2026-05-26T10:33:01.000Z</time>
      </trkpt>
      <trkpt lat="44.66384" lon="5.04874">
        <ele>877</ele>
        <time>2026-05-26T10:33:02.000Z</time>
      </trkpt>
      <trkpt lat="44.66384" lon="5.04874">
        <ele>877</ele>
        <time>2026-05-26T10:33:03.000Z</time>
      </trkpt>
      <trkpt lat="44.66384" lon="5.04875">
        <ele>877</ele>
        <time>2026-05-26T10:33:04.000Z</time>
      </trkpt>
      <trkpt lat="44.66384" lon="5.04875">
        <ele>877</ele>
        <time>2026-05-26T10:33:05.000Z</time>
      </trkpt>
      <trkpt lat="44.66384" lon="5.04875">
        <ele>877</ele>
        <time>2026-05-26T10:33:06.000Z</time>
      </trkpt>
      <trkpt lat="44.66382" lon="5.04877">
        <ele>877</ele>
        <time>2026-05-26T10:33:07.000Z</time>
      </trkpt>
      <trkpt lat="44.66381" lon="5.04878">
        <ele>877</ele>
        <time>2026-05-26T10:33:08.000Z</time>
      </trkpt>
      <trkpt lat="44.6638" lon="5.04878">
        <ele>877</ele>
        <time>2026-05-26T10:33:09.000Z</time>
      </trkpt>
      <trkpt lat="44.6638" lon="5.04879">
        <ele>877</ele>
        <time>2026-05-26T10:33:10.000Z</time>
      </trkpt>
      <trkpt lat="44.66379" lon="5.04879">
        <ele>878</ele>
        <time>2026-05-26T10:33:11.000Z</time>
      </trkpt>
      <trkpt lat="44.66378" lon="5.0488">
        <ele>878</ele>
        <time>2026-05-26T10:33:12.000Z</time>
      </trkpt>
      <trkpt lat="44.66377" lon="5.0488">
        <ele>878</ele>
        <time>2026-05-26T10:33:13.000Z</time>
      </trkpt>
      <trkpt lat="44.66377" lon="5.0488">
        <ele>878</ele>
        <time>2026-05-26T10:33:14.000Z</time>
      </trkpt>
      <trkpt lat="44.66375" lon="5.04879">
        <ele>878</ele>
        <time>2026-05-26T10:33:15.000Z</time>
      </trkpt>
      <trkpt lat="44.66374" lon="5.0488">
        <ele>878</ele>
        <time>2026-05-26T10:33:16.000Z</time>
      </trkpt>
      <trkpt lat="44.66374" lon="5.0488">
        <ele>878</ele>
        <time>2026-05-26T10:33:17.000Z</time>
      </trkpt>
      <trkpt lat="44.66374" lon="5.0488">
        <ele>878</ele>
        <time>2026-05-26T10:33:18.000Z</time>
      </trkpt>
      <trkpt lat="44.66374" lon="5.04881">
        <ele>877</ele>
        <time>2026-05-26T10:33:19.000Z</time>
      </trkpt>
      <trkpt lat="44.66374" lon="5.04881">
        <ele>877</ele>
        <time>2026-05-26T10:33:20.000Z</time>
      </trkpt>
      <trkpt lat="44.66374" lon="5.04881">
        <ele>878</ele>
        <time>2026-05-26T10:33:21.000Z</time>
      </trkpt>
      <trkpt lat="44.66374" lon="5.04882">
        <ele>877</ele>
        <time>2026-05-26T10:33:22.000Z</time>
      </trkpt>
      <trkpt lat="44.66373" lon="5.04882">
        <ele>877</ele>
        <time>2026-05-26T10:33:23.000Z</time>
      </trkpt>
      <trkpt lat="44.66372" lon="5.04883">
        <ele>877</ele>
        <time>2026-05-26T10:33:24.000Z</time>
      </trkpt>
      <trkpt lat="44.66371" lon="5.04883">
        <ele>877</ele>
        <time>2026-05-26T10:33:25.000Z</time>
      </trkpt>
      <trkpt lat="44.66372" lon="5.04883">
        <ele>876</ele>
        <time>2026-05-26T10:33:26.000Z</time>
      </trkpt>
      <trkpt lat="44.66371" lon="5.04884">
        <ele>877</ele>
        <time>2026-05-26T10:33:27.000Z</time>
      </trkpt>
      <trkpt lat="44.66369" lon="5.04885">
        <ele>876</ele>
        <time>2026-05-26T10:33:28.000Z</time>
      </trkpt>
      <trkpt lat="44.66368" lon="5.04886">
        <ele>876</ele>
        <time>2026-05-26T10:33:29.000Z</time>
      </trkpt>
      <trkpt lat="44.66368" lon="5.04886">
        <ele>876</ele>
        <time>2026-05-26T10:33:30.000Z</time>
      </trkpt>
      <trkpt lat="44.66367" lon="5.04887">
        <ele>876</ele>
        <time>2026-05-26T10:33:31.000Z</time>
      </trkpt>
      <trkpt lat="44.66367" lon="5.04888">
        <ele>875</ele>
        <time>2026-05-26T10:33:32.000Z</time>
      </trkpt>
      <trkpt lat="44.66366" lon="5.04889">
        <ele>875</ele>
        <time>2026-05-26T10:33:33.000Z</time>
      </trkpt>
      <trkpt lat="44.66366" lon="5.04889">
        <ele>874</ele>
        <time>2026-05-26T10:33:34.000Z</time>
      </trkpt>
      <trkpt lat="44.66365" lon="5.0489">
        <ele>875</ele>
        <time>2026-05-26T10:33:35.000Z</time>
      </trkpt>
      <trkpt lat="44.66365" lon="5.04891">
        <ele>875</ele>
        <time>2026-05-26T10:33:36.000Z</time>
      </trkpt>
      <trkpt lat="44.66363" lon="5.04892">
        <ele>874</ele>
        <time>2026-05-26T10:33:37.000Z</time>
      </trkpt>
      <trkpt lat="44.66362" lon="5.04891">
        <ele>873</ele>
        <time>2026-05-26T10:33:38.000Z</time>
      </trkpt>
      <trkpt lat="44.66361" lon="5.04892">
        <ele>873</ele>
        <time>2026-05-26T10:33:39.000Z</time>
      </trkpt>
      <trkpt lat="44.66361" lon="5.04893">
        <ele>873</ele>
        <time>2026-05-26T10:33:40.000Z</time>
      </trkpt>
      <trkpt lat="44.6636" lon="5.04893">
        <ele>873</ele>
        <time>2026-05-26T10:33:41.000Z</time>
      </trkpt>
      <trkpt lat="44.66359" lon="5.04895">
        <ele>873</ele>
        <time>2026-05-26T10:33:42.000Z</time>
      </trkpt>
      <trkpt lat="44.66359" lon="5.04896">
        <ele>872</ele>
        <time>2026-05-26T10:33:43.000Z</time>
      </trkpt>
      <trkpt lat="44.66359" lon="5.04896">
        <ele>872</ele>
        <time>2026-05-26T10:33:44.000Z</time>
      </trkpt>
      <trkpt lat="44.66358" lon="5.04897">
        <ele>872</ele>
        <time>2026-05-26T10:33:45.000Z</time>
      </trkpt>
      <trkpt lat="44.66357" lon="5.04897">
        <ele>873</ele>
        <time>2026-05-26T10:33:46.000Z</time>
      </trkpt>
      <trkpt lat="44.66356" lon="5.04897">
        <ele>872</ele>
        <time>2026-05-26T10:33:47.000Z</time>
      </trkpt>
      <trkpt lat="44.66355" lon="5.04898">
        <ele>872</ele>
        <time>2026-05-26T10:33:48.000Z</time>
      </trkpt>
      <trkpt lat="44.66354" lon="5.04899">
        <ele>873</ele>
        <time>2026-05-26T10:33:49.000Z</time>
      </trkpt>
      <trkpt lat="44.66353" lon="5.049">
        <ele>873</ele>
        <time>2026-05-26T10:33:50.000Z</time>
      </trkpt>
      <trkpt lat="44.66352" lon="5.049">
        <ele>873</ele>
        <time>2026-05-26T10:33:51.000Z</time>
      </trkpt>
      <trkpt lat="44.66352" lon="5.04902">
        <ele>872</ele>
        <time>2026-05-26T10:33:52.000Z</time>
      </trkpt>
      <trkpt lat="44.66352" lon="5.04903">
        <ele>872</ele>
        <time>2026-05-26T10:33:53.000Z</time>
      </trkpt>
      <trkpt lat="44.66352" lon="5.04903">
        <ele>872</ele>
        <time>2026-05-26T10:33:54.000Z</time>
      </trkpt>
      <trkpt lat="44.66351" lon="5.04904">
        <ele>871</ele>
        <time>2026-05-26T10:33:55.000Z</time>
      </trkpt>
      <trkpt lat="44.6635" lon="5.04907">
        <ele>871</ele>
        <time>2026-05-26T10:33:56.000Z</time>
      </trkpt>
      <trkpt lat="44.66349" lon="5.04908">
        <ele>871</ele>
        <time>2026-05-26T10:33:57.000Z</time>
      </trkpt>
      <trkpt lat="44.66349" lon="5.04909">
        <ele>871</ele>
        <time>2026-05-26T10:33:58.000Z</time>
      </trkpt>
      <trkpt lat="44.66349" lon="5.04911">
        <ele>871</ele>
        <time>2026-05-26T10:33:59.000Z</time>
      </trkpt>
      <trkpt lat="44.66349" lon="5.04912">
        <ele>871</ele>
        <time>2026-05-26T10:34:00.000Z</time>
      </trkpt>
      <trkpt lat="44.6635" lon="5.04912">
        <ele>873</ele>
        <time>2026-05-26T10:34:01.000Z</time>
      </trkpt>
      <trkpt lat="44.6635" lon="5.04913">
        <ele>872</ele>
        <time>2026-05-26T10:34:02.000Z</time>
      </trkpt>
      <trkpt lat="44.66351" lon="5.04915">
        <ele>872</ele>
        <time>2026-05-26T10:34:03.000Z</time>
      </trkpt>
      <trkpt lat="44.66352" lon="5.04915">
        <ele>871</ele>
        <time>2026-05-26T10:34:04.000Z</time>
      </trkpt>
      <trkpt lat="44.66353" lon="5.04916">
        <ele>871</ele>
        <time>2026-05-26T10:34:05.000Z</time>
      </trkpt>
      <trkpt lat="44.66353" lon="5.04917">
        <ele>870</ele>
        <time>2026-05-26T10:34:06.000Z</time>
      </trkpt>
      <trkpt lat="44.66354" lon="5.04918">
        <ele>869</ele>
        <time>2026-05-26T10:34:07.000Z</time>
      </trkpt>
      <trkpt lat="44.66354" lon="5.04919">
        <ele>870</ele>
        <time>2026-05-26T10:34:08.000Z</time>
      </trkpt>
      <trkpt lat="44.66355" lon="5.0492">
        <ele>871</ele>
        <time>2026-05-26T10:34:09.000Z</time>
      </trkpt>
      <trkpt lat="44.66355" lon="5.0492">
        <ele>871</ele>
        <time>2026-05-26T10:34:10.000Z</time>
      </trkpt>
      <trkpt lat="44.66356" lon="5.04922">
        <ele>871</ele>
        <time>2026-05-26T10:34:11.000Z</time>
      </trkpt>
      <trkpt lat="44.66357" lon="5.04923">
        <ele>871</ele>
        <time>2026-05-26T10:34:12.000Z</time>
      </trkpt>
      <trkpt lat="44.66358" lon="5.04923">
        <ele>871</ele>
        <time>2026-05-26T10:34:13.000Z</time>
      </trkpt>
      <trkpt lat="44.66359" lon="5.04926">
        <ele>871</ele>
        <time>2026-05-26T10:34:14.000Z</time>
      </trkpt>
      <trkpt lat="44.6636" lon="5.04927">
        <ele>870</ele>
        <time>2026-05-26T10:34:15.000Z</time>
      </trkpt>
      <trkpt lat="44.6636" lon="5.04927">
        <ele>870</ele>
        <time>2026-05-26T10:34:16.000Z</time>
      </trkpt>
      <trkpt lat="44.66361" lon="5.04928">
        <ele>870</ele>
        <time>2026-05-26T10:34:17.000Z</time>
      </trkpt>
      <trkpt lat="44.66361" lon="5.04929">
        <ele>870</ele>
        <time>2026-05-26T10:34:18.000Z</time>
      </trkpt>
      <trkpt lat="44.66361" lon="5.04929">
        <ele>869</ele>
        <time>2026-05-26T10:34:19.000Z</time>
      </trkpt>
      <trkpt lat="44.66361" lon="5.04931">
        <ele>869</ele>
        <time>2026-05-26T10:34:20.000Z</time>
      </trkpt>
      <trkpt lat="44.66362" lon="5.04932">
        <ele>869</ele>
        <time>2026-05-26T10:34:21.000Z</time>
      </trkpt>
      <trkpt lat="44.66362" lon="5.04933">
        <ele>868</ele>
        <time>2026-05-26T10:34:22.000Z</time>
      </trkpt>
      <trkpt lat="44.66361" lon="5.04934">
        <ele>868</ele>
        <time>2026-05-26T10:34:23.000Z</time>
      </trkpt>
      <trkpt lat="44.66362" lon="5.04935">
        <ele>868</ele>
        <time>2026-05-26T10:34:24.000Z</time>
      </trkpt>
      <trkpt lat="44.66362" lon="5.04937">
        <ele>868</ele>
        <time>2026-05-26T10:34:25.000Z</time>
      </trkpt>
      <trkpt lat="44.66362" lon="5.04938">
        <ele>868</ele>
        <time>2026-05-26T10:34:26.000Z</time>
      </trkpt>
      <trkpt lat="44.66362" lon="5.04939">
        <ele>867</ele>
        <time>2026-05-26T10:34:27.000Z</time>
      </trkpt>
      <trkpt lat="44.66363" lon="5.0494">
        <ele>867</ele>
        <time>2026-05-26T10:34:28.000Z</time>
      </trkpt>
      <trkpt lat="44.66364" lon="5.0494">
        <ele>866</ele>
        <time>2026-05-26T10:34:29.000Z</time>
      </trkpt>
      <trkpt lat="44.66364" lon="5.0494">
        <ele>866</ele>
        <time>2026-05-26T10:34:30.000Z</time>
      </trkpt>
      <trkpt lat="44.66365" lon="5.04939">
        <ele>865</ele>
        <time>2026-05-26T10:34:31.000Z</time>
      </trkpt>
      <trkpt lat="44.66365" lon="5.0494">
        <ele>865</ele>
        <time>2026-05-26T10:34:32.000Z</time>
      </trkpt>
      <trkpt lat="44.66365" lon="5.0494">
        <ele>865</ele>
        <time>2026-05-26T10:34:33.000Z</time>
      </trkpt>
      <trkpt lat="44.66365" lon="5.0494">
        <ele>865</ele>
        <time>2026-05-26T10:34:34.000Z</time>
      </trkpt>
      <trkpt lat="44.66365" lon="5.0494">
        <ele>865</ele>
        <time>2026-05-26T10:34:35.000Z</time>
      </trkpt>
      <trkpt lat="44.66365" lon="5.0494">
        <ele>865</ele>
        <time>2026-05-26T10:34:36.000Z</time>
      </trkpt>
      <trkpt lat="44.66365" lon="5.0494">
        <ele>865</ele>
        <time>2026-05-26T10:34:37.000Z</time>
      </trkpt>
      <trkpt lat="44.66365" lon="5.0494">
        <ele>865</ele>
        <time>2026-05-26T10:34:38.000Z</time>
      </trkpt>
      <trkpt lat="44.66365" lon="5.0494">
        <ele>865</ele>
        <time>2026-05-26T10:34:39.000Z</time>
      </trkpt>
      <trkpt lat="44.66365" lon="5.0494">
        <ele>865</ele>
        <time>2026-05-26T10:34:40.000Z</time>
      </trkpt>
      <trkpt lat="44.66365" lon="5.0494">
        <ele>865</ele>
        <time>2026-05-26T10:34:41.000Z</time>
      </trkpt>
      <trkpt lat="44.66365" lon="5.0494">
        <ele>865</ele>
        <time>2026-05-26T10:34:42.000Z</time>
      </trkpt>
      <trkpt lat="44.66365" lon="5.0494">
        <ele>865</ele>
        <time>2026-05-26T10:34:43.000Z</time>
      </trkpt>
      <trkpt lat="44.66365" lon="5.0494">
        <ele>865</ele>
        <time>2026-05-26T10:34:44.000Z</time>
      </trkpt>
      <trkpt lat="44.66365" lon="5.0494">
        <ele>865</ele>
        <time>2026-05-26T10:34:45.000Z</time>
      </trkpt>
      <trkpt lat="44.66365" lon="5.0494">
        <ele>865</ele>
        <time>2026-05-26T10:34:46.000Z</time>
      </trkpt>
      <trkpt lat="44.66365" lon="5.0494">
        <ele>865</ele>
        <time>2026-05-26T10:34:47.000Z</time>
      </trkpt>
      <trkpt lat="44.66365" lon="5.0494">
        <ele>865</ele>
        <time>2026-05-26T10:34:48.000Z</time>
      </trkpt>
      <trkpt lat="44.66364" lon="5.04939">
        <ele>864</ele>
        <time>2026-05-26T10:34:49.000Z</time>
      </trkpt>
      <trkpt lat="44.66364" lon="5.0494">
        <ele>863</ele>
        <time>2026-05-26T10:34:50.000Z</time>
      </trkpt>
      <trkpt lat="44.66365" lon="5.04941">
        <ele>863</ele>
        <time>2026-05-26T10:34:51.000Z</time>
      </trkpt>
      <trkpt lat="44.66365" lon="5.04942">
        <ele>864</ele>
        <time>2026-05-26T10:34:52.000Z</time>
      </trkpt>
      <trkpt lat="44.66366" lon="5.04943">
        <ele>863</ele>
        <time>2026-05-26T10:34:53.000Z</time>
      </trkpt>
      <trkpt lat="44.66366" lon="5.04943">
        <ele>864</ele>
        <time>2026-05-26T10:34:54.000Z</time>
      </trkpt>
      <trkpt lat="44.66366" lon="5.04945">
        <ele>864</ele>
        <time>2026-05-26T10:34:55.000Z</time>
      </trkpt>
      <trkpt lat="44.66367" lon="5.04946">
        <ele>864</ele>
        <time>2026-05-26T10:34:56.000Z</time>
      </trkpt>
      <trkpt lat="44.66367" lon="5.04947">
        <ele>863</ele>
        <time>2026-05-26T10:34:57.000Z</time>
      </trkpt>
      <trkpt lat="44.66368" lon="5.04947">
        <ele>863</ele>
        <time>2026-05-26T10:34:58.000Z</time>
      </trkpt>
      <trkpt lat="44.66368" lon="5.04949">
        <ele>863</ele>
        <time>2026-05-26T10:34:59.000Z</time>
      </trkpt>
      <trkpt lat="44.66368" lon="5.0495">
        <ele>864</ele>
        <time>2026-05-26T10:35:00.000Z</time>
      </trkpt>
      <trkpt lat="44.66368" lon="5.04951">
        <ele>864</ele>
        <time>2026-05-26T10:35:01.000Z</time>
      </trkpt>
      <trkpt lat="44.66369" lon="5.04952">
        <ele>864</ele>
        <time>2026-05-26T10:35:02.000Z</time>
      </trkpt>
      <trkpt lat="44.66369" lon="5.04954">
        <ele>864</ele>
        <time>2026-05-26T10:35:03.000Z</time>
      </trkpt>
      <trkpt lat="44.66369" lon="5.04955">
        <ele>864</ele>
        <time>2026-05-26T10:35:04.000Z</time>
      </trkpt>
      <trkpt lat="44.66369" lon="5.04956">
        <ele>863</ele>
        <time>2026-05-26T10:35:05.000Z</time>
      </trkpt>
      <trkpt lat="44.6637" lon="5.04958">
        <ele>863</ele>
        <time>2026-05-26T10:35:06.000Z</time>
      </trkpt>
      <trkpt lat="44.66369" lon="5.04959">
        <ele>863</ele>
        <time>2026-05-26T10:35:07.000Z</time>
      </trkpt>
      <trkpt lat="44.6637" lon="5.0496">
        <ele>863</ele>
        <time>2026-05-26T10:35:08.000Z</time>
      </trkpt>
      <trkpt lat="44.6637" lon="5.04962">
        <ele>862</ele>
        <time>2026-05-26T10:35:09.000Z</time>
      </trkpt>
      <trkpt lat="44.66371" lon="5.04964">
        <ele>862</ele>
        <time>2026-05-26T10:35:10.000Z</time>
      </trkpt>
      <trkpt lat="44.66371" lon="5.04965">
        <ele>862</ele>
        <time>2026-05-26T10:35:11.000Z</time>
      </trkpt>
      <trkpt lat="44.66371" lon="5.04966">
        <ele>864</ele>
        <time>2026-05-26T10:35:12.000Z</time>
      </trkpt>
      <trkpt lat="44.66372" lon="5.04966">
        <ele>864</ele>
        <time>2026-05-26T10:35:13.000Z</time>
      </trkpt>
      <trkpt lat="44.66372" lon="5.04966">
        <ele>864</ele>
        <time>2026-05-26T10:35:14.000Z</time>
      </trkpt>
      <trkpt lat="44.66372" lon="5.04967">
        <ele>864</ele>
        <time>2026-05-26T10:35:15.000Z</time>
      </trkpt>
      <trkpt lat="44.66371" lon="5.04967">
        <ele>864</ele>
        <time>2026-05-26T10:35:16.000Z</time>
      </trkpt>
      <trkpt lat="44.66371" lon="5.04968">
        <ele>864</ele>
        <time>2026-05-26T10:35:17.000Z</time>
      </trkpt>
      <trkpt lat="44.66372" lon="5.0497">
        <ele>864</ele>
        <time>2026-05-26T10:35:18.000Z</time>
      </trkpt>
      <trkpt lat="44.66372" lon="5.04971">
        <ele>863</ele>
        <time>2026-05-26T10:35:19.000Z</time>
      </trkpt>
      <trkpt lat="44.66372" lon="5.04971">
        <ele>863</ele>
        <time>2026-05-26T10:35:20.000Z</time>
      </trkpt>
      <trkpt lat="44.66372" lon="5.04971">
        <ele>863</ele>
        <time>2026-05-26T10:35:21.000Z</time>
      </trkpt>
      <trkpt lat="44.66372" lon="5.04971">
        <ele>863</ele>
        <time>2026-05-26T10:35:22.000Z</time>
      </trkpt>
      <trkpt lat="44.66372" lon="5.04971">
        <ele>863</ele>
        <time>2026-05-26T10:35:23.000Z</time>
      </trkpt>
      <trkpt lat="44.66372" lon="5.04971">
        <ele>863</ele>
        <time>2026-05-26T10:35:24.000Z</time>
      </trkpt>
      <trkpt lat="44.66372" lon="5.04971">
        <ele>863</ele>
        <time>2026-05-26T10:35:25.000Z</time>
      </trkpt>
      <trkpt lat="44.66372" lon="5.04971">
        <ele>863</ele>
        <time>2026-05-26T10:35:26.000Z</time>
      </trkpt>
      <trkpt lat="44.66372" lon="5.04971">
        <ele>863</ele>
        <time>2026-05-26T10:35:27.000Z</time>
      </trkpt>
      <trkpt lat="44.66372" lon="5.04971">
        <ele>863</ele>
        <time>2026-05-26T10:35:28.000Z</time>
      </trkpt>
      <trkpt lat="44.66372" lon="5.04974">
        <ele>864</ele>
        <time>2026-05-26T10:35:29.000Z</time>
      </trkpt>
      <trkpt lat="44.66372" lon="5.04975">
        <ele>863</ele>
        <time>2026-05-26T10:35:30.000Z</time>
      </trkpt>
      <trkpt lat="44.66372" lon="5.04977">
        <ele>864</ele>
        <time>2026-05-26T10:35:31.000Z</time>
      </trkpt>
      <trkpt lat="44.66372" lon="5.04979">
        <ele>864</ele>
        <time>2026-05-26T10:35:32.000Z</time>
      </trkpt>
      <trkpt lat="44.66373" lon="5.04981">
        <ele>865</ele>
        <time>2026-05-26T10:35:33.000Z</time>
      </trkpt>
      <trkpt lat="44.66374" lon="5.04982">
        <ele>865</ele>
        <time>2026-05-26T10:35:34.000Z</time>
      </trkpt>
      <trkpt lat="44.66374" lon="5.04983">
        <ele>865</ele>
        <time>2026-05-26T10:35:35.000Z</time>
      </trkpt>
      <trkpt lat="44.66375" lon="5.04984">
        <ele>865</ele>
        <time>2026-05-26T10:35:36.000Z</time>
      </trkpt>
      <trkpt lat="44.66376" lon="5.04985">
        <ele>865</ele>
        <time>2026-05-26T10:35:37.000Z</time>
      </trkpt>
      <trkpt lat="44.66376" lon="5.04986">
        <ele>864</ele>
        <time>2026-05-26T10:35:38.000Z</time>
      </trkpt>
      <trkpt lat="44.66376" lon="5.04987">
        <ele>864</ele>
        <time>2026-05-26T10:35:39.000Z</time>
      </trkpt>
      <trkpt lat="44.66376" lon="5.04988">
        <ele>863</ele>
        <time>2026-05-26T10:35:40.000Z</time>
      </trkpt>
      <trkpt lat="44.66376" lon="5.04989">
        <ele>863</ele>
        <time>2026-05-26T10:35:41.000Z</time>
      </trkpt>
      <trkpt lat="44.66377" lon="5.04991">
        <ele>863</ele>
        <time>2026-05-26T10:35:42.000Z</time>
      </trkpt>
      <trkpt lat="44.66377" lon="5.04992">
        <ele>863</ele>
        <time>2026-05-26T10:35:43.000Z</time>
      </trkpt>
      <trkpt lat="44.66377" lon="5.04992">
        <ele>863</ele>
        <time>2026-05-26T10:35:44.000Z</time>
      </trkpt>
      <trkpt lat="44.66378" lon="5.04993">
        <ele>865</ele>
        <time>2026-05-26T10:35:45.000Z</time>
      </trkpt>
      <trkpt lat="44.66378" lon="5.04995">
        <ele>865</ele>
        <time>2026-05-26T10:35:46.000Z</time>
      </trkpt>
      <trkpt lat="44.66378" lon="5.04996">
        <ele>865</ele>
        <time>2026-05-26T10:35:47.000Z</time>
      </trkpt>
      <trkpt lat="44.6638" lon="5.04998">
        <ele>865</ele>
        <time>2026-05-26T10:35:48.000Z</time>
      </trkpt>
      <trkpt lat="44.6638" lon="5.04998">
        <ele>866</ele>
        <time>2026-05-26T10:35:49.000Z</time>
      </trkpt>
      <trkpt lat="44.66381" lon="5.05">
        <ele>865</ele>
        <time>2026-05-26T10:35:50.000Z</time>
      </trkpt>
      <trkpt lat="44.66382" lon="5.05001">
        <ele>865</ele>
        <time>2026-05-26T10:35:51.000Z</time>
      </trkpt>
      <trkpt lat="44.66383" lon="5.05001">
        <ele>865</ele>
        <time>2026-05-26T10:35:52.000Z</time>
      </trkpt>
      <trkpt lat="44.66383" lon="5.05002">
        <ele>864</ele>
        <time>2026-05-26T10:35:53.000Z</time>
      </trkpt>
      <trkpt lat="44.66384" lon="5.05003">
        <ele>864</ele>
        <time>2026-05-26T10:35:54.000Z</time>
      </trkpt>
      <trkpt lat="44.66384" lon="5.05004">
        <ele>865</ele>
        <time>2026-05-26T10:35:55.000Z</time>
      </trkpt>
      <trkpt lat="44.66385" lon="5.05006">
        <ele>865</ele>
        <time>2026-05-26T10:35:56.000Z</time>
      </trkpt>
      <trkpt lat="44.66385" lon="5.05008">
        <ele>865</ele>
        <time>2026-05-26T10:35:57.000Z</time>
      </trkpt>
      <trkpt lat="44.66386" lon="5.0501">
        <ele>865</ele>
        <time>2026-05-26T10:35:58.000Z</time>
      </trkpt>
      <trkpt lat="44.66386" lon="5.05012">
        <ele>865</ele>
        <time>2026-05-26T10:35:59.000Z</time>
      </trkpt>
      <trkpt lat="44.66387" lon="5.05014">
        <ele>865</ele>
        <time>2026-05-26T10:36:00.000Z</time>
      </trkpt>
      <trkpt lat="44.66387" lon="5.05014">
        <ele>864</ele>
        <time>2026-05-26T10:36:01.000Z</time>
      </trkpt>
      <trkpt lat="44.66388" lon="5.05014">
        <ele>864</ele>
        <time>2026-05-26T10:36:02.000Z</time>
      </trkpt>
      <trkpt lat="44.66389" lon="5.05014">
        <ele>865</ele>
        <time>2026-05-26T10:36:03.000Z</time>
      </trkpt>
      <trkpt lat="44.66389" lon="5.05015">
        <ele>865</ele>
        <time>2026-05-26T10:36:04.000Z</time>
      </trkpt>
      <trkpt lat="44.6639" lon="5.05015">
        <ele>865</ele>
        <time>2026-05-26T10:36:05.000Z</time>
      </trkpt>
      <trkpt lat="44.6639" lon="5.05016">
        <ele>865</ele>
        <time>2026-05-26T10:36:06.000Z</time>
      </trkpt>
      <trkpt lat="44.66391" lon="5.05017">
        <ele>866</ele>
        <time>2026-05-26T10:36:07.000Z</time>
      </trkpt>
      <trkpt lat="44.66391" lon="5.05018">
        <ele>866</ele>
        <time>2026-05-26T10:36:08.000Z</time>
      </trkpt>
      <trkpt lat="44.66392" lon="5.0502">
        <ele>865</ele>
        <time>2026-05-26T10:36:09.000Z</time>
      </trkpt>
      <trkpt lat="44.66392" lon="5.0502">
        <ele>864</ele>
        <time>2026-05-26T10:36:10.000Z</time>
      </trkpt>
      <trkpt lat="44.66392" lon="5.05021">
        <ele>864</ele>
        <time>2026-05-26T10:36:11.000Z</time>
      </trkpt>
      <trkpt lat="44.66392" lon="5.05024">
        <ele>864</ele>
        <time>2026-05-26T10:36:12.000Z</time>
      </trkpt>
      <trkpt lat="44.66393" lon="5.05025">
        <ele>864</ele>
        <time>2026-05-26T10:36:13.000Z</time>
      </trkpt>
      <trkpt lat="44.66394" lon="5.05027">
        <ele>863</ele>
        <time>2026-05-26T10:36:14.000Z</time>
      </trkpt>
      <trkpt lat="44.66394" lon="5.05029">
        <ele>863</ele>
        <time>2026-05-26T10:36:15.000Z</time>
      </trkpt>
      <trkpt lat="44.66396" lon="5.0503">
        <ele>862</ele>
        <time>2026-05-26T10:36:16.000Z</time>
      </trkpt>
      <trkpt lat="44.66396" lon="5.05032">
        <ele>862</ele>
        <time>2026-05-26T10:36:17.000Z</time>
      </trkpt>
      <trkpt lat="44.66397" lon="5.05033">
        <ele>862</ele>
        <time>2026-05-26T10:36:18.000Z</time>
      </trkpt>
      <trkpt lat="44.66397" lon="5.05033">
        <ele>863</ele>
        <time>2026-05-26T10:36:19.000Z</time>
      </trkpt>
      <trkpt lat="44.66398" lon="5.05034">
        <ele>864</ele>
        <time>2026-05-26T10:36:20.000Z</time>
      </trkpt>
      <trkpt lat="44.66398" lon="5.05034">
        <ele>863</ele>
        <time>2026-05-26T10:36:21.000Z</time>
      </trkpt>
      <trkpt lat="44.66398" lon="5.05034">
        <ele>863</ele>
        <time>2026-05-26T10:36:22.000Z</time>
      </trkpt>
      <trkpt lat="44.66398" lon="5.05034">
        <ele>863</ele>
        <time>2026-05-26T10:36:23.000Z</time>
      </trkpt>
      <trkpt lat="44.66398" lon="5.05034">
        <ele>864</ele>
        <time>2026-05-26T10:36:24.000Z</time>
      </trkpt>
      <trkpt lat="44.66397" lon="5.05035">
        <ele>864</ele>
        <time>2026-05-26T10:36:25.000Z</time>
      </trkpt>
      <trkpt lat="44.66398" lon="5.05036">
        <ele>864</ele>
        <time>2026-05-26T10:36:26.000Z</time>
      </trkpt>
      <trkpt lat="44.66398" lon="5.05038">
        <ele>864</ele>
        <time>2026-05-26T10:36:27.000Z</time>
      </trkpt>
      <trkpt lat="44.66397" lon="5.05041">
        <ele>865</ele>
        <time>2026-05-26T10:36:28.000Z</time>
      </trkpt>
      <trkpt lat="44.66398" lon="5.05041">
        <ele>865</ele>
        <time>2026-05-26T10:36:29.000Z</time>
      </trkpt>
      <trkpt lat="44.66399" lon="5.05043">
        <ele>865</ele>
        <time>2026-05-26T10:36:30.000Z</time>
      </trkpt>
      <trkpt lat="44.664" lon="5.05043">
        <ele>865</ele>
        <time>2026-05-26T10:36:31.000Z</time>
      </trkpt>
      <trkpt lat="44.664" lon="5.05043">
        <ele>865</ele>
        <time>2026-05-26T10:36:32.000Z</time>
      </trkpt>
      <trkpt lat="44.66402" lon="5.05043">
        <ele>864</ele>
        <time>2026-05-26T10:36:33.000Z</time>
      </trkpt>
      <trkpt lat="44.66403" lon="5.05044">
        <ele>863</ele>
        <time>2026-05-26T10:36:34.000Z</time>
      </trkpt>
      <trkpt lat="44.66404" lon="5.05045">
        <ele>862</ele>
        <time>2026-05-26T10:36:35.000Z</time>
      </trkpt>
      <trkpt lat="44.66405" lon="5.05045">
        <ele>863</ele>
        <time>2026-05-26T10:36:36.000Z</time>
      </trkpt>
      <trkpt lat="44.66407" lon="5.05047">
        <ele>863</ele>
        <time>2026-05-26T10:36:37.000Z</time>
      </trkpt>
      <trkpt lat="44.66407" lon="5.05048">
        <ele>863</ele>
        <time>2026-05-26T10:36:38.000Z</time>
      </trkpt>
      <trkpt lat="44.66407" lon="5.05048">
        <ele>863</ele>
        <time>2026-05-26T10:36:39.000Z</time>
      </trkpt>
      <trkpt lat="44.66408" lon="5.05049">
        <ele>863</ele>
        <time>2026-05-26T10:36:40.000Z</time>
      </trkpt>
      <trkpt lat="44.66408" lon="5.0505">
        <ele>863</ele>
        <time>2026-05-26T10:36:41.000Z</time>
      </trkpt>
      <trkpt lat="44.66409" lon="5.05051">
        <ele>864</ele>
        <time>2026-05-26T10:36:42.000Z</time>
      </trkpt>
      <trkpt lat="44.66409" lon="5.05053">
        <ele>864</ele>
        <time>2026-05-26T10:36:43.000Z</time>
      </trkpt>
      <trkpt lat="44.6641" lon="5.05054">
        <ele>864</ele>
        <time>2026-05-26T10:36:44.000Z</time>
      </trkpt>
      <trkpt lat="44.6641" lon="5.05056">
        <ele>864</ele>
        <time>2026-05-26T10:36:45.000Z</time>
      </trkpt>
      <trkpt lat="44.6641" lon="5.05057">
        <ele>863</ele>
        <time>2026-05-26T10:36:46.000Z</time>
      </trkpt>
      <trkpt lat="44.6641" lon="5.05058">
        <ele>863</ele>
        <time>2026-05-26T10:36:47.000Z</time>
      </trkpt>
      <trkpt lat="44.6641" lon="5.0506">
        <ele>863</ele>
        <time>2026-05-26T10:36:48.000Z</time>
      </trkpt>
      <trkpt lat="44.6641" lon="5.05061">
        <ele>864</ele>
        <time>2026-05-26T10:36:49.000Z</time>
      </trkpt>
      <trkpt lat="44.66411" lon="5.05062">
        <ele>865</ele>
        <time>2026-05-26T10:36:50.000Z</time>
      </trkpt>
      <trkpt lat="44.66412" lon="5.05063">
        <ele>865</ele>
        <time>2026-05-26T10:36:51.000Z</time>
      </trkpt>
      <trkpt lat="44.66412" lon="5.05065">
        <ele>865</ele>
        <time>2026-05-26T10:36:52.000Z</time>
      </trkpt>
      <trkpt lat="44.66412" lon="5.05065">
        <ele>865</ele>
        <time>2026-05-26T10:36:53.000Z</time>
      </trkpt>
      <trkpt lat="44.66413" lon="5.05066">
        <ele>866</ele>
        <time>2026-05-26T10:36:54.000Z</time>
      </trkpt>
      <trkpt lat="44.66412" lon="5.05067">
        <ele>866</ele>
        <time>2026-05-26T10:36:55.000Z</time>
      </trkpt>
      <trkpt lat="44.66412" lon="5.05069">
        <ele>866</ele>
        <time>2026-05-26T10:36:56.000Z</time>
      </trkpt>
      <trkpt lat="44.66412" lon="5.05071">
        <ele>866</ele>
        <time>2026-05-26T10:36:57.000Z</time>
      </trkpt>
      <trkpt lat="44.66411" lon="5.05072">
        <ele>865</ele>
        <time>2026-05-26T10:36:58.000Z</time>
      </trkpt>
      <trkpt lat="44.66411" lon="5.05075">
        <ele>866</ele>
        <time>2026-05-26T10:36:59.000Z</time>
      </trkpt>
      <trkpt lat="44.6641" lon="5.05076">
        <ele>866</ele>
        <time>2026-05-26T10:37:00.000Z</time>
      </trkpt>
      <trkpt lat="44.66411" lon="5.05077">
        <ele>867</ele>
        <time>2026-05-26T10:37:01.000Z</time>
      </trkpt>
      <trkpt lat="44.66411" lon="5.05079">
        <ele>867</ele>
        <time>2026-05-26T10:37:02.000Z</time>
      </trkpt>
      <trkpt lat="44.66411" lon="5.05081">
        <ele>867</ele>
        <time>2026-05-26T10:37:03.000Z</time>
      </trkpt>
      <trkpt lat="44.66411" lon="5.05083">
        <ele>867</ele>
        <time>2026-05-26T10:37:04.000Z</time>
      </trkpt>
      <trkpt lat="44.66412" lon="5.05086">
        <ele>867</ele>
        <time>2026-05-26T10:37:05.000Z</time>
      </trkpt>
      <trkpt lat="44.66413" lon="5.05087">
        <ele>867</ele>
        <time>2026-05-26T10:37:06.000Z</time>
      </trkpt>
      <trkpt lat="44.66414" lon="5.05088">
        <ele>867</ele>
        <time>2026-05-26T10:37:07.000Z</time>
      </trkpt>
      <trkpt lat="44.66415" lon="5.0509">
        <ele>867</ele>
        <time>2026-05-26T10:37:08.000Z</time>
      </trkpt>
      <trkpt lat="44.66416" lon="5.0509">
        <ele>867</ele>
        <time>2026-05-26T10:37:09.000Z</time>
      </trkpt>
      <trkpt lat="44.66417" lon="5.05091">
        <ele>867</ele>
        <time>2026-05-26T10:37:10.000Z</time>
      </trkpt>
      <trkpt lat="44.66417" lon="5.05092">
        <ele>866</ele>
        <time>2026-05-26T10:37:11.000Z</time>
      </trkpt>
      <trkpt lat="44.66417" lon="5.05092">
        <ele>867</ele>
        <time>2026-05-26T10:37:12.000Z</time>
      </trkpt>
      <trkpt lat="44.66417" lon="5.05093">
        <ele>867</ele>
        <time>2026-05-26T10:37:13.000Z</time>
      </trkpt>
      <trkpt lat="44.66417" lon="5.05093">
        <ele>867</ele>
        <time>2026-05-26T10:37:14.000Z</time>
      </trkpt>
      <trkpt lat="44.66417" lon="5.05094">
        <ele>867</ele>
        <time>2026-05-26T10:37:15.000Z</time>
      </trkpt>
      <trkpt lat="44.66416" lon="5.05095">
        <ele>867</ele>
        <time>2026-05-26T10:37:16.000Z</time>
      </trkpt>
      <trkpt lat="44.66417" lon="5.05096">
        <ele>866</ele>
        <time>2026-05-26T10:37:17.000Z</time>
      </trkpt>
      <trkpt lat="44.66417" lon="5.05097">
        <ele>866</ele>
        <time>2026-05-26T10:37:18.000Z</time>
      </trkpt>
      <trkpt lat="44.66417" lon="5.05099">
        <ele>867</ele>
        <time>2026-05-26T10:37:19.000Z</time>
      </trkpt>
      <trkpt lat="44.66418" lon="5.05101">
        <ele>866</ele>
        <time>2026-05-26T10:37:20.000Z</time>
      </trkpt>
      <trkpt lat="44.66419" lon="5.05103">
        <ele>866</ele>
        <time>2026-05-26T10:37:21.000Z</time>
      </trkpt>
      <trkpt lat="44.66419" lon="5.05105">
        <ele>865</ele>
        <time>2026-05-26T10:37:22.000Z</time>
      </trkpt>
      <trkpt lat="44.66418" lon="5.05105">
        <ele>865</ele>
        <time>2026-05-26T10:37:23.000Z</time>
      </trkpt>
      <trkpt lat="44.66419" lon="5.05107">
        <ele>865</ele>
        <time>2026-05-26T10:37:24.000Z</time>
      </trkpt>
      <trkpt lat="44.66418" lon="5.05108">
        <ele>865</ele>
        <time>2026-05-26T10:37:25.000Z</time>
      </trkpt>
      <trkpt lat="44.66417" lon="5.05109">
        <ele>863</ele>
        <time>2026-05-26T10:37:26.000Z</time>
      </trkpt>
      <trkpt lat="44.66417" lon="5.05111">
        <ele>863</ele>
        <time>2026-05-26T10:37:27.000Z</time>
      </trkpt>
      <trkpt lat="44.66417" lon="5.05111">
        <ele>862</ele>
        <time>2026-05-26T10:37:28.000Z</time>
      </trkpt>
      <trkpt lat="44.66416" lon="5.05113">
        <ele>864</ele>
        <time>2026-05-26T10:37:29.000Z</time>
      </trkpt>
      <trkpt lat="44.66416" lon="5.05114">
        <ele>865</ele>
        <time>2026-05-26T10:37:30.000Z</time>
      </trkpt>
      <trkpt lat="44.66417" lon="5.05116">
        <ele>865</ele>
        <time>2026-05-26T10:37:31.000Z</time>
      </trkpt>
      <trkpt lat="44.66416" lon="5.05117">
        <ele>866</ele>
        <time>2026-05-26T10:37:32.000Z</time>
      </trkpt>
      <trkpt lat="44.66417" lon="5.05117">
        <ele>866</ele>
        <time>2026-05-26T10:37:33.000Z</time>
      </trkpt>
      <trkpt lat="44.66417" lon="5.05118">
        <ele>866</ele>
        <time>2026-05-26T10:37:34.000Z</time>
      </trkpt>
      <trkpt lat="44.66417" lon="5.05118">
        <ele>866</ele>
        <time>2026-05-26T10:37:35.000Z</time>
      </trkpt>
      <trkpt lat="44.66417" lon="5.05118">
        <ele>866</ele>
        <time>2026-05-26T10:37:36.000Z</time>
      </trkpt>
      <trkpt lat="44.66417" lon="5.05118">
        <ele>866</ele>
        <time>2026-05-26T10:37:37.000Z</time>
      </trkpt>
      <trkpt lat="44.66417" lon="5.05118">
        <ele>866</ele>
        <time>2026-05-26T10:37:38.000Z</time>
      </trkpt>
      <trkpt lat="44.66417" lon="5.05118">
        <ele>866</ele>
        <time>2026-05-26T10:37:39.000Z</time>
      </trkpt>
      <trkpt lat="44.66417" lon="5.05118">
        <ele>866</ele>
        <time>2026-05-26T10:37:40.000Z</time>
      </trkpt>
      <trkpt lat="44.66417" lon="5.05118">
        <ele>866</ele>
        <time>2026-05-26T10:37:41.000Z</time>
      </trkpt>
      <trkpt lat="44.66417" lon="5.05118">
        <ele>866</ele>
        <time>2026-05-26T10:37:42.000Z</time>
      </trkpt>
      <trkpt lat="44.66417" lon="5.05118">
        <ele>866</ele>
        <time>2026-05-26T10:37:43.000Z</time>
      </trkpt>
      <trkpt lat="44.66417" lon="5.05118">
        <ele>866</ele>
        <time>2026-05-26T10:37:44.000Z</time>
      </trkpt>
      <trkpt lat="44.66417" lon="5.05118">
        <ele>866</ele>
        <time>2026-05-26T10:37:45.000Z</time>
      </trkpt>
      <trkpt lat="44.66417" lon="5.05118">
        <ele>866</ele>
        <time>2026-05-26T10:37:46.000Z</time>
      </trkpt>
      <trkpt lat="44.66417" lon="5.05118">
        <ele>866</ele>
        <time>2026-05-26T10:37:47.000Z</time>
      </trkpt>
      <trkpt lat="44.66417" lon="5.05118">
        <ele>866</ele>
        <time>2026-05-26T10:37:48.000Z</time>
      </trkpt>
      <trkpt lat="44.66417" lon="5.05118">
        <ele>866</ele>
        <time>2026-05-26T10:37:49.000Z</time>
      </trkpt>
      <trkpt lat="44.66417" lon="5.05118">
        <ele>866</ele>
        <time>2026-05-26T10:37:50.000Z</time>
      </trkpt>
      <trkpt lat="44.66417" lon="5.05118">
        <ele>866</ele>
        <time>2026-05-26T10:37:51.000Z</time>
      </trkpt>
      <trkpt lat="44.66417" lon="5.05118">
        <ele>866</ele>
        <time>2026-05-26T10:37:52.000Z</time>
      </trkpt>
      <trkpt lat="44.66417" lon="5.05118">
        <ele>866</ele>
        <time>2026-05-26T10:37:53.000Z</time>
      </trkpt>
      <trkpt lat="44.66417" lon="5.05118">
        <ele>866</ele>
        <time>2026-05-26T10:37:54.000Z</time>
      </trkpt>
      <trkpt lat="44.66417" lon="5.05118">
        <ele>866</ele>
        <time>2026-05-26T10:37:55.000Z</time>
      </trkpt>
      <trkpt lat="44.66417" lon="5.05118">
        <ele>866</ele>
        <time>2026-05-26T10:37:56.000Z</time>
      </trkpt>
      <trkpt lat="44.66417" lon="5.05118">
        <ele>866</ele>
        <time>2026-05-26T10:37:57.000Z</time>
      </trkpt>
      <trkpt lat="44.66417" lon="5.05119">
        <ele>866</ele>
        <time>2026-05-26T10:37:58.000Z</time>
      </trkpt>
      <trkpt lat="44.66418" lon="5.0512">
        <ele>864</ele>
        <time>2026-05-26T10:37:59.000Z</time>
      </trkpt>
      <trkpt lat="44.66418" lon="5.05121">
        <ele>864</ele>
        <time>2026-05-26T10:38:00.000Z</time>
      </trkpt>
      <trkpt lat="44.66418" lon="5.05122">
        <ele>864</ele>
        <time>2026-05-26T10:38:01.000Z</time>
      </trkpt>
      <trkpt lat="44.66418" lon="5.05123">
        <ele>865</ele>
        <time>2026-05-26T10:38:02.000Z</time>
      </trkpt>
      <trkpt lat="44.66417" lon="5.05124">
        <ele>865</ele>
        <time>2026-05-26T10:38:03.000Z</time>
      </trkpt>
      <trkpt lat="44.66416" lon="5.05124">
        <ele>864</ele>
        <time>2026-05-26T10:38:04.000Z</time>
      </trkpt>
      <trkpt lat="44.66416" lon="5.05126">
        <ele>865</ele>
        <time>2026-05-26T10:38:05.000Z</time>
      </trkpt>
      <trkpt lat="44.66415" lon="5.05126">
        <ele>865</ele>
        <time>2026-05-26T10:38:06.000Z</time>
      </trkpt>
      <trkpt lat="44.66415" lon="5.05128">
        <ele>864</ele>
        <time>2026-05-26T10:38:07.000Z</time>
      </trkpt>
      <trkpt lat="44.66414" lon="5.05129">
        <ele>864</ele>
        <time>2026-05-26T10:38:08.000Z</time>
      </trkpt>
      <trkpt lat="44.66414" lon="5.0513">
        <ele>864</ele>
        <time>2026-05-26T10:38:09.000Z</time>
      </trkpt>
      <trkpt lat="44.66413" lon="5.05131">
        <ele>863</ele>
        <time>2026-05-26T10:38:10.000Z</time>
      </trkpt>
      <trkpt lat="44.66413" lon="5.05132">
        <ele>863</ele>
        <time>2026-05-26T10:38:11.000Z</time>
      </trkpt>
      <trkpt lat="44.66413" lon="5.05134">
        <ele>863</ele>
        <time>2026-05-26T10:38:12.000Z</time>
      </trkpt>
      <trkpt lat="44.66412" lon="5.05135">
        <ele>864</ele>
        <time>2026-05-26T10:38:13.000Z</time>
      </trkpt>
      <trkpt lat="44.66412" lon="5.05135">
        <ele>865</ele>
        <time>2026-05-26T10:38:14.000Z</time>
      </trkpt>
      <trkpt lat="44.66412" lon="5.05137">
        <ele>865</ele>
        <time>2026-05-26T10:38:15.000Z</time>
      </trkpt>
      <trkpt lat="44.66412" lon="5.05139">
        <ele>865</ele>
        <time>2026-05-26T10:38:16.000Z</time>
      </trkpt>
      <trkpt lat="44.66413" lon="5.0514">
        <ele>864</ele>
        <time>2026-05-26T10:38:17.000Z</time>
      </trkpt>
      <trkpt lat="44.66413" lon="5.05141">
        <ele>864</ele>
        <time>2026-05-26T10:38:18.000Z</time>
      </trkpt>
      <trkpt lat="44.66413" lon="5.05142">
        <ele>865</ele>
        <time>2026-05-26T10:38:19.000Z</time>
      </trkpt>
      <trkpt lat="44.66413" lon="5.05143">
        <ele>865</ele>
        <time>2026-05-26T10:38:20.000Z</time>
      </trkpt>
      <trkpt lat="44.66413" lon="5.05144">
        <ele>864</ele>
        <time>2026-05-26T10:38:21.000Z</time>
      </trkpt>
      <trkpt lat="44.66413" lon="5.05146">
        <ele>865</ele>
        <time>2026-05-26T10:38:22.000Z</time>
      </trkpt>
      <trkpt lat="44.66414" lon="5.05147">
        <ele>864</ele>
        <time>2026-05-26T10:38:23.000Z</time>
      </trkpt>
      <trkpt lat="44.66414" lon="5.05149">
        <ele>864</ele>
        <time>2026-05-26T10:38:24.000Z</time>
      </trkpt>
      <trkpt lat="44.66414" lon="5.05152">
        <ele>863</ele>
        <time>2026-05-26T10:38:25.000Z</time>
      </trkpt>
      <trkpt lat="44.66414" lon="5.05154">
        <ele>862</ele>
        <time>2026-05-26T10:38:26.000Z</time>
      </trkpt>
      <trkpt lat="44.66415" lon="5.05155">
        <ele>862</ele>
        <time>2026-05-26T10:38:27.000Z</time>
      </trkpt>
      <trkpt lat="44.66415" lon="5.05157">
        <ele>862</ele>
        <time>2026-05-26T10:38:28.000Z</time>
      </trkpt>
      <trkpt lat="44.66415" lon="5.05159">
        <ele>862</ele>
        <time>2026-05-26T10:38:29.000Z</time>
      </trkpt>
      <trkpt lat="44.66415" lon="5.05159">
        <ele>862</ele>
        <time>2026-05-26T10:38:30.000Z</time>
      </trkpt>
      <trkpt lat="44.66416" lon="5.05162">
        <ele>862</ele>
        <time>2026-05-26T10:38:31.000Z</time>
      </trkpt>
      <trkpt lat="44.66416" lon="5.05164">
        <ele>861</ele>
        <time>2026-05-26T10:38:32.000Z</time>
      </trkpt>
      <trkpt lat="44.66417" lon="5.05165">
        <ele>861</ele>
        <time>2026-05-26T10:38:33.000Z</time>
      </trkpt>
      <trkpt lat="44.66418" lon="5.05165">
        <ele>861</ele>
        <time>2026-05-26T10:38:34.000Z</time>
      </trkpt>
      <trkpt lat="44.66419" lon="5.05167">
        <ele>862</ele>
        <time>2026-05-26T10:38:35.000Z</time>
      </trkpt>
      <trkpt lat="44.6642" lon="5.05168">
        <ele>861</ele>
        <time>2026-05-26T10:38:36.000Z</time>
      </trkpt>
      <trkpt lat="44.66421" lon="5.0517">
        <ele>861</ele>
        <time>2026-05-26T10:38:37.000Z</time>
      </trkpt>
      <trkpt lat="44.66422" lon="5.05171">
        <ele>861</ele>
        <time>2026-05-26T10:38:38.000Z</time>
      </trkpt>
      <trkpt lat="44.66423" lon="5.05171">
        <ele>862</ele>
        <time>2026-05-26T10:38:39.000Z</time>
      </trkpt>
      <trkpt lat="44.66423" lon="5.05171">
        <ele>862</ele>
        <time>2026-05-26T10:38:40.000Z</time>
      </trkpt>
      <trkpt lat="44.66425" lon="5.05172">
        <ele>862</ele>
        <time>2026-05-26T10:38:41.000Z</time>
      </trkpt>
      <trkpt lat="44.66425" lon="5.05174">
        <ele>862</ele>
        <time>2026-05-26T10:38:42.000Z</time>
      </trkpt>
      <trkpt lat="44.66426" lon="5.05175">
        <ele>862</ele>
        <time>2026-05-26T10:38:43.000Z</time>
      </trkpt>
      <trkpt lat="44.66426" lon="5.05175">
        <ele>862</ele>
        <time>2026-05-26T10:38:44.000Z</time>
      </trkpt>
      <trkpt lat="44.66427" lon="5.05176">
        <ele>862</ele>
        <time>2026-05-26T10:38:45.000Z</time>
      </trkpt>
      <trkpt lat="44.66429" lon="5.05178">
        <ele>862</ele>
        <time>2026-05-26T10:38:46.000Z</time>
      </trkpt>
      <trkpt lat="44.66429" lon="5.05179">
        <ele>861</ele>
        <time>2026-05-26T10:38:47.000Z</time>
      </trkpt>
      <trkpt lat="44.66429" lon="5.05178">
        <ele>862</ele>
        <time>2026-05-26T10:38:48.000Z</time>
      </trkpt>
      <trkpt lat="44.6643" lon="5.05179">
        <ele>863</ele>
        <time>2026-05-26T10:38:49.000Z</time>
      </trkpt>
      <trkpt lat="44.6643" lon="5.05179">
        <ele>863</ele>
        <time>2026-05-26T10:38:50.000Z</time>
      </trkpt>
      <trkpt lat="44.6643" lon="5.05179">
        <ele>863</ele>
        <time>2026-05-26T10:38:51.000Z</time>
      </trkpt>
      <trkpt lat="44.6643" lon="5.05179">
        <ele>863</ele>
        <time>2026-05-26T10:38:52.000Z</time>
      </trkpt>
      <trkpt lat="44.66431" lon="5.0518">
        <ele>863</ele>
        <time>2026-05-26T10:38:53.000Z</time>
      </trkpt>
      <trkpt lat="44.66431" lon="5.0518">
        <ele>863</ele>
        <time>2026-05-26T10:38:54.000Z</time>
      </trkpt>
      <trkpt lat="44.66431" lon="5.05181">
        <ele>863</ele>
        <time>2026-05-26T10:38:55.000Z</time>
      </trkpt>
      <trkpt lat="44.66431" lon="5.05181">
        <ele>863</ele>
        <time>2026-05-26T10:38:56.000Z</time>
      </trkpt>
      <trkpt lat="44.66431" lon="5.05181">
        <ele>863</ele>
        <time>2026-05-26T10:38:57.000Z</time>
      </trkpt>
      <trkpt lat="44.66431" lon="5.05181">
        <ele>863</ele>
        <time>2026-05-26T10:38:58.000Z</time>
      </trkpt>
      <trkpt lat="44.66431" lon="5.05181">
        <ele>863</ele>
        <time>2026-05-26T10:38:59.000Z</time>
      </trkpt>
      <trkpt lat="44.66431" lon="5.05181">
        <ele>863</ele>
        <time>2026-05-26T10:39:00.000Z</time>
      </trkpt>
      <trkpt lat="44.66431" lon="5.0518">
        <ele>862</ele>
        <time>2026-05-26T10:39:01.000Z</time>
      </trkpt>
      <trkpt lat="44.66431" lon="5.0518">
        <ele>863</ele>
        <time>2026-05-26T10:39:02.000Z</time>
      </trkpt>
      <trkpt lat="44.66431" lon="5.0518">
        <ele>864</ele>
        <time>2026-05-26T10:39:03.000Z</time>
      </trkpt>
      <trkpt lat="44.66431" lon="5.05181">
        <ele>863</ele>
        <time>2026-05-26T10:39:04.000Z</time>
      </trkpt>
      <trkpt lat="44.66431" lon="5.05181">
        <ele>863</ele>
        <time>2026-05-26T10:39:05.000Z</time>
      </trkpt>
      <trkpt lat="44.66431" lon="5.05181">
        <ele>863</ele>
        <time>2026-05-26T10:39:06.000Z</time>
      </trkpt>
      <trkpt lat="44.66431" lon="5.05181">
        <ele>863</ele>
        <time>2026-05-26T10:39:07.000Z</time>
      </trkpt>
      <trkpt lat="44.66431" lon="5.05181">
        <ele>863</ele>
        <time>2026-05-26T10:39:08.000Z</time>
      </trkpt>
      <trkpt lat="44.66431" lon="5.05181">
        <ele>863</ele>
        <time>2026-05-26T10:39:09.000Z</time>
      </trkpt>
      <trkpt lat="44.66433" lon="5.05184">
        <ele>861</ele>
        <time>2026-05-26T10:39:10.000Z</time>
      </trkpt>
      <trkpt lat="44.66433" lon="5.05185">
        <ele>861</ele>
        <time>2026-05-26T10:39:11.000Z</time>
      </trkpt>
      <trkpt lat="44.66433" lon="5.05186">
        <ele>861</ele>
        <time>2026-05-26T10:39:12.000Z</time>
      </trkpt>
      <trkpt lat="44.66433" lon="5.05187">
        <ele>860</ele>
        <time>2026-05-26T10:39:13.000Z</time>
      </trkpt>
      <trkpt lat="44.66433" lon="5.05187">
        <ele>860</ele>
        <time>2026-05-26T10:39:14.000Z</time>
      </trkpt>
      <trkpt lat="44.66432" lon="5.05188">
        <ele>860</ele>
        <time>2026-05-26T10:39:15.000Z</time>
      </trkpt>
      <trkpt lat="44.66432" lon="5.05189">
        <ele>860</ele>
        <time>2026-05-26T10:39:16.000Z</time>
      </trkpt>
      <trkpt lat="44.66431" lon="5.05191">
        <ele>861</ele>
        <time>2026-05-26T10:39:17.000Z</time>
      </trkpt>
      <trkpt lat="44.66431" lon="5.05191">
        <ele>861</ele>
        <time>2026-05-26T10:39:18.000Z</time>
      </trkpt>
      <trkpt lat="44.66431" lon="5.05191">
        <ele>861</ele>
        <time>2026-05-26T10:39:19.000Z</time>
      </trkpt>
      <trkpt lat="44.66432" lon="5.05191">
        <ele>861</ele>
        <time>2026-05-26T10:39:20.000Z</time>
      </trkpt>
      <trkpt lat="44.66432" lon="5.05191">
        <ele>861</ele>
        <time>2026-05-26T10:39:21.000Z</time>
      </trkpt>
      <trkpt lat="44.66432" lon="5.05191">
        <ele>861</ele>
        <time>2026-05-26T10:39:22.000Z</time>
      </trkpt>
      <trkpt lat="44.66432" lon="5.05191">
        <ele>861</ele>
        <time>2026-05-26T10:39:23.000Z</time>
      </trkpt>
      <trkpt lat="44.66432" lon="5.0519">
        <ele>861</ele>
        <time>2026-05-26T10:39:24.000Z</time>
      </trkpt>
      <trkpt lat="44.66433" lon="5.05189">
        <ele>862</ele>
        <time>2026-05-26T10:39:25.000Z</time>
      </trkpt>
      <trkpt lat="44.66432" lon="5.05189">
        <ele>863</ele>
        <time>2026-05-26T10:39:26.000Z</time>
      </trkpt>
      <trkpt lat="44.66432" lon="5.0519">
        <ele>863</ele>
        <time>2026-05-26T10:39:27.000Z</time>
      </trkpt>
      <trkpt lat="44.66432" lon="5.0519">
        <ele>864</ele>
        <time>2026-05-26T10:39:28.000Z</time>
      </trkpt>
      <trkpt lat="44.66431" lon="5.05191">
        <ele>864</ele>
        <time>2026-05-26T10:39:29.000Z</time>
      </trkpt>
      <trkpt lat="44.6643" lon="5.05192">
        <ele>865</ele>
        <time>2026-05-26T10:39:30.000Z</time>
      </trkpt>
      <trkpt lat="44.66429" lon="5.05193">
        <ele>866</ele>
        <time>2026-05-26T10:39:31.000Z</time>
      </trkpt>
      <trkpt lat="44.66429" lon="5.05194">
        <ele>866</ele>
        <time>2026-05-26T10:39:32.000Z</time>
      </trkpt>
      <trkpt lat="44.66429" lon="5.05195">
        <ele>866</ele>
        <time>2026-05-26T10:39:33.000Z</time>
      </trkpt>
      <trkpt lat="44.66428" lon="5.05196">
        <ele>865</ele>
        <time>2026-05-26T10:39:34.000Z</time>
      </trkpt>
      <trkpt lat="44.66428" lon="5.05196">
        <ele>865</ele>
        <time>2026-05-26T10:39:35.000Z</time>
      </trkpt>
      <trkpt lat="44.66428" lon="5.05196">
        <ele>865</ele>
        <time>2026-05-26T10:39:36.000Z</time>
      </trkpt>
      <trkpt lat="44.66428" lon="5.05196">
        <ele>865</ele>
        <time>2026-05-26T10:39:37.000Z</time>
      </trkpt>
      <trkpt lat="44.66428" lon="5.05196">
        <ele>865</ele>
        <time>2026-05-26T10:39:38.000Z</time>
      </trkpt>
      <trkpt lat="44.66428" lon="5.05196">
        <ele>865</ele>
        <time>2026-05-26T10:39:39.000Z</time>
      </trkpt>
      <trkpt lat="44.66428" lon="5.05196">
        <ele>865</ele>
        <time>2026-05-26T10:39:40.000Z</time>
      </trkpt>
      <trkpt lat="44.66428" lon="5.05196">
        <ele>865</ele>
        <time>2026-05-26T10:39:41.000Z</time>
      </trkpt>
      <trkpt lat="44.66428" lon="5.05196">
        <ele>865</ele>
        <time>2026-05-26T10:39:42.000Z</time>
      </trkpt>
      <trkpt lat="44.66428" lon="5.05196">
        <ele>865</ele>
        <time>2026-05-26T10:39:43.000Z</time>
      </trkpt>
      <trkpt lat="44.66428" lon="5.05196">
        <ele>865</ele>
        <time>2026-05-26T10:39:44.000Z</time>
      </trkpt>
      <trkpt lat="44.66428" lon="5.05196">
        <ele>865</ele>
        <time>2026-05-26T10:39:45.000Z</time>
      </trkpt>
      <trkpt lat="44.66428" lon="5.05196">
        <ele>865</ele>
        <time>2026-05-26T10:39:46.000Z</time>
      </trkpt>
      <trkpt lat="44.66428" lon="5.05196">
        <ele>865</ele>
        <time>2026-05-26T10:39:47.000Z</time>
      </trkpt>
      <trkpt lat="44.66428" lon="5.05196">
        <ele>865</ele>
        <time>2026-05-26T10:39:48.000Z</time>
      </trkpt>
      <trkpt lat="44.66428" lon="5.05196">
        <ele>865</ele>
        <time>2026-05-26T10:39:49.000Z</time>
      </trkpt>
      <trkpt lat="44.66428" lon="5.05196">
        <ele>865</ele>
        <time>2026-05-26T10:39:50.000Z</time>
      </trkpt>
      <trkpt lat="44.66428" lon="5.05196">
        <ele>865</ele>
        <time>2026-05-26T10:39:51.000Z</time>
      </trkpt>
      <trkpt lat="44.66428" lon="5.05196">
        <ele>865</ele>
        <time>2026-05-26T10:39:52.000Z</time>
      </trkpt>
      <trkpt lat="44.66428" lon="5.05196">
        <ele>865</ele>
        <time>2026-05-26T10:39:53.000Z</time>
      </trkpt>
      <trkpt lat="44.66428" lon="5.05196">
        <ele>865</ele>
        <time>2026-05-26T10:39:54.000Z</time>
      </trkpt>
      <trkpt lat="44.66428" lon="5.05196">
        <ele>865</ele>
        <time>2026-05-26T10:39:55.000Z</time>
      </trkpt>
      <trkpt lat="44.66428" lon="5.05196">
        <ele>865</ele>
        <time>2026-05-26T10:39:56.000Z</time>
      </trkpt>
      <trkpt lat="44.66428" lon="5.05196">
        <ele>865</ele>
        <time>2026-05-26T10:39:57.000Z</time>
      </trkpt>
      <trkpt lat="44.66428" lon="5.05196">
        <ele>865</ele>
        <time>2026-05-26T10:39:58.000Z</time>
      </trkpt>
      <trkpt lat="44.66428" lon="5.05196">
        <ele>865</ele>
        <time>2026-05-26T10:39:59.000Z</time>
      </trkpt>
      <trkpt lat="44.66428" lon="5.05196">
        <ele>865</ele>
        <time>2026-05-26T10:40:00.000Z</time>
      </trkpt>
      <trkpt lat="44.66428" lon="5.05196">
        <ele>865</ele>
        <time>2026-05-26T10:40:01.000Z</time>
      </trkpt>
      <trkpt lat="44.66428" lon="5.05196">
        <ele>865</ele>
        <time>2026-05-26T10:40:02.000Z</time>
      </trkpt>
      <trkpt lat="44.66428" lon="5.05196">
        <ele>865</ele>
        <time>2026-05-26T10:40:03.000Z</time>
      </trkpt>
      <trkpt lat="44.66428" lon="5.05196">
        <ele>865</ele>
        <time>2026-05-26T10:40:04.000Z</time>
      </trkpt>
      <trkpt lat="44.66428" lon="5.05196">
        <ele>865</ele>
        <time>2026-05-26T10:40:05.000Z</time>
      </trkpt>
      <trkpt lat="44.66428" lon="5.05196">
        <ele>865</ele>
        <time>2026-05-26T10:40:06.000Z</time>
      </trkpt>
      <trkpt lat="44.66428" lon="5.05196">
        <ele>865</ele>
        <time>2026-05-26T10:40:07.000Z</time>
      </trkpt>
      <trkpt lat="44.66428" lon="5.05196">
        <ele>865</ele>
        <time>2026-05-26T10:40:08.000Z</time>
      </trkpt>
      <trkpt lat="44.66428" lon="5.05196">
        <ele>865</ele>
        <time>2026-05-26T10:40:09.000Z</time>
      </trkpt>
      <trkpt lat="44.66428" lon="5.05196">
        <ele>865</ele>
        <time>2026-05-26T10:40:10.000Z</time>
      </trkpt>
      <trkpt lat="44.66428" lon="5.05198">
        <ele>864</ele>
        <time>2026-05-26T10:40:11.000Z</time>
      </trkpt>
      <trkpt lat="44.66427" lon="5.05198">
        <ele>864</ele>
        <time>2026-05-26T10:40:12.000Z</time>
      </trkpt>
      <trkpt lat="44.66428" lon="5.05198">
        <ele>863</ele>
        <time>2026-05-26T10:40:13.000Z</time>
      </trkpt>
      <trkpt lat="44.66429" lon="5.05198">
        <ele>864</ele>
        <time>2026-05-26T10:40:14.000Z</time>
      </trkpt>
      <trkpt lat="44.66429" lon="5.05198">
        <ele>863</ele>
        <time>2026-05-26T10:40:15.000Z</time>
      </trkpt>
      <trkpt lat="44.6643" lon="5.05197">
        <ele>863</ele>
        <time>2026-05-26T10:40:16.000Z</time>
      </trkpt>
      <trkpt lat="44.6643" lon="5.05197">
        <ele>863</ele>
        <time>2026-05-26T10:40:17.000Z</time>
      </trkpt>
      <trkpt lat="44.66431" lon="5.05195">
        <ele>864</ele>
        <time>2026-05-26T10:40:18.000Z</time>
      </trkpt>
      <trkpt lat="44.66432" lon="5.05194">
        <ele>863</ele>
        <time>2026-05-26T10:40:19.000Z</time>
      </trkpt>
      <trkpt lat="44.66432" lon="5.05194">
        <ele>863</ele>
        <time>2026-05-26T10:40:20.000Z</time>
      </trkpt>
      <trkpt lat="44.66432" lon="5.05194">
        <ele>862</ele>
        <time>2026-05-26T10:40:21.000Z</time>
      </trkpt>
      <trkpt lat="44.66432" lon="5.05193">
        <ele>862</ele>
        <time>2026-05-26T10:40:22.000Z</time>
      </trkpt>
      <trkpt lat="44.66432" lon="5.05193">
        <ele>862</ele>
        <time>2026-05-26T10:40:23.000Z</time>
      </trkpt>
      <trkpt lat="44.66432" lon="5.05193">
        <ele>862</ele>
        <time>2026-05-26T10:40:24.000Z</time>
      </trkpt>
      <trkpt lat="44.66432" lon="5.05193">
        <ele>862</ele>
        <time>2026-05-26T10:40:25.000Z</time>
      </trkpt>
      <trkpt lat="44.66432" lon="5.05193">
        <ele>862</ele>
        <time>2026-05-26T10:40:26.000Z</time>
      </trkpt>
      <trkpt lat="44.66432" lon="5.05193">
        <ele>862</ele>
        <time>2026-05-26T10:40:27.000Z</time>
      </trkpt>
      <trkpt lat="44.66432" lon="5.05193">
        <ele>862</ele>
        <time>2026-05-26T10:40:28.000Z</time>
      </trkpt>
      <trkpt lat="44.66432" lon="5.05193">
        <ele>862</ele>
        <time>2026-05-26T10:40:29.000Z</time>
      </trkpt>
      <trkpt lat="44.66432" lon="5.05193">
        <ele>862</ele>
        <time>2026-05-26T10:40:30.000Z</time>
      </trkpt>
      <trkpt lat="44.66432" lon="5.05193">
        <ele>862</ele>
        <time>2026-05-26T10:40:31.000Z</time>
      </trkpt>
      <trkpt lat="44.66432" lon="5.05193">
        <ele>862</ele>
        <time>2026-05-26T10:40:32.000Z</time>
      </trkpt>
      <trkpt lat="44.66434" lon="5.0519">
        <ele>862</ele>
        <time>2026-05-26T10:40:33.000Z</time>
      </trkpt>
      <trkpt lat="44.66434" lon="5.0519">
        <ele>862</ele>
        <time>2026-05-26T10:40:34.000Z</time>
      </trkpt>
      <trkpt lat="44.66434" lon="5.0519">
        <ele>862</ele>
        <time>2026-05-26T10:40:35.000Z</time>
      </trkpt>
      <trkpt lat="44.66434" lon="5.0519">
        <ele>862</ele>
        <time>2026-05-26T10:40:36.000Z</time>
      </trkpt>
      <trkpt lat="44.66434" lon="5.0519">
        <ele>862</ele>
        <time>2026-05-26T10:40:37.000Z</time>
      </trkpt>
      <trkpt lat="44.66434" lon="5.0519">
        <ele>862</ele>
        <time>2026-05-26T10:40:38.000Z</time>
      </trkpt>
      <trkpt lat="44.66434" lon="5.0519">
        <ele>862</ele>
        <time>2026-05-26T10:40:39.000Z</time>
      </trkpt>
      <trkpt lat="44.66434" lon="5.0519">
        <ele>862</ele>
        <time>2026-05-26T10:40:40.000Z</time>
      </trkpt>
      <trkpt lat="44.66434" lon="5.05188">
        <ele>862</ele>
        <time>2026-05-26T10:40:41.000Z</time>
      </trkpt>
      <trkpt lat="44.66435" lon="5.05188">
        <ele>862</ele>
        <time>2026-05-26T10:40:42.000Z</time>
      </trkpt>
      <trkpt lat="44.66434" lon="5.05188">
        <ele>861</ele>
        <time>2026-05-26T10:40:43.000Z</time>
      </trkpt>
      <trkpt lat="44.66435" lon="5.05189">
        <ele>861</ele>
        <time>2026-05-26T10:40:44.000Z</time>
      </trkpt>
      <trkpt lat="44.66435" lon="5.05189">
        <ele>861</ele>
        <time>2026-05-26T10:40:45.000Z</time>
      </trkpt>
      <trkpt lat="44.66435" lon="5.05189">
        <ele>861</ele>
        <time>2026-05-26T10:40:46.000Z</time>
      </trkpt>
      <trkpt lat="44.66435" lon="5.05189">
        <ele>861</ele>
        <time>2026-05-26T10:40:47.000Z</time>
      </trkpt>
      <trkpt lat="44.66435" lon="5.05189">
        <ele>861</ele>
        <time>2026-05-26T10:40:48.000Z</time>
      </trkpt>
      <trkpt lat="44.66435" lon="5.05189">
        <ele>861</ele>
        <time>2026-05-26T10:40:49.000Z</time>
      </trkpt>
      <trkpt lat="44.66435" lon="5.05189">
        <ele>861</ele>
        <time>2026-05-26T10:40:50.000Z</time>
      </trkpt>
      <trkpt lat="44.66435" lon="5.05189">
        <ele>861</ele>
        <time>2026-05-26T10:40:51.000Z</time>
      </trkpt>
      <trkpt lat="44.66435" lon="5.05189">
        <ele>861</ele>
        <time>2026-05-26T10:40:52.000Z</time>
      </trkpt>
      <trkpt lat="44.66435" lon="5.05189">
        <ele>861</ele>
        <time>2026-05-26T10:40:53.000Z</time>
      </trkpt>
      <trkpt lat="44.66435" lon="5.05189">
        <ele>861</ele>
        <time>2026-05-26T10:40:54.000Z</time>
      </trkpt>
      <trkpt lat="44.66435" lon="5.05189">
        <ele>861</ele>
        <time>2026-05-26T10:40:55.000Z</time>
      </trkpt>
      <trkpt lat="44.66435" lon="5.05189">
        <ele>861</ele>
        <time>2026-05-26T10:40:56.000Z</time>
      </trkpt>
      <trkpt lat="44.66435" lon="5.05189">
        <ele>861</ele>
        <time>2026-05-26T10:40:57.000Z</time>
      </trkpt>
      <trkpt lat="44.66433" lon="5.0519">
        <ele>864</ele>
        <time>2026-05-26T10:40:58.000Z</time>
      </trkpt>
      <trkpt lat="44.66433" lon="5.0519">
        <ele>864</ele>
        <time>2026-05-26T10:40:59.000Z</time>
      </trkpt>
      <trkpt lat="44.66433" lon="5.0519">
        <ele>864</ele>
        <time>2026-05-26T10:41:00.000Z</time>
      </trkpt>
      <trkpt lat="44.66433" lon="5.0519">
        <ele>864</ele>
        <time>2026-05-26T10:41:01.000Z</time>
      </trkpt>
      <trkpt lat="44.66433" lon="5.0519">
        <ele>864</ele>
        <time>2026-05-26T10:41:02.000Z</time>
      </trkpt>
      <trkpt lat="44.66433" lon="5.0519">
        <ele>864</ele>
        <time>2026-05-26T10:41:03.000Z</time>
      </trkpt>
      <trkpt lat="44.66433" lon="5.0519">
        <ele>864</ele>
        <time>2026-05-26T10:41:04.000Z</time>
      </trkpt>
      <trkpt lat="44.66433" lon="5.0519">
        <ele>864</ele>
        <time>2026-05-26T10:41:05.000Z</time>
      </trkpt>
      <trkpt lat="44.66433" lon="5.0519">
        <ele>864</ele>
        <time>2026-05-26T10:41:06.000Z</time>
      </trkpt>
      <trkpt lat="44.66433" lon="5.05192">
        <ele>862</ele>
        <time>2026-05-26T10:41:07.000Z</time>
      </trkpt>
      <trkpt lat="44.66433" lon="5.05192">
        <ele>862</ele>
        <time>2026-05-26T10:41:08.000Z</time>
      </trkpt>
      <trkpt lat="44.66433" lon="5.05192">
        <ele>862</ele>
        <time>2026-05-26T10:41:09.000Z</time>
      </trkpt>
      <trkpt lat="44.66433" lon="5.05192">
        <ele>862</ele>
        <time>2026-05-26T10:41:10.000Z</time>
      </trkpt>
      <trkpt lat="44.66433" lon="5.05192">
        <ele>862</ele>
        <time>2026-05-26T10:41:11.000Z</time>
      </trkpt>
      <trkpt lat="44.66433" lon="5.05192">
        <ele>862</ele>
        <time>2026-05-26T10:41:12.000Z</time>
      </trkpt>
      <trkpt lat="44.66433" lon="5.05192">
        <ele>862</ele>
        <time>2026-05-26T10:41:13.000Z</time>
      </trkpt>
      <trkpt lat="44.66433" lon="5.05192">
        <ele>862</ele>
        <time>2026-05-26T10:41:14.000Z</time>
      </trkpt>
      <trkpt lat="44.66433" lon="5.05192">
        <ele>862</ele>
        <time>2026-05-26T10:41:15.000Z</time>
      </trkpt>
      <trkpt lat="44.66433" lon="5.05192">
        <ele>862</ele>
        <time>2026-05-26T10:41:16.000Z</time>
      </trkpt>
      <trkpt lat="44.66433" lon="5.05192">
        <ele>862</ele>
        <time>2026-05-26T10:41:17.000Z</time>
      </trkpt>
      <trkpt lat="44.66433" lon="5.05192">
        <ele>862</ele>
        <time>2026-05-26T10:41:18.000Z</time>
      </trkpt>
      <trkpt lat="44.66433" lon="5.05192">
        <ele>862</ele>
        <time>2026-05-26T10:41:19.000Z</time>
      </trkpt>
      <trkpt lat="44.66433" lon="5.05192">
        <ele>862</ele>
        <time>2026-05-26T10:41:20.000Z</time>
      </trkpt>
      <trkpt lat="44.66433" lon="5.05192">
        <ele>862</ele>
        <time>2026-05-26T10:41:21.000Z</time>
      </trkpt>
      <trkpt lat="44.66433" lon="5.05192">
        <ele>862</ele>
        <time>2026-05-26T10:41:22.000Z</time>
      </trkpt>
      <trkpt lat="44.66433" lon="5.05192">
        <ele>862</ele>
        <time>2026-05-26T10:41:23.000Z</time>
      </trkpt>
      <trkpt lat="44.66433" lon="5.05192">
        <ele>862</ele>
        <time>2026-05-26T10:41:24.000Z</time>
      </trkpt>
      <trkpt lat="44.66433" lon="5.05192">
        <ele>862</ele>
        <time>2026-05-26T10:41:25.000Z</time>
      </trkpt>
      <trkpt lat="44.66433" lon="5.05192">
        <ele>862</ele>
        <time>2026-05-26T10:41:26.000Z</time>
      </trkpt>
      <trkpt lat="44.66433" lon="5.05192">
        <ele>862</ele>
        <time>2026-05-26T10:41:27.000Z</time>
      </trkpt>
      <trkpt lat="44.66433" lon="5.05193">
        <ele>862</ele>
        <time>2026-05-26T10:41:28.000Z</time>
      </trkpt>
      <trkpt lat="44.66433" lon="5.05193">
        <ele>862</ele>
        <time>2026-05-26T10:41:29.000Z</time>
      </trkpt>
      <trkpt lat="44.66433" lon="5.05193">
        <ele>862</ele>
        <time>2026-05-26T10:41:30.000Z</time>
      </trkpt>
      <trkpt lat="44.66433" lon="5.05193">
        <ele>862</ele>
        <time>2026-05-26T10:41:31.000Z</time>
      </trkpt>
      <trkpt lat="44.66433" lon="5.05193">
        <ele>862</ele>
        <time>2026-05-26T10:41:32.000Z</time>
      </trkpt>
      <trkpt lat="44.66433" lon="5.05193">
        <ele>862</ele>
        <time>2026-05-26T10:41:33.000Z</time>
      </trkpt>
      <trkpt lat="44.66433" lon="5.05193">
        <ele>862</ele>
        <time>2026-05-26T10:41:34.000Z</time>
      </trkpt>
      <trkpt lat="44.66433" lon="5.05193">
        <ele>862</ele>
        <time>2026-05-26T10:41:35.000Z</time>
      </trkpt>
      <trkpt lat="44.66433" lon="5.05193">
        <ele>862</ele>
        <time>2026-05-26T10:41:36.000Z</time>
      </trkpt>
      <trkpt lat="44.66433" lon="5.05193">
        <ele>862</ele>
        <time>2026-05-26T10:41:37.000Z</time>
      </trkpt>
      <trkpt lat="44.66433" lon="5.05193">
        <ele>862</ele>
        <time>2026-05-26T10:41:38.000Z</time>
      </trkpt>
      <trkpt lat="44.66433" lon="5.05193">
        <ele>862</ele>
        <time>2026-05-26T10:41:39.000Z</time>
      </trkpt>
      <trkpt lat="44.66433" lon="5.05193">
        <ele>862</ele>
        <time>2026-05-26T10:41:40.000Z</time>
      </trkpt>
      <trkpt lat="44.66433" lon="5.05193">
        <ele>862</ele>
        <time>2026-05-26T10:41:41.000Z</time>
      </trkpt>
      <trkpt lat="44.66433" lon="5.05193">
        <ele>862</ele>
        <time>2026-05-26T10:41:42.000Z</time>
      </trkpt>
      <trkpt lat="44.66433" lon="5.05193">
        <ele>862</ele>
        <time>2026-05-26T10:41:43.000Z</time>
      </trkpt>
      <trkpt lat="44.66433" lon="5.05193">
        <ele>862</ele>
        <time>2026-05-26T10:41:44.000Z</time>
      </trkpt>
      <trkpt lat="44.66433" lon="5.05193">
        <ele>862</ele>
        <time>2026-05-26T10:41:45.000Z</time>
      </trkpt>
      <trkpt lat="44.66433" lon="5.05193">
        <ele>862</ele>
        <time>2026-05-26T10:41:46.000Z</time>
      </trkpt>
      <trkpt lat="44.66433" lon="5.05193">
        <ele>862</ele>
        <time>2026-05-26T10:41:47.000Z</time>
      </trkpt>
      <trkpt lat="44.66433" lon="5.05193">
        <ele>862</ele>
        <time>2026-05-26T10:41:48.000Z</time>
      </trkpt>
      <trkpt lat="44.66433" lon="5.05193">
        <ele>862</ele>
        <time>2026-05-26T10:41:49.000Z</time>
      </trkpt>
      <trkpt lat="44.66433" lon="5.05193">
        <ele>862</ele>
        <time>2026-05-26T10:41:50.000Z</time>
      </trkpt>
      <trkpt lat="44.66433" lon="5.05193">
        <ele>862</ele>
        <time>2026-05-26T10:41:51.000Z</time>
      </trkpt>
      <trkpt lat="44.66433" lon="5.05193">
        <ele>862</ele>
        <time>2026-05-26T10:41:52.000Z</time>
      </trkpt>
      <trkpt lat="44.66433" lon="5.05193">
        <ele>862</ele>
        <time>2026-05-26T10:41:53.000Z</time>
      </trkpt>
      <trkpt lat="44.66433" lon="5.05193">
        <ele>862</ele>
        <time>2026-05-26T10:41:54.000Z</time>
      </trkpt>
      <trkpt lat="44.66433" lon="5.05193">
        <ele>862</ele>
        <time>2026-05-26T10:41:55.000Z</time>
      </trkpt>
      <trkpt lat="44.66433" lon="5.05193">
        <ele>862</ele>
        <time>2026-05-26T10:41:56.000Z</time>
      </trkpt>
      <trkpt lat="44.66433" lon="5.05193">
        <ele>862</ele>
        <time>2026-05-26T10:41:57.000Z</time>
      </trkpt>
      <trkpt lat="44.66433" lon="5.05193">
        <ele>862</ele>
        <time>2026-05-26T10:41:58.000Z</time>
      </trkpt>
      <trkpt lat="44.66433" lon="5.05193">
        <ele>862</ele>
        <time>2026-05-26T10:41:59.000Z</time>
      </trkpt>
      <trkpt lat="44.66433" lon="5.05193">
        <ele>862</ele>
        <time>2026-05-26T10:42:00.000Z</time>
      </trkpt>
      <trkpt lat="44.66433" lon="5.05193">
        <ele>862</ele>
        <time>2026-05-26T10:42:01.000Z</time>
      </trkpt>
      <trkpt lat="44.66433" lon="5.05193">
        <ele>862</ele>
        <time>2026-05-26T10:42:02.000Z</time>
      </trkpt>
      <trkpt lat="44.66432" lon="5.05192">
        <ele>861</ele>
        <time>2026-05-26T10:42:03.000Z</time>
      </trkpt>
      <trkpt lat="44.66433" lon="5.05191">
        <ele>861</ele>
        <time>2026-05-26T10:42:04.000Z</time>
      </trkpt>
      <trkpt lat="44.66433" lon="5.05191">
        <ele>861</ele>
        <time>2026-05-26T10:42:05.000Z</time>
      </trkpt>
      <trkpt lat="44.66433" lon="5.05191">
        <ele>861</ele>
        <time>2026-05-26T10:42:06.000Z</time>
      </trkpt>
      <trkpt lat="44.66433" lon="5.05191">
        <ele>861</ele>
        <time>2026-05-26T10:42:07.000Z</time>
      </trkpt>
      <trkpt lat="44.66433" lon="5.05191">
        <ele>861</ele>
        <time>2026-05-26T10:42:08.000Z</time>
      </trkpt>
      <trkpt lat="44.66433" lon="5.05191">
        <ele>861</ele>
        <time>2026-05-26T10:42:09.000Z</time>
      </trkpt>
      <trkpt lat="44.66433" lon="5.05191">
        <ele>861</ele>
        <time>2026-05-26T10:42:10.000Z</time>
      </trkpt>
      <trkpt lat="44.66433" lon="5.05191">
        <ele>861</ele>
        <time>2026-05-26T10:42:11.000Z</time>
      </trkpt>
      <trkpt lat="44.66433" lon="5.05191">
        <ele>861</ele>
        <time>2026-05-26T10:42:12.000Z</time>
      </trkpt>
      <trkpt lat="44.66433" lon="5.05191">
        <ele>861</ele>
        <time>2026-05-26T10:42:13.000Z</time>
      </trkpt>
      <trkpt lat="44.66433" lon="5.05191">
        <ele>861</ele>
        <time>2026-05-26T10:42:14.000Z</time>
      </trkpt>
      <trkpt lat="44.66433" lon="5.05191">
        <ele>861</ele>
        <time>2026-05-26T10:42:15.000Z</time>
      </trkpt>
      <trkpt lat="44.66433" lon="5.05191">
        <ele>861</ele>
        <time>2026-05-26T10:42:16.000Z</time>
      </trkpt>
      <trkpt lat="44.66433" lon="5.05191">
        <ele>861</ele>
        <time>2026-05-26T10:42:17.000Z</time>
      </trkpt>
      <trkpt lat="44.66433" lon="5.05191">
        <ele>861</ele>
        <time>2026-05-26T10:42:18.000Z</time>
      </trkpt>
      <trkpt lat="44.66433" lon="5.05191">
        <ele>861</ele>
        <time>2026-05-26T10:42:19.000Z</time>
      </trkpt>
      <trkpt lat="44.66433" lon="5.05191">
        <ele>861</ele>
        <time>2026-05-26T10:42:20.000Z</time>
      </trkpt>
      <trkpt lat="44.66431" lon="5.05191">
        <ele>860</ele>
        <time>2026-05-26T10:42:21.000Z</time>
      </trkpt>
      <trkpt lat="44.66431" lon="5.05193">
        <ele>860</ele>
        <time>2026-05-26T10:42:22.000Z</time>
      </trkpt>
      <trkpt lat="44.66431" lon="5.05193">
        <ele>860</ele>
        <time>2026-05-26T10:42:23.000Z</time>
      </trkpt>
      <trkpt lat="44.66431" lon="5.05192">
        <ele>860</ele>
        <time>2026-05-26T10:42:24.000Z</time>
      </trkpt>
      <trkpt lat="44.66431" lon="5.05193">
        <ele>860</ele>
        <time>2026-05-26T10:42:25.000Z</time>
      </trkpt>
      <trkpt lat="44.6643" lon="5.05194">
        <ele>860</ele>
        <time>2026-05-26T10:42:26.000Z</time>
      </trkpt>
      <trkpt lat="44.6643" lon="5.05194">
        <ele>859</ele>
        <time>2026-05-26T10:42:27.000Z</time>
      </trkpt>
      <trkpt lat="44.6643" lon="5.05194">
        <ele>859</ele>
        <time>2026-05-26T10:42:28.000Z</time>
      </trkpt>
      <trkpt lat="44.6643" lon="5.05194">
        <ele>859</ele>
        <time>2026-05-26T10:42:29.000Z</time>
      </trkpt>
      <trkpt lat="44.6643" lon="5.05194">
        <ele>859</ele>
        <time>2026-05-26T10:42:30.000Z</time>
      </trkpt>
      <trkpt lat="44.6643" lon="5.05194">
        <ele>859</ele>
        <time>2026-05-26T10:42:31.000Z</time>
      </trkpt>
      <trkpt lat="44.6643" lon="5.05194">
        <ele>859</ele>
        <time>2026-05-26T10:42:32.000Z</time>
      </trkpt>
      <trkpt lat="44.6643" lon="5.05194">
        <ele>859</ele>
        <time>2026-05-26T10:42:33.000Z</time>
      </trkpt>
      <trkpt lat="44.6643" lon="5.05194">
        <ele>859</ele>
        <time>2026-05-26T10:42:34.000Z</time>
      </trkpt>
      <trkpt lat="44.6643" lon="5.05194">
        <ele>859</ele>
        <time>2026-05-26T10:42:35.000Z</time>
      </trkpt>
      <trkpt lat="44.6643" lon="5.05194">
        <ele>859</ele>
        <time>2026-05-26T10:42:36.000Z</time>
      </trkpt>
      <trkpt lat="44.6643" lon="5.05194">
        <ele>859</ele>
        <time>2026-05-26T10:42:37.000Z</time>
      </trkpt>
      <trkpt lat="44.6643" lon="5.05194">
        <ele>859</ele>
        <time>2026-05-26T10:42:38.000Z</time>
      </trkpt>
      <trkpt lat="44.6643" lon="5.05194">
        <ele>859</ele>
        <time>2026-05-26T10:42:39.000Z</time>
      </trkpt>
      <trkpt lat="44.6643" lon="5.05194">
        <ele>859</ele>
        <time>2026-05-26T10:42:40.000Z</time>
      </trkpt>
      <trkpt lat="44.6643" lon="5.05194">
        <ele>859</ele>
        <time>2026-05-26T10:42:41.000Z</time>
      </trkpt>
      <trkpt lat="44.6643" lon="5.05194">
        <ele>859</ele>
        <time>2026-05-26T10:42:42.000Z</time>
      </trkpt>
      <trkpt lat="44.6643" lon="5.05194">
        <ele>859</ele>
        <time>2026-05-26T10:42:43.000Z</time>
      </trkpt>
      <trkpt lat="44.6643" lon="5.05194">
        <ele>859</ele>
        <time>2026-05-26T10:42:44.000Z</time>
      </trkpt>
      <trkpt lat="44.6643" lon="5.05194">
        <ele>859</ele>
        <time>2026-05-26T10:42:45.000Z</time>
      </trkpt>
      <trkpt lat="44.6643" lon="5.05194">
        <ele>859</ele>
        <time>2026-05-26T10:42:46.000Z</time>
      </trkpt>
      <trkpt lat="44.6643" lon="5.05194">
        <ele>859</ele>
        <time>2026-05-26T10:42:47.000Z</time>
      </trkpt>
      <trkpt lat="44.6643" lon="5.05194">
        <ele>859</ele>
        <time>2026-05-26T10:42:48.000Z</time>
      </trkpt>
      <trkpt lat="44.6643" lon="5.05194">
        <ele>859</ele>
        <time>2026-05-26T10:42:49.000Z</time>
      </trkpt>
      <trkpt lat="44.6643" lon="5.05194">
        <ele>859</ele>
        <time>2026-05-26T10:42:50.000Z</time>
      </trkpt>
      <trkpt lat="44.6643" lon="5.05194">
        <ele>859</ele>
        <time>2026-05-26T10:42:51.000Z</time>
      </trkpt>
      <trkpt lat="44.6643" lon="5.05194">
        <ele>859</ele>
        <time>2026-05-26T10:42:52.000Z</time>
      </trkpt>
      <trkpt lat="44.6643" lon="5.05194">
        <ele>859</ele>
        <time>2026-05-26T10:42:53.000Z</time>
      </trkpt>
      <trkpt lat="44.6643" lon="5.05194">
        <ele>859</ele>
        <time>2026-05-26T10:42:54.000Z</time>
      </trkpt>
      <trkpt lat="44.6643" lon="5.05194">
        <ele>859</ele>
        <time>2026-05-26T10:42:55.000Z</time>
      </trkpt>
      <trkpt lat="44.6643" lon="5.05194">
        <ele>859</ele>
        <time>2026-05-26T10:42:56.000Z</time>
      </trkpt>
      <trkpt lat="44.6643" lon="5.05194">
        <ele>859</ele>
        <time>2026-05-26T10:42:57.000Z</time>
      </trkpt>
      <trkpt lat="44.6643" lon="5.05194">
        <ele>859</ele>
        <time>2026-05-26T10:42:58.000Z</time>
      </trkpt>
      <trkpt lat="44.6643" lon="5.05194">
        <ele>859</ele>
        <time>2026-05-26T10:42:59.000Z</time>
      </trkpt>
      <trkpt lat="44.6643" lon="5.05194">
        <ele>859</ele>
        <time>2026-05-26T10:43:00.000Z</time>
      </trkpt>
      <trkpt lat="44.6643" lon="5.05194">
        <ele>859</ele>
        <time>2026-05-26T10:43:01.000Z</time>
      </trkpt>
      <trkpt lat="44.66431" lon="5.05192">
        <ele>861</ele>
        <time>2026-05-26T10:43:02.000Z</time>
      </trkpt>
      <trkpt lat="44.66431" lon="5.05192">
        <ele>862</ele>
        <time>2026-05-26T10:43:03.000Z</time>
      </trkpt>
      <trkpt lat="44.66431" lon="5.05191">
        <ele>863</ele>
        <time>2026-05-26T10:43:04.000Z</time>
      </trkpt>
      <trkpt lat="44.66431" lon="5.05191">
        <ele>863</ele>
        <time>2026-05-26T10:43:05.000Z</time>
      </trkpt>
      <trkpt lat="44.66431" lon="5.05191">
        <ele>863</ele>
        <time>2026-05-26T10:43:06.000Z</time>
      </trkpt>
      <trkpt lat="44.66431" lon="5.05191">
        <ele>862</ele>
        <time>2026-05-26T10:43:07.000Z</time>
      </trkpt>
      <trkpt lat="44.66431" lon="5.05192">
        <ele>861</ele>
        <time>2026-05-26T10:43:08.000Z</time>
      </trkpt>
      <trkpt lat="44.66431" lon="5.05191">
        <ele>861</ele>
        <time>2026-05-26T10:43:09.000Z</time>
      </trkpt>
      <trkpt lat="44.66431" lon="5.05191">
        <ele>861</ele>
        <time>2026-05-26T10:43:10.000Z</time>
      </trkpt>
      <trkpt lat="44.66431" lon="5.05191">
        <ele>861</ele>
        <time>2026-05-26T10:43:11.000Z</time>
      </trkpt>
      <trkpt lat="44.66431" lon="5.05191">
        <ele>861</ele>
        <time>2026-05-26T10:43:12.000Z</time>
      </trkpt>
      <trkpt lat="44.66431" lon="5.05191">
        <ele>861</ele>
        <time>2026-05-26T10:43:13.000Z</time>
      </trkpt>
      <trkpt lat="44.66431" lon="5.05191">
        <ele>861</ele>
        <time>2026-05-26T10:43:14.000Z</time>
      </trkpt>
      <trkpt lat="44.66431" lon="5.05191">
        <ele>861</ele>
        <time>2026-05-26T10:43:15.000Z</time>
      </trkpt>
      <trkpt lat="44.66431" lon="5.05191">
        <ele>861</ele>
        <time>2026-05-26T10:43:16.000Z</time>
      </trkpt>
      <trkpt lat="44.66431" lon="5.05191">
        <ele>861</ele>
        <time>2026-05-26T10:43:17.000Z</time>
      </trkpt>
      <trkpt lat="44.66431" lon="5.05191">
        <ele>861</ele>
        <time>2026-05-26T10:43:18.000Z</time>
      </trkpt>
      <trkpt lat="44.66431" lon="5.05191">
        <ele>861</ele>
        <time>2026-05-26T10:43:19.000Z</time>
      </trkpt>
      <trkpt lat="44.66431" lon="5.05191">
        <ele>861</ele>
        <time>2026-05-26T10:43:20.000Z</time>
      </trkpt>
      <trkpt lat="44.66431" lon="5.05191">
        <ele>861</ele>
        <time>2026-05-26T10:43:21.000Z</time>
      </trkpt>
      <trkpt lat="44.66431" lon="5.05191">
        <ele>861</ele>
        <time>2026-05-26T10:43:22.000Z</time>
      </trkpt>
      <trkpt lat="44.66431" lon="5.05191">
        <ele>861</ele>
        <time>2026-05-26T10:43:23.000Z</time>
      </trkpt>
      <trkpt lat="44.66431" lon="5.05191">
        <ele>861</ele>
        <time>2026-05-26T10:43:24.000Z</time>
      </trkpt>
      <trkpt lat="44.66431" lon="5.05191">
        <ele>861</ele>
        <time>2026-05-26T10:43:25.000Z</time>
      </trkpt>
      <trkpt lat="44.66431" lon="5.05191">
        <ele>861</ele>
        <time>2026-05-26T10:43:26.000Z</time>
      </trkpt>
      <trkpt lat="44.66431" lon="5.05191">
        <ele>861</ele>
        <time>2026-05-26T10:43:27.000Z</time>
      </trkpt>
      <trkpt lat="44.66431" lon="5.05191">
        <ele>861</ele>
        <time>2026-05-26T10:43:28.000Z</time>
      </trkpt>
      <trkpt lat="44.66431" lon="5.05191">
        <ele>861</ele>
        <time>2026-05-26T10:43:29.000Z</time>
      </trkpt>
      <trkpt lat="44.66431" lon="5.05191">
        <ele>861</ele>
        <time>2026-05-26T10:43:30.000Z</time>
      </trkpt>
      <trkpt lat="44.66431" lon="5.05191">
        <ele>861</ele>
        <time>2026-05-26T10:43:31.000Z</time>
      </trkpt>
      <trkpt lat="44.66431" lon="5.05191">
        <ele>861</ele>
        <time>2026-05-26T10:43:32.000Z</time>
      </trkpt>
      <trkpt lat="44.66431" lon="5.05191">
        <ele>861</ele>
        <time>2026-05-26T10:43:33.000Z</time>
      </trkpt>
      <trkpt lat="44.66431" lon="5.05191">
        <ele>861</ele>
        <time>2026-05-26T10:43:34.000Z</time>
      </trkpt>
      <trkpt lat="44.66431" lon="5.05191">
        <ele>861</ele>
        <time>2026-05-26T10:43:35.000Z</time>
      </trkpt>
      <trkpt lat="44.66431" lon="5.05191">
        <ele>861</ele>
        <time>2026-05-26T10:43:36.000Z</time>
      </trkpt>
      <trkpt lat="44.66431" lon="5.05191">
        <ele>861</ele>
        <time>2026-05-26T10:43:37.000Z</time>
      </trkpt>
      <trkpt lat="44.66431" lon="5.05191">
        <ele>861</ele>
        <time>2026-05-26T10:43:38.000Z</time>
      </trkpt>
      <trkpt lat="44.66431" lon="5.05191">
        <ele>861</ele>
        <time>2026-05-26T10:43:39.000Z</time>
      </trkpt>
      <trkpt lat="44.66431" lon="5.05191">
        <ele>861</ele>
        <time>2026-05-26T10:43:40.000Z</time>
      </trkpt>
      <trkpt lat="44.66431" lon="5.05191">
        <ele>861</ele>
        <time>2026-05-26T10:43:41.000Z</time>
      </trkpt>
      <trkpt lat="44.66431" lon="5.05191">
        <ele>861</ele>
        <time>2026-05-26T10:43:42.000Z</time>
      </trkpt>
      <trkpt lat="44.66431" lon="5.05191">
        <ele>861</ele>
        <time>2026-05-26T10:43:43.000Z</time>
      </trkpt>
      <trkpt lat="44.66431" lon="5.05191">
        <ele>861</ele>
        <time>2026-05-26T10:43:44.000Z</time>
      </trkpt>
      <trkpt lat="44.66431" lon="5.05191">
        <ele>861</ele>
        <time>2026-05-26T10:43:45.000Z</time>
      </trkpt>
      <trkpt lat="44.66431" lon="5.05191">
        <ele>861</ele>
        <time>2026-05-26T10:43:46.000Z</time>
      </trkpt>
      <trkpt lat="44.66431" lon="5.05191">
        <ele>861</ele>
        <time>2026-05-26T10:43:47.000Z</time>
      </trkpt>
      <trkpt lat="44.66431" lon="5.05191">
        <ele>861</ele>
        <time>2026-05-26T10:43:48.000Z</time>
      </trkpt>
      <trkpt lat="44.66431" lon="5.05191">
        <ele>861</ele>
        <time>2026-05-26T10:43:49.000Z</time>
      </trkpt>
      <trkpt lat="44.66431" lon="5.05191">
        <ele>861</ele>
        <time>2026-05-26T10:43:50.000Z</time>
      </trkpt>
      <trkpt lat="44.66431" lon="5.05191">
        <ele>861</ele>
        <time>2026-05-26T10:43:51.000Z</time>
      </trkpt>
      <trkpt lat="44.66431" lon="5.05191">
        <ele>861</ele>
        <time>2026-05-26T10:43:52.000Z</time>
      </trkpt>
      <trkpt lat="44.66431" lon="5.05191">
        <ele>861</ele>
        <time>2026-05-26T10:43:53.000Z</time>
      </trkpt>
      <trkpt lat="44.66431" lon="5.05191">
        <ele>863</ele>
        <time>2026-05-26T10:43:54.000Z</time>
      </trkpt>
      <trkpt lat="44.66431" lon="5.0519">
        <ele>863</ele>
        <time>2026-05-26T10:43:55.000Z</time>
      </trkpt>
      <trkpt lat="44.66431" lon="5.0519">
        <ele>864</ele>
        <time>2026-05-26T10:43:56.000Z</time>
      </trkpt>
      <trkpt lat="44.66431" lon="5.0519">
        <ele>864</ele>
        <time>2026-05-26T10:43:57.000Z</time>
      </trkpt>
      <trkpt lat="44.66431" lon="5.0519">
        <ele>864</ele>
        <time>2026-05-26T10:43:58.000Z</time>
      </trkpt>
      <trkpt lat="44.66431" lon="5.0519">
        <ele>864</ele>
        <time>2026-05-26T10:43:59.000Z</time>
      </trkpt>
      <trkpt lat="44.66431" lon="5.0519">
        <ele>864</ele>
        <time>2026-05-26T10:44:00.000Z</time>
      </trkpt>
      <trkpt lat="44.66431" lon="5.0519">
        <ele>864</ele>
        <time>2026-05-26T10:44:01.000Z</time>
      </trkpt>
      <trkpt lat="44.66431" lon="5.0519">
        <ele>864</ele>
        <time>2026-05-26T10:44:02.000Z</time>
      </trkpt>
      <trkpt lat="44.66432" lon="5.0519">
        <ele>865</ele>
        <time>2026-05-26T10:44:03.000Z</time>
      </trkpt>
      <trkpt lat="44.66432" lon="5.0519">
        <ele>865</ele>
        <time>2026-05-26T10:44:04.000Z</time>
      </trkpt>
      <trkpt lat="44.66432" lon="5.05191">
        <ele>865</ele>
        <time>2026-05-26T10:44:05.000Z</time>
      </trkpt>
      <trkpt lat="44.66432" lon="5.05191">
        <ele>865</ele>
        <time>2026-05-26T10:44:06.000Z</time>
      </trkpt>
      <trkpt lat="44.66432" lon="5.05191">
        <ele>865</ele>
        <time>2026-05-26T10:44:07.000Z</time>
      </trkpt>
      <trkpt lat="44.66432" lon="5.05191">
        <ele>865</ele>
        <time>2026-05-26T10:44:08.000Z</time>
      </trkpt>
      <trkpt lat="44.66432" lon="5.05191">
        <ele>865</ele>
        <time>2026-05-26T10:44:09.000Z</time>
      </trkpt>
      <trkpt lat="44.66432" lon="5.05191">
        <ele>865</ele>
        <time>2026-05-26T10:44:10.000Z</time>
      </trkpt>
      <trkpt lat="44.66432" lon="5.05191">
        <ele>865</ele>
        <time>2026-05-26T10:44:11.000Z</time>
      </trkpt>
      <trkpt lat="44.66432" lon="5.05191">
        <ele>865</ele>
        <time>2026-05-26T10:44:12.000Z</time>
      </trkpt>
      <trkpt lat="44.66432" lon="5.05191">
        <ele>865</ele>
        <time>2026-05-26T10:44:13.000Z</time>
      </trkpt>
      <trkpt lat="44.66432" lon="5.05191">
        <ele>865</ele>
        <time>2026-05-26T10:44:14.000Z</time>
      </trkpt>
      <trkpt lat="44.66432" lon="5.05191">
        <ele>865</ele>
        <time>2026-05-26T10:44:15.000Z</time>
      </trkpt>
      <trkpt lat="44.66432" lon="5.05191">
        <ele>865</ele>
        <time>2026-05-26T10:44:16.000Z</time>
      </trkpt>
      <trkpt lat="44.66432" lon="5.05191">
        <ele>865</ele>
        <time>2026-05-26T10:44:17.000Z</time>
      </trkpt>
      <trkpt lat="44.66432" lon="5.05191">
        <ele>865</ele>
        <time>2026-05-26T10:44:18.000Z</time>
      </trkpt>
      <trkpt lat="44.66432" lon="5.05191">
        <ele>865</ele>
        <time>2026-05-26T10:44:19.000Z</time>
      </trkpt>
      <trkpt lat="44.66432" lon="5.05191">
        <ele>865</ele>
        <time>2026-05-26T10:44:20.000Z</time>
      </trkpt>
      <trkpt lat="44.66432" lon="5.05191">
        <ele>865</ele>
        <time>2026-05-26T10:44:21.000Z</time>
      </trkpt>
      <trkpt lat="44.66432" lon="5.05191">
        <ele>865</ele>
        <time>2026-05-26T10:44:22.000Z</time>
      </trkpt>
      <trkpt lat="44.66432" lon="5.05191">
        <ele>865</ele>
        <time>2026-05-26T10:44:23.000Z</time>
      </trkpt>
      <trkpt lat="44.66432" lon="5.05191">
        <ele>865</ele>
        <time>2026-05-26T10:44:24.000Z</time>
      </trkpt>
      <trkpt lat="44.66432" lon="5.05191">
        <ele>865</ele>
        <time>2026-05-26T10:44:25.000Z</time>
      </trkpt>
      <trkpt lat="44.66432" lon="5.05191">
        <ele>865</ele>
        <time>2026-05-26T10:44:26.000Z</time>
      </trkpt>
      <trkpt lat="44.66432" lon="5.05191">
        <ele>865</ele>
        <time>2026-05-26T10:44:27.000Z</time>
      </trkpt>
      <trkpt lat="44.66432" lon="5.05191">
        <ele>865</ele>
        <time>2026-05-26T10:44:28.000Z</time>
      </trkpt>
      <trkpt lat="44.66432" lon="5.05191">
        <ele>865</ele>
        <time>2026-05-26T10:44:29.000Z</time>
      </trkpt>
      <trkpt lat="44.66432" lon="5.05191">
        <ele>865</ele>
        <time>2026-05-26T10:44:30.000Z</time>
      </trkpt>
      <trkpt lat="44.66432" lon="5.05191">
        <ele>865</ele>
        <time>2026-05-26T10:44:31.000Z</time>
      </trkpt>
      <trkpt lat="44.66432" lon="5.05191">
        <ele>865</ele>
        <time>2026-05-26T10:44:32.000Z</time>
      </trkpt>
      <trkpt lat="44.66432" lon="5.05191">
        <ele>865</ele>
        <time>2026-05-26T10:44:33.000Z</time>
      </trkpt>
      <trkpt lat="44.66432" lon="5.05191">
        <ele>865</ele>
        <time>2026-05-26T10:44:34.000Z</time>
      </trkpt>
      <trkpt lat="44.66432" lon="5.05191">
        <ele>865</ele>
        <time>2026-05-26T10:44:35.000Z</time>
      </trkpt>
      <trkpt lat="44.66432" lon="5.05191">
        <ele>865</ele>
        <time>2026-05-26T10:44:36.000Z</time>
      </trkpt>
      <trkpt lat="44.66432" lon="5.05191">
        <ele>865</ele>
        <time>2026-05-26T10:44:37.000Z</time>
      </trkpt>
      <trkpt lat="44.66432" lon="5.05191">
        <ele>865</ele>
        <time>2026-05-26T10:44:38.000Z</time>
      </trkpt>
      <trkpt lat="44.66432" lon="5.05191">
        <ele>865</ele>
        <time>2026-05-26T10:44:39.000Z</time>
      </trkpt>
      <trkpt lat="44.66432" lon="5.05191">
        <ele>865</ele>
        <time>2026-05-26T10:44:40.000Z</time>
      </trkpt>
      <trkpt lat="44.66432" lon="5.05191">
        <ele>865</ele>
        <time>2026-05-26T10:44:41.000Z</time>
      </trkpt>
      <trkpt lat="44.66432" lon="5.05191">
        <ele>865</ele>
        <time>2026-05-26T10:44:42.000Z</time>
      </trkpt>
      <trkpt lat="44.66432" lon="5.05191">
        <ele>865</ele>
        <time>2026-05-26T10:44:43.000Z</time>
      </trkpt>
      <trkpt lat="44.66432" lon="5.05191">
        <ele>865</ele>
        <time>2026-05-26T10:44:44.000Z</time>
      </trkpt>
      <trkpt lat="44.66432" lon="5.05191">
        <ele>865</ele>
        <time>2026-05-26T10:44:45.000Z</time>
      </trkpt>
      <trkpt lat="44.66432" lon="5.05191">
        <ele>865</ele>
        <time>2026-05-26T10:44:46.000Z</time>
      </trkpt>
      <trkpt lat="44.66432" lon="5.05191">
        <ele>865</ele>
        <time>2026-05-26T10:44:47.000Z</time>
      </trkpt>
      <trkpt lat="44.66432" lon="5.05191">
        <ele>865</ele>
        <time>2026-05-26T10:44:48.000Z</time>
      </trkpt>
      <trkpt lat="44.66432" lon="5.05191">
        <ele>865</ele>
        <time>2026-05-26T10:44:49.000Z</time>
      </trkpt>
      <trkpt lat="44.66432" lon="5.05191">
        <ele>865</ele>
        <time>2026-05-26T10:44:50.000Z</time>
      </trkpt>
      <trkpt lat="44.66432" lon="5.05191">
        <ele>865</ele>
        <time>2026-05-26T10:44:51.000Z</time>
      </trkpt>
      <trkpt lat="44.66432" lon="5.05191">
        <ele>865</ele>
        <time>2026-05-26T10:44:52.000Z</time>
      </trkpt>
      <trkpt lat="44.66432" lon="5.05191">
        <ele>865</ele>
        <time>2026-05-26T10:44:53.000Z</time>
      </trkpt>
      <trkpt lat="44.66432" lon="5.05191">
        <ele>865</ele>
        <time>2026-05-26T10:44:54.000Z</time>
      </trkpt>
      <trkpt lat="44.66432" lon="5.05191">
        <ele>865</ele>
        <time>2026-05-26T10:44:55.000Z</time>
      </trkpt>
      <trkpt lat="44.66432" lon="5.05191">
        <ele>865</ele>
        <time>2026-05-26T10:44:56.000Z</time>
      </trkpt>
      <trkpt lat="44.66432" lon="5.05191">
        <ele>865</ele>
        <time>2026-05-26T10:44:57.000Z</time>
      </trkpt>
      <trkpt lat="44.66432" lon="5.05191">
        <ele>865</ele>
        <time>2026-05-26T10:44:58.000Z</time>
      </trkpt>
      <trkpt lat="44.66432" lon="5.05191">
        <ele>865</ele>
        <time>2026-05-26T10:44:59.000Z</time>
      </trkpt>
      <trkpt lat="44.66432" lon="5.05191">
        <ele>865</ele>
        <time>2026-05-26T10:45:00.000Z</time>
      </trkpt>
      <trkpt lat="44.66432" lon="5.05191">
        <ele>865</ele>
        <time>2026-05-26T10:45:01.000Z</time>
      </trkpt>
      <trkpt lat="44.66432" lon="5.05191">
        <ele>865</ele>
        <time>2026-05-26T10:45:02.000Z</time>
      </trkpt>
      <trkpt lat="44.66432" lon="5.05191">
        <ele>865</ele>
        <time>2026-05-26T10:45:03.000Z</time>
      </trkpt>
      <trkpt lat="44.66432" lon="5.05191">
        <ele>865</ele>
        <time>2026-05-26T10:45:04.000Z</time>
      </trkpt>
      <trkpt lat="44.66432" lon="5.05191">
        <ele>865</ele>
        <time>2026-05-26T10:45:05.000Z</time>
      </trkpt>
      <trkpt lat="44.66432" lon="5.05191">
        <ele>865</ele>
        <time>2026-05-26T10:45:06.000Z</time>
      </trkpt>
      <trkpt lat="44.66432" lon="5.05191">
        <ele>865</ele>
        <time>2026-05-26T10:45:07.000Z</time>
      </trkpt>
      <trkpt lat="44.66432" lon="5.05191">
        <ele>865</ele>
        <time>2026-05-26T10:45:08.000Z</time>
      </trkpt>
      <trkpt lat="44.66432" lon="5.05191">
        <ele>865</ele>
        <time>2026-05-26T10:45:09.000Z</time>
      </trkpt>
      <trkpt lat="44.66432" lon="5.05191">
        <ele>865</ele>
        <time>2026-05-26T10:45:10.000Z</time>
      </trkpt>
      <trkpt lat="44.66432" lon="5.05191">
        <ele>865</ele>
        <time>2026-05-26T10:45:11.000Z</time>
      </trkpt>
      <trkpt lat="44.66432" lon="5.05191">
        <ele>865</ele>
        <time>2026-05-26T10:45:12.000Z</time>
      </trkpt>
      <trkpt lat="44.66432" lon="5.05191">
        <ele>865</ele>
        <time>2026-05-26T10:45:13.000Z</time>
      </trkpt>
      <trkpt lat="44.66432" lon="5.05191">
        <ele>865</ele>
        <time>2026-05-26T10:45:14.000Z</time>
      </trkpt>
      <trkpt lat="44.66432" lon="5.05191">
        <ele>865</ele>
        <time>2026-05-26T10:45:15.000Z</time>
      </trkpt>
      <trkpt lat="44.66432" lon="5.05191">
        <ele>865</ele>
        <time>2026-05-26T10:45:16.000Z</time>
      </trkpt>
      <trkpt lat="44.66432" lon="5.05191">
        <ele>865</ele>
        <time>2026-05-26T10:45:17.000Z</time>
      </trkpt>
      <trkpt lat="44.66432" lon="5.05191">
        <ele>865</ele>
        <time>2026-05-26T10:45:18.000Z</time>
      </trkpt>
      <trkpt lat="44.66432" lon="5.05191">
        <ele>865</ele>
        <time>2026-05-26T10:45:19.000Z</time>
      </trkpt>
      <trkpt lat="44.66432" lon="5.05191">
        <ele>865</ele>
        <time>2026-05-26T10:45:20.000Z</time>
      </trkpt>
      <trkpt lat="44.66432" lon="5.05191">
        <ele>865</ele>
        <time>2026-05-26T10:45:21.000Z</time>
      </trkpt>
      <trkpt lat="44.66432" lon="5.05191">
        <ele>865</ele>
        <time>2026-05-26T10:45:22.000Z</time>
      </trkpt>
      <trkpt lat="44.66432" lon="5.05191">
        <ele>865</ele>
        <time>2026-05-26T10:45:23.000Z</time>
      </trkpt>
      <trkpt lat="44.66432" lon="5.05191">
        <ele>865</ele>
        <time>2026-05-26T10:45:24.000Z</time>
      </trkpt>
      <trkpt lat="44.66432" lon="5.05191">
        <ele>865</ele>
        <time>2026-05-26T10:45:25.000Z</time>
      </trkpt>
      <trkpt lat="44.66432" lon="5.05191">
        <ele>865</ele>
        <time>2026-05-26T10:45:26.000Z</time>
      </trkpt>
      <trkpt lat="44.66432" lon="5.05191">
        <ele>865</ele>
        <time>2026-05-26T10:45:27.000Z</time>
      </trkpt>
      <trkpt lat="44.66432" lon="5.05191">
        <ele>865</ele>
        <time>2026-05-26T10:45:28.000Z</time>
      </trkpt>
      <trkpt lat="44.66432" lon="5.05191">
        <ele>865</ele>
        <time>2026-05-26T10:45:29.000Z</time>
      </trkpt>
      <trkpt lat="44.66432" lon="5.05191">
        <ele>865</ele>
        <time>2026-05-26T10:45:30.000Z</time>
      </trkpt>
      <trkpt lat="44.66432" lon="5.05191">
        <ele>865</ele>
        <time>2026-05-26T10:45:31.000Z</time>
      </trkpt>
      <trkpt lat="44.66432" lon="5.05191">
        <ele>865</ele>
        <time>2026-05-26T10:45:32.000Z</time>
      </trkpt>
      <trkpt lat="44.66432" lon="5.05191">
        <ele>865</ele>
        <time>2026-05-26T10:45:33.000Z</time>
      </trkpt>
      <trkpt lat="44.66432" lon="5.05191">
        <ele>865</ele>
        <time>2026-05-26T10:45:34.000Z</time>
      </trkpt>
      <trkpt lat="44.66432" lon="5.05191">
        <ele>865</ele>
        <time>2026-05-26T10:45:35.000Z</time>
      </trkpt>
      <trkpt lat="44.66432" lon="5.05191">
        <ele>865</ele>
        <time>2026-05-26T10:45:36.000Z</time>
      </trkpt>
      <trkpt lat="44.66432" lon="5.05191">
        <ele>865</ele>
        <time>2026-05-26T10:45:37.000Z</time>
      </trkpt>
      <trkpt lat="44.66432" lon="5.05191">
        <ele>865</ele>
        <time>2026-05-26T10:45:38.000Z</time>
      </trkpt>
      <trkpt lat="44.66432" lon="5.05191">
        <ele>865</ele>
        <time>2026-05-26T10:45:39.000Z</time>
      </trkpt>
      <trkpt lat="44.66432" lon="5.05191">
        <ele>865</ele>
        <time>2026-05-26T10:45:40.000Z</time>
      </trkpt>
      <trkpt lat="44.66432" lon="5.0519">
        <ele>864</ele>
        <time>2026-05-26T10:45:41.000Z</time>
      </trkpt>
      <trkpt lat="44.66432" lon="5.0519">
        <ele>864</ele>
        <time>2026-05-26T10:45:42.000Z</time>
      </trkpt>
      <trkpt lat="44.66432" lon="5.0519">
        <ele>864</ele>
        <time>2026-05-26T10:45:43.000Z</time>
      </trkpt>
      <trkpt lat="44.66432" lon="5.0519">
        <ele>864</ele>
        <time>2026-05-26T10:45:44.000Z</time>
      </trkpt>
      <trkpt lat="44.66432" lon="5.0519">
        <ele>864</ele>
        <time>2026-05-26T10:45:45.000Z</time>
      </trkpt>
      <trkpt lat="44.66432" lon="5.0519">
        <ele>864</ele>
        <time>2026-05-26T10:45:46.000Z</time>
      </trkpt>
      <trkpt lat="44.66432" lon="5.0519">
        <ele>864</ele>
        <time>2026-05-26T10:45:47.000Z</time>
      </trkpt>
      <trkpt lat="44.66432" lon="5.0519">
        <ele>864</ele>
        <time>2026-05-26T10:45:48.000Z</time>
      </trkpt>
      <trkpt lat="44.66432" lon="5.05189">
        <ele>862</ele>
        <time>2026-05-26T10:45:49.000Z</time>
      </trkpt>
      <trkpt lat="44.66432" lon="5.05189">
        <ele>861</ele>
        <time>2026-05-26T10:45:50.000Z</time>
      </trkpt>
      <trkpt lat="44.66432" lon="5.05189">
        <ele>861</ele>
        <time>2026-05-26T10:45:51.000Z</time>
      </trkpt>
      <trkpt lat="44.66432" lon="5.05188">
        <ele>861</ele>
        <time>2026-05-26T10:45:52.000Z</time>
      </trkpt>
      <trkpt lat="44.66432" lon="5.05188">
        <ele>861</ele>
        <time>2026-05-26T10:45:53.000Z</time>
      </trkpt>
      <trkpt lat="44.66432" lon="5.05188">
        <ele>861</ele>
        <time>2026-05-26T10:45:54.000Z</time>
      </trkpt>
      <trkpt lat="44.66432" lon="5.05188">
        <ele>861</ele>
        <time>2026-05-26T10:45:55.000Z</time>
      </trkpt>
      <trkpt lat="44.66432" lon="5.05188">
        <ele>861</ele>
        <time>2026-05-26T10:45:56.000Z</time>
      </trkpt>
      <trkpt lat="44.66432" lon="5.05188">
        <ele>861</ele>
        <time>2026-05-26T10:45:57.000Z</time>
      </trkpt>
      <trkpt lat="44.66432" lon="5.05188">
        <ele>861</ele>
        <time>2026-05-26T10:45:58.000Z</time>
      </trkpt>
      <trkpt lat="44.66432" lon="5.05188">
        <ele>861</ele>
        <time>2026-05-26T10:45:59.000Z</time>
      </trkpt>
      <trkpt lat="44.66432" lon="5.05188">
        <ele>861</ele>
        <time>2026-05-26T10:46:00.000Z</time>
      </trkpt>
      <trkpt lat="44.66432" lon="5.05188">
        <ele>861</ele>
        <time>2026-05-26T10:46:01.000Z</time>
      </trkpt>
      <trkpt lat="44.66432" lon="5.05188">
        <ele>861</ele>
        <time>2026-05-26T10:46:02.000Z</time>
      </trkpt>
      <trkpt lat="44.66432" lon="5.05188">
        <ele>861</ele>
        <time>2026-05-26T10:46:03.000Z</time>
      </trkpt>
      <trkpt lat="44.66432" lon="5.05188">
        <ele>861</ele>
        <time>2026-05-26T10:46:04.000Z</time>
      </trkpt>
      <trkpt lat="44.66432" lon="5.05188">
        <ele>861</ele>
        <time>2026-05-26T10:46:05.000Z</time>
      </trkpt>
      <trkpt lat="44.66432" lon="5.05188">
        <ele>861</ele>
        <time>2026-05-26T10:46:06.000Z</time>
      </trkpt>
      <trkpt lat="44.66432" lon="5.05188">
        <ele>861</ele>
        <time>2026-05-26T10:46:07.000Z</time>
      </trkpt>
      <trkpt lat="44.66432" lon="5.05188">
        <ele>861</ele>
        <time>2026-05-26T10:46:08.000Z</time>
      </trkpt>
      <trkpt lat="44.66432" lon="5.05188">
        <ele>861</ele>
        <time>2026-05-26T10:46:09.000Z</time>
      </trkpt>
      <trkpt lat="44.66432" lon="5.05191">
        <ele>861</ele>
        <time>2026-05-26T10:46:10.000Z</time>
      </trkpt>
      <trkpt lat="44.66432" lon="5.05192">
        <ele>863</ele>
        <time>2026-05-26T10:46:11.000Z</time>
      </trkpt>
      <trkpt lat="44.66432" lon="5.05192">
        <ele>863</ele>
        <time>2026-05-26T10:46:12.000Z</time>
      </trkpt>
      <trkpt lat="44.66432" lon="5.05192">
        <ele>863</ele>
        <time>2026-05-26T10:46:13.000Z</time>
      </trkpt>
      <trkpt lat="44.66432" lon="5.05192">
        <ele>863</ele>
        <time>2026-05-26T10:46:14.000Z</time>
      </trkpt>
      <trkpt lat="44.66432" lon="5.05192">
        <ele>863</ele>
        <time>2026-05-26T10:46:15.000Z</time>
      </trkpt>
      <trkpt lat="44.66432" lon="5.05192">
        <ele>863</ele>
        <time>2026-05-26T10:46:16.000Z</time>
      </trkpt>
      <trkpt lat="44.66432" lon="5.05192">
        <ele>863</ele>
        <time>2026-05-26T10:46:17.000Z</time>
      </trkpt>
      <trkpt lat="44.66432" lon="5.05192">
        <ele>863</ele>
        <time>2026-05-26T10:46:18.000Z</time>
      </trkpt>
      <trkpt lat="44.66432" lon="5.05192">
        <ele>863</ele>
        <time>2026-05-26T10:46:19.000Z</time>
      </trkpt>
      <trkpt lat="44.66432" lon="5.05192">
        <ele>863</ele>
        <time>2026-05-26T10:46:20.000Z</time>
      </trkpt>
      <trkpt lat="44.66432" lon="5.05192">
        <ele>863</ele>
        <time>2026-05-26T10:46:21.000Z</time>
      </trkpt>
      <trkpt lat="44.66432" lon="5.05192">
        <ele>863</ele>
        <time>2026-05-26T10:46:22.000Z</time>
      </trkpt>
      <trkpt lat="44.66432" lon="5.05192">
        <ele>863</ele>
        <time>2026-05-26T10:46:23.000Z</time>
      </trkpt>
      <trkpt lat="44.66432" lon="5.05192">
        <ele>863</ele>
        <time>2026-05-26T10:46:24.000Z</time>
      </trkpt>
      <trkpt lat="44.66432" lon="5.05192">
        <ele>863</ele>
        <time>2026-05-26T10:46:25.000Z</time>
      </trkpt>
      <trkpt lat="44.66432" lon="5.05192">
        <ele>863</ele>
        <time>2026-05-26T10:46:26.000Z</time>
      </trkpt>
      <trkpt lat="44.66432" lon="5.05192">
        <ele>863</ele>
        <time>2026-05-26T10:46:27.000Z</time>
      </trkpt>
      <trkpt lat="44.66432" lon="5.05192">
        <ele>863</ele>
        <time>2026-05-26T10:46:28.000Z</time>
      </trkpt>
      <trkpt lat="44.66432" lon="5.05192">
        <ele>863</ele>
        <time>2026-05-26T10:46:29.000Z</time>
      </trkpt>
      <trkpt lat="44.66432" lon="5.05192">
        <ele>863</ele>
        <time>2026-05-26T10:46:30.000Z</time>
      </trkpt>
      <trkpt lat="44.66432" lon="5.05192">
        <ele>863</ele>
        <time>2026-05-26T10:46:31.000Z</time>
      </trkpt>
      <trkpt lat="44.66432" lon="5.05192">
        <ele>863</ele>
        <time>2026-05-26T10:46:32.000Z</time>
      </trkpt>
      <trkpt lat="44.66432" lon="5.05192">
        <ele>863</ele>
        <time>2026-05-26T10:46:33.000Z</time>
      </trkpt>
      <trkpt lat="44.66432" lon="5.05192">
        <ele>863</ele>
        <time>2026-05-26T10:46:34.000Z</time>
      </trkpt>
      <trkpt lat="44.66432" lon="5.05192">
        <ele>863</ele>
        <time>2026-05-26T10:46:35.000Z</time>
      </trkpt>
      <trkpt lat="44.66432" lon="5.05192">
        <ele>863</ele>
        <time>2026-05-26T10:46:36.000Z</time>
      </trkpt>
      <trkpt lat="44.66432" lon="5.05192">
        <ele>863</ele>
        <time>2026-05-26T10:46:37.000Z</time>
      </trkpt>
      <trkpt lat="44.66432" lon="5.05192">
        <ele>863</ele>
        <time>2026-05-26T10:46:38.000Z</time>
      </trkpt>
      <trkpt lat="44.66432" lon="5.05192">
        <ele>863</ele>
        <time>2026-05-26T10:46:39.000Z</time>
      </trkpt>
      <trkpt lat="44.66432" lon="5.05192">
        <ele>863</ele>
        <time>2026-05-26T10:46:40.000Z</time>
      </trkpt>
      <trkpt lat="44.66432" lon="5.05192">
        <ele>863</ele>
        <time>2026-05-26T10:46:41.000Z</time>
      </trkpt>
      <trkpt lat="44.66432" lon="5.05192">
        <ele>863</ele>
        <time>2026-05-26T10:46:42.000Z</time>
      </trkpt>
      <trkpt lat="44.66432" lon="5.05192">
        <ele>863</ele>
        <time>2026-05-26T10:46:43.000Z</time>
      </trkpt>
      <trkpt lat="44.66432" lon="5.05192">
        <ele>863</ele>
        <time>2026-05-26T10:46:44.000Z</time>
      </trkpt>
      <trkpt lat="44.66432" lon="5.05192">
        <ele>863</ele>
        <time>2026-05-26T10:46:45.000Z</time>
      </trkpt>
      <trkpt lat="44.66432" lon="5.05192">
        <ele>863</ele>
        <time>2026-05-26T10:46:46.000Z</time>
      </trkpt>
      <trkpt lat="44.66432" lon="5.05192">
        <ele>863</ele>
        <time>2026-05-26T10:46:47.000Z</time>
      </trkpt>
      <trkpt lat="44.66432" lon="5.05192">
        <ele>863</ele>
        <time>2026-05-26T10:46:48.000Z</time>
      </trkpt>
      <trkpt lat="44.66432" lon="5.05192">
        <ele>863</ele>
        <time>2026-05-26T10:46:49.000Z</time>
      </trkpt>
      <trkpt lat="44.66432" lon="5.05192">
        <ele>863</ele>
        <time>2026-05-26T10:46:50.000Z</time>
      </trkpt>
      <trkpt lat="44.66432" lon="5.05192">
        <ele>863</ele>
        <time>2026-05-26T10:46:51.000Z</time>
      </trkpt>
      <trkpt lat="44.66432" lon="5.05192">
        <ele>863</ele>
        <time>2026-05-26T10:46:52.000Z</time>
      </trkpt>
      <trkpt lat="44.66432" lon="5.05192">
        <ele>863</ele>
        <time>2026-05-26T10:46:53.000Z</time>
      </trkpt>
      <trkpt lat="44.66432" lon="5.05192">
        <ele>863</ele>
        <time>2026-05-26T10:46:54.000Z</time>
      </trkpt>
      <trkpt lat="44.66432" lon="5.05192">
        <ele>863</ele>
        <time>2026-05-26T10:46:55.000Z</time>
      </trkpt>
      <trkpt lat="44.66432" lon="5.05192">
        <ele>863</ele>
        <time>2026-05-26T10:46:56.000Z</time>
      </trkpt>
      <trkpt lat="44.66432" lon="5.05192">
        <ele>863</ele>
        <time>2026-05-26T10:46:57.000Z</time>
      </trkpt>
      <trkpt lat="44.66432" lon="5.05192">
        <ele>863</ele>
        <time>2026-05-26T10:46:58.000Z</time>
      </trkpt>
      <trkpt lat="44.66432" lon="5.05192">
        <ele>863</ele>
        <time>2026-05-26T10:46:59.000Z</time>
      </trkpt>
      <trkpt lat="44.66433" lon="5.05192">
        <ele>864</ele>
        <time>2026-05-26T10:47:00.000Z</time>
      </trkpt>
      <trkpt lat="44.66433" lon="5.05192">
        <ele>864</ele>
        <time>2026-05-26T10:47:01.000Z</time>
      </trkpt>
      <trkpt lat="44.66433" lon="5.05192">
        <ele>864</ele>
        <time>2026-05-26T10:47:02.000Z</time>
      </trkpt>
      <trkpt lat="44.66433" lon="5.05192">
        <ele>863</ele>
        <time>2026-05-26T10:47:03.000Z</time>
      </trkpt>
      <trkpt lat="44.66433" lon="5.05192">
        <ele>863</ele>
        <time>2026-05-26T10:47:04.000Z</time>
      </trkpt>
      <trkpt lat="44.66433" lon="5.05192">
        <ele>863</ele>
        <time>2026-05-26T10:47:05.000Z</time>
      </trkpt>
      <trkpt lat="44.66433" lon="5.05192">
        <ele>863</ele>
        <time>2026-05-26T10:47:06.000Z</time>
      </trkpt>
      <trkpt lat="44.66433" lon="5.05192">
        <ele>863</ele>
        <time>2026-05-26T10:47:07.000Z</time>
      </trkpt>
      <trkpt lat="44.66434" lon="5.05192">
        <ele>864</ele>
        <time>2026-05-26T10:47:08.000Z</time>
      </trkpt>
      <trkpt lat="44.66434" lon="5.05192">
        <ele>864</ele>
        <time>2026-05-26T10:47:09.000Z</time>
      </trkpt>
      <trkpt lat="44.66434" lon="5.05192">
        <ele>864</ele>
        <time>2026-05-26T10:47:10.000Z</time>
      </trkpt>
      <trkpt lat="44.66434" lon="5.05192">
        <ele>864</ele>
        <time>2026-05-26T10:47:11.000Z</time>
      </trkpt>
      <trkpt lat="44.66434" lon="5.05192">
        <ele>864</ele>
        <time>2026-05-26T10:47:12.000Z</time>
      </trkpt>
      <trkpt lat="44.66434" lon="5.05192">
        <ele>864</ele>
        <time>2026-05-26T10:47:13.000Z</time>
      </trkpt>
      <trkpt lat="44.66434" lon="5.05192">
        <ele>864</ele>
        <time>2026-05-26T10:47:14.000Z</time>
      </trkpt>
      <trkpt lat="44.66433" lon="5.05189">
        <ele>864</ele>
        <time>2026-05-26T10:47:15.000Z</time>
      </trkpt>
      <trkpt lat="44.66434" lon="5.05189">
        <ele>864</ele>
        <time>2026-05-26T10:47:16.000Z</time>
      </trkpt>
      <trkpt lat="44.66434" lon="5.05189">
        <ele>864</ele>
        <time>2026-05-26T10:47:17.000Z</time>
      </trkpt>
      <trkpt lat="44.66433" lon="5.0519">
        <ele>862</ele>
        <time>2026-05-26T10:47:18.000Z</time>
      </trkpt>
      <trkpt lat="44.66433" lon="5.0519">
        <ele>862</ele>
        <time>2026-05-26T10:47:19.000Z</time>
      </trkpt>
      <trkpt lat="44.66433" lon="5.0519">
        <ele>862</ele>
        <time>2026-05-26T10:47:20.000Z</time>
      </trkpt>
      <trkpt lat="44.66433" lon="5.0519">
        <ele>862</ele>
        <time>2026-05-26T10:47:21.000Z</time>
      </trkpt>
      <trkpt lat="44.66433" lon="5.0519">
        <ele>862</ele>
        <time>2026-05-26T10:47:22.000Z</time>
      </trkpt>
      <trkpt lat="44.66433" lon="5.0519">
        <ele>862</ele>
        <time>2026-05-26T10:47:23.000Z</time>
      </trkpt>
      <trkpt lat="44.66433" lon="5.0519">
        <ele>862</ele>
        <time>2026-05-26T10:47:24.000Z</time>
      </trkpt>
      <trkpt lat="44.66433" lon="5.0519">
        <ele>862</ele>
        <time>2026-05-26T10:47:25.000Z</time>
      </trkpt>
      <trkpt lat="44.66433" lon="5.0519">
        <ele>862</ele>
        <time>2026-05-26T10:47:26.000Z</time>
      </trkpt>
      <trkpt lat="44.66433" lon="5.0519">
        <ele>862</ele>
        <time>2026-05-26T10:47:27.000Z</time>
      </trkpt>
      <trkpt lat="44.66433" lon="5.0519">
        <ele>862</ele>
        <time>2026-05-26T10:47:28.000Z</time>
      </trkpt>
      <trkpt lat="44.66433" lon="5.0519">
        <ele>862</ele>
        <time>2026-05-26T10:47:29.000Z</time>
      </trkpt>
      <trkpt lat="44.66433" lon="5.0519">
        <ele>862</ele>
        <time>2026-05-26T10:47:30.000Z</time>
      </trkpt>
      <trkpt lat="44.66433" lon="5.0519">
        <ele>862</ele>
        <time>2026-05-26T10:47:31.000Z</time>
      </trkpt>
      <trkpt lat="44.66433" lon="5.0519">
        <ele>862</ele>
        <time>2026-05-26T10:47:32.000Z</time>
      </trkpt>
      <trkpt lat="44.66433" lon="5.0519">
        <ele>862</ele>
        <time>2026-05-26T10:47:33.000Z</time>
      </trkpt>
      <trkpt lat="44.66433" lon="5.0519">
        <ele>862</ele>
        <time>2026-05-26T10:47:34.000Z</time>
      </trkpt>
      <trkpt lat="44.66433" lon="5.0519">
        <ele>862</ele>
        <time>2026-05-26T10:47:35.000Z</time>
      </trkpt>
      <trkpt lat="44.66433" lon="5.0519">
        <ele>862</ele>
        <time>2026-05-26T10:47:36.000Z</time>
      </trkpt>
      <trkpt lat="44.66432" lon="5.05191">
        <ele>863</ele>
        <time>2026-05-26T10:47:37.000Z</time>
      </trkpt>
      <trkpt lat="44.66433" lon="5.05193">
        <ele>865</ele>
        <time>2026-05-26T10:47:38.000Z</time>
      </trkpt>
      <trkpt lat="44.66433" lon="5.05193">
        <ele>865</ele>
        <time>2026-05-26T10:47:39.000Z</time>
      </trkpt>
      <trkpt lat="44.66433" lon="5.05193">
        <ele>865</ele>
        <time>2026-05-26T10:47:40.000Z</time>
      </trkpt>
      <trkpt lat="44.66433" lon="5.05193">
        <ele>865</ele>
        <time>2026-05-26T10:47:41.000Z</time>
      </trkpt>
      <trkpt lat="44.66433" lon="5.05193">
        <ele>865</ele>
        <time>2026-05-26T10:47:42.000Z</time>
      </trkpt>
      <trkpt lat="44.66433" lon="5.05193">
        <ele>865</ele>
        <time>2026-05-26T10:47:43.000Z</time>
      </trkpt>
      <trkpt lat="44.66433" lon="5.05193">
        <ele>865</ele>
        <time>2026-05-26T10:47:44.000Z</time>
      </trkpt>
      <trkpt lat="44.66433" lon="5.05193">
        <ele>865</ele>
        <time>2026-05-26T10:47:45.000Z</time>
      </trkpt>
      <trkpt lat="44.66433" lon="5.05193">
        <ele>865</ele>
        <time>2026-05-26T10:47:46.000Z</time>
      </trkpt>
      <trkpt lat="44.66433" lon="5.05193">
        <ele>865</ele>
        <time>2026-05-26T10:47:47.000Z</time>
      </trkpt>
      <trkpt lat="44.66433" lon="5.05193">
        <ele>865</ele>
        <time>2026-05-26T10:47:48.000Z</time>
      </trkpt>
      <trkpt lat="44.66433" lon="5.05193">
        <ele>865</ele>
        <time>2026-05-26T10:47:49.000Z</time>
      </trkpt>
      <trkpt lat="44.66433" lon="5.05193">
        <ele>865</ele>
        <time>2026-05-26T10:47:50.000Z</time>
      </trkpt>
      <trkpt lat="44.66433" lon="5.05193">
        <ele>865</ele>
        <time>2026-05-26T10:47:51.000Z</time>
      </trkpt>
      <trkpt lat="44.66433" lon="5.05193">
        <ele>865</ele>
        <time>2026-05-26T10:47:52.000Z</time>
      </trkpt>
      <trkpt lat="44.66433" lon="5.05193">
        <ele>865</ele>
        <time>2026-05-26T10:47:53.000Z</time>
      </trkpt>
      <trkpt lat="44.66433" lon="5.05193">
        <ele>865</ele>
        <time>2026-05-26T10:47:54.000Z</time>
      </trkpt>
      <trkpt lat="44.66433" lon="5.05193">
        <ele>865</ele>
        <time>2026-05-26T10:47:55.000Z</time>
      </trkpt>
      <trkpt lat="44.66433" lon="5.05193">
        <ele>865</ele>
        <time>2026-05-26T10:47:56.000Z</time>
      </trkpt>
      <trkpt lat="44.66433" lon="5.05193">
        <ele>865</ele>
        <time>2026-05-26T10:47:57.000Z</time>
      </trkpt>
      <trkpt lat="44.66433" lon="5.05193">
        <ele>865</ele>
        <time>2026-05-26T10:47:58.000Z</time>
      </trkpt>
      <trkpt lat="44.66433" lon="5.05193">
        <ele>865</ele>
        <time>2026-05-26T10:47:59.000Z</time>
      </trkpt>
      <trkpt lat="44.66433" lon="5.05193">
        <ele>865</ele>
        <time>2026-05-26T10:48:00.000Z</time>
      </trkpt>
      <trkpt lat="44.66433" lon="5.05193">
        <ele>865</ele>
        <time>2026-05-26T10:48:01.000Z</time>
      </trkpt>
      <trkpt lat="44.66433" lon="5.05193">
        <ele>865</ele>
        <time>2026-05-26T10:48:02.000Z</time>
      </trkpt>
      <trkpt lat="44.66433" lon="5.05193">
        <ele>865</ele>
        <time>2026-05-26T10:48:03.000Z</time>
      </trkpt>
      <trkpt lat="44.66433" lon="5.05193">
        <ele>865</ele>
        <time>2026-05-26T10:48:04.000Z</time>
      </trkpt>
      <trkpt lat="44.66433" lon="5.05193">
        <ele>865</ele>
        <time>2026-05-26T10:48:05.000Z</time>
      </trkpt>
      <trkpt lat="44.66433" lon="5.05194">
        <ele>866</ele>
        <time>2026-05-26T10:48:06.000Z</time>
      </trkpt>
      <trkpt lat="44.66433" lon="5.05194">
        <ele>866</ele>
        <time>2026-05-26T10:48:07.000Z</time>
      </trkpt>
      <trkpt lat="44.66433" lon="5.05194">
        <ele>866</ele>
        <time>2026-05-26T10:48:08.000Z</time>
      </trkpt>
      <trkpt lat="44.66433" lon="5.05194">
        <ele>866</ele>
        <time>2026-05-26T10:48:09.000Z</time>
      </trkpt>
      <trkpt lat="44.66433" lon="5.05194">
        <ele>866</ele>
        <time>2026-05-26T10:48:10.000Z</time>
      </trkpt>
      <trkpt lat="44.66433" lon="5.05194">
        <ele>866</ele>
        <time>2026-05-26T10:48:11.000Z</time>
      </trkpt>
      <trkpt lat="44.66433" lon="5.05194">
        <ele>866</ele>
        <time>2026-05-26T10:48:12.000Z</time>
      </trkpt>
      <trkpt lat="44.66433" lon="5.05194">
        <ele>866</ele>
        <time>2026-05-26T10:48:13.000Z</time>
      </trkpt>
      <trkpt lat="44.66433" lon="5.05194">
        <ele>866</ele>
        <time>2026-05-26T10:48:14.000Z</time>
      </trkpt>
      <trkpt lat="44.66433" lon="5.05194">
        <ele>866</ele>
        <time>2026-05-26T10:48:15.000Z</time>
      </trkpt>
      <trkpt lat="44.66433" lon="5.05194">
        <ele>866</ele>
        <time>2026-05-26T10:48:16.000Z</time>
      </trkpt>
      <trkpt lat="44.66433" lon="5.05194">
        <ele>866</ele>
        <time>2026-05-26T10:48:17.000Z</time>
      </trkpt>
      <trkpt lat="44.66433" lon="5.05194">
        <ele>866</ele>
        <time>2026-05-26T10:48:18.000Z</time>
      </trkpt>
      <trkpt lat="44.66433" lon="5.05194">
        <ele>866</ele>
        <time>2026-05-26T10:48:19.000Z</time>
      </trkpt>
      <trkpt lat="44.66433" lon="5.05194">
        <ele>866</ele>
        <time>2026-05-26T10:48:20.000Z</time>
      </trkpt>
      <trkpt lat="44.66433" lon="5.05194">
        <ele>866</ele>
        <time>2026-05-26T10:48:21.000Z</time>
      </trkpt>
      <trkpt lat="44.66433" lon="5.05194">
        <ele>866</ele>
        <time>2026-05-26T10:48:22.000Z</time>
      </trkpt>
      <trkpt lat="44.66433" lon="5.05194">
        <ele>866</ele>
        <time>2026-05-26T10:48:23.000Z</time>
      </trkpt>
      <trkpt lat="44.66433" lon="5.05194">
        <ele>866</ele>
        <time>2026-05-26T10:48:24.000Z</time>
      </trkpt>
      <trkpt lat="44.66434" lon="5.05194">
        <ele>866</ele>
        <time>2026-05-26T10:48:25.000Z</time>
      </trkpt>
      <trkpt lat="44.66434" lon="5.05194">
        <ele>866</ele>
        <time>2026-05-26T10:48:26.000Z</time>
      </trkpt>
      <trkpt lat="44.66434" lon="5.05194">
        <ele>866</ele>
        <time>2026-05-26T10:48:27.000Z</time>
      </trkpt>
      <trkpt lat="44.66434" lon="5.05194">
        <ele>866</ele>
        <time>2026-05-26T10:48:28.000Z</time>
      </trkpt>
      <trkpt lat="44.66434" lon="5.05194">
        <ele>866</ele>
        <time>2026-05-26T10:48:29.000Z</time>
      </trkpt>
      <trkpt lat="44.66434" lon="5.05194">
        <ele>866</ele>
        <time>2026-05-26T10:48:30.000Z</time>
      </trkpt>
      <trkpt lat="44.66434" lon="5.05194">
        <ele>866</ele>
        <time>2026-05-26T10:48:31.000Z</time>
      </trkpt>
      <trkpt lat="44.66434" lon="5.05194">
        <ele>866</ele>
        <time>2026-05-26T10:48:32.000Z</time>
      </trkpt>
      <trkpt lat="44.66434" lon="5.05194">
        <ele>866</ele>
        <time>2026-05-26T10:48:33.000Z</time>
      </trkpt>
      <trkpt lat="44.66434" lon="5.05194">
        <ele>866</ele>
        <time>2026-05-26T10:48:34.000Z</time>
      </trkpt>
      <trkpt lat="44.66434" lon="5.05194">
        <ele>866</ele>
        <time>2026-05-26T10:48:35.000Z</time>
      </trkpt>
      <trkpt lat="44.66434" lon="5.05194">
        <ele>866</ele>
        <time>2026-05-26T10:48:36.000Z</time>
      </trkpt>
      <trkpt lat="44.66434" lon="5.05194">
        <ele>866</ele>
        <time>2026-05-26T10:48:37.000Z</time>
      </trkpt>
      <trkpt lat="44.66434" lon="5.05194">
        <ele>866</ele>
        <time>2026-05-26T10:48:38.000Z</time>
      </trkpt>
      <trkpt lat="44.66434" lon="5.05194">
        <ele>866</ele>
        <time>2026-05-26T10:48:39.000Z</time>
      </trkpt>
      <trkpt lat="44.66434" lon="5.05194">
        <ele>866</ele>
        <time>2026-05-26T10:48:40.000Z</time>
      </trkpt>
      <trkpt lat="44.66434" lon="5.05193">
        <ele>865</ele>
        <time>2026-05-26T10:48:41.000Z</time>
      </trkpt>
      <trkpt lat="44.66432" lon="5.05192">
        <ele>863</ele>
        <time>2026-05-26T10:48:42.000Z</time>
      </trkpt>
      <trkpt lat="44.66432" lon="5.05191">
        <ele>863</ele>
        <time>2026-05-26T10:48:43.000Z</time>
      </trkpt>
      <trkpt lat="44.66432" lon="5.05191">
        <ele>863</ele>
        <time>2026-05-26T10:48:44.000Z</time>
      </trkpt>
      <trkpt lat="44.66432" lon="5.05192">
        <ele>864</ele>
        <time>2026-05-26T10:48:45.000Z</time>
      </trkpt>
      <trkpt lat="44.66432" lon="5.05192">
        <ele>866</ele>
        <time>2026-05-26T10:48:46.000Z</time>
      </trkpt>
      <trkpt lat="44.66433" lon="5.05192">
        <ele>865</ele>
        <time>2026-05-26T10:48:47.000Z</time>
      </trkpt>
      <trkpt lat="44.66434" lon="5.05191">
        <ele>864</ele>
        <time>2026-05-26T10:48:48.000Z</time>
      </trkpt>
      <trkpt lat="44.66434" lon="5.05191">
        <ele>864</ele>
        <time>2026-05-26T10:48:49.000Z</time>
      </trkpt>
      <trkpt lat="44.66434" lon="5.0519">
        <ele>865</ele>
        <time>2026-05-26T10:48:50.000Z</time>
      </trkpt>
      <trkpt lat="44.66434" lon="5.0519">
        <ele>865</ele>
        <time>2026-05-26T10:48:51.000Z</time>
      </trkpt>
      <trkpt lat="44.66433" lon="5.05189">
        <ele>864</ele>
        <time>2026-05-26T10:48:52.000Z</time>
      </trkpt>
      <trkpt lat="44.66433" lon="5.05189">
        <ele>864</ele>
        <time>2026-05-26T10:48:53.000Z</time>
      </trkpt>
      <trkpt lat="44.66432" lon="5.05188">
        <ele>864</ele>
        <time>2026-05-26T10:48:54.000Z</time>
      </trkpt>
      <trkpt lat="44.6643" lon="5.05188">
        <ele>864</ele>
        <time>2026-05-26T10:48:55.000Z</time>
      </trkpt>
      <trkpt lat="44.6643" lon="5.05188">
        <ele>864</ele>
        <time>2026-05-26T10:48:56.000Z</time>
      </trkpt>
      <trkpt lat="44.6643" lon="5.05188">
        <ele>864</ele>
        <time>2026-05-26T10:48:57.000Z</time>
      </trkpt>
      <trkpt lat="44.6643" lon="5.05188">
        <ele>864</ele>
        <time>2026-05-26T10:48:58.000Z</time>
      </trkpt>
      <trkpt lat="44.6643" lon="5.05188">
        <ele>864</ele>
        <time>2026-05-26T10:48:59.000Z</time>
      </trkpt>
      <trkpt lat="44.6643" lon="5.05188">
        <ele>864</ele>
        <time>2026-05-26T10:49:00.000Z</time>
      </trkpt>
      <trkpt lat="44.6643" lon="5.05188">
        <ele>864</ele>
        <time>2026-05-26T10:49:01.000Z</time>
      </trkpt>
      <trkpt lat="44.6643" lon="5.05188">
        <ele>864</ele>
        <time>2026-05-26T10:49:02.000Z</time>
      </trkpt>
      <trkpt lat="44.66431" lon="5.05194">
        <ele>863</ele>
        <time>2026-05-26T10:49:03.000Z</time>
      </trkpt>
      <trkpt lat="44.66431" lon="5.05194">
        <ele>863</ele>
        <time>2026-05-26T10:49:04.000Z</time>
      </trkpt>
      <trkpt lat="44.66431" lon="5.05194">
        <ele>863</ele>
        <time>2026-05-26T10:49:05.000Z</time>
      </trkpt>
      <trkpt lat="44.66431" lon="5.05194">
        <ele>863</ele>
        <time>2026-05-26T10:49:06.000Z</time>
      </trkpt>
      <trkpt lat="44.66432" lon="5.05194">
        <ele>863</ele>
        <time>2026-05-26T10:49:07.000Z</time>
      </trkpt>
      <trkpt lat="44.66432" lon="5.05194">
        <ele>863</ele>
        <time>2026-05-26T10:49:08.000Z</time>
      </trkpt>
      <trkpt lat="44.66432" lon="5.05194">
        <ele>863</ele>
        <time>2026-05-26T10:49:09.000Z</time>
      </trkpt>
      <trkpt lat="44.66432" lon="5.05194">
        <ele>863</ele>
        <time>2026-05-26T10:49:10.000Z</time>
      </trkpt>
      <trkpt lat="44.66432" lon="5.05194">
        <ele>864</ele>
        <time>2026-05-26T10:49:11.000Z</time>
      </trkpt>
      <trkpt lat="44.66432" lon="5.05195">
        <ele>864</ele>
        <time>2026-05-26T10:49:12.000Z</time>
      </trkpt>
      <trkpt lat="44.66432" lon="5.05195">
        <ele>864</ele>
        <time>2026-05-26T10:49:13.000Z</time>
      </trkpt>
      <trkpt lat="44.66432" lon="5.05195">
        <ele>864</ele>
        <time>2026-05-26T10:49:14.000Z</time>
      </trkpt>
      <trkpt lat="44.66432" lon="5.05195">
        <ele>864</ele>
        <time>2026-05-26T10:49:15.000Z</time>
      </trkpt>
      <trkpt lat="44.66432" lon="5.05195">
        <ele>864</ele>
        <time>2026-05-26T10:49:16.000Z</time>
      </trkpt>
      <trkpt lat="44.66432" lon="5.05195">
        <ele>864</ele>
        <time>2026-05-26T10:49:17.000Z</time>
      </trkpt>
      <trkpt lat="44.66432" lon="5.05195">
        <ele>864</ele>
        <time>2026-05-26T10:49:18.000Z</time>
      </trkpt>
      <trkpt lat="44.66432" lon="5.05195">
        <ele>864</ele>
        <time>2026-05-26T10:49:19.000Z</time>
      </trkpt>
      <trkpt lat="44.66432" lon="5.05195">
        <ele>864</ele>
        <time>2026-05-26T10:49:20.000Z</time>
      </trkpt>
      <trkpt lat="44.66432" lon="5.05195">
        <ele>864</ele>
        <time>2026-05-26T10:49:21.000Z</time>
      </trkpt>
      <trkpt lat="44.66432" lon="5.05195">
        <ele>864</ele>
        <time>2026-05-26T10:49:22.000Z</time>
      </trkpt>
      <trkpt lat="44.66432" lon="5.05195">
        <ele>864</ele>
        <time>2026-05-26T10:49:23.000Z</time>
      </trkpt>
      <trkpt lat="44.66432" lon="5.05195">
        <ele>864</ele>
        <time>2026-05-26T10:49:24.000Z</time>
      </trkpt>
      <trkpt lat="44.66432" lon="5.05195">
        <ele>864</ele>
        <time>2026-05-26T10:49:25.000Z</time>
      </trkpt>
      <trkpt lat="44.66432" lon="5.05195">
        <ele>864</ele>
        <time>2026-05-26T10:49:26.000Z</time>
      </trkpt>
      <trkpt lat="44.66432" lon="5.05195">
        <ele>864</ele>
        <time>2026-05-26T10:49:27.000Z</time>
      </trkpt>
      <trkpt lat="44.66432" lon="5.05195">
        <ele>864</ele>
        <time>2026-05-26T10:49:28.000Z</time>
      </trkpt>
      <trkpt lat="44.66432" lon="5.05195">
        <ele>864</ele>
        <time>2026-05-26T10:49:29.000Z</time>
      </trkpt>
      <trkpt lat="44.66432" lon="5.05195">
        <ele>864</ele>
        <time>2026-05-26T10:49:30.000Z</time>
      </trkpt>
      <trkpt lat="44.66432" lon="5.05195">
        <ele>864</ele>
        <time>2026-05-26T10:49:31.000Z</time>
      </trkpt>
      <trkpt lat="44.66432" lon="5.05195">
        <ele>864</ele>
        <time>2026-05-26T10:49:32.000Z</time>
      </trkpt>
      <trkpt lat="44.66432" lon="5.05195">
        <ele>864</ele>
        <time>2026-05-26T10:49:33.000Z</time>
      </trkpt>
      <trkpt lat="44.66432" lon="5.05195">
        <ele>864</ele>
        <time>2026-05-26T10:49:34.000Z</time>
      </trkpt>
      <trkpt lat="44.66432" lon="5.05195">
        <ele>864</ele>
        <time>2026-05-26T10:49:35.000Z</time>
      </trkpt>
      <trkpt lat="44.66432" lon="5.05195">
        <ele>864</ele>
        <time>2026-05-26T10:49:36.000Z</time>
      </trkpt>
      <trkpt lat="44.66432" lon="5.05195">
        <ele>864</ele>
        <time>2026-05-26T10:49:37.000Z</time>
      </trkpt>
      <trkpt lat="44.66432" lon="5.05195">
        <ele>864</ele>
        <time>2026-05-26T10:49:38.000Z</time>
      </trkpt>
      <trkpt lat="44.66432" lon="5.05195">
        <ele>864</ele>
        <time>2026-05-26T10:49:39.000Z</time>
      </trkpt>
      <trkpt lat="44.66432" lon="5.05195">
        <ele>864</ele>
        <time>2026-05-26T10:49:40.000Z</time>
      </trkpt>
      <trkpt lat="44.66432" lon="5.05195">
        <ele>864</ele>
        <time>2026-05-26T10:49:41.000Z</time>
      </trkpt>
      <trkpt lat="44.66432" lon="5.05195">
        <ele>864</ele>
        <time>2026-05-26T10:49:42.000Z</time>
      </trkpt>
      <trkpt lat="44.66432" lon="5.05195">
        <ele>864</ele>
        <time>2026-05-26T10:49:43.000Z</time>
      </trkpt>
      <trkpt lat="44.66432" lon="5.05195">
        <ele>864</ele>
        <time>2026-05-26T10:49:44.000Z</time>
      </trkpt>
      <trkpt lat="44.66432" lon="5.05195">
        <ele>864</ele>
        <time>2026-05-26T10:49:45.000Z</time>
      </trkpt>
      <trkpt lat="44.66432" lon="5.05195">
        <ele>864</ele>
        <time>2026-05-26T10:49:46.000Z</time>
      </trkpt>
      <trkpt lat="44.66432" lon="5.05195">
        <ele>864</ele>
        <time>2026-05-26T10:49:47.000Z</time>
      </trkpt>
      <trkpt lat="44.66432" lon="5.05195">
        <ele>864</ele>
        <time>2026-05-26T10:49:48.000Z</time>
      </trkpt>
      <trkpt lat="44.66432" lon="5.05195">
        <ele>864</ele>
        <time>2026-05-26T10:49:49.000Z</time>
      </trkpt>
      <trkpt lat="44.66432" lon="5.05195">
        <ele>864</ele>
        <time>2026-05-26T10:49:50.000Z</time>
      </trkpt>
      <trkpt lat="44.66432" lon="5.05195">
        <ele>864</ele>
        <time>2026-05-26T10:49:51.000Z</time>
      </trkpt>
      <trkpt lat="44.66432" lon="5.05195">
        <ele>864</ele>
        <time>2026-05-26T10:49:52.000Z</time>
      </trkpt>
      <trkpt lat="44.66432" lon="5.05195">
        <ele>864</ele>
        <time>2026-05-26T10:49:53.000Z</time>
      </trkpt>
      <trkpt lat="44.66432" lon="5.05195">
        <ele>864</ele>
        <time>2026-05-26T10:49:54.000Z</time>
      </trkpt>
      <trkpt lat="44.66432" lon="5.05195">
        <ele>864</ele>
        <time>2026-05-26T10:49:55.000Z</time>
      </trkpt>
      <trkpt lat="44.66432" lon="5.05195">
        <ele>864</ele>
        <time>2026-05-26T10:49:56.000Z</time>
      </trkpt>
      <trkpt lat="44.66432" lon="5.05195">
        <ele>864</ele>
        <time>2026-05-26T10:49:57.000Z</time>
      </trkpt>
      <trkpt lat="44.66432" lon="5.05195">
        <ele>864</ele>
        <time>2026-05-26T10:49:58.000Z</time>
      </trkpt>
      <trkpt lat="44.66432" lon="5.05195">
        <ele>864</ele>
        <time>2026-05-26T10:49:59.000Z</time>
      </trkpt>
      <trkpt lat="44.66432" lon="5.05195">
        <ele>864</ele>
        <time>2026-05-26T10:50:00.000Z</time>
      </trkpt>
      <trkpt lat="44.66432" lon="5.05195">
        <ele>864</ele>
        <time>2026-05-26T10:50:01.000Z</time>
      </trkpt>
      <trkpt lat="44.66432" lon="5.05195">
        <ele>864</ele>
        <time>2026-05-26T10:50:02.000Z</time>
      </trkpt>
      <trkpt lat="44.66432" lon="5.05195">
        <ele>864</ele>
        <time>2026-05-26T10:50:03.000Z</time>
      </trkpt>
      <trkpt lat="44.66432" lon="5.05195">
        <ele>864</ele>
        <time>2026-05-26T10:50:04.000Z</time>
      </trkpt>
      <trkpt lat="44.66432" lon="5.05195">
        <ele>864</ele>
        <time>2026-05-26T10:50:05.000Z</time>
      </trkpt>
      <trkpt lat="44.66432" lon="5.05195">
        <ele>864</ele>
        <time>2026-05-26T10:50:06.000Z</time>
      </trkpt>
      <trkpt lat="44.66432" lon="5.05195">
        <ele>864</ele>
        <time>2026-05-26T10:50:07.000Z</time>
      </trkpt>
      <trkpt lat="44.66432" lon="5.05195">
        <ele>864</ele>
        <time>2026-05-26T10:50:08.000Z</time>
      </trkpt>
      <trkpt lat="44.66432" lon="5.05195">
        <ele>864</ele>
        <time>2026-05-26T10:50:09.000Z</time>
      </trkpt>
      <trkpt lat="44.66432" lon="5.05195">
        <ele>864</ele>
        <time>2026-05-26T10:50:10.000Z</time>
      </trkpt>
      <trkpt lat="44.66432" lon="5.05195">
        <ele>864</ele>
        <time>2026-05-26T10:50:11.000Z</time>
      </trkpt>
      <trkpt lat="44.66432" lon="5.05195">
        <ele>864</ele>
        <time>2026-05-26T10:50:12.000Z</time>
      </trkpt>
      <trkpt lat="44.66432" lon="5.05195">
        <ele>864</ele>
        <time>2026-05-26T10:50:13.000Z</time>
      </trkpt>
      <trkpt lat="44.66432" lon="5.05195">
        <ele>864</ele>
        <time>2026-05-26T10:50:14.000Z</time>
      </trkpt>
      <trkpt lat="44.66432" lon="5.05195">
        <ele>864</ele>
        <time>2026-05-26T10:50:15.000Z</time>
      </trkpt>
      <trkpt lat="44.66432" lon="5.05195">
        <ele>864</ele>
        <time>2026-05-26T10:50:16.000Z</time>
      </trkpt>
      <trkpt lat="44.66432" lon="5.05195">
        <ele>864</ele>
        <time>2026-05-26T10:50:17.000Z</time>
      </trkpt>
      <trkpt lat="44.66432" lon="5.05195">
        <ele>864</ele>
        <time>2026-05-26T10:50:18.000Z</time>
      </trkpt>
      <trkpt lat="44.66432" lon="5.05195">
        <ele>864</ele>
        <time>2026-05-26T10:50:19.000Z</time>
      </trkpt>
      <trkpt lat="44.66432" lon="5.05195">
        <ele>864</ele>
        <time>2026-05-26T10:50:20.000Z</time>
      </trkpt>
      <trkpt lat="44.66432" lon="5.05195">
        <ele>864</ele>
        <time>2026-05-26T10:50:21.000Z</time>
      </trkpt>
      <trkpt lat="44.66432" lon="5.05195">
        <ele>864</ele>
        <time>2026-05-26T10:50:22.000Z</time>
      </trkpt>
      <trkpt lat="44.66432" lon="5.05195">
        <ele>864</ele>
        <time>2026-05-26T10:50:23.000Z</time>
      </trkpt>
      <trkpt lat="44.66432" lon="5.05195">
        <ele>864</ele>
        <time>2026-05-26T10:50:24.000Z</time>
      </trkpt>
      <trkpt lat="44.66432" lon="5.05195">
        <ele>864</ele>
        <time>2026-05-26T10:50:25.000Z</time>
      </trkpt>
      <trkpt lat="44.66432" lon="5.05195">
        <ele>864</ele>
        <time>2026-05-26T10:50:26.000Z</time>
      </trkpt>
      <trkpt lat="44.66432" lon="5.05195">
        <ele>864</ele>
        <time>2026-05-26T10:50:27.000Z</time>
      </trkpt>
      <trkpt lat="44.66432" lon="5.05195">
        <ele>864</ele>
        <time>2026-05-26T10:50:28.000Z</time>
      </trkpt>
      <trkpt lat="44.66432" lon="5.05195">
        <ele>864</ele>
        <time>2026-05-26T10:50:29.000Z</time>
      </trkpt>
      <trkpt lat="44.66432" lon="5.05195">
        <ele>864</ele>
        <time>2026-05-26T10:50:30.000Z</time>
      </trkpt>
      <trkpt lat="44.66432" lon="5.05195">
        <ele>864</ele>
        <time>2026-05-26T10:50:31.000Z</time>
      </trkpt>
      <trkpt lat="44.66432" lon="5.05195">
        <ele>864</ele>
        <time>2026-05-26T10:50:32.000Z</time>
      </trkpt>
      <trkpt lat="44.66432" lon="5.05195">
        <ele>864</ele>
        <time>2026-05-26T10:50:33.000Z</time>
      </trkpt>
      <trkpt lat="44.66432" lon="5.05195">
        <ele>864</ele>
        <time>2026-05-26T10:50:34.000Z</time>
      </trkpt>
      <trkpt lat="44.66432" lon="5.05195">
        <ele>864</ele>
        <time>2026-05-26T10:50:35.000Z</time>
      </trkpt>
      <trkpt lat="44.66432" lon="5.05195">
        <ele>864</ele>
        <time>2026-05-26T10:50:36.000Z</time>
      </trkpt>
      <trkpt lat="44.66432" lon="5.05195">
        <ele>864</ele>
        <time>2026-05-26T10:50:37.000Z</time>
      </trkpt>
      <trkpt lat="44.66432" lon="5.05195">
        <ele>864</ele>
        <time>2026-05-26T10:50:38.000Z</time>
      </trkpt>
      <trkpt lat="44.66432" lon="5.05195">
        <ele>864</ele>
        <time>2026-05-26T10:50:39.000Z</time>
      </trkpt>
      <trkpt lat="44.66432" lon="5.05195">
        <ele>864</ele>
        <time>2026-05-26T10:50:40.000Z</time>
      </trkpt>
      <trkpt lat="44.66432" lon="5.05195">
        <ele>864</ele>
        <time>2026-05-26T10:50:41.000Z</time>
      </trkpt>
      <trkpt lat="44.66432" lon="5.05195">
        <ele>864</ele>
        <time>2026-05-26T10:50:42.000Z</time>
      </trkpt>
      <trkpt lat="44.66432" lon="5.05195">
        <ele>864</ele>
        <time>2026-05-26T10:50:43.000Z</time>
      </trkpt>
      <trkpt lat="44.66432" lon="5.05195">
        <ele>864</ele>
        <time>2026-05-26T10:50:44.000Z</time>
      </trkpt>
      <trkpt lat="44.66432" lon="5.05195">
        <ele>864</ele>
        <time>2026-05-26T10:50:45.000Z</time>
      </trkpt>
      <trkpt lat="44.66432" lon="5.05195">
        <ele>864</ele>
        <time>2026-05-26T10:50:46.000Z</time>
      </trkpt>
      <trkpt lat="44.66432" lon="5.05195">
        <ele>864</ele>
        <time>2026-05-26T10:50:47.000Z</time>
      </trkpt>
      <trkpt lat="44.66432" lon="5.05195">
        <ele>864</ele>
        <time>2026-05-26T10:50:48.000Z</time>
      </trkpt>
      <trkpt lat="44.66432" lon="5.05195">
        <ele>864</ele>
        <time>2026-05-26T10:50:49.000Z</time>
      </trkpt>
      <trkpt lat="44.66432" lon="5.05195">
        <ele>864</ele>
        <time>2026-05-26T10:50:50.000Z</time>
      </trkpt>
      <trkpt lat="44.66432" lon="5.05195">
        <ele>864</ele>
        <time>2026-05-26T10:50:51.000Z</time>
      </trkpt>
      <trkpt lat="44.66432" lon="5.05195">
        <ele>864</ele>
        <time>2026-05-26T10:50:52.000Z</time>
      </trkpt>
      <trkpt lat="44.66432" lon="5.05195">
        <ele>864</ele>
        <time>2026-05-26T10:50:53.000Z</time>
      </trkpt>
      <trkpt lat="44.66432" lon="5.05195">
        <ele>864</ele>
        <time>2026-05-26T10:50:54.000Z</time>
      </trkpt>
      <trkpt lat="44.66432" lon="5.05195">
        <ele>864</ele>
        <time>2026-05-26T10:50:55.000Z</time>
      </trkpt>
      <trkpt lat="44.66432" lon="5.05195">
        <ele>864</ele>
        <time>2026-05-26T10:50:56.000Z</time>
      </trkpt>
      <trkpt lat="44.66432" lon="5.05195">
        <ele>864</ele>
        <time>2026-05-26T10:50:57.000Z</time>
      </trkpt>
      <trkpt lat="44.66432" lon="5.05195">
        <ele>864</ele>
        <time>2026-05-26T10:50:58.000Z</time>
      </trkpt>
      <trkpt lat="44.66432" lon="5.05195">
        <ele>864</ele>
        <time>2026-05-26T10:50:59.000Z</time>
      </trkpt>
      <trkpt lat="44.66432" lon="5.05195">
        <ele>864</ele>
        <time>2026-05-26T10:51:00.000Z</time>
      </trkpt>
      <trkpt lat="44.66432" lon="5.05195">
        <ele>864</ele>
        <time>2026-05-26T10:51:01.000Z</time>
      </trkpt>
      <trkpt lat="44.66432" lon="5.05195">
        <ele>864</ele>
        <time>2026-05-26T10:51:02.000Z</time>
      </trkpt>
      <trkpt lat="44.66432" lon="5.05195">
        <ele>864</ele>
        <time>2026-05-26T10:51:03.000Z</time>
      </trkpt>
      <trkpt lat="44.66432" lon="5.05195">
        <ele>864</ele>
        <time>2026-05-26T10:51:04.000Z</time>
      </trkpt>
      <trkpt lat="44.66432" lon="5.05195">
        <ele>864</ele>
        <time>2026-05-26T10:51:05.000Z</time>
      </trkpt>
      <trkpt lat="44.66432" lon="5.05195">
        <ele>864</ele>
        <time>2026-05-26T10:51:06.000Z</time>
      </trkpt>
      <trkpt lat="44.66432" lon="5.05195">
        <ele>864</ele>
        <time>2026-05-26T10:51:07.000Z</time>
      </trkpt>
      <trkpt lat="44.66432" lon="5.05195">
        <ele>864</ele>
        <time>2026-05-26T10:51:08.000Z</time>
      </trkpt>
      <trkpt lat="44.66432" lon="5.05195">
        <ele>864</ele>
        <time>2026-05-26T10:51:09.000Z</time>
      </trkpt>
      <trkpt lat="44.66432" lon="5.05195">
        <ele>864</ele>
        <time>2026-05-26T10:51:10.000Z</time>
      </trkpt>
      <trkpt lat="44.66432" lon="5.05195">
        <ele>864</ele>
        <time>2026-05-26T10:51:11.000Z</time>
      </trkpt>
      <trkpt lat="44.66432" lon="5.05195">
        <ele>864</ele>
        <time>2026-05-26T10:51:12.000Z</time>
      </trkpt>
      <trkpt lat="44.66432" lon="5.05195">
        <ele>864</ele>
        <time>2026-05-26T10:51:13.000Z</time>
      </trkpt>
      <trkpt lat="44.66432" lon="5.05195">
        <ele>864</ele>
        <time>2026-05-26T10:51:14.000Z</time>
      </trkpt>
      <trkpt lat="44.66432" lon="5.05195">
        <ele>864</ele>
        <time>2026-05-26T10:51:15.000Z</time>
      </trkpt>
      <trkpt lat="44.66432" lon="5.05195">
        <ele>864</ele>
        <time>2026-05-26T10:51:16.000Z</time>
      </trkpt>
      <trkpt lat="44.66432" lon="5.05195">
        <ele>864</ele>
        <time>2026-05-26T10:51:17.000Z</time>
      </trkpt>
      <trkpt lat="44.66432" lon="5.05195">
        <ele>864</ele>
        <time>2026-05-26T10:51:18.000Z</time>
      </trkpt>
      <trkpt lat="44.66432" lon="5.05195">
        <ele>864</ele>
        <time>2026-05-26T10:51:19.000Z</time>
      </trkpt>
      <trkpt lat="44.66432" lon="5.05195">
        <ele>864</ele>
        <time>2026-05-26T10:51:20.000Z</time>
      </trkpt>
      <trkpt lat="44.66432" lon="5.05195">
        <ele>864</ele>
        <time>2026-05-26T10:51:21.000Z</time>
      </trkpt>
      <trkpt lat="44.66432" lon="5.05195">
        <ele>864</ele>
        <time>2026-05-26T10:51:22.000Z</time>
      </trkpt>
      <trkpt lat="44.66432" lon="5.05195">
        <ele>864</ele>
        <time>2026-05-26T10:51:23.000Z</time>
      </trkpt>
      <trkpt lat="44.66432" lon="5.05195">
        <ele>864</ele>
        <time>2026-05-26T10:51:24.000Z</time>
      </trkpt>
      <trkpt lat="44.66432" lon="5.05195">
        <ele>864</ele>
        <time>2026-05-26T10:51:25.000Z</time>
      </trkpt>
      <trkpt lat="44.66432" lon="5.05195">
        <ele>864</ele>
        <time>2026-05-26T10:51:26.000Z</time>
      </trkpt>
      <trkpt lat="44.66432" lon="5.05195">
        <ele>864</ele>
        <time>2026-05-26T10:51:27.000Z</time>
      </trkpt>
      <trkpt lat="44.66432" lon="5.05195">
        <ele>864</ele>
        <time>2026-05-26T10:51:28.000Z</time>
      </trkpt>
      <trkpt lat="44.66432" lon="5.05195">
        <ele>864</ele>
        <time>2026-05-26T10:51:29.000Z</time>
      </trkpt>
      <trkpt lat="44.66432" lon="5.05195">
        <ele>864</ele>
        <time>2026-05-26T10:51:30.000Z</time>
      </trkpt>
      <trkpt lat="44.66432" lon="5.05195">
        <ele>864</ele>
        <time>2026-05-26T10:51:31.000Z</time>
      </trkpt>
      <trkpt lat="44.66432" lon="5.05195">
        <ele>864</ele>
        <time>2026-05-26T10:51:32.000Z</time>
      </trkpt>
      <trkpt lat="44.66432" lon="5.05195">
        <ele>864</ele>
        <time>2026-05-26T10:51:33.000Z</time>
      </trkpt>
      <trkpt lat="44.66432" lon="5.05195">
        <ele>864</ele>
        <time>2026-05-26T10:51:34.000Z</time>
      </trkpt>
      <trkpt lat="44.66432" lon="5.05195">
        <ele>864</ele>
        <time>2026-05-26T10:51:35.000Z</time>
      </trkpt>
      <trkpt lat="44.66432" lon="5.05195">
        <ele>864</ele>
        <time>2026-05-26T10:51:36.000Z</time>
      </trkpt>
      <trkpt lat="44.66432" lon="5.05195">
        <ele>864</ele>
        <time>2026-05-26T10:51:37.000Z</time>
      </trkpt>
      <trkpt lat="44.66432" lon="5.05195">
        <ele>864</ele>
        <time>2026-05-26T10:51:38.000Z</time>
      </trkpt>
      <trkpt lat="44.66432" lon="5.05195">
        <ele>864</ele>
        <time>2026-05-26T10:51:39.000Z</time>
      </trkpt>
      <trkpt lat="44.66432" lon="5.05195">
        <ele>864</ele>
        <time>2026-05-26T10:51:40.000Z</time>
      </trkpt>
      <trkpt lat="44.66432" lon="5.05195">
        <ele>864</ele>
        <time>2026-05-26T10:51:41.000Z</time>
      </trkpt>
      <trkpt lat="44.66432" lon="5.05195">
        <ele>864</ele>
        <time>2026-05-26T10:51:42.000Z</time>
      </trkpt>
      <trkpt lat="44.66432" lon="5.05195">
        <ele>864</ele>
        <time>2026-05-26T10:51:43.000Z</time>
      </trkpt>
      <trkpt lat="44.66432" lon="5.05195">
        <ele>864</ele>
        <time>2026-05-26T10:51:44.000Z</time>
      </trkpt>
      <trkpt lat="44.66432" lon="5.05195">
        <ele>864</ele>
        <time>2026-05-26T10:51:45.000Z</time>
      </trkpt>
      <trkpt lat="44.66432" lon="5.05195">
        <ele>864</ele>
        <time>2026-05-26T10:51:46.000Z</time>
      </trkpt>
      <trkpt lat="44.66432" lon="5.05195">
        <ele>864</ele>
        <time>2026-05-26T10:51:47.000Z</time>
      </trkpt>
      <trkpt lat="44.66432" lon="5.05195">
        <ele>864</ele>
        <time>2026-05-26T10:51:48.000Z</time>
      </trkpt>
      <trkpt lat="44.66432" lon="5.05195">
        <ele>864</ele>
        <time>2026-05-26T10:51:49.000Z</time>
      </trkpt>
      <trkpt lat="44.66432" lon="5.05195">
        <ele>864</ele>
        <time>2026-05-26T10:51:50.000Z</time>
      </trkpt>
      <trkpt lat="44.66432" lon="5.05195">
        <ele>864</ele>
        <time>2026-05-26T10:51:51.000Z</time>
      </trkpt>
      <trkpt lat="44.66432" lon="5.05195">
        <ele>864</ele>
        <time>2026-05-26T10:51:52.000Z</time>
      </trkpt>
      <trkpt lat="44.66432" lon="5.05195">
        <ele>864</ele>
        <time>2026-05-26T10:51:53.000Z</time>
      </trkpt>
      <trkpt lat="44.66432" lon="5.05195">
        <ele>864</ele>
        <time>2026-05-26T10:51:54.000Z</time>
      </trkpt>
      <trkpt lat="44.66432" lon="5.05195">
        <ele>864</ele>
        <time>2026-05-26T10:51:55.000Z</time>
      </trkpt>
      <trkpt lat="44.66432" lon="5.05195">
        <ele>864</ele>
        <time>2026-05-26T10:51:56.000Z</time>
      </trkpt>
      <trkpt lat="44.66432" lon="5.05195">
        <ele>864</ele>
        <time>2026-05-26T10:51:57.000Z</time>
      </trkpt>
      <trkpt lat="44.66432" lon="5.05195">
        <ele>864</ele>
        <time>2026-05-26T10:51:58.000Z</time>
      </trkpt>
      <trkpt lat="44.66432" lon="5.05195">
        <ele>864</ele>
        <time>2026-05-26T10:51:59.000Z</time>
      </trkpt>
      <trkpt lat="44.66432" lon="5.05195">
        <ele>864</ele>
        <time>2026-05-26T10:52:00.000Z</time>
      </trkpt>
      <trkpt lat="44.66432" lon="5.05195">
        <ele>864</ele>
        <time>2026-05-26T10:52:01.000Z</time>
      </trkpt>
      <trkpt lat="44.66432" lon="5.05195">
        <ele>864</ele>
        <time>2026-05-26T10:52:02.000Z</time>
      </trkpt>
      <trkpt lat="44.66432" lon="5.05195">
        <ele>864</ele>
        <time>2026-05-26T10:52:03.000Z</time>
      </trkpt>
      <trkpt lat="44.66432" lon="5.05195">
        <ele>864</ele>
        <time>2026-05-26T10:52:04.000Z</time>
      </trkpt>
      <trkpt lat="44.66432" lon="5.05195">
        <ele>864</ele>
        <time>2026-05-26T10:52:05.000Z</time>
      </trkpt>
      <trkpt lat="44.66432" lon="5.05195">
        <ele>864</ele>
        <time>2026-05-26T10:52:06.000Z</time>
      </trkpt>
      <trkpt lat="44.66432" lon="5.05195">
        <ele>864</ele>
        <time>2026-05-26T10:52:07.000Z</time>
      </trkpt>
      <trkpt lat="44.66432" lon="5.05195">
        <ele>864</ele>
        <time>2026-05-26T10:52:08.000Z</time>
      </trkpt>
      <trkpt lat="44.66432" lon="5.05195">
        <ele>864</ele>
        <time>2026-05-26T10:52:09.000Z</time>
      </trkpt>
      <trkpt lat="44.66432" lon="5.05195">
        <ele>864</ele>
        <time>2026-05-26T10:52:10.000Z</time>
      </trkpt>
      <trkpt lat="44.66432" lon="5.05195">
        <ele>864</ele>
        <time>2026-05-26T10:52:11.000Z</time>
      </trkpt>
      <trkpt lat="44.66432" lon="5.05195">
        <ele>864</ele>
        <time>2026-05-26T10:52:12.000Z</time>
      </trkpt>
      <trkpt lat="44.66432" lon="5.05195">
        <ele>864</ele>
        <time>2026-05-26T10:52:13.000Z</time>
      </trkpt>
      <trkpt lat="44.66432" lon="5.05195">
        <ele>864</ele>
        <time>2026-05-26T10:52:14.000Z</time>
      </trkpt>
      <trkpt lat="44.66432" lon="5.05195">
        <ele>864</ele>
        <time>2026-05-26T10:52:15.000Z</time>
      </trkpt>
      <trkpt lat="44.66432" lon="5.05195">
        <ele>864</ele>
        <time>2026-05-26T10:52:16.000Z</time>
      </trkpt>
      <trkpt lat="44.66432" lon="5.05195">
        <ele>864</ele>
        <time>2026-05-26T10:52:17.000Z</time>
      </trkpt>
      <trkpt lat="44.66432" lon="5.05195">
        <ele>864</ele>
        <time>2026-05-26T10:52:18.000Z</time>
      </trkpt>
      <trkpt lat="44.66432" lon="5.05195">
        <ele>864</ele>
        <time>2026-05-26T10:52:19.000Z</time>
      </trkpt>
      <trkpt lat="44.66432" lon="5.05195">
        <ele>864</ele>
        <time>2026-05-26T10:52:20.000Z</time>
      </trkpt>
      <trkpt lat="44.66432" lon="5.05195">
        <ele>864</ele>
        <time>2026-05-26T10:52:21.000Z</time>
      </trkpt>
      <trkpt lat="44.66432" lon="5.05195">
        <ele>864</ele>
        <time>2026-05-26T10:52:22.000Z</time>
      </trkpt>
      <trkpt lat="44.66432" lon="5.05195">
        <ele>864</ele>
        <time>2026-05-26T10:52:23.000Z</time>
      </trkpt>
      <trkpt lat="44.66432" lon="5.05195">
        <ele>864</ele>
        <time>2026-05-26T10:52:24.000Z</time>
      </trkpt>
      <trkpt lat="44.66432" lon="5.05195">
        <ele>864</ele>
        <time>2026-05-26T10:52:25.000Z</time>
      </trkpt>
      <trkpt lat="44.66426" lon="5.05191">
        <ele>867</ele>
        <time>2026-05-26T10:53:39.000Z</time>
      </trkpt>
      <trkpt lat="44.66426" lon="5.05192">
        <ele>866</ele>
        <time>2026-05-26T10:53:40.000Z</time>
      </trkpt>
      <trkpt lat="44.66428" lon="5.05195">
        <ele>860</ele>
        <time>2026-05-26T10:53:41.000Z</time>
      </trkpt>
      <trkpt lat="44.66428" lon="5.05195">
        <ele>860</ele>
        <time>2026-05-26T10:53:42.000Z</time>
      </trkpt>
      <trkpt lat="44.66428" lon="5.05195">
        <ele>860</ele>
        <time>2026-05-26T10:53:43.000Z</time>
      </trkpt>
      <trkpt lat="44.66428" lon="5.05195">
        <ele>860</ele>
        <time>2026-05-26T10:53:44.000Z</time>
      </trkpt>
      <trkpt lat="44.66428" lon="5.05195">
        <ele>860</ele>
        <time>2026-05-26T10:53:45.000Z</time>
      </trkpt>
      <trkpt lat="44.66428" lon="5.05195">
        <ele>860</ele>
        <time>2026-05-26T10:53:46.000Z</time>
      </trkpt>
      <trkpt lat="44.66428" lon="5.05195">
        <ele>860</ele>
        <time>2026-05-26T10:53:47.000Z</time>
      </trkpt>
      <trkpt lat="44.66428" lon="5.05195">
        <ele>860</ele>
        <time>2026-05-26T10:53:48.000Z</time>
      </trkpt>
      <trkpt lat="44.66428" lon="5.05194">
        <ele>859</ele>
        <time>2026-05-26T10:53:49.000Z</time>
      </trkpt>
      <trkpt lat="44.66428" lon="5.05194">
        <ele>859</ele>
        <time>2026-05-26T10:53:50.000Z</time>
      </trkpt>
      <trkpt lat="44.66428" lon="5.05194">
        <ele>858</ele>
        <time>2026-05-26T10:53:51.000Z</time>
      </trkpt>
      <trkpt lat="44.66428" lon="5.05194">
        <ele>858</ele>
        <time>2026-05-26T10:53:52.000Z</time>
      </trkpt>
      <trkpt lat="44.66428" lon="5.05194">
        <ele>858</ele>
        <time>2026-05-26T10:53:53.000Z</time>
      </trkpt>
      <trkpt lat="44.66428" lon="5.05194">
        <ele>858</ele>
        <time>2026-05-26T10:53:54.000Z</time>
      </trkpt>
      <trkpt lat="44.66428" lon="5.05194">
        <ele>858</ele>
        <time>2026-05-26T10:53:55.000Z</time>
      </trkpt>
      <trkpt lat="44.66428" lon="5.05194">
        <ele>858</ele>
        <time>2026-05-26T10:53:56.000Z</time>
      </trkpt>
      <trkpt lat="44.66428" lon="5.05194">
        <ele>858</ele>
        <time>2026-05-26T10:53:57.000Z</time>
      </trkpt>
      <trkpt lat="44.66428" lon="5.05194">
        <ele>858</ele>
        <time>2026-05-26T10:53:58.000Z</time>
      </trkpt>
      <trkpt lat="44.66428" lon="5.05194">
        <ele>858</ele>
        <time>2026-05-26T10:53:59.000Z</time>
      </trkpt>
      <trkpt lat="44.66428" lon="5.05194">
        <ele>858</ele>
        <time>2026-05-26T10:54:00.000Z</time>
      </trkpt>
      <trkpt lat="44.66428" lon="5.05194">
        <ele>858</ele>
        <time>2026-05-26T10:54:01.000Z</time>
      </trkpt>
      <trkpt lat="44.66428" lon="5.05194">
        <ele>858</ele>
        <time>2026-05-26T10:54:02.000Z</time>
      </trkpt>
      <trkpt lat="44.66428" lon="5.05194">
        <ele>858</ele>
        <time>2026-05-26T10:54:03.000Z</time>
      </trkpt>
      <trkpt lat="44.66428" lon="5.05194">
        <ele>858</ele>
        <time>2026-05-26T10:54:04.000Z</time>
      </trkpt>
      <trkpt lat="44.66428" lon="5.05194">
        <ele>858</ele>
        <time>2026-05-26T10:54:05.000Z</time>
      </trkpt>
      <trkpt lat="44.66428" lon="5.05194">
        <ele>858</ele>
        <time>2026-05-26T10:54:06.000Z</time>
      </trkpt>
      <trkpt lat="44.66428" lon="5.05194">
        <ele>858</ele>
        <time>2026-05-26T10:54:07.000Z</time>
      </trkpt>
      <trkpt lat="44.66428" lon="5.05194">
        <ele>858</ele>
        <time>2026-05-26T10:54:08.000Z</time>
      </trkpt>
      <trkpt lat="44.66428" lon="5.05194">
        <ele>858</ele>
        <time>2026-05-26T10:54:09.000Z</time>
      </trkpt>
      <trkpt lat="44.66428" lon="5.05194">
        <ele>858</ele>
        <time>2026-05-26T10:54:10.000Z</time>
      </trkpt>
      <trkpt lat="44.66428" lon="5.05194">
        <ele>858</ele>
        <time>2026-05-26T10:54:11.000Z</time>
      </trkpt>
      <trkpt lat="44.66428" lon="5.05194">
        <ele>858</ele>
        <time>2026-05-26T10:54:12.000Z</time>
      </trkpt>
      <trkpt lat="44.66428" lon="5.05194">
        <ele>858</ele>
        <time>2026-05-26T10:54:13.000Z</time>
      </trkpt>
      <trkpt lat="44.66428" lon="5.05194">
        <ele>858</ele>
        <time>2026-05-26T10:54:14.000Z</time>
      </trkpt>
      <trkpt lat="44.66428" lon="5.05194">
        <ele>858</ele>
        <time>2026-05-26T10:54:15.000Z</time>
      </trkpt>
      <trkpt lat="44.66428" lon="5.05194">
        <ele>858</ele>
        <time>2026-05-26T10:54:16.000Z</time>
      </trkpt>
      <trkpt lat="44.66428" lon="5.05194">
        <ele>858</ele>
        <time>2026-05-26T10:54:17.000Z</time>
      </trkpt>
      <trkpt lat="44.66428" lon="5.05194">
        <ele>858</ele>
        <time>2026-05-26T10:54:18.000Z</time>
      </trkpt>
      <trkpt lat="44.66428" lon="5.05194">
        <ele>858</ele>
        <time>2026-05-26T10:54:19.000Z</time>
      </trkpt>
      <trkpt lat="44.66428" lon="5.05194">
        <ele>858</ele>
        <time>2026-05-26T10:54:20.000Z</time>
      </trkpt>
      <trkpt lat="44.66428" lon="5.05194">
        <ele>858</ele>
        <time>2026-05-26T10:54:21.000Z</time>
      </trkpt>
      <trkpt lat="44.66428" lon="5.05194">
        <ele>858</ele>
        <time>2026-05-26T10:54:22.000Z</time>
      </trkpt>
      <trkpt lat="44.66428" lon="5.05194">
        <ele>858</ele>
        <time>2026-05-26T10:54:23.000Z</time>
      </trkpt>
      <trkpt lat="44.66428" lon="5.05194">
        <ele>858</ele>
        <time>2026-05-26T10:54:24.000Z</time>
      </trkpt>
      <trkpt lat="44.66428" lon="5.05194">
        <ele>858</ele>
        <time>2026-05-26T10:54:25.000Z</time>
      </trkpt>
      <trkpt lat="44.66428" lon="5.05194">
        <ele>858</ele>
        <time>2026-05-26T10:54:26.000Z</time>
      </trkpt>
      <trkpt lat="44.66428" lon="5.05194">
        <ele>858</ele>
        <time>2026-05-26T10:54:27.000Z</time>
      </trkpt>
      <trkpt lat="44.66428" lon="5.05194">
        <ele>858</ele>
        <time>2026-05-26T10:54:28.000Z</time>
      </trkpt>
      <trkpt lat="44.66428" lon="5.05194">
        <ele>858</ele>
        <time>2026-05-26T10:54:29.000Z</time>
      </trkpt>
      <trkpt lat="44.66428" lon="5.05194">
        <ele>858</ele>
        <time>2026-05-26T10:54:30.000Z</time>
      </trkpt>
      <trkpt lat="44.66428" lon="5.05194">
        <ele>858</ele>
        <time>2026-05-26T10:54:31.000Z</time>
      </trkpt>
      <trkpt lat="44.66428" lon="5.05194">
        <ele>858</ele>
        <time>2026-05-26T10:54:32.000Z</time>
      </trkpt>
      <trkpt lat="44.66428" lon="5.05194">
        <ele>858</ele>
        <time>2026-05-26T10:54:33.000Z</time>
      </trkpt>
      <trkpt lat="44.66428" lon="5.05194">
        <ele>858</ele>
        <time>2026-05-26T10:54:34.000Z</time>
      </trkpt>
      <trkpt lat="44.66428" lon="5.05194">
        <ele>858</ele>
        <time>2026-05-26T10:54:35.000Z</time>
      </trkpt>
      <trkpt lat="44.66428" lon="5.05194">
        <ele>858</ele>
        <time>2026-05-26T10:54:36.000Z</time>
      </trkpt>
      <trkpt lat="44.66428" lon="5.05194">
        <ele>858</ele>
        <time>2026-05-26T10:54:37.000Z</time>
      </trkpt>
      <trkpt lat="44.66428" lon="5.05194">
        <ele>858</ele>
        <time>2026-05-26T10:54:38.000Z</time>
      </trkpt>
      <trkpt lat="44.66428" lon="5.05194">
        <ele>858</ele>
        <time>2026-05-26T10:54:39.000Z</time>
      </trkpt>
      <trkpt lat="44.66428" lon="5.05194">
        <ele>858</ele>
        <time>2026-05-26T10:54:40.000Z</time>
      </trkpt>
      <trkpt lat="44.66428" lon="5.05194">
        <ele>858</ele>
        <time>2026-05-26T10:54:41.000Z</time>
      </trkpt>
      <trkpt lat="44.66428" lon="5.05194">
        <ele>858</ele>
        <time>2026-05-26T10:54:42.000Z</time>
      </trkpt>
      <trkpt lat="44.66428" lon="5.05194">
        <ele>858</ele>
        <time>2026-05-26T10:54:43.000Z</time>
      </trkpt>
      <trkpt lat="44.66428" lon="5.05194">
        <ele>858</ele>
        <time>2026-05-26T10:54:44.000Z</time>
      </trkpt>
      <trkpt lat="44.66428" lon="5.05194">
        <ele>858</ele>
        <time>2026-05-26T10:54:45.000Z</time>
      </trkpt>
      <trkpt lat="44.66428" lon="5.05194">
        <ele>858</ele>
        <time>2026-05-26T10:54:46.000Z</time>
      </trkpt>
      <trkpt lat="44.66428" lon="5.05194">
        <ele>858</ele>
        <time>2026-05-26T10:54:47.000Z</time>
      </trkpt>
      <trkpt lat="44.66429" lon="5.05193">
        <ele>859</ele>
        <time>2026-05-26T10:54:48.000Z</time>
      </trkpt>
      <trkpt lat="44.66429" lon="5.05193">
        <ele>859</ele>
        <time>2026-05-26T10:54:49.000Z</time>
      </trkpt>
      <trkpt lat="44.66429" lon="5.05193">
        <ele>859</ele>
        <time>2026-05-26T10:54:50.000Z</time>
      </trkpt>
      <trkpt lat="44.66429" lon="5.05193">
        <ele>860</ele>
        <time>2026-05-26T10:54:51.000Z</time>
      </trkpt>
      <trkpt lat="44.66429" lon="5.05193">
        <ele>860</ele>
        <time>2026-05-26T10:54:52.000Z</time>
      </trkpt>
      <trkpt lat="44.66429" lon="5.05193">
        <ele>860</ele>
        <time>2026-05-26T10:54:53.000Z</time>
      </trkpt>
      <trkpt lat="44.66429" lon="5.05193">
        <ele>860</ele>
        <time>2026-05-26T10:54:54.000Z</time>
      </trkpt>
      <trkpt lat="44.66429" lon="5.05193">
        <ele>860</ele>
        <time>2026-05-26T10:54:55.000Z</time>
      </trkpt>
      <trkpt lat="44.66429" lon="5.05193">
        <ele>860</ele>
        <time>2026-05-26T10:54:56.000Z</time>
      </trkpt>
      <trkpt lat="44.66429" lon="5.05193">
        <ele>860</ele>
        <time>2026-05-26T10:54:57.000Z</time>
      </trkpt>
      <trkpt lat="44.66429" lon="5.05193">
        <ele>860</ele>
        <time>2026-05-26T10:54:58.000Z</time>
      </trkpt>
      <trkpt lat="44.66429" lon="5.05193">
        <ele>860</ele>
        <time>2026-05-26T10:54:59.000Z</time>
      </trkpt>
      <trkpt lat="44.66429" lon="5.05193">
        <ele>860</ele>
        <time>2026-05-26T10:55:00.000Z</time>
      </trkpt>
      <trkpt lat="44.66429" lon="5.05193">
        <ele>860</ele>
        <time>2026-05-26T10:55:01.000Z</time>
      </trkpt>
      <trkpt lat="44.66429" lon="5.05193">
        <ele>860</ele>
        <time>2026-05-26T10:55:02.000Z</time>
      </trkpt>
      <trkpt lat="44.66429" lon="5.05193">
        <ele>860</ele>
        <time>2026-05-26T10:55:03.000Z</time>
      </trkpt>
      <trkpt lat="44.66429" lon="5.05193">
        <ele>860</ele>
        <time>2026-05-26T10:55:04.000Z</time>
      </trkpt>
      <trkpt lat="44.66429" lon="5.05193">
        <ele>860</ele>
        <time>2026-05-26T10:55:05.000Z</time>
      </trkpt>
      <trkpt lat="44.66429" lon="5.05193">
        <ele>860</ele>
        <time>2026-05-26T10:55:06.000Z</time>
      </trkpt>
      <trkpt lat="44.66429" lon="5.05193">
        <ele>860</ele>
        <time>2026-05-26T10:55:07.000Z</time>
      </trkpt>
      <trkpt lat="44.66429" lon="5.05193">
        <ele>860</ele>
        <time>2026-05-26T10:55:08.000Z</time>
      </trkpt>
      <trkpt lat="44.66429" lon="5.05193">
        <ele>860</ele>
        <time>2026-05-26T10:55:09.000Z</time>
      </trkpt>
      <trkpt lat="44.66429" lon="5.05193">
        <ele>860</ele>
        <time>2026-05-26T10:55:10.000Z</time>
      </trkpt>
      <trkpt lat="44.66429" lon="5.05193">
        <ele>860</ele>
        <time>2026-05-26T10:55:11.000Z</time>
      </trkpt>
      <trkpt lat="44.66429" lon="5.05193">
        <ele>860</ele>
        <time>2026-05-26T10:55:12.000Z</time>
      </trkpt>
      <trkpt lat="44.66429" lon="5.05193">
        <ele>860</ele>
        <time>2026-05-26T10:55:13.000Z</time>
      </trkpt>
      <trkpt lat="44.66429" lon="5.05193">
        <ele>860</ele>
        <time>2026-05-26T10:55:14.000Z</time>
      </trkpt>
      <trkpt lat="44.66429" lon="5.05193">
        <ele>860</ele>
        <time>2026-05-26T10:55:15.000Z</time>
      </trkpt>
      <trkpt lat="44.66429" lon="5.05193">
        <ele>860</ele>
        <time>2026-05-26T10:55:16.000Z</time>
      </trkpt>
      <trkpt lat="44.66429" lon="5.05193">
        <ele>860</ele>
        <time>2026-05-26T10:55:17.000Z</time>
      </trkpt>
      <trkpt lat="44.66429" lon="5.05193">
        <ele>860</ele>
        <time>2026-05-26T10:55:18.000Z</time>
      </trkpt>
      <trkpt lat="44.66429" lon="5.05193">
        <ele>860</ele>
        <time>2026-05-26T10:55:19.000Z</time>
      </trkpt>
      <trkpt lat="44.66429" lon="5.05193">
        <ele>860</ele>
        <time>2026-05-26T10:55:20.000Z</time>
      </trkpt>
      <trkpt lat="44.66429" lon="5.05193">
        <ele>860</ele>
        <time>2026-05-26T10:55:21.000Z</time>
      </trkpt>
      <trkpt lat="44.66429" lon="5.05193">
        <ele>860</ele>
        <time>2026-05-26T10:55:22.000Z</time>
      </trkpt>
      <trkpt lat="44.66429" lon="5.05193">
        <ele>860</ele>
        <time>2026-05-26T10:55:23.000Z</time>
      </trkpt>
      <trkpt lat="44.66429" lon="5.05193">
        <ele>860</ele>
        <time>2026-05-26T10:55:24.000Z</time>
      </trkpt>
      <trkpt lat="44.66429" lon="5.05193">
        <ele>860</ele>
        <time>2026-05-26T10:55:25.000Z</time>
      </trkpt>
      <trkpt lat="44.66429" lon="5.05193">
        <ele>860</ele>
        <time>2026-05-26T10:55:26.000Z</time>
      </trkpt>
      <trkpt lat="44.66429" lon="5.05193">
        <ele>860</ele>
        <time>2026-05-26T10:55:27.000Z</time>
      </trkpt>
      <trkpt lat="44.66429" lon="5.05193">
        <ele>860</ele>
        <time>2026-05-26T10:55:28.000Z</time>
      </trkpt>
      <trkpt lat="44.66429" lon="5.05193">
        <ele>860</ele>
        <time>2026-05-26T10:55:29.000Z</time>
      </trkpt>
      <trkpt lat="44.66429" lon="5.05193">
        <ele>860</ele>
        <time>2026-05-26T10:55:30.000Z</time>
      </trkpt>
      <trkpt lat="44.66429" lon="5.05193">
        <ele>860</ele>
        <time>2026-05-26T10:55:31.000Z</time>
      </trkpt>
      <trkpt lat="44.66429" lon="5.05193">
        <ele>860</ele>
        <time>2026-05-26T10:55:32.000Z</time>
      </trkpt>
      <trkpt lat="44.66429" lon="5.05193">
        <ele>860</ele>
        <time>2026-05-26T10:55:33.000Z</time>
      </trkpt>
      <trkpt lat="44.66429" lon="5.05193">
        <ele>860</ele>
        <time>2026-05-26T10:55:34.000Z</time>
      </trkpt>
      <trkpt lat="44.66429" lon="5.05193">
        <ele>860</ele>
        <time>2026-05-26T10:55:35.000Z</time>
      </trkpt>
      <trkpt lat="44.66429" lon="5.05193">
        <ele>860</ele>
        <time>2026-05-26T10:55:36.000Z</time>
      </trkpt>
      <trkpt lat="44.66429" lon="5.05193">
        <ele>860</ele>
        <time>2026-05-26T10:55:37.000Z</time>
      </trkpt>
      <trkpt lat="44.66429" lon="5.05193">
        <ele>860</ele>
        <time>2026-05-26T10:55:38.000Z</time>
      </trkpt>
      <trkpt lat="44.66429" lon="5.05193">
        <ele>860</ele>
        <time>2026-05-26T10:55:39.000Z</time>
      </trkpt>
      <trkpt lat="44.66429" lon="5.05193">
        <ele>860</ele>
        <time>2026-05-26T10:55:40.000Z</time>
      </trkpt>
      <trkpt lat="44.66429" lon="5.05193">
        <ele>860</ele>
        <time>2026-05-26T10:55:41.000Z</time>
      </trkpt>
      <trkpt lat="44.66429" lon="5.05193">
        <ele>860</ele>
        <time>2026-05-26T10:55:42.000Z</time>
      </trkpt>
      <trkpt lat="44.66429" lon="5.05193">
        <ele>860</ele>
        <time>2026-05-26T10:55:43.000Z</time>
      </trkpt>
      <trkpt lat="44.66429" lon="5.05193">
        <ele>860</ele>
        <time>2026-05-26T10:55:44.000Z</time>
      </trkpt>
      <trkpt lat="44.66429" lon="5.05193">
        <ele>860</ele>
        <time>2026-05-26T10:55:45.000Z</time>
      </trkpt>
      <trkpt lat="44.66429" lon="5.05193">
        <ele>860</ele>
        <time>2026-05-26T10:55:46.000Z</time>
      </trkpt>
      <trkpt lat="44.66429" lon="5.05193">
        <ele>860</ele>
        <time>2026-05-26T10:55:47.000Z</time>
      </trkpt>
      <trkpt lat="44.66429" lon="5.05193">
        <ele>860</ele>
        <time>2026-05-26T10:55:48.000Z</time>
      </trkpt>
      <trkpt lat="44.66429" lon="5.05193">
        <ele>860</ele>
        <time>2026-05-26T10:55:49.000Z</time>
      </trkpt>
      <trkpt lat="44.66429" lon="5.05193">
        <ele>860</ele>
        <time>2026-05-26T10:55:50.000Z</time>
      </trkpt>
      <trkpt lat="44.66429" lon="5.05193">
        <ele>860</ele>
        <time>2026-05-26T10:55:51.000Z</time>
      </trkpt>
      <trkpt lat="44.66429" lon="5.05193">
        <ele>860</ele>
        <time>2026-05-26T10:55:52.000Z</time>
      </trkpt>
      <trkpt lat="44.66429" lon="5.05193">
        <ele>860</ele>
        <time>2026-05-26T10:55:53.000Z</time>
      </trkpt>
      <trkpt lat="44.66429" lon="5.05193">
        <ele>860</ele>
        <time>2026-05-26T10:55:54.000Z</time>
      </trkpt>
      <trkpt lat="44.66429" lon="5.05193">
        <ele>860</ele>
        <time>2026-05-26T10:55:55.000Z</time>
      </trkpt>
      <trkpt lat="44.66429" lon="5.05193">
        <ele>860</ele>
        <time>2026-05-26T10:55:56.000Z</time>
      </trkpt>
      <trkpt lat="44.66429" lon="5.05193">
        <ele>860</ele>
        <time>2026-05-26T10:55:57.000Z</time>
      </trkpt>
      <trkpt lat="44.66429" lon="5.05193">
        <ele>860</ele>
        <time>2026-05-26T10:55:58.000Z</time>
      </trkpt>
      <trkpt lat="44.66429" lon="5.05193">
        <ele>860</ele>
        <time>2026-05-26T10:55:59.000Z</time>
      </trkpt>
      <trkpt lat="44.66429" lon="5.05193">
        <ele>860</ele>
        <time>2026-05-26T10:56:00.000Z</time>
      </trkpt>
      <trkpt lat="44.66429" lon="5.05193">
        <ele>860</ele>
        <time>2026-05-26T10:56:01.000Z</time>
      </trkpt>
      <trkpt lat="44.66429" lon="5.05193">
        <ele>860</ele>
        <time>2026-05-26T10:56:02.000Z</time>
      </trkpt>
      <trkpt lat="44.66429" lon="5.05193">
        <ele>860</ele>
        <time>2026-05-26T10:56:03.000Z</time>
      </trkpt>
      <trkpt lat="44.66429" lon="5.05193">
        <ele>860</ele>
        <time>2026-05-26T10:56:04.000Z</time>
      </trkpt>
      <trkpt lat="44.66429" lon="5.05193">
        <ele>860</ele>
        <time>2026-05-26T10:56:05.000Z</time>
      </trkpt>
      <trkpt lat="44.66429" lon="5.05193">
        <ele>860</ele>
        <time>2026-05-26T10:56:06.000Z</time>
      </trkpt>
      <trkpt lat="44.66429" lon="5.05193">
        <ele>860</ele>
        <time>2026-05-26T10:56:07.000Z</time>
      </trkpt>
      <trkpt lat="44.66429" lon="5.05193">
        <ele>860</ele>
        <time>2026-05-26T10:56:08.000Z</time>
      </trkpt>
      <trkpt lat="44.66429" lon="5.05193">
        <ele>860</ele>
        <time>2026-05-26T10:56:09.000Z</time>
      </trkpt>
      <trkpt lat="44.66429" lon="5.05193">
        <ele>860</ele>
        <time>2026-05-26T10:56:10.000Z</time>
      </trkpt>
      <trkpt lat="44.66429" lon="5.05193">
        <ele>860</ele>
        <time>2026-05-26T10:56:11.000Z</time>
      </trkpt>
      <trkpt lat="44.66429" lon="5.05193">
        <ele>860</ele>
        <time>2026-05-26T10:56:12.000Z</time>
      </trkpt>
      <trkpt lat="44.66429" lon="5.05193">
        <ele>860</ele>
        <time>2026-05-26T10:56:13.000Z</time>
      </trkpt>
      <trkpt lat="44.66429" lon="5.05193">
        <ele>860</ele>
        <time>2026-05-26T10:56:14.000Z</time>
      </trkpt>
      <trkpt lat="44.66429" lon="5.05193">
        <ele>860</ele>
        <time>2026-05-26T10:56:15.000Z</time>
      </trkpt>
      <trkpt lat="44.66429" lon="5.05193">
        <ele>860</ele>
        <time>2026-05-26T10:56:16.000Z</time>
      </trkpt>
      <trkpt lat="44.66429" lon="5.05193">
        <ele>860</ele>
        <time>2026-05-26T10:56:17.000Z</time>
      </trkpt>
      <trkpt lat="44.66429" lon="5.05193">
        <ele>860</ele>
        <time>2026-05-26T10:56:18.000Z</time>
      </trkpt>
      <trkpt lat="44.66429" lon="5.05193">
        <ele>860</ele>
        <time>2026-05-26T10:56:19.000Z</time>
      </trkpt>
      <trkpt lat="44.66429" lon="5.05193">
        <ele>860</ele>
        <time>2026-05-26T10:56:20.000Z</time>
      </trkpt>
      <trkpt lat="44.66429" lon="5.05193">
        <ele>860</ele>
        <time>2026-05-26T10:56:21.000Z</time>
      </trkpt>
      <trkpt lat="44.66429" lon="5.05193">
        <ele>860</ele>
        <time>2026-05-26T10:56:22.000Z</time>
      </trkpt>
      <trkpt lat="44.66429" lon="5.05193">
        <ele>860</ele>
        <time>2026-05-26T10:56:23.000Z</time>
      </trkpt>
      <trkpt lat="44.66429" lon="5.05193">
        <ele>860</ele>
        <time>2026-05-26T10:56:24.000Z</time>
      </trkpt>
      <trkpt lat="44.66429" lon="5.05193">
        <ele>860</ele>
        <time>2026-05-26T10:56:25.000Z</time>
      </trkpt>
      <trkpt lat="44.66429" lon="5.05193">
        <ele>860</ele>
        <time>2026-05-26T10:56:26.000Z</time>
      </trkpt>
      <trkpt lat="44.66429" lon="5.05193">
        <ele>860</ele>
        <time>2026-05-26T10:56:27.000Z</time>
      </trkpt>
      <trkpt lat="44.66429" lon="5.05193">
        <ele>860</ele>
        <time>2026-05-26T10:56:28.000Z</time>
      </trkpt>
      <trkpt lat="44.66429" lon="5.05193">
        <ele>860</ele>
        <time>2026-05-26T10:56:29.000Z</time>
      </trkpt>
      <trkpt lat="44.66429" lon="5.05193">
        <ele>860</ele>
        <time>2026-05-26T10:56:30.000Z</time>
      </trkpt>
      <trkpt lat="44.66429" lon="5.05193">
        <ele>860</ele>
        <time>2026-05-26T10:56:31.000Z</time>
      </trkpt>
      <trkpt lat="44.66429" lon="5.05193">
        <ele>860</ele>
        <time>2026-05-26T10:56:32.000Z</time>
      </trkpt>
      <trkpt lat="44.66429" lon="5.05193">
        <ele>860</ele>
        <time>2026-05-26T10:56:33.000Z</time>
      </trkpt>
      <trkpt lat="44.66429" lon="5.05193">
        <ele>860</ele>
        <time>2026-05-26T10:56:34.000Z</time>
      </trkpt>
      <trkpt lat="44.66429" lon="5.05193">
        <ele>860</ele>
        <time>2026-05-26T10:56:35.000Z</time>
      </trkpt>
      <trkpt lat="44.66429" lon="5.05193">
        <ele>860</ele>
        <time>2026-05-26T10:56:36.000Z</time>
      </trkpt>
      <trkpt lat="44.66429" lon="5.05193">
        <ele>860</ele>
        <time>2026-05-26T10:56:37.000Z</time>
      </trkpt>
      <trkpt lat="44.66429" lon="5.05193">
        <ele>860</ele>
        <time>2026-05-26T10:56:38.000Z</time>
      </trkpt>
      <trkpt lat="44.66429" lon="5.05193">
        <ele>860</ele>
        <time>2026-05-26T10:56:39.000Z</time>
      </trkpt>
      <trkpt lat="44.66429" lon="5.05193">
        <ele>860</ele>
        <time>2026-05-26T10:56:40.000Z</time>
      </trkpt>
      <trkpt lat="44.66429" lon="5.05193">
        <ele>860</ele>
        <time>2026-05-26T10:56:41.000Z</time>
      </trkpt>
      <trkpt lat="44.66429" lon="5.05193">
        <ele>860</ele>
        <time>2026-05-26T10:56:42.000Z</time>
      </trkpt>
      <trkpt lat="44.66429" lon="5.05193">
        <ele>860</ele>
        <time>2026-05-26T10:56:43.000Z</time>
      </trkpt>
      <trkpt lat="44.66429" lon="5.05193">
        <ele>860</ele>
        <time>2026-05-26T10:56:44.000Z</time>
      </trkpt>
      <trkpt lat="44.66429" lon="5.05193">
        <ele>860</ele>
        <time>2026-05-26T10:56:45.000Z</time>
      </trkpt>
      <trkpt lat="44.66429" lon="5.05193">
        <ele>860</ele>
        <time>2026-05-26T10:56:46.000Z</time>
      </trkpt>
      <trkpt lat="44.66429" lon="5.05193">
        <ele>860</ele>
        <time>2026-05-26T10:56:47.000Z</time>
      </trkpt>
      <trkpt lat="44.66429" lon="5.05193">
        <ele>860</ele>
        <time>2026-05-26T10:56:48.000Z</time>
      </trkpt>
      <trkpt lat="44.66429" lon="5.05193">
        <ele>860</ele>
        <time>2026-05-26T10:56:49.000Z</time>
      </trkpt>
      <trkpt lat="44.66429" lon="5.05193">
        <ele>860</ele>
        <time>2026-05-26T10:56:50.000Z</time>
      </trkpt>
      <trkpt lat="44.66429" lon="5.05193">
        <ele>860</ele>
        <time>2026-05-26T10:56:51.000Z</time>
      </trkpt>
      <trkpt lat="44.66429" lon="5.05193">
        <ele>860</ele>
        <time>2026-05-26T10:56:52.000Z</time>
      </trkpt>
      <trkpt lat="44.66429" lon="5.05193">
        <ele>860</ele>
        <time>2026-05-26T10:56:53.000Z</time>
      </trkpt>
      <trkpt lat="44.66429" lon="5.05193">
        <ele>860</ele>
        <time>2026-05-26T10:56:54.000Z</time>
      </trkpt>
      <trkpt lat="44.66429" lon="5.05193">
        <ele>860</ele>
        <time>2026-05-26T10:56:55.000Z</time>
      </trkpt>
      <trkpt lat="44.66429" lon="5.05193">
        <ele>860</ele>
        <time>2026-05-26T10:56:56.000Z</time>
      </trkpt>
      <trkpt lat="44.66429" lon="5.05193">
        <ele>860</ele>
        <time>2026-05-26T10:56:57.000Z</time>
      </trkpt>
      <trkpt lat="44.66429" lon="5.05193">
        <ele>860</ele>
        <time>2026-05-26T10:56:58.000Z</time>
      </trkpt>
      <trkpt lat="44.66429" lon="5.05193">
        <ele>860</ele>
        <time>2026-05-26T10:56:59.000Z</time>
      </trkpt>
      <trkpt lat="44.66429" lon="5.05193">
        <ele>860</ele>
        <time>2026-05-26T10:57:00.000Z</time>
      </trkpt>
      <trkpt lat="44.66429" lon="5.05193">
        <ele>860</ele>
        <time>2026-05-26T10:57:01.000Z</time>
      </trkpt>
      <trkpt lat="44.66429" lon="5.05193">
        <ele>860</ele>
        <time>2026-05-26T10:57:02.000Z</time>
      </trkpt>
      <trkpt lat="44.66429" lon="5.05193">
        <ele>860</ele>
        <time>2026-05-26T10:57:03.000Z</time>
      </trkpt>
      <trkpt lat="44.66429" lon="5.05193">
        <ele>860</ele>
        <time>2026-05-26T10:57:04.000Z</time>
      </trkpt>
      <trkpt lat="44.66429" lon="5.05193">
        <ele>860</ele>
        <time>2026-05-26T10:57:05.000Z</time>
      </trkpt>
      <trkpt lat="44.66429" lon="5.05193">
        <ele>860</ele>
        <time>2026-05-26T10:57:06.000Z</time>
      </trkpt>
      <trkpt lat="44.66429" lon="5.05193">
        <ele>860</ele>
        <time>2026-05-26T10:57:07.000Z</time>
      </trkpt>
      <trkpt lat="44.66429" lon="5.05193">
        <ele>860</ele>
        <time>2026-05-26T10:57:08.000Z</time>
      </trkpt>
      <trkpt lat="44.66429" lon="5.05193">
        <ele>860</ele>
        <time>2026-05-26T10:57:09.000Z</time>
      </trkpt>
      <trkpt lat="44.66429" lon="5.05193">
        <ele>860</ele>
        <time>2026-05-26T10:57:10.000Z</time>
      </trkpt>
      <trkpt lat="44.66429" lon="5.05193">
        <ele>860</ele>
        <time>2026-05-26T10:57:11.000Z</time>
      </trkpt>
      <trkpt lat="44.66429" lon="5.05193">
        <ele>860</ele>
        <time>2026-05-26T10:57:12.000Z</time>
      </trkpt>
      <trkpt lat="44.66429" lon="5.05193">
        <ele>860</ele>
        <time>2026-05-26T10:57:13.000Z</time>
      </trkpt>
      <trkpt lat="44.66429" lon="5.05193">
        <ele>860</ele>
        <time>2026-05-26T10:57:14.000Z</time>
      </trkpt>
      <trkpt lat="44.66429" lon="5.05193">
        <ele>860</ele>
        <time>2026-05-26T10:57:15.000Z</time>
      </trkpt>
      <trkpt lat="44.66429" lon="5.05193">
        <ele>860</ele>
        <time>2026-05-26T10:57:16.000Z</time>
      </trkpt>
      <trkpt lat="44.66429" lon="5.05193">
        <ele>860</ele>
        <time>2026-05-26T10:57:17.000Z</time>
      </trkpt>
      <trkpt lat="44.66429" lon="5.05193">
        <ele>860</ele>
        <time>2026-05-26T10:57:18.000Z</time>
      </trkpt>
      <trkpt lat="44.66429" lon="5.05193">
        <ele>860</ele>
        <time>2026-05-26T10:57:19.000Z</time>
      </trkpt>
      <trkpt lat="44.66429" lon="5.05193">
        <ele>860</ele>
        <time>2026-05-26T10:57:20.000Z</time>
      </trkpt>
      <trkpt lat="44.66429" lon="5.05193">
        <ele>860</ele>
        <time>2026-05-26T10:57:21.000Z</time>
      </trkpt>
      <trkpt lat="44.66429" lon="5.05193">
        <ele>860</ele>
        <time>2026-05-26T10:57:22.000Z</time>
      </trkpt>
      <trkpt lat="44.66429" lon="5.05193">
        <ele>860</ele>
        <time>2026-05-26T10:57:23.000Z</time>
      </trkpt>
      <trkpt lat="44.66429" lon="5.05193">
        <ele>860</ele>
        <time>2026-05-26T10:57:24.000Z</time>
      </trkpt>
      <trkpt lat="44.66429" lon="5.05193">
        <ele>860</ele>
        <time>2026-05-26T10:57:25.000Z</time>
      </trkpt>
      <trkpt lat="44.66429" lon="5.05193">
        <ele>860</ele>
        <time>2026-05-26T10:57:26.000Z</time>
      </trkpt>
      <trkpt lat="44.66429" lon="5.05193">
        <ele>860</ele>
        <time>2026-05-26T10:57:27.000Z</time>
      </trkpt>
      <trkpt lat="44.66429" lon="5.05193">
        <ele>860</ele>
        <time>2026-05-26T10:57:28.000Z</time>
      </trkpt>
      <trkpt lat="44.66429" lon="5.05193">
        <ele>860</ele>
        <time>2026-05-26T10:57:29.000Z</time>
      </trkpt>
      <trkpt lat="44.66429" lon="5.05193">
        <ele>860</ele>
        <time>2026-05-26T10:57:30.000Z</time>
      </trkpt>
      <trkpt lat="44.66429" lon="5.05193">
        <ele>860</ele>
        <time>2026-05-26T10:57:31.000Z</time>
      </trkpt>
      <trkpt lat="44.66429" lon="5.05193">
        <ele>860</ele>
        <time>2026-05-26T10:57:32.000Z</time>
      </trkpt>
      <trkpt lat="44.66429" lon="5.05193">
        <ele>860</ele>
        <time>2026-05-26T10:57:33.000Z</time>
      </trkpt>
      <trkpt lat="44.66429" lon="5.05193">
        <ele>860</ele>
        <time>2026-05-26T10:57:34.000Z</time>
      </trkpt>
      <trkpt lat="44.66429" lon="5.05193">
        <ele>860</ele>
        <time>2026-05-26T10:57:35.000Z</time>
      </trkpt>
      <trkpt lat="44.66429" lon="5.05193">
        <ele>860</ele>
        <time>2026-05-26T10:57:36.000Z</time>
      </trkpt>
      <trkpt lat="44.66429" lon="5.05193">
        <ele>860</ele>
        <time>2026-05-26T10:57:37.000Z</time>
      </trkpt>
      <trkpt lat="44.66429" lon="5.05193">
        <ele>860</ele>
        <time>2026-05-26T10:57:38.000Z</time>
      </trkpt>
      <trkpt lat="44.66429" lon="5.05193">
        <ele>860</ele>
        <time>2026-05-26T10:57:39.000Z</time>
      </trkpt>
      <trkpt lat="44.66429" lon="5.05193">
        <ele>860</ele>
        <time>2026-05-26T10:57:40.000Z</time>
      </trkpt>
      <trkpt lat="44.66429" lon="5.05193">
        <ele>860</ele>
        <time>2026-05-26T10:57:41.000Z</time>
      </trkpt>
      <trkpt lat="44.66429" lon="5.05193">
        <ele>860</ele>
        <time>2026-05-26T10:57:42.000Z</time>
      </trkpt>
      <trkpt lat="44.66429" lon="5.05193">
        <ele>860</ele>
        <time>2026-05-26T10:57:43.000Z</time>
      </trkpt>
      <trkpt lat="44.66429" lon="5.05193">
        <ele>860</ele>
        <time>2026-05-26T10:57:44.000Z</time>
      </trkpt>
      <trkpt lat="44.66429" lon="5.05193">
        <ele>860</ele>
        <time>2026-05-26T10:57:45.000Z</time>
      </trkpt>
      <trkpt lat="44.66429" lon="5.05193">
        <ele>860</ele>
        <time>2026-05-26T10:57:46.000Z</time>
      </trkpt>
      <trkpt lat="44.66429" lon="5.05193">
        <ele>860</ele>
        <time>2026-05-26T10:57:47.000Z</time>
      </trkpt>
      <trkpt lat="44.66429" lon="5.05193">
        <ele>860</ele>
        <time>2026-05-26T10:57:48.000Z</time>
      </trkpt>
      <trkpt lat="44.66429" lon="5.05193">
        <ele>860</ele>
        <time>2026-05-26T10:57:49.000Z</time>
      </trkpt>
      <trkpt lat="44.66429" lon="5.05193">
        <ele>860</ele>
        <time>2026-05-26T10:57:50.000Z</time>
      </trkpt>
      <trkpt lat="44.66429" lon="5.05193">
        <ele>860</ele>
        <time>2026-05-26T10:57:51.000Z</time>
      </trkpt>
      <trkpt lat="44.66429" lon="5.05193">
        <ele>860</ele>
        <time>2026-05-26T10:57:52.000Z</time>
      </trkpt>
      <trkpt lat="44.66429" lon="5.05193">
        <ele>860</ele>
        <time>2026-05-26T10:57:53.000Z</time>
      </trkpt>
      <trkpt lat="44.66429" lon="5.05193">
        <ele>860</ele>
        <time>2026-05-26T10:57:54.000Z</time>
      </trkpt>
      <trkpt lat="44.66429" lon="5.05193">
        <ele>860</ele>
        <time>2026-05-26T10:57:55.000Z</time>
      </trkpt>
      <trkpt lat="44.66429" lon="5.05193">
        <ele>860</ele>
        <time>2026-05-26T10:57:56.000Z</time>
      </trkpt>
      <trkpt lat="44.66429" lon="5.05193">
        <ele>860</ele>
        <time>2026-05-26T10:57:57.000Z</time>
      </trkpt>
      <trkpt lat="44.66429" lon="5.05193">
        <ele>860</ele>
        <time>2026-05-26T10:57:58.000Z</time>
      </trkpt>
      <trkpt lat="44.66429" lon="5.05193">
        <ele>860</ele>
        <time>2026-05-26T10:57:59.000Z</time>
      </trkpt>
      <trkpt lat="44.66429" lon="5.05193">
        <ele>860</ele>
        <time>2026-05-26T10:58:00.000Z</time>
      </trkpt>
      <trkpt lat="44.66429" lon="5.05193">
        <ele>860</ele>
        <time>2026-05-26T10:58:01.000Z</time>
      </trkpt>
      <trkpt lat="44.66429" lon="5.05193">
        <ele>860</ele>
        <time>2026-05-26T10:58:02.000Z</time>
      </trkpt>
      <trkpt lat="44.66429" lon="5.05193">
        <ele>860</ele>
        <time>2026-05-26T10:58:03.000Z</time>
      </trkpt>
      <trkpt lat="44.66429" lon="5.05193">
        <ele>860</ele>
        <time>2026-05-26T10:58:04.000Z</time>
      </trkpt>
      <trkpt lat="44.66429" lon="5.05193">
        <ele>860</ele>
        <time>2026-05-26T10:58:05.000Z</time>
      </trkpt>
      <trkpt lat="44.66429" lon="5.05193">
        <ele>860</ele>
        <time>2026-05-26T10:58:06.000Z</time>
      </trkpt>
      <trkpt lat="44.66429" lon="5.05193">
        <ele>860</ele>
        <time>2026-05-26T10:58:07.000Z</time>
      </trkpt>
      <trkpt lat="44.66429" lon="5.05193">
        <ele>860</ele>
        <time>2026-05-26T10:58:08.000Z</time>
      </trkpt>
      <trkpt lat="44.66429" lon="5.05193">
        <ele>860</ele>
        <time>2026-05-26T10:58:09.000Z</time>
      </trkpt>
      <trkpt lat="44.66429" lon="5.05193">
        <ele>860</ele>
        <time>2026-05-26T10:58:10.000Z</time>
      </trkpt>
      <trkpt lat="44.66429" lon="5.05193">
        <ele>860</ele>
        <time>2026-05-26T10:58:11.000Z</time>
      </trkpt>
      <trkpt lat="44.66429" lon="5.05193">
        <ele>860</ele>
        <time>2026-05-26T10:58:12.000Z</time>
      </trkpt>
      <trkpt lat="44.66429" lon="5.05193">
        <ele>860</ele>
        <time>2026-05-26T10:58:13.000Z</time>
      </trkpt>
      <trkpt lat="44.66429" lon="5.05193">
        <ele>860</ele>
        <time>2026-05-26T10:58:14.000Z</time>
      </trkpt>
      <trkpt lat="44.66429" lon="5.05193">
        <ele>860</ele>
        <time>2026-05-26T10:58:15.000Z</time>
      </trkpt>
      <trkpt lat="44.66429" lon="5.05193">
        <ele>860</ele>
        <time>2026-05-26T10:58:16.000Z</time>
      </trkpt>
      <trkpt lat="44.66429" lon="5.05193">
        <ele>860</ele>
        <time>2026-05-26T10:58:17.000Z</time>
      </trkpt>
      <trkpt lat="44.66429" lon="5.05193">
        <ele>860</ele>
        <time>2026-05-26T10:58:18.000Z</time>
      </trkpt>
      <trkpt lat="44.66429" lon="5.05193">
        <ele>860</ele>
        <time>2026-05-26T10:58:19.000Z</time>
      </trkpt>
      <trkpt lat="44.66429" lon="5.05193">
        <ele>860</ele>
        <time>2026-05-26T10:58:20.000Z</time>
      </trkpt>
      <trkpt lat="44.66429" lon="5.05193">
        <ele>860</ele>
        <time>2026-05-26T10:58:21.000Z</time>
      </trkpt>
      <trkpt lat="44.66429" lon="5.05193">
        <ele>860</ele>
        <time>2026-05-26T10:58:22.000Z</time>
      </trkpt>
      <trkpt lat="44.66429" lon="5.05193">
        <ele>860</ele>
        <time>2026-05-26T10:58:23.000Z</time>
      </trkpt>
      <trkpt lat="44.66429" lon="5.05193">
        <ele>860</ele>
        <time>2026-05-26T10:58:24.000Z</time>
      </trkpt>
      <trkpt lat="44.66429" lon="5.05193">
        <ele>860</ele>
        <time>2026-05-26T10:58:25.000Z</time>
      </trkpt>
      <trkpt lat="44.66429" lon="5.05193">
        <ele>860</ele>
        <time>2026-05-26T10:58:26.000Z</time>
      </trkpt>
      <trkpt lat="44.66429" lon="5.05193">
        <ele>860</ele>
        <time>2026-05-26T10:58:27.000Z</time>
      </trkpt>
      <trkpt lat="44.66429" lon="5.05193">
        <ele>860</ele>
        <time>2026-05-26T10:58:28.000Z</time>
      </trkpt>
      <trkpt lat="44.66429" lon="5.05193">
        <ele>860</ele>
        <time>2026-05-26T10:58:29.000Z</time>
      </trkpt>
      <trkpt lat="44.66429" lon="5.05193">
        <ele>860</ele>
        <time>2026-05-26T10:58:30.000Z</time>
      </trkpt>
      <trkpt lat="44.66429" lon="5.05193">
        <ele>860</ele>
        <time>2026-05-26T10:58:31.000Z</time>
      </trkpt>
      <trkpt lat="44.66429" lon="5.05193">
        <ele>860</ele>
        <time>2026-05-26T10:58:32.000Z</time>
      </trkpt>
      <trkpt lat="44.66429" lon="5.05193">
        <ele>860</ele>
        <time>2026-05-26T10:58:33.000Z</time>
      </trkpt>
      <trkpt lat="44.66429" lon="5.05193">
        <ele>860</ele>
        <time>2026-05-26T10:58:34.000Z</time>
      </trkpt>
      <trkpt lat="44.66429" lon="5.05193">
        <ele>860</ele>
        <time>2026-05-26T10:58:35.000Z</time>
      </trkpt>
      <trkpt lat="44.66429" lon="5.05193">
        <ele>860</ele>
        <time>2026-05-26T10:58:36.000Z</time>
      </trkpt>
      <trkpt lat="44.66429" lon="5.05193">
        <ele>860</ele>
        <time>2026-05-26T10:58:37.000Z</time>
      </trkpt>
      <trkpt lat="44.66429" lon="5.05193">
        <ele>860</ele>
        <time>2026-05-26T10:58:38.000Z</time>
      </trkpt>
      <trkpt lat="44.66429" lon="5.05193">
        <ele>860</ele>
        <time>2026-05-26T10:58:39.000Z</time>
      </trkpt>
      <trkpt lat="44.66429" lon="5.05193">
        <ele>860</ele>
        <time>2026-05-26T10:58:40.000Z</time>
      </trkpt>
      <trkpt lat="44.66429" lon="5.05193">
        <ele>860</ele>
        <time>2026-05-26T10:58:41.000Z</time>
      </trkpt>
      <trkpt lat="44.66429" lon="5.05193">
        <ele>860</ele>
        <time>2026-05-26T10:58:42.000Z</time>
      </trkpt>
      <trkpt lat="44.66429" lon="5.05193">
        <ele>860</ele>
        <time>2026-05-26T10:58:43.000Z</time>
      </trkpt>
      <trkpt lat="44.66429" lon="5.05193">
        <ele>860</ele>
        <time>2026-05-26T10:58:44.000Z</time>
      </trkpt>
      <trkpt lat="44.66429" lon="5.05193">
        <ele>860</ele>
        <time>2026-05-26T10:58:45.000Z</time>
      </trkpt>
      <trkpt lat="44.66429" lon="5.05193">
        <ele>860</ele>
        <time>2026-05-26T10:58:46.000Z</time>
      </trkpt>
      <trkpt lat="44.66429" lon="5.05193">
        <ele>860</ele>
        <time>2026-05-26T10:58:47.000Z</time>
      </trkpt>
      <trkpt lat="44.66429" lon="5.05193">
        <ele>860</ele>
        <time>2026-05-26T10:58:48.000Z</time>
      </trkpt>
      <trkpt lat="44.66429" lon="5.05193">
        <ele>860</ele>
        <time>2026-05-26T10:58:49.000Z</time>
      </trkpt>
      <trkpt lat="44.66429" lon="5.05193">
        <ele>860</ele>
        <time>2026-05-26T10:58:50.000Z</time>
      </trkpt>
      <trkpt lat="44.66429" lon="5.05193">
        <ele>860</ele>
        <time>2026-05-26T10:58:51.000Z</time>
      </trkpt>
      <trkpt lat="44.66429" lon="5.05193">
        <ele>860</ele>
        <time>2026-05-26T10:58:52.000Z</time>
      </trkpt>
      <trkpt lat="44.66429" lon="5.05193">
        <ele>860</ele>
        <time>2026-05-26T10:58:53.000Z</time>
      </trkpt>
      <trkpt lat="44.66429" lon="5.05193">
        <ele>860</ele>
        <time>2026-05-26T10:58:54.000Z</time>
      </trkpt>
      <trkpt lat="44.66429" lon="5.05193">
        <ele>860</ele>
        <time>2026-05-26T10:58:55.000Z</time>
      </trkpt>
      <trkpt lat="44.66429" lon="5.05193">
        <ele>860</ele>
        <time>2026-05-26T10:58:56.000Z</time>
      </trkpt>
      <trkpt lat="44.66429" lon="5.05193">
        <ele>860</ele>
        <time>2026-05-26T10:58:57.000Z</time>
      </trkpt>
      <trkpt lat="44.66429" lon="5.05193">
        <ele>860</ele>
        <time>2026-05-26T10:58:58.000Z</time>
      </trkpt>
      <trkpt lat="44.66429" lon="5.05193">
        <ele>860</ele>
        <time>2026-05-26T10:58:59.000Z</time>
      </trkpt>
      <trkpt lat="44.66429" lon="5.05193">
        <ele>860</ele>
        <time>2026-05-26T10:59:00.000Z</time>
      </trkpt>
      <trkpt lat="44.66429" lon="5.05193">
        <ele>860</ele>
        <time>2026-05-26T10:59:01.000Z</time>
      </trkpt>
      <trkpt lat="44.66429" lon="5.05193">
        <ele>860</ele>
        <time>2026-05-26T10:59:02.000Z</time>
      </trkpt>
      <trkpt lat="44.66429" lon="5.05193">
        <ele>860</ele>
        <time>2026-05-26T10:59:03.000Z</time>
      </trkpt>
      <trkpt lat="44.66429" lon="5.05193">
        <ele>860</ele>
        <time>2026-05-26T10:59:04.000Z</time>
      </trkpt>
      <trkpt lat="44.66429" lon="5.05193">
        <ele>860</ele>
        <time>2026-05-26T10:59:05.000Z</time>
      </trkpt>
      <trkpt lat="44.66429" lon="5.05193">
        <ele>860</ele>
        <time>2026-05-26T10:59:06.000Z</time>
      </trkpt>
      <trkpt lat="44.66429" lon="5.05193">
        <ele>860</ele>
        <time>2026-05-26T10:59:07.000Z</time>
      </trkpt>
      <trkpt lat="44.66429" lon="5.05193">
        <ele>860</ele>
        <time>2026-05-26T10:59:08.000Z</time>
      </trkpt>
      <trkpt lat="44.66429" lon="5.05193">
        <ele>860</ele>
        <time>2026-05-26T10:59:09.000Z</time>
      </trkpt>
      <trkpt lat="44.66429" lon="5.05193">
        <ele>860</ele>
        <time>2026-05-26T10:59:10.000Z</time>
      </trkpt>
      <trkpt lat="44.66429" lon="5.05193">
        <ele>860</ele>
        <time>2026-05-26T10:59:11.000Z</time>
      </trkpt>
      <trkpt lat="44.66429" lon="5.05193">
        <ele>860</ele>
        <time>2026-05-26T10:59:12.000Z</time>
      </trkpt>
      <trkpt lat="44.66429" lon="5.05193">
        <ele>860</ele>
        <time>2026-05-26T10:59:13.000Z</time>
      </trkpt>
      <trkpt lat="44.66429" lon="5.05193">
        <ele>860</ele>
        <time>2026-05-26T10:59:14.000Z</time>
      </trkpt>
      <trkpt lat="44.66429" lon="5.05193">
        <ele>860</ele>
        <time>2026-05-26T10:59:15.000Z</time>
      </trkpt>
      <trkpt lat="44.66429" lon="5.05193">
        <ele>860</ele>
        <time>2026-05-26T10:59:16.000Z</time>
      </trkpt>
      <trkpt lat="44.66429" lon="5.05193">
        <ele>860</ele>
        <time>2026-05-26T10:59:17.000Z</time>
      </trkpt>
      <trkpt lat="44.66429" lon="5.05193">
        <ele>860</ele>
        <time>2026-05-26T10:59:18.000Z</time>
      </trkpt>
      <trkpt lat="44.66429" lon="5.05193">
        <ele>860</ele>
        <time>2026-05-26T10:59:19.000Z</time>
      </trkpt>
      <trkpt lat="44.66429" lon="5.05193">
        <ele>860</ele>
        <time>2026-05-26T10:59:20.000Z</time>
      </trkpt>
      <trkpt lat="44.66429" lon="5.05193">
        <ele>860</ele>
        <time>2026-05-26T10:59:21.000Z</time>
      </trkpt>
      <trkpt lat="44.66429" lon="5.05193">
        <ele>860</ele>
        <time>2026-05-26T10:59:22.000Z</time>
      </trkpt>
      <trkpt lat="44.66429" lon="5.05193">
        <ele>860</ele>
        <time>2026-05-26T10:59:23.000Z</time>
      </trkpt>
      <trkpt lat="44.66429" lon="5.05193">
        <ele>860</ele>
        <time>2026-05-26T10:59:24.000Z</time>
      </trkpt>
      <trkpt lat="44.66429" lon="5.05193">
        <ele>860</ele>
        <time>2026-05-26T10:59:25.000Z</time>
      </trkpt>
      <trkpt lat="44.66429" lon="5.05193">
        <ele>860</ele>
        <time>2026-05-26T10:59:26.000Z</time>
      </trkpt>
      <trkpt lat="44.66429" lon="5.05193">
        <ele>860</ele>
        <time>2026-05-26T10:59:27.000Z</time>
      </trkpt>
      <trkpt lat="44.66429" lon="5.05193">
        <ele>860</ele>
        <time>2026-05-26T10:59:28.000Z</time>
      </trkpt>
      <trkpt lat="44.66429" lon="5.05193">
        <ele>860</ele>
        <time>2026-05-26T10:59:29.000Z</time>
      </trkpt>
      <trkpt lat="44.66429" lon="5.05193">
        <ele>860</ele>
        <time>2026-05-26T10:59:30.000Z</time>
      </trkpt>
      <trkpt lat="44.66429" lon="5.05193">
        <ele>860</ele>
        <time>2026-05-26T10:59:31.000Z</time>
      </trkpt>
      <trkpt lat="44.66429" lon="5.05193">
        <ele>860</ele>
        <time>2026-05-26T10:59:32.000Z</time>
      </trkpt>
      <trkpt lat="44.66429" lon="5.05193">
        <ele>860</ele>
        <time>2026-05-26T10:59:33.000Z</time>
      </trkpt>
      <trkpt lat="44.66429" lon="5.05193">
        <ele>860</ele>
        <time>2026-05-26T10:59:34.000Z</time>
      </trkpt>
      <trkpt lat="44.66429" lon="5.05193">
        <ele>860</ele>
        <time>2026-05-26T10:59:35.000Z</time>
      </trkpt>
      <trkpt lat="44.66429" lon="5.05193">
        <ele>860</ele>
        <time>2026-05-26T10:59:36.000Z</time>
      </trkpt>
      <trkpt lat="44.66429" lon="5.05193">
        <ele>860</ele>
        <time>2026-05-26T10:59:37.000Z</time>
      </trkpt>
      <trkpt lat="44.66429" lon="5.05193">
        <ele>860</ele>
        <time>2026-05-26T10:59:38.000Z</time>
      </trkpt>
      <trkpt lat="44.66429" lon="5.05193">
        <ele>860</ele>
        <time>2026-05-26T10:59:39.000Z</time>
      </trkpt>
      <trkpt lat="44.66429" lon="5.05193">
        <ele>860</ele>
        <time>2026-05-26T10:59:40.000Z</time>
      </trkpt>
      <trkpt lat="44.66429" lon="5.05193">
        <ele>860</ele>
        <time>2026-05-26T10:59:41.000Z</time>
      </trkpt>
      <trkpt lat="44.66429" lon="5.05193">
        <ele>860</ele>
        <time>2026-05-26T10:59:42.000Z</time>
      </trkpt>
      <trkpt lat="44.66429" lon="5.05193">
        <ele>860</ele>
        <time>2026-05-26T10:59:43.000Z</time>
      </trkpt>
      <trkpt lat="44.66429" lon="5.05193">
        <ele>860</ele>
        <time>2026-05-26T10:59:44.000Z</time>
      </trkpt>
      <trkpt lat="44.66429" lon="5.05193">
        <ele>860</ele>
        <time>2026-05-26T10:59:45.000Z</time>
      </trkpt>
      <trkpt lat="44.66429" lon="5.05193">
        <ele>860</ele>
        <time>2026-05-26T10:59:46.000Z</time>
      </trkpt>
      <trkpt lat="44.66429" lon="5.05193">
        <ele>860</ele>
        <time>2026-05-26T10:59:47.000Z</time>
      </trkpt>
      <trkpt lat="44.66429" lon="5.05193">
        <ele>860</ele>
        <time>2026-05-26T10:59:48.000Z</time>
      </trkpt>
      <trkpt lat="44.66429" lon="5.05193">
        <ele>860</ele>
        <time>2026-05-26T10:59:49.000Z</time>
      </trkpt>
      <trkpt lat="44.66429" lon="5.05193">
        <ele>860</ele>
        <time>2026-05-26T10:59:50.000Z</time>
      </trkpt>
      <trkpt lat="44.66429" lon="5.05193">
        <ele>860</ele>
        <time>2026-05-26T10:59:51.000Z</time>
      </trkpt>
      <trkpt lat="44.66429" lon="5.05193">
        <ele>860</ele>
        <time>2026-05-26T10:59:52.000Z</time>
      </trkpt>
      <trkpt lat="44.66429" lon="5.05193">
        <ele>860</ele>
        <time>2026-05-26T10:59:53.000Z</time>
      </trkpt>
      <trkpt lat="44.66429" lon="5.05193">
        <ele>860</ele>
        <time>2026-05-26T10:59:54.000Z</time>
      </trkpt>
      <trkpt lat="44.66429" lon="5.05193">
        <ele>860</ele>
        <time>2026-05-26T10:59:55.000Z</time>
      </trkpt>
      <trkpt lat="44.66429" lon="5.05193">
        <ele>860</ele>
        <time>2026-05-26T10:59:56.000Z</time>
      </trkpt>
      <trkpt lat="44.66429" lon="5.05193">
        <ele>860</ele>
        <time>2026-05-26T10:59:57.000Z</time>
      </trkpt>
      <trkpt lat="44.66429" lon="5.05193">
        <ele>860</ele>
        <time>2026-05-26T10:59:58.000Z</time>
      </trkpt>
      <trkpt lat="44.66429" lon="5.05193">
        <ele>860</ele>
        <time>2026-05-26T10:59:59.000Z</time>
      </trkpt>
      <trkpt lat="44.66429" lon="5.05193">
        <ele>860</ele>
        <time>2026-05-26T11:00:00.000Z</time>
      </trkpt>
      <trkpt lat="44.66429" lon="5.05193">
        <ele>860</ele>
        <time>2026-05-26T11:00:01.000Z</time>
      </trkpt>
      <trkpt lat="44.66429" lon="5.05193">
        <ele>860</ele>
        <time>2026-05-26T11:00:02.000Z</time>
      </trkpt>
      <trkpt lat="44.66429" lon="5.05193">
        <ele>860</ele>
        <time>2026-05-26T11:00:03.000Z</time>
      </trkpt>
      <trkpt lat="44.66429" lon="5.05193">
        <ele>860</ele>
        <time>2026-05-26T11:00:04.000Z</time>
      </trkpt>
      <trkpt lat="44.66429" lon="5.05193">
        <ele>860</ele>
        <time>2026-05-26T11:00:05.000Z</time>
      </trkpt>
      <trkpt lat="44.66429" lon="5.05193">
        <ele>860</ele>
        <time>2026-05-26T11:00:06.000Z</time>
      </trkpt>
      <trkpt lat="44.66429" lon="5.05193">
        <ele>860</ele>
        <time>2026-05-26T11:00:07.000Z</time>
      </trkpt>
      <trkpt lat="44.66429" lon="5.05193">
        <ele>860</ele>
        <time>2026-05-26T11:00:08.000Z</time>
      </trkpt>
      <trkpt lat="44.66429" lon="5.05193">
        <ele>860</ele>
        <time>2026-05-26T11:00:09.000Z</time>
      </trkpt>
      <trkpt lat="44.66429" lon="5.05193">
        <ele>860</ele>
        <time>2026-05-26T11:00:10.000Z</time>
      </trkpt>
      <trkpt lat="44.66429" lon="5.05193">
        <ele>860</ele>
        <time>2026-05-26T11:00:11.000Z</time>
      </trkpt>
      <trkpt lat="44.66429" lon="5.05193">
        <ele>860</ele>
        <time>2026-05-26T11:00:12.000Z</time>
      </trkpt>
      <trkpt lat="44.66429" lon="5.05193">
        <ele>860</ele>
        <time>2026-05-26T11:00:13.000Z</time>
      </trkpt>
      <trkpt lat="44.66429" lon="5.05193">
        <ele>860</ele>
        <time>2026-05-26T11:00:14.000Z</time>
      </trkpt>
      <trkpt lat="44.66429" lon="5.05193">
        <ele>860</ele>
        <time>2026-05-26T11:00:15.000Z</time>
      </trkpt>
      <trkpt lat="44.66429" lon="5.05193">
        <ele>860</ele>
        <time>2026-05-26T11:00:16.000Z</time>
      </trkpt>
      <trkpt lat="44.66429" lon="5.05193">
        <ele>860</ele>
        <time>2026-05-26T11:00:17.000Z</time>
      </trkpt>
      <trkpt lat="44.66429" lon="5.05193">
        <ele>860</ele>
        <time>2026-05-26T11:00:18.000Z</time>
      </trkpt>
      <trkpt lat="44.66429" lon="5.05193">
        <ele>860</ele>
        <time>2026-05-26T11:00:19.000Z</time>
      </trkpt>
      <trkpt lat="44.66429" lon="5.05193">
        <ele>860</ele>
        <time>2026-05-26T11:00:20.000Z</time>
      </trkpt>
      <trkpt lat="44.66429" lon="5.05193">
        <ele>860</ele>
        <time>2026-05-26T11:00:21.000Z</time>
      </trkpt>
      <trkpt lat="44.66429" lon="5.05193">
        <ele>860</ele>
        <time>2026-05-26T11:00:22.000Z</time>
      </trkpt>
      <trkpt lat="44.66429" lon="5.05193">
        <ele>860</ele>
        <time>2026-05-26T11:00:23.000Z</time>
      </trkpt>
      <trkpt lat="44.66429" lon="5.05193">
        <ele>860</ele>
        <time>2026-05-26T11:00:24.000Z</time>
      </trkpt>
      <trkpt lat="44.66429" lon="5.05193">
        <ele>860</ele>
        <time>2026-05-26T11:00:25.000Z</time>
      </trkpt>
      <trkpt lat="44.66429" lon="5.05193">
        <ele>860</ele>
        <time>2026-05-26T11:00:26.000Z</time>
      </trkpt>
      <trkpt lat="44.66429" lon="5.05193">
        <ele>860</ele>
        <time>2026-05-26T11:00:27.000Z</time>
      </trkpt>
      <trkpt lat="44.66429" lon="5.05193">
        <ele>860</ele>
        <time>2026-05-26T11:00:28.000Z</time>
      </trkpt>
      <trkpt lat="44.66429" lon="5.05193">
        <ele>860</ele>
        <time>2026-05-26T11:00:29.000Z</time>
      </trkpt>
      <trkpt lat="44.66429" lon="5.05193">
        <ele>860</ele>
        <time>2026-05-26T11:00:30.000Z</time>
      </trkpt>
      <trkpt lat="44.66429" lon="5.05193">
        <ele>860</ele>
        <time>2026-05-26T11:00:31.000Z</time>
      </trkpt>
      <trkpt lat="44.66429" lon="5.05193">
        <ele>860</ele>
        <time>2026-05-26T11:00:32.000Z</time>
      </trkpt>
      <trkpt lat="44.66429" lon="5.05193">
        <ele>860</ele>
        <time>2026-05-26T11:00:33.000Z</time>
      </trkpt>
      <trkpt lat="44.66429" lon="5.05193">
        <ele>860</ele>
        <time>2026-05-26T11:00:34.000Z</time>
      </trkpt>
      <trkpt lat="44.66429" lon="5.05193">
        <ele>860</ele>
        <time>2026-05-26T11:00:35.000Z</time>
      </trkpt>
      <trkpt lat="44.66429" lon="5.05193">
        <ele>860</ele>
        <time>2026-05-26T11:00:36.000Z</time>
      </trkpt>
      <trkpt lat="44.66429" lon="5.05193">
        <ele>860</ele>
        <time>2026-05-26T11:00:37.000Z</time>
      </trkpt>
      <trkpt lat="44.66429" lon="5.05193">
        <ele>860</ele>
        <time>2026-05-26T11:00:38.000Z</time>
      </trkpt>
      <trkpt lat="44.66429" lon="5.05193">
        <ele>860</ele>
        <time>2026-05-26T11:00:39.000Z</time>
      </trkpt>
      <trkpt lat="44.66429" lon="5.05193">
        <ele>860</ele>
        <time>2026-05-26T11:00:40.000Z</time>
      </trkpt>
      <trkpt lat="44.66429" lon="5.05193">
        <ele>860</ele>
        <time>2026-05-26T11:00:41.000Z</time>
      </trkpt>
      <trkpt lat="44.66429" lon="5.05193">
        <ele>860</ele>
        <time>2026-05-26T11:00:42.000Z</time>
      </trkpt>
      <trkpt lat="44.66429" lon="5.05193">
        <ele>860</ele>
        <time>2026-05-26T11:00:43.000Z</time>
      </trkpt>
      <trkpt lat="44.66429" lon="5.05193">
        <ele>860</ele>
        <time>2026-05-26T11:00:44.000Z</time>
      </trkpt>
      <trkpt lat="44.66429" lon="5.05193">
        <ele>860</ele>
        <time>2026-05-26T11:00:45.000Z</time>
      </trkpt>
      <trkpt lat="44.66429" lon="5.05193">
        <ele>860</ele>
        <time>2026-05-26T11:00:46.000Z</time>
      </trkpt>
      <trkpt lat="44.66429" lon="5.05193">
        <ele>860</ele>
        <time>2026-05-26T11:00:47.000Z</time>
      </trkpt>
      <trkpt lat="44.66429" lon="5.05193">
        <ele>860</ele>
        <time>2026-05-26T11:00:48.000Z</time>
      </trkpt>
      <trkpt lat="44.66429" lon="5.05193">
        <ele>860</ele>
        <time>2026-05-26T11:00:49.000Z</time>
      </trkpt>
      <trkpt lat="44.66429" lon="5.05193">
        <ele>860</ele>
        <time>2026-05-26T11:00:50.000Z</time>
      </trkpt>
      <trkpt lat="44.66429" lon="5.05193">
        <ele>860</ele>
        <time>2026-05-26T11:00:51.000Z</time>
      </trkpt>
      <trkpt lat="44.66429" lon="5.05193">
        <ele>860</ele>
        <time>2026-05-26T11:00:52.000Z</time>
      </trkpt>
      <trkpt lat="44.66429" lon="5.05193">
        <ele>860</ele>
        <time>2026-05-26T11:00:53.000Z</time>
      </trkpt>
      <trkpt lat="44.66429" lon="5.05193">
        <ele>860</ele>
        <time>2026-05-26T11:00:54.000Z</time>
      </trkpt>
      <trkpt lat="44.66429" lon="5.05193">
        <ele>860</ele>
        <time>2026-05-26T11:00:55.000Z</time>
      </trkpt>
      <trkpt lat="44.66429" lon="5.05193">
        <ele>860</ele>
        <time>2026-05-26T11:00:56.000Z</time>
      </trkpt>
      <trkpt lat="44.66429" lon="5.05193">
        <ele>860</ele>
        <time>2026-05-26T11:00:57.000Z</time>
      </trkpt>
      <trkpt lat="44.66429" lon="5.05193">
        <ele>860</ele>
        <time>2026-05-26T11:00:58.000Z</time>
      </trkpt>
      <trkpt lat="44.66429" lon="5.05193">
        <ele>860</ele>
        <time>2026-05-26T11:00:59.000Z</time>
      </trkpt>
      <trkpt lat="44.66429" lon="5.05193">
        <ele>860</ele>
        <time>2026-05-26T11:01:00.000Z</time>
      </trkpt>
      <trkpt lat="44.66429" lon="5.05193">
        <ele>860</ele>
        <time>2026-05-26T11:01:01.000Z</time>
      </trkpt>
      <trkpt lat="44.66429" lon="5.05193">
        <ele>860</ele>
        <time>2026-05-26T11:01:02.000Z</time>
      </trkpt>
      <trkpt lat="44.66429" lon="5.05193">
        <ele>860</ele>
        <time>2026-05-26T11:01:03.000Z</time>
      </trkpt>
      <trkpt lat="44.66429" lon="5.05193">
        <ele>860</ele>
        <time>2026-05-26T11:01:04.000Z</time>
      </trkpt>
      <trkpt lat="44.66429" lon="5.05193">
        <ele>860</ele>
        <time>2026-05-26T11:01:05.000Z</time>
      </trkpt>
      <trkpt lat="44.66429" lon="5.05193">
        <ele>860</ele>
        <time>2026-05-26T11:01:06.000Z</time>
      </trkpt>
      <trkpt lat="44.66429" lon="5.05193">
        <ele>860</ele>
        <time>2026-05-26T11:01:07.000Z</time>
      </trkpt>
      <trkpt lat="44.66429" lon="5.05193">
        <ele>860</ele>
        <time>2026-05-26T11:01:08.000Z</time>
      </trkpt>
      <trkpt lat="44.66429" lon="5.05193">
        <ele>860</ele>
        <time>2026-05-26T11:01:09.000Z</time>
      </trkpt>
      <trkpt lat="44.66429" lon="5.05193">
        <ele>860</ele>
        <time>2026-05-26T11:01:10.000Z</time>
      </trkpt>
      <trkpt lat="44.66429" lon="5.05193">
        <ele>860</ele>
        <time>2026-05-26T11:01:11.000Z</time>
      </trkpt>
      <trkpt lat="44.66429" lon="5.05193">
        <ele>860</ele>
        <time>2026-05-26T11:01:12.000Z</time>
      </trkpt>
      <trkpt lat="44.66429" lon="5.05193">
        <ele>860</ele>
        <time>2026-05-26T11:01:13.000Z</time>
      </trkpt>
      <trkpt lat="44.66429" lon="5.05193">
        <ele>860</ele>
        <time>2026-05-26T11:01:14.000Z</time>
      </trkpt>
      <trkpt lat="44.66429" lon="5.05193">
        <ele>860</ele>
        <time>2026-05-26T11:01:15.000Z</time>
      </trkpt>
      <trkpt lat="44.66429" lon="5.05193">
        <ele>860</ele>
        <time>2026-05-26T11:01:16.000Z</time>
      </trkpt>
      <trkpt lat="44.66429" lon="5.05193">
        <ele>860</ele>
        <time>2026-05-26T11:01:17.000Z</time>
      </trkpt>
      <trkpt lat="44.66429" lon="5.05193">
        <ele>860</ele>
        <time>2026-05-26T11:01:18.000Z</time>
      </trkpt>
      <trkpt lat="44.66429" lon="5.05193">
        <ele>860</ele>
        <time>2026-05-26T11:01:19.000Z</time>
      </trkpt>
      <trkpt lat="44.66429" lon="5.05193">
        <ele>860</ele>
        <time>2026-05-26T11:01:20.000Z</time>
      </trkpt>
      <trkpt lat="44.66429" lon="5.05193">
        <ele>860</ele>
        <time>2026-05-26T11:01:21.000Z</time>
      </trkpt>
      <trkpt lat="44.66429" lon="5.05193">
        <ele>860</ele>
        <time>2026-05-26T11:01:22.000Z</time>
      </trkpt>
      <trkpt lat="44.66429" lon="5.05193">
        <ele>860</ele>
        <time>2026-05-26T11:01:23.000Z</time>
      </trkpt>
      <trkpt lat="44.66429" lon="5.05193">
        <ele>860</ele>
        <time>2026-05-26T11:01:24.000Z</time>
      </trkpt>
      <trkpt lat="44.66429" lon="5.05193">
        <ele>860</ele>
        <time>2026-05-26T11:01:25.000Z</time>
      </trkpt>
      <trkpt lat="44.66429" lon="5.05193">
        <ele>860</ele>
        <time>2026-05-26T11:01:26.000Z</time>
      </trkpt>
      <trkpt lat="44.66429" lon="5.05193">
        <ele>860</ele>
        <time>2026-05-26T11:01:27.000Z</time>
      </trkpt>
      <trkpt lat="44.66429" lon="5.05193">
        <ele>860</ele>
        <time>2026-05-26T11:01:28.000Z</time>
      </trkpt>
      <trkpt lat="44.66429" lon="5.05193">
        <ele>860</ele>
        <time>2026-05-26T11:01:29.000Z</time>
      </trkpt>
      <trkpt lat="44.66429" lon="5.05193">
        <ele>860</ele>
        <time>2026-05-26T11:01:30.000Z</time>
      </trkpt>
      <trkpt lat="44.66429" lon="5.05193">
        <ele>860</ele>
        <time>2026-05-26T11:01:31.000Z</time>
      </trkpt>
      <trkpt lat="44.66429" lon="5.05193">
        <ele>860</ele>
        <time>2026-05-26T11:01:32.000Z</time>
      </trkpt>
      <trkpt lat="44.66429" lon="5.05193">
        <ele>860</ele>
        <time>2026-05-26T11:01:33.000Z</time>
      </trkpt>
      <trkpt lat="44.66429" lon="5.05193">
        <ele>860</ele>
        <time>2026-05-26T11:01:34.000Z</time>
      </trkpt>
      <trkpt lat="44.66429" lon="5.05193">
        <ele>860</ele>
        <time>2026-05-26T11:01:35.000Z</time>
      </trkpt>
      <trkpt lat="44.66429" lon="5.05193">
        <ele>860</ele>
        <time>2026-05-26T11:01:36.000Z</time>
      </trkpt>
      <trkpt lat="44.66429" lon="5.05193">
        <ele>860</ele>
        <time>2026-05-26T11:01:37.000Z</time>
      </trkpt>
      <trkpt lat="44.66429" lon="5.05193">
        <ele>860</ele>
        <time>2026-05-26T11:01:38.000Z</time>
      </trkpt>
      <trkpt lat="44.66429" lon="5.05193">
        <ele>860</ele>
        <time>2026-05-26T11:01:39.000Z</time>
      </trkpt>
      <trkpt lat="44.66429" lon="5.05193">
        <ele>860</ele>
        <time>2026-05-26T11:01:40.000Z</time>
      </trkpt>
      <trkpt lat="44.66429" lon="5.05193">
        <ele>860</ele>
        <time>2026-05-26T11:01:41.000Z</time>
      </trkpt>
      <trkpt lat="44.66429" lon="5.05193">
        <ele>860</ele>
        <time>2026-05-26T11:01:42.000Z</time>
      </trkpt>
      <trkpt lat="44.66429" lon="5.05193">
        <ele>860</ele>
        <time>2026-05-26T11:01:43.000Z</time>
      </trkpt>
      <trkpt lat="44.66429" lon="5.05193">
        <ele>860</ele>
        <time>2026-05-26T11:01:44.000Z</time>
      </trkpt>
      <trkpt lat="44.66429" lon="5.05193">
        <ele>860</ele>
        <time>2026-05-26T11:01:45.000Z</time>
      </trkpt>
      <trkpt lat="44.66429" lon="5.05193">
        <ele>860</ele>
        <time>2026-05-26T11:01:46.000Z</time>
      </trkpt>
      <trkpt lat="44.66429" lon="5.05193">
        <ele>860</ele>
        <time>2026-05-26T11:01:47.000Z</time>
      </trkpt>
      <trkpt lat="44.66429" lon="5.05193">
        <ele>860</ele>
        <time>2026-05-26T11:01:48.000Z</time>
      </trkpt>
      <trkpt lat="44.66429" lon="5.05193">
        <ele>860</ele>
        <time>2026-05-26T11:01:49.000Z</time>
      </trkpt>
      <trkpt lat="44.66429" lon="5.05193">
        <ele>860</ele>
        <time>2026-05-26T11:01:50.000Z</time>
      </trkpt>
      <trkpt lat="44.66429" lon="5.05193">
        <ele>860</ele>
        <time>2026-05-26T11:01:51.000Z</time>
      </trkpt>
      <trkpt lat="44.66429" lon="5.05193">
        <ele>860</ele>
        <time>2026-05-26T11:01:52.000Z</time>
      </trkpt>
      <trkpt lat="44.66429" lon="5.05193">
        <ele>860</ele>
        <time>2026-05-26T11:01:53.000Z</time>
      </trkpt>
      <trkpt lat="44.66429" lon="5.05193">
        <ele>860</ele>
        <time>2026-05-26T11:01:54.000Z</time>
      </trkpt>
      <trkpt lat="44.66429" lon="5.05193">
        <ele>860</ele>
        <time>2026-05-26T11:01:55.000Z</time>
      </trkpt>
      <trkpt lat="44.66429" lon="5.05193">
        <ele>860</ele>
        <time>2026-05-26T11:01:56.000Z</time>
      </trkpt>
      <trkpt lat="44.66429" lon="5.05193">
        <ele>860</ele>
        <time>2026-05-26T11:01:57.000Z</time>
      </trkpt>
      <trkpt lat="44.66429" lon="5.05193">
        <ele>860</ele>
        <time>2026-05-26T11:01:58.000Z</time>
      </trkpt>
      <trkpt lat="44.66429" lon="5.05193">
        <ele>860</ele>
        <time>2026-05-26T11:01:59.000Z</time>
      </trkpt>
      <trkpt lat="44.66429" lon="5.05193">
        <ele>860</ele>
        <time>2026-05-26T11:02:00.000Z</time>
      </trkpt>
      <trkpt lat="44.66429" lon="5.05193">
        <ele>860</ele>
        <time>2026-05-26T11:02:01.000Z</time>
      </trkpt>
      <trkpt lat="44.66429" lon="5.05193">
        <ele>860</ele>
        <time>2026-05-26T11:02:02.000Z</time>
      </trkpt>
      <trkpt lat="44.66429" lon="5.05193">
        <ele>860</ele>
        <time>2026-05-26T11:02:03.000Z</time>
      </trkpt>
      <trkpt lat="44.66429" lon="5.05193">
        <ele>860</ele>
        <time>2026-05-26T11:02:04.000Z</time>
      </trkpt>
      <trkpt lat="44.66429" lon="5.05193">
        <ele>860</ele>
        <time>2026-05-26T11:02:05.000Z</time>
      </trkpt>
      <trkpt lat="44.66429" lon="5.05193">
        <ele>860</ele>
        <time>2026-05-26T11:02:06.000Z</time>
      </trkpt>
      <trkpt lat="44.66429" lon="5.05193">
        <ele>860</ele>
        <time>2026-05-26T11:02:07.000Z</time>
      </trkpt>
      <trkpt lat="44.66429" lon="5.05193">
        <ele>860</ele>
        <time>2026-05-26T11:02:08.000Z</time>
      </trkpt>
      <trkpt lat="44.66429" lon="5.05193">
        <ele>860</ele>
        <time>2026-05-26T11:02:09.000Z</time>
      </trkpt>
      <trkpt lat="44.66429" lon="5.05193">
        <ele>860</ele>
        <time>2026-05-26T11:02:10.000Z</time>
      </trkpt>
      <trkpt lat="44.66429" lon="5.05193">
        <ele>860</ele>
        <time>2026-05-26T11:02:11.000Z</time>
      </trkpt>
      <trkpt lat="44.66429" lon="5.05193">
        <ele>860</ele>
        <time>2026-05-26T11:02:12.000Z</time>
      </trkpt>
      <trkpt lat="44.66429" lon="5.05193">
        <ele>860</ele>
        <time>2026-05-26T11:02:13.000Z</time>
      </trkpt>
      <trkpt lat="44.66429" lon="5.05193">
        <ele>860</ele>
        <time>2026-05-26T11:02:14.000Z</time>
      </trkpt>
      <trkpt lat="44.66429" lon="5.05193">
        <ele>860</ele>
        <time>2026-05-26T11:02:15.000Z</time>
      </trkpt>
      <trkpt lat="44.66429" lon="5.05193">
        <ele>860</ele>
        <time>2026-05-26T11:02:16.000Z</time>
      </trkpt>
      <trkpt lat="44.66429" lon="5.05193">
        <ele>860</ele>
        <time>2026-05-26T11:02:17.000Z</time>
      </trkpt>
      <trkpt lat="44.66429" lon="5.05193">
        <ele>860</ele>
        <time>2026-05-26T11:02:18.000Z</time>
      </trkpt>
      <trkpt lat="44.66429" lon="5.05193">
        <ele>860</ele>
        <time>2026-05-26T11:02:19.000Z</time>
      </trkpt>
      <trkpt lat="44.66429" lon="5.05193">
        <ele>860</ele>
        <time>2026-05-26T11:02:20.000Z</time>
      </trkpt>
      <trkpt lat="44.66429" lon="5.05193">
        <ele>860</ele>
        <time>2026-05-26T11:02:21.000Z</time>
      </trkpt>
      <trkpt lat="44.66429" lon="5.05193">
        <ele>860</ele>
        <time>2026-05-26T11:02:22.000Z</time>
      </trkpt>
      <trkpt lat="44.66429" lon="5.05193">
        <ele>860</ele>
        <time>2026-05-26T11:02:23.000Z</time>
      </trkpt>
      <trkpt lat="44.66429" lon="5.05193">
        <ele>860</ele>
        <time>2026-05-26T11:02:24.000Z</time>
      </trkpt>
      <trkpt lat="44.66429" lon="5.05193">
        <ele>860</ele>
        <time>2026-05-26T11:02:25.000Z</time>
      </trkpt>
      <trkpt lat="44.66429" lon="5.05193">
        <ele>860</ele>
        <time>2026-05-26T11:02:26.000Z</time>
      </trkpt>
      <trkpt lat="44.66429" lon="5.05193">
        <ele>860</ele>
        <time>2026-05-26T11:02:27.000Z</time>
      </trkpt>
      <trkpt lat="44.66429" lon="5.05193">
        <ele>860</ele>
        <time>2026-05-26T11:02:28.000Z</time>
      </trkpt>
      <trkpt lat="44.66429" lon="5.05193">
        <ele>860</ele>
        <time>2026-05-26T11:02:29.000Z</time>
      </trkpt>
      <trkpt lat="44.66429" lon="5.05193">
        <ele>860</ele>
        <time>2026-05-26T11:02:30.000Z</time>
      </trkpt>
      <trkpt lat="44.66429" lon="5.05193">
        <ele>860</ele>
        <time>2026-05-26T11:02:31.000Z</time>
      </trkpt>
      <trkpt lat="44.66429" lon="5.05193">
        <ele>860</ele>
        <time>2026-05-26T11:02:32.000Z</time>
      </trkpt>
      <trkpt lat="44.66429" lon="5.05193">
        <ele>860</ele>
        <time>2026-05-26T11:02:33.000Z</time>
      </trkpt>
      <trkpt lat="44.66429" lon="5.05193">
        <ele>860</ele>
        <time>2026-05-26T11:02:34.000Z</time>
      </trkpt>
      <trkpt lat="44.66429" lon="5.05193">
        <ele>860</ele>
        <time>2026-05-26T11:02:35.000Z</time>
      </trkpt>
      <trkpt lat="44.66429" lon="5.05193">
        <ele>860</ele>
        <time>2026-05-26T11:02:36.000Z</time>
      </trkpt>
      <trkpt lat="44.66429" lon="5.05193">
        <ele>860</ele>
        <time>2026-05-26T11:02:37.000Z</time>
      </trkpt>
      <trkpt lat="44.66429" lon="5.05193">
        <ele>860</ele>
        <time>2026-05-26T11:02:38.000Z</time>
      </trkpt>
      <trkpt lat="44.66429" lon="5.05193">
        <ele>860</ele>
        <time>2026-05-26T11:02:39.000Z</time>
      </trkpt>
      <trkpt lat="44.66429" lon="5.05193">
        <ele>860</ele>
        <time>2026-05-26T11:02:40.000Z</time>
      </trkpt>
      <trkpt lat="44.66429" lon="5.05193">
        <ele>860</ele>
        <time>2026-05-26T11:02:41.000Z</time>
      </trkpt>
      <trkpt lat="44.66429" lon="5.05193">
        <ele>860</ele>
        <time>2026-05-26T11:02:42.000Z</time>
      </trkpt>
      <trkpt lat="44.66429" lon="5.05193">
        <ele>860</ele>
        <time>2026-05-26T11:02:43.000Z</time>
      </trkpt>
      <trkpt lat="44.66429" lon="5.05193">
        <ele>860</ele>
        <time>2026-05-26T11:02:44.000Z</time>
      </trkpt>
      <trkpt lat="44.66429" lon="5.05193">
        <ele>860</ele>
        <time>2026-05-26T11:02:45.000Z</time>
      </trkpt>
      <trkpt lat="44.66429" lon="5.05193">
        <ele>860</ele>
        <time>2026-05-26T11:02:46.000Z</time>
      </trkpt>
      <trkpt lat="44.66429" lon="5.05193">
        <ele>860</ele>
        <time>2026-05-26T11:02:47.000Z</time>
      </trkpt>
      <trkpt lat="44.66429" lon="5.05193">
        <ele>860</ele>
        <time>2026-05-26T11:02:48.000Z</time>
      </trkpt>
      <trkpt lat="44.66429" lon="5.05193">
        <ele>860</ele>
        <time>2026-05-26T11:02:49.000Z</time>
      </trkpt>
      <trkpt lat="44.66429" lon="5.05193">
        <ele>860</ele>
        <time>2026-05-26T11:02:50.000Z</time>
      </trkpt>
      <trkpt lat="44.66429" lon="5.05193">
        <ele>860</ele>
        <time>2026-05-26T11:02:51.000Z</time>
      </trkpt>
      <trkpt lat="44.66429" lon="5.05193">
        <ele>860</ele>
        <time>2026-05-26T11:02:52.000Z</time>
      </trkpt>
      <trkpt lat="44.66429" lon="5.05193">
        <ele>860</ele>
        <time>2026-05-26T11:02:53.000Z</time>
      </trkpt>
      <trkpt lat="44.66429" lon="5.05193">
        <ele>860</ele>
        <time>2026-05-26T11:02:54.000Z</time>
      </trkpt>
      <trkpt lat="44.66429" lon="5.05193">
        <ele>860</ele>
        <time>2026-05-26T11:02:55.000Z</time>
      </trkpt>
      <trkpt lat="44.66429" lon="5.05193">
        <ele>860</ele>
        <time>2026-05-26T11:02:56.000Z</time>
      </trkpt>
      <trkpt lat="44.66429" lon="5.05193">
        <ele>860</ele>
        <time>2026-05-26T11:02:57.000Z</time>
      </trkpt>
      <trkpt lat="44.66429" lon="5.05193">
        <ele>860</ele>
        <time>2026-05-26T11:02:58.000Z</time>
      </trkpt>
      <trkpt lat="44.66429" lon="5.05193">
        <ele>860</ele>
        <time>2026-05-26T11:02:59.000Z</time>
      </trkpt>
      <trkpt lat="44.66429" lon="5.05193">
        <ele>860</ele>
        <time>2026-05-26T11:03:00.000Z</time>
      </trkpt>
      <trkpt lat="44.66429" lon="5.05193">
        <ele>860</ele>
        <time>2026-05-26T11:03:01.000Z</time>
      </trkpt>
      <trkpt lat="44.66429" lon="5.05193">
        <ele>860</ele>
        <time>2026-05-26T11:03:02.000Z</time>
      </trkpt>
      <trkpt lat="44.66429" lon="5.05193">
        <ele>860</ele>
        <time>2026-05-26T11:03:03.000Z</time>
      </trkpt>
      <trkpt lat="44.66429" lon="5.05193">
        <ele>860</ele>
        <time>2026-05-26T11:03:04.000Z</time>
      </trkpt>
      <trkpt lat="44.66429" lon="5.05193">
        <ele>860</ele>
        <time>2026-05-26T11:03:05.000Z</time>
      </trkpt>
      <trkpt lat="44.66429" lon="5.05193">
        <ele>860</ele>
        <time>2026-05-26T11:03:06.000Z</time>
      </trkpt>
      <trkpt lat="44.66429" lon="5.05193">
        <ele>860</ele>
        <time>2026-05-26T11:03:07.000Z</time>
      </trkpt>
      <trkpt lat="44.66429" lon="5.05193">
        <ele>860</ele>
        <time>2026-05-26T11:03:08.000Z</time>
      </trkpt>
      <trkpt lat="44.66429" lon="5.05193">
        <ele>860</ele>
        <time>2026-05-26T11:03:09.000Z</time>
      </trkpt>
      <trkpt lat="44.66429" lon="5.05193">
        <ele>860</ele>
        <time>2026-05-26T11:03:10.000Z</time>
      </trkpt>
      <trkpt lat="44.66429" lon="5.05193">
        <ele>860</ele>
        <time>2026-05-26T11:03:11.000Z</time>
      </trkpt>
      <trkpt lat="44.66429" lon="5.05193">
        <ele>860</ele>
        <time>2026-05-26T11:03:12.000Z</time>
      </trkpt>
      <trkpt lat="44.66429" lon="5.05193">
        <ele>860</ele>
        <time>2026-05-26T11:03:13.000Z</time>
      </trkpt>
      <trkpt lat="44.66429" lon="5.05193">
        <ele>860</ele>
        <time>2026-05-26T11:03:14.000Z</time>
      </trkpt>
      <trkpt lat="44.66429" lon="5.05193">
        <ele>860</ele>
        <time>2026-05-26T11:03:15.000Z</time>
      </trkpt>
      <trkpt lat="44.66429" lon="5.05193">
        <ele>860</ele>
        <time>2026-05-26T11:03:16.000Z</time>
      </trkpt>
      <trkpt lat="44.66429" lon="5.05193">
        <ele>860</ele>
        <time>2026-05-26T11:03:17.000Z</time>
      </trkpt>
      <trkpt lat="44.66429" lon="5.05193">
        <ele>860</ele>
        <time>2026-05-26T11:03:18.000Z</time>
      </trkpt>
      <trkpt lat="44.66429" lon="5.05193">
        <ele>860</ele>
        <time>2026-05-26T11:03:19.000Z</time>
      </trkpt>
      <trkpt lat="44.66429" lon="5.05193">
        <ele>860</ele>
        <time>2026-05-26T11:03:20.000Z</time>
      </trkpt>
      <trkpt lat="44.66429" lon="5.05193">
        <ele>860</ele>
        <time>2026-05-26T11:03:21.000Z</time>
      </trkpt>
      <trkpt lat="44.66429" lon="5.05193">
        <ele>860</ele>
        <time>2026-05-26T11:03:22.000Z</time>
      </trkpt>
      <trkpt lat="44.66429" lon="5.05193">
        <ele>860</ele>
        <time>2026-05-26T11:03:23.000Z</time>
      </trkpt>
      <trkpt lat="44.66429" lon="5.05193">
        <ele>860</ele>
        <time>2026-05-26T11:03:24.000Z</time>
      </trkpt>
      <trkpt lat="44.66429" lon="5.05193">
        <ele>860</ele>
        <time>2026-05-26T11:03:25.000Z</time>
      </trkpt>
      <trkpt lat="44.66429" lon="5.05193">
        <ele>860</ele>
        <time>2026-05-26T11:03:26.000Z</time>
      </trkpt>
      <trkpt lat="44.66429" lon="5.05193">
        <ele>860</ele>
        <time>2026-05-26T11:03:27.000Z</time>
      </trkpt>
      <trkpt lat="44.66429" lon="5.05193">
        <ele>860</ele>
        <time>2026-05-26T11:03:28.000Z</time>
      </trkpt>
      <trkpt lat="44.66429" lon="5.05193">
        <ele>860</ele>
        <time>2026-05-26T11:03:29.000Z</time>
      </trkpt>
      <trkpt lat="44.66429" lon="5.05193">
        <ele>860</ele>
        <time>2026-05-26T11:03:30.000Z</time>
      </trkpt>
      <trkpt lat="44.66429" lon="5.05193">
        <ele>860</ele>
        <time>2026-05-26T11:03:31.000Z</time>
      </trkpt>
      <trkpt lat="44.66429" lon="5.05193">
        <ele>860</ele>
        <time>2026-05-26T11:03:32.000Z</time>
      </trkpt>
      <trkpt lat="44.66429" lon="5.05193">
        <ele>860</ele>
        <time>2026-05-26T11:03:33.000Z</time>
      </trkpt>
      <trkpt lat="44.66429" lon="5.05193">
        <ele>860</ele>
        <time>2026-05-26T11:03:34.000Z</time>
      </trkpt>
      <trkpt lat="44.66429" lon="5.05193">
        <ele>860</ele>
        <time>2026-05-26T11:03:35.000Z</time>
      </trkpt>
      <trkpt lat="44.66429" lon="5.05193">
        <ele>860</ele>
        <time>2026-05-26T11:03:36.000Z</time>
      </trkpt>
      <trkpt lat="44.66429" lon="5.05193">
        <ele>860</ele>
        <time>2026-05-26T11:03:37.000Z</time>
      </trkpt>
      <trkpt lat="44.66429" lon="5.05193">
        <ele>860</ele>
        <time>2026-05-26T11:03:38.000Z</time>
      </trkpt>
      <trkpt lat="44.66429" lon="5.05193">
        <ele>860</ele>
        <time>2026-05-26T11:03:39.000Z</time>
      </trkpt>
      <trkpt lat="44.66429" lon="5.05193">
        <ele>860</ele>
        <time>2026-05-26T11:03:40.000Z</time>
      </trkpt>
      <trkpt lat="44.66429" lon="5.05193">
        <ele>860</ele>
        <time>2026-05-26T11:03:41.000Z</time>
      </trkpt>
      <trkpt lat="44.66429" lon="5.05193">
        <ele>860</ele>
        <time>2026-05-26T11:03:42.000Z</time>
      </trkpt>
      <trkpt lat="44.66429" lon="5.05193">
        <ele>860</ele>
        <time>2026-05-26T11:03:43.000Z</time>
      </trkpt>
      <trkpt lat="44.66429" lon="5.05193">
        <ele>860</ele>
        <time>2026-05-26T11:03:44.000Z</time>
      </trkpt>
      <trkpt lat="44.66429" lon="5.05193">
        <ele>860</ele>
        <time>2026-05-26T11:03:45.000Z</time>
      </trkpt>
      <trkpt lat="44.66429" lon="5.05193">
        <ele>860</ele>
        <time>2026-05-26T11:03:46.000Z</time>
      </trkpt>
      <trkpt lat="44.66429" lon="5.05193">
        <ele>860</ele>
        <time>2026-05-26T11:03:47.000Z</time>
      </trkpt>
      <trkpt lat="44.66429" lon="5.05193">
        <ele>860</ele>
        <time>2026-05-26T11:03:48.000Z</time>
      </trkpt>
      <trkpt lat="44.66429" lon="5.05193">
        <ele>860</ele>
        <time>2026-05-26T11:03:49.000Z</time>
      </trkpt>
      <trkpt lat="44.66429" lon="5.05193">
        <ele>860</ele>
        <time>2026-05-26T11:03:50.000Z</time>
      </trkpt>
      <trkpt lat="44.66429" lon="5.05193">
        <ele>860</ele>
        <time>2026-05-26T11:03:51.000Z</time>
      </trkpt>
      <trkpt lat="44.66429" lon="5.05193">
        <ele>860</ele>
        <time>2026-05-26T11:03:52.000Z</time>
      </trkpt>
      <trkpt lat="44.66429" lon="5.05193">
        <ele>860</ele>
        <time>2026-05-26T11:03:53.000Z</time>
      </trkpt>
      <trkpt lat="44.66429" lon="5.05193">
        <ele>860</ele>
        <time>2026-05-26T11:03:54.000Z</time>
      </trkpt>
      <trkpt lat="44.66429" lon="5.05193">
        <ele>860</ele>
        <time>2026-05-26T11:03:55.000Z</time>
      </trkpt>
      <trkpt lat="44.66429" lon="5.05193">
        <ele>860</ele>
        <time>2026-05-26T11:03:56.000Z</time>
      </trkpt>
      <trkpt lat="44.66429" lon="5.05193">
        <ele>860</ele>
        <time>2026-05-26T11:03:57.000Z</time>
      </trkpt>
      <trkpt lat="44.66429" lon="5.05193">
        <ele>860</ele>
        <time>2026-05-26T11:03:58.000Z</time>
      </trkpt>
      <trkpt lat="44.66429" lon="5.05193">
        <ele>860</ele>
        <time>2026-05-26T11:03:59.000Z</time>
      </trkpt>
      <trkpt lat="44.66429" lon="5.05193">
        <ele>860</ele>
        <time>2026-05-26T11:04:00.000Z</time>
      </trkpt>
      <trkpt lat="44.66429" lon="5.05193">
        <ele>860</ele>
        <time>2026-05-26T11:04:01.000Z</time>
      </trkpt>
      <trkpt lat="44.66429" lon="5.05193">
        <ele>860</ele>
        <time>2026-05-26T11:04:02.000Z</time>
      </trkpt>
      <trkpt lat="44.66429" lon="5.05193">
        <ele>860</ele>
        <time>2026-05-26T11:04:03.000Z</time>
      </trkpt>
      <trkpt lat="44.66429" lon="5.05193">
        <ele>860</ele>
        <time>2026-05-26T11:04:04.000Z</time>
      </trkpt>
      <trkpt lat="44.66429" lon="5.05193">
        <ele>860</ele>
        <time>2026-05-26T11:04:05.000Z</time>
      </trkpt>
      <trkpt lat="44.66429" lon="5.05193">
        <ele>860</ele>
        <time>2026-05-26T11:04:06.000Z</time>
      </trkpt>
      <trkpt lat="44.66429" lon="5.05193">
        <ele>860</ele>
        <time>2026-05-26T11:04:07.000Z</time>
      </trkpt>
      <trkpt lat="44.66429" lon="5.05193">
        <ele>860</ele>
        <time>2026-05-26T11:04:08.000Z</time>
      </trkpt>
      <trkpt lat="44.66429" lon="5.05193">
        <ele>860</ele>
        <time>2026-05-26T11:04:09.000Z</time>
      </trkpt>
      <trkpt lat="44.66429" lon="5.05193">
        <ele>860</ele>
        <time>2026-05-26T11:04:10.000Z</time>
      </trkpt>
      <trkpt lat="44.66429" lon="5.05193">
        <ele>860</ele>
        <time>2026-05-26T11:04:11.000Z</time>
      </trkpt>
      <trkpt lat="44.66429" lon="5.05193">
        <ele>860</ele>
        <time>2026-05-26T11:04:12.000Z</time>
      </trkpt>
      <trkpt lat="44.66429" lon="5.05193">
        <ele>860</ele>
        <time>2026-05-26T11:04:13.000Z</time>
      </trkpt>
      <trkpt lat="44.66429" lon="5.05193">
        <ele>860</ele>
        <time>2026-05-26T11:04:14.000Z</time>
      </trkpt>
      <trkpt lat="44.66429" lon="5.05193">
        <ele>860</ele>
        <time>2026-05-26T11:04:15.000Z</time>
      </trkpt>
      <trkpt lat="44.66429" lon="5.05193">
        <ele>860</ele>
        <time>2026-05-26T11:04:16.000Z</time>
      </trkpt>
      <trkpt lat="44.66429" lon="5.05193">
        <ele>860</ele>
        <time>2026-05-26T11:04:17.000Z</time>
      </trkpt>
      <trkpt lat="44.66429" lon="5.05193">
        <ele>860</ele>
        <time>2026-05-26T11:04:18.000Z</time>
      </trkpt>
      <trkpt lat="44.66429" lon="5.05193">
        <ele>860</ele>
        <time>2026-05-26T11:04:19.000Z</time>
      </trkpt>
      <trkpt lat="44.66429" lon="5.05193">
        <ele>860</ele>
        <time>2026-05-26T11:04:20.000Z</time>
      </trkpt>
      <trkpt lat="44.66429" lon="5.05193">
        <ele>860</ele>
        <time>2026-05-26T11:04:21.000Z</time>
      </trkpt>
      <trkpt lat="44.66429" lon="5.05193">
        <ele>860</ele>
        <time>2026-05-26T11:04:22.000Z</time>
      </trkpt>
      <trkpt lat="44.66429" lon="5.05193">
        <ele>860</ele>
        <time>2026-05-26T11:04:23.000Z</time>
      </trkpt>
      <trkpt lat="44.66429" lon="5.05193">
        <ele>860</ele>
        <time>2026-05-26T11:04:24.000Z</time>
      </trkpt>
      <trkpt lat="44.66429" lon="5.05193">
        <ele>860</ele>
        <time>2026-05-26T11:04:25.000Z</time>
      </trkpt>
      <trkpt lat="44.66429" lon="5.05193">
        <ele>860</ele>
        <time>2026-05-26T11:04:26.000Z</time>
      </trkpt>
      <trkpt lat="44.66429" lon="5.05193">
        <ele>860</ele>
        <time>2026-05-26T11:04:27.000Z</time>
      </trkpt>
      <trkpt lat="44.66429" lon="5.05193">
        <ele>860</ele>
        <time>2026-05-26T11:04:28.000Z</time>
      </trkpt>
      <trkpt lat="44.66429" lon="5.05193">
        <ele>860</ele>
        <time>2026-05-26T11:04:29.000Z</time>
      </trkpt>
      <trkpt lat="44.66429" lon="5.05193">
        <ele>860</ele>
        <time>2026-05-26T11:04:30.000Z</time>
      </trkpt>
      <trkpt lat="44.66429" lon="5.05193">
        <ele>860</ele>
        <time>2026-05-26T11:04:31.000Z</time>
      </trkpt>
      <trkpt lat="44.66429" lon="5.05193">
        <ele>860</ele>
        <time>2026-05-26T11:04:32.000Z</time>
      </trkpt>
      <trkpt lat="44.66429" lon="5.05193">
        <ele>860</ele>
        <time>2026-05-26T11:04:33.000Z</time>
      </trkpt>
      <trkpt lat="44.66429" lon="5.05193">
        <ele>860</ele>
        <time>2026-05-26T11:04:34.000Z</time>
      </trkpt>
      <trkpt lat="44.66429" lon="5.05193">
        <ele>860</ele>
        <time>2026-05-26T11:04:35.000Z</time>
      </trkpt>
      <trkpt lat="44.66429" lon="5.05193">
        <ele>860</ele>
        <time>2026-05-26T11:04:36.000Z</time>
      </trkpt>
      <trkpt lat="44.66429" lon="5.05193">
        <ele>860</ele>
        <time>2026-05-26T11:04:37.000Z</time>
      </trkpt>
      <trkpt lat="44.66429" lon="5.05193">
        <ele>860</ele>
        <time>2026-05-26T11:04:38.000Z</time>
      </trkpt>
      <trkpt lat="44.66429" lon="5.05193">
        <ele>860</ele>
        <time>2026-05-26T11:04:39.000Z</time>
      </trkpt>
      <trkpt lat="44.66429" lon="5.05193">
        <ele>860</ele>
        <time>2026-05-26T11:04:40.000Z</time>
      </trkpt>
      <trkpt lat="44.66429" lon="5.05193">
        <ele>860</ele>
        <time>2026-05-26T11:04:41.000Z</time>
      </trkpt>
      <trkpt lat="44.66429" lon="5.05193">
        <ele>860</ele>
        <time>2026-05-26T11:04:42.000Z</time>
      </trkpt>
      <trkpt lat="44.66429" lon="5.05193">
        <ele>860</ele>
        <time>2026-05-26T11:04:43.000Z</time>
      </trkpt>
      <trkpt lat="44.66429" lon="5.05193">
        <ele>860</ele>
        <time>2026-05-26T11:04:44.000Z</time>
      </trkpt>
      <trkpt lat="44.66429" lon="5.05193">
        <ele>860</ele>
        <time>2026-05-26T11:04:45.000Z</time>
      </trkpt>
      <trkpt lat="44.66429" lon="5.05193">
        <ele>860</ele>
        <time>2026-05-26T11:04:46.000Z</time>
      </trkpt>
      <trkpt lat="44.66429" lon="5.05193">
        <ele>860</ele>
        <time>2026-05-26T11:04:47.000Z</time>
      </trkpt>
      <trkpt lat="44.66429" lon="5.05193">
        <ele>860</ele>
        <time>2026-05-26T11:04:48.000Z</time>
      </trkpt>
      <trkpt lat="44.66429" lon="5.05193">
        <ele>860</ele>
        <time>2026-05-26T11:04:49.000Z</time>
      </trkpt>
      <trkpt lat="44.66429" lon="5.05193">
        <ele>860</ele>
        <time>2026-05-26T11:04:50.000Z</time>
      </trkpt>
      <trkpt lat="44.66429" lon="5.05193">
        <ele>860</ele>
        <time>2026-05-26T11:04:51.000Z</time>
      </trkpt>
      <trkpt lat="44.66429" lon="5.05193">
        <ele>860</ele>
        <time>2026-05-26T11:04:52.000Z</time>
      </trkpt>
      <trkpt lat="44.66429" lon="5.05193">
        <ele>860</ele>
        <time>2026-05-26T11:04:53.000Z</time>
      </trkpt>
      <trkpt lat="44.66429" lon="5.05193">
        <ele>860</ele>
        <time>2026-05-26T11:04:54.000Z</time>
      </trkpt>
      <trkpt lat="44.66429" lon="5.05193">
        <ele>860</ele>
        <time>2026-05-26T11:04:55.000Z</time>
      </trkpt>
      <trkpt lat="44.66429" lon="5.05193">
        <ele>860</ele>
        <time>2026-05-26T11:04:56.000Z</time>
      </trkpt>
      <trkpt lat="44.66429" lon="5.05193">
        <ele>860</ele>
        <time>2026-05-26T11:04:57.000Z</time>
      </trkpt>
      <trkpt lat="44.66429" lon="5.05193">
        <ele>860</ele>
        <time>2026-05-26T11:04:58.000Z</time>
      </trkpt>
      <trkpt lat="44.66429" lon="5.05193">
        <ele>860</ele>
        <time>2026-05-26T11:04:59.000Z</time>
      </trkpt>
      <trkpt lat="44.66429" lon="5.05193">
        <ele>860</ele>
        <time>2026-05-26T11:05:00.000Z</time>
      </trkpt>
      <trkpt lat="44.66429" lon="5.05193">
        <ele>860</ele>
        <time>2026-05-26T11:05:01.000Z</time>
      </trkpt>
      <trkpt lat="44.66429" lon="5.05193">
        <ele>860</ele>
        <time>2026-05-26T11:05:02.000Z</time>
      </trkpt>
      <trkpt lat="44.66429" lon="5.05193">
        <ele>860</ele>
        <time>2026-05-26T11:05:03.000Z</time>
      </trkpt>
      <trkpt lat="44.66429" lon="5.05193">
        <ele>860</ele>
        <time>2026-05-26T11:05:04.000Z</time>
      </trkpt>
      <trkpt lat="44.66429" lon="5.05193">
        <ele>860</ele>
        <time>2026-05-26T11:05:05.000Z</time>
      </trkpt>
      <trkpt lat="44.66429" lon="5.05193">
        <ele>860</ele>
        <time>2026-05-26T11:05:06.000Z</time>
      </trkpt>
      <trkpt lat="44.66429" lon="5.05193">
        <ele>860</ele>
        <time>2026-05-26T11:05:07.000Z</time>
      </trkpt>
      <trkpt lat="44.66429" lon="5.05193">
        <ele>860</ele>
        <time>2026-05-26T11:05:08.000Z</time>
      </trkpt>
      <trkpt lat="44.66429" lon="5.05193">
        <ele>860</ele>
        <time>2026-05-26T11:05:09.000Z</time>
      </trkpt>
      <trkpt lat="44.66429" lon="5.05193">
        <ele>860</ele>
        <time>2026-05-26T11:05:10.000Z</time>
      </trkpt>
      <trkpt lat="44.66429" lon="5.05193">
        <ele>860</ele>
        <time>2026-05-26T11:05:11.000Z</time>
      </trkpt>
      <trkpt lat="44.66429" lon="5.05193">
        <ele>860</ele>
        <time>2026-05-26T11:05:12.000Z</time>
      </trkpt>
      <trkpt lat="44.66429" lon="5.05193">
        <ele>860</ele>
        <time>2026-05-26T11:05:13.000Z</time>
      </trkpt>
      <trkpt lat="44.66429" lon="5.05193">
        <ele>860</ele>
        <time>2026-05-26T11:05:14.000Z</time>
      </trkpt>
      <trkpt lat="44.66429" lon="5.05193">
        <ele>860</ele>
        <time>2026-05-26T11:05:15.000Z</time>
      </trkpt>
      <trkpt lat="44.66429" lon="5.05193">
        <ele>860</ele>
        <time>2026-05-26T11:05:16.000Z</time>
      </trkpt>
      <trkpt lat="44.66429" lon="5.05193">
        <ele>860</ele>
        <time>2026-05-26T11:05:17.000Z</time>
      </trkpt>
      <trkpt lat="44.66429" lon="5.05193">
        <ele>860</ele>
        <time>2026-05-26T11:05:18.000Z</time>
      </trkpt>
      <trkpt lat="44.66429" lon="5.05193">
        <ele>860</ele>
        <time>2026-05-26T11:05:19.000Z</time>
      </trkpt>
      <trkpt lat="44.66429" lon="5.05193">
        <ele>860</ele>
        <time>2026-05-26T11:05:20.000Z</time>
      </trkpt>
      <trkpt lat="44.66429" lon="5.05193">
        <ele>860</ele>
        <time>2026-05-26T11:05:21.000Z</time>
      </trkpt>
      <trkpt lat="44.66429" lon="5.05193">
        <ele>860</ele>
        <time>2026-05-26T11:05:22.000Z</time>
      </trkpt>
      <trkpt lat="44.66429" lon="5.05193">
        <ele>860</ele>
        <time>2026-05-26T11:05:23.000Z</time>
      </trkpt>
      <trkpt lat="44.66429" lon="5.05193">
        <ele>860</ele>
        <time>2026-05-26T11:05:24.000Z</time>
      </trkpt>
      <trkpt lat="44.6643" lon="5.05192">
        <ele>860</ele>
        <time>2026-05-26T11:05:25.000Z</time>
      </trkpt>
      <trkpt lat="44.6643" lon="5.05192">
        <ele>860</ele>
        <time>2026-05-26T11:05:26.000Z</time>
      </trkpt>
      <trkpt lat="44.6643" lon="5.05192">
        <ele>860</ele>
        <time>2026-05-26T11:05:27.000Z</time>
      </trkpt>
      <trkpt lat="44.6643" lon="5.05192">
        <ele>860</ele>
        <time>2026-05-26T11:05:28.000Z</time>
      </trkpt>
      <trkpt lat="44.6643" lon="5.05192">
        <ele>860</ele>
        <time>2026-05-26T11:05:29.000Z</time>
      </trkpt>
      <trkpt lat="44.6643" lon="5.05192">
        <ele>860</ele>
        <time>2026-05-26T11:05:30.000Z</time>
      </trkpt>
      <trkpt lat="44.6643" lon="5.05192">
        <ele>860</ele>
        <time>2026-05-26T11:05:31.000Z</time>
      </trkpt>
      <trkpt lat="44.6643" lon="5.05192">
        <ele>860</ele>
        <time>2026-05-26T11:05:32.000Z</time>
      </trkpt>
      <trkpt lat="44.6643" lon="5.05192">
        <ele>860</ele>
        <time>2026-05-26T11:05:33.000Z</time>
      </trkpt>
      <trkpt lat="44.6643" lon="5.05192">
        <ele>860</ele>
        <time>2026-05-26T11:05:34.000Z</time>
      </trkpt>
      <trkpt lat="44.6643" lon="5.05192">
        <ele>860</ele>
        <time>2026-05-26T11:05:35.000Z</time>
      </trkpt>
      <trkpt lat="44.6643" lon="5.05192">
        <ele>860</ele>
        <time>2026-05-26T11:05:36.000Z</time>
      </trkpt>
      <trkpt lat="44.6643" lon="5.05192">
        <ele>860</ele>
        <time>2026-05-26T11:05:37.000Z</time>
      </trkpt>
      <trkpt lat="44.6643" lon="5.05192">
        <ele>860</ele>
        <time>2026-05-26T11:05:38.000Z</time>
      </trkpt>
      <trkpt lat="44.6643" lon="5.05192">
        <ele>860</ele>
        <time>2026-05-26T11:05:39.000Z</time>
      </trkpt>
      <trkpt lat="44.6643" lon="5.05192">
        <ele>860</ele>
        <time>2026-05-26T11:05:40.000Z</time>
      </trkpt>
      <trkpt lat="44.6643" lon="5.05192">
        <ele>860</ele>
        <time>2026-05-26T11:05:41.000Z</time>
      </trkpt>
      <trkpt lat="44.6643" lon="5.05192">
        <ele>860</ele>
        <time>2026-05-26T11:05:42.000Z</time>
      </trkpt>
      <trkpt lat="44.6643" lon="5.05192">
        <ele>860</ele>
        <time>2026-05-26T11:05:43.000Z</time>
      </trkpt>
      <trkpt lat="44.6643" lon="5.05192">
        <ele>860</ele>
        <time>2026-05-26T11:05:44.000Z</time>
      </trkpt>
      <trkpt lat="44.6643" lon="5.05192">
        <ele>860</ele>
        <time>2026-05-26T11:05:45.000Z</time>
      </trkpt>
      <trkpt lat="44.6643" lon="5.05192">
        <ele>860</ele>
        <time>2026-05-26T11:05:46.000Z</time>
      </trkpt>
      <trkpt lat="44.6643" lon="5.05192">
        <ele>860</ele>
        <time>2026-05-26T11:05:47.000Z</time>
      </trkpt>
      <trkpt lat="44.6643" lon="5.05192">
        <ele>860</ele>
        <time>2026-05-26T11:05:48.000Z</time>
      </trkpt>
      <trkpt lat="44.6643" lon="5.05192">
        <ele>860</ele>
        <time>2026-05-26T11:05:49.000Z</time>
      </trkpt>
      <trkpt lat="44.6643" lon="5.05192">
        <ele>860</ele>
        <time>2026-05-26T11:05:50.000Z</time>
      </trkpt>
      <trkpt lat="44.6643" lon="5.05192">
        <ele>860</ele>
        <time>2026-05-26T11:05:51.000Z</time>
      </trkpt>
      <trkpt lat="44.6643" lon="5.05192">
        <ele>860</ele>
        <time>2026-05-26T11:05:52.000Z</time>
      </trkpt>
      <trkpt lat="44.6643" lon="5.05192">
        <ele>860</ele>
        <time>2026-05-26T11:05:53.000Z</time>
      </trkpt>
      <trkpt lat="44.6643" lon="5.05192">
        <ele>860</ele>
        <time>2026-05-26T11:05:54.000Z</time>
      </trkpt>
      <trkpt lat="44.6643" lon="5.05192">
        <ele>860</ele>
        <time>2026-05-26T11:05:55.000Z</time>
      </trkpt>
      <trkpt lat="44.6643" lon="5.05192">
        <ele>860</ele>
        <time>2026-05-26T11:05:56.000Z</time>
      </trkpt>
      <trkpt lat="44.6643" lon="5.05192">
        <ele>860</ele>
        <time>2026-05-26T11:05:57.000Z</time>
      </trkpt>
      <trkpt lat="44.6643" lon="5.05192">
        <ele>860</ele>
        <time>2026-05-26T11:05:58.000Z</time>
      </trkpt>
      <trkpt lat="44.6643" lon="5.05192">
        <ele>860</ele>
        <time>2026-05-26T11:05:59.000Z</time>
      </trkpt>
      <trkpt lat="44.6643" lon="5.05192">
        <ele>860</ele>
        <time>2026-05-26T11:06:00.000Z</time>
      </trkpt>
      <trkpt lat="44.6643" lon="5.05192">
        <ele>860</ele>
        <time>2026-05-26T11:06:01.000Z</time>
      </trkpt>
      <trkpt lat="44.6643" lon="5.05192">
        <ele>860</ele>
        <time>2026-05-26T11:06:02.000Z</time>
      </trkpt>
      <trkpt lat="44.6643" lon="5.05192">
        <ele>860</ele>
        <time>2026-05-26T11:06:03.000Z</time>
      </trkpt>
      <trkpt lat="44.6643" lon="5.05192">
        <ele>860</ele>
        <time>2026-05-26T11:06:04.000Z</time>
      </trkpt>
      <trkpt lat="44.6643" lon="5.05192">
        <ele>860</ele>
        <time>2026-05-26T11:06:05.000Z</time>
      </trkpt>
      <trkpt lat="44.6643" lon="5.05192">
        <ele>860</ele>
        <time>2026-05-26T11:06:06.000Z</time>
      </trkpt>
      <trkpt lat="44.6643" lon="5.05192">
        <ele>860</ele>
        <time>2026-05-26T11:06:07.000Z</time>
      </trkpt>
      <trkpt lat="44.6643" lon="5.05192">
        <ele>860</ele>
        <time>2026-05-26T11:06:08.000Z</time>
      </trkpt>
      <trkpt lat="44.6643" lon="5.05192">
        <ele>860</ele>
        <time>2026-05-26T11:06:09.000Z</time>
      </trkpt>
      <trkpt lat="44.6643" lon="5.05192">
        <ele>860</ele>
        <time>2026-05-26T11:06:10.000Z</time>
      </trkpt>
      <trkpt lat="44.6643" lon="5.05192">
        <ele>860</ele>
        <time>2026-05-26T11:06:11.000Z</time>
      </trkpt>
      <trkpt lat="44.6643" lon="5.05192">
        <ele>860</ele>
        <time>2026-05-26T11:06:12.000Z</time>
      </trkpt>
      <trkpt lat="44.6643" lon="5.05192">
        <ele>860</ele>
        <time>2026-05-26T11:06:13.000Z</time>
      </trkpt>
      <trkpt lat="44.6643" lon="5.05192">
        <ele>860</ele>
        <time>2026-05-26T11:06:14.000Z</time>
      </trkpt>
      <trkpt lat="44.6643" lon="5.05192">
        <ele>860</ele>
        <time>2026-05-26T11:06:15.000Z</time>
      </trkpt>
      <trkpt lat="44.6643" lon="5.05192">
        <ele>860</ele>
        <time>2026-05-26T11:06:16.000Z</time>
      </trkpt>
      <trkpt lat="44.6643" lon="5.05192">
        <ele>860</ele>
        <time>2026-05-26T11:06:17.000Z</time>
      </trkpt>
      <trkpt lat="44.6643" lon="5.05192">
        <ele>860</ele>
        <time>2026-05-26T11:06:18.000Z</time>
      </trkpt>
      <trkpt lat="44.6643" lon="5.05192">
        <ele>860</ele>
        <time>2026-05-26T11:06:19.000Z</time>
      </trkpt>
      <trkpt lat="44.6643" lon="5.05192">
        <ele>860</ele>
        <time>2026-05-26T11:06:20.000Z</time>
      </trkpt>
      <trkpt lat="44.6643" lon="5.05192">
        <ele>860</ele>
        <time>2026-05-26T11:06:21.000Z</time>
      </trkpt>
      <trkpt lat="44.6643" lon="5.05192">
        <ele>860</ele>
        <time>2026-05-26T11:06:22.000Z</time>
      </trkpt>
      <trkpt lat="44.6643" lon="5.05192">
        <ele>860</ele>
        <time>2026-05-26T11:06:23.000Z</time>
      </trkpt>
      <trkpt lat="44.6643" lon="5.05192">
        <ele>860</ele>
        <time>2026-05-26T11:06:24.000Z</time>
      </trkpt>
      <trkpt lat="44.6643" lon="5.05192">
        <ele>860</ele>
        <time>2026-05-26T11:06:25.000Z</time>
      </trkpt>
      <trkpt lat="44.6643" lon="5.05192">
        <ele>860</ele>
        <time>2026-05-26T11:06:26.000Z</time>
      </trkpt>
      <trkpt lat="44.6643" lon="5.05192">
        <ele>860</ele>
        <time>2026-05-26T11:06:27.000Z</time>
      </trkpt>
      <trkpt lat="44.6643" lon="5.05192">
        <ele>860</ele>
        <time>2026-05-26T11:06:28.000Z</time>
      </trkpt>
      <trkpt lat="44.6643" lon="5.05192">
        <ele>860</ele>
        <time>2026-05-26T11:06:29.000Z</time>
      </trkpt>
      <trkpt lat="44.6643" lon="5.05192">
        <ele>860</ele>
        <time>2026-05-26T11:06:30.000Z</time>
      </trkpt>
      <trkpt lat="44.6643" lon="5.05192">
        <ele>860</ele>
        <time>2026-05-26T11:06:31.000Z</time>
      </trkpt>
      <trkpt lat="44.6643" lon="5.05192">
        <ele>860</ele>
        <time>2026-05-26T11:06:32.000Z</time>
      </trkpt>
      <trkpt lat="44.6643" lon="5.05192">
        <ele>860</ele>
        <time>2026-05-26T11:06:33.000Z</time>
      </trkpt>
      <trkpt lat="44.6643" lon="5.05192">
        <ele>860</ele>
        <time>2026-05-26T11:06:34.000Z</time>
      </trkpt>
      <trkpt lat="44.6643" lon="5.05192">
        <ele>860</ele>
        <time>2026-05-26T11:06:35.000Z</time>
      </trkpt>
      <trkpt lat="44.6643" lon="5.05192">
        <ele>860</ele>
        <time>2026-05-26T11:06:36.000Z</time>
      </trkpt>
      <trkpt lat="44.6643" lon="5.05192">
        <ele>860</ele>
        <time>2026-05-26T11:06:37.000Z</time>
      </trkpt>
      <trkpt lat="44.6643" lon="5.05192">
        <ele>860</ele>
        <time>2026-05-26T11:06:38.000Z</time>
      </trkpt>
      <trkpt lat="44.6643" lon="5.05192">
        <ele>860</ele>
        <time>2026-05-26T11:06:39.000Z</time>
      </trkpt>
      <trkpt lat="44.6643" lon="5.05192">
        <ele>860</ele>
        <time>2026-05-26T11:06:40.000Z</time>
      </trkpt>
      <trkpt lat="44.6643" lon="5.05192">
        <ele>860</ele>
        <time>2026-05-26T11:06:41.000Z</time>
      </trkpt>
      <trkpt lat="44.6643" lon="5.05192">
        <ele>860</ele>
        <time>2026-05-26T11:06:42.000Z</time>
      </trkpt>
      <trkpt lat="44.6643" lon="5.05192">
        <ele>860</ele>
        <time>2026-05-26T11:06:43.000Z</time>
      </trkpt>
      <trkpt lat="44.6643" lon="5.05192">
        <ele>860</ele>
        <time>2026-05-26T11:06:44.000Z</time>
      </trkpt>
      <trkpt lat="44.6643" lon="5.05192">
        <ele>860</ele>
        <time>2026-05-26T11:06:45.000Z</time>
      </trkpt>
      <trkpt lat="44.6643" lon="5.05192">
        <ele>860</ele>
        <time>2026-05-26T11:06:46.000Z</time>
      </trkpt>
      <trkpt lat="44.6643" lon="5.05192">
        <ele>860</ele>
        <time>2026-05-26T11:06:47.000Z</time>
      </trkpt>
      <trkpt lat="44.6643" lon="5.05192">
        <ele>860</ele>
        <time>2026-05-26T11:06:48.000Z</time>
      </trkpt>
      <trkpt lat="44.6643" lon="5.05192">
        <ele>860</ele>
        <time>2026-05-26T11:06:49.000Z</time>
      </trkpt>
      <trkpt lat="44.6643" lon="5.05192">
        <ele>860</ele>
        <time>2026-05-26T11:06:50.000Z</time>
      </trkpt>
      <trkpt lat="44.6643" lon="5.05192">
        <ele>860</ele>
        <time>2026-05-26T11:06:51.000Z</time>
      </trkpt>
      <trkpt lat="44.6643" lon="5.05192">
        <ele>860</ele>
        <time>2026-05-26T11:06:52.000Z</time>
      </trkpt>
      <trkpt lat="44.6643" lon="5.05192">
        <ele>860</ele>
        <time>2026-05-26T11:06:53.000Z</time>
      </trkpt>
      <trkpt lat="44.6643" lon="5.05192">
        <ele>860</ele>
        <time>2026-05-26T11:06:54.000Z</time>
      </trkpt>
      <trkpt lat="44.6643" lon="5.05192">
        <ele>860</ele>
        <time>2026-05-26T11:06:55.000Z</time>
      </trkpt>
      <trkpt lat="44.6643" lon="5.05192">
        <ele>860</ele>
        <time>2026-05-26T11:06:56.000Z</time>
      </trkpt>
      <trkpt lat="44.6643" lon="5.05192">
        <ele>860</ele>
        <time>2026-05-26T11:06:57.000Z</time>
      </trkpt>
      <trkpt lat="44.6643" lon="5.05192">
        <ele>860</ele>
        <time>2026-05-26T11:06:58.000Z</time>
      </trkpt>
      <trkpt lat="44.6643" lon="5.05192">
        <ele>860</ele>
        <time>2026-05-26T11:06:59.000Z</time>
      </trkpt>
      <trkpt lat="44.6643" lon="5.05192">
        <ele>860</ele>
        <time>2026-05-26T11:07:00.000Z</time>
      </trkpt>
      <trkpt lat="44.6643" lon="5.05192">
        <ele>860</ele>
        <time>2026-05-26T11:07:01.000Z</time>
      </trkpt>
      <trkpt lat="44.6643" lon="5.05192">
        <ele>860</ele>
        <time>2026-05-26T11:07:02.000Z</time>
      </trkpt>
      <trkpt lat="44.6643" lon="5.05192">
        <ele>860</ele>
        <time>2026-05-26T11:07:03.000Z</time>
      </trkpt>
      <trkpt lat="44.6643" lon="5.05192">
        <ele>860</ele>
        <time>2026-05-26T11:07:04.000Z</time>
      </trkpt>
      <trkpt lat="44.6643" lon="5.05192">
        <ele>860</ele>
        <time>2026-05-26T11:07:05.000Z</time>
      </trkpt>
      <trkpt lat="44.6643" lon="5.05192">
        <ele>860</ele>
        <time>2026-05-26T11:07:06.000Z</time>
      </trkpt>
      <trkpt lat="44.6643" lon="5.05192">
        <ele>860</ele>
        <time>2026-05-26T11:07:07.000Z</time>
      </trkpt>
      <trkpt lat="44.6643" lon="5.05192">
        <ele>860</ele>
        <time>2026-05-26T11:07:08.000Z</time>
      </trkpt>
      <trkpt lat="44.6643" lon="5.05192">
        <ele>860</ele>
        <time>2026-05-26T11:07:09.000Z</time>
      </trkpt>
      <trkpt lat="44.6643" lon="5.05192">
        <ele>860</ele>
        <time>2026-05-26T11:07:10.000Z</time>
      </trkpt>
      <trkpt lat="44.6643" lon="5.05192">
        <ele>860</ele>
        <time>2026-05-26T11:07:11.000Z</time>
      </trkpt>
      <trkpt lat="44.6643" lon="5.05192">
        <ele>860</ele>
        <time>2026-05-26T11:07:12.000Z</time>
      </trkpt>
      <trkpt lat="44.6643" lon="5.05192">
        <ele>860</ele>
        <time>2026-05-26T11:07:13.000Z</time>
      </trkpt>
      <trkpt lat="44.6643" lon="5.05192">
        <ele>860</ele>
        <time>2026-05-26T11:07:14.000Z</time>
      </trkpt>
      <trkpt lat="44.6643" lon="5.05192">
        <ele>860</ele>
        <time>2026-05-26T11:07:15.000Z</time>
      </trkpt>
      <trkpt lat="44.6643" lon="5.05192">
        <ele>860</ele>
        <time>2026-05-26T11:07:16.000Z</time>
      </trkpt>
      <trkpt lat="44.6643" lon="5.05192">
        <ele>860</ele>
        <time>2026-05-26T11:07:17.000Z</time>
      </trkpt>
      <trkpt lat="44.6643" lon="5.05192">
        <ele>860</ele>
        <time>2026-05-26T11:07:18.000Z</time>
      </trkpt>
      <trkpt lat="44.6643" lon="5.05192">
        <ele>860</ele>
        <time>2026-05-26T11:07:19.000Z</time>
      </trkpt>
      <trkpt lat="44.6643" lon="5.05192">
        <ele>860</ele>
        <time>2026-05-26T11:07:20.000Z</time>
      </trkpt>
      <trkpt lat="44.6643" lon="5.05192">
        <ele>860</ele>
        <time>2026-05-26T11:07:21.000Z</time>
      </trkpt>
      <trkpt lat="44.6643" lon="5.05192">
        <ele>860</ele>
        <time>2026-05-26T11:07:22.000Z</time>
      </trkpt>
      <trkpt lat="44.6643" lon="5.05192">
        <ele>860</ele>
        <time>2026-05-26T11:07:23.000Z</time>
      </trkpt>
      <trkpt lat="44.6643" lon="5.05192">
        <ele>860</ele>
        <time>2026-05-26T11:07:24.000Z</time>
      </trkpt>
      <trkpt lat="44.6643" lon="5.05192">
        <ele>860</ele>
        <time>2026-05-26T11:07:25.000Z</time>
      </trkpt>
      <trkpt lat="44.6643" lon="5.05192">
        <ele>860</ele>
        <time>2026-05-26T11:07:26.000Z</time>
      </trkpt>
      <trkpt lat="44.6643" lon="5.05192">
        <ele>860</ele>
        <time>2026-05-26T11:07:27.000Z</time>
      </trkpt>
      <trkpt lat="44.6643" lon="5.05192">
        <ele>860</ele>
        <time>2026-05-26T11:07:28.000Z</time>
      </trkpt>
      <trkpt lat="44.6643" lon="5.05192">
        <ele>860</ele>
        <time>2026-05-26T11:07:29.000Z</time>
      </trkpt>
      <trkpt lat="44.6643" lon="5.05192">
        <ele>860</ele>
        <time>2026-05-26T11:07:30.000Z</time>
      </trkpt>
      <trkpt lat="44.6643" lon="5.05192">
        <ele>860</ele>
        <time>2026-05-26T11:07:31.000Z</time>
      </trkpt>
      <trkpt lat="44.6643" lon="5.05192">
        <ele>860</ele>
        <time>2026-05-26T11:07:32.000Z</time>
      </trkpt>
      <trkpt lat="44.6643" lon="5.05192">
        <ele>860</ele>
        <time>2026-05-26T11:07:33.000Z</time>
      </trkpt>
      <trkpt lat="44.6643" lon="5.05192">
        <ele>860</ele>
        <time>2026-05-26T11:07:34.000Z</time>
      </trkpt>
      <trkpt lat="44.6643" lon="5.05192">
        <ele>860</ele>
        <time>2026-05-26T11:07:35.000Z</time>
      </trkpt>
      <trkpt lat="44.6643" lon="5.05192">
        <ele>860</ele>
        <time>2026-05-26T11:07:36.000Z</time>
      </trkpt>
      <trkpt lat="44.6643" lon="5.05192">
        <ele>860</ele>
        <time>2026-05-26T11:07:37.000Z</time>
      </trkpt>
      <trkpt lat="44.6643" lon="5.05192">
        <ele>860</ele>
        <time>2026-05-26T11:07:38.000Z</time>
      </trkpt>
      <trkpt lat="44.6643" lon="5.05192">
        <ele>860</ele>
        <time>2026-05-26T11:07:39.000Z</time>
      </trkpt>
      <trkpt lat="44.6643" lon="5.05192">
        <ele>860</ele>
        <time>2026-05-26T11:07:40.000Z</time>
      </trkpt>
      <trkpt lat="44.6643" lon="5.05192">
        <ele>860</ele>
        <time>2026-05-26T11:07:41.000Z</time>
      </trkpt>
      <trkpt lat="44.6643" lon="5.05192">
        <ele>860</ele>
        <time>2026-05-26T11:07:42.000Z</time>
      </trkpt>
      <trkpt lat="44.6643" lon="5.05192">
        <ele>860</ele>
        <time>2026-05-26T11:07:43.000Z</time>
      </trkpt>
      <trkpt lat="44.6643" lon="5.05192">
        <ele>860</ele>
        <time>2026-05-26T11:07:44.000Z</time>
      </trkpt>
      <trkpt lat="44.6643" lon="5.05192">
        <ele>860</ele>
        <time>2026-05-26T11:07:45.000Z</time>
      </trkpt>
      <trkpt lat="44.6643" lon="5.05192">
        <ele>860</ele>
        <time>2026-05-26T11:07:46.000Z</time>
      </trkpt>
      <trkpt lat="44.6643" lon="5.05192">
        <ele>860</ele>
        <time>2026-05-26T11:07:47.000Z</time>
      </trkpt>
      <trkpt lat="44.6643" lon="5.05192">
        <ele>860</ele>
        <time>2026-05-26T11:07:48.000Z</time>
      </trkpt>
      <trkpt lat="44.6643" lon="5.05192">
        <ele>860</ele>
        <time>2026-05-26T11:07:49.000Z</time>
      </trkpt>
      <trkpt lat="44.6643" lon="5.05192">
        <ele>860</ele>
        <time>2026-05-26T11:07:50.000Z</time>
      </trkpt>
      <trkpt lat="44.6643" lon="5.05192">
        <ele>860</ele>
        <time>2026-05-26T11:07:51.000Z</time>
      </trkpt>
      <trkpt lat="44.6643" lon="5.05192">
        <ele>860</ele>
        <time>2026-05-26T11:07:52.000Z</time>
      </trkpt>
      <trkpt lat="44.6643" lon="5.05192">
        <ele>860</ele>
        <time>2026-05-26T11:07:53.000Z</time>
      </trkpt>
      <trkpt lat="44.6643" lon="5.05192">
        <ele>860</ele>
        <time>2026-05-26T11:07:54.000Z</time>
      </trkpt>
      <trkpt lat="44.6643" lon="5.05192">
        <ele>860</ele>
        <time>2026-05-26T11:07:55.000Z</time>
      </trkpt>
      <trkpt lat="44.6643" lon="5.05192">
        <ele>860</ele>
        <time>2026-05-26T11:07:56.000Z</time>
      </trkpt>
      <trkpt lat="44.6643" lon="5.05192">
        <ele>860</ele>
        <time>2026-05-26T11:07:57.000Z</time>
      </trkpt>
      <trkpt lat="44.6643" lon="5.05192">
        <ele>860</ele>
        <time>2026-05-26T11:07:58.000Z</time>
      </trkpt>
      <trkpt lat="44.6643" lon="5.05192">
        <ele>860</ele>
        <time>2026-05-26T11:07:59.000Z</time>
      </trkpt>
      <trkpt lat="44.6643" lon="5.05192">
        <ele>860</ele>
        <time>2026-05-26T11:08:00.000Z</time>
      </trkpt>
      <trkpt lat="44.6643" lon="5.05192">
        <ele>860</ele>
        <time>2026-05-26T11:08:01.000Z</time>
      </trkpt>
      <trkpt lat="44.6643" lon="5.05192">
        <ele>860</ele>
        <time>2026-05-26T11:08:02.000Z</time>
      </trkpt>
      <trkpt lat="44.6643" lon="5.05192">
        <ele>860</ele>
        <time>2026-05-26T11:08:03.000Z</time>
      </trkpt>
      <trkpt lat="44.6643" lon="5.05192">
        <ele>860</ele>
        <time>2026-05-26T11:08:04.000Z</time>
      </trkpt>
      <trkpt lat="44.6643" lon="5.05192">
        <ele>860</ele>
        <time>2026-05-26T11:08:05.000Z</time>
      </trkpt>
      <trkpt lat="44.6643" lon="5.05192">
        <ele>860</ele>
        <time>2026-05-26T11:08:06.000Z</time>
      </trkpt>
      <trkpt lat="44.6643" lon="5.05192">
        <ele>860</ele>
        <time>2026-05-26T11:08:07.000Z</time>
      </trkpt>
      <trkpt lat="44.6643" lon="5.05192">
        <ele>860</ele>
        <time>2026-05-26T11:08:08.000Z</time>
      </trkpt>
      <trkpt lat="44.6643" lon="5.05192">
        <ele>860</ele>
        <time>2026-05-26T11:08:09.000Z</time>
      </trkpt>
      <trkpt lat="44.6643" lon="5.05192">
        <ele>860</ele>
        <time>2026-05-26T11:08:10.000Z</time>
      </trkpt>
      <trkpt lat="44.6643" lon="5.05192">
        <ele>860</ele>
        <time>2026-05-26T11:08:11.000Z</time>
      </trkpt>
      <trkpt lat="44.6643" lon="5.05192">
        <ele>860</ele>
        <time>2026-05-26T11:08:12.000Z</time>
      </trkpt>
      <trkpt lat="44.6643" lon="5.05192">
        <ele>860</ele>
        <time>2026-05-26T11:08:13.000Z</time>
      </trkpt>
      <trkpt lat="44.6643" lon="5.05192">
        <ele>860</ele>
        <time>2026-05-26T11:08:14.000Z</time>
      </trkpt>
      <trkpt lat="44.6643" lon="5.05192">
        <ele>860</ele>
        <time>2026-05-26T11:08:15.000Z</time>
      </trkpt>
      <trkpt lat="44.6643" lon="5.05192">
        <ele>860</ele>
        <time>2026-05-26T11:08:16.000Z</time>
      </trkpt>
      <trkpt lat="44.6643" lon="5.05192">
        <ele>860</ele>
        <time>2026-05-26T11:08:17.000Z</time>
      </trkpt>
      <trkpt lat="44.6643" lon="5.05192">
        <ele>860</ele>
        <time>2026-05-26T11:08:18.000Z</time>
      </trkpt>
      <trkpt lat="44.6643" lon="5.05192">
        <ele>860</ele>
        <time>2026-05-26T11:08:19.000Z</time>
      </trkpt>
      <trkpt lat="44.6643" lon="5.05192">
        <ele>860</ele>
        <time>2026-05-26T11:08:20.000Z</time>
      </trkpt>
      <trkpt lat="44.6643" lon="5.05192">
        <ele>860</ele>
        <time>2026-05-26T11:08:21.000Z</time>
      </trkpt>
      <trkpt lat="44.6643" lon="5.05192">
        <ele>860</ele>
        <time>2026-05-26T11:08:22.000Z</time>
      </trkpt>
      <trkpt lat="44.6643" lon="5.05192">
        <ele>860</ele>
        <time>2026-05-26T11:08:23.000Z</time>
      </trkpt>
      <trkpt lat="44.6643" lon="5.05192">
        <ele>860</ele>
        <time>2026-05-26T11:08:24.000Z</time>
      </trkpt>
      <trkpt lat="44.6643" lon="5.05192">
        <ele>860</ele>
        <time>2026-05-26T11:08:25.000Z</time>
      </trkpt>
      <trkpt lat="44.6643" lon="5.05192">
        <ele>860</ele>
        <time>2026-05-26T11:08:26.000Z</time>
      </trkpt>
      <trkpt lat="44.6643" lon="5.05192">
        <ele>860</ele>
        <time>2026-05-26T11:08:27.000Z</time>
      </trkpt>
      <trkpt lat="44.6643" lon="5.05192">
        <ele>860</ele>
        <time>2026-05-26T11:08:28.000Z</time>
      </trkpt>
      <trkpt lat="44.6643" lon="5.05192">
        <ele>860</ele>
        <time>2026-05-26T11:08:29.000Z</time>
      </trkpt>
      <trkpt lat="44.6643" lon="5.05192">
        <ele>860</ele>
        <time>2026-05-26T11:08:30.000Z</time>
      </trkpt>
      <trkpt lat="44.6643" lon="5.05192">
        <ele>860</ele>
        <time>2026-05-26T11:08:31.000Z</time>
      </trkpt>
      <trkpt lat="44.6643" lon="5.05192">
        <ele>860</ele>
        <time>2026-05-26T11:08:32.000Z</time>
      </trkpt>
      <trkpt lat="44.6643" lon="5.05192">
        <ele>860</ele>
        <time>2026-05-26T11:08:33.000Z</time>
      </trkpt>
      <trkpt lat="44.6643" lon="5.05192">
        <ele>860</ele>
        <time>2026-05-26T11:08:34.000Z</time>
      </trkpt>
      <trkpt lat="44.6643" lon="5.05192">
        <ele>860</ele>
        <time>2026-05-26T11:08:35.000Z</time>
      </trkpt>
      <trkpt lat="44.6643" lon="5.05192">
        <ele>860</ele>
        <time>2026-05-26T11:08:36.000Z</time>
      </trkpt>
      <trkpt lat="44.6643" lon="5.05192">
        <ele>860</ele>
        <time>2026-05-26T11:08:37.000Z</time>
      </trkpt>
      <trkpt lat="44.6643" lon="5.05192">
        <ele>860</ele>
        <time>2026-05-26T11:08:38.000Z</time>
      </trkpt>
      <trkpt lat="44.6643" lon="5.05192">
        <ele>860</ele>
        <time>2026-05-26T11:08:39.000Z</time>
      </trkpt>
      <trkpt lat="44.6643" lon="5.05192">
        <ele>860</ele>
        <time>2026-05-26T11:08:40.000Z</time>
      </trkpt>
      <trkpt lat="44.6643" lon="5.05192">
        <ele>860</ele>
        <time>2026-05-26T11:08:41.000Z</time>
      </trkpt>
      <trkpt lat="44.6643" lon="5.05192">
        <ele>860</ele>
        <time>2026-05-26T11:08:42.000Z</time>
      </trkpt>
      <trkpt lat="44.6643" lon="5.05192">
        <ele>860</ele>
        <time>2026-05-26T11:08:43.000Z</time>
      </trkpt>
      <trkpt lat="44.6643" lon="5.05192">
        <ele>860</ele>
        <time>2026-05-26T11:08:44.000Z</time>
      </trkpt>
      <trkpt lat="44.6643" lon="5.05192">
        <ele>860</ele>
        <time>2026-05-26T11:08:45.000Z</time>
      </trkpt>
      <trkpt lat="44.6643" lon="5.05192">
        <ele>860</ele>
        <time>2026-05-26T11:08:46.000Z</time>
      </trkpt>
      <trkpt lat="44.6643" lon="5.05192">
        <ele>860</ele>
        <time>2026-05-26T11:08:47.000Z</time>
      </trkpt>
      <trkpt lat="44.6643" lon="5.05192">
        <ele>860</ele>
        <time>2026-05-26T11:08:48.000Z</time>
      </trkpt>
      <trkpt lat="44.6643" lon="5.05192">
        <ele>860</ele>
        <time>2026-05-26T11:08:49.000Z</time>
      </trkpt>
      <trkpt lat="44.6643" lon="5.05192">
        <ele>860</ele>
        <time>2026-05-26T11:08:50.000Z</time>
      </trkpt>
      <trkpt lat="44.6643" lon="5.05192">
        <ele>860</ele>
        <time>2026-05-26T11:08:51.000Z</time>
      </trkpt>
      <trkpt lat="44.6643" lon="5.05192">
        <ele>860</ele>
        <time>2026-05-26T11:08:52.000Z</time>
      </trkpt>
      <trkpt lat="44.6643" lon="5.05192">
        <ele>860</ele>
        <time>2026-05-26T11:08:53.000Z</time>
      </trkpt>
      <trkpt lat="44.6643" lon="5.05192">
        <ele>860</ele>
        <time>2026-05-26T11:08:54.000Z</time>
      </trkpt>
      <trkpt lat="44.6643" lon="5.05192">
        <ele>860</ele>
        <time>2026-05-26T11:08:55.000Z</time>
      </trkpt>
      <trkpt lat="44.6643" lon="5.05192">
        <ele>860</ele>
        <time>2026-05-26T11:08:56.000Z</time>
      </trkpt>
      <trkpt lat="44.6643" lon="5.05192">
        <ele>860</ele>
        <time>2026-05-26T11:08:57.000Z</time>
      </trkpt>
      <trkpt lat="44.6643" lon="5.05192">
        <ele>860</ele>
        <time>2026-05-26T11:08:58.000Z</time>
      </trkpt>
      <trkpt lat="44.6643" lon="5.05192">
        <ele>860</ele>
        <time>2026-05-26T11:08:59.000Z</time>
      </trkpt>
      <trkpt lat="44.6643" lon="5.05192">
        <ele>860</ele>
        <time>2026-05-26T11:09:00.000Z</time>
      </trkpt>
      <trkpt lat="44.6643" lon="5.05192">
        <ele>860</ele>
        <time>2026-05-26T11:09:01.000Z</time>
      </trkpt>
      <trkpt lat="44.6643" lon="5.05192">
        <ele>860</ele>
        <time>2026-05-26T11:09:02.000Z</time>
      </trkpt>
      <trkpt lat="44.6643" lon="5.05192">
        <ele>860</ele>
        <time>2026-05-26T11:09:03.000Z</time>
      </trkpt>
      <trkpt lat="44.6643" lon="5.05192">
        <ele>860</ele>
        <time>2026-05-26T11:09:04.000Z</time>
      </trkpt>
      <trkpt lat="44.6643" lon="5.05192">
        <ele>860</ele>
        <time>2026-05-26T11:09:05.000Z</time>
      </trkpt>
      <trkpt lat="44.6643" lon="5.05192">
        <ele>860</ele>
        <time>2026-05-26T11:09:06.000Z</time>
      </trkpt>
      <trkpt lat="44.6643" lon="5.05192">
        <ele>860</ele>
        <time>2026-05-26T11:09:07.000Z</time>
      </trkpt>
      <trkpt lat="44.6643" lon="5.05192">
        <ele>860</ele>
        <time>2026-05-26T11:09:08.000Z</time>
      </trkpt>
      <trkpt lat="44.6643" lon="5.05192">
        <ele>860</ele>
        <time>2026-05-26T11:09:09.000Z</time>
      </trkpt>
      <trkpt lat="44.6643" lon="5.05192">
        <ele>860</ele>
        <time>2026-05-26T11:09:10.000Z</time>
      </trkpt>
      <trkpt lat="44.6643" lon="5.05192">
        <ele>860</ele>
        <time>2026-05-26T11:09:11.000Z</time>
      </trkpt>
      <trkpt lat="44.6643" lon="5.05192">
        <ele>860</ele>
        <time>2026-05-26T11:09:12.000Z</time>
      </trkpt>
      <trkpt lat="44.6643" lon="5.05192">
        <ele>860</ele>
        <time>2026-05-26T11:09:13.000Z</time>
      </trkpt>
      <trkpt lat="44.6643" lon="5.05192">
        <ele>860</ele>
        <time>2026-05-26T11:09:14.000Z</time>
      </trkpt>
      <trkpt lat="44.6643" lon="5.05192">
        <ele>860</ele>
        <time>2026-05-26T11:09:15.000Z</time>
      </trkpt>
      <trkpt lat="44.6643" lon="5.05192">
        <ele>860</ele>
        <time>2026-05-26T11:09:16.000Z</time>
      </trkpt>
      <trkpt lat="44.6643" lon="5.05192">
        <ele>860</ele>
        <time>2026-05-26T11:09:17.000Z</time>
      </trkpt>
      <trkpt lat="44.6643" lon="5.05192">
        <ele>860</ele>
        <time>2026-05-26T11:09:18.000Z</time>
      </trkpt>
      <trkpt lat="44.6643" lon="5.05192">
        <ele>860</ele>
        <time>2026-05-26T11:09:19.000Z</time>
      </trkpt>
      <trkpt lat="44.6643" lon="5.05192">
        <ele>860</ele>
        <time>2026-05-26T11:09:20.000Z</time>
      </trkpt>
      <trkpt lat="44.6643" lon="5.05192">
        <ele>860</ele>
        <time>2026-05-26T11:09:21.000Z</time>
      </trkpt>
      <trkpt lat="44.6643" lon="5.05192">
        <ele>860</ele>
        <time>2026-05-26T11:09:22.000Z</time>
      </trkpt>
      <trkpt lat="44.6643" lon="5.05192">
        <ele>860</ele>
        <time>2026-05-26T11:09:23.000Z</time>
      </trkpt>
      <trkpt lat="44.6643" lon="5.05192">
        <ele>860</ele>
        <time>2026-05-26T11:09:24.000Z</time>
      </trkpt>
      <trkpt lat="44.6643" lon="5.05192">
        <ele>860</ele>
        <time>2026-05-26T11:09:25.000Z</time>
      </trkpt>
      <trkpt lat="44.6643" lon="5.05192">
        <ele>860</ele>
        <time>2026-05-26T11:09:26.000Z</time>
      </trkpt>
      <trkpt lat="44.6643" lon="5.05192">
        <ele>860</ele>
        <time>2026-05-26T11:09:27.000Z</time>
      </trkpt>
      <trkpt lat="44.6643" lon="5.05192">
        <ele>860</ele>
        <time>2026-05-26T11:09:28.000Z</time>
      </trkpt>
      <trkpt lat="44.6643" lon="5.05192">
        <ele>860</ele>
        <time>2026-05-26T11:09:29.000Z</time>
      </trkpt>
      <trkpt lat="44.6643" lon="5.05192">
        <ele>860</ele>
        <time>2026-05-26T11:09:30.000Z</time>
      </trkpt>
      <trkpt lat="44.6643" lon="5.05192">
        <ele>860</ele>
        <time>2026-05-26T11:09:31.000Z</time>
      </trkpt>
      <trkpt lat="44.6643" lon="5.05192">
        <ele>860</ele>
        <time>2026-05-26T11:09:32.000Z</time>
      </trkpt>
      <trkpt lat="44.6643" lon="5.05192">
        <ele>860</ele>
        <time>2026-05-26T11:09:33.000Z</time>
      </trkpt>
      <trkpt lat="44.6643" lon="5.05192">
        <ele>860</ele>
        <time>2026-05-26T11:09:34.000Z</time>
      </trkpt>
      <trkpt lat="44.6643" lon="5.05192">
        <ele>860</ele>
        <time>2026-05-26T11:09:35.000Z</time>
      </trkpt>
      <trkpt lat="44.6643" lon="5.05192">
        <ele>860</ele>
        <time>2026-05-26T11:09:36.000Z</time>
      </trkpt>
      <trkpt lat="44.6643" lon="5.05192">
        <ele>860</ele>
        <time>2026-05-26T11:09:37.000Z</time>
      </trkpt>
      <trkpt lat="44.6643" lon="5.05192">
        <ele>860</ele>
        <time>2026-05-26T11:09:38.000Z</time>
      </trkpt>
      <trkpt lat="44.6643" lon="5.05192">
        <ele>860</ele>
        <time>2026-05-26T11:09:39.000Z</time>
      </trkpt>
      <trkpt lat="44.6643" lon="5.05192">
        <ele>860</ele>
        <time>2026-05-26T11:09:40.000Z</time>
      </trkpt>
      <trkpt lat="44.6643" lon="5.05192">
        <ele>860</ele>
        <time>2026-05-26T11:09:41.000Z</time>
      </trkpt>
      <trkpt lat="44.6643" lon="5.05192">
        <ele>860</ele>
        <time>2026-05-26T11:09:42.000Z</time>
      </trkpt>
      <trkpt lat="44.6643" lon="5.05192">
        <ele>860</ele>
        <time>2026-05-26T11:09:43.000Z</time>
      </trkpt>
      <trkpt lat="44.6643" lon="5.05192">
        <ele>860</ele>
        <time>2026-05-26T11:09:44.000Z</time>
      </trkpt>
      <trkpt lat="44.6643" lon="5.05192">
        <ele>860</ele>
        <time>2026-05-26T11:09:45.000Z</time>
      </trkpt>
      <trkpt lat="44.6643" lon="5.05192">
        <ele>860</ele>
        <time>2026-05-26T11:09:46.000Z</time>
      </trkpt>
      <trkpt lat="44.6643" lon="5.05192">
        <ele>860</ele>
        <time>2026-05-26T11:09:47.000Z</time>
      </trkpt>
      <trkpt lat="44.6643" lon="5.05192">
        <ele>860</ele>
        <time>2026-05-26T11:09:48.000Z</time>
      </trkpt>
      <trkpt lat="44.6643" lon="5.05192">
        <ele>860</ele>
        <time>2026-05-26T11:09:49.000Z</time>
      </trkpt>
      <trkpt lat="44.6643" lon="5.05192">
        <ele>860</ele>
        <time>2026-05-26T11:09:50.000Z</time>
      </trkpt>
      <trkpt lat="44.6643" lon="5.05192">
        <ele>860</ele>
        <time>2026-05-26T11:09:51.000Z</time>
      </trkpt>
      <trkpt lat="44.6643" lon="5.05192">
        <ele>860</ele>
        <time>2026-05-26T11:09:52.000Z</time>
      </trkpt>
      <trkpt lat="44.6643" lon="5.05192">
        <ele>860</ele>
        <time>2026-05-26T11:09:53.000Z</time>
      </trkpt>
      <trkpt lat="44.6643" lon="5.05192">
        <ele>860</ele>
        <time>2026-05-26T11:09:54.000Z</time>
      </trkpt>
      <trkpt lat="44.6643" lon="5.05192">
        <ele>860</ele>
        <time>2026-05-26T11:09:55.000Z</time>
      </trkpt>
      <trkpt lat="44.6643" lon="5.05192">
        <ele>860</ele>
        <time>2026-05-26T11:09:56.000Z</time>
      </trkpt>
      <trkpt lat="44.6643" lon="5.05192">
        <ele>860</ele>
        <time>2026-05-26T11:09:57.000Z</time>
      </trkpt>
      <trkpt lat="44.6643" lon="5.05192">
        <ele>860</ele>
        <time>2026-05-26T11:09:58.000Z</time>
      </trkpt>
      <trkpt lat="44.6643" lon="5.05192">
        <ele>860</ele>
        <time>2026-05-26T11:09:59.000Z</time>
      </trkpt>
      <trkpt lat="44.6643" lon="5.05192">
        <ele>860</ele>
        <time>2026-05-26T11:10:00.000Z</time>
      </trkpt>
      <trkpt lat="44.6643" lon="5.05192">
        <ele>860</ele>
        <time>2026-05-26T11:10:01.000Z</time>
      </trkpt>
      <trkpt lat="44.6643" lon="5.05192">
        <ele>860</ele>
        <time>2026-05-26T11:10:02.000Z</time>
      </trkpt>
      <trkpt lat="44.6643" lon="5.05192">
        <ele>860</ele>
        <time>2026-05-26T11:10:03.000Z</time>
      </trkpt>
      <trkpt lat="44.6643" lon="5.05192">
        <ele>860</ele>
        <time>2026-05-26T11:10:04.000Z</time>
      </trkpt>
      <trkpt lat="44.6643" lon="5.05192">
        <ele>860</ele>
        <time>2026-05-26T11:10:05.000Z</time>
      </trkpt>
      <trkpt lat="44.6643" lon="5.05192">
        <ele>860</ele>
        <time>2026-05-26T11:10:06.000Z</time>
      </trkpt>
      <trkpt lat="44.6643" lon="5.05192">
        <ele>860</ele>
        <time>2026-05-26T11:10:07.000Z</time>
      </trkpt>
      <trkpt lat="44.6643" lon="5.05192">
        <ele>860</ele>
        <time>2026-05-26T11:10:08.000Z</time>
      </trkpt>
      <trkpt lat="44.6643" lon="5.05192">
        <ele>860</ele>
        <time>2026-05-26T11:10:09.000Z</time>
      </trkpt>
      <trkpt lat="44.6643" lon="5.05192">
        <ele>860</ele>
        <time>2026-05-26T11:10:10.000Z</time>
      </trkpt>
      <trkpt lat="44.6643" lon="5.05192">
        <ele>860</ele>
        <time>2026-05-26T11:10:11.000Z</time>
      </trkpt>
      <trkpt lat="44.6643" lon="5.05192">
        <ele>860</ele>
        <time>2026-05-26T11:10:12.000Z</time>
      </trkpt>
      <trkpt lat="44.6643" lon="5.05192">
        <ele>860</ele>
        <time>2026-05-26T11:10:13.000Z</time>
      </trkpt>
      <trkpt lat="44.6643" lon="5.05192">
        <ele>860</ele>
        <time>2026-05-26T11:10:14.000Z</time>
      </trkpt>
      <trkpt lat="44.6643" lon="5.05192">
        <ele>860</ele>
        <time>2026-05-26T11:10:15.000Z</time>
      </trkpt>
      <trkpt lat="44.6643" lon="5.05192">
        <ele>860</ele>
        <time>2026-05-26T11:10:16.000Z</time>
      </trkpt>
      <trkpt lat="44.6643" lon="5.05192">
        <ele>860</ele>
        <time>2026-05-26T11:10:17.000Z</time>
      </trkpt>
      <trkpt lat="44.6643" lon="5.05192">
        <ele>860</ele>
        <time>2026-05-26T11:10:18.000Z</time>
      </trkpt>
      <trkpt lat="44.6643" lon="5.05192">
        <ele>860</ele>
        <time>2026-05-26T11:10:19.000Z</time>
      </trkpt>
      <trkpt lat="44.6643" lon="5.05192">
        <ele>860</ele>
        <time>2026-05-26T11:10:20.000Z</time>
      </trkpt>
      <trkpt lat="44.6643" lon="5.05192">
        <ele>860</ele>
        <time>2026-05-26T11:10:21.000Z</time>
      </trkpt>
      <trkpt lat="44.6643" lon="5.05192">
        <ele>860</ele>
        <time>2026-05-26T11:10:22.000Z</time>
      </trkpt>
      <trkpt lat="44.6643" lon="5.05192">
        <ele>860</ele>
        <time>2026-05-26T11:10:23.000Z</time>
      </trkpt>
      <trkpt lat="44.6643" lon="5.05192">
        <ele>860</ele>
        <time>2026-05-26T11:10:24.000Z</time>
      </trkpt>
      <trkpt lat="44.6643" lon="5.05192">
        <ele>860</ele>
        <time>2026-05-26T11:10:25.000Z</time>
      </trkpt>
      <trkpt lat="44.6643" lon="5.05192">
        <ele>860</ele>
        <time>2026-05-26T11:10:26.000Z</time>
      </trkpt>
      <trkpt lat="44.6643" lon="5.05192">
        <ele>860</ele>
        <time>2026-05-26T11:10:27.000Z</time>
      </trkpt>
      <trkpt lat="44.6643" lon="5.05192">
        <ele>860</ele>
        <time>2026-05-26T11:10:28.000Z</time>
      </trkpt>
      <trkpt lat="44.6643" lon="5.05192">
        <ele>860</ele>
        <time>2026-05-26T11:10:29.000Z</time>
      </trkpt>
      <trkpt lat="44.6643" lon="5.05192">
        <ele>860</ele>
        <time>2026-05-26T11:10:30.000Z</time>
      </trkpt>
      <trkpt lat="44.6643" lon="5.05192">
        <ele>860</ele>
        <time>2026-05-26T11:10:31.000Z</time>
      </trkpt>
      <trkpt lat="44.6643" lon="5.05192">
        <ele>860</ele>
        <time>2026-05-26T11:10:32.000Z</time>
      </trkpt>
      <trkpt lat="44.6643" lon="5.05192">
        <ele>860</ele>
        <time>2026-05-26T11:10:33.000Z</time>
      </trkpt>
      <trkpt lat="44.6643" lon="5.05192">
        <ele>860</ele>
        <time>2026-05-26T11:10:34.000Z</time>
      </trkpt>
      <trkpt lat="44.6643" lon="5.05192">
        <ele>860</ele>
        <time>2026-05-26T11:10:35.000Z</time>
      </trkpt>
      <trkpt lat="44.6643" lon="5.05192">
        <ele>860</ele>
        <time>2026-05-26T11:10:36.000Z</time>
      </trkpt>
      <trkpt lat="44.6643" lon="5.05192">
        <ele>860</ele>
        <time>2026-05-26T11:10:37.000Z</time>
      </trkpt>
      <trkpt lat="44.6643" lon="5.05192">
        <ele>860</ele>
        <time>2026-05-26T11:10:38.000Z</time>
      </trkpt>
      <trkpt lat="44.6643" lon="5.05192">
        <ele>860</ele>
        <time>2026-05-26T11:10:39.000Z</time>
      </trkpt>
      <trkpt lat="44.6643" lon="5.05192">
        <ele>860</ele>
        <time>2026-05-26T11:10:40.000Z</time>
      </trkpt>
      <trkpt lat="44.6643" lon="5.05192">
        <ele>860</ele>
        <time>2026-05-26T11:10:41.000Z</time>
      </trkpt>
      <trkpt lat="44.6643" lon="5.05192">
        <ele>860</ele>
        <time>2026-05-26T11:10:42.000Z</time>
      </trkpt>
      <trkpt lat="44.6643" lon="5.05192">
        <ele>860</ele>
        <time>2026-05-26T11:10:43.000Z</time>
      </trkpt>
      <trkpt lat="44.6643" lon="5.05192">
        <ele>860</ele>
        <time>2026-05-26T11:10:44.000Z</time>
      </trkpt>
      <trkpt lat="44.6643" lon="5.05192">
        <ele>860</ele>
        <time>2026-05-26T11:10:45.000Z</time>
      </trkpt>
      <trkpt lat="44.6643" lon="5.05192">
        <ele>860</ele>
        <time>2026-05-26T11:10:46.000Z</time>
      </trkpt>
      <trkpt lat="44.6643" lon="5.05192">
        <ele>860</ele>
        <time>2026-05-26T11:10:47.000Z</time>
      </trkpt>
      <trkpt lat="44.6643" lon="5.05192">
        <ele>860</ele>
        <time>2026-05-26T11:10:48.000Z</time>
      </trkpt>
      <trkpt lat="44.6643" lon="5.05192">
        <ele>860</ele>
        <time>2026-05-26T11:10:49.000Z</time>
      </trkpt>
      <trkpt lat="44.6643" lon="5.05192">
        <ele>860</ele>
        <time>2026-05-26T11:10:50.000Z</time>
      </trkpt>
      <trkpt lat="44.6643" lon="5.05192">
        <ele>860</ele>
        <time>2026-05-26T11:10:51.000Z</time>
      </trkpt>
      <trkpt lat="44.6643" lon="5.05192">
        <ele>860</ele>
        <time>2026-05-26T11:10:52.000Z</time>
      </trkpt>
      <trkpt lat="44.6643" lon="5.05192">
        <ele>860</ele>
        <time>2026-05-26T11:10:53.000Z</time>
      </trkpt>
      <trkpt lat="44.6643" lon="5.05192">
        <ele>860</ele>
        <time>2026-05-26T11:10:54.000Z</time>
      </trkpt>
      <trkpt lat="44.6643" lon="5.05192">
        <ele>860</ele>
        <time>2026-05-26T11:10:55.000Z</time>
      </trkpt>
      <trkpt lat="44.6643" lon="5.05192">
        <ele>860</ele>
        <time>2026-05-26T11:10:56.000Z</time>
      </trkpt>
      <trkpt lat="44.6643" lon="5.05192">
        <ele>860</ele>
        <time>2026-05-26T11:10:57.000Z</time>
      </trkpt>
      <trkpt lat="44.6643" lon="5.05192">
        <ele>860</ele>
        <time>2026-05-26T11:10:58.000Z</time>
      </trkpt>
      <trkpt lat="44.6643" lon="5.05192">
        <ele>860</ele>
        <time>2026-05-26T11:10:59.000Z</time>
      </trkpt>
      <trkpt lat="44.6643" lon="5.05192">
        <ele>860</ele>
        <time>2026-05-26T11:11:00.000Z</time>
      </trkpt>
      <trkpt lat="44.6643" lon="5.05192">
        <ele>860</ele>
        <time>2026-05-26T11:11:01.000Z</time>
      </trkpt>
      <trkpt lat="44.6643" lon="5.05192">
        <ele>860</ele>
        <time>2026-05-26T11:11:02.000Z</time>
      </trkpt>
      <trkpt lat="44.6643" lon="5.05192">
        <ele>860</ele>
        <time>2026-05-26T11:11:03.000Z</time>
      </trkpt>
      <trkpt lat="44.6643" lon="5.05192">
        <ele>860</ele>
        <time>2026-05-26T11:11:04.000Z</time>
      </trkpt>
      <trkpt lat="44.6643" lon="5.05192">
        <ele>860</ele>
        <time>2026-05-26T11:11:05.000Z</time>
      </trkpt>
      <trkpt lat="44.6643" lon="5.05192">
        <ele>860</ele>
        <time>2026-05-26T11:11:06.000Z</time>
      </trkpt>
      <trkpt lat="44.6643" lon="5.05192">
        <ele>860</ele>
        <time>2026-05-26T11:11:07.000Z</time>
      </trkpt>
      <trkpt lat="44.6643" lon="5.05192">
        <ele>860</ele>
        <time>2026-05-26T11:11:08.000Z</time>
      </trkpt>
      <trkpt lat="44.6643" lon="5.05192">
        <ele>860</ele>
        <time>2026-05-26T11:11:09.000Z</time>
      </trkpt>
      <trkpt lat="44.6643" lon="5.05192">
        <ele>860</ele>
        <time>2026-05-26T11:11:10.000Z</time>
      </trkpt>
      <trkpt lat="44.6643" lon="5.05192">
        <ele>860</ele>
        <time>2026-05-26T11:11:11.000Z</time>
      </trkpt>
      <trkpt lat="44.6643" lon="5.05192">
        <ele>860</ele>
        <time>2026-05-26T11:11:12.000Z</time>
      </trkpt>
      <trkpt lat="44.6643" lon="5.05192">
        <ele>860</ele>
        <time>2026-05-26T11:11:13.000Z</time>
      </trkpt>
      <trkpt lat="44.6643" lon="5.05192">
        <ele>860</ele>
        <time>2026-05-26T11:11:14.000Z</time>
      </trkpt>
      <trkpt lat="44.6643" lon="5.05192">
        <ele>860</ele>
        <time>2026-05-26T11:11:15.000Z</time>
      </trkpt>
      <trkpt lat="44.6643" lon="5.05192">
        <ele>860</ele>
        <time>2026-05-26T11:11:16.000Z</time>
      </trkpt>
      <trkpt lat="44.6643" lon="5.05192">
        <ele>860</ele>
        <time>2026-05-26T11:11:17.000Z</time>
      </trkpt>
      <trkpt lat="44.6643" lon="5.05192">
        <ele>860</ele>
        <time>2026-05-26T11:11:18.000Z</time>
      </trkpt>
      <trkpt lat="44.6643" lon="5.05192">
        <ele>860</ele>
        <time>2026-05-26T11:11:19.000Z</time>
      </trkpt>
      <trkpt lat="44.6643" lon="5.05192">
        <ele>860</ele>
        <time>2026-05-26T11:11:20.000Z</time>
      </trkpt>
      <trkpt lat="44.6643" lon="5.05192">
        <ele>860</ele>
        <time>2026-05-26T11:11:21.000Z</time>
      </trkpt>
      <trkpt lat="44.6643" lon="5.05192">
        <ele>860</ele>
        <time>2026-05-26T11:11:22.000Z</time>
      </trkpt>
      <trkpt lat="44.6643" lon="5.05192">
        <ele>860</ele>
        <time>2026-05-26T11:11:23.000Z</time>
      </trkpt>
      <trkpt lat="44.6643" lon="5.05192">
        <ele>860</ele>
        <time>2026-05-26T11:11:24.000Z</time>
      </trkpt>
      <trkpt lat="44.6643" lon="5.05192">
        <ele>860</ele>
        <time>2026-05-26T11:11:25.000Z</time>
      </trkpt>
      <trkpt lat="44.6643" lon="5.05192">
        <ele>860</ele>
        <time>2026-05-26T11:11:26.000Z</time>
      </trkpt>
      <trkpt lat="44.6643" lon="5.05192">
        <ele>860</ele>
        <time>2026-05-26T11:11:27.000Z</time>
      </trkpt>
      <trkpt lat="44.6643" lon="5.05192">
        <ele>860</ele>
        <time>2026-05-26T11:11:28.000Z</time>
      </trkpt>
      <trkpt lat="44.6643" lon="5.05192">
        <ele>860</ele>
        <time>2026-05-26T11:11:29.000Z</time>
      </trkpt>
      <trkpt lat="44.6643" lon="5.05192">
        <ele>860</ele>
        <time>2026-05-26T11:11:30.000Z</time>
      </trkpt>
      <trkpt lat="44.6643" lon="5.05192">
        <ele>860</ele>
        <time>2026-05-26T11:11:31.000Z</time>
      </trkpt>
      <trkpt lat="44.6643" lon="5.05192">
        <ele>860</ele>
        <time>2026-05-26T11:11:32.000Z</time>
      </trkpt>
      <trkpt lat="44.6643" lon="5.05192">
        <ele>860</ele>
        <time>2026-05-26T11:11:33.000Z</time>
      </trkpt>
      <trkpt lat="44.6643" lon="5.05192">
        <ele>860</ele>
        <time>2026-05-26T11:11:34.000Z</time>
      </trkpt>
      <trkpt lat="44.6643" lon="5.05192">
        <ele>860</ele>
        <time>2026-05-26T11:11:35.000Z</time>
      </trkpt>
      <trkpt lat="44.6643" lon="5.05192">
        <ele>860</ele>
        <time>2026-05-26T11:11:36.000Z</time>
      </trkpt>
      <trkpt lat="44.6643" lon="5.05192">
        <ele>860</ele>
        <time>2026-05-26T11:11:37.000Z</time>
      </trkpt>
      <trkpt lat="44.6643" lon="5.05192">
        <ele>860</ele>
        <time>2026-05-26T11:11:38.000Z</time>
      </trkpt>
      <trkpt lat="44.6643" lon="5.05192">
        <ele>860</ele>
        <time>2026-05-26T11:11:39.000Z</time>
      </trkpt>
      <trkpt lat="44.6643" lon="5.05192">
        <ele>860</ele>
        <time>2026-05-26T11:11:40.000Z</time>
      </trkpt>
      <trkpt lat="44.6643" lon="5.05192">
        <ele>860</ele>
        <time>2026-05-26T11:11:41.000Z</time>
      </trkpt>
      <trkpt lat="44.6643" lon="5.05192">
        <ele>860</ele>
        <time>2026-05-26T11:11:42.000Z</time>
      </trkpt>
      <trkpt lat="44.6643" lon="5.05192">
        <ele>860</ele>
        <time>2026-05-26T11:11:43.000Z</time>
      </trkpt>
      <trkpt lat="44.6643" lon="5.05192">
        <ele>860</ele>
        <time>2026-05-26T11:11:44.000Z</time>
      </trkpt>
      <trkpt lat="44.6643" lon="5.05192">
        <ele>860</ele>
        <time>2026-05-26T11:11:45.000Z</time>
      </trkpt>
      <trkpt lat="44.6643" lon="5.05192">
        <ele>860</ele>
        <time>2026-05-26T11:11:46.000Z</time>
      </trkpt>
      <trkpt lat="44.6643" lon="5.05192">
        <ele>860</ele>
        <time>2026-05-26T11:11:47.000Z</time>
      </trkpt>
      <trkpt lat="44.6643" lon="5.05192">
        <ele>860</ele>
        <time>2026-05-26T11:11:48.000Z</time>
      </trkpt>
      <trkpt lat="44.6643" lon="5.05192">
        <ele>860</ele>
        <time>2026-05-26T11:11:49.000Z</time>
      </trkpt>
      <trkpt lat="44.6643" lon="5.05192">
        <ele>860</ele>
        <time>2026-05-26T11:11:50.000Z</time>
      </trkpt>
      <trkpt lat="44.6643" lon="5.05192">
        <ele>860</ele>
        <time>2026-05-26T11:11:51.000Z</time>
      </trkpt>
      <trkpt lat="44.6643" lon="5.05192">
        <ele>860</ele>
        <time>2026-05-26T11:11:52.000Z</time>
      </trkpt>
      <trkpt lat="44.6643" lon="5.05192">
        <ele>860</ele>
        <time>2026-05-26T11:11:53.000Z</time>
      </trkpt>
      <trkpt lat="44.6643" lon="5.05192">
        <ele>860</ele>
        <time>2026-05-26T11:11:54.000Z</time>
      </trkpt>
      <trkpt lat="44.6643" lon="5.05192">
        <ele>860</ele>
        <time>2026-05-26T11:11:55.000Z</time>
      </trkpt>
      <trkpt lat="44.6643" lon="5.05192">
        <ele>860</ele>
        <time>2026-05-26T11:11:56.000Z</time>
      </trkpt>
      <trkpt lat="44.6643" lon="5.05192">
        <ele>860</ele>
        <time>2026-05-26T11:11:57.000Z</time>
      </trkpt>
      <trkpt lat="44.6643" lon="5.05192">
        <ele>860</ele>
        <time>2026-05-26T11:11:58.000Z</time>
      </trkpt>
      <trkpt lat="44.6643" lon="5.05192">
        <ele>860</ele>
        <time>2026-05-26T11:11:59.000Z</time>
      </trkpt>
      <trkpt lat="44.6643" lon="5.05192">
        <ele>860</ele>
        <time>2026-05-26T11:12:00.000Z</time>
      </trkpt>
      <trkpt lat="44.6643" lon="5.05192">
        <ele>860</ele>
        <time>2026-05-26T11:12:01.000Z</time>
      </trkpt>
      <trkpt lat="44.6643" lon="5.05192">
        <ele>860</ele>
        <time>2026-05-26T11:12:02.000Z</time>
      </trkpt>
      <trkpt lat="44.6643" lon="5.05192">
        <ele>860</ele>
        <time>2026-05-26T11:12:03.000Z</time>
      </trkpt>
      <trkpt lat="44.6643" lon="5.05192">
        <ele>860</ele>
        <time>2026-05-26T11:12:04.000Z</time>
      </trkpt>
      <trkpt lat="44.6643" lon="5.05192">
        <ele>860</ele>
        <time>2026-05-26T11:12:05.000Z</time>
      </trkpt>
      <trkpt lat="44.6643" lon="5.05192">
        <ele>860</ele>
        <time>2026-05-26T11:12:06.000Z</time>
      </trkpt>
      <trkpt lat="44.6643" lon="5.05192">
        <ele>860</ele>
        <time>2026-05-26T11:12:07.000Z</time>
      </trkpt>
      <trkpt lat="44.6643" lon="5.05192">
        <ele>860</ele>
        <time>2026-05-26T11:12:08.000Z</time>
      </trkpt>
      <trkpt lat="44.6643" lon="5.05192">
        <ele>860</ele>
        <time>2026-05-26T11:12:09.000Z</time>
      </trkpt>
      <trkpt lat="44.6643" lon="5.05192">
        <ele>860</ele>
        <time>2026-05-26T11:12:10.000Z</time>
      </trkpt>
      <trkpt lat="44.6643" lon="5.05192">
        <ele>860</ele>
        <time>2026-05-26T11:12:11.000Z</time>
      </trkpt>
      <trkpt lat="44.6643" lon="5.05192">
        <ele>860</ele>
        <time>2026-05-26T11:12:12.000Z</time>
      </trkpt>
      <trkpt lat="44.6643" lon="5.05192">
        <ele>860</ele>
        <time>2026-05-26T11:12:13.000Z</time>
      </trkpt>
      <trkpt lat="44.6643" lon="5.05192">
        <ele>860</ele>
        <time>2026-05-26T11:12:14.000Z</time>
      </trkpt>
      <trkpt lat="44.6643" lon="5.05192">
        <ele>860</ele>
        <time>2026-05-26T11:12:15.000Z</time>
      </trkpt>
      <trkpt lat="44.6643" lon="5.05192">
        <ele>860</ele>
        <time>2026-05-26T11:12:16.000Z</time>
      </trkpt>
      <trkpt lat="44.66432" lon="5.0519">
        <ele>861</ele>
        <time>2026-05-26T11:12:17.000Z</time>
      </trkpt>
      <trkpt lat="44.66432" lon="5.0519">
        <ele>861</ele>
        <time>2026-05-26T11:12:18.000Z</time>
      </trkpt>
      <trkpt lat="44.66433" lon="5.0519">
        <ele>861</ele>
        <time>2026-05-26T11:12:19.000Z</time>
      </trkpt>
      <trkpt lat="44.66434" lon="5.05191">
        <ele>861</ele>
        <time>2026-05-26T11:12:20.000Z</time>
      </trkpt>
      <trkpt lat="44.66434" lon="5.05191">
        <ele>861</ele>
        <time>2026-05-26T11:12:21.000Z</time>
      </trkpt>
      <trkpt lat="44.66434" lon="5.05191">
        <ele>861</ele>
        <time>2026-05-26T11:12:22.000Z</time>
      </trkpt>
      <trkpt lat="44.66435" lon="5.05193">
        <ele>862</ele>
        <time>2026-05-26T11:12:23.000Z</time>
      </trkpt>
      <trkpt lat="44.66435" lon="5.05193">
        <ele>862</ele>
        <time>2026-05-26T11:12:24.000Z</time>
      </trkpt>
      <trkpt lat="44.66436" lon="5.05194">
        <ele>862</ele>
        <time>2026-05-26T11:12:25.000Z</time>
      </trkpt>
      <trkpt lat="44.66436" lon="5.05194">
        <ele>862</ele>
        <time>2026-05-26T11:12:26.000Z</time>
      </trkpt>
      <trkpt lat="44.66436" lon="5.05194">
        <ele>862</ele>
        <time>2026-05-26T11:12:27.000Z</time>
      </trkpt>
      <trkpt lat="44.66436" lon="5.05195">
        <ele>862</ele>
        <time>2026-05-26T11:12:28.000Z</time>
      </trkpt>
      <trkpt lat="44.66437" lon="5.05196">
        <ele>861</ele>
        <time>2026-05-26T11:12:29.000Z</time>
      </trkpt>
      <trkpt lat="44.66438" lon="5.05197">
        <ele>862</ele>
        <time>2026-05-26T11:12:30.000Z</time>
      </trkpt>
      <trkpt lat="44.66438" lon="5.05199">
        <ele>862</ele>
        <time>2026-05-26T11:12:31.000Z</time>
      </trkpt>
      <trkpt lat="44.66439" lon="5.052">
        <ele>862</ele>
        <time>2026-05-26T11:12:32.000Z</time>
      </trkpt>
      <trkpt lat="44.6644" lon="5.052">
        <ele>862</ele>
        <time>2026-05-26T11:12:33.000Z</time>
      </trkpt>
      <trkpt lat="44.66441" lon="5.05202">
        <ele>862</ele>
        <time>2026-05-26T11:12:34.000Z</time>
      </trkpt>
      <trkpt lat="44.66442" lon="5.05203">
        <ele>862</ele>
        <time>2026-05-26T11:12:35.000Z</time>
      </trkpt>
      <trkpt lat="44.66443" lon="5.05204">
        <ele>862</ele>
        <time>2026-05-26T11:12:36.000Z</time>
      </trkpt>
      <trkpt lat="44.66444" lon="5.05205">
        <ele>863</ele>
        <time>2026-05-26T11:12:37.000Z</time>
      </trkpt>
      <trkpt lat="44.66445" lon="5.05205">
        <ele>863</ele>
        <time>2026-05-26T11:12:38.000Z</time>
      </trkpt>
      <trkpt lat="44.66445" lon="5.05206">
        <ele>863</ele>
        <time>2026-05-26T11:12:39.000Z</time>
      </trkpt>
      <trkpt lat="44.66446" lon="5.05207">
        <ele>862</ele>
        <time>2026-05-26T11:12:40.000Z</time>
      </trkpt>
      <trkpt lat="44.66446" lon="5.05207">
        <ele>862</ele>
        <time>2026-05-26T11:12:41.000Z</time>
      </trkpt>
      <trkpt lat="44.66448" lon="5.05208">
        <ele>862</ele>
        <time>2026-05-26T11:12:42.000Z</time>
      </trkpt>
      <trkpt lat="44.66448" lon="5.0521">
        <ele>862</ele>
        <time>2026-05-26T11:12:43.000Z</time>
      </trkpt>
      <trkpt lat="44.66449" lon="5.05211">
        <ele>863</ele>
        <time>2026-05-26T11:12:44.000Z</time>
      </trkpt>
      <trkpt lat="44.66449" lon="5.05212">
        <ele>863</ele>
        <time>2026-05-26T11:12:45.000Z</time>
      </trkpt>
      <trkpt lat="44.66449" lon="5.05213">
        <ele>863</ele>
        <time>2026-05-26T11:12:46.000Z</time>
      </trkpt>
      <trkpt lat="44.6645" lon="5.05214">
        <ele>863</ele>
        <time>2026-05-26T11:12:47.000Z</time>
      </trkpt>
      <trkpt lat="44.6645" lon="5.05215">
        <ele>863</ele>
        <time>2026-05-26T11:12:48.000Z</time>
      </trkpt>
      <trkpt lat="44.6645" lon="5.05216">
        <ele>863</ele>
        <time>2026-05-26T11:12:49.000Z</time>
      </trkpt>
      <trkpt lat="44.6645" lon="5.05216">
        <ele>863</ele>
        <time>2026-05-26T11:12:50.000Z</time>
      </trkpt>
      <trkpt lat="44.6645" lon="5.05216">
        <ele>863</ele>
        <time>2026-05-26T11:12:51.000Z</time>
      </trkpt>
      <trkpt lat="44.66452" lon="5.05219">
        <ele>864</ele>
        <time>2026-05-26T11:12:52.000Z</time>
      </trkpt>
      <trkpt lat="44.66453" lon="5.0522">
        <ele>864</ele>
        <time>2026-05-26T11:12:53.000Z</time>
      </trkpt>
      <trkpt lat="44.66454" lon="5.0522">
        <ele>864</ele>
        <time>2026-05-26T11:12:54.000Z</time>
      </trkpt>
      <trkpt lat="44.66455" lon="5.05221">
        <ele>864</ele>
        <time>2026-05-26T11:12:55.000Z</time>
      </trkpt>
      <trkpt lat="44.66456" lon="5.05221">
        <ele>864</ele>
        <time>2026-05-26T11:12:56.000Z</time>
      </trkpt>
      <trkpt lat="44.66457" lon="5.05222">
        <ele>865</ele>
        <time>2026-05-26T11:12:57.000Z</time>
      </trkpt>
      <trkpt lat="44.66458" lon="5.05221">
        <ele>865</ele>
        <time>2026-05-26T11:12:58.000Z</time>
      </trkpt>
      <trkpt lat="44.66459" lon="5.05222">
        <ele>865</ele>
        <time>2026-05-26T11:12:59.000Z</time>
      </trkpt>
      <trkpt lat="44.6646" lon="5.05223">
        <ele>866</ele>
        <time>2026-05-26T11:13:00.000Z</time>
      </trkpt>
      <trkpt lat="44.66461" lon="5.05224">
        <ele>866</ele>
        <time>2026-05-26T11:13:01.000Z</time>
      </trkpt>
      <trkpt lat="44.66461" lon="5.05224">
        <ele>866</ele>
        <time>2026-05-26T11:13:02.000Z</time>
      </trkpt>
      <trkpt lat="44.66461" lon="5.05224">
        <ele>866</ele>
        <time>2026-05-26T11:13:03.000Z</time>
      </trkpt>
      <trkpt lat="44.66462" lon="5.05227">
        <ele>866</ele>
        <time>2026-05-26T11:13:04.000Z</time>
      </trkpt>
      <trkpt lat="44.66463" lon="5.05228">
        <ele>865</ele>
        <time>2026-05-26T11:13:05.000Z</time>
      </trkpt>
      <trkpt lat="44.66463" lon="5.05229">
        <ele>864</ele>
        <time>2026-05-26T11:13:06.000Z</time>
      </trkpt>
      <trkpt lat="44.66464" lon="5.0523">
        <ele>864</ele>
        <time>2026-05-26T11:13:07.000Z</time>
      </trkpt>
      <trkpt lat="44.66465" lon="5.05231">
        <ele>864</ele>
        <time>2026-05-26T11:13:08.000Z</time>
      </trkpt>
      <trkpt lat="44.66465" lon="5.05232">
        <ele>864</ele>
        <time>2026-05-26T11:13:09.000Z</time>
      </trkpt>
      <trkpt lat="44.66466" lon="5.05232">
        <ele>864</ele>
        <time>2026-05-26T11:13:10.000Z</time>
      </trkpt>
      <trkpt lat="44.66467" lon="5.05233">
        <ele>863</ele>
        <time>2026-05-26T11:13:11.000Z</time>
      </trkpt>
      <trkpt lat="44.66468" lon="5.05235">
        <ele>863</ele>
        <time>2026-05-26T11:13:12.000Z</time>
      </trkpt>
      <trkpt lat="44.66469" lon="5.05236">
        <ele>863</ele>
        <time>2026-05-26T11:13:13.000Z</time>
      </trkpt>
      <trkpt lat="44.66469" lon="5.05237">
        <ele>863</ele>
        <time>2026-05-26T11:13:14.000Z</time>
      </trkpt>
      <trkpt lat="44.6647" lon="5.05239">
        <ele>863</ele>
        <time>2026-05-26T11:13:15.000Z</time>
      </trkpt>
      <trkpt lat="44.6647" lon="5.0524">
        <ele>863</ele>
        <time>2026-05-26T11:13:16.000Z</time>
      </trkpt>
      <trkpt lat="44.6647" lon="5.05242">
        <ele>862</ele>
        <time>2026-05-26T11:13:17.000Z</time>
      </trkpt>
      <trkpt lat="44.66471" lon="5.05244">
        <ele>862</ele>
        <time>2026-05-26T11:13:18.000Z</time>
      </trkpt>
      <trkpt lat="44.66472" lon="5.05245">
        <ele>862</ele>
        <time>2026-05-26T11:13:19.000Z</time>
      </trkpt>
      <trkpt lat="44.66472" lon="5.05245">
        <ele>862</ele>
        <time>2026-05-26T11:13:20.000Z</time>
      </trkpt>
      <trkpt lat="44.66472" lon="5.05246">
        <ele>862</ele>
        <time>2026-05-26T11:13:21.000Z</time>
      </trkpt>
      <trkpt lat="44.66472" lon="5.05246">
        <ele>863</ele>
        <time>2026-05-26T11:13:22.000Z</time>
      </trkpt>
      <trkpt lat="44.66472" lon="5.05246">
        <ele>863</ele>
        <time>2026-05-26T11:13:23.000Z</time>
      </trkpt>
      <trkpt lat="44.66472" lon="5.05246">
        <ele>863</ele>
        <time>2026-05-26T11:13:24.000Z</time>
      </trkpt>
      <trkpt lat="44.66472" lon="5.05246">
        <ele>863</ele>
        <time>2026-05-26T11:13:25.000Z</time>
      </trkpt>
      <trkpt lat="44.66472" lon="5.05248">
        <ele>864</ele>
        <time>2026-05-26T11:13:26.000Z</time>
      </trkpt>
      <trkpt lat="44.66472" lon="5.05248">
        <ele>864</ele>
        <time>2026-05-26T11:13:27.000Z</time>
      </trkpt>
      <trkpt lat="44.66472" lon="5.05249">
        <ele>864</ele>
        <time>2026-05-26T11:13:28.000Z</time>
      </trkpt>
      <trkpt lat="44.66473" lon="5.0525">
        <ele>864</ele>
        <time>2026-05-26T11:13:29.000Z</time>
      </trkpt>
      <trkpt lat="44.66473" lon="5.0525">
        <ele>864</ele>
        <time>2026-05-26T11:13:30.000Z</time>
      </trkpt>
      <trkpt lat="44.66473" lon="5.0525">
        <ele>864</ele>
        <time>2026-05-26T11:13:31.000Z</time>
      </trkpt>
      <trkpt lat="44.66472" lon="5.05252">
        <ele>864</ele>
        <time>2026-05-26T11:13:32.000Z</time>
      </trkpt>
      <trkpt lat="44.66472" lon="5.05253">
        <ele>865</ele>
        <time>2026-05-26T11:13:33.000Z</time>
      </trkpt>
      <trkpt lat="44.66473" lon="5.05255">
        <ele>864</ele>
        <time>2026-05-26T11:13:34.000Z</time>
      </trkpt>
      <trkpt lat="44.66474" lon="5.05257">
        <ele>865</ele>
        <time>2026-05-26T11:13:35.000Z</time>
      </trkpt>
      <trkpt lat="44.66475" lon="5.0526">
        <ele>865</ele>
        <time>2026-05-26T11:13:36.000Z</time>
      </trkpt>
      <trkpt lat="44.66475" lon="5.05263">
        <ele>865</ele>
        <time>2026-05-26T11:13:37.000Z</time>
      </trkpt>
      <trkpt lat="44.66475" lon="5.05263">
        <ele>865</ele>
        <time>2026-05-26T11:13:38.000Z</time>
      </trkpt>
      <trkpt lat="44.66476" lon="5.05264">
        <ele>865</ele>
        <time>2026-05-26T11:13:39.000Z</time>
      </trkpt>
      <trkpt lat="44.66476" lon="5.05264">
        <ele>865</ele>
        <time>2026-05-26T11:13:40.000Z</time>
      </trkpt>
      <trkpt lat="44.66476" lon="5.05264">
        <ele>865</ele>
        <time>2026-05-26T11:13:41.000Z</time>
      </trkpt>
      <trkpt lat="44.66476" lon="5.05264">
        <ele>865</ele>
        <time>2026-05-26T11:13:42.000Z</time>
      </trkpt>
      <trkpt lat="44.66479" lon="5.05268">
        <ele>863</ele>
        <time>2026-05-26T11:13:43.000Z</time>
      </trkpt>
      <trkpt lat="44.6648" lon="5.05269">
        <ele>863</ele>
        <time>2026-05-26T11:13:44.000Z</time>
      </trkpt>
      <trkpt lat="44.66481" lon="5.0527">
        <ele>864</ele>
        <time>2026-05-26T11:13:45.000Z</time>
      </trkpt>
      <trkpt lat="44.66483" lon="5.05272">
        <ele>863</ele>
        <time>2026-05-26T11:13:46.000Z</time>
      </trkpt>
      <trkpt lat="44.66483" lon="5.05272">
        <ele>864</ele>
        <time>2026-05-26T11:13:47.000Z</time>
      </trkpt>
      <trkpt lat="44.66484" lon="5.05273">
        <ele>864</ele>
        <time>2026-05-26T11:13:48.000Z</time>
      </trkpt>
      <trkpt lat="44.66484" lon="5.05274">
        <ele>865</ele>
        <time>2026-05-26T11:13:49.000Z</time>
      </trkpt>
      <trkpt lat="44.66484" lon="5.05274">
        <ele>865</ele>
        <time>2026-05-26T11:13:50.000Z</time>
      </trkpt>
      <trkpt lat="44.66484" lon="5.05274">
        <ele>865</ele>
        <time>2026-05-26T11:13:51.000Z</time>
      </trkpt>
      <trkpt lat="44.66484" lon="5.05274">
        <ele>865</ele>
        <time>2026-05-26T11:13:52.000Z</time>
      </trkpt>
      <trkpt lat="44.66484" lon="5.05274">
        <ele>865</ele>
        <time>2026-05-26T11:13:53.000Z</time>
      </trkpt>
      <trkpt lat="44.66483" lon="5.05275">
        <ele>866</ele>
        <time>2026-05-26T11:13:54.000Z</time>
      </trkpt>
      <trkpt lat="44.66483" lon="5.05277">
        <ele>866</ele>
        <time>2026-05-26T11:13:55.000Z</time>
      </trkpt>
      <trkpt lat="44.66483" lon="5.05279">
        <ele>866</ele>
        <time>2026-05-26T11:13:56.000Z</time>
      </trkpt>
      <trkpt lat="44.66483" lon="5.05281">
        <ele>866</ele>
        <time>2026-05-26T11:13:57.000Z</time>
      </trkpt>
      <trkpt lat="44.66483" lon="5.05281">
        <ele>866</ele>
        <time>2026-05-26T11:13:58.000Z</time>
      </trkpt>
      <trkpt lat="44.66483" lon="5.05281">
        <ele>866</ele>
        <time>2026-05-26T11:13:59.000Z</time>
      </trkpt>
      <trkpt lat="44.66484" lon="5.05285">
        <ele>866</ele>
        <time>2026-05-26T11:14:00.000Z</time>
      </trkpt>
      <trkpt lat="44.66484" lon="5.05287">
        <ele>867</ele>
        <time>2026-05-26T11:14:01.000Z</time>
      </trkpt>
      <trkpt lat="44.66485" lon="5.05288">
        <ele>867</ele>
        <time>2026-05-26T11:14:02.000Z</time>
      </trkpt>
      <trkpt lat="44.66485" lon="5.0529">
        <ele>867</ele>
        <time>2026-05-26T11:14:03.000Z</time>
      </trkpt>
      <trkpt lat="44.66486" lon="5.05292">
        <ele>867</ele>
        <time>2026-05-26T11:14:04.000Z</time>
      </trkpt>
      <trkpt lat="44.66487" lon="5.05293">
        <ele>866</ele>
        <time>2026-05-26T11:14:05.000Z</time>
      </trkpt>
      <trkpt lat="44.66488" lon="5.05294">
        <ele>866</ele>
        <time>2026-05-26T11:14:06.000Z</time>
      </trkpt>
      <trkpt lat="44.66489" lon="5.05296">
        <ele>866</ele>
        <time>2026-05-26T11:14:07.000Z</time>
      </trkpt>
      <trkpt lat="44.66489" lon="5.05297">
        <ele>866</ele>
        <time>2026-05-26T11:14:08.000Z</time>
      </trkpt>
      <trkpt lat="44.66489" lon="5.05297">
        <ele>866</ele>
        <time>2026-05-26T11:14:09.000Z</time>
      </trkpt>
      <trkpt lat="44.66489" lon="5.05297">
        <ele>866</ele>
        <time>2026-05-26T11:14:10.000Z</time>
      </trkpt>
      <trkpt lat="44.66491" lon="5.05298">
        <ele>867</ele>
        <time>2026-05-26T11:14:11.000Z</time>
      </trkpt>
      <trkpt lat="44.66492" lon="5.05298">
        <ele>867</ele>
        <time>2026-05-26T11:14:12.000Z</time>
      </trkpt>
      <trkpt lat="44.66493" lon="5.05299">
        <ele>867</ele>
        <time>2026-05-26T11:14:13.000Z</time>
      </trkpt>
      <trkpt lat="44.66495" lon="5.05299">
        <ele>867</ele>
        <time>2026-05-26T11:14:14.000Z</time>
      </trkpt>
      <trkpt lat="44.66495" lon="5.05299">
        <ele>867</ele>
        <time>2026-05-26T11:14:15.000Z</time>
      </trkpt>
      <trkpt lat="44.66495" lon="5.05299">
        <ele>867</ele>
        <time>2026-05-26T11:14:16.000Z</time>
      </trkpt>
      <trkpt lat="44.66497" lon="5.05302">
        <ele>866</ele>
        <time>2026-05-26T11:14:17.000Z</time>
      </trkpt>
      <trkpt lat="44.66498" lon="5.05302">
        <ele>867</ele>
        <time>2026-05-26T11:14:18.000Z</time>
      </trkpt>
      <trkpt lat="44.66498" lon="5.05304">
        <ele>867</ele>
        <time>2026-05-26T11:14:19.000Z</time>
      </trkpt>
      <trkpt lat="44.66499" lon="5.05305">
        <ele>867</ele>
        <time>2026-05-26T11:14:20.000Z</time>
      </trkpt>
      <trkpt lat="44.66499" lon="5.05305">
        <ele>867</ele>
        <time>2026-05-26T11:14:21.000Z</time>
      </trkpt>
      <trkpt lat="44.66499" lon="5.05305">
        <ele>867</ele>
        <time>2026-05-26T11:14:22.000Z</time>
      </trkpt>
      <trkpt lat="44.66499" lon="5.05305">
        <ele>867</ele>
        <time>2026-05-26T11:14:23.000Z</time>
      </trkpt>
      <trkpt lat="44.66499" lon="5.05308">
        <ele>867</ele>
        <time>2026-05-26T11:14:24.000Z</time>
      </trkpt>
      <trkpt lat="44.66499" lon="5.05309">
        <ele>866</ele>
        <time>2026-05-26T11:14:25.000Z</time>
      </trkpt>
      <trkpt lat="44.66498" lon="5.0531">
        <ele>866</ele>
        <time>2026-05-26T11:14:26.000Z</time>
      </trkpt>
      <trkpt lat="44.66498" lon="5.05312">
        <ele>865</ele>
        <time>2026-05-26T11:14:27.000Z</time>
      </trkpt>
      <trkpt lat="44.66498" lon="5.05312">
        <ele>865</ele>
        <time>2026-05-26T11:14:28.000Z</time>
      </trkpt>
      <trkpt lat="44.66498" lon="5.05312">
        <ele>865</ele>
        <time>2026-05-26T11:14:29.000Z</time>
      </trkpt>
      <trkpt lat="44.66497" lon="5.05316">
        <ele>867</ele>
        <time>2026-05-26T11:14:30.000Z</time>
      </trkpt>
      <trkpt lat="44.66497" lon="5.05317">
        <ele>867</ele>
        <time>2026-05-26T11:14:31.000Z</time>
      </trkpt>
      <trkpt lat="44.66497" lon="5.05318">
        <ele>866</ele>
        <time>2026-05-26T11:14:32.000Z</time>
      </trkpt>
      <trkpt lat="44.66497" lon="5.0532">
        <ele>865</ele>
        <time>2026-05-26T11:14:33.000Z</time>
      </trkpt>
      <trkpt lat="44.66497" lon="5.0532">
        <ele>865</ele>
        <time>2026-05-26T11:14:34.000Z</time>
      </trkpt>
      <trkpt lat="44.66497" lon="5.0532">
        <ele>865</ele>
        <time>2026-05-26T11:14:35.000Z</time>
      </trkpt>
      <trkpt lat="44.66496" lon="5.05323">
        <ele>864</ele>
        <time>2026-05-26T11:14:36.000Z</time>
      </trkpt>
      <trkpt lat="44.66496" lon="5.05324">
        <ele>864</ele>
        <time>2026-05-26T11:14:37.000Z</time>
      </trkpt>
      <trkpt lat="44.66495" lon="5.05326">
        <ele>864</ele>
        <time>2026-05-26T11:14:38.000Z</time>
      </trkpt>
      <trkpt lat="44.66495" lon="5.05328">
        <ele>864</ele>
        <time>2026-05-26T11:14:39.000Z</time>
      </trkpt>
      <trkpt lat="44.66495" lon="5.05328">
        <ele>864</ele>
        <time>2026-05-26T11:14:40.000Z</time>
      </trkpt>
      <trkpt lat="44.66495" lon="5.05328">
        <ele>864</ele>
        <time>2026-05-26T11:14:41.000Z</time>
      </trkpt>
      <trkpt lat="44.66495" lon="5.0533">
        <ele>865</ele>
        <time>2026-05-26T11:14:42.000Z</time>
      </trkpt>
      <trkpt lat="44.66495" lon="5.05331">
        <ele>865</ele>
        <time>2026-05-26T11:14:43.000Z</time>
      </trkpt>
      <trkpt lat="44.66494" lon="5.05331">
        <ele>864</ele>
        <time>2026-05-26T11:14:44.000Z</time>
      </trkpt>
      <trkpt lat="44.66492" lon="5.05332">
        <ele>863</ele>
        <time>2026-05-26T11:14:45.000Z</time>
      </trkpt>
      <trkpt lat="44.66492" lon="5.05332">
        <ele>863</ele>
        <time>2026-05-26T11:14:46.000Z</time>
      </trkpt>
      <trkpt lat="44.66492" lon="5.05332">
        <ele>863</ele>
        <time>2026-05-26T11:14:47.000Z</time>
      </trkpt>
      <trkpt lat="44.66492" lon="5.05336">
        <ele>863</ele>
        <time>2026-05-26T11:14:48.000Z</time>
      </trkpt>
      <trkpt lat="44.66491" lon="5.05337">
        <ele>863</ele>
        <time>2026-05-26T11:14:49.000Z</time>
      </trkpt>
      <trkpt lat="44.66491" lon="5.05339">
        <ele>864</ele>
        <time>2026-05-26T11:14:50.000Z</time>
      </trkpt>
      <trkpt lat="44.66491" lon="5.0534">
        <ele>864</ele>
        <time>2026-05-26T11:14:51.000Z</time>
      </trkpt>
      <trkpt lat="44.66491" lon="5.0534">
        <ele>864</ele>
        <time>2026-05-26T11:14:52.000Z</time>
      </trkpt>
      <trkpt lat="44.66491" lon="5.0534">
        <ele>864</ele>
        <time>2026-05-26T11:14:53.000Z</time>
      </trkpt>
      <trkpt lat="44.6649" lon="5.05343">
        <ele>864</ele>
        <time>2026-05-26T11:14:54.000Z</time>
      </trkpt>
      <trkpt lat="44.66489" lon="5.05344">
        <ele>864</ele>
        <time>2026-05-26T11:14:55.000Z</time>
      </trkpt>
      <trkpt lat="44.66488" lon="5.05346">
        <ele>863</ele>
        <time>2026-05-26T11:14:56.000Z</time>
      </trkpt>
      <trkpt lat="44.66487" lon="5.05347">
        <ele>863</ele>
        <time>2026-05-26T11:14:57.000Z</time>
      </trkpt>
      <trkpt lat="44.66487" lon="5.05347">
        <ele>863</ele>
        <time>2026-05-26T11:14:58.000Z</time>
      </trkpt>
      <trkpt lat="44.66487" lon="5.05347">
        <ele>863</ele>
        <time>2026-05-26T11:14:59.000Z</time>
      </trkpt>
      <trkpt lat="44.66487" lon="5.0535">
        <ele>863</ele>
        <time>2026-05-26T11:15:00.000Z</time>
      </trkpt>
      <trkpt lat="44.66487" lon="5.05352">
        <ele>863</ele>
        <time>2026-05-26T11:15:01.000Z</time>
      </trkpt>
      <trkpt lat="44.66487" lon="5.05353">
        <ele>864</ele>
        <time>2026-05-26T11:15:02.000Z</time>
      </trkpt>
      <trkpt lat="44.66487" lon="5.05354">
        <ele>865</ele>
        <time>2026-05-26T11:15:03.000Z</time>
      </trkpt>
      <trkpt lat="44.66487" lon="5.05354">
        <ele>865</ele>
        <time>2026-05-26T11:15:04.000Z</time>
      </trkpt>
      <trkpt lat="44.66487" lon="5.05354">
        <ele>865</ele>
        <time>2026-05-26T11:15:05.000Z</time>
      </trkpt>
      <trkpt lat="44.66487" lon="5.05356">
        <ele>865</ele>
        <time>2026-05-26T11:15:06.000Z</time>
      </trkpt>
      <trkpt lat="44.66487" lon="5.05357">
        <ele>864</ele>
        <time>2026-05-26T11:15:07.000Z</time>
      </trkpt>
      <trkpt lat="44.66486" lon="5.05358">
        <ele>865</ele>
        <time>2026-05-26T11:15:08.000Z</time>
      </trkpt>
      <trkpt lat="44.66487" lon="5.05361">
        <ele>864</ele>
        <time>2026-05-26T11:15:09.000Z</time>
      </trkpt>
      <trkpt lat="44.66487" lon="5.05361">
        <ele>864</ele>
        <time>2026-05-26T11:15:10.000Z</time>
      </trkpt>
      <trkpt lat="44.66487" lon="5.05361">
        <ele>864</ele>
        <time>2026-05-26T11:15:11.000Z</time>
      </trkpt>
      <trkpt lat="44.66487" lon="5.05364">
        <ele>864</ele>
        <time>2026-05-26T11:15:12.000Z</time>
      </trkpt>
      <trkpt lat="44.66487" lon="5.05365">
        <ele>864</ele>
        <time>2026-05-26T11:15:13.000Z</time>
      </trkpt>
      <trkpt lat="44.66486" lon="5.05366">
        <ele>864</ele>
        <time>2026-05-26T11:15:14.000Z</time>
      </trkpt>
      <trkpt lat="44.66486" lon="5.05366">
        <ele>864</ele>
        <time>2026-05-26T11:15:15.000Z</time>
      </trkpt>
      <trkpt lat="44.66485" lon="5.05369">
        <ele>863</ele>
        <time>2026-05-26T11:15:16.000Z</time>
      </trkpt>
      <trkpt lat="44.66484" lon="5.05369">
        <ele>864</ele>
        <time>2026-05-26T11:15:17.000Z</time>
      </trkpt>
      <trkpt lat="44.66484" lon="5.0537">
        <ele>864</ele>
        <time>2026-05-26T11:15:18.000Z</time>
      </trkpt>
      <trkpt lat="44.66482" lon="5.05372">
        <ele>864</ele>
        <time>2026-05-26T11:15:19.000Z</time>
      </trkpt>
      <trkpt lat="44.66482" lon="5.05372">
        <ele>864</ele>
        <time>2026-05-26T11:15:20.000Z</time>
      </trkpt>
      <trkpt lat="44.66482" lon="5.05372">
        <ele>864</ele>
        <time>2026-05-26T11:15:21.000Z</time>
      </trkpt>
      <trkpt lat="44.66482" lon="5.05372">
        <ele>864</ele>
        <time>2026-05-26T11:15:22.000Z</time>
      </trkpt>
      <trkpt lat="44.66482" lon="5.05372">
        <ele>864</ele>
        <time>2026-05-26T11:15:23.000Z</time>
      </trkpt>
      <trkpt lat="44.66481" lon="5.05378">
        <ele>864</ele>
        <time>2026-05-26T11:15:24.000Z</time>
      </trkpt>
      <trkpt lat="44.66481" lon="5.05379">
        <ele>864</ele>
        <time>2026-05-26T11:15:25.000Z</time>
      </trkpt>
      <trkpt lat="44.66481" lon="5.05381">
        <ele>864</ele>
        <time>2026-05-26T11:15:26.000Z</time>
      </trkpt>
      <trkpt lat="44.66481" lon="5.05382">
        <ele>865</ele>
        <time>2026-05-26T11:15:27.000Z</time>
      </trkpt>
      <trkpt lat="44.66481" lon="5.05382">
        <ele>865</ele>
        <time>2026-05-26T11:15:28.000Z</time>
      </trkpt>
      <trkpt lat="44.66481" lon="5.05382">
        <ele>865</ele>
        <time>2026-05-26T11:15:29.000Z</time>
      </trkpt>
      <trkpt lat="44.66481" lon="5.05382">
        <ele>865</ele>
        <time>2026-05-26T11:15:30.000Z</time>
      </trkpt>
      <trkpt lat="44.66481" lon="5.05382">
        <ele>865</ele>
        <time>2026-05-26T11:15:31.000Z</time>
      </trkpt>
      <trkpt lat="44.66481" lon="5.05382">
        <ele>865</ele>
        <time>2026-05-26T11:15:32.000Z</time>
      </trkpt>
      <trkpt lat="44.66482" lon="5.05387">
        <ele>864</ele>
        <time>2026-05-26T11:15:33.000Z</time>
      </trkpt>
      <trkpt lat="44.66482" lon="5.05388">
        <ele>863</ele>
        <time>2026-05-26T11:15:34.000Z</time>
      </trkpt>
      <trkpt lat="44.66483" lon="5.05389">
        <ele>863</ele>
        <time>2026-05-26T11:15:35.000Z</time>
      </trkpt>
      <trkpt lat="44.66483" lon="5.05391">
        <ele>863</ele>
        <time>2026-05-26T11:15:36.000Z</time>
      </trkpt>
      <trkpt lat="44.66483" lon="5.05394">
        <ele>863</ele>
        <time>2026-05-26T11:15:37.000Z</time>
      </trkpt>
      <trkpt lat="44.66482" lon="5.05396">
        <ele>862</ele>
        <time>2026-05-26T11:15:38.000Z</time>
      </trkpt>
      <trkpt lat="44.66482" lon="5.05398">
        <ele>862</ele>
        <time>2026-05-26T11:15:39.000Z</time>
      </trkpt>
      <trkpt lat="44.66482" lon="5.054">
        <ele>862</ele>
        <time>2026-05-26T11:15:40.000Z</time>
      </trkpt>
      <trkpt lat="44.66482" lon="5.054">
        <ele>862</ele>
        <time>2026-05-26T11:15:41.000Z</time>
      </trkpt>
      <trkpt lat="44.66482" lon="5.054">
        <ele>862</ele>
        <time>2026-05-26T11:15:42.000Z</time>
      </trkpt>
      <trkpt lat="44.66482" lon="5.05407">
        <ele>862</ele>
        <time>2026-05-26T11:15:43.000Z</time>
      </trkpt>
      <trkpt lat="44.66482" lon="5.05408">
        <ele>861</ele>
        <time>2026-05-26T11:15:44.000Z</time>
      </trkpt>
      <trkpt lat="44.66483" lon="5.05409">
        <ele>862</ele>
        <time>2026-05-26T11:15:45.000Z</time>
      </trkpt>
      <trkpt lat="44.66483" lon="5.05409">
        <ele>861</ele>
        <time>2026-05-26T11:15:46.000Z</time>
      </trkpt>
      <trkpt lat="44.66483" lon="5.05409">
        <ele>861</ele>
        <time>2026-05-26T11:15:47.000Z</time>
      </trkpt>
      <trkpt lat="44.66483" lon="5.05409">
        <ele>861</ele>
        <time>2026-05-26T11:15:48.000Z</time>
      </trkpt>
      <trkpt lat="44.66484" lon="5.05413">
        <ele>859</ele>
        <time>2026-05-26T11:15:49.000Z</time>
      </trkpt>
      <trkpt lat="44.66484" lon="5.05415">
        <ele>859</ele>
        <time>2026-05-26T11:15:50.000Z</time>
      </trkpt>
      <trkpt lat="44.66483" lon="5.05416">
        <ele>860</ele>
        <time>2026-05-26T11:15:51.000Z</time>
      </trkpt>
      <trkpt lat="44.66482" lon="5.05416">
        <ele>860</ele>
        <time>2026-05-26T11:15:52.000Z</time>
      </trkpt>
      <trkpt lat="44.66482" lon="5.05416">
        <ele>860</ele>
        <time>2026-05-26T11:15:53.000Z</time>
      </trkpt>
      <trkpt lat="44.66482" lon="5.05416">
        <ele>860</ele>
        <time>2026-05-26T11:15:54.000Z</time>
      </trkpt>
      <trkpt lat="44.66482" lon="5.05419">
        <ele>860</ele>
        <time>2026-05-26T11:15:55.000Z</time>
      </trkpt>
      <trkpt lat="44.66482" lon="5.05421">
        <ele>859</ele>
        <time>2026-05-26T11:15:56.000Z</time>
      </trkpt>
      <trkpt lat="44.66482" lon="5.05423">
        <ele>858</ele>
        <time>2026-05-26T11:15:57.000Z</time>
      </trkpt>
      <trkpt lat="44.66482" lon="5.05424">
        <ele>858</ele>
        <time>2026-05-26T11:15:58.000Z</time>
      </trkpt>
      <trkpt lat="44.66482" lon="5.05426">
        <ele>858</ele>
        <time>2026-05-26T11:15:59.000Z</time>
      </trkpt>
      <trkpt lat="44.66482" lon="5.05427">
        <ele>857</ele>
        <time>2026-05-26T11:16:00.000Z</time>
      </trkpt>
      <trkpt lat="44.66482" lon="5.05429">
        <ele>857</ele>
        <time>2026-05-26T11:16:01.000Z</time>
      </trkpt>
      <trkpt lat="44.66481" lon="5.05431">
        <ele>857</ele>
        <time>2026-05-26T11:16:02.000Z</time>
      </trkpt>
      <trkpt lat="44.66481" lon="5.05432">
        <ele>856</ele>
        <time>2026-05-26T11:16:03.000Z</time>
      </trkpt>
      <trkpt lat="44.6648" lon="5.05433">
        <ele>856</ele>
        <time>2026-05-26T11:16:04.000Z</time>
      </trkpt>
      <trkpt lat="44.6648" lon="5.05435">
        <ele>856</ele>
        <time>2026-05-26T11:16:05.000Z</time>
      </trkpt>
      <trkpt lat="44.6648" lon="5.05435">
        <ele>856</ele>
        <time>2026-05-26T11:16:06.000Z</time>
      </trkpt>
      <trkpt lat="44.66479" lon="5.05437">
        <ele>857</ele>
        <time>2026-05-26T11:16:07.000Z</time>
      </trkpt>
      <trkpt lat="44.66478" lon="5.05438">
        <ele>857</ele>
        <time>2026-05-26T11:16:08.000Z</time>
      </trkpt>
      <trkpt lat="44.66479" lon="5.05439">
        <ele>857</ele>
        <time>2026-05-26T11:16:09.000Z</time>
      </trkpt>
      <trkpt lat="44.66478" lon="5.05441">
        <ele>857</ele>
        <time>2026-05-26T11:16:10.000Z</time>
      </trkpt>
      <trkpt lat="44.66477" lon="5.05442">
        <ele>857</ele>
        <time>2026-05-26T11:16:11.000Z</time>
      </trkpt>
      <trkpt lat="44.66477" lon="5.05444">
        <ele>857</ele>
        <time>2026-05-26T11:16:12.000Z</time>
      </trkpt>
      <trkpt lat="44.66477" lon="5.05444">
        <ele>857</ele>
        <time>2026-05-26T11:16:13.000Z</time>
      </trkpt>
      <trkpt lat="44.66477" lon="5.05444">
        <ele>857</ele>
        <time>2026-05-26T11:16:14.000Z</time>
      </trkpt>
      <trkpt lat="44.66476" lon="5.05446">
        <ele>856</ele>
        <time>2026-05-26T11:16:15.000Z</time>
      </trkpt>
      <trkpt lat="44.66475" lon="5.05447">
        <ele>856</ele>
        <time>2026-05-26T11:16:16.000Z</time>
      </trkpt>
      <trkpt lat="44.66476" lon="5.05448">
        <ele>857</ele>
        <time>2026-05-26T11:16:17.000Z</time>
      </trkpt>
      <trkpt lat="44.66476" lon="5.05449">
        <ele>857</ele>
        <time>2026-05-26T11:16:18.000Z</time>
      </trkpt>
      <trkpt lat="44.66475" lon="5.05451">
        <ele>857</ele>
        <time>2026-05-26T11:16:19.000Z</time>
      </trkpt>
      <trkpt lat="44.66475" lon="5.05453">
        <ele>857</ele>
        <time>2026-05-26T11:16:20.000Z</time>
      </trkpt>
      <trkpt lat="44.66474" lon="5.05454">
        <ele>857</ele>
        <time>2026-05-26T11:16:21.000Z</time>
      </trkpt>
      <trkpt lat="44.66474" lon="5.05455">
        <ele>857</ele>
        <time>2026-05-26T11:16:22.000Z</time>
      </trkpt>
      <trkpt lat="44.66474" lon="5.05455">
        <ele>857</ele>
        <time>2026-05-26T11:16:23.000Z</time>
      </trkpt>
      <trkpt lat="44.66474" lon="5.05455">
        <ele>857</ele>
        <time>2026-05-26T11:16:24.000Z</time>
      </trkpt>
      <trkpt lat="44.66473" lon="5.05458">
        <ele>855</ele>
        <time>2026-05-26T11:16:25.000Z</time>
      </trkpt>
      <trkpt lat="44.66473" lon="5.05459">
        <ele>855</ele>
        <time>2026-05-26T11:16:26.000Z</time>
      </trkpt>
      <trkpt lat="44.66473" lon="5.0546">
        <ele>855</ele>
        <time>2026-05-26T11:16:27.000Z</time>
      </trkpt>
      <trkpt lat="44.66473" lon="5.05461">
        <ele>854</ele>
        <time>2026-05-26T11:16:28.000Z</time>
      </trkpt>
      <trkpt lat="44.66473" lon="5.05463">
        <ele>855</ele>
        <time>2026-05-26T11:16:29.000Z</time>
      </trkpt>
      <trkpt lat="44.66472" lon="5.05464">
        <ele>855</ele>
        <time>2026-05-26T11:16:30.000Z</time>
      </trkpt>
      <trkpt lat="44.66472" lon="5.05465">
        <ele>854</ele>
        <time>2026-05-26T11:16:31.000Z</time>
      </trkpt>
      <trkpt lat="44.66471" lon="5.05466">
        <ele>854</ele>
        <time>2026-05-26T11:16:32.000Z</time>
      </trkpt>
      <trkpt lat="44.6647" lon="5.05468">
        <ele>854</ele>
        <time>2026-05-26T11:16:33.000Z</time>
      </trkpt>
      <trkpt lat="44.66469" lon="5.05469">
        <ele>853</ele>
        <time>2026-05-26T11:16:34.000Z</time>
      </trkpt>
      <trkpt lat="44.66469" lon="5.0547">
        <ele>853</ele>
        <time>2026-05-26T11:16:35.000Z</time>
      </trkpt>
      <trkpt lat="44.66468" lon="5.05472">
        <ele>853</ele>
        <time>2026-05-26T11:16:36.000Z</time>
      </trkpt>
      <trkpt lat="44.66467" lon="5.05473">
        <ele>852</ele>
        <time>2026-05-26T11:16:37.000Z</time>
      </trkpt>
      <trkpt lat="44.66467" lon="5.05474">
        <ele>853</ele>
        <time>2026-05-26T11:16:38.000Z</time>
      </trkpt>
      <trkpt lat="44.66467" lon="5.05474">
        <ele>853</ele>
        <time>2026-05-26T11:16:39.000Z</time>
      </trkpt>
      <trkpt lat="44.66467" lon="5.05474">
        <ele>853</ele>
        <time>2026-05-26T11:16:40.000Z</time>
      </trkpt>
      <trkpt lat="44.66467" lon="5.05474">
        <ele>853</ele>
        <time>2026-05-26T11:16:41.000Z</time>
      </trkpt>
      <trkpt lat="44.66467" lon="5.05474">
        <ele>853</ele>
        <time>2026-05-26T11:16:42.000Z</time>
      </trkpt>
      <trkpt lat="44.66467" lon="5.05474">
        <ele>853</ele>
        <time>2026-05-26T11:16:43.000Z</time>
      </trkpt>
      <trkpt lat="44.66467" lon="5.05474">
        <ele>853</ele>
        <time>2026-05-26T11:16:44.000Z</time>
      </trkpt>
      <trkpt lat="44.66467" lon="5.05474">
        <ele>853</ele>
        <time>2026-05-26T11:16:45.000Z</time>
      </trkpt>
      <trkpt lat="44.66467" lon="5.05476">
        <ele>852</ele>
        <time>2026-05-26T11:16:46.000Z</time>
      </trkpt>
      <trkpt lat="44.66467" lon="5.05477">
        <ele>851</ele>
        <time>2026-05-26T11:16:47.000Z</time>
      </trkpt>
      <trkpt lat="44.66467" lon="5.05479">
        <ele>850</ele>
        <time>2026-05-26T11:16:48.000Z</time>
      </trkpt>
      <trkpt lat="44.66467" lon="5.0548">
        <ele>851</ele>
        <time>2026-05-26T11:16:49.000Z</time>
      </trkpt>
      <trkpt lat="44.66466" lon="5.05481">
        <ele>851</ele>
        <time>2026-05-26T11:16:50.000Z</time>
      </trkpt>
      <trkpt lat="44.66466" lon="5.05482">
        <ele>851</ele>
        <time>2026-05-26T11:16:51.000Z</time>
      </trkpt>
      <trkpt lat="44.66466" lon="5.05483">
        <ele>852</ele>
        <time>2026-05-26T11:16:52.000Z</time>
      </trkpt>
      <trkpt lat="44.66466" lon="5.05483">
        <ele>851</ele>
        <time>2026-05-26T11:16:53.000Z</time>
      </trkpt>
      <trkpt lat="44.66465" lon="5.05484">
        <ele>851</ele>
        <time>2026-05-26T11:16:54.000Z</time>
      </trkpt>
      <trkpt lat="44.66466" lon="5.05484">
        <ele>851</ele>
        <time>2026-05-26T11:16:55.000Z</time>
      </trkpt>
      <trkpt lat="44.66467" lon="5.05485">
        <ele>852</ele>
        <time>2026-05-26T11:16:56.000Z</time>
      </trkpt>
      <trkpt lat="44.66467" lon="5.05485">
        <ele>852</ele>
        <time>2026-05-26T11:16:57.000Z</time>
      </trkpt>
      <trkpt lat="44.66467" lon="5.05485">
        <ele>852</ele>
        <time>2026-05-26T11:16:58.000Z</time>
      </trkpt>
      <trkpt lat="44.66467" lon="5.05485">
        <ele>852</ele>
        <time>2026-05-26T11:16:59.000Z</time>
      </trkpt>
      <trkpt lat="44.66468" lon="5.05489">
        <ele>852</ele>
        <time>2026-05-26T11:17:00.000Z</time>
      </trkpt>
      <trkpt lat="44.66468" lon="5.0549">
        <ele>853</ele>
        <time>2026-05-26T11:17:01.000Z</time>
      </trkpt>
      <trkpt lat="44.6647" lon="5.05492">
        <ele>853</ele>
        <time>2026-05-26T11:17:02.000Z</time>
      </trkpt>
      <trkpt lat="44.6647" lon="5.05493">
        <ele>854</ele>
        <time>2026-05-26T11:17:03.000Z</time>
      </trkpt>
      <trkpt lat="44.66471" lon="5.05494">
        <ele>855</ele>
        <time>2026-05-26T11:17:04.000Z</time>
      </trkpt>
      <trkpt lat="44.66474" lon="5.05495">
        <ele>856</ele>
        <time>2026-05-26T11:17:05.000Z</time>
      </trkpt>
      <trkpt lat="44.66474" lon="5.05496">
        <ele>856</ele>
        <time>2026-05-26T11:17:06.000Z</time>
      </trkpt>
      <trkpt lat="44.66475" lon="5.05496">
        <ele>857</ele>
        <time>2026-05-26T11:17:07.000Z</time>
      </trkpt>
      <trkpt lat="44.66475" lon="5.05496">
        <ele>856</ele>
        <time>2026-05-26T11:17:08.000Z</time>
      </trkpt>
      <trkpt lat="44.66476" lon="5.05496">
        <ele>857</ele>
        <time>2026-05-26T11:17:09.000Z</time>
      </trkpt>
      <trkpt lat="44.66476" lon="5.05496">
        <ele>856</ele>
        <time>2026-05-26T11:17:10.000Z</time>
      </trkpt>
      <trkpt lat="44.66478" lon="5.05497">
        <ele>857</ele>
        <time>2026-05-26T11:17:11.000Z</time>
      </trkpt>
      <trkpt lat="44.66478" lon="5.05497">
        <ele>858</ele>
        <time>2026-05-26T11:17:12.000Z</time>
      </trkpt>
      <trkpt lat="44.66479" lon="5.05497">
        <ele>856</ele>
        <time>2026-05-26T11:17:13.000Z</time>
      </trkpt>
      <trkpt lat="44.6648" lon="5.05496">
        <ele>856</ele>
        <time>2026-05-26T11:17:14.000Z</time>
      </trkpt>
      <trkpt lat="44.6648" lon="5.05496">
        <ele>856</ele>
        <time>2026-05-26T11:17:15.000Z</time>
      </trkpt>
      <trkpt lat="44.6648" lon="5.05497">
        <ele>857</ele>
        <time>2026-05-26T11:17:16.000Z</time>
      </trkpt>
      <trkpt lat="44.6648" lon="5.05498">
        <ele>857</ele>
        <time>2026-05-26T11:17:17.000Z</time>
      </trkpt>
      <trkpt lat="44.6648" lon="5.05498">
        <ele>857</ele>
        <time>2026-05-26T11:17:18.000Z</time>
      </trkpt>
      <trkpt lat="44.6648" lon="5.05498">
        <ele>857</ele>
        <time>2026-05-26T11:17:19.000Z</time>
      </trkpt>
      <trkpt lat="44.66481" lon="5.05497">
        <ele>857</ele>
        <time>2026-05-26T11:17:20.000Z</time>
      </trkpt>
      <trkpt lat="44.66481" lon="5.05497">
        <ele>857</ele>
        <time>2026-05-26T11:17:21.000Z</time>
      </trkpt>
      <trkpt lat="44.66481" lon="5.05497">
        <ele>857</ele>
        <time>2026-05-26T11:17:22.000Z</time>
      </trkpt>
      <trkpt lat="44.66481" lon="5.05497">
        <ele>857</ele>
        <time>2026-05-26T11:17:23.000Z</time>
      </trkpt>
      <trkpt lat="44.66481" lon="5.05497">
        <ele>857</ele>
        <time>2026-05-26T11:17:24.000Z</time>
      </trkpt>
      <trkpt lat="44.66481" lon="5.05497">
        <ele>857</ele>
        <time>2026-05-26T11:17:25.000Z</time>
      </trkpt>
      <trkpt lat="44.66481" lon="5.05497">
        <ele>857</ele>
        <time>2026-05-26T11:17:26.000Z</time>
      </trkpt>
      <trkpt lat="44.66481" lon="5.05497">
        <ele>857</ele>
        <time>2026-05-26T11:17:27.000Z</time>
      </trkpt>
      <trkpt lat="44.66481" lon="5.05497">
        <ele>857</ele>
        <time>2026-05-26T11:17:28.000Z</time>
      </trkpt>
      <trkpt lat="44.66481" lon="5.05497">
        <ele>857</ele>
        <time>2026-05-26T11:17:29.000Z</time>
      </trkpt>
      <trkpt lat="44.6648" lon="5.05499">
        <ele>856</ele>
        <time>2026-05-26T11:17:30.000Z</time>
      </trkpt>
      <trkpt lat="44.6648" lon="5.05499">
        <ele>857</ele>
        <time>2026-05-26T11:17:31.000Z</time>
      </trkpt>
      <trkpt lat="44.6648" lon="5.05499">
        <ele>857</ele>
        <time>2026-05-26T11:17:32.000Z</time>
      </trkpt>
      <trkpt lat="44.6648" lon="5.05499">
        <ele>858</ele>
        <time>2026-05-26T11:17:33.000Z</time>
      </trkpt>
      <trkpt lat="44.6648" lon="5.05499">
        <ele>858</ele>
        <time>2026-05-26T11:17:34.000Z</time>
      </trkpt>
      <trkpt lat="44.6648" lon="5.05499">
        <ele>858</ele>
        <time>2026-05-26T11:17:35.000Z</time>
      </trkpt>
      <trkpt lat="44.6648" lon="5.05499">
        <ele>858</ele>
        <time>2026-05-26T11:17:36.000Z</time>
      </trkpt>
      <trkpt lat="44.6648" lon="5.05499">
        <ele>858</ele>
        <time>2026-05-26T11:17:37.000Z</time>
      </trkpt>
      <trkpt lat="44.6648" lon="5.05499">
        <ele>858</ele>
        <time>2026-05-26T11:17:38.000Z</time>
      </trkpt>
      <trkpt lat="44.6648" lon="5.05499">
        <ele>858</ele>
        <time>2026-05-26T11:17:39.000Z</time>
      </trkpt>
      <trkpt lat="44.6648" lon="5.05499">
        <ele>858</ele>
        <time>2026-05-26T11:17:40.000Z</time>
      </trkpt>
      <trkpt lat="44.6648" lon="5.05499">
        <ele>858</ele>
        <time>2026-05-26T11:17:41.000Z</time>
      </trkpt>
      <trkpt lat="44.6648" lon="5.05499">
        <ele>858</ele>
        <time>2026-05-26T11:17:42.000Z</time>
      </trkpt>
      <trkpt lat="44.6648" lon="5.05499">
        <ele>858</ele>
        <time>2026-05-26T11:17:43.000Z</time>
      </trkpt>
      <trkpt lat="44.6648" lon="5.05499">
        <ele>858</ele>
        <time>2026-05-26T11:17:44.000Z</time>
      </trkpt>
      <trkpt lat="44.6648" lon="5.05499">
        <ele>858</ele>
        <time>2026-05-26T11:17:45.000Z</time>
      </trkpt>
      <trkpt lat="44.6648" lon="5.05499">
        <ele>858</ele>
        <time>2026-05-26T11:17:46.000Z</time>
      </trkpt>
      <trkpt lat="44.6648" lon="5.05499">
        <ele>858</ele>
        <time>2026-05-26T11:17:47.000Z</time>
      </trkpt>
      <trkpt lat="44.6648" lon="5.05499">
        <ele>858</ele>
        <time>2026-05-26T11:17:48.000Z</time>
      </trkpt>
      <trkpt lat="44.6648" lon="5.05499">
        <ele>858</ele>
        <time>2026-05-26T11:17:49.000Z</time>
      </trkpt>
      <trkpt lat="44.6648" lon="5.05499">
        <ele>858</ele>
        <time>2026-05-26T11:17:50.000Z</time>
      </trkpt>
      <trkpt lat="44.6648" lon="5.05499">
        <ele>858</ele>
        <time>2026-05-26T11:17:51.000Z</time>
      </trkpt>
      <trkpt lat="44.6648" lon="5.05499">
        <ele>858</ele>
        <time>2026-05-26T11:17:52.000Z</time>
      </trkpt>
      <trkpt lat="44.6648" lon="5.05499">
        <ele>858</ele>
        <time>2026-05-26T11:17:53.000Z</time>
      </trkpt>
      <trkpt lat="44.6648" lon="5.05499">
        <ele>858</ele>
        <time>2026-05-26T11:17:54.000Z</time>
      </trkpt>
      <trkpt lat="44.6648" lon="5.05499">
        <ele>858</ele>
        <time>2026-05-26T11:17:55.000Z</time>
      </trkpt>
      <trkpt lat="44.6648" lon="5.05499">
        <ele>858</ele>
        <time>2026-05-26T11:17:56.000Z</time>
      </trkpt>
      <trkpt lat="44.6648" lon="5.05499">
        <ele>858</ele>
        <time>2026-05-26T11:17:57.000Z</time>
      </trkpt>
      <trkpt lat="44.6648" lon="5.05499">
        <ele>858</ele>
        <time>2026-05-26T11:17:58.000Z</time>
      </trkpt>
      <trkpt lat="44.6648" lon="5.05499">
        <ele>858</ele>
        <time>2026-05-26T11:17:59.000Z</time>
      </trkpt>
      <trkpt lat="44.6648" lon="5.05499">
        <ele>858</ele>
        <time>2026-05-26T11:18:00.000Z</time>
      </trkpt>
      <trkpt lat="44.6648" lon="5.05498">
        <ele>859</ele>
        <time>2026-05-26T11:18:01.000Z</time>
      </trkpt>
      <trkpt lat="44.66479" lon="5.05498">
        <ele>859</ele>
        <time>2026-05-26T11:18:02.000Z</time>
      </trkpt>
      <trkpt lat="44.66479" lon="5.05499">
        <ele>858</ele>
        <time>2026-05-26T11:18:03.000Z</time>
      </trkpt>
      <trkpt lat="44.66479" lon="5.05499">
        <ele>858</ele>
        <time>2026-05-26T11:18:04.000Z</time>
      </trkpt>
      <trkpt lat="44.66479" lon="5.05498">
        <ele>858</ele>
        <time>2026-05-26T11:18:05.000Z</time>
      </trkpt>
      <trkpt lat="44.66479" lon="5.05498">
        <ele>858</ele>
        <time>2026-05-26T11:18:06.000Z</time>
      </trkpt>
      <trkpt lat="44.66479" lon="5.05498">
        <ele>858</ele>
        <time>2026-05-26T11:18:07.000Z</time>
      </trkpt>
      <trkpt lat="44.66479" lon="5.05498">
        <ele>858</ele>
        <time>2026-05-26T11:18:08.000Z</time>
      </trkpt>
      <trkpt lat="44.66479" lon="5.05498">
        <ele>858</ele>
        <time>2026-05-26T11:18:09.000Z</time>
      </trkpt>
      <trkpt lat="44.66479" lon="5.05498">
        <ele>858</ele>
        <time>2026-05-26T11:18:10.000Z</time>
      </trkpt>
      <trkpt lat="44.66479" lon="5.05498">
        <ele>858</ele>
        <time>2026-05-26T11:18:11.000Z</time>
      </trkpt>
      <trkpt lat="44.66479" lon="5.05498">
        <ele>858</ele>
        <time>2026-05-26T11:18:12.000Z</time>
      </trkpt>
      <trkpt lat="44.66479" lon="5.05498">
        <ele>858</ele>
        <time>2026-05-26T11:18:13.000Z</time>
      </trkpt>
      <trkpt lat="44.66479" lon="5.05498">
        <ele>858</ele>
        <time>2026-05-26T11:18:14.000Z</time>
      </trkpt>
      <trkpt lat="44.66479" lon="5.05498">
        <ele>858</ele>
        <time>2026-05-26T11:18:15.000Z</time>
      </trkpt>
      <trkpt lat="44.66479" lon="5.05498">
        <ele>858</ele>
        <time>2026-05-26T11:18:16.000Z</time>
      </trkpt>
      <trkpt lat="44.66479" lon="5.05498">
        <ele>858</ele>
        <time>2026-05-26T11:18:17.000Z</time>
      </trkpt>
      <trkpt lat="44.66479" lon="5.05498">
        <ele>858</ele>
        <time>2026-05-26T11:18:18.000Z</time>
      </trkpt>
      <trkpt lat="44.66479" lon="5.05498">
        <ele>858</ele>
        <time>2026-05-26T11:18:19.000Z</time>
      </trkpt>
      <trkpt lat="44.66479" lon="5.05498">
        <ele>858</ele>
        <time>2026-05-26T11:18:20.000Z</time>
      </trkpt>
      <trkpt lat="44.66479" lon="5.05498">
        <ele>858</ele>
        <time>2026-05-26T11:18:21.000Z</time>
      </trkpt>
      <trkpt lat="44.66479" lon="5.05498">
        <ele>858</ele>
        <time>2026-05-26T11:18:22.000Z</time>
      </trkpt>
      <trkpt lat="44.66479" lon="5.05498">
        <ele>858</ele>
        <time>2026-05-26T11:18:23.000Z</time>
      </trkpt>
      <trkpt lat="44.66479" lon="5.05498">
        <ele>858</ele>
        <time>2026-05-26T11:18:24.000Z</time>
      </trkpt>
      <trkpt lat="44.66479" lon="5.05498">
        <ele>858</ele>
        <time>2026-05-26T11:18:25.000Z</time>
      </trkpt>
      <trkpt lat="44.66479" lon="5.05498">
        <ele>858</ele>
        <time>2026-05-26T11:18:26.000Z</time>
      </trkpt>
      <trkpt lat="44.66479" lon="5.05498">
        <ele>858</ele>
        <time>2026-05-26T11:18:27.000Z</time>
      </trkpt>
      <trkpt lat="44.66479" lon="5.05498">
        <ele>858</ele>
        <time>2026-05-26T11:18:28.000Z</time>
      </trkpt>
      <trkpt lat="44.66479" lon="5.05498">
        <ele>858</ele>
        <time>2026-05-26T11:18:29.000Z</time>
      </trkpt>
      <trkpt lat="44.66479" lon="5.05498">
        <ele>858</ele>
        <time>2026-05-26T11:18:30.000Z</time>
      </trkpt>
      <trkpt lat="44.66479" lon="5.05498">
        <ele>858</ele>
        <time>2026-05-26T11:18:31.000Z</time>
      </trkpt>
      <trkpt lat="44.66479" lon="5.05498">
        <ele>858</ele>
        <time>2026-05-26T11:18:32.000Z</time>
      </trkpt>
      <trkpt lat="44.66479" lon="5.05498">
        <ele>858</ele>
        <time>2026-05-26T11:18:33.000Z</time>
      </trkpt>
      <trkpt lat="44.66479" lon="5.05498">
        <ele>858</ele>
        <time>2026-05-26T11:18:34.000Z</time>
      </trkpt>
      <trkpt lat="44.66479" lon="5.05498">
        <ele>858</ele>
        <time>2026-05-26T11:18:35.000Z</time>
      </trkpt>
      <trkpt lat="44.66479" lon="5.05498">
        <ele>858</ele>
        <time>2026-05-26T11:18:36.000Z</time>
      </trkpt>
      <trkpt lat="44.66479" lon="5.05498">
        <ele>858</ele>
        <time>2026-05-26T11:18:37.000Z</time>
      </trkpt>
      <trkpt lat="44.66479" lon="5.05498">
        <ele>858</ele>
        <time>2026-05-26T11:18:38.000Z</time>
      </trkpt>
      <trkpt lat="44.66479" lon="5.05498">
        <ele>858</ele>
        <time>2026-05-26T11:18:39.000Z</time>
      </trkpt>
      <trkpt lat="44.66479" lon="5.05498">
        <ele>858</ele>
        <time>2026-05-26T11:18:40.000Z</time>
      </trkpt>
      <trkpt lat="44.66479" lon="5.05498">
        <ele>858</ele>
        <time>2026-05-26T11:18:41.000Z</time>
      </trkpt>
      <trkpt lat="44.66479" lon="5.05498">
        <ele>858</ele>
        <time>2026-05-26T11:18:42.000Z</time>
      </trkpt>
      <trkpt lat="44.66479" lon="5.05498">
        <ele>858</ele>
        <time>2026-05-26T11:18:43.000Z</time>
      </trkpt>
      <trkpt lat="44.66479" lon="5.05498">
        <ele>858</ele>
        <time>2026-05-26T11:18:44.000Z</time>
      </trkpt>
      <trkpt lat="44.66479" lon="5.05498">
        <ele>858</ele>
        <time>2026-05-26T11:18:45.000Z</time>
      </trkpt>
      <trkpt lat="44.66479" lon="5.05498">
        <ele>858</ele>
        <time>2026-05-26T11:18:46.000Z</time>
      </trkpt>
      <trkpt lat="44.66479" lon="5.05498">
        <ele>858</ele>
        <time>2026-05-26T11:18:47.000Z</time>
      </trkpt>
      <trkpt lat="44.66479" lon="5.05498">
        <ele>858</ele>
        <time>2026-05-26T11:18:48.000Z</time>
      </trkpt>
      <trkpt lat="44.66479" lon="5.05498">
        <ele>858</ele>
        <time>2026-05-26T11:18:49.000Z</time>
      </trkpt>
      <trkpt lat="44.66479" lon="5.05498">
        <ele>858</ele>
        <time>2026-05-26T11:18:50.000Z</time>
      </trkpt>
      <trkpt lat="44.66479" lon="5.05498">
        <ele>858</ele>
        <time>2026-05-26T11:18:51.000Z</time>
      </trkpt>
      <trkpt lat="44.66479" lon="5.05498">
        <ele>858</ele>
        <time>2026-05-26T11:18:52.000Z</time>
      </trkpt>
      <trkpt lat="44.66479" lon="5.05498">
        <ele>858</ele>
        <time>2026-05-26T11:18:53.000Z</time>
      </trkpt>
      <trkpt lat="44.66479" lon="5.05498">
        <ele>858</ele>
        <time>2026-05-26T11:18:54.000Z</time>
      </trkpt>
      <trkpt lat="44.66479" lon="5.05498">
        <ele>858</ele>
        <time>2026-05-26T11:18:55.000Z</time>
      </trkpt>
      <trkpt lat="44.66479" lon="5.05498">
        <ele>858</ele>
        <time>2026-05-26T11:18:56.000Z</time>
      </trkpt>
      <trkpt lat="44.66479" lon="5.05498">
        <ele>858</ele>
        <time>2026-05-26T11:18:57.000Z</time>
      </trkpt>
      <trkpt lat="44.66479" lon="5.05498">
        <ele>858</ele>
        <time>2026-05-26T11:18:58.000Z</time>
      </trkpt>
      <trkpt lat="44.66479" lon="5.05498">
        <ele>858</ele>
        <time>2026-05-26T11:18:59.000Z</time>
      </trkpt>
      <trkpt lat="44.66479" lon="5.05498">
        <ele>858</ele>
        <time>2026-05-26T11:19:00.000Z</time>
      </trkpt>
      <trkpt lat="44.66479" lon="5.05498">
        <ele>858</ele>
        <time>2026-05-26T11:19:01.000Z</time>
      </trkpt>
      <trkpt lat="44.6648" lon="5.05498">
        <ele>858</ele>
        <time>2026-05-26T11:19:02.000Z</time>
      </trkpt>
      <trkpt lat="44.6648" lon="5.05498">
        <ele>858</ele>
        <time>2026-05-26T11:19:03.000Z</time>
      </trkpt>
      <trkpt lat="44.66479" lon="5.05497">
        <ele>857</ele>
        <time>2026-05-26T11:19:04.000Z</time>
      </trkpt>
      <trkpt lat="44.66479" lon="5.05497">
        <ele>857</ele>
        <time>2026-05-26T11:19:05.000Z</time>
      </trkpt>
      <trkpt lat="44.66479" lon="5.05497">
        <ele>857</ele>
        <time>2026-05-26T11:19:06.000Z</time>
      </trkpt>
      <trkpt lat="44.66479" lon="5.05497">
        <ele>857</ele>
        <time>2026-05-26T11:19:07.000Z</time>
      </trkpt>
      <trkpt lat="44.66479" lon="5.05497">
        <ele>857</ele>
        <time>2026-05-26T11:19:08.000Z</time>
      </trkpt>
      <trkpt lat="44.66479" lon="5.05497">
        <ele>857</ele>
        <time>2026-05-26T11:19:09.000Z</time>
      </trkpt>
      <trkpt lat="44.66479" lon="5.05497">
        <ele>857</ele>
        <time>2026-05-26T11:19:10.000Z</time>
      </trkpt>
      <trkpt lat="44.66479" lon="5.05497">
        <ele>857</ele>
        <time>2026-05-26T11:19:11.000Z</time>
      </trkpt>
      <trkpt lat="44.66479" lon="5.05497">
        <ele>857</ele>
        <time>2026-05-26T11:19:12.000Z</time>
      </trkpt>
      <trkpt lat="44.66479" lon="5.05497">
        <ele>857</ele>
        <time>2026-05-26T11:19:13.000Z</time>
      </trkpt>
      <trkpt lat="44.66479" lon="5.05497">
        <ele>857</ele>
        <time>2026-05-26T11:19:14.000Z</time>
      </trkpt>
      <trkpt lat="44.66479" lon="5.05497">
        <ele>857</ele>
        <time>2026-05-26T11:19:15.000Z</time>
      </trkpt>
      <trkpt lat="44.66479" lon="5.05497">
        <ele>857</ele>
        <time>2026-05-26T11:19:16.000Z</time>
      </trkpt>
      <trkpt lat="44.66479" lon="5.05497">
        <ele>857</ele>
        <time>2026-05-26T11:19:17.000Z</time>
      </trkpt>
      <trkpt lat="44.66479" lon="5.05497">
        <ele>857</ele>
        <time>2026-05-26T11:19:18.000Z</time>
      </trkpt>
      <trkpt lat="44.66479" lon="5.05497">
        <ele>857</ele>
        <time>2026-05-26T11:19:19.000Z</time>
      </trkpt>
      <trkpt lat="44.66479" lon="5.05497">
        <ele>857</ele>
        <time>2026-05-26T11:19:20.000Z</time>
      </trkpt>
      <trkpt lat="44.66479" lon="5.05497">
        <ele>857</ele>
        <time>2026-05-26T11:19:21.000Z</time>
      </trkpt>
      <trkpt lat="44.6648" lon="5.05498">
        <ele>858</ele>
        <time>2026-05-26T11:19:22.000Z</time>
      </trkpt>
      <trkpt lat="44.6648" lon="5.05498">
        <ele>858</ele>
        <time>2026-05-26T11:19:23.000Z</time>
      </trkpt>
      <trkpt lat="44.6648" lon="5.05498">
        <ele>858</ele>
        <time>2026-05-26T11:19:24.000Z</time>
      </trkpt>
      <trkpt lat="44.6648" lon="5.05498">
        <ele>858</ele>
        <time>2026-05-26T11:19:25.000Z</time>
      </trkpt>
      <trkpt lat="44.6648" lon="5.05498">
        <ele>858</ele>
        <time>2026-05-26T11:19:26.000Z</time>
      </trkpt>
      <trkpt lat="44.6648" lon="5.05498">
        <ele>858</ele>
        <time>2026-05-26T11:19:27.000Z</time>
      </trkpt>
      <trkpt lat="44.6648" lon="5.05499">
        <ele>858</ele>
        <time>2026-05-26T11:19:28.000Z</time>
      </trkpt>
      <trkpt lat="44.6648" lon="5.05499">
        <ele>858</ele>
        <time>2026-05-26T11:19:29.000Z</time>
      </trkpt>
      <trkpt lat="44.6648" lon="5.05499">
        <ele>858</ele>
        <time>2026-05-26T11:19:30.000Z</time>
      </trkpt>
      <trkpt lat="44.6648" lon="5.05499">
        <ele>858</ele>
        <time>2026-05-26T11:19:31.000Z</time>
      </trkpt>
      <trkpt lat="44.6648" lon="5.05499">
        <ele>858</ele>
        <time>2026-05-26T11:19:32.000Z</time>
      </trkpt>
      <trkpt lat="44.6648" lon="5.05499">
        <ele>858</ele>
        <time>2026-05-26T11:19:33.000Z</time>
      </trkpt>
      <trkpt lat="44.6648" lon="5.05499">
        <ele>858</ele>
        <time>2026-05-26T11:19:34.000Z</time>
      </trkpt>
      <trkpt lat="44.6648" lon="5.05497">
        <ele>858</ele>
        <time>2026-05-26T11:19:35.000Z</time>
      </trkpt>
      <trkpt lat="44.6648" lon="5.05496">
        <ele>858</ele>
        <time>2026-05-26T11:19:36.000Z</time>
      </trkpt>
      <trkpt lat="44.6648" lon="5.05496">
        <ele>858</ele>
        <time>2026-05-26T11:19:37.000Z</time>
      </trkpt>
      <trkpt lat="44.66481" lon="5.05497">
        <ele>857</ele>
        <time>2026-05-26T11:19:38.000Z</time>
      </trkpt>
      <trkpt lat="44.66481" lon="5.05497">
        <ele>857</ele>
        <time>2026-05-26T11:19:39.000Z</time>
      </trkpt>
      <trkpt lat="44.66482" lon="5.05498">
        <ele>857</ele>
        <time>2026-05-26T11:19:40.000Z</time>
      </trkpt>
      <trkpt lat="44.66482" lon="5.05498">
        <ele>857</ele>
        <time>2026-05-26T11:19:41.000Z</time>
      </trkpt>
      <trkpt lat="44.66481" lon="5.05497">
        <ele>859</ele>
        <time>2026-05-26T11:19:42.000Z</time>
      </trkpt>
      <trkpt lat="44.6648" lon="5.05497">
        <ele>859</ele>
        <time>2026-05-26T11:19:43.000Z</time>
      </trkpt>
      <trkpt lat="44.6648" lon="5.05497">
        <ele>858</ele>
        <time>2026-05-26T11:19:44.000Z</time>
      </trkpt>
      <trkpt lat="44.6648" lon="5.05495">
        <ele>858</ele>
        <time>2026-05-26T11:19:45.000Z</time>
      </trkpt>
      <trkpt lat="44.66479" lon="5.05496">
        <ele>859</ele>
        <time>2026-05-26T11:19:46.000Z</time>
      </trkpt>
      <trkpt lat="44.66479" lon="5.05497">
        <ele>860</ele>
        <time>2026-05-26T11:19:47.000Z</time>
      </trkpt>
      <trkpt lat="44.66479" lon="5.05497">
        <ele>858</ele>
        <time>2026-05-26T11:19:48.000Z</time>
      </trkpt>
      <trkpt lat="44.66479" lon="5.05497">
        <ele>857</ele>
        <time>2026-05-26T11:19:49.000Z</time>
      </trkpt>
      <trkpt lat="44.66479" lon="5.05497">
        <ele>857</ele>
        <time>2026-05-26T11:19:50.000Z</time>
      </trkpt>
      <trkpt lat="44.66479" lon="5.05497">
        <ele>857</ele>
        <time>2026-05-26T11:19:51.000Z</time>
      </trkpt>
      <trkpt lat="44.66478" lon="5.05496">
        <ele>857</ele>
        <time>2026-05-26T11:19:52.000Z</time>
      </trkpt>
      <trkpt lat="44.66479" lon="5.05496">
        <ele>857</ele>
        <time>2026-05-26T11:19:53.000Z</time>
      </trkpt>
      <trkpt lat="44.6648" lon="5.05496">
        <ele>857</ele>
        <time>2026-05-26T11:19:54.000Z</time>
      </trkpt>
      <trkpt lat="44.66481" lon="5.05496">
        <ele>857</ele>
        <time>2026-05-26T11:19:55.000Z</time>
      </trkpt>
      <trkpt lat="44.6648" lon="5.05496">
        <ele>857</ele>
        <time>2026-05-26T11:19:56.000Z</time>
      </trkpt>
      <trkpt lat="44.66481" lon="5.05496">
        <ele>857</ele>
        <time>2026-05-26T11:19:57.000Z</time>
      </trkpt>
      <trkpt lat="44.66481" lon="5.05496">
        <ele>857</ele>
        <time>2026-05-26T11:19:58.000Z</time>
      </trkpt>
      <trkpt lat="44.66481" lon="5.05496">
        <ele>857</ele>
        <time>2026-05-26T11:19:59.000Z</time>
      </trkpt>
      <trkpt lat="44.6648" lon="5.05498">
        <ele>859</ele>
        <time>2026-05-26T11:20:00.000Z</time>
      </trkpt>
      <trkpt lat="44.6648" lon="5.05499">
        <ele>859</ele>
        <time>2026-05-26T11:20:01.000Z</time>
      </trkpt>
      <trkpt lat="44.6648" lon="5.055">
        <ele>859</ele>
        <time>2026-05-26T11:20:02.000Z</time>
      </trkpt>
      <trkpt lat="44.6648" lon="5.055">
        <ele>860</ele>
        <time>2026-05-26T11:20:03.000Z</time>
      </trkpt>
      <trkpt lat="44.6648" lon="5.055">
        <ele>860</ele>
        <time>2026-05-26T11:20:04.000Z</time>
      </trkpt>
      <trkpt lat="44.6648" lon="5.055">
        <ele>860</ele>
        <time>2026-05-26T11:20:05.000Z</time>
      </trkpt>
      <trkpt lat="44.6648" lon="5.055">
        <ele>860</ele>
        <time>2026-05-26T11:20:06.000Z</time>
      </trkpt>
      <trkpt lat="44.6648" lon="5.055">
        <ele>860</ele>
        <time>2026-05-26T11:20:07.000Z</time>
      </trkpt>
      <trkpt lat="44.6648" lon="5.055">
        <ele>860</ele>
        <time>2026-05-26T11:20:08.000Z</time>
      </trkpt>
      <trkpt lat="44.6648" lon="5.055">
        <ele>860</ele>
        <time>2026-05-26T11:20:09.000Z</time>
      </trkpt>
      <trkpt lat="44.6648" lon="5.055">
        <ele>860</ele>
        <time>2026-05-26T11:20:10.000Z</time>
      </trkpt>
      <trkpt lat="44.6648" lon="5.055">
        <ele>860</ele>
        <time>2026-05-26T11:20:11.000Z</time>
      </trkpt>
      <trkpt lat="44.6648" lon="5.055">
        <ele>860</ele>
        <time>2026-05-26T11:20:12.000Z</time>
      </trkpt>
      <trkpt lat="44.6648" lon="5.055">
        <ele>860</ele>
        <time>2026-05-26T11:20:13.000Z</time>
      </trkpt>
      <trkpt lat="44.6648" lon="5.055">
        <ele>860</ele>
        <time>2026-05-26T11:20:14.000Z</time>
      </trkpt>
      <trkpt lat="44.6648" lon="5.055">
        <ele>860</ele>
        <time>2026-05-26T11:20:15.000Z</time>
      </trkpt>
      <trkpt lat="44.6648" lon="5.055">
        <ele>860</ele>
        <time>2026-05-26T11:20:16.000Z</time>
      </trkpt>
      <trkpt lat="44.6648" lon="5.055">
        <ele>860</ele>
        <time>2026-05-26T11:20:17.000Z</time>
      </trkpt>
      <trkpt lat="44.6648" lon="5.055">
        <ele>860</ele>
        <time>2026-05-26T11:20:18.000Z</time>
      </trkpt>
      <trkpt lat="44.6648" lon="5.055">
        <ele>860</ele>
        <time>2026-05-26T11:20:19.000Z</time>
      </trkpt>
      <trkpt lat="44.6648" lon="5.055">
        <ele>860</ele>
        <time>2026-05-26T11:20:20.000Z</time>
      </trkpt>
      <trkpt lat="44.6648" lon="5.055">
        <ele>860</ele>
        <time>2026-05-26T11:20:21.000Z</time>
      </trkpt>
      <trkpt lat="44.6648" lon="5.055">
        <ele>860</ele>
        <time>2026-05-26T11:20:22.000Z</time>
      </trkpt>
      <trkpt lat="44.6648" lon="5.055">
        <ele>860</ele>
        <time>2026-05-26T11:20:23.000Z</time>
      </trkpt>
      <trkpt lat="44.6648" lon="5.055">
        <ele>860</ele>
        <time>2026-05-26T11:20:24.000Z</time>
      </trkpt>
      <trkpt lat="44.6648" lon="5.055">
        <ele>860</ele>
        <time>2026-05-26T11:20:25.000Z</time>
      </trkpt>
      <trkpt lat="44.6648" lon="5.055">
        <ele>860</ele>
        <time>2026-05-26T11:20:26.000Z</time>
      </trkpt>
      <trkpt lat="44.6648" lon="5.055">
        <ele>860</ele>
        <time>2026-05-26T11:20:27.000Z</time>
      </trkpt>
      <trkpt lat="44.6648" lon="5.055">
        <ele>860</ele>
        <time>2026-05-26T11:20:28.000Z</time>
      </trkpt>
      <trkpt lat="44.6648" lon="5.055">
        <ele>860</ele>
        <time>2026-05-26T11:20:29.000Z</time>
      </trkpt>
      <trkpt lat="44.6648" lon="5.055">
        <ele>860</ele>
        <time>2026-05-26T11:20:30.000Z</time>
      </trkpt>
      <trkpt lat="44.6648" lon="5.055">
        <ele>860</ele>
        <time>2026-05-26T11:20:31.000Z</time>
      </trkpt>
      <trkpt lat="44.6648" lon="5.055">
        <ele>860</ele>
        <time>2026-05-26T11:20:32.000Z</time>
      </trkpt>
      <trkpt lat="44.6648" lon="5.055">
        <ele>860</ele>
        <time>2026-05-26T11:20:33.000Z</time>
      </trkpt>
      <trkpt lat="44.6648" lon="5.055">
        <ele>860</ele>
        <time>2026-05-26T11:20:34.000Z</time>
      </trkpt>
      <trkpt lat="44.6648" lon="5.055">
        <ele>860</ele>
        <time>2026-05-26T11:20:35.000Z</time>
      </trkpt>
      <trkpt lat="44.6648" lon="5.055">
        <ele>860</ele>
        <time>2026-05-26T11:20:36.000Z</time>
      </trkpt>
      <trkpt lat="44.6648" lon="5.055">
        <ele>860</ele>
        <time>2026-05-26T11:20:37.000Z</time>
      </trkpt>
      <trkpt lat="44.6648" lon="5.055">
        <ele>860</ele>
        <time>2026-05-26T11:20:38.000Z</time>
      </trkpt>
      <trkpt lat="44.6648" lon="5.055">
        <ele>860</ele>
        <time>2026-05-26T11:20:39.000Z</time>
      </trkpt>
      <trkpt lat="44.6648" lon="5.055">
        <ele>860</ele>
        <time>2026-05-26T11:20:40.000Z</time>
      </trkpt>
      <trkpt lat="44.6648" lon="5.055">
        <ele>860</ele>
        <time>2026-05-26T11:20:41.000Z</time>
      </trkpt>
      <trkpt lat="44.6648" lon="5.055">
        <ele>860</ele>
        <time>2026-05-26T11:20:42.000Z</time>
      </trkpt>
      <trkpt lat="44.6648" lon="5.055">
        <ele>860</ele>
        <time>2026-05-26T11:20:43.000Z</time>
      </trkpt>
      <trkpt lat="44.6648" lon="5.055">
        <ele>860</ele>
        <time>2026-05-26T11:20:44.000Z</time>
      </trkpt>
      <trkpt lat="44.6648" lon="5.055">
        <ele>860</ele>
        <time>2026-05-26T11:20:45.000Z</time>
      </trkpt>
      <trkpt lat="44.6648" lon="5.055">
        <ele>860</ele>
        <time>2026-05-26T11:20:46.000Z</time>
      </trkpt>
      <trkpt lat="44.6648" lon="5.055">
        <ele>860</ele>
        <time>2026-05-26T11:20:47.000Z</time>
      </trkpt>
      <trkpt lat="44.6648" lon="5.055">
        <ele>860</ele>
        <time>2026-05-26T11:20:48.000Z</time>
      </trkpt>
      <trkpt lat="44.6648" lon="5.05499">
        <ele>859</ele>
        <time>2026-05-26T11:20:49.000Z</time>
      </trkpt>
      <trkpt lat="44.66479" lon="5.05499">
        <ele>858</ele>
        <time>2026-05-26T11:20:50.000Z</time>
      </trkpt>
      <trkpt lat="44.66478" lon="5.05499">
        <ele>858</ele>
        <time>2026-05-26T11:20:51.000Z</time>
      </trkpt>
      <trkpt lat="44.66478" lon="5.05498">
        <ele>857</ele>
        <time>2026-05-26T11:20:52.000Z</time>
      </trkpt>
      <trkpt lat="44.66478" lon="5.05498">
        <ele>857</ele>
        <time>2026-05-26T11:20:53.000Z</time>
      </trkpt>
      <trkpt lat="44.66478" lon="5.05498">
        <ele>857</ele>
        <time>2026-05-26T11:20:54.000Z</time>
      </trkpt>
      <trkpt lat="44.66477" lon="5.05496">
        <ele>857</ele>
        <time>2026-05-26T11:20:55.000Z</time>
      </trkpt>
      <trkpt lat="44.66476" lon="5.05495">
        <ele>857</ele>
        <time>2026-05-26T11:20:56.000Z</time>
      </trkpt>
      <trkpt lat="44.66476" lon="5.05495">
        <ele>857</ele>
        <time>2026-05-26T11:20:57.000Z</time>
      </trkpt>
      <trkpt lat="44.66475" lon="5.05494">
        <ele>856</ele>
        <time>2026-05-26T11:20:58.000Z</time>
      </trkpt>
      <trkpt lat="44.66474" lon="5.05494">
        <ele>856</ele>
        <time>2026-05-26T11:20:59.000Z</time>
      </trkpt>
      <trkpt lat="44.66473" lon="5.05493">
        <ele>856</ele>
        <time>2026-05-26T11:21:00.000Z</time>
      </trkpt>
      <trkpt lat="44.66472" lon="5.05493">
        <ele>856</ele>
        <time>2026-05-26T11:21:01.000Z</time>
      </trkpt>
      <trkpt lat="44.66471" lon="5.05493">
        <ele>856</ele>
        <time>2026-05-26T11:21:02.000Z</time>
      </trkpt>
      <trkpt lat="44.66471" lon="5.05493">
        <ele>856</ele>
        <time>2026-05-26T11:21:03.000Z</time>
      </trkpt>
      <trkpt lat="44.6647" lon="5.05493">
        <ele>856</ele>
        <time>2026-05-26T11:21:04.000Z</time>
      </trkpt>
      <trkpt lat="44.66469" lon="5.05492">
        <ele>855</ele>
        <time>2026-05-26T11:21:05.000Z</time>
      </trkpt>
      <trkpt lat="44.66469" lon="5.05492">
        <ele>855</ele>
        <time>2026-05-26T11:21:06.000Z</time>
      </trkpt>
      <trkpt lat="44.66469" lon="5.05492">
        <ele>855</ele>
        <time>2026-05-26T11:21:07.000Z</time>
      </trkpt>
      <trkpt lat="44.66468" lon="5.05492">
        <ele>854</ele>
        <time>2026-05-26T11:21:08.000Z</time>
      </trkpt>
      <trkpt lat="44.66468" lon="5.05491">
        <ele>854</ele>
        <time>2026-05-26T11:21:09.000Z</time>
      </trkpt>
      <trkpt lat="44.66467" lon="5.0549">
        <ele>854</ele>
        <time>2026-05-26T11:21:10.000Z</time>
      </trkpt>
      <trkpt lat="44.66467" lon="5.05489">
        <ele>854</ele>
        <time>2026-05-26T11:21:11.000Z</time>
      </trkpt>
      <trkpt lat="44.66467" lon="5.05488">
        <ele>854</ele>
        <time>2026-05-26T11:21:12.000Z</time>
      </trkpt>
      <trkpt lat="44.66467" lon="5.05486">
        <ele>854</ele>
        <time>2026-05-26T11:21:13.000Z</time>
      </trkpt>
      <trkpt lat="44.66467" lon="5.05485">
        <ele>854</ele>
        <time>2026-05-26T11:21:14.000Z</time>
      </trkpt>
      <trkpt lat="44.66467" lon="5.05484">
        <ele>854</ele>
        <time>2026-05-26T11:21:15.000Z</time>
      </trkpt>
      <trkpt lat="44.66467" lon="5.05484">
        <ele>854</ele>
        <time>2026-05-26T11:21:16.000Z</time>
      </trkpt>
      <trkpt lat="44.66467" lon="5.05484">
        <ele>854</ele>
        <time>2026-05-26T11:21:17.000Z</time>
      </trkpt>
      <trkpt lat="44.66468" lon="5.05484">
        <ele>854</ele>
        <time>2026-05-26T11:21:18.000Z</time>
      </trkpt>
      <trkpt lat="44.66467" lon="5.05485">
        <ele>853</ele>
        <time>2026-05-26T11:21:19.000Z</time>
      </trkpt>
      <trkpt lat="44.66467" lon="5.05485">
        <ele>853</ele>
        <time>2026-05-26T11:21:20.000Z</time>
      </trkpt>
      <trkpt lat="44.66467" lon="5.05486">
        <ele>852</ele>
        <time>2026-05-26T11:21:21.000Z</time>
      </trkpt>
      <trkpt lat="44.66467" lon="5.05485">
        <ele>852</ele>
        <time>2026-05-26T11:21:22.000Z</time>
      </trkpt>
      <trkpt lat="44.66467" lon="5.05485">
        <ele>852</ele>
        <time>2026-05-26T11:21:23.000Z</time>
      </trkpt>
      <trkpt lat="44.66467" lon="5.05484">
        <ele>852</ele>
        <time>2026-05-26T11:21:24.000Z</time>
      </trkpt>
      <trkpt lat="44.66467" lon="5.05483">
        <ele>852</ele>
        <time>2026-05-26T11:21:25.000Z</time>
      </trkpt>
      <trkpt lat="44.66467" lon="5.05482">
        <ele>853</ele>
        <time>2026-05-26T11:21:26.000Z</time>
      </trkpt>
      <trkpt lat="44.66467" lon="5.05482">
        <ele>853</ele>
        <time>2026-05-26T11:21:27.000Z</time>
      </trkpt>
      <trkpt lat="44.66467" lon="5.05481">
        <ele>853</ele>
        <time>2026-05-26T11:21:28.000Z</time>
      </trkpt>
      <trkpt lat="44.66467" lon="5.05479">
        <ele>853</ele>
        <time>2026-05-26T11:21:29.000Z</time>
      </trkpt>
      <trkpt lat="44.66466" lon="5.05479">
        <ele>852</ele>
        <time>2026-05-26T11:21:30.000Z</time>
      </trkpt>
      <trkpt lat="44.66466" lon="5.05479">
        <ele>852</ele>
        <time>2026-05-26T11:21:31.000Z</time>
      </trkpt>
      <trkpt lat="44.66466" lon="5.0548">
        <ele>852</ele>
        <time>2026-05-26T11:21:32.000Z</time>
      </trkpt>
      <trkpt lat="44.66466" lon="5.0548">
        <ele>852</ele>
        <time>2026-05-26T11:21:33.000Z</time>
      </trkpt>
      <trkpt lat="44.66466" lon="5.0548">
        <ele>852</ele>
        <time>2026-05-26T11:21:34.000Z</time>
      </trkpt>
      <trkpt lat="44.66466" lon="5.05481">
        <ele>852</ele>
        <time>2026-05-26T11:21:35.000Z</time>
      </trkpt>
      <trkpt lat="44.66465" lon="5.05482">
        <ele>851</ele>
        <time>2026-05-26T11:21:36.000Z</time>
      </trkpt>
      <trkpt lat="44.66464" lon="5.05482">
        <ele>851</ele>
        <time>2026-05-26T11:21:37.000Z</time>
      </trkpt>
      <trkpt lat="44.66463" lon="5.05482">
        <ele>851</ele>
        <time>2026-05-26T11:21:38.000Z</time>
      </trkpt>
      <trkpt lat="44.66463" lon="5.05482">
        <ele>851</ele>
        <time>2026-05-26T11:21:39.000Z</time>
      </trkpt>
      <trkpt lat="44.66462" lon="5.05483">
        <ele>851</ele>
        <time>2026-05-26T11:21:40.000Z</time>
      </trkpt>
      <trkpt lat="44.66461" lon="5.05483">
        <ele>851</ele>
        <time>2026-05-26T11:21:41.000Z</time>
      </trkpt>
      <trkpt lat="44.6646" lon="5.05483">
        <ele>851</ele>
        <time>2026-05-26T11:21:42.000Z</time>
      </trkpt>
      <trkpt lat="44.6646" lon="5.05483">
        <ele>851</ele>
        <time>2026-05-26T11:21:43.000Z</time>
      </trkpt>
      <trkpt lat="44.66459" lon="5.05483">
        <ele>851</ele>
        <time>2026-05-26T11:21:44.000Z</time>
      </trkpt>
      <trkpt lat="44.66459" lon="5.05483">
        <ele>850</ele>
        <time>2026-05-26T11:21:45.000Z</time>
      </trkpt>
      <trkpt lat="44.66458" lon="5.05484">
        <ele>850</ele>
        <time>2026-05-26T11:21:46.000Z</time>
      </trkpt>
      <trkpt lat="44.66458" lon="5.05484">
        <ele>849</ele>
        <time>2026-05-26T11:21:47.000Z</time>
      </trkpt>
      <trkpt lat="44.66457" lon="5.05485">
        <ele>848</ele>
        <time>2026-05-26T11:21:48.000Z</time>
      </trkpt>
      <trkpt lat="44.66457" lon="5.05487">
        <ele>848</ele>
        <time>2026-05-26T11:21:49.000Z</time>
      </trkpt>
      <trkpt lat="44.66457" lon="5.05487">
        <ele>848</ele>
        <time>2026-05-26T11:21:50.000Z</time>
      </trkpt>
      <trkpt lat="44.66456" lon="5.05487">
        <ele>847</ele>
        <time>2026-05-26T11:21:51.000Z</time>
      </trkpt>
      <trkpt lat="44.66455" lon="5.05488">
        <ele>847</ele>
        <time>2026-05-26T11:21:52.000Z</time>
      </trkpt>
      <trkpt lat="44.66454" lon="5.05489">
        <ele>847</ele>
        <time>2026-05-26T11:21:53.000Z</time>
      </trkpt>
      <trkpt lat="44.66454" lon="5.0549">
        <ele>846</ele>
        <time>2026-05-26T11:21:54.000Z</time>
      </trkpt>
      <trkpt lat="44.66454" lon="5.0549">
        <ele>846</ele>
        <time>2026-05-26T11:21:55.000Z</time>
      </trkpt>
      <trkpt lat="44.66453" lon="5.0549">
        <ele>846</ele>
        <time>2026-05-26T11:21:56.000Z</time>
      </trkpt>
      <trkpt lat="44.66453" lon="5.0549">
        <ele>846</ele>
        <time>2026-05-26T11:21:57.000Z</time>
      </trkpt>
      <trkpt lat="44.66453" lon="5.0549">
        <ele>846</ele>
        <time>2026-05-26T11:21:58.000Z</time>
      </trkpt>
      <trkpt lat="44.66451" lon="5.0549">
        <ele>845</ele>
        <time>2026-05-26T11:21:59.000Z</time>
      </trkpt>
      <trkpt lat="44.6645" lon="5.05491">
        <ele>844</ele>
        <time>2026-05-26T11:22:00.000Z</time>
      </trkpt>
      <trkpt lat="44.66449" lon="5.05491">
        <ele>844</ele>
        <time>2026-05-26T11:22:01.000Z</time>
      </trkpt>
      <trkpt lat="44.66449" lon="5.05491">
        <ele>844</ele>
        <time>2026-05-26T11:22:02.000Z</time>
      </trkpt>
      <trkpt lat="44.66448" lon="5.05492">
        <ele>844</ele>
        <time>2026-05-26T11:22:03.000Z</time>
      </trkpt>
      <trkpt lat="44.66447" lon="5.05492">
        <ele>843</ele>
        <time>2026-05-26T11:22:04.000Z</time>
      </trkpt>
      <trkpt lat="44.66447" lon="5.05493">
        <ele>843</ele>
        <time>2026-05-26T11:22:05.000Z</time>
      </trkpt>
      <trkpt lat="44.66447" lon="5.05493">
        <ele>843</ele>
        <time>2026-05-26T11:22:06.000Z</time>
      </trkpt>
      <trkpt lat="44.66447" lon="5.05493">
        <ele>843</ele>
        <time>2026-05-26T11:22:07.000Z</time>
      </trkpt>
      <trkpt lat="44.66447" lon="5.05493">
        <ele>843</ele>
        <time>2026-05-26T11:22:08.000Z</time>
      </trkpt>
      <trkpt lat="44.66447" lon="5.05493">
        <ele>843</ele>
        <time>2026-05-26T11:22:09.000Z</time>
      </trkpt>
      <trkpt lat="44.66447" lon="5.05493">
        <ele>843</ele>
        <time>2026-05-26T11:22:10.000Z</time>
      </trkpt>
      <trkpt lat="44.66447" lon="5.05493">
        <ele>843</ele>
        <time>2026-05-26T11:22:11.000Z</time>
      </trkpt>
      <trkpt lat="44.66447" lon="5.05493">
        <ele>843</ele>
        <time>2026-05-26T11:22:12.000Z</time>
      </trkpt>
      <trkpt lat="44.66447" lon="5.05493">
        <ele>843</ele>
        <time>2026-05-26T11:22:13.000Z</time>
      </trkpt>
      <trkpt lat="44.66446" lon="5.05491">
        <ele>843</ele>
        <time>2026-05-26T11:22:14.000Z</time>
      </trkpt>
      <trkpt lat="44.66445" lon="5.05492">
        <ele>843</ele>
        <time>2026-05-26T11:22:15.000Z</time>
      </trkpt>
      <trkpt lat="44.66444" lon="5.05493">
        <ele>843</ele>
        <time>2026-05-26T11:22:16.000Z</time>
      </trkpt>
      <trkpt lat="44.66444" lon="5.05493">
        <ele>843</ele>
        <time>2026-05-26T11:22:17.000Z</time>
      </trkpt>
      <trkpt lat="44.66443" lon="5.05494">
        <ele>843</ele>
        <time>2026-05-26T11:22:18.000Z</time>
      </trkpt>
      <trkpt lat="44.66443" lon="5.05493">
        <ele>843</ele>
        <time>2026-05-26T11:22:19.000Z</time>
      </trkpt>
      <trkpt lat="44.66442" lon="5.05493">
        <ele>842</ele>
        <time>2026-05-26T11:22:20.000Z</time>
      </trkpt>
      <trkpt lat="44.66442" lon="5.05493">
        <ele>842</ele>
        <time>2026-05-26T11:22:21.000Z</time>
      </trkpt>
      <trkpt lat="44.66442" lon="5.05493">
        <ele>842</ele>
        <time>2026-05-26T11:22:22.000Z</time>
      </trkpt>
      <trkpt lat="44.66442" lon="5.05493">
        <ele>842</ele>
        <time>2026-05-26T11:22:23.000Z</time>
      </trkpt>
      <trkpt lat="44.66442" lon="5.05494">
        <ele>843</ele>
        <time>2026-05-26T11:22:24.000Z</time>
      </trkpt>
      <trkpt lat="44.66442" lon="5.05496">
        <ele>843</ele>
        <time>2026-05-26T11:22:25.000Z</time>
      </trkpt>
      <trkpt lat="44.66441" lon="5.05495">
        <ele>843</ele>
        <time>2026-05-26T11:22:26.000Z</time>
      </trkpt>
      <trkpt lat="44.6644" lon="5.05494">
        <ele>842</ele>
        <time>2026-05-26T11:22:27.000Z</time>
      </trkpt>
      <trkpt lat="44.6644" lon="5.05494">
        <ele>843</ele>
        <time>2026-05-26T11:22:28.000Z</time>
      </trkpt>
      <trkpt lat="44.6644" lon="5.05493">
        <ele>843</ele>
        <time>2026-05-26T11:22:29.000Z</time>
      </trkpt>
      <trkpt lat="44.66439" lon="5.05493">
        <ele>842</ele>
        <time>2026-05-26T11:22:30.000Z</time>
      </trkpt>
      <trkpt lat="44.66439" lon="5.05493">
        <ele>842</ele>
        <time>2026-05-26T11:22:31.000Z</time>
      </trkpt>
      <trkpt lat="44.66439" lon="5.05492">
        <ele>841</ele>
        <time>2026-05-26T11:22:32.000Z</time>
      </trkpt>
      <trkpt lat="44.66439" lon="5.05492">
        <ele>841</ele>
        <time>2026-05-26T11:22:33.000Z</time>
      </trkpt>
      <trkpt lat="44.66438" lon="5.05491">
        <ele>839</ele>
        <time>2026-05-26T11:22:34.000Z</time>
      </trkpt>
      <trkpt lat="44.66437" lon="5.05491">
        <ele>839</ele>
        <time>2026-05-26T11:22:35.000Z</time>
      </trkpt>
      <trkpt lat="44.66437" lon="5.05491">
        <ele>839</ele>
        <time>2026-05-26T11:22:36.000Z</time>
      </trkpt>
      <trkpt lat="44.66437" lon="5.05491">
        <ele>839</ele>
        <time>2026-05-26T11:22:37.000Z</time>
      </trkpt>
      <trkpt lat="44.66438" lon="5.05493">
        <ele>838</ele>
        <time>2026-05-26T11:22:38.000Z</time>
      </trkpt>
      <trkpt lat="44.66438" lon="5.05493">
        <ele>837</ele>
        <time>2026-05-26T11:22:39.000Z</time>
      </trkpt>
      <trkpt lat="44.66437" lon="5.05494">
        <ele>837</ele>
        <time>2026-05-26T11:22:40.000Z</time>
      </trkpt>
      <trkpt lat="44.66437" lon="5.05495">
        <ele>836</ele>
        <time>2026-05-26T11:22:41.000Z</time>
      </trkpt>
      <trkpt lat="44.66436" lon="5.05495">
        <ele>835</ele>
        <time>2026-05-26T11:22:42.000Z</time>
      </trkpt>
      <trkpt lat="44.66437" lon="5.05497">
        <ele>836</ele>
        <time>2026-05-26T11:22:43.000Z</time>
      </trkpt>
      <trkpt lat="44.66437" lon="5.05498">
        <ele>835</ele>
        <time>2026-05-26T11:22:44.000Z</time>
      </trkpt>
      <trkpt lat="44.66437" lon="5.055">
        <ele>835</ele>
        <time>2026-05-26T11:22:45.000Z</time>
      </trkpt>
      <trkpt lat="44.66437" lon="5.05501">
        <ele>835</ele>
        <time>2026-05-26T11:22:46.000Z</time>
      </trkpt>
      <trkpt lat="44.66437" lon="5.05502">
        <ele>836</ele>
        <time>2026-05-26T11:22:47.000Z</time>
      </trkpt>
      <trkpt lat="44.66437" lon="5.05503">
        <ele>836</ele>
        <time>2026-05-26T11:22:48.000Z</time>
      </trkpt>
      <trkpt lat="44.66436" lon="5.05503">
        <ele>836</ele>
        <time>2026-05-26T11:22:49.000Z</time>
      </trkpt>
      <trkpt lat="44.66437" lon="5.05503">
        <ele>836</ele>
        <time>2026-05-26T11:22:50.000Z</time>
      </trkpt>
      <trkpt lat="44.66436" lon="5.05504">
        <ele>836</ele>
        <time>2026-05-26T11:22:51.000Z</time>
      </trkpt>
      <trkpt lat="44.66434" lon="5.05506">
        <ele>836</ele>
        <time>2026-05-26T11:22:52.000Z</time>
      </trkpt>
      <trkpt lat="44.66434" lon="5.05507">
        <ele>836</ele>
        <time>2026-05-26T11:22:53.000Z</time>
      </trkpt>
      <trkpt lat="44.66435" lon="5.05507">
        <ele>836</ele>
        <time>2026-05-26T11:22:54.000Z</time>
      </trkpt>
      <trkpt lat="44.66434" lon="5.05507">
        <ele>835</ele>
        <time>2026-05-26T11:22:55.000Z</time>
      </trkpt>
      <trkpt lat="44.66434" lon="5.05508">
        <ele>835</ele>
        <time>2026-05-26T11:22:56.000Z</time>
      </trkpt>
      <trkpt lat="44.66434" lon="5.05509">
        <ele>834</ele>
        <time>2026-05-26T11:22:57.000Z</time>
      </trkpt>
      <trkpt lat="44.66435" lon="5.05509">
        <ele>834</ele>
        <time>2026-05-26T11:22:58.000Z</time>
      </trkpt>
      <trkpt lat="44.66435" lon="5.05509">
        <ele>834</ele>
        <time>2026-05-26T11:22:59.000Z</time>
      </trkpt>
      <trkpt lat="44.66435" lon="5.05509">
        <ele>834</ele>
        <time>2026-05-26T11:23:00.000Z</time>
      </trkpt>
      <trkpt lat="44.66435" lon="5.05509">
        <ele>834</ele>
        <time>2026-05-26T11:23:01.000Z</time>
      </trkpt>
      <trkpt lat="44.66435" lon="5.05509">
        <ele>834</ele>
        <time>2026-05-26T11:23:02.000Z</time>
      </trkpt>
      <trkpt lat="44.66433" lon="5.05508">
        <ele>832</ele>
        <time>2026-05-26T11:23:03.000Z</time>
      </trkpt>
      <trkpt lat="44.66433" lon="5.05508">
        <ele>831</ele>
        <time>2026-05-26T11:23:04.000Z</time>
      </trkpt>
      <trkpt lat="44.66431" lon="5.05508">
        <ele>831</ele>
        <time>2026-05-26T11:23:05.000Z</time>
      </trkpt>
      <trkpt lat="44.6643" lon="5.05508">
        <ele>831</ele>
        <time>2026-05-26T11:23:06.000Z</time>
      </trkpt>
      <trkpt lat="44.6643" lon="5.05508">
        <ele>831</ele>
        <time>2026-05-26T11:23:07.000Z</time>
      </trkpt>
      <trkpt lat="44.6643" lon="5.05508">
        <ele>831</ele>
        <time>2026-05-26T11:23:08.000Z</time>
      </trkpt>
      <trkpt lat="44.66428" lon="5.05507">
        <ele>830</ele>
        <time>2026-05-26T11:23:09.000Z</time>
      </trkpt>
      <trkpt lat="44.66428" lon="5.05508">
        <ele>829</ele>
        <time>2026-05-26T11:23:10.000Z</time>
      </trkpt>
      <trkpt lat="44.66426" lon="5.05509">
        <ele>829</ele>
        <time>2026-05-26T11:23:11.000Z</time>
      </trkpt>
      <trkpt lat="44.66425" lon="5.05511">
        <ele>829</ele>
        <time>2026-05-26T11:23:12.000Z</time>
      </trkpt>
      <trkpt lat="44.66425" lon="5.05512">
        <ele>828</ele>
        <time>2026-05-26T11:23:13.000Z</time>
      </trkpt>
      <trkpt lat="44.66426" lon="5.05512">
        <ele>829</ele>
        <time>2026-05-26T11:23:14.000Z</time>
      </trkpt>
      <trkpt lat="44.66426" lon="5.05512">
        <ele>828</ele>
        <time>2026-05-26T11:23:15.000Z</time>
      </trkpt>
      <trkpt lat="44.66424" lon="5.05512">
        <ele>827</ele>
        <time>2026-05-26T11:23:16.000Z</time>
      </trkpt>
      <trkpt lat="44.66425" lon="5.05513">
        <ele>828</ele>
        <time>2026-05-26T11:23:17.000Z</time>
      </trkpt>
      <trkpt lat="44.66425" lon="5.05513">
        <ele>828</ele>
        <time>2026-05-26T11:23:18.000Z</time>
      </trkpt>
      <trkpt lat="44.66425" lon="5.05513">
        <ele>828</ele>
        <time>2026-05-26T11:23:19.000Z</time>
      </trkpt>
      <trkpt lat="44.66425" lon="5.05513">
        <ele>828</ele>
        <time>2026-05-26T11:23:20.000Z</time>
      </trkpt>
      <trkpt lat="44.66425" lon="5.05513">
        <ele>828</ele>
        <time>2026-05-26T11:23:21.000Z</time>
      </trkpt>
      <trkpt lat="44.66425" lon="5.05513">
        <ele>828</ele>
        <time>2026-05-26T11:23:22.000Z</time>
      </trkpt>
      <trkpt lat="44.66424" lon="5.05516">
        <ele>827</ele>
        <time>2026-05-26T11:23:23.000Z</time>
      </trkpt>
      <trkpt lat="44.66424" lon="5.05517">
        <ele>827</ele>
        <time>2026-05-26T11:23:24.000Z</time>
      </trkpt>
      <trkpt lat="44.66425" lon="5.05517">
        <ele>827</ele>
        <time>2026-05-26T11:23:25.000Z</time>
      </trkpt>
      <trkpt lat="44.66425" lon="5.05517">
        <ele>827</ele>
        <time>2026-05-26T11:23:26.000Z</time>
      </trkpt>
      <trkpt lat="44.66425" lon="5.05517">
        <ele>827</ele>
        <time>2026-05-26T11:23:27.000Z</time>
      </trkpt>
      <trkpt lat="44.66425" lon="5.05517">
        <ele>827</ele>
        <time>2026-05-26T11:23:28.000Z</time>
      </trkpt>
      <trkpt lat="44.66425" lon="5.05517">
        <ele>827</ele>
        <time>2026-05-26T11:23:29.000Z</time>
      </trkpt>
      <trkpt lat="44.66425" lon="5.05517">
        <ele>827</ele>
        <time>2026-05-26T11:23:30.000Z</time>
      </trkpt>
      <trkpt lat="44.66425" lon="5.05517">
        <ele>827</ele>
        <time>2026-05-26T11:23:31.000Z</time>
      </trkpt>
      <trkpt lat="44.66425" lon="5.05517">
        <ele>827</ele>
        <time>2026-05-26T11:23:32.000Z</time>
      </trkpt>
      <trkpt lat="44.66425" lon="5.05517">
        <ele>827</ele>
        <time>2026-05-26T11:23:33.000Z</time>
      </trkpt>
      <trkpt lat="44.66425" lon="5.05517">
        <ele>827</ele>
        <time>2026-05-26T11:23:34.000Z</time>
      </trkpt>
      <trkpt lat="44.66425" lon="5.05517">
        <ele>827</ele>
        <time>2026-05-26T11:23:35.000Z</time>
      </trkpt>
      <trkpt lat="44.66425" lon="5.05517">
        <ele>827</ele>
        <time>2026-05-26T11:23:36.000Z</time>
      </trkpt>
      <trkpt lat="44.66425" lon="5.05517">
        <ele>827</ele>
        <time>2026-05-26T11:23:37.000Z</time>
      </trkpt>
      <trkpt lat="44.66425" lon="5.05517">
        <ele>827</ele>
        <time>2026-05-26T11:23:38.000Z</time>
      </trkpt>
      <trkpt lat="44.66425" lon="5.05517">
        <ele>827</ele>
        <time>2026-05-26T11:23:39.000Z</time>
      </trkpt>
      <trkpt lat="44.66425" lon="5.05517">
        <ele>827</ele>
        <time>2026-05-26T11:23:40.000Z</time>
      </trkpt>
      <trkpt lat="44.66425" lon="5.05517">
        <ele>827</ele>
        <time>2026-05-26T11:23:41.000Z</time>
      </trkpt>
      <trkpt lat="44.66424" lon="5.05515">
        <ele>828</ele>
        <time>2026-05-26T11:23:42.000Z</time>
      </trkpt>
      <trkpt lat="44.66425" lon="5.05516">
        <ele>829</ele>
        <time>2026-05-26T11:23:43.000Z</time>
      </trkpt>
      <trkpt lat="44.66426" lon="5.05517">
        <ele>827</ele>
        <time>2026-05-26T11:23:44.000Z</time>
      </trkpt>
      <trkpt lat="44.66426" lon="5.05519">
        <ele>828</ele>
        <time>2026-05-26T11:23:45.000Z</time>
      </trkpt>
      <trkpt lat="44.66423" lon="5.0552">
        <ele>829</ele>
        <time>2026-05-26T11:23:46.000Z</time>
      </trkpt>
      <trkpt lat="44.66423" lon="5.0552">
        <ele>827</ele>
        <time>2026-05-26T11:23:47.000Z</time>
      </trkpt>
      <trkpt lat="44.66423" lon="5.05521">
        <ele>826</ele>
        <time>2026-05-26T11:23:48.000Z</time>
      </trkpt>
      <trkpt lat="44.66423" lon="5.05522">
        <ele>826</ele>
        <time>2026-05-26T11:23:49.000Z</time>
      </trkpt>
      <trkpt lat="44.66424" lon="5.05521">
        <ele>825</ele>
        <time>2026-05-26T11:23:50.000Z</time>
      </trkpt>
      <trkpt lat="44.66424" lon="5.05521">
        <ele>825</ele>
        <time>2026-05-26T11:23:51.000Z</time>
      </trkpt>
      <trkpt lat="44.66424" lon="5.05521">
        <ele>825</ele>
        <time>2026-05-26T11:23:52.000Z</time>
      </trkpt>
      <trkpt lat="44.66424" lon="5.05521">
        <ele>825</ele>
        <time>2026-05-26T11:23:53.000Z</time>
      </trkpt>
      <trkpt lat="44.66424" lon="5.05521">
        <ele>825</ele>
        <time>2026-05-26T11:23:54.000Z</time>
      </trkpt>
      <trkpt lat="44.66423" lon="5.05521">
        <ele>825</ele>
        <time>2026-05-26T11:23:55.000Z</time>
      </trkpt>
      <trkpt lat="44.66422" lon="5.05521">
        <ele>824</ele>
        <time>2026-05-26T11:23:56.000Z</time>
      </trkpt>
      <trkpt lat="44.66422" lon="5.05521">
        <ele>823</ele>
        <time>2026-05-26T11:23:57.000Z</time>
      </trkpt>
      <trkpt lat="44.66422" lon="5.0552">
        <ele>823</ele>
        <time>2026-05-26T11:23:58.000Z</time>
      </trkpt>
      <trkpt lat="44.66422" lon="5.05519">
        <ele>822</ele>
        <time>2026-05-26T11:23:59.000Z</time>
      </trkpt>
      <trkpt lat="44.66421" lon="5.05519">
        <ele>822</ele>
        <time>2026-05-26T11:24:00.000Z</time>
      </trkpt>
      <trkpt lat="44.66421" lon="5.05519">
        <ele>822</ele>
        <time>2026-05-26T11:24:01.000Z</time>
      </trkpt>
      <trkpt lat="44.66422" lon="5.05521">
        <ele>822</ele>
        <time>2026-05-26T11:24:02.000Z</time>
      </trkpt>
      <trkpt lat="44.66421" lon="5.0552">
        <ele>821</ele>
        <time>2026-05-26T11:24:03.000Z</time>
      </trkpt>
      <trkpt lat="44.6642" lon="5.05521">
        <ele>821</ele>
        <time>2026-05-26T11:24:04.000Z</time>
      </trkpt>
      <trkpt lat="44.66419" lon="5.05521">
        <ele>819</ele>
        <time>2026-05-26T11:24:05.000Z</time>
      </trkpt>
      <trkpt lat="44.66418" lon="5.05522">
        <ele>820</ele>
        <time>2026-05-26T11:24:06.000Z</time>
      </trkpt>
      <trkpt lat="44.66418" lon="5.05524">
        <ele>820</ele>
        <time>2026-05-26T11:24:07.000Z</time>
      </trkpt>
      <trkpt lat="44.66417" lon="5.05526">
        <ele>821</ele>
        <time>2026-05-26T11:24:08.000Z</time>
      </trkpt>
      <trkpt lat="44.66418" lon="5.05526">
        <ele>820</ele>
        <time>2026-05-26T11:24:09.000Z</time>
      </trkpt>
      <trkpt lat="44.66418" lon="5.05526">
        <ele>822</ele>
        <time>2026-05-26T11:24:10.000Z</time>
      </trkpt>
      <trkpt lat="44.66418" lon="5.05525">
        <ele>822</ele>
        <time>2026-05-26T11:24:11.000Z</time>
      </trkpt>
      <trkpt lat="44.66418" lon="5.05525">
        <ele>822</ele>
        <time>2026-05-26T11:24:12.000Z</time>
      </trkpt>
      <trkpt lat="44.66418" lon="5.05525">
        <ele>822</ele>
        <time>2026-05-26T11:24:13.000Z</time>
      </trkpt>
      <trkpt lat="44.66418" lon="5.05525">
        <ele>822</ele>
        <time>2026-05-26T11:24:14.000Z</time>
      </trkpt>
      <trkpt lat="44.66418" lon="5.05525">
        <ele>822</ele>
        <time>2026-05-26T11:24:15.000Z</time>
      </trkpt>
      <trkpt lat="44.66418" lon="5.05525">
        <ele>822</ele>
        <time>2026-05-26T11:24:16.000Z</time>
      </trkpt>
      <trkpt lat="44.66418" lon="5.05525">
        <ele>822</ele>
        <time>2026-05-26T11:24:17.000Z</time>
      </trkpt>
      <trkpt lat="44.66418" lon="5.05524">
        <ele>821</ele>
        <time>2026-05-26T11:24:18.000Z</time>
      </trkpt>
      <trkpt lat="44.66418" lon="5.05523">
        <ele>821</ele>
        <time>2026-05-26T11:24:19.000Z</time>
      </trkpt>
      <trkpt lat="44.66419" lon="5.05522">
        <ele>821</ele>
        <time>2026-05-26T11:24:20.000Z</time>
      </trkpt>
      <trkpt lat="44.66419" lon="5.05521">
        <ele>821</ele>
        <time>2026-05-26T11:24:21.000Z</time>
      </trkpt>
      <trkpt lat="44.66419" lon="5.05523">
        <ele>821</ele>
        <time>2026-05-26T11:24:22.000Z</time>
      </trkpt>
      <trkpt lat="44.66419" lon="5.05523">
        <ele>821</ele>
        <time>2026-05-26T11:24:23.000Z</time>
      </trkpt>
      <trkpt lat="44.66418" lon="5.05524">
        <ele>821</ele>
        <time>2026-05-26T11:24:24.000Z</time>
      </trkpt>
      <trkpt lat="44.66418" lon="5.05525">
        <ele>821</ele>
        <time>2026-05-26T11:24:25.000Z</time>
      </trkpt>
      <trkpt lat="44.66418" lon="5.05526">
        <ele>820</ele>
        <time>2026-05-26T11:24:26.000Z</time>
      </trkpt>
      <trkpt lat="44.66418" lon="5.05527">
        <ele>819</ele>
        <time>2026-05-26T11:24:27.000Z</time>
      </trkpt>
      <trkpt lat="44.66417" lon="5.0553">
        <ele>820</ele>
        <time>2026-05-26T11:24:28.000Z</time>
      </trkpt>
      <trkpt lat="44.66416" lon="5.05531">
        <ele>820</ele>
        <time>2026-05-26T11:24:29.000Z</time>
      </trkpt>
      <trkpt lat="44.66416" lon="5.05531">
        <ele>819</ele>
        <time>2026-05-26T11:24:30.000Z</time>
      </trkpt>
      <trkpt lat="44.66417" lon="5.05531">
        <ele>820</ele>
        <time>2026-05-26T11:24:31.000Z</time>
      </trkpt>
      <trkpt lat="44.66418" lon="5.05532">
        <ele>819</ele>
        <time>2026-05-26T11:24:32.000Z</time>
      </trkpt>
      <trkpt lat="44.66419" lon="5.05532">
        <ele>819</ele>
        <time>2026-05-26T11:24:33.000Z</time>
      </trkpt>
      <trkpt lat="44.66419" lon="5.05531">
        <ele>819</ele>
        <time>2026-05-26T11:24:34.000Z</time>
      </trkpt>
      <trkpt lat="44.6642" lon="5.05532">
        <ele>819</ele>
        <time>2026-05-26T11:24:35.000Z</time>
      </trkpt>
      <trkpt lat="44.6642" lon="5.05533">
        <ele>820</ele>
        <time>2026-05-26T11:24:36.000Z</time>
      </trkpt>
      <trkpt lat="44.6642" lon="5.05532">
        <ele>821</ele>
        <time>2026-05-26T11:24:37.000Z</time>
      </trkpt>
      <trkpt lat="44.6642" lon="5.05532">
        <ele>821</ele>
        <time>2026-05-26T11:24:38.000Z</time>
      </trkpt>
      <trkpt lat="44.66419" lon="5.05534">
        <ele>820</ele>
        <time>2026-05-26T11:24:39.000Z</time>
      </trkpt>
      <trkpt lat="44.66421" lon="5.05531">
        <ele>821</ele>
        <time>2026-05-26T11:24:40.000Z</time>
      </trkpt>
      <trkpt lat="44.6642" lon="5.0553">
        <ele>821</ele>
        <time>2026-05-26T11:24:41.000Z</time>
      </trkpt>
      <trkpt lat="44.6642" lon="5.0553">
        <ele>822</ele>
        <time>2026-05-26T11:24:42.000Z</time>
      </trkpt>
      <trkpt lat="44.6642" lon="5.0553">
        <ele>822</ele>
        <time>2026-05-26T11:24:43.000Z</time>
      </trkpt>
      <trkpt lat="44.6642" lon="5.05531">
        <ele>822</ele>
        <time>2026-05-26T11:24:44.000Z</time>
      </trkpt>
      <trkpt lat="44.6642" lon="5.0553">
        <ele>822</ele>
        <time>2026-05-26T11:24:45.000Z</time>
      </trkpt>
      <trkpt lat="44.66421" lon="5.05529">
        <ele>822</ele>
        <time>2026-05-26T11:24:46.000Z</time>
      </trkpt>
      <trkpt lat="44.66421" lon="5.0553">
        <ele>822</ele>
        <time>2026-05-26T11:24:47.000Z</time>
      </trkpt>
      <trkpt lat="44.66421" lon="5.05531">
        <ele>823</ele>
        <time>2026-05-26T11:24:48.000Z</time>
      </trkpt>
      <trkpt lat="44.66421" lon="5.05534">
        <ele>823</ele>
        <time>2026-05-26T11:24:49.000Z</time>
      </trkpt>
      <trkpt lat="44.66422" lon="5.05536">
        <ele>822</ele>
        <time>2026-05-26T11:24:50.000Z</time>
      </trkpt>
      <trkpt lat="44.66422" lon="5.05538">
        <ele>823</ele>
        <time>2026-05-26T11:24:51.000Z</time>
      </trkpt>
      <trkpt lat="44.66423" lon="5.05538">
        <ele>822</ele>
        <time>2026-05-26T11:24:52.000Z</time>
      </trkpt>
      <trkpt lat="44.66422" lon="5.05538">
        <ele>822</ele>
        <time>2026-05-26T11:24:53.000Z</time>
      </trkpt>
      <trkpt lat="44.66423" lon="5.05537">
        <ele>822</ele>
        <time>2026-05-26T11:24:54.000Z</time>
      </trkpt>
      <trkpt lat="44.66425" lon="5.05538">
        <ele>822</ele>
        <time>2026-05-26T11:24:55.000Z</time>
      </trkpt>
      <trkpt lat="44.66425" lon="5.05539">
        <ele>822</ele>
        <time>2026-05-26T11:24:56.000Z</time>
      </trkpt>
      <trkpt lat="44.66426" lon="5.05538">
        <ele>822</ele>
        <time>2026-05-26T11:24:57.000Z</time>
      </trkpt>
      <trkpt lat="44.66426" lon="5.05537">
        <ele>821</ele>
        <time>2026-05-26T11:24:58.000Z</time>
      </trkpt>
      <trkpt lat="44.66426" lon="5.05537">
        <ele>821</ele>
        <time>2026-05-26T11:24:59.000Z</time>
      </trkpt>
      <trkpt lat="44.66426" lon="5.05537">
        <ele>821</ele>
        <time>2026-05-26T11:25:00.000Z</time>
      </trkpt>
      <trkpt lat="44.66426" lon="5.05537">
        <ele>821</ele>
        <time>2026-05-26T11:25:01.000Z</time>
      </trkpt>
      <trkpt lat="44.66424" lon="5.05537">
        <ele>820</ele>
        <time>2026-05-26T11:25:02.000Z</time>
      </trkpt>
      <trkpt lat="44.66423" lon="5.05538">
        <ele>819</ele>
        <time>2026-05-26T11:25:03.000Z</time>
      </trkpt>
      <trkpt lat="44.66423" lon="5.05539">
        <ele>818</ele>
        <time>2026-05-26T11:25:04.000Z</time>
      </trkpt>
      <trkpt lat="44.66422" lon="5.0554">
        <ele>817</ele>
        <time>2026-05-26T11:25:05.000Z</time>
      </trkpt>
      <trkpt lat="44.66423" lon="5.05541">
        <ele>817</ele>
        <time>2026-05-26T11:25:06.000Z</time>
      </trkpt>
      <trkpt lat="44.66423" lon="5.05543">
        <ele>816</ele>
        <time>2026-05-26T11:25:07.000Z</time>
      </trkpt>
      <trkpt lat="44.66423" lon="5.05543">
        <ele>816</ele>
        <time>2026-05-26T11:25:08.000Z</time>
      </trkpt>
      <trkpt lat="44.66423" lon="5.05543">
        <ele>817</ele>
        <time>2026-05-26T11:25:09.000Z</time>
      </trkpt>
      <trkpt lat="44.66422" lon="5.05542">
        <ele>815</ele>
        <time>2026-05-26T11:25:10.000Z</time>
      </trkpt>
      <trkpt lat="44.66423" lon="5.05543">
        <ele>816</ele>
        <time>2026-05-26T11:25:11.000Z</time>
      </trkpt>
      <trkpt lat="44.66423" lon="5.05542">
        <ele>815</ele>
        <time>2026-05-26T11:25:12.000Z</time>
      </trkpt>
      <trkpt lat="44.66423" lon="5.05542">
        <ele>815</ele>
        <time>2026-05-26T11:25:13.000Z</time>
      </trkpt>
      <trkpt lat="44.66423" lon="5.05542">
        <ele>815</ele>
        <time>2026-05-26T11:25:14.000Z</time>
      </trkpt>
      <trkpt lat="44.66423" lon="5.05542">
        <ele>815</ele>
        <time>2026-05-26T11:25:15.000Z</time>
      </trkpt>
      <trkpt lat="44.66423" lon="5.05542">
        <ele>815</ele>
        <time>2026-05-26T11:25:16.000Z</time>
      </trkpt>
      <trkpt lat="44.66423" lon="5.05542">
        <ele>815</ele>
        <time>2026-05-26T11:25:17.000Z</time>
      </trkpt>
      <trkpt lat="44.66423" lon="5.05542">
        <ele>815</ele>
        <time>2026-05-26T11:25:18.000Z</time>
      </trkpt>
      <trkpt lat="44.66423" lon="5.05542">
        <ele>815</ele>
        <time>2026-05-26T11:25:19.000Z</time>
      </trkpt>
      <trkpt lat="44.66423" lon="5.05542">
        <ele>815</ele>
        <time>2026-05-26T11:25:20.000Z</time>
      </trkpt>
      <trkpt lat="44.66423" lon="5.05542">
        <ele>815</ele>
        <time>2026-05-26T11:25:21.000Z</time>
      </trkpt>
      <trkpt lat="44.66424" lon="5.05542">
        <ele>814</ele>
        <time>2026-05-26T11:25:22.000Z</time>
      </trkpt>
      <trkpt lat="44.66424" lon="5.05542">
        <ele>813</ele>
        <time>2026-05-26T11:25:23.000Z</time>
      </trkpt>
      <trkpt lat="44.66424" lon="5.05542">
        <ele>813</ele>
        <time>2026-05-26T11:25:24.000Z</time>
      </trkpt>
      <trkpt lat="44.66426" lon="5.05542">
        <ele>813</ele>
        <time>2026-05-26T11:25:25.000Z</time>
      </trkpt>
      <trkpt lat="44.66426" lon="5.05543">
        <ele>813</ele>
        <time>2026-05-26T11:25:26.000Z</time>
      </trkpt>
      <trkpt lat="44.66426" lon="5.05543">
        <ele>813</ele>
        <time>2026-05-26T11:25:27.000Z</time>
      </trkpt>
      <trkpt lat="44.66427" lon="5.05542">
        <ele>813</ele>
        <time>2026-05-26T11:25:28.000Z</time>
      </trkpt>
      <trkpt lat="44.66427" lon="5.05542">
        <ele>813</ele>
        <time>2026-05-26T11:25:29.000Z</time>
      </trkpt>
      <trkpt lat="44.66427" lon="5.05542">
        <ele>813</ele>
        <time>2026-05-26T11:25:30.000Z</time>
      </trkpt>
      <trkpt lat="44.66427" lon="5.05542">
        <ele>813</ele>
        <time>2026-05-26T11:25:31.000Z</time>
      </trkpt>
      <trkpt lat="44.66426" lon="5.05542">
        <ele>812</ele>
        <time>2026-05-26T11:25:32.000Z</time>
      </trkpt>
      <trkpt lat="44.66424" lon="5.05545">
        <ele>811</ele>
        <time>2026-05-26T11:25:33.000Z</time>
      </trkpt>
      <trkpt lat="44.66424" lon="5.05546">
        <ele>811</ele>
        <time>2026-05-26T11:25:34.000Z</time>
      </trkpt>
      <trkpt lat="44.66425" lon="5.05547">
        <ele>811</ele>
        <time>2026-05-26T11:25:35.000Z</time>
      </trkpt>
      <trkpt lat="44.66425" lon="5.05547">
        <ele>811</ele>
        <time>2026-05-26T11:25:36.000Z</time>
      </trkpt>
      <trkpt lat="44.66426" lon="5.05549">
        <ele>811</ele>
        <time>2026-05-26T11:25:37.000Z</time>
      </trkpt>
      <trkpt lat="44.66426" lon="5.05551">
        <ele>812</ele>
        <time>2026-05-26T11:25:38.000Z</time>
      </trkpt>
      <trkpt lat="44.66426" lon="5.05551">
        <ele>812</ele>
        <time>2026-05-26T11:25:39.000Z</time>
      </trkpt>
      <trkpt lat="44.66426" lon="5.05552">
        <ele>813</ele>
        <time>2026-05-26T11:25:40.000Z</time>
      </trkpt>
      <trkpt lat="44.66426" lon="5.05553">
        <ele>813</ele>
        <time>2026-05-26T11:25:41.000Z</time>
      </trkpt>
      <trkpt lat="44.66426" lon="5.05553">
        <ele>812</ele>
        <time>2026-05-26T11:25:42.000Z</time>
      </trkpt>
      <trkpt lat="44.66426" lon="5.05553">
        <ele>813</ele>
        <time>2026-05-26T11:25:43.000Z</time>
      </trkpt>
      <trkpt lat="44.66426" lon="5.05552">
        <ele>812</ele>
        <time>2026-05-26T11:25:44.000Z</time>
      </trkpt>
      <trkpt lat="44.66426" lon="5.05552">
        <ele>811</ele>
        <time>2026-05-26T11:25:45.000Z</time>
      </trkpt>
      <trkpt lat="44.66426" lon="5.05553">
        <ele>810</ele>
        <time>2026-05-26T11:25:46.000Z</time>
      </trkpt>
      <trkpt lat="44.66426" lon="5.05553">
        <ele>810</ele>
        <time>2026-05-26T11:25:47.000Z</time>
      </trkpt>
      <trkpt lat="44.66426" lon="5.05553">
        <ele>810</ele>
        <time>2026-05-26T11:25:48.000Z</time>
      </trkpt>
      <trkpt lat="44.66424" lon="5.05553">
        <ele>810</ele>
        <time>2026-05-26T11:25:49.000Z</time>
      </trkpt>
      <trkpt lat="44.66424" lon="5.05554">
        <ele>810</ele>
        <time>2026-05-26T11:25:50.000Z</time>
      </trkpt>
      <trkpt lat="44.66425" lon="5.05554">
        <ele>809</ele>
        <time>2026-05-26T11:25:51.000Z</time>
      </trkpt>
      <trkpt lat="44.66425" lon="5.05554">
        <ele>807</ele>
        <time>2026-05-26T11:25:52.000Z</time>
      </trkpt>
      <trkpt lat="44.66425" lon="5.05555">
        <ele>807</ele>
        <time>2026-05-26T11:25:53.000Z</time>
      </trkpt>
      <trkpt lat="44.66425" lon="5.05554">
        <ele>807</ele>
        <time>2026-05-26T11:25:54.000Z</time>
      </trkpt>
      <trkpt lat="44.66425" lon="5.05555">
        <ele>807</ele>
        <time>2026-05-26T11:25:55.000Z</time>
      </trkpt>
      <trkpt lat="44.66425" lon="5.05555">
        <ele>806</ele>
        <time>2026-05-26T11:25:56.000Z</time>
      </trkpt>
      <trkpt lat="44.66424" lon="5.05556">
        <ele>806</ele>
        <time>2026-05-26T11:25:57.000Z</time>
      </trkpt>
      <trkpt lat="44.66424" lon="5.05556">
        <ele>806</ele>
        <time>2026-05-26T11:25:58.000Z</time>
      </trkpt>
      <trkpt lat="44.66424" lon="5.05556">
        <ele>806</ele>
        <time>2026-05-26T11:25:59.000Z</time>
      </trkpt>
      <trkpt lat="44.66424" lon="5.05556">
        <ele>806</ele>
        <time>2026-05-26T11:26:00.000Z</time>
      </trkpt>
      <trkpt lat="44.66424" lon="5.05556">
        <ele>806</ele>
        <time>2026-05-26T11:26:01.000Z</time>
      </trkpt>
      <trkpt lat="44.66424" lon="5.05556">
        <ele>806</ele>
        <time>2026-05-26T11:26:02.000Z</time>
      </trkpt>
      <trkpt lat="44.66424" lon="5.05556">
        <ele>806</ele>
        <time>2026-05-26T11:26:03.000Z</time>
      </trkpt>
      <trkpt lat="44.66424" lon="5.05556">
        <ele>806</ele>
        <time>2026-05-26T11:26:04.000Z</time>
      </trkpt>
      <trkpt lat="44.66421" lon="5.0556">
        <ele>804</ele>
        <time>2026-05-26T11:26:05.000Z</time>
      </trkpt>
      <trkpt lat="44.66421" lon="5.05559">
        <ele>804</ele>
        <time>2026-05-26T11:26:06.000Z</time>
      </trkpt>
      <trkpt lat="44.66421" lon="5.05559">
        <ele>803</ele>
        <time>2026-05-26T11:26:07.000Z</time>
      </trkpt>
      <trkpt lat="44.6642" lon="5.05558">
        <ele>803</ele>
        <time>2026-05-26T11:26:08.000Z</time>
      </trkpt>
      <trkpt lat="44.66419" lon="5.05558">
        <ele>802</ele>
        <time>2026-05-26T11:26:09.000Z</time>
      </trkpt>
      <trkpt lat="44.66419" lon="5.05558">
        <ele>802</ele>
        <time>2026-05-26T11:26:10.000Z</time>
      </trkpt>
      <trkpt lat="44.66419" lon="5.05558">
        <ele>802</ele>
        <time>2026-05-26T11:26:11.000Z</time>
      </trkpt>
      <trkpt lat="44.66417" lon="5.05559">
        <ele>799</ele>
        <time>2026-05-26T11:26:12.000Z</time>
      </trkpt>
      <trkpt lat="44.66417" lon="5.05559">
        <ele>798</ele>
        <time>2026-05-26T11:26:13.000Z</time>
      </trkpt>
      <trkpt lat="44.66417" lon="5.0556">
        <ele>796</ele>
        <time>2026-05-26T11:26:14.000Z</time>
      </trkpt>
      <trkpt lat="44.66416" lon="5.0556">
        <ele>799</ele>
        <time>2026-05-26T11:26:15.000Z</time>
      </trkpt>
      <trkpt lat="44.66416" lon="5.0556">
        <ele>799</ele>
        <time>2026-05-26T11:26:16.000Z</time>
      </trkpt>
      <trkpt lat="44.66416" lon="5.0556">
        <ele>799</ele>
        <time>2026-05-26T11:26:17.000Z</time>
      </trkpt>
      <trkpt lat="44.66416" lon="5.0556">
        <ele>799</ele>
        <time>2026-05-26T11:26:18.000Z</time>
      </trkpt>
      <trkpt lat="44.66416" lon="5.0556">
        <ele>799</ele>
        <time>2026-05-26T11:26:19.000Z</time>
      </trkpt>
      <trkpt lat="44.66416" lon="5.0556">
        <ele>799</ele>
        <time>2026-05-26T11:26:20.000Z</time>
      </trkpt>
      <trkpt lat="44.66416" lon="5.0556">
        <ele>799</ele>
        <time>2026-05-26T11:26:21.000Z</time>
      </trkpt>
      <trkpt lat="44.66416" lon="5.0556">
        <ele>799</ele>
        <time>2026-05-26T11:26:22.000Z</time>
      </trkpt>
      <trkpt lat="44.66417" lon="5.0556">
        <ele>798</ele>
        <time>2026-05-26T11:26:23.000Z</time>
      </trkpt>
      <trkpt lat="44.66417" lon="5.05559">
        <ele>798</ele>
        <time>2026-05-26T11:26:24.000Z</time>
      </trkpt>
      <trkpt lat="44.66416" lon="5.05559">
        <ele>799</ele>
        <time>2026-05-26T11:26:25.000Z</time>
      </trkpt>
      <trkpt lat="44.66417" lon="5.05558">
        <ele>799</ele>
        <time>2026-05-26T11:26:26.000Z</time>
      </trkpt>
      <trkpt lat="44.66417" lon="5.05558">
        <ele>799</ele>
        <time>2026-05-26T11:26:27.000Z</time>
      </trkpt>
      <trkpt lat="44.66417" lon="5.05558">
        <ele>798</ele>
        <time>2026-05-26T11:26:28.000Z</time>
      </trkpt>
      <trkpt lat="44.66417" lon="5.05557">
        <ele>798</ele>
        <time>2026-05-26T11:26:29.000Z</time>
      </trkpt>
      <trkpt lat="44.66417" lon="5.05557">
        <ele>798</ele>
        <time>2026-05-26T11:26:30.000Z</time>
      </trkpt>
      <trkpt lat="44.66417" lon="5.05557">
        <ele>798</ele>
        <time>2026-05-26T11:26:31.000Z</time>
      </trkpt>
      <trkpt lat="44.66416" lon="5.0556">
        <ele>798</ele>
        <time>2026-05-26T11:26:32.000Z</time>
      </trkpt>
      <trkpt lat="44.66416" lon="5.0556">
        <ele>798</ele>
        <time>2026-05-26T11:26:33.000Z</time>
      </trkpt>
      <trkpt lat="44.66415" lon="5.0556">
        <ele>798</ele>
        <time>2026-05-26T11:26:34.000Z</time>
      </trkpt>
      <trkpt lat="44.66414" lon="5.0556">
        <ele>798</ele>
        <time>2026-05-26T11:26:35.000Z</time>
      </trkpt>
      <trkpt lat="44.66413" lon="5.0556">
        <ele>798</ele>
        <time>2026-05-26T11:26:36.000Z</time>
      </trkpt>
      <trkpt lat="44.66413" lon="5.0556">
        <ele>798</ele>
        <time>2026-05-26T11:26:37.000Z</time>
      </trkpt>
      <trkpt lat="44.66413" lon="5.05559">
        <ele>799</ele>
        <time>2026-05-26T11:26:38.000Z</time>
      </trkpt>
      <trkpt lat="44.66414" lon="5.05559">
        <ele>799</ele>
        <time>2026-05-26T11:26:39.000Z</time>
      </trkpt>
      <trkpt lat="44.66414" lon="5.05558">
        <ele>799</ele>
        <time>2026-05-26T11:26:40.000Z</time>
      </trkpt>
      <trkpt lat="44.66413" lon="5.05559">
        <ele>799</ele>
        <time>2026-05-26T11:26:41.000Z</time>
      </trkpt>
      <trkpt lat="44.66412" lon="5.0556">
        <ele>799</ele>
        <time>2026-05-26T11:26:42.000Z</time>
      </trkpt>
      <trkpt lat="44.6641" lon="5.05559">
        <ele>797</ele>
        <time>2026-05-26T11:26:43.000Z</time>
      </trkpt>
      <trkpt lat="44.6641" lon="5.05558">
        <ele>796</ele>
        <time>2026-05-26T11:26:44.000Z</time>
      </trkpt>
      <trkpt lat="44.6641" lon="5.05558">
        <ele>796</ele>
        <time>2026-05-26T11:26:45.000Z</time>
      </trkpt>
      <trkpt lat="44.66409" lon="5.0556">
        <ele>797</ele>
        <time>2026-05-26T11:26:46.000Z</time>
      </trkpt>
      <trkpt lat="44.66408" lon="5.05562">
        <ele>795</ele>
        <time>2026-05-26T11:26:47.000Z</time>
      </trkpt>
      <trkpt lat="44.66407" lon="5.05563">
        <ele>795</ele>
        <time>2026-05-26T11:26:48.000Z</time>
      </trkpt>
      <trkpt lat="44.66408" lon="5.05564">
        <ele>795</ele>
        <time>2026-05-26T11:26:49.000Z</time>
      </trkpt>
      <trkpt lat="44.66407" lon="5.05564">
        <ele>795</ele>
        <time>2026-05-26T11:26:50.000Z</time>
      </trkpt>
      <trkpt lat="44.66407" lon="5.05564">
        <ele>795</ele>
        <time>2026-05-26T11:26:51.000Z</time>
      </trkpt>
      <trkpt lat="44.66407" lon="5.05564">
        <ele>795</ele>
        <time>2026-05-26T11:26:52.000Z</time>
      </trkpt>
      <trkpt lat="44.66406" lon="5.05566">
        <ele>796</ele>
        <time>2026-05-26T11:26:53.000Z</time>
      </trkpt>
      <trkpt lat="44.66405" lon="5.05565">
        <ele>794</ele>
        <time>2026-05-26T11:26:54.000Z</time>
      </trkpt>
      <trkpt lat="44.66403" lon="5.05566">
        <ele>793</ele>
        <time>2026-05-26T11:26:55.000Z</time>
      </trkpt>
      <trkpt lat="44.66402" lon="5.05567">
        <ele>793</ele>
        <time>2026-05-26T11:26:56.000Z</time>
      </trkpt>
      <trkpt lat="44.66402" lon="5.05568">
        <ele>792</ele>
        <time>2026-05-26T11:26:57.000Z</time>
      </trkpt>
      <trkpt lat="44.66402" lon="5.05568">
        <ele>792</ele>
        <time>2026-05-26T11:26:58.000Z</time>
      </trkpt>
      <trkpt lat="44.66402" lon="5.05568">
        <ele>792</ele>
        <time>2026-05-26T11:26:59.000Z</time>
      </trkpt>
      <trkpt lat="44.66404" lon="5.0557">
        <ele>792</ele>
        <time>2026-05-26T11:27:00.000Z</time>
      </trkpt>
      <trkpt lat="44.66404" lon="5.05571">
        <ele>792</ele>
        <time>2026-05-26T11:27:01.000Z</time>
      </trkpt>
      <trkpt lat="44.66404" lon="5.05573">
        <ele>792</ele>
        <time>2026-05-26T11:27:02.000Z</time>
      </trkpt>
      <trkpt lat="44.66403" lon="5.05573">
        <ele>792</ele>
        <time>2026-05-26T11:27:03.000Z</time>
      </trkpt>
      <trkpt lat="44.66403" lon="5.05573">
        <ele>792</ele>
        <time>2026-05-26T11:27:04.000Z</time>
      </trkpt>
      <trkpt lat="44.66403" lon="5.05573">
        <ele>792</ele>
        <time>2026-05-26T11:27:05.000Z</time>
      </trkpt>
      <trkpt lat="44.66403" lon="5.05573">
        <ele>792</ele>
        <time>2026-05-26T11:27:06.000Z</time>
      </trkpt>
      <trkpt lat="44.66403" lon="5.05573">
        <ele>792</ele>
        <time>2026-05-26T11:27:07.000Z</time>
      </trkpt>
      <trkpt lat="44.66405" lon="5.05574">
        <ele>790</ele>
        <time>2026-05-26T11:27:08.000Z</time>
      </trkpt>
      <trkpt lat="44.66405" lon="5.05573">
        <ele>790</ele>
        <time>2026-05-26T11:27:09.000Z</time>
      </trkpt>
      <trkpt lat="44.66406" lon="5.05573">
        <ele>789</ele>
        <time>2026-05-26T11:27:10.000Z</time>
      </trkpt>
      <trkpt lat="44.66407" lon="5.05573">
        <ele>789</ele>
        <time>2026-05-26T11:27:11.000Z</time>
      </trkpt>
      <trkpt lat="44.66407" lon="5.05573">
        <ele>788</ele>
        <time>2026-05-26T11:27:12.000Z</time>
      </trkpt>
      <trkpt lat="44.66407" lon="5.05573">
        <ele>788</ele>
        <time>2026-05-26T11:27:13.000Z</time>
      </trkpt>
      <trkpt lat="44.66407" lon="5.05573">
        <ele>788</ele>
        <time>2026-05-26T11:27:14.000Z</time>
      </trkpt>
      <trkpt lat="44.66407" lon="5.05571">
        <ele>787</ele>
        <time>2026-05-26T11:27:15.000Z</time>
      </trkpt>
      <trkpt lat="44.66407" lon="5.05571">
        <ele>787</ele>
        <time>2026-05-26T11:27:16.000Z</time>
      </trkpt>
      <trkpt lat="44.66407" lon="5.05571">
        <ele>788</ele>
        <time>2026-05-26T11:27:17.000Z</time>
      </trkpt>
      <trkpt lat="44.66408" lon="5.05571">
        <ele>787</ele>
        <time>2026-05-26T11:27:18.000Z</time>
      </trkpt>
      <trkpt lat="44.66407" lon="5.05571">
        <ele>787</ele>
        <time>2026-05-26T11:27:19.000Z</time>
      </trkpt>
      <trkpt lat="44.66408" lon="5.05571">
        <ele>788</ele>
        <time>2026-05-26T11:27:20.000Z</time>
      </trkpt>
      <trkpt lat="44.66408" lon="5.05571">
        <ele>788</ele>
        <time>2026-05-26T11:27:21.000Z</time>
      </trkpt>
      <trkpt lat="44.66409" lon="5.05571">
        <ele>790</ele>
        <time>2026-05-26T11:27:22.000Z</time>
      </trkpt>
      <trkpt lat="44.66409" lon="5.05571">
        <ele>790</ele>
        <time>2026-05-26T11:27:23.000Z</time>
      </trkpt>
      <trkpt lat="44.66409" lon="5.05571">
        <ele>790</ele>
        <time>2026-05-26T11:27:24.000Z</time>
      </trkpt>
      <trkpt lat="44.66409" lon="5.05571">
        <ele>790</ele>
        <time>2026-05-26T11:27:25.000Z</time>
      </trkpt>
      <trkpt lat="44.66409" lon="5.05571">
        <ele>790</ele>
        <time>2026-05-26T11:27:26.000Z</time>
      </trkpt>
      <trkpt lat="44.66409" lon="5.05571">
        <ele>790</ele>
        <time>2026-05-26T11:27:27.000Z</time>
      </trkpt>
      <trkpt lat="44.66409" lon="5.05571">
        <ele>790</ele>
        <time>2026-05-26T11:27:28.000Z</time>
      </trkpt>
      <trkpt lat="44.66411" lon="5.05573">
        <ele>789</ele>
        <time>2026-05-26T11:27:29.000Z</time>
      </trkpt>
      <trkpt lat="44.6641" lon="5.05572">
        <ele>789</ele>
        <time>2026-05-26T11:27:30.000Z</time>
      </trkpt>
      <trkpt lat="44.66411" lon="5.05573">
        <ele>788</ele>
        <time>2026-05-26T11:27:31.000Z</time>
      </trkpt>
      <trkpt lat="44.6641" lon="5.05573">
        <ele>788</ele>
        <time>2026-05-26T11:27:32.000Z</time>
      </trkpt>
      <trkpt lat="44.6641" lon="5.05573">
        <ele>788</ele>
        <time>2026-05-26T11:27:33.000Z</time>
      </trkpt>
      <trkpt lat="44.6641" lon="5.05573">
        <ele>788</ele>
        <time>2026-05-26T11:27:34.000Z</time>
      </trkpt>
      <trkpt lat="44.6641" lon="5.05573">
        <ele>788</ele>
        <time>2026-05-26T11:27:35.000Z</time>
      </trkpt>
      <trkpt lat="44.6641" lon="5.05573">
        <ele>788</ele>
        <time>2026-05-26T11:27:36.000Z</time>
      </trkpt>
      <trkpt lat="44.6641" lon="5.05573">
        <ele>788</ele>
        <time>2026-05-26T11:27:37.000Z</time>
      </trkpt>
      <trkpt lat="44.6641" lon="5.05573">
        <ele>788</ele>
        <time>2026-05-26T11:27:38.000Z</time>
      </trkpt>
      <trkpt lat="44.6641" lon="5.05573">
        <ele>788</ele>
        <time>2026-05-26T11:27:39.000Z</time>
      </trkpt>
      <trkpt lat="44.6641" lon="5.05573">
        <ele>788</ele>
        <time>2026-05-26T11:27:40.000Z</time>
      </trkpt>
      <trkpt lat="44.6641" lon="5.05573">
        <ele>788</ele>
        <time>2026-05-26T11:27:41.000Z</time>
      </trkpt>
      <trkpt lat="44.6641" lon="5.05573">
        <ele>788</ele>
        <time>2026-05-26T11:27:42.000Z</time>
      </trkpt>
      <trkpt lat="44.6641" lon="5.05573">
        <ele>788</ele>
        <time>2026-05-26T11:27:43.000Z</time>
      </trkpt>
      <trkpt lat="44.6641" lon="5.05573">
        <ele>788</ele>
        <time>2026-05-26T11:27:44.000Z</time>
      </trkpt>
      <trkpt lat="44.6641" lon="5.05573">
        <ele>788</ele>
        <time>2026-05-26T11:27:45.000Z</time>
      </trkpt>
      <trkpt lat="44.6641" lon="5.05573">
        <ele>788</ele>
        <time>2026-05-26T11:27:46.000Z</time>
      </trkpt>
      <trkpt lat="44.6641" lon="5.05573">
        <ele>788</ele>
        <time>2026-05-26T11:27:47.000Z</time>
      </trkpt>
      <trkpt lat="44.6641" lon="5.05573">
        <ele>788</ele>
        <time>2026-05-26T11:27:48.000Z</time>
      </trkpt>
      <trkpt lat="44.6641" lon="5.05573">
        <ele>788</ele>
        <time>2026-05-26T11:27:49.000Z</time>
      </trkpt>
      <trkpt lat="44.6641" lon="5.05573">
        <ele>788</ele>
        <time>2026-05-26T11:27:50.000Z</time>
      </trkpt>
      <trkpt lat="44.66411" lon="5.05573">
        <ele>789</ele>
        <time>2026-05-26T11:27:51.000Z</time>
      </trkpt>
      <trkpt lat="44.66412" lon="5.05573">
        <ele>789</ele>
        <time>2026-05-26T11:27:52.000Z</time>
      </trkpt>
      <trkpt lat="44.66413" lon="5.05572">
        <ele>789</ele>
        <time>2026-05-26T11:27:53.000Z</time>
      </trkpt>
      <trkpt lat="44.66414" lon="5.05572">
        <ele>789</ele>
        <time>2026-05-26T11:27:54.000Z</time>
      </trkpt>
      <trkpt lat="44.66414" lon="5.05571">
        <ele>789</ele>
        <time>2026-05-26T11:27:55.000Z</time>
      </trkpt>
      <trkpt lat="44.66413" lon="5.05572">
        <ele>788</ele>
        <time>2026-05-26T11:27:56.000Z</time>
      </trkpt>
      <trkpt lat="44.66413" lon="5.05572">
        <ele>788</ele>
        <time>2026-05-26T11:27:57.000Z</time>
      </trkpt>
      <trkpt lat="44.66413" lon="5.05574">
        <ele>788</ele>
        <time>2026-05-26T11:27:58.000Z</time>
      </trkpt>
      <trkpt lat="44.66412" lon="5.05575">
        <ele>788</ele>
        <time>2026-05-26T11:27:59.000Z</time>
      </trkpt>
      <trkpt lat="44.66412" lon="5.05576">
        <ele>788</ele>
        <time>2026-05-26T11:28:00.000Z</time>
      </trkpt>
      <trkpt lat="44.66412" lon="5.05577">
        <ele>787</ele>
        <time>2026-05-26T11:28:01.000Z</time>
      </trkpt>
      <trkpt lat="44.66412" lon="5.05577">
        <ele>787</ele>
        <time>2026-05-26T11:28:02.000Z</time>
      </trkpt>
      <trkpt lat="44.66412" lon="5.05577">
        <ele>788</ele>
        <time>2026-05-26T11:28:03.000Z</time>
      </trkpt>
      <trkpt lat="44.66411" lon="5.05577">
        <ele>788</ele>
        <time>2026-05-26T11:28:04.000Z</time>
      </trkpt>
      <trkpt lat="44.6641" lon="5.05579">
        <ele>788</ele>
        <time>2026-05-26T11:28:05.000Z</time>
      </trkpt>
      <trkpt lat="44.6641" lon="5.05579">
        <ele>788</ele>
        <time>2026-05-26T11:28:06.000Z</time>
      </trkpt>
      <trkpt lat="44.6641" lon="5.0558">
        <ele>787</ele>
        <time>2026-05-26T11:28:07.000Z</time>
      </trkpt>
      <trkpt lat="44.66411" lon="5.05581">
        <ele>787</ele>
        <time>2026-05-26T11:28:08.000Z</time>
      </trkpt>
      <trkpt lat="44.66411" lon="5.05582">
        <ele>787</ele>
        <time>2026-05-26T11:28:09.000Z</time>
      </trkpt>
      <trkpt lat="44.66411" lon="5.05584">
        <ele>787</ele>
        <time>2026-05-26T11:28:10.000Z</time>
      </trkpt>
      <trkpt lat="44.6641" lon="5.05585">
        <ele>786</ele>
        <time>2026-05-26T11:28:11.000Z</time>
      </trkpt>
      <trkpt lat="44.66411" lon="5.05585">
        <ele>787</ele>
        <time>2026-05-26T11:28:12.000Z</time>
      </trkpt>
      <trkpt lat="44.66411" lon="5.05584">
        <ele>787</ele>
        <time>2026-05-26T11:28:13.000Z</time>
      </trkpt>
      <trkpt lat="44.66412" lon="5.05585">
        <ele>787</ele>
        <time>2026-05-26T11:28:14.000Z</time>
      </trkpt>
      <trkpt lat="44.66412" lon="5.05585">
        <ele>787</ele>
        <time>2026-05-26T11:28:15.000Z</time>
      </trkpt>
      <trkpt lat="44.66413" lon="5.05586">
        <ele>786</ele>
        <time>2026-05-26T11:28:16.000Z</time>
      </trkpt>
      <trkpt lat="44.66412" lon="5.05587">
        <ele>785</ele>
        <time>2026-05-26T11:28:17.000Z</time>
      </trkpt>
      <trkpt lat="44.66413" lon="5.05587">
        <ele>786</ele>
        <time>2026-05-26T11:28:18.000Z</time>
      </trkpt>
      <trkpt lat="44.66414" lon="5.05587">
        <ele>788</ele>
        <time>2026-05-26T11:28:19.000Z</time>
      </trkpt>
      <trkpt lat="44.66414" lon="5.05587">
        <ele>788</ele>
        <time>2026-05-26T11:28:20.000Z</time>
      </trkpt>
      <trkpt lat="44.66414" lon="5.0559">
        <ele>786</ele>
        <time>2026-05-26T11:28:21.000Z</time>
      </trkpt>
      <trkpt lat="44.66414" lon="5.05593">
        <ele>786</ele>
        <time>2026-05-26T11:28:22.000Z</time>
      </trkpt>
      <trkpt lat="44.66414" lon="5.05593">
        <ele>785</ele>
        <time>2026-05-26T11:28:23.000Z</time>
      </trkpt>
      <trkpt lat="44.66414" lon="5.05593">
        <ele>785</ele>
        <time>2026-05-26T11:28:24.000Z</time>
      </trkpt>
      <trkpt lat="44.66414" lon="5.05593">
        <ele>785</ele>
        <time>2026-05-26T11:28:25.000Z</time>
      </trkpt>
      <trkpt lat="44.66414" lon="5.05593">
        <ele>785</ele>
        <time>2026-05-26T11:28:26.000Z</time>
      </trkpt>
      <trkpt lat="44.66414" lon="5.05593">
        <ele>785</ele>
        <time>2026-05-26T11:28:27.000Z</time>
      </trkpt>
      <trkpt lat="44.66415" lon="5.05596">
        <ele>782</ele>
        <time>2026-05-26T11:28:28.000Z</time>
      </trkpt>
      <trkpt lat="44.66416" lon="5.05596">
        <ele>782</ele>
        <time>2026-05-26T11:28:29.000Z</time>
      </trkpt>
      <trkpt lat="44.66416" lon="5.05596">
        <ele>782</ele>
        <time>2026-05-26T11:28:30.000Z</time>
      </trkpt>
      <trkpt lat="44.66416" lon="5.05597">
        <ele>782</ele>
        <time>2026-05-26T11:28:31.000Z</time>
      </trkpt>
      <trkpt lat="44.66416" lon="5.05598">
        <ele>781</ele>
        <time>2026-05-26T11:28:32.000Z</time>
      </trkpt>
      <trkpt lat="44.66415" lon="5.05599">
        <ele>781</ele>
        <time>2026-05-26T11:28:33.000Z</time>
      </trkpt>
      <trkpt lat="44.66416" lon="5.05601">
        <ele>781</ele>
        <time>2026-05-26T11:28:34.000Z</time>
      </trkpt>
      <trkpt lat="44.66415" lon="5.05602">
        <ele>781</ele>
        <time>2026-05-26T11:28:35.000Z</time>
      </trkpt>
      <trkpt lat="44.66414" lon="5.05602">
        <ele>780</ele>
        <time>2026-05-26T11:28:36.000Z</time>
      </trkpt>
      <trkpt lat="44.66413" lon="5.05604">
        <ele>780</ele>
        <time>2026-05-26T11:28:37.000Z</time>
      </trkpt>
      <trkpt lat="44.66412" lon="5.05606">
        <ele>780</ele>
        <time>2026-05-26T11:28:38.000Z</time>
      </trkpt>
      <trkpt lat="44.66413" lon="5.05606">
        <ele>780</ele>
        <time>2026-05-26T11:28:39.000Z</time>
      </trkpt>
      <trkpt lat="44.66413" lon="5.05607">
        <ele>780</ele>
        <time>2026-05-26T11:28:40.000Z</time>
      </trkpt>
      <trkpt lat="44.66414" lon="5.05609">
        <ele>779</ele>
        <time>2026-05-26T11:28:41.000Z</time>
      </trkpt>
      <trkpt lat="44.66414" lon="5.05609">
        <ele>780</ele>
        <time>2026-05-26T11:28:42.000Z</time>
      </trkpt>
      <trkpt lat="44.66415" lon="5.0561">
        <ele>779</ele>
        <time>2026-05-26T11:28:43.000Z</time>
      </trkpt>
      <trkpt lat="44.66415" lon="5.05611">
        <ele>778</ele>
        <time>2026-05-26T11:28:44.000Z</time>
      </trkpt>
      <trkpt lat="44.66416" lon="5.05612">
        <ele>778</ele>
        <time>2026-05-26T11:28:45.000Z</time>
      </trkpt>
      <trkpt lat="44.66416" lon="5.05612">
        <ele>778</ele>
        <time>2026-05-26T11:28:46.000Z</time>
      </trkpt>
      <trkpt lat="44.66417" lon="5.05613">
        <ele>778</ele>
        <time>2026-05-26T11:28:47.000Z</time>
      </trkpt>
      <trkpt lat="44.66417" lon="5.05614">
        <ele>778</ele>
        <time>2026-05-26T11:28:48.000Z</time>
      </trkpt>
      <trkpt lat="44.66417" lon="5.05614">
        <ele>778</ele>
        <time>2026-05-26T11:28:49.000Z</time>
      </trkpt>
      <trkpt lat="44.66417" lon="5.05614">
        <ele>778</ele>
        <time>2026-05-26T11:28:50.000Z</time>
      </trkpt>
      <trkpt lat="44.66418" lon="5.05615">
        <ele>777</ele>
        <time>2026-05-26T11:28:51.000Z</time>
      </trkpt>
      <trkpt lat="44.66418" lon="5.05616">
        <ele>776</ele>
        <time>2026-05-26T11:28:52.000Z</time>
      </trkpt>
      <trkpt lat="44.66418" lon="5.05616">
        <ele>775</ele>
        <time>2026-05-26T11:28:53.000Z</time>
      </trkpt>
      <trkpt lat="44.66418" lon="5.05617">
        <ele>775</ele>
        <time>2026-05-26T11:28:54.000Z</time>
      </trkpt>
      <trkpt lat="44.66418" lon="5.05617">
        <ele>775</ele>
        <time>2026-05-26T11:28:55.000Z</time>
      </trkpt>
      <trkpt lat="44.66418" lon="5.05617">
        <ele>775</ele>
        <time>2026-05-26T11:28:56.000Z</time>
      </trkpt>
      <trkpt lat="44.66419" lon="5.05619">
        <ele>774</ele>
        <time>2026-05-26T11:28:57.000Z</time>
      </trkpt>
      <trkpt lat="44.66419" lon="5.0562">
        <ele>774</ele>
        <time>2026-05-26T11:28:58.000Z</time>
      </trkpt>
      <trkpt lat="44.66419" lon="5.05622">
        <ele>773</ele>
        <time>2026-05-26T11:28:59.000Z</time>
      </trkpt>
      <trkpt lat="44.66419" lon="5.05622">
        <ele>772</ele>
        <time>2026-05-26T11:29:00.000Z</time>
      </trkpt>
      <trkpt lat="44.66419" lon="5.05624">
        <ele>773</ele>
        <time>2026-05-26T11:29:01.000Z</time>
      </trkpt>
      <trkpt lat="44.66418" lon="5.05625">
        <ele>772</ele>
        <time>2026-05-26T11:29:02.000Z</time>
      </trkpt>
      <trkpt lat="44.66418" lon="5.05626">
        <ele>771</ele>
        <time>2026-05-26T11:29:03.000Z</time>
      </trkpt>
      <trkpt lat="44.66418" lon="5.05627">
        <ele>770</ele>
        <time>2026-05-26T11:29:04.000Z</time>
      </trkpt>
      <trkpt lat="44.66418" lon="5.05628">
        <ele>770</ele>
        <time>2026-05-26T11:29:05.000Z</time>
      </trkpt>
      <trkpt lat="44.66417" lon="5.05629">
        <ele>770</ele>
        <time>2026-05-26T11:29:06.000Z</time>
      </trkpt>
      <trkpt lat="44.66418" lon="5.05631">
        <ele>770</ele>
        <time>2026-05-26T11:29:07.000Z</time>
      </trkpt>
      <trkpt lat="44.66418" lon="5.05631">
        <ele>770</ele>
        <time>2026-05-26T11:29:08.000Z</time>
      </trkpt>
      <trkpt lat="44.66418" lon="5.05631">
        <ele>770</ele>
        <time>2026-05-26T11:29:09.000Z</time>
      </trkpt>
      <trkpt lat="44.66418" lon="5.05631">
        <ele>770</ele>
        <time>2026-05-26T11:29:10.000Z</time>
      </trkpt>
      <trkpt lat="44.66418" lon="5.05631">
        <ele>770</ele>
        <time>2026-05-26T11:29:11.000Z</time>
      </trkpt>
      <trkpt lat="44.66421" lon="5.05637">
        <ele>770</ele>
        <time>2026-05-26T11:29:12.000Z</time>
      </trkpt>
      <trkpt lat="44.66422" lon="5.05638">
        <ele>769</ele>
        <time>2026-05-26T11:29:13.000Z</time>
      </trkpt>
      <trkpt lat="44.66423" lon="5.05638">
        <ele>768</ele>
        <time>2026-05-26T11:29:14.000Z</time>
      </trkpt>
      <trkpt lat="44.66422" lon="5.05639">
        <ele>767</ele>
        <time>2026-05-26T11:29:15.000Z</time>
      </trkpt>
      <trkpt lat="44.66422" lon="5.05639">
        <ele>767</ele>
        <time>2026-05-26T11:29:16.000Z</time>
      </trkpt>
      <trkpt lat="44.66422" lon="5.05639">
        <ele>767</ele>
        <time>2026-05-26T11:29:17.000Z</time>
      </trkpt>
      <trkpt lat="44.6642" lon="5.0564">
        <ele>769</ele>
        <time>2026-05-26T11:29:18.000Z</time>
      </trkpt>
      <trkpt lat="44.66418" lon="5.0564">
        <ele>768</ele>
        <time>2026-05-26T11:29:19.000Z</time>
      </trkpt>
      <trkpt lat="44.66417" lon="5.05641">
        <ele>767</ele>
        <time>2026-05-26T11:29:20.000Z</time>
      </trkpt>
      <trkpt lat="44.66417" lon="5.05641">
        <ele>766</ele>
        <time>2026-05-26T11:29:21.000Z</time>
      </trkpt>
      <trkpt lat="44.66417" lon="5.05641">
        <ele>766</ele>
        <time>2026-05-26T11:29:22.000Z</time>
      </trkpt>
      <trkpt lat="44.66417" lon="5.05641">
        <ele>766</ele>
        <time>2026-05-26T11:29:23.000Z</time>
      </trkpt>
      <trkpt lat="44.66418" lon="5.05642">
        <ele>764</ele>
        <time>2026-05-26T11:29:24.000Z</time>
      </trkpt>
      <trkpt lat="44.66418" lon="5.05643">
        <ele>765</ele>
        <time>2026-05-26T11:29:25.000Z</time>
      </trkpt>
      <trkpt lat="44.66418" lon="5.05644">
        <ele>765</ele>
        <time>2026-05-26T11:29:26.000Z</time>
      </trkpt>
      <trkpt lat="44.66419" lon="5.05644">
        <ele>765</ele>
        <time>2026-05-26T11:29:27.000Z</time>
      </trkpt>
      <trkpt lat="44.66419" lon="5.05644">
        <ele>765</ele>
        <time>2026-05-26T11:29:28.000Z</time>
      </trkpt>
      <trkpt lat="44.66419" lon="5.05644">
        <ele>765</ele>
        <time>2026-05-26T11:29:29.000Z</time>
      </trkpt>
      <trkpt lat="44.66419" lon="5.05649">
        <ele>764</ele>
        <time>2026-05-26T11:29:30.000Z</time>
      </trkpt>
      <trkpt lat="44.66419" lon="5.05651">
        <ele>762</ele>
        <time>2026-05-26T11:29:31.000Z</time>
      </trkpt>
      <trkpt lat="44.6642" lon="5.05651">
        <ele>761</ele>
        <time>2026-05-26T11:29:32.000Z</time>
      </trkpt>
      <trkpt lat="44.66421" lon="5.05654">
        <ele>763</ele>
        <time>2026-05-26T11:29:33.000Z</time>
      </trkpt>
      <trkpt lat="44.66421" lon="5.05654">
        <ele>763</ele>
        <time>2026-05-26T11:29:34.000Z</time>
      </trkpt>
      <trkpt lat="44.66421" lon="5.05654">
        <ele>763</ele>
        <time>2026-05-26T11:29:35.000Z</time>
      </trkpt>
      <trkpt lat="44.66419" lon="5.05653">
        <ele>764</ele>
        <time>2026-05-26T11:29:36.000Z</time>
      </trkpt>
      <trkpt lat="44.6642" lon="5.05653">
        <ele>763</ele>
        <time>2026-05-26T11:29:37.000Z</time>
      </trkpt>
      <trkpt lat="44.6642" lon="5.05655">
        <ele>763</ele>
        <time>2026-05-26T11:29:38.000Z</time>
      </trkpt>
      <trkpt lat="44.6642" lon="5.05655">
        <ele>763</ele>
        <time>2026-05-26T11:29:39.000Z</time>
      </trkpt>
      <trkpt lat="44.6642" lon="5.05655">
        <ele>763</ele>
        <time>2026-05-26T11:29:40.000Z</time>
      </trkpt>
      <trkpt lat="44.6642" lon="5.05655">
        <ele>763</ele>
        <time>2026-05-26T11:29:41.000Z</time>
      </trkpt>
      <trkpt lat="44.6642" lon="5.05655">
        <ele>763</ele>
        <time>2026-05-26T11:29:42.000Z</time>
      </trkpt>
      <trkpt lat="44.6642" lon="5.05655">
        <ele>763</ele>
        <time>2026-05-26T11:29:43.000Z</time>
      </trkpt>
      <trkpt lat="44.6642" lon="5.05655">
        <ele>763</ele>
        <time>2026-05-26T11:29:44.000Z</time>
      </trkpt>
      <trkpt lat="44.6642" lon="5.05655">
        <ele>763</ele>
        <time>2026-05-26T11:29:45.000Z</time>
      </trkpt>
      <trkpt lat="44.6642" lon="5.05655">
        <ele>762</ele>
        <time>2026-05-26T11:29:46.000Z</time>
      </trkpt>
      <trkpt lat="44.6642" lon="5.05655">
        <ele>762</ele>
        <time>2026-05-26T11:29:47.000Z</time>
      </trkpt>
      <trkpt lat="44.66419" lon="5.05655">
        <ele>761</ele>
        <time>2026-05-26T11:29:48.000Z</time>
      </trkpt>
      <trkpt lat="44.66419" lon="5.05655">
        <ele>761</ele>
        <time>2026-05-26T11:29:49.000Z</time>
      </trkpt>
      <trkpt lat="44.66419" lon="5.05655">
        <ele>761</ele>
        <time>2026-05-26T11:29:50.000Z</time>
      </trkpt>
      <trkpt lat="44.66419" lon="5.05655">
        <ele>761</ele>
        <time>2026-05-26T11:29:51.000Z</time>
      </trkpt>
      <trkpt lat="44.66419" lon="5.05655">
        <ele>761</ele>
        <time>2026-05-26T11:29:52.000Z</time>
      </trkpt>
      <trkpt lat="44.66419" lon="5.05655">
        <ele>761</ele>
        <time>2026-05-26T11:29:53.000Z</time>
      </trkpt>
      <trkpt lat="44.66419" lon="5.05655">
        <ele>761</ele>
        <time>2026-05-26T11:29:54.000Z</time>
      </trkpt>
      <trkpt lat="44.66419" lon="5.05655">
        <ele>761</ele>
        <time>2026-05-26T11:29:55.000Z</time>
      </trkpt>
      <trkpt lat="44.66419" lon="5.05655">
        <ele>761</ele>
        <time>2026-05-26T11:29:56.000Z</time>
      </trkpt>
      <trkpt lat="44.66419" lon="5.05655">
        <ele>761</ele>
        <time>2026-05-26T11:29:57.000Z</time>
      </trkpt>
      <trkpt lat="44.66419" lon="5.05655">
        <ele>761</ele>
        <time>2026-05-26T11:29:58.000Z</time>
      </trkpt>
      <trkpt lat="44.66419" lon="5.05655">
        <ele>761</ele>
        <time>2026-05-26T11:29:59.000Z</time>
      </trkpt>
      <trkpt lat="44.66419" lon="5.05655">
        <ele>761</ele>
        <time>2026-05-26T11:30:00.000Z</time>
      </trkpt>
      <trkpt lat="44.66419" lon="5.05655">
        <ele>761</ele>
        <time>2026-05-26T11:30:01.000Z</time>
      </trkpt>
      <trkpt lat="44.66419" lon="5.05655">
        <ele>761</ele>
        <time>2026-05-26T11:30:02.000Z</time>
      </trkpt>
      <trkpt lat="44.66419" lon="5.05655">
        <ele>761</ele>
        <time>2026-05-26T11:30:03.000Z</time>
      </trkpt>
      <trkpt lat="44.66419" lon="5.05655">
        <ele>761</ele>
        <time>2026-05-26T11:30:04.000Z</time>
      </trkpt>
      <trkpt lat="44.66419" lon="5.05655">
        <ele>761</ele>
        <time>2026-05-26T11:30:05.000Z</time>
      </trkpt>
      <trkpt lat="44.66419" lon="5.05655">
        <ele>761</ele>
        <time>2026-05-26T11:30:06.000Z</time>
      </trkpt>
      <trkpt lat="44.66419" lon="5.05655">
        <ele>761</ele>
        <time>2026-05-26T11:30:07.000Z</time>
      </trkpt>
      <trkpt lat="44.66419" lon="5.05655">
        <ele>761</ele>
        <time>2026-05-26T11:30:08.000Z</time>
      </trkpt>
      <trkpt lat="44.66419" lon="5.05655">
        <ele>761</ele>
        <time>2026-05-26T11:30:09.000Z</time>
      </trkpt>
      <trkpt lat="44.66419" lon="5.05655">
        <ele>761</ele>
        <time>2026-05-26T11:30:10.000Z</time>
      </trkpt>
      <trkpt lat="44.66419" lon="5.05655">
        <ele>761</ele>
        <time>2026-05-26T11:30:11.000Z</time>
      </trkpt>
      <trkpt lat="44.66419" lon="5.05655">
        <ele>761</ele>
        <time>2026-05-26T11:30:12.000Z</time>
      </trkpt>
      <trkpt lat="44.66419" lon="5.05655">
        <ele>761</ele>
        <time>2026-05-26T11:30:13.000Z</time>
      </trkpt>
      <trkpt lat="44.66419" lon="5.05655">
        <ele>761</ele>
        <time>2026-05-26T11:30:14.000Z</time>
      </trkpt>
      <trkpt lat="44.66419" lon="5.05655">
        <ele>761</ele>
        <time>2026-05-26T11:30:15.000Z</time>
      </trkpt>
      <trkpt lat="44.66419" lon="5.05655">
        <ele>761</ele>
        <time>2026-05-26T11:30:16.000Z</time>
      </trkpt>
      <trkpt lat="44.66419" lon="5.05655">
        <ele>761</ele>
        <time>2026-05-26T11:30:17.000Z</time>
      </trkpt>
      <trkpt lat="44.66419" lon="5.05655">
        <ele>761</ele>
        <time>2026-05-26T11:30:18.000Z</time>
      </trkpt>
      <trkpt lat="44.66419" lon="5.05655">
        <ele>761</ele>
        <time>2026-05-26T11:30:19.000Z</time>
      </trkpt>
      <trkpt lat="44.66419" lon="5.05655">
        <ele>761</ele>
        <time>2026-05-26T11:30:20.000Z</time>
      </trkpt>
      <trkpt lat="44.66419" lon="5.05655">
        <ele>761</ele>
        <time>2026-05-26T11:30:21.000Z</time>
      </trkpt>
      <trkpt lat="44.66419" lon="5.05655">
        <ele>761</ele>
        <time>2026-05-26T11:30:22.000Z</time>
      </trkpt>
      <trkpt lat="44.66419" lon="5.05655">
        <ele>761</ele>
        <time>2026-05-26T11:30:23.000Z</time>
      </trkpt>
      <trkpt lat="44.66419" lon="5.05655">
        <ele>761</ele>
        <time>2026-05-26T11:30:24.000Z</time>
      </trkpt>
      <trkpt lat="44.66419" lon="5.05655">
        <ele>761</ele>
        <time>2026-05-26T11:30:25.000Z</time>
      </trkpt>
      <trkpt lat="44.66419" lon="5.05655">
        <ele>761</ele>
        <time>2026-05-26T11:30:26.000Z</time>
      </trkpt>
      <trkpt lat="44.66419" lon="5.05655">
        <ele>761</ele>
        <time>2026-05-26T11:30:27.000Z</time>
      </trkpt>
      <trkpt lat="44.66419" lon="5.05655">
        <ele>761</ele>
        <time>2026-05-26T11:30:28.000Z</time>
      </trkpt>
      <trkpt lat="44.66419" lon="5.05655">
        <ele>761</ele>
        <time>2026-05-26T11:30:29.000Z</time>
      </trkpt>
      <trkpt lat="44.66419" lon="5.05655">
        <ele>761</ele>
        <time>2026-05-26T11:30:30.000Z</time>
      </trkpt>
      <trkpt lat="44.66419" lon="5.05655">
        <ele>761</ele>
        <time>2026-05-26T11:30:31.000Z</time>
      </trkpt>
      <trkpt lat="44.66419" lon="5.05655">
        <ele>761</ele>
        <time>2026-05-26T11:30:32.000Z</time>
      </trkpt>
      <trkpt lat="44.66419" lon="5.05655">
        <ele>761</ele>
        <time>2026-05-26T11:30:33.000Z</time>
      </trkpt>
      <trkpt lat="44.66419" lon="5.05655">
        <ele>761</ele>
        <time>2026-05-26T11:30:34.000Z</time>
      </trkpt>
      <trkpt lat="44.66419" lon="5.05655">
        <ele>761</ele>
        <time>2026-05-26T11:30:35.000Z</time>
      </trkpt>
      <trkpt lat="44.66419" lon="5.05655">
        <ele>761</ele>
        <time>2026-05-26T11:30:36.000Z</time>
      </trkpt>
      <trkpt lat="44.66419" lon="5.05655">
        <ele>761</ele>
        <time>2026-05-26T11:30:37.000Z</time>
      </trkpt>
      <trkpt lat="44.66419" lon="5.05655">
        <ele>761</ele>
        <time>2026-05-26T11:30:38.000Z</time>
      </trkpt>
      <trkpt lat="44.66419" lon="5.05655">
        <ele>761</ele>
        <time>2026-05-26T11:30:39.000Z</time>
      </trkpt>
      <trkpt lat="44.66419" lon="5.05655">
        <ele>761</ele>
        <time>2026-05-26T11:30:40.000Z</time>
      </trkpt>
      <trkpt lat="44.66419" lon="5.05655">
        <ele>761</ele>
        <time>2026-05-26T11:30:41.000Z</time>
      </trkpt>
      <trkpt lat="44.66419" lon="5.05655">
        <ele>761</ele>
        <time>2026-05-26T11:30:42.000Z</time>
      </trkpt>
      <trkpt lat="44.66419" lon="5.05655">
        <ele>761</ele>
        <time>2026-05-26T11:30:43.000Z</time>
      </trkpt>
      <trkpt lat="44.66419" lon="5.05655">
        <ele>761</ele>
        <time>2026-05-26T11:30:44.000Z</time>
      </trkpt>
      <trkpt lat="44.66419" lon="5.05655">
        <ele>761</ele>
        <time>2026-05-26T11:30:45.000Z</time>
      </trkpt>
      <trkpt lat="44.6642" lon="5.05655">
        <ele>761</ele>
        <time>2026-05-26T11:30:46.000Z</time>
      </trkpt>
      <trkpt lat="44.6642" lon="5.05655">
        <ele>761</ele>
        <time>2026-05-26T11:30:47.000Z</time>
      </trkpt>
      <trkpt lat="44.6642" lon="5.05655">
        <ele>761</ele>
        <time>2026-05-26T11:30:48.000Z</time>
      </trkpt>
      <trkpt lat="44.6642" lon="5.05655">
        <ele>761</ele>
        <time>2026-05-26T11:30:49.000Z</time>
      </trkpt>
      <trkpt lat="44.6642" lon="5.05655">
        <ele>761</ele>
        <time>2026-05-26T11:30:50.000Z</time>
      </trkpt>
      <trkpt lat="44.6642" lon="5.05655">
        <ele>761</ele>
        <time>2026-05-26T11:30:51.000Z</time>
      </trkpt>
      <trkpt lat="44.6642" lon="5.05655">
        <ele>761</ele>
        <time>2026-05-26T11:30:52.000Z</time>
      </trkpt>
      <trkpt lat="44.6642" lon="5.05655">
        <ele>761</ele>
        <time>2026-05-26T11:30:53.000Z</time>
      </trkpt>
      <trkpt lat="44.6642" lon="5.05655">
        <ele>761</ele>
        <time>2026-05-26T11:30:54.000Z</time>
      </trkpt>
      <trkpt lat="44.6642" lon="5.05655">
        <ele>761</ele>
        <time>2026-05-26T11:30:55.000Z</time>
      </trkpt>
      <trkpt lat="44.6642" lon="5.05655">
        <ele>761</ele>
        <time>2026-05-26T11:30:56.000Z</time>
      </trkpt>
      <trkpt lat="44.6642" lon="5.05655">
        <ele>761</ele>
        <time>2026-05-26T11:30:57.000Z</time>
      </trkpt>
      <trkpt lat="44.6642" lon="5.05655">
        <ele>761</ele>
        <time>2026-05-26T11:30:58.000Z</time>
      </trkpt>
      <trkpt lat="44.6642" lon="5.05655">
        <ele>761</ele>
        <time>2026-05-26T11:30:59.000Z</time>
      </trkpt>
      <trkpt lat="44.6642" lon="5.05655">
        <ele>761</ele>
        <time>2026-05-26T11:31:00.000Z</time>
      </trkpt>
      <trkpt lat="44.6642" lon="5.05655">
        <ele>761</ele>
        <time>2026-05-26T11:31:01.000Z</time>
      </trkpt>
      <trkpt lat="44.6642" lon="5.05655">
        <ele>761</ele>
        <time>2026-05-26T11:31:02.000Z</time>
      </trkpt>
      <trkpt lat="44.6642" lon="5.05655">
        <ele>761</ele>
        <time>2026-05-26T11:31:03.000Z</time>
      </trkpt>
      <trkpt lat="44.6642" lon="5.05655">
        <ele>761</ele>
        <time>2026-05-26T11:31:04.000Z</time>
      </trkpt>
      <trkpt lat="44.6642" lon="5.05655">
        <ele>761</ele>
        <time>2026-05-26T11:31:05.000Z</time>
      </trkpt>
      <trkpt lat="44.6642" lon="5.05655">
        <ele>761</ele>
        <time>2026-05-26T11:31:06.000Z</time>
      </trkpt>
      <trkpt lat="44.6642" lon="5.05655">
        <ele>761</ele>
        <time>2026-05-26T11:31:07.000Z</time>
      </trkpt>
      <trkpt lat="44.6642" lon="5.05655">
        <ele>761</ele>
        <time>2026-05-26T11:31:08.000Z</time>
      </trkpt>
      <trkpt lat="44.6642" lon="5.05655">
        <ele>761</ele>
        <time>2026-05-26T11:31:09.000Z</time>
      </trkpt>
      <trkpt lat="44.6642" lon="5.05655">
        <ele>761</ele>
        <time>2026-05-26T11:31:10.000Z</time>
      </trkpt>
      <trkpt lat="44.6642" lon="5.05655">
        <ele>761</ele>
        <time>2026-05-26T11:31:11.000Z</time>
      </trkpt>
      <trkpt lat="44.6642" lon="5.05655">
        <ele>761</ele>
        <time>2026-05-26T11:31:12.000Z</time>
      </trkpt>
      <trkpt lat="44.6642" lon="5.05655">
        <ele>761</ele>
        <time>2026-05-26T11:31:13.000Z</time>
      </trkpt>
      <trkpt lat="44.6642" lon="5.05655">
        <ele>761</ele>
        <time>2026-05-26T11:31:14.000Z</time>
      </trkpt>
      <trkpt lat="44.6642" lon="5.05655">
        <ele>761</ele>
        <time>2026-05-26T11:31:15.000Z</time>
      </trkpt>
      <trkpt lat="44.6642" lon="5.05655">
        <ele>761</ele>
        <time>2026-05-26T11:31:16.000Z</time>
      </trkpt>
      <trkpt lat="44.6642" lon="5.05655">
        <ele>761</ele>
        <time>2026-05-26T11:31:17.000Z</time>
      </trkpt>
      <trkpt lat="44.6642" lon="5.05655">
        <ele>761</ele>
        <time>2026-05-26T11:31:18.000Z</time>
      </trkpt>
      <trkpt lat="44.6642" lon="5.05655">
        <ele>761</ele>
        <time>2026-05-26T11:31:19.000Z</time>
      </trkpt>
      <trkpt lat="44.6642" lon="5.05655">
        <ele>761</ele>
        <time>2026-05-26T11:31:20.000Z</time>
      </trkpt>
      <trkpt lat="44.6642" lon="5.05655">
        <ele>761</ele>
        <time>2026-05-26T11:31:21.000Z</time>
      </trkpt>
      <trkpt lat="44.6642" lon="5.05655">
        <ele>761</ele>
        <time>2026-05-26T11:31:22.000Z</time>
      </trkpt>
      <trkpt lat="44.6642" lon="5.05655">
        <ele>761</ele>
        <time>2026-05-26T11:31:23.000Z</time>
      </trkpt>
      <trkpt lat="44.66421" lon="5.05655">
        <ele>762</ele>
        <time>2026-05-26T11:31:24.000Z</time>
      </trkpt>
      <trkpt lat="44.66421" lon="5.05655">
        <ele>762</ele>
        <time>2026-05-26T11:31:25.000Z</time>
      </trkpt>
      <trkpt lat="44.66421" lon="5.05656">
        <ele>762</ele>
        <time>2026-05-26T11:31:26.000Z</time>
      </trkpt>
      <trkpt lat="44.66421" lon="5.05656">
        <ele>762</ele>
        <time>2026-05-26T11:31:27.000Z</time>
      </trkpt>
      <trkpt lat="44.66421" lon="5.05656">
        <ele>762</ele>
        <time>2026-05-26T11:31:28.000Z</time>
      </trkpt>
      <trkpt lat="44.66421" lon="5.05656">
        <ele>762</ele>
        <time>2026-05-26T11:31:29.000Z</time>
      </trkpt>
      <trkpt lat="44.66422" lon="5.05658">
        <ele>761</ele>
        <time>2026-05-26T11:31:30.000Z</time>
      </trkpt>
      <trkpt lat="44.66422" lon="5.0566">
        <ele>761</ele>
        <time>2026-05-26T11:31:31.000Z</time>
      </trkpt>
      <trkpt lat="44.66423" lon="5.05661">
        <ele>761</ele>
        <time>2026-05-26T11:31:32.000Z</time>
      </trkpt>
      <trkpt lat="44.66423" lon="5.05664">
        <ele>761</ele>
        <time>2026-05-26T11:31:33.000Z</time>
      </trkpt>
      <trkpt lat="44.66423" lon="5.05666">
        <ele>761</ele>
        <time>2026-05-26T11:31:34.000Z</time>
      </trkpt>
      <trkpt lat="44.66424" lon="5.05667">
        <ele>760</ele>
        <time>2026-05-26T11:31:35.000Z</time>
      </trkpt>
      <trkpt lat="44.66425" lon="5.05669">
        <ele>760</ele>
        <time>2026-05-26T11:31:36.000Z</time>
      </trkpt>
      <trkpt lat="44.66425" lon="5.0567">
        <ele>760</ele>
        <time>2026-05-26T11:31:37.000Z</time>
      </trkpt>
      <trkpt lat="44.66425" lon="5.05671">
        <ele>759</ele>
        <time>2026-05-26T11:31:38.000Z</time>
      </trkpt>
      <trkpt lat="44.66425" lon="5.05673">
        <ele>758</ele>
        <time>2026-05-26T11:31:39.000Z</time>
      </trkpt>
      <trkpt lat="44.66426" lon="5.05674">
        <ele>758</ele>
        <time>2026-05-26T11:31:40.000Z</time>
      </trkpt>
      <trkpt lat="44.66428" lon="5.05676">
        <ele>759</ele>
        <time>2026-05-26T11:31:41.000Z</time>
      </trkpt>
      <trkpt lat="44.66428" lon="5.05677">
        <ele>759</ele>
        <time>2026-05-26T11:31:42.000Z</time>
      </trkpt>
      <trkpt lat="44.66428" lon="5.05676">
        <ele>759</ele>
        <time>2026-05-26T11:31:43.000Z</time>
      </trkpt>
      <trkpt lat="44.66428" lon="5.05676">
        <ele>759</ele>
        <time>2026-05-26T11:31:44.000Z</time>
      </trkpt>
      <trkpt lat="44.66429" lon="5.05678">
        <ele>759</ele>
        <time>2026-05-26T11:31:45.000Z</time>
      </trkpt>
      <trkpt lat="44.6643" lon="5.05677">
        <ele>760</ele>
        <time>2026-05-26T11:31:46.000Z</time>
      </trkpt>
      <trkpt lat="44.6643" lon="5.05677">
        <ele>759</ele>
        <time>2026-05-26T11:31:47.000Z</time>
      </trkpt>
      <trkpt lat="44.6643" lon="5.05677">
        <ele>759</ele>
        <time>2026-05-26T11:31:48.000Z</time>
      </trkpt>
      <trkpt lat="44.6643" lon="5.05677">
        <ele>759</ele>
        <time>2026-05-26T11:31:49.000Z</time>
      </trkpt>
      <trkpt lat="44.6643" lon="5.05677">
        <ele>759</ele>
        <time>2026-05-26T11:31:50.000Z</time>
      </trkpt>
      <trkpt lat="44.6643" lon="5.05677">
        <ele>759</ele>
        <time>2026-05-26T11:31:51.000Z</time>
      </trkpt>
      <trkpt lat="44.6643" lon="5.05677">
        <ele>759</ele>
        <time>2026-05-26T11:31:52.000Z</time>
      </trkpt>
      <trkpt lat="44.6643" lon="5.05677">
        <ele>759</ele>
        <time>2026-05-26T11:31:53.000Z</time>
      </trkpt>
      <trkpt lat="44.6643" lon="5.05677">
        <ele>759</ele>
        <time>2026-05-26T11:31:54.000Z</time>
      </trkpt>
      <trkpt lat="44.6643" lon="5.05677">
        <ele>759</ele>
        <time>2026-05-26T11:31:55.000Z</time>
      </trkpt>
      <trkpt lat="44.6643" lon="5.05677">
        <ele>759</ele>
        <time>2026-05-26T11:31:56.000Z</time>
      </trkpt>
      <trkpt lat="44.6643" lon="5.05677">
        <ele>759</ele>
        <time>2026-05-26T11:31:57.000Z</time>
      </trkpt>
      <trkpt lat="44.6643" lon="5.05677">
        <ele>759</ele>
        <time>2026-05-26T11:31:58.000Z</time>
      </trkpt>
      <trkpt lat="44.6643" lon="5.05677">
        <ele>759</ele>
        <time>2026-05-26T11:31:59.000Z</time>
      </trkpt>
      <trkpt lat="44.6643" lon="5.05677">
        <ele>759</ele>
        <time>2026-05-26T11:32:00.000Z</time>
      </trkpt>
      <trkpt lat="44.6643" lon="5.05677">
        <ele>759</ele>
        <time>2026-05-26T11:32:01.000Z</time>
      </trkpt>
      <trkpt lat="44.6643" lon="5.05677">
        <ele>759</ele>
        <time>2026-05-26T11:32:02.000Z</time>
      </trkpt>
      <trkpt lat="44.6643" lon="5.05677">
        <ele>759</ele>
        <time>2026-05-26T11:32:03.000Z</time>
      </trkpt>
      <trkpt lat="44.6643" lon="5.05677">
        <ele>759</ele>
        <time>2026-05-26T11:32:04.000Z</time>
      </trkpt>
      <trkpt lat="44.6643" lon="5.05677">
        <ele>759</ele>
        <time>2026-05-26T11:32:05.000Z</time>
      </trkpt>
      <trkpt lat="44.6643" lon="5.05677">
        <ele>759</ele>
        <time>2026-05-26T11:32:06.000Z</time>
      </trkpt>
      <trkpt lat="44.66429" lon="5.05675">
        <ele>760</ele>
        <time>2026-05-26T11:32:07.000Z</time>
      </trkpt>
      <trkpt lat="44.66429" lon="5.05672">
        <ele>759</ele>
        <time>2026-05-26T11:32:08.000Z</time>
      </trkpt>
      <trkpt lat="44.66429" lon="5.05672">
        <ele>758</ele>
        <time>2026-05-26T11:32:09.000Z</time>
      </trkpt>
      <trkpt lat="44.66429" lon="5.05672">
        <ele>758</ele>
        <time>2026-05-26T11:32:10.000Z</time>
      </trkpt>
      <trkpt lat="44.66429" lon="5.05672">
        <ele>758</ele>
        <time>2026-05-26T11:32:11.000Z</time>
      </trkpt>
      <trkpt lat="44.66429" lon="5.05672">
        <ele>758</ele>
        <time>2026-05-26T11:32:12.000Z</time>
      </trkpt>
      <trkpt lat="44.66429" lon="5.05672">
        <ele>758</ele>
        <time>2026-05-26T11:32:13.000Z</time>
      </trkpt>
      <trkpt lat="44.66429" lon="5.05672">
        <ele>758</ele>
        <time>2026-05-26T11:32:14.000Z</time>
      </trkpt>
      <trkpt lat="44.66429" lon="5.05672">
        <ele>758</ele>
        <time>2026-05-26T11:32:15.000Z</time>
      </trkpt>
      <trkpt lat="44.66429" lon="5.05672">
        <ele>758</ele>
        <time>2026-05-26T11:32:16.000Z</time>
      </trkpt>
      <trkpt lat="44.66429" lon="5.05672">
        <ele>758</ele>
        <time>2026-05-26T11:32:17.000Z</time>
      </trkpt>
      <trkpt lat="44.66429" lon="5.05674">
        <ele>758</ele>
        <time>2026-05-26T11:32:18.000Z</time>
      </trkpt>
      <trkpt lat="44.66429" lon="5.05675">
        <ele>757</ele>
        <time>2026-05-26T11:32:19.000Z</time>
      </trkpt>
      <trkpt lat="44.6643" lon="5.05675">
        <ele>757</ele>
        <time>2026-05-26T11:32:20.000Z</time>
      </trkpt>
      <trkpt lat="44.66431" lon="5.05676">
        <ele>757</ele>
        <time>2026-05-26T11:32:21.000Z</time>
      </trkpt>
      <trkpt lat="44.66432" lon="5.05676">
        <ele>758</ele>
        <time>2026-05-26T11:32:22.000Z</time>
      </trkpt>
      <trkpt lat="44.66432" lon="5.05677">
        <ele>758</ele>
        <time>2026-05-26T11:32:23.000Z</time>
      </trkpt>
      <trkpt lat="44.66433" lon="5.05677">
        <ele>758</ele>
        <time>2026-05-26T11:32:24.000Z</time>
      </trkpt>
      <trkpt lat="44.66432" lon="5.05679">
        <ele>758</ele>
        <time>2026-05-26T11:32:25.000Z</time>
      </trkpt>
      <trkpt lat="44.66433" lon="5.0568">
        <ele>758</ele>
        <time>2026-05-26T11:32:26.000Z</time>
      </trkpt>
      <trkpt lat="44.66434" lon="5.05681">
        <ele>758</ele>
        <time>2026-05-26T11:32:27.000Z</time>
      </trkpt>
      <trkpt lat="44.66435" lon="5.05682">
        <ele>758</ele>
        <time>2026-05-26T11:32:28.000Z</time>
      </trkpt>
      <trkpt lat="44.66437" lon="5.05683">
        <ele>757</ele>
        <time>2026-05-26T11:32:29.000Z</time>
      </trkpt>
      <trkpt lat="44.66438" lon="5.05683">
        <ele>757</ele>
        <time>2026-05-26T11:32:30.000Z</time>
      </trkpt>
      <trkpt lat="44.66438" lon="5.05683">
        <ele>757</ele>
        <time>2026-05-26T11:32:31.000Z</time>
      </trkpt>
      <trkpt lat="44.66438" lon="5.05682">
        <ele>758</ele>
        <time>2026-05-26T11:32:32.000Z</time>
      </trkpt>
      <trkpt lat="44.66438" lon="5.05684">
        <ele>757</ele>
        <time>2026-05-26T11:32:33.000Z</time>
      </trkpt>
      <trkpt lat="44.6644" lon="5.05685">
        <ele>757</ele>
        <time>2026-05-26T11:32:34.000Z</time>
      </trkpt>
      <trkpt lat="44.66441" lon="5.05686">
        <ele>757</ele>
        <time>2026-05-26T11:32:35.000Z</time>
      </trkpt>
      <trkpt lat="44.66442" lon="5.05687">
        <ele>757</ele>
        <time>2026-05-26T11:32:36.000Z</time>
      </trkpt>
      <trkpt lat="44.66443" lon="5.05688">
        <ele>756</ele>
        <time>2026-05-26T11:32:37.000Z</time>
      </trkpt>
      <trkpt lat="44.66444" lon="5.05689">
        <ele>754</ele>
        <time>2026-05-26T11:32:38.000Z</time>
      </trkpt>
      <trkpt lat="44.66446" lon="5.0569">
        <ele>753</ele>
        <time>2026-05-26T11:32:39.000Z</time>
      </trkpt>
      <trkpt lat="44.66446" lon="5.0569">
        <ele>753</ele>
        <time>2026-05-26T11:32:40.000Z</time>
      </trkpt>
      <trkpt lat="44.66448" lon="5.05691">
        <ele>752</ele>
        <time>2026-05-26T11:32:41.000Z</time>
      </trkpt>
      <trkpt lat="44.6645" lon="5.05692">
        <ele>752</ele>
        <time>2026-05-26T11:32:42.000Z</time>
      </trkpt>
      <trkpt lat="44.66451" lon="5.05693">
        <ele>752</ele>
        <time>2026-05-26T11:32:43.000Z</time>
      </trkpt>
      <trkpt lat="44.66452" lon="5.05694">
        <ele>752</ele>
        <time>2026-05-26T11:32:44.000Z</time>
      </trkpt>
      <trkpt lat="44.66453" lon="5.05695">
        <ele>751</ele>
        <time>2026-05-26T11:32:45.000Z</time>
      </trkpt>
      <trkpt lat="44.66454" lon="5.05696">
        <ele>750</ele>
        <time>2026-05-26T11:32:46.000Z</time>
      </trkpt>
      <trkpt lat="44.66455" lon="5.05696">
        <ele>750</ele>
        <time>2026-05-26T11:32:47.000Z</time>
      </trkpt>
      <trkpt lat="44.66455" lon="5.05695">
        <ele>751</ele>
        <time>2026-05-26T11:32:48.000Z</time>
      </trkpt>
      <trkpt lat="44.66455" lon="5.05694">
        <ele>750</ele>
        <time>2026-05-26T11:32:49.000Z</time>
      </trkpt>
      <trkpt lat="44.66455" lon="5.05695">
        <ele>750</ele>
        <time>2026-05-26T11:32:50.000Z</time>
      </trkpt>
      <trkpt lat="44.66455" lon="5.05694">
        <ele>750</ele>
        <time>2026-05-26T11:32:51.000Z</time>
      </trkpt>
      <trkpt lat="44.66455" lon="5.05694">
        <ele>750</ele>
        <time>2026-05-26T11:32:52.000Z</time>
      </trkpt>
      <trkpt lat="44.66455" lon="5.05694">
        <ele>750</ele>
        <time>2026-05-26T11:32:53.000Z</time>
      </trkpt>
      <trkpt lat="44.66455" lon="5.05694">
        <ele>750</ele>
        <time>2026-05-26T11:32:54.000Z</time>
      </trkpt>
      <trkpt lat="44.66455" lon="5.05693">
        <ele>751</ele>
        <time>2026-05-26T11:32:55.000Z</time>
      </trkpt>
      <trkpt lat="44.66454" lon="5.05692">
        <ele>751</ele>
        <time>2026-05-26T11:32:56.000Z</time>
      </trkpt>
      <trkpt lat="44.66454" lon="5.0569">
        <ele>751</ele>
        <time>2026-05-26T11:32:57.000Z</time>
      </trkpt>
      <trkpt lat="44.66454" lon="5.05689">
        <ele>751</ele>
        <time>2026-05-26T11:32:58.000Z</time>
      </trkpt>
      <trkpt lat="44.66454" lon="5.05688">
        <ele>751</ele>
        <time>2026-05-26T11:32:59.000Z</time>
      </trkpt>
      <trkpt lat="44.66453" lon="5.05687">
        <ele>751</ele>
        <time>2026-05-26T11:33:00.000Z</time>
      </trkpt>
      <trkpt lat="44.66453" lon="5.05687">
        <ele>751</ele>
        <time>2026-05-26T11:33:01.000Z</time>
      </trkpt>
      <trkpt lat="44.66453" lon="5.05686">
        <ele>750</ele>
        <time>2026-05-26T11:33:02.000Z</time>
      </trkpt>
      <trkpt lat="44.66453" lon="5.05685">
        <ele>750</ele>
        <time>2026-05-26T11:33:03.000Z</time>
      </trkpt>
      <trkpt lat="44.66451" lon="5.05683">
        <ele>750</ele>
        <time>2026-05-26T11:33:04.000Z</time>
      </trkpt>
      <trkpt lat="44.6645" lon="5.05683">
        <ele>750</ele>
        <time>2026-05-26T11:33:05.000Z</time>
      </trkpt>
      <trkpt lat="44.6645" lon="5.05682">
        <ele>749</ele>
        <time>2026-05-26T11:33:06.000Z</time>
      </trkpt>
      <trkpt lat="44.6645" lon="5.05681">
        <ele>749</ele>
        <time>2026-05-26T11:33:07.000Z</time>
      </trkpt>
      <trkpt lat="44.66449" lon="5.05682">
        <ele>750</ele>
        <time>2026-05-26T11:33:08.000Z</time>
      </trkpt>
      <trkpt lat="44.6645" lon="5.05681">
        <ele>750</ele>
        <time>2026-05-26T11:33:09.000Z</time>
      </trkpt>
      <trkpt lat="44.6645" lon="5.05681">
        <ele>750</ele>
        <time>2026-05-26T11:33:10.000Z</time>
      </trkpt>
      <trkpt lat="44.6645" lon="5.05681">
        <ele>750</ele>
        <time>2026-05-26T11:33:11.000Z</time>
      </trkpt>
      <trkpt lat="44.66448" lon="5.0568">
        <ele>749</ele>
        <time>2026-05-26T11:33:12.000Z</time>
      </trkpt>
      <trkpt lat="44.66448" lon="5.05679">
        <ele>749</ele>
        <time>2026-05-26T11:33:13.000Z</time>
      </trkpt>
      <trkpt lat="44.66448" lon="5.05679">
        <ele>749</ele>
        <time>2026-05-26T11:33:14.000Z</time>
      </trkpt>
      <trkpt lat="44.66448" lon="5.05678">
        <ele>748</ele>
        <time>2026-05-26T11:33:15.000Z</time>
      </trkpt>
      <trkpt lat="44.66448" lon="5.05678">
        <ele>748</ele>
        <time>2026-05-26T11:33:16.000Z</time>
      </trkpt>
      <trkpt lat="44.66448" lon="5.05678">
        <ele>748</ele>
        <time>2026-05-26T11:33:17.000Z</time>
      </trkpt>
      <trkpt lat="44.66446" lon="5.05677">
        <ele>747</ele>
        <time>2026-05-26T11:33:18.000Z</time>
      </trkpt>
      <trkpt lat="44.66445" lon="5.05676">
        <ele>747</ele>
        <time>2026-05-26T11:33:19.000Z</time>
      </trkpt>
      <trkpt lat="44.66444" lon="5.05675">
        <ele>746</ele>
        <time>2026-05-26T11:33:20.000Z</time>
      </trkpt>
      <trkpt lat="44.66443" lon="5.05675">
        <ele>747</ele>
        <time>2026-05-26T11:33:21.000Z</time>
      </trkpt>
      <trkpt lat="44.66443" lon="5.05675">
        <ele>747</ele>
        <time>2026-05-26T11:33:22.000Z</time>
      </trkpt>
      <trkpt lat="44.66443" lon="5.05675">
        <ele>747</ele>
        <time>2026-05-26T11:33:23.000Z</time>
      </trkpt>
      <trkpt lat="44.66443" lon="5.05675">
        <ele>747</ele>
        <time>2026-05-26T11:33:24.000Z</time>
      </trkpt>
      <trkpt lat="44.66443" lon="5.05675">
        <ele>747</ele>
        <time>2026-05-26T11:33:25.000Z</time>
      </trkpt>
      <trkpt lat="44.66443" lon="5.05675">
        <ele>747</ele>
        <time>2026-05-26T11:33:26.000Z</time>
      </trkpt>
      <trkpt lat="44.66443" lon="5.05675">
        <ele>747</ele>
        <time>2026-05-26T11:33:27.000Z</time>
      </trkpt>
      <trkpt lat="44.66443" lon="5.05675">
        <ele>747</ele>
        <time>2026-05-26T11:33:28.000Z</time>
      </trkpt>
      <trkpt lat="44.66443" lon="5.05675">
        <ele>747</ele>
        <time>2026-05-26T11:33:29.000Z</time>
      </trkpt>
      <trkpt lat="44.66443" lon="5.05675">
        <ele>747</ele>
        <time>2026-05-26T11:33:30.000Z</time>
      </trkpt>
      <trkpt lat="44.66443" lon="5.05675">
        <ele>747</ele>
        <time>2026-05-26T11:33:31.000Z</time>
      </trkpt>
      <trkpt lat="44.66443" lon="5.05675">
        <ele>747</ele>
        <time>2026-05-26T11:33:32.000Z</time>
      </trkpt>
      <trkpt lat="44.66442" lon="5.05673">
        <ele>747</ele>
        <time>2026-05-26T11:33:33.000Z</time>
      </trkpt>
      <trkpt lat="44.66443" lon="5.05673">
        <ele>747</ele>
        <time>2026-05-26T11:33:34.000Z</time>
      </trkpt>
      <trkpt lat="44.66442" lon="5.05672">
        <ele>746</ele>
        <time>2026-05-26T11:33:35.000Z</time>
      </trkpt>
      <trkpt lat="44.66442" lon="5.05672">
        <ele>746</ele>
        <time>2026-05-26T11:33:36.000Z</time>
      </trkpt>
      <trkpt lat="44.66442" lon="5.05671">
        <ele>746</ele>
        <time>2026-05-26T11:33:37.000Z</time>
      </trkpt>
      <trkpt lat="44.66442" lon="5.05672">
        <ele>747</ele>
        <time>2026-05-26T11:33:38.000Z</time>
      </trkpt>
      <trkpt lat="44.66442" lon="5.05671">
        <ele>747</ele>
        <time>2026-05-26T11:33:39.000Z</time>
      </trkpt>
      <trkpt lat="44.66442" lon="5.05672">
        <ele>747</ele>
        <time>2026-05-26T11:33:40.000Z</time>
      </trkpt>
      <trkpt lat="44.66443" lon="5.05672">
        <ele>747</ele>
        <time>2026-05-26T11:33:41.000Z</time>
      </trkpt>
      <trkpt lat="44.66443" lon="5.05672">
        <ele>747</ele>
        <time>2026-05-26T11:33:42.000Z</time>
      </trkpt>
      <trkpt lat="44.66443" lon="5.05672">
        <ele>747</ele>
        <time>2026-05-26T11:33:43.000Z</time>
      </trkpt>
      <trkpt lat="44.66444" lon="5.05672">
        <ele>746</ele>
        <time>2026-05-26T11:33:44.000Z</time>
      </trkpt>
      <trkpt lat="44.66445" lon="5.05672">
        <ele>746</ele>
        <time>2026-05-26T11:33:45.000Z</time>
      </trkpt>
      <trkpt lat="44.66444" lon="5.05673">
        <ele>746</ele>
        <time>2026-05-26T11:33:46.000Z</time>
      </trkpt>
      <trkpt lat="44.66444" lon="5.05673">
        <ele>746</ele>
        <time>2026-05-26T11:33:47.000Z</time>
      </trkpt>
      <trkpt lat="44.66443" lon="5.05671">
        <ele>746</ele>
        <time>2026-05-26T11:33:48.000Z</time>
      </trkpt>
      <trkpt lat="44.66443" lon="5.05671">
        <ele>746</ele>
        <time>2026-05-26T11:33:49.000Z</time>
      </trkpt>
      <trkpt lat="44.66442" lon="5.05672">
        <ele>746</ele>
        <time>2026-05-26T11:33:50.000Z</time>
      </trkpt>
      <trkpt lat="44.66442" lon="5.05672">
        <ele>746</ele>
        <time>2026-05-26T11:33:51.000Z</time>
      </trkpt>
      <trkpt lat="44.66442" lon="5.05669">
        <ele>746</ele>
        <time>2026-05-26T11:33:52.000Z</time>
      </trkpt>
      <trkpt lat="44.66442" lon="5.05667">
        <ele>745</ele>
        <time>2026-05-26T11:33:53.000Z</time>
      </trkpt>
      <trkpt lat="44.66442" lon="5.05668">
        <ele>745</ele>
        <time>2026-05-26T11:33:54.000Z</time>
      </trkpt>
      <trkpt lat="44.66442" lon="5.05668">
        <ele>747</ele>
        <time>2026-05-26T11:33:55.000Z</time>
      </trkpt>
      <trkpt lat="44.66441" lon="5.05668">
        <ele>747</ele>
        <time>2026-05-26T11:33:56.000Z</time>
      </trkpt>
      <trkpt lat="44.66442" lon="5.05667">
        <ele>748</ele>
        <time>2026-05-26T11:33:57.000Z</time>
      </trkpt>
      <trkpt lat="44.66442" lon="5.05667">
        <ele>748</ele>
        <time>2026-05-26T11:33:58.000Z</time>
      </trkpt>
      <trkpt lat="44.66442" lon="5.05667">
        <ele>748</ele>
        <time>2026-05-26T11:33:59.000Z</time>
      </trkpt>
      <trkpt lat="44.66442" lon="5.05667">
        <ele>748</ele>
        <time>2026-05-26T11:34:00.000Z</time>
      </trkpt>
      <trkpt lat="44.66442" lon="5.05667">
        <ele>748</ele>
        <time>2026-05-26T11:34:01.000Z</time>
      </trkpt>
      <trkpt lat="44.66442" lon="5.0567">
        <ele>749</ele>
        <time>2026-05-26T11:34:02.000Z</time>
      </trkpt>
      <trkpt lat="44.6644" lon="5.05671">
        <ele>749</ele>
        <time>2026-05-26T11:34:03.000Z</time>
      </trkpt>
      <trkpt lat="44.66439" lon="5.05671">
        <ele>749</ele>
        <time>2026-05-26T11:34:04.000Z</time>
      </trkpt>
      <trkpt lat="44.66439" lon="5.05671">
        <ele>749</ele>
        <time>2026-05-26T11:34:05.000Z</time>
      </trkpt>
      <trkpt lat="44.66438" lon="5.0567">
        <ele>750</ele>
        <time>2026-05-26T11:34:06.000Z</time>
      </trkpt>
      <trkpt lat="44.66438" lon="5.05671">
        <ele>750</ele>
        <time>2026-05-26T11:34:07.000Z</time>
      </trkpt>
      <trkpt lat="44.66437" lon="5.0567">
        <ele>750</ele>
        <time>2026-05-26T11:34:08.000Z</time>
      </trkpt>
      <trkpt lat="44.66437" lon="5.0567">
        <ele>750</ele>
        <time>2026-05-26T11:34:09.000Z</time>
      </trkpt>
      <trkpt lat="44.66437" lon="5.0567">
        <ele>750</ele>
        <time>2026-05-26T11:34:10.000Z</time>
      </trkpt>
      <trkpt lat="44.66437" lon="5.0567">
        <ele>751</ele>
        <time>2026-05-26T11:34:11.000Z</time>
      </trkpt>
      <trkpt lat="44.66435" lon="5.05671">
        <ele>751</ele>
        <time>2026-05-26T11:34:12.000Z</time>
      </trkpt>
      <trkpt lat="44.66435" lon="5.05671">
        <ele>751</ele>
        <time>2026-05-26T11:34:13.000Z</time>
      </trkpt>
      <trkpt lat="44.66435" lon="5.05671">
        <ele>751</ele>
        <time>2026-05-26T11:34:14.000Z</time>
      </trkpt>
      <trkpt lat="44.66435" lon="5.05671">
        <ele>751</ele>
        <time>2026-05-26T11:34:15.000Z</time>
      </trkpt>
      <trkpt lat="44.66435" lon="5.05671">
        <ele>751</ele>
        <time>2026-05-26T11:34:16.000Z</time>
      </trkpt>
      <trkpt lat="44.66435" lon="5.0567">
        <ele>751</ele>
        <time>2026-05-26T11:34:17.000Z</time>
      </trkpt>
      <trkpt lat="44.66435" lon="5.05671">
        <ele>751</ele>
        <time>2026-05-26T11:34:18.000Z</time>
      </trkpt>
      <trkpt lat="44.66435" lon="5.05671">
        <ele>751</ele>
        <time>2026-05-26T11:34:19.000Z</time>
      </trkpt>
      <trkpt lat="44.66433" lon="5.05671">
        <ele>751</ele>
        <time>2026-05-26T11:34:20.000Z</time>
      </trkpt>
      <trkpt lat="44.66433" lon="5.05671">
        <ele>751</ele>
        <time>2026-05-26T11:34:21.000Z</time>
      </trkpt>
      <trkpt lat="44.66433" lon="5.05671">
        <ele>749</ele>
        <time>2026-05-26T11:34:22.000Z</time>
      </trkpt>
      <trkpt lat="44.66433" lon="5.05672">
        <ele>749</ele>
        <time>2026-05-26T11:34:23.000Z</time>
      </trkpt>
      <trkpt lat="44.66435" lon="5.05672">
        <ele>750</ele>
        <time>2026-05-26T11:34:24.000Z</time>
      </trkpt>
      <trkpt lat="44.66439" lon="5.05675">
        <ele>751</ele>
        <time>2026-05-26T11:34:25.000Z</time>
      </trkpt>
      <trkpt lat="44.66441" lon="5.05677">
        <ele>752</ele>
        <time>2026-05-26T11:34:26.000Z</time>
      </trkpt>
      <trkpt lat="44.66442" lon="5.05677">
        <ele>752</ele>
        <time>2026-05-26T11:34:27.000Z</time>
      </trkpt>
      <trkpt lat="44.66443" lon="5.05678">
        <ele>753</ele>
        <time>2026-05-26T11:34:28.000Z</time>
      </trkpt>
      <trkpt lat="44.66444" lon="5.0568">
        <ele>753</ele>
        <time>2026-05-26T11:34:29.000Z</time>
      </trkpt>
      <trkpt lat="44.66444" lon="5.0568">
        <ele>753</ele>
        <time>2026-05-26T11:34:30.000Z</time>
      </trkpt>
      <trkpt lat="44.66441" lon="5.05676">
        <ele>750</ele>
        <time>2026-05-26T11:34:31.000Z</time>
      </trkpt>
      <trkpt lat="44.66441" lon="5.05675">
        <ele>750</ele>
        <time>2026-05-26T11:34:32.000Z</time>
      </trkpt>
      <trkpt lat="44.66439" lon="5.05675">
        <ele>749</ele>
        <time>2026-05-26T11:34:33.000Z</time>
      </trkpt>
      <trkpt lat="44.66439" lon="5.05675">
        <ele>749</ele>
        <time>2026-05-26T11:34:34.000Z</time>
      </trkpt>
      <trkpt lat="44.66439" lon="5.05674">
        <ele>749</ele>
        <time>2026-05-26T11:34:35.000Z</time>
      </trkpt>
      <trkpt lat="44.66439" lon="5.05674">
        <ele>749</ele>
        <time>2026-05-26T11:34:36.000Z</time>
      </trkpt>
      <trkpt lat="44.66439" lon="5.05674">
        <ele>749</ele>
        <time>2026-05-26T11:34:37.000Z</time>
      </trkpt>
      <trkpt lat="44.66439" lon="5.05674">
        <ele>749</ele>
        <time>2026-05-26T11:34:38.000Z</time>
      </trkpt>
      <trkpt lat="44.66439" lon="5.05674">
        <ele>749</ele>
        <time>2026-05-26T11:34:39.000Z</time>
      </trkpt>
      <trkpt lat="44.66439" lon="5.05674">
        <ele>749</ele>
        <time>2026-05-26T11:34:40.000Z</time>
      </trkpt>
      <trkpt lat="44.66439" lon="5.05674">
        <ele>749</ele>
        <time>2026-05-26T11:34:41.000Z</time>
      </trkpt>
      <trkpt lat="44.66439" lon="5.05674">
        <ele>749</ele>
        <time>2026-05-26T11:34:42.000Z</time>
      </trkpt>
      <trkpt lat="44.66439" lon="5.05674">
        <ele>749</ele>
        <time>2026-05-26T11:34:43.000Z</time>
      </trkpt>
      <trkpt lat="44.66439" lon="5.05674">
        <ele>749</ele>
        <time>2026-05-26T11:34:44.000Z</time>
      </trkpt>
      <trkpt lat="44.66439" lon="5.05674">
        <ele>749</ele>
        <time>2026-05-26T11:34:45.000Z</time>
      </trkpt>
      <trkpt lat="44.66439" lon="5.05674">
        <ele>749</ele>
        <time>2026-05-26T11:34:46.000Z</time>
      </trkpt>
      <trkpt lat="44.66439" lon="5.05674">
        <ele>749</ele>
        <time>2026-05-26T11:34:47.000Z</time>
      </trkpt>
      <trkpt lat="44.66439" lon="5.05674">
        <ele>749</ele>
        <time>2026-05-26T11:34:48.000Z</time>
      </trkpt>
      <trkpt lat="44.66439" lon="5.05674">
        <ele>749</ele>
        <time>2026-05-26T11:34:49.000Z</time>
      </trkpt>
      <trkpt lat="44.66439" lon="5.05674">
        <ele>749</ele>
        <time>2026-05-26T11:34:50.000Z</time>
      </trkpt>
      <trkpt lat="44.66439" lon="5.05674">
        <ele>749</ele>
        <time>2026-05-26T11:34:51.000Z</time>
      </trkpt>
      <trkpt lat="44.66439" lon="5.05674">
        <ele>749</ele>
        <time>2026-05-26T11:34:52.000Z</time>
      </trkpt>
      <trkpt lat="44.66439" lon="5.05674">
        <ele>749</ele>
        <time>2026-05-26T11:34:53.000Z</time>
      </trkpt>
      <trkpt lat="44.66439" lon="5.05674">
        <ele>749</ele>
        <time>2026-05-26T11:34:54.000Z</time>
      </trkpt>
      <trkpt lat="44.66439" lon="5.05674">
        <ele>749</ele>
        <time>2026-05-26T11:34:55.000Z</time>
      </trkpt>
      <trkpt lat="44.66439" lon="5.05674">
        <ele>749</ele>
        <time>2026-05-26T11:34:56.000Z</time>
      </trkpt>
      <trkpt lat="44.66439" lon="5.05674">
        <ele>749</ele>
        <time>2026-05-26T11:34:57.000Z</time>
      </trkpt>
      <trkpt lat="44.66439" lon="5.05674">
        <ele>749</ele>
        <time>2026-05-26T11:34:58.000Z</time>
      </trkpt>
      <trkpt lat="44.66439" lon="5.05674">
        <ele>749</ele>
        <time>2026-05-26T11:34:59.000Z</time>
      </trkpt>
      <trkpt lat="44.66439" lon="5.05674">
        <ele>749</ele>
        <time>2026-05-26T11:35:00.000Z</time>
      </trkpt>
      <trkpt lat="44.66439" lon="5.05674">
        <ele>749</ele>
        <time>2026-05-26T11:35:01.000Z</time>
      </trkpt>
      <trkpt lat="44.66439" lon="5.05674">
        <ele>749</ele>
        <time>2026-05-26T11:35:02.000Z</time>
      </trkpt>
      <trkpt lat="44.66439" lon="5.05674">
        <ele>749</ele>
        <time>2026-05-26T11:35:03.000Z</time>
      </trkpt>
      <trkpt lat="44.66442" lon="5.0567">
        <ele>746</ele>
        <time>2026-05-26T11:35:04.000Z</time>
      </trkpt>
      <trkpt lat="44.66442" lon="5.0567">
        <ele>746</ele>
        <time>2026-05-26T11:35:05.000Z</time>
      </trkpt>
      <trkpt lat="44.66442" lon="5.0567">
        <ele>746</ele>
        <time>2026-05-26T11:35:06.000Z</time>
      </trkpt>
      <trkpt lat="44.66441" lon="5.05671">
        <ele>745</ele>
        <time>2026-05-26T11:35:07.000Z</time>
      </trkpt>
      <trkpt lat="44.66441" lon="5.05671">
        <ele>745</ele>
        <time>2026-05-26T11:35:08.000Z</time>
      </trkpt>
      <trkpt lat="44.66441" lon="5.05671">
        <ele>745</ele>
        <time>2026-05-26T11:35:09.000Z</time>
      </trkpt>
      <trkpt lat="44.66443" lon="5.05674">
        <ele>745</ele>
        <time>2026-05-26T11:35:10.000Z</time>
      </trkpt>
      <trkpt lat="44.66442" lon="5.05675">
        <ele>746</ele>
        <time>2026-05-26T11:35:11.000Z</time>
      </trkpt>
      <trkpt lat="44.66443" lon="5.05679">
        <ele>746</ele>
        <time>2026-05-26T11:35:12.000Z</time>
      </trkpt>
      <trkpt lat="44.66445" lon="5.05684">
        <ele>747</ele>
        <time>2026-05-26T11:35:13.000Z</time>
      </trkpt>
      <trkpt lat="44.66446" lon="5.05692">
        <ele>747</ele>
        <time>2026-05-26T11:35:14.000Z</time>
      </trkpt>
      <trkpt lat="44.66443" lon="5.05695">
        <ele>748</ele>
        <time>2026-05-26T11:35:15.000Z</time>
      </trkpt>
      <trkpt lat="44.66443" lon="5.05694">
        <ele>749</ele>
        <time>2026-05-26T11:35:16.000Z</time>
      </trkpt>
      <trkpt lat="44.66443" lon="5.05696">
        <ele>751</ele>
        <time>2026-05-26T11:35:17.000Z</time>
      </trkpt>
      <trkpt lat="44.66441" lon="5.05701">
        <ele>750</ele>
        <time>2026-05-26T11:35:18.000Z</time>
      </trkpt>
      <trkpt lat="44.66442" lon="5.057">
        <ele>750</ele>
        <time>2026-05-26T11:35:19.000Z</time>
      </trkpt>
      <trkpt lat="44.66442" lon="5.05699">
        <ele>750</ele>
        <time>2026-05-26T11:35:20.000Z</time>
      </trkpt>
      <trkpt lat="44.66442" lon="5.05698">
        <ele>750</ele>
        <time>2026-05-26T11:35:21.000Z</time>
      </trkpt>
      <trkpt lat="44.66443" lon="5.05695">
        <ele>751</ele>
        <time>2026-05-26T11:35:22.000Z</time>
      </trkpt>
      <trkpt lat="44.66443" lon="5.05694">
        <ele>751</ele>
        <time>2026-05-26T11:35:23.000Z</time>
      </trkpt>
      <trkpt lat="44.66445" lon="5.05693">
        <ele>751</ele>
        <time>2026-05-26T11:35:24.000Z</time>
      </trkpt>
      <trkpt lat="44.66446" lon="5.05693">
        <ele>751</ele>
        <time>2026-05-26T11:35:25.000Z</time>
      </trkpt>
      <trkpt lat="44.66446" lon="5.05694">
        <ele>752</ele>
        <time>2026-05-26T11:35:26.000Z</time>
      </trkpt>
      <trkpt lat="44.66445" lon="5.05692">
        <ele>751</ele>
        <time>2026-05-26T11:35:27.000Z</time>
      </trkpt>
      <trkpt lat="44.66445" lon="5.0569">
        <ele>751</ele>
        <time>2026-05-26T11:35:28.000Z</time>
      </trkpt>
      <trkpt lat="44.66443" lon="5.05682">
        <ele>750</ele>
        <time>2026-05-26T11:35:29.000Z</time>
      </trkpt>
      <trkpt lat="44.66441" lon="5.05677">
        <ele>748</ele>
        <time>2026-05-26T11:35:30.000Z</time>
      </trkpt>
      <trkpt lat="44.66442" lon="5.05675">
        <ele>749</ele>
        <time>2026-05-26T11:35:31.000Z</time>
      </trkpt>
      <trkpt lat="44.66443" lon="5.05674">
        <ele>749</ele>
        <time>2026-05-26T11:35:32.000Z</time>
      </trkpt>
      <trkpt lat="44.66442" lon="5.05672">
        <ele>748</ele>
        <time>2026-05-26T11:35:33.000Z</time>
      </trkpt>
      <trkpt lat="44.66443" lon="5.05672">
        <ele>748</ele>
        <time>2026-05-26T11:35:34.000Z</time>
      </trkpt>
      <trkpt lat="44.66443" lon="5.05671">
        <ele>748</ele>
        <time>2026-05-26T11:35:35.000Z</time>
      </trkpt>
      <trkpt lat="44.66442" lon="5.05668">
        <ele>748</ele>
        <time>2026-05-26T11:35:36.000Z</time>
      </trkpt>
      <trkpt lat="44.66441" lon="5.05667">
        <ele>747</ele>
        <time>2026-05-26T11:35:37.000Z</time>
      </trkpt>
      <trkpt lat="44.66441" lon="5.05667">
        <ele>747</ele>
        <time>2026-05-26T11:35:38.000Z</time>
      </trkpt>
      <trkpt lat="44.66441" lon="5.05669">
        <ele>746</ele>
        <time>2026-05-26T11:35:39.000Z</time>
      </trkpt>
      <trkpt lat="44.66442" lon="5.05667">
        <ele>747</ele>
        <time>2026-05-26T11:35:40.000Z</time>
      </trkpt>
      <trkpt lat="44.66442" lon="5.05669">
        <ele>747</ele>
        <time>2026-05-26T11:35:41.000Z</time>
      </trkpt>
      <trkpt lat="44.66444" lon="5.0567">
        <ele>747</ele>
        <time>2026-05-26T11:35:42.000Z</time>
      </trkpt>
      <trkpt lat="44.66443" lon="5.05669">
        <ele>746</ele>
        <time>2026-05-26T11:35:43.000Z</time>
      </trkpt>
      <trkpt lat="44.66444" lon="5.05669">
        <ele>746</ele>
        <time>2026-05-26T11:35:44.000Z</time>
      </trkpt>
      <trkpt lat="44.66444" lon="5.05669">
        <ele>745</ele>
        <time>2026-05-26T11:35:45.000Z</time>
      </trkpt>
      <trkpt lat="44.66445" lon="5.0567">
        <ele>746</ele>
        <time>2026-05-26T11:35:46.000Z</time>
      </trkpt>
      <trkpt lat="44.66444" lon="5.05669">
        <ele>746</ele>
        <time>2026-05-26T11:35:47.000Z</time>
      </trkpt>
      <trkpt lat="44.66444" lon="5.05669">
        <ele>745</ele>
        <time>2026-05-26T11:35:48.000Z</time>
      </trkpt>
      <trkpt lat="44.66444" lon="5.0567">
        <ele>745</ele>
        <time>2026-05-26T11:35:49.000Z</time>
      </trkpt>
      <trkpt lat="44.66444" lon="5.05671">
        <ele>744</ele>
        <time>2026-05-26T11:35:50.000Z</time>
      </trkpt>
      <trkpt lat="44.66445" lon="5.05671">
        <ele>745</ele>
        <time>2026-05-26T11:35:51.000Z</time>
      </trkpt>
      <trkpt lat="44.66445" lon="5.05671">
        <ele>744</ele>
        <time>2026-05-26T11:35:52.000Z</time>
      </trkpt>
      <trkpt lat="44.66445" lon="5.05672">
        <ele>744</ele>
        <time>2026-05-26T11:35:53.000Z</time>
      </trkpt>
      <trkpt lat="44.66445" lon="5.05672">
        <ele>743</ele>
        <time>2026-05-26T11:35:54.000Z</time>
      </trkpt>
      <trkpt lat="44.66445" lon="5.05672">
        <ele>743</ele>
        <time>2026-05-26T11:35:55.000Z</time>
      </trkpt>
      <trkpt lat="44.66445" lon="5.05672">
        <ele>743</ele>
        <time>2026-05-26T11:35:56.000Z</time>
      </trkpt>
      <trkpt lat="44.66445" lon="5.05672">
        <ele>743</ele>
        <time>2026-05-26T11:35:57.000Z</time>
      </trkpt>
      <trkpt lat="44.66445" lon="5.05672">
        <ele>743</ele>
        <time>2026-05-26T11:35:58.000Z</time>
      </trkpt>
      <trkpt lat="44.66445" lon="5.05672">
        <ele>743</ele>
        <time>2026-05-26T11:35:59.000Z</time>
      </trkpt>
      <trkpt lat="44.66444" lon="5.05672">
        <ele>742</ele>
        <time>2026-05-26T11:36:00.000Z</time>
      </trkpt>
      <trkpt lat="44.66444" lon="5.05671">
        <ele>741</ele>
        <time>2026-05-26T11:36:01.000Z</time>
      </trkpt>
      <trkpt lat="44.66443" lon="5.0567">
        <ele>740</ele>
        <time>2026-05-26T11:36:02.000Z</time>
      </trkpt>
      <trkpt lat="44.66444" lon="5.05669">
        <ele>741</ele>
        <time>2026-05-26T11:36:03.000Z</time>
      </trkpt>
      <trkpt lat="44.66446" lon="5.0567">
        <ele>742</ele>
        <time>2026-05-26T11:36:04.000Z</time>
      </trkpt>
      <trkpt lat="44.66446" lon="5.05669">
        <ele>741</ele>
        <time>2026-05-26T11:36:05.000Z</time>
      </trkpt>
      <trkpt lat="44.66444" lon="5.05667">
        <ele>739</ele>
        <time>2026-05-26T11:36:06.000Z</time>
      </trkpt>
      <trkpt lat="44.66444" lon="5.05667">
        <ele>739</ele>
        <time>2026-05-26T11:36:07.000Z</time>
      </trkpt>
      <trkpt lat="44.66444" lon="5.05667">
        <ele>740</ele>
        <time>2026-05-26T11:36:08.000Z</time>
      </trkpt>
      <trkpt lat="44.66444" lon="5.05667">
        <ele>739</ele>
        <time>2026-05-26T11:36:09.000Z</time>
      </trkpt>
      <trkpt lat="44.66444" lon="5.05667">
        <ele>739</ele>
        <time>2026-05-26T11:36:10.000Z</time>
      </trkpt>
      <trkpt lat="44.66444" lon="5.05667">
        <ele>739</ele>
        <time>2026-05-26T11:36:11.000Z</time>
      </trkpt>
      <trkpt lat="44.66444" lon="5.05667">
        <ele>739</ele>
        <time>2026-05-26T11:36:12.000Z</time>
      </trkpt>
      <trkpt lat="44.66444" lon="5.05667">
        <ele>739</ele>
        <time>2026-05-26T11:36:13.000Z</time>
      </trkpt>
      <trkpt lat="44.66444" lon="5.05667">
        <ele>739</ele>
        <time>2026-05-26T11:36:14.000Z</time>
      </trkpt>
      <trkpt lat="44.66444" lon="5.05667">
        <ele>739</ele>
        <time>2026-05-26T11:36:15.000Z</time>
      </trkpt>
      <trkpt lat="44.66444" lon="5.05667">
        <ele>739</ele>
        <time>2026-05-26T11:36:16.000Z</time>
      </trkpt>
      <trkpt lat="44.66444" lon="5.05667">
        <ele>739</ele>
        <time>2026-05-26T11:36:17.000Z</time>
      </trkpt>
      <trkpt lat="44.66444" lon="5.05667">
        <ele>739</ele>
        <time>2026-05-26T11:36:18.000Z</time>
      </trkpt>
      <trkpt lat="44.66444" lon="5.05667">
        <ele>739</ele>
        <time>2026-05-26T11:36:19.000Z</time>
      </trkpt>
      <trkpt lat="44.66444" lon="5.05667">
        <ele>739</ele>
        <time>2026-05-26T11:36:20.000Z</time>
      </trkpt>
      <trkpt lat="44.66444" lon="5.05667">
        <ele>739</ele>
        <time>2026-05-26T11:36:21.000Z</time>
      </trkpt>
      <trkpt lat="44.66444" lon="5.05667">
        <ele>739</ele>
        <time>2026-05-26T11:36:22.000Z</time>
      </trkpt>
      <trkpt lat="44.66444" lon="5.05667">
        <ele>739</ele>
        <time>2026-05-26T11:36:23.000Z</time>
      </trkpt>
      <trkpt lat="44.66444" lon="5.05667">
        <ele>739</ele>
        <time>2026-05-26T11:36:24.000Z</time>
      </trkpt>
      <trkpt lat="44.66444" lon="5.05667">
        <ele>739</ele>
        <time>2026-05-26T11:36:25.000Z</time>
      </trkpt>
      <trkpt lat="44.66444" lon="5.05667">
        <ele>739</ele>
        <time>2026-05-26T11:36:26.000Z</time>
      </trkpt>
      <trkpt lat="44.66444" lon="5.05667">
        <ele>739</ele>
        <time>2026-05-26T11:36:27.000Z</time>
      </trkpt>
      <trkpt lat="44.66444" lon="5.05667">
        <ele>739</ele>
        <time>2026-05-26T11:36:28.000Z</time>
      </trkpt>
      <trkpt lat="44.66444" lon="5.05667">
        <ele>739</ele>
        <time>2026-05-26T11:36:29.000Z</time>
      </trkpt>
      <trkpt lat="44.66444" lon="5.05667">
        <ele>739</ele>
        <time>2026-05-26T11:36:30.000Z</time>
      </trkpt>
      <trkpt lat="44.66444" lon="5.05667">
        <ele>739</ele>
        <time>2026-05-26T11:36:31.000Z</time>
      </trkpt>
      <trkpt lat="44.66444" lon="5.05667">
        <ele>739</ele>
        <time>2026-05-26T11:36:32.000Z</time>
      </trkpt>
      <trkpt lat="44.66444" lon="5.05667">
        <ele>739</ele>
        <time>2026-05-26T11:36:33.000Z</time>
      </trkpt>
      <trkpt lat="44.66444" lon="5.05667">
        <ele>739</ele>
        <time>2026-05-26T11:36:34.000Z</time>
      </trkpt>
      <trkpt lat="44.66444" lon="5.05667">
        <ele>739</ele>
        <time>2026-05-26T11:36:35.000Z</time>
      </trkpt>
      <trkpt lat="44.66444" lon="5.05667">
        <ele>739</ele>
        <time>2026-05-26T11:36:36.000Z</time>
      </trkpt>
      <trkpt lat="44.66444" lon="5.05667">
        <ele>739</ele>
        <time>2026-05-26T11:36:37.000Z</time>
      </trkpt>
      <trkpt lat="44.66444" lon="5.05664">
        <ele>738</ele>
        <time>2026-05-26T11:36:38.000Z</time>
      </trkpt>
      <trkpt lat="44.66444" lon="5.05665">
        <ele>738</ele>
        <time>2026-05-26T11:36:39.000Z</time>
      </trkpt>
      <trkpt lat="44.66444" lon="5.05665">
        <ele>738</ele>
        <time>2026-05-26T11:36:40.000Z</time>
      </trkpt>
      <trkpt lat="44.66443" lon="5.05665">
        <ele>738</ele>
        <time>2026-05-26T11:36:41.000Z</time>
      </trkpt>
      <trkpt lat="44.66444" lon="5.05665">
        <ele>739</ele>
        <time>2026-05-26T11:36:42.000Z</time>
      </trkpt>
      <trkpt lat="44.66444" lon="5.05665">
        <ele>738</ele>
        <time>2026-05-26T11:36:43.000Z</time>
      </trkpt>
      <trkpt lat="44.66444" lon="5.05665">
        <ele>738</ele>
        <time>2026-05-26T11:36:44.000Z</time>
      </trkpt>
      <trkpt lat="44.66443" lon="5.05665">
        <ele>738</ele>
        <time>2026-05-26T11:36:45.000Z</time>
      </trkpt>
      <trkpt lat="44.66444" lon="5.05667">
        <ele>740</ele>
        <time>2026-05-26T11:36:46.000Z</time>
      </trkpt>
      <trkpt lat="44.66445" lon="5.05669">
        <ele>739</ele>
        <time>2026-05-26T11:36:47.000Z</time>
      </trkpt>
      <trkpt lat="44.66445" lon="5.05669">
        <ele>739</ele>
        <time>2026-05-26T11:36:48.000Z</time>
      </trkpt>
      <trkpt lat="44.66446" lon="5.0567">
        <ele>741</ele>
        <time>2026-05-26T11:36:49.000Z</time>
      </trkpt>
      <trkpt lat="44.66447" lon="5.05671">
        <ele>742</ele>
        <time>2026-05-26T11:36:50.000Z</time>
      </trkpt>
      <trkpt lat="44.66448" lon="5.0567">
        <ele>741</ele>
        <time>2026-05-26T11:36:51.000Z</time>
      </trkpt>
      <trkpt lat="44.66447" lon="5.05668">
        <ele>741</ele>
        <time>2026-05-26T11:36:52.000Z</time>
      </trkpt>
      <trkpt lat="44.66446" lon="5.05667">
        <ele>740</ele>
        <time>2026-05-26T11:36:53.000Z</time>
      </trkpt>
      <trkpt lat="44.66446" lon="5.05668">
        <ele>740</ele>
        <time>2026-05-26T11:36:54.000Z</time>
      </trkpt>
      <trkpt lat="44.66447" lon="5.05667">
        <ele>740</ele>
        <time>2026-05-26T11:36:55.000Z</time>
      </trkpt>
      <trkpt lat="44.66447" lon="5.05666">
        <ele>740</ele>
        <time>2026-05-26T11:36:56.000Z</time>
      </trkpt>
      <trkpt lat="44.66447" lon="5.05666">
        <ele>740</ele>
        <time>2026-05-26T11:36:57.000Z</time>
      </trkpt>
      <trkpt lat="44.66449" lon="5.05668">
        <ele>739</ele>
        <time>2026-05-26T11:36:58.000Z</time>
      </trkpt>
      <trkpt lat="44.6645" lon="5.05671">
        <ele>738</ele>
        <time>2026-05-26T11:36:59.000Z</time>
      </trkpt>
      <trkpt lat="44.66451" lon="5.05671">
        <ele>739</ele>
        <time>2026-05-26T11:37:00.000Z</time>
      </trkpt>
      <trkpt lat="44.66451" lon="5.05671">
        <ele>739</ele>
        <time>2026-05-26T11:37:01.000Z</time>
      </trkpt>
      <trkpt lat="44.6645" lon="5.05671">
        <ele>739</ele>
        <time>2026-05-26T11:37:02.000Z</time>
      </trkpt>
      <trkpt lat="44.6645" lon="5.05671">
        <ele>739</ele>
        <time>2026-05-26T11:37:03.000Z</time>
      </trkpt>
      <trkpt lat="44.66449" lon="5.05671">
        <ele>739</ele>
        <time>2026-05-26T11:37:04.000Z</time>
      </trkpt>
      <trkpt lat="44.66449" lon="5.05672">
        <ele>740</ele>
        <time>2026-05-26T11:37:05.000Z</time>
      </trkpt>
      <trkpt lat="44.66448" lon="5.05671">
        <ele>740</ele>
        <time>2026-05-26T11:37:06.000Z</time>
      </trkpt>
      <trkpt lat="44.66448" lon="5.05672">
        <ele>740</ele>
        <time>2026-05-26T11:37:07.000Z</time>
      </trkpt>
      <trkpt lat="44.66448" lon="5.05674">
        <ele>739</ele>
        <time>2026-05-26T11:37:08.000Z</time>
      </trkpt>
      <trkpt lat="44.66448" lon="5.05673">
        <ele>739</ele>
        <time>2026-05-26T11:37:09.000Z</time>
      </trkpt>
      <trkpt lat="44.66448" lon="5.05671">
        <ele>739</ele>
        <time>2026-05-26T11:37:10.000Z</time>
      </trkpt>
      <trkpt lat="44.66449" lon="5.05669">
        <ele>738</ele>
        <time>2026-05-26T11:37:11.000Z</time>
      </trkpt>
      <trkpt lat="44.66449" lon="5.05669">
        <ele>738</ele>
        <time>2026-05-26T11:37:12.000Z</time>
      </trkpt>
      <trkpt lat="44.66449" lon="5.05668">
        <ele>739</ele>
        <time>2026-05-26T11:37:13.000Z</time>
      </trkpt>
      <trkpt lat="44.6645" lon="5.05668">
        <ele>738</ele>
        <time>2026-05-26T11:37:14.000Z</time>
      </trkpt>
      <trkpt lat="44.6645" lon="5.05669">
        <ele>739</ele>
        <time>2026-05-26T11:37:15.000Z</time>
      </trkpt>
      <trkpt lat="44.66451" lon="5.05671">
        <ele>740</ele>
        <time>2026-05-26T11:37:16.000Z</time>
      </trkpt>
      <trkpt lat="44.66452" lon="5.0567">
        <ele>739</ele>
        <time>2026-05-26T11:37:17.000Z</time>
      </trkpt>
      <trkpt lat="44.66452" lon="5.05669">
        <ele>738</ele>
        <time>2026-05-26T11:37:18.000Z</time>
      </trkpt>
      <trkpt lat="44.66451" lon="5.05669">
        <ele>737</ele>
        <time>2026-05-26T11:37:19.000Z</time>
      </trkpt>
      <trkpt lat="44.66452" lon="5.05668">
        <ele>737</ele>
        <time>2026-05-26T11:37:20.000Z</time>
      </trkpt>
      <trkpt lat="44.66451" lon="5.05665">
        <ele>734</ele>
        <time>2026-05-26T11:37:21.000Z</time>
      </trkpt>
      <trkpt lat="44.66451" lon="5.05665">
        <ele>734</ele>
        <time>2026-05-26T11:37:22.000Z</time>
      </trkpt>
      <trkpt lat="44.66451" lon="5.05665">
        <ele>734</ele>
        <time>2026-05-26T11:37:23.000Z</time>
      </trkpt>
      <trkpt lat="44.66451" lon="5.05663">
        <ele>734</ele>
        <time>2026-05-26T11:37:24.000Z</time>
      </trkpt>
      <trkpt lat="44.66452" lon="5.05662">
        <ele>733</ele>
        <time>2026-05-26T11:37:25.000Z</time>
      </trkpt>
      <trkpt lat="44.66452" lon="5.05661">
        <ele>733</ele>
        <time>2026-05-26T11:37:26.000Z</time>
      </trkpt>
      <trkpt lat="44.66454" lon="5.0566">
        <ele>733</ele>
        <time>2026-05-26T11:37:27.000Z</time>
      </trkpt>
      <trkpt lat="44.66455" lon="5.0566">
        <ele>732</ele>
        <time>2026-05-26T11:37:28.000Z</time>
      </trkpt>
      <trkpt lat="44.66455" lon="5.05659">
        <ele>732</ele>
        <time>2026-05-26T11:37:29.000Z</time>
      </trkpt>
      <trkpt lat="44.66456" lon="5.05659">
        <ele>732</ele>
        <time>2026-05-26T11:37:30.000Z</time>
      </trkpt>
      <trkpt lat="44.66457" lon="5.05658">
        <ele>732</ele>
        <time>2026-05-26T11:37:31.000Z</time>
      </trkpt>
      <trkpt lat="44.66457" lon="5.05657">
        <ele>732</ele>
        <time>2026-05-26T11:37:32.000Z</time>
      </trkpt>
      <trkpt lat="44.66457" lon="5.05658">
        <ele>732</ele>
        <time>2026-05-26T11:37:33.000Z</time>
      </trkpt>
      <trkpt lat="44.66459" lon="5.05658">
        <ele>732</ele>
        <time>2026-05-26T11:37:34.000Z</time>
      </trkpt>
      <trkpt lat="44.6646" lon="5.05657">
        <ele>732</ele>
        <time>2026-05-26T11:37:35.000Z</time>
      </trkpt>
      <trkpt lat="44.6646" lon="5.05656">
        <ele>733</ele>
        <time>2026-05-26T11:37:36.000Z</time>
      </trkpt>
      <trkpt lat="44.6646" lon="5.05655">
        <ele>733</ele>
        <time>2026-05-26T11:37:37.000Z</time>
      </trkpt>
      <trkpt lat="44.6646" lon="5.05655">
        <ele>732</ele>
        <time>2026-05-26T11:37:38.000Z</time>
      </trkpt>
      <trkpt lat="44.66461" lon="5.05655">
        <ele>732</ele>
        <time>2026-05-26T11:37:39.000Z</time>
      </trkpt>
      <trkpt lat="44.66462" lon="5.05654">
        <ele>732</ele>
        <time>2026-05-26T11:37:40.000Z</time>
      </trkpt>
      <trkpt lat="44.66463" lon="5.05652">
        <ele>731</ele>
        <time>2026-05-26T11:37:41.000Z</time>
      </trkpt>
      <trkpt lat="44.66463" lon="5.05652">
        <ele>731</ele>
        <time>2026-05-26T11:37:42.000Z</time>
      </trkpt>
      <trkpt lat="44.66463" lon="5.05652">
        <ele>731</ele>
        <time>2026-05-26T11:37:43.000Z</time>
      </trkpt>
      <trkpt lat="44.66463" lon="5.05653">
        <ele>731</ele>
        <time>2026-05-26T11:37:44.000Z</time>
      </trkpt>
      <trkpt lat="44.66464" lon="5.05654">
        <ele>731</ele>
        <time>2026-05-26T11:37:45.000Z</time>
      </trkpt>
      <trkpt lat="44.66464" lon="5.05653">
        <ele>730</ele>
        <time>2026-05-26T11:37:46.000Z</time>
      </trkpt>
      <trkpt lat="44.66465" lon="5.05652">
        <ele>730</ele>
        <time>2026-05-26T11:37:47.000Z</time>
      </trkpt>
      <trkpt lat="44.66465" lon="5.05651">
        <ele>731</ele>
        <time>2026-05-26T11:37:48.000Z</time>
      </trkpt>
      <trkpt lat="44.66465" lon="5.05651">
        <ele>731</ele>
        <time>2026-05-26T11:37:49.000Z</time>
      </trkpt>
      <trkpt lat="44.66465" lon="5.0565">
        <ele>730</ele>
        <time>2026-05-26T11:37:50.000Z</time>
      </trkpt>
      <trkpt lat="44.66467" lon="5.05649">
        <ele>731</ele>
        <time>2026-05-26T11:37:51.000Z</time>
      </trkpt>
      <trkpt lat="44.66468" lon="5.05648">
        <ele>731</ele>
        <time>2026-05-26T11:37:52.000Z</time>
      </trkpt>
      <trkpt lat="44.66469" lon="5.05648">
        <ele>731</ele>
        <time>2026-05-26T11:37:53.000Z</time>
      </trkpt>
      <trkpt lat="44.66471" lon="5.05649">
        <ele>731</ele>
        <time>2026-05-26T11:37:54.000Z</time>
      </trkpt>
      <trkpt lat="44.66472" lon="5.05649">
        <ele>731</ele>
        <time>2026-05-26T11:37:55.000Z</time>
      </trkpt>
      <trkpt lat="44.66473" lon="5.05647">
        <ele>732</ele>
        <time>2026-05-26T11:37:56.000Z</time>
      </trkpt>
      <trkpt lat="44.66474" lon="5.05646">
        <ele>733</ele>
        <time>2026-05-26T11:37:57.000Z</time>
      </trkpt>
      <trkpt lat="44.66475" lon="5.05642">
        <ele>734</ele>
        <time>2026-05-26T11:37:58.000Z</time>
      </trkpt>
      <trkpt lat="44.66476" lon="5.05637">
        <ele>733</ele>
        <time>2026-05-26T11:37:59.000Z</time>
      </trkpt>
      <trkpt lat="44.66477" lon="5.05635">
        <ele>733</ele>
        <time>2026-05-26T11:38:00.000Z</time>
      </trkpt>
      <trkpt lat="44.66477" lon="5.05633">
        <ele>733</ele>
        <time>2026-05-26T11:38:01.000Z</time>
      </trkpt>
      <trkpt lat="44.66478" lon="5.05631">
        <ele>732</ele>
        <time>2026-05-26T11:38:02.000Z</time>
      </trkpt>
      <trkpt lat="44.66479" lon="5.05629">
        <ele>732</ele>
        <time>2026-05-26T11:38:03.000Z</time>
      </trkpt>
      <trkpt lat="44.6648" lon="5.05629">
        <ele>733</ele>
        <time>2026-05-26T11:38:04.000Z</time>
      </trkpt>
      <trkpt lat="44.6648" lon="5.05629">
        <ele>733</ele>
        <time>2026-05-26T11:38:05.000Z</time>
      </trkpt>
      <trkpt lat="44.66481" lon="5.05628">
        <ele>733</ele>
        <time>2026-05-26T11:38:06.000Z</time>
      </trkpt>
      <trkpt lat="44.66481" lon="5.05626">
        <ele>733</ele>
        <time>2026-05-26T11:38:07.000Z</time>
      </trkpt>
      <trkpt lat="44.66482" lon="5.05626">
        <ele>732</ele>
        <time>2026-05-26T11:38:08.000Z</time>
      </trkpt>
      <trkpt lat="44.66482" lon="5.05626">
        <ele>732</ele>
        <time>2026-05-26T11:38:09.000Z</time>
      </trkpt>
      <trkpt lat="44.66481" lon="5.05625">
        <ele>733</ele>
        <time>2026-05-26T11:38:10.000Z</time>
      </trkpt>
      <trkpt lat="44.66481" lon="5.05625">
        <ele>733</ele>
        <time>2026-05-26T11:38:11.000Z</time>
      </trkpt>
      <trkpt lat="44.66481" lon="5.05626">
        <ele>733</ele>
        <time>2026-05-26T11:38:12.000Z</time>
      </trkpt>
      <trkpt lat="44.66481" lon="5.05626">
        <ele>733</ele>
        <time>2026-05-26T11:38:13.000Z</time>
      </trkpt>
      <trkpt lat="44.66481" lon="5.05626">
        <ele>733</ele>
        <time>2026-05-26T11:38:14.000Z</time>
      </trkpt>
      <trkpt lat="44.66482" lon="5.05626">
        <ele>733</ele>
        <time>2026-05-26T11:38:15.000Z</time>
      </trkpt>
      <trkpt lat="44.66482" lon="5.05626">
        <ele>733</ele>
        <time>2026-05-26T11:38:16.000Z</time>
      </trkpt>
      <trkpt lat="44.66482" lon="5.05626">
        <ele>733</ele>
        <time>2026-05-26T11:38:17.000Z</time>
      </trkpt>
      <trkpt lat="44.66482" lon="5.05626">
        <ele>733</ele>
        <time>2026-05-26T11:38:18.000Z</time>
      </trkpt>
      <trkpt lat="44.66482" lon="5.05626">
        <ele>733</ele>
        <time>2026-05-26T11:38:19.000Z</time>
      </trkpt>
      <trkpt lat="44.66483" lon="5.05625">
        <ele>733</ele>
        <time>2026-05-26T11:38:20.000Z</time>
      </trkpt>
      <trkpt lat="44.66483" lon="5.05624">
        <ele>733</ele>
        <time>2026-05-26T11:38:21.000Z</time>
      </trkpt>
      <trkpt lat="44.66484" lon="5.05624">
        <ele>733</ele>
        <time>2026-05-26T11:38:22.000Z</time>
      </trkpt>
      <trkpt lat="44.66485" lon="5.05623">
        <ele>734</ele>
        <time>2026-05-26T11:38:23.000Z</time>
      </trkpt>
      <trkpt lat="44.66485" lon="5.05623">
        <ele>733</ele>
        <time>2026-05-26T11:38:24.000Z</time>
      </trkpt>
      <trkpt lat="44.66486" lon="5.05623">
        <ele>733</ele>
        <time>2026-05-26T11:38:25.000Z</time>
      </trkpt>
      <trkpt lat="44.66487" lon="5.05623">
        <ele>733</ele>
        <time>2026-05-26T11:38:26.000Z</time>
      </trkpt>
      <trkpt lat="44.66488" lon="5.05624">
        <ele>733</ele>
        <time>2026-05-26T11:38:27.000Z</time>
      </trkpt>
      <trkpt lat="44.66488" lon="5.05624">
        <ele>733</ele>
        <time>2026-05-26T11:38:28.000Z</time>
      </trkpt>
      <trkpt lat="44.66488" lon="5.05624">
        <ele>734</ele>
        <time>2026-05-26T11:38:29.000Z</time>
      </trkpt>
      <trkpt lat="44.66488" lon="5.05625">
        <ele>733</ele>
        <time>2026-05-26T11:38:30.000Z</time>
      </trkpt>
      <trkpt lat="44.66488" lon="5.05624">
        <ele>733</ele>
        <time>2026-05-26T11:38:31.000Z</time>
      </trkpt>
      <trkpt lat="44.66489" lon="5.05624">
        <ele>733</ele>
        <time>2026-05-26T11:38:32.000Z</time>
      </trkpt>
      <trkpt lat="44.6649" lon="5.05623">
        <ele>733</ele>
        <time>2026-05-26T11:38:33.000Z</time>
      </trkpt>
      <trkpt lat="44.66491" lon="5.05621">
        <ele>734</ele>
        <time>2026-05-26T11:38:34.000Z</time>
      </trkpt>
      <trkpt lat="44.66492" lon="5.05621">
        <ele>733</ele>
        <time>2026-05-26T11:38:35.000Z</time>
      </trkpt>
      <trkpt lat="44.6649" lon="5.05619">
        <ele>733</ele>
        <time>2026-05-26T11:38:36.000Z</time>
      </trkpt>
      <trkpt lat="44.6649" lon="5.05619">
        <ele>734</ele>
        <time>2026-05-26T11:38:37.000Z</time>
      </trkpt>
      <trkpt lat="44.6649" lon="5.05619">
        <ele>734</ele>
        <time>2026-05-26T11:38:38.000Z</time>
      </trkpt>
      <trkpt lat="44.66491" lon="5.05618">
        <ele>734</ele>
        <time>2026-05-26T11:38:39.000Z</time>
      </trkpt>
      <trkpt lat="44.66492" lon="5.05617">
        <ele>735</ele>
        <time>2026-05-26T11:38:40.000Z</time>
      </trkpt>
      <trkpt lat="44.66493" lon="5.05618">
        <ele>735</ele>
        <time>2026-05-26T11:38:41.000Z</time>
      </trkpt>
      <trkpt lat="44.66494" lon="5.05619">
        <ele>734</ele>
        <time>2026-05-26T11:38:42.000Z</time>
      </trkpt>
      <trkpt lat="44.66494" lon="5.05619">
        <ele>736</ele>
        <time>2026-05-26T11:38:43.000Z</time>
      </trkpt>
      <trkpt lat="44.66494" lon="5.05618">
        <ele>737</ele>
        <time>2026-05-26T11:38:44.000Z</time>
      </trkpt>
      <trkpt lat="44.66495" lon="5.05617">
        <ele>736</ele>
        <time>2026-05-26T11:38:45.000Z</time>
      </trkpt>
      <trkpt lat="44.66495" lon="5.05617">
        <ele>736</ele>
        <time>2026-05-26T11:38:46.000Z</time>
      </trkpt>
      <trkpt lat="44.66496" lon="5.05617">
        <ele>736</ele>
        <time>2026-05-26T11:38:47.000Z</time>
      </trkpt>
      <trkpt lat="44.66496" lon="5.05616">
        <ele>735</ele>
        <time>2026-05-26T11:38:48.000Z</time>
      </trkpt>
      <trkpt lat="44.66496" lon="5.05617">
        <ele>735</ele>
        <time>2026-05-26T11:38:49.000Z</time>
      </trkpt>
      <trkpt lat="44.66498" lon="5.05619">
        <ele>735</ele>
        <time>2026-05-26T11:38:50.000Z</time>
      </trkpt>
      <trkpt lat="44.66499" lon="5.0562">
        <ele>735</ele>
        <time>2026-05-26T11:38:51.000Z</time>
      </trkpt>
      <trkpt lat="44.66499" lon="5.0562">
        <ele>736</ele>
        <time>2026-05-26T11:38:52.000Z</time>
      </trkpt>
      <trkpt lat="44.665" lon="5.05619">
        <ele>736</ele>
        <time>2026-05-26T11:38:53.000Z</time>
      </trkpt>
      <trkpt lat="44.66501" lon="5.05619">
        <ele>738</ele>
        <time>2026-05-26T11:38:54.000Z</time>
      </trkpt>
      <trkpt lat="44.66501" lon="5.05616">
        <ele>738</ele>
        <time>2026-05-26T11:38:55.000Z</time>
      </trkpt>
      <trkpt lat="44.66502" lon="5.05614">
        <ele>738</ele>
        <time>2026-05-26T11:38:56.000Z</time>
      </trkpt>
      <trkpt lat="44.66502" lon="5.05613">
        <ele>738</ele>
        <time>2026-05-26T11:38:57.000Z</time>
      </trkpt>
      <trkpt lat="44.66501" lon="5.05612">
        <ele>738</ele>
        <time>2026-05-26T11:38:58.000Z</time>
      </trkpt>
      <trkpt lat="44.66503" lon="5.05611">
        <ele>739</ele>
        <time>2026-05-26T11:38:59.000Z</time>
      </trkpt>
      <trkpt lat="44.66503" lon="5.0561">
        <ele>738</ele>
        <time>2026-05-26T11:39:00.000Z</time>
      </trkpt>
      <trkpt lat="44.66504" lon="5.05611">
        <ele>736</ele>
        <time>2026-05-26T11:39:01.000Z</time>
      </trkpt>
      <trkpt lat="44.66505" lon="5.0561">
        <ele>734</ele>
        <time>2026-05-26T11:39:02.000Z</time>
      </trkpt>
      <trkpt lat="44.66505" lon="5.05608">
        <ele>731</ele>
        <time>2026-05-26T11:39:03.000Z</time>
      </trkpt>
      <trkpt lat="44.66507" lon="5.05607">
        <ele>729</ele>
        <time>2026-05-26T11:39:04.000Z</time>
      </trkpt>
      <trkpt lat="44.66508" lon="5.05604">
        <ele>727</ele>
        <time>2026-05-26T11:39:05.000Z</time>
      </trkpt>
      <trkpt lat="44.66508" lon="5.05604">
        <ele>727</ele>
        <time>2026-05-26T11:39:06.000Z</time>
      </trkpt>
      <trkpt lat="44.66508" lon="5.05604">
        <ele>727</ele>
        <time>2026-05-26T11:39:07.000Z</time>
      </trkpt>
      <trkpt lat="44.66508" lon="5.05604">
        <ele>727</ele>
        <time>2026-05-26T11:39:08.000Z</time>
      </trkpt>
      <trkpt lat="44.66508" lon="5.05604">
        <ele>727</ele>
        <time>2026-05-26T11:39:09.000Z</time>
      </trkpt>
      <trkpt lat="44.66508" lon="5.05604">
        <ele>727</ele>
        <time>2026-05-26T11:39:10.000Z</time>
      </trkpt>
      <trkpt lat="44.66508" lon="5.05604">
        <ele>727</ele>
        <time>2026-05-26T11:39:11.000Z</time>
      </trkpt>
      <trkpt lat="44.66508" lon="5.05604">
        <ele>727</ele>
        <time>2026-05-26T11:39:12.000Z</time>
      </trkpt>
      <trkpt lat="44.66508" lon="5.05604">
        <ele>727</ele>
        <time>2026-05-26T11:39:13.000Z</time>
      </trkpt>
      <trkpt lat="44.66508" lon="5.05604">
        <ele>727</ele>
        <time>2026-05-26T11:39:14.000Z</time>
      </trkpt>
      <trkpt lat="44.66508" lon="5.05604">
        <ele>727</ele>
        <time>2026-05-26T11:39:15.000Z</time>
      </trkpt>
      <trkpt lat="44.66508" lon="5.05603">
        <ele>724</ele>
        <time>2026-05-26T11:39:16.000Z</time>
      </trkpt>
      <trkpt lat="44.66508" lon="5.05603">
        <ele>724</ele>
        <time>2026-05-26T11:39:17.000Z</time>
      </trkpt>
      <trkpt lat="44.66508" lon="5.05603">
        <ele>724</ele>
        <time>2026-05-26T11:39:18.000Z</time>
      </trkpt>
      <trkpt lat="44.66508" lon="5.05603">
        <ele>724</ele>
        <time>2026-05-26T11:39:19.000Z</time>
      </trkpt>
      <trkpt lat="44.66508" lon="5.05603">
        <ele>724</ele>
        <time>2026-05-26T11:39:20.000Z</time>
      </trkpt>
      <trkpt lat="44.66508" lon="5.05603">
        <ele>724</ele>
        <time>2026-05-26T11:39:21.000Z</time>
      </trkpt>
      <trkpt lat="44.66508" lon="5.05603">
        <ele>724</ele>
        <time>2026-05-26T11:39:22.000Z</time>
      </trkpt>
      <trkpt lat="44.66508" lon="5.05603">
        <ele>724</ele>
        <time>2026-05-26T11:39:23.000Z</time>
      </trkpt>
      <trkpt lat="44.66508" lon="5.05603">
        <ele>724</ele>
        <time>2026-05-26T11:39:24.000Z</time>
      </trkpt>
      <trkpt lat="44.66508" lon="5.05603">
        <ele>724</ele>
        <time>2026-05-26T11:39:25.000Z</time>
      </trkpt>
      <trkpt lat="44.66508" lon="5.05603">
        <ele>724</ele>
        <time>2026-05-26T11:39:26.000Z</time>
      </trkpt>
      <trkpt lat="44.66508" lon="5.05603">
        <ele>724</ele>
        <time>2026-05-26T11:39:27.000Z</time>
      </trkpt>
      <trkpt lat="44.66508" lon="5.05603">
        <ele>724</ele>
        <time>2026-05-26T11:39:28.000Z</time>
      </trkpt>
      <trkpt lat="44.66508" lon="5.05603">
        <ele>724</ele>
        <time>2026-05-26T11:39:29.000Z</time>
      </trkpt>
      <trkpt lat="44.66508" lon="5.05603">
        <ele>724</ele>
        <time>2026-05-26T11:39:30.000Z</time>
      </trkpt>
      <trkpt lat="44.66508" lon="5.05603">
        <ele>724</ele>
        <time>2026-05-26T11:39:31.000Z</time>
      </trkpt>
      <trkpt lat="44.66508" lon="5.05603">
        <ele>724</ele>
        <time>2026-05-26T11:39:32.000Z</time>
      </trkpt>
      <trkpt lat="44.66505" lon="5.056">
        <ele>724</ele>
        <time>2026-05-26T11:39:33.000Z</time>
      </trkpt>
      <trkpt lat="44.66505" lon="5.056">
        <ele>724</ele>
        <time>2026-05-26T11:39:34.000Z</time>
      </trkpt>
      <trkpt lat="44.66504" lon="5.056">
        <ele>724</ele>
        <time>2026-05-26T11:39:35.000Z</time>
      </trkpt>
      <trkpt lat="44.66504" lon="5.056">
        <ele>724</ele>
        <time>2026-05-26T11:39:36.000Z</time>
      </trkpt>
      <trkpt lat="44.66504" lon="5.056">
        <ele>724</ele>
        <time>2026-05-26T11:39:37.000Z</time>
      </trkpt>
      <trkpt lat="44.66504" lon="5.056">
        <ele>724</ele>
        <time>2026-05-26T11:39:38.000Z</time>
      </trkpt>
      <trkpt lat="44.66504" lon="5.056">
        <ele>724</ele>
        <time>2026-05-26T11:39:39.000Z</time>
      </trkpt>
      <trkpt lat="44.66504" lon="5.056">
        <ele>724</ele>
        <time>2026-05-26T11:39:40.000Z</time>
      </trkpt>
      <trkpt lat="44.66504" lon="5.056">
        <ele>724</ele>
        <time>2026-05-26T11:39:41.000Z</time>
      </trkpt>
      <trkpt lat="44.66504" lon="5.056">
        <ele>724</ele>
        <time>2026-05-26T11:39:42.000Z</time>
      </trkpt>
      <trkpt lat="44.66505" lon="5.05599">
        <ele>723</ele>
        <time>2026-05-26T11:39:43.000Z</time>
      </trkpt>
      <trkpt lat="44.66506" lon="5.056">
        <ele>724</ele>
        <time>2026-05-26T11:39:44.000Z</time>
      </trkpt>
      <trkpt lat="44.66507" lon="5.05599">
        <ele>723</ele>
        <time>2026-05-26T11:39:45.000Z</time>
      </trkpt>
      <trkpt lat="44.66507" lon="5.05599">
        <ele>722</ele>
        <time>2026-05-26T11:39:46.000Z</time>
      </trkpt>
      <trkpt lat="44.66509" lon="5.05599">
        <ele>722</ele>
        <time>2026-05-26T11:39:47.000Z</time>
      </trkpt>
      <trkpt lat="44.66511" lon="5.05599">
        <ele>720</ele>
        <time>2026-05-26T11:39:48.000Z</time>
      </trkpt>
      <trkpt lat="44.66512" lon="5.05598">
        <ele>720</ele>
        <time>2026-05-26T11:39:49.000Z</time>
      </trkpt>
      <trkpt lat="44.66512" lon="5.05597">
        <ele>720</ele>
        <time>2026-05-26T11:39:50.000Z</time>
      </trkpt>
      <trkpt lat="44.66513" lon="5.05596">
        <ele>721</ele>
        <time>2026-05-26T11:39:51.000Z</time>
      </trkpt>
      <trkpt lat="44.66514" lon="5.05596">
        <ele>722</ele>
        <time>2026-05-26T11:39:52.000Z</time>
      </trkpt>
      <trkpt lat="44.66514" lon="5.05595">
        <ele>722</ele>
        <time>2026-05-26T11:39:53.000Z</time>
      </trkpt>
      <trkpt lat="44.66513" lon="5.05595">
        <ele>722</ele>
        <time>2026-05-26T11:39:54.000Z</time>
      </trkpt>
      <trkpt lat="44.66513" lon="5.05595">
        <ele>722</ele>
        <time>2026-05-26T11:39:55.000Z</time>
      </trkpt>
      <trkpt lat="44.66514" lon="5.05593">
        <ele>723</ele>
        <time>2026-05-26T11:39:56.000Z</time>
      </trkpt>
      <trkpt lat="44.66515" lon="5.05593">
        <ele>723</ele>
        <time>2026-05-26T11:39:57.000Z</time>
      </trkpt>
      <trkpt lat="44.66516" lon="5.05593">
        <ele>723</ele>
        <time>2026-05-26T11:39:58.000Z</time>
      </trkpt>
      <trkpt lat="44.66517" lon="5.05593">
        <ele>723</ele>
        <time>2026-05-26T11:39:59.000Z</time>
      </trkpt>
      <trkpt lat="44.66518" lon="5.05592">
        <ele>722</ele>
        <time>2026-05-26T11:40:00.000Z</time>
      </trkpt>
      <trkpt lat="44.6652" lon="5.05592">
        <ele>721</ele>
        <time>2026-05-26T11:40:01.000Z</time>
      </trkpt>
      <trkpt lat="44.6652" lon="5.05593">
        <ele>721</ele>
        <time>2026-05-26T11:40:02.000Z</time>
      </trkpt>
      <trkpt lat="44.66521" lon="5.05592">
        <ele>722</ele>
        <time>2026-05-26T11:40:03.000Z</time>
      </trkpt>
      <trkpt lat="44.66522" lon="5.05591">
        <ele>722</ele>
        <time>2026-05-26T11:40:04.000Z</time>
      </trkpt>
      <trkpt lat="44.66521" lon="5.05589">
        <ele>722</ele>
        <time>2026-05-26T11:40:05.000Z</time>
      </trkpt>
      <trkpt lat="44.66522" lon="5.05587">
        <ele>722</ele>
        <time>2026-05-26T11:40:06.000Z</time>
      </trkpt>
      <trkpt lat="44.66522" lon="5.05586">
        <ele>724</ele>
        <time>2026-05-26T11:40:07.000Z</time>
      </trkpt>
      <trkpt lat="44.66523" lon="5.05584">
        <ele>724</ele>
        <time>2026-05-26T11:40:08.000Z</time>
      </trkpt>
      <trkpt lat="44.66524" lon="5.05582">
        <ele>724</ele>
        <time>2026-05-26T11:40:09.000Z</time>
      </trkpt>
      <trkpt lat="44.66524" lon="5.05582">
        <ele>724</ele>
        <time>2026-05-26T11:40:10.000Z</time>
      </trkpt>
      <trkpt lat="44.66524" lon="5.0558">
        <ele>724</ele>
        <time>2026-05-26T11:40:11.000Z</time>
      </trkpt>
      <trkpt lat="44.66525" lon="5.0558">
        <ele>725</ele>
        <time>2026-05-26T11:40:12.000Z</time>
      </trkpt>
      <trkpt lat="44.66525" lon="5.05578">
        <ele>726</ele>
        <time>2026-05-26T11:40:13.000Z</time>
      </trkpt>
      <trkpt lat="44.66525" lon="5.05577">
        <ele>725</ele>
        <time>2026-05-26T11:40:14.000Z</time>
      </trkpt>
      <trkpt lat="44.66526" lon="5.05577">
        <ele>726</ele>
        <time>2026-05-26T11:40:15.000Z</time>
      </trkpt>
      <trkpt lat="44.66526" lon="5.05577">
        <ele>726</ele>
        <time>2026-05-26T11:40:16.000Z</time>
      </trkpt>
      <trkpt lat="44.66527" lon="5.05578">
        <ele>725</ele>
        <time>2026-05-26T11:40:17.000Z</time>
      </trkpt>
      <trkpt lat="44.66528" lon="5.05578">
        <ele>725</ele>
        <time>2026-05-26T11:40:18.000Z</time>
      </trkpt>
      <trkpt lat="44.66529" lon="5.05578">
        <ele>724</ele>
        <time>2026-05-26T11:40:19.000Z</time>
      </trkpt>
      <trkpt lat="44.66531" lon="5.05578">
        <ele>725</ele>
        <time>2026-05-26T11:40:20.000Z</time>
      </trkpt>
      <trkpt lat="44.66532" lon="5.05579">
        <ele>725</ele>
        <time>2026-05-26T11:40:21.000Z</time>
      </trkpt>
      <trkpt lat="44.66533" lon="5.0558">
        <ele>725</ele>
        <time>2026-05-26T11:40:22.000Z</time>
      </trkpt>
      <trkpt lat="44.66534" lon="5.0558">
        <ele>726</ele>
        <time>2026-05-26T11:40:23.000Z</time>
      </trkpt>
      <trkpt lat="44.66534" lon="5.0558">
        <ele>726</ele>
        <time>2026-05-26T11:40:24.000Z</time>
      </trkpt>
      <trkpt lat="44.66535" lon="5.0558">
        <ele>726</ele>
        <time>2026-05-26T11:40:25.000Z</time>
      </trkpt>
      <trkpt lat="44.66535" lon="5.0558">
        <ele>726</ele>
        <time>2026-05-26T11:40:26.000Z</time>
      </trkpt>
      <trkpt lat="44.66536" lon="5.05579">
        <ele>725</ele>
        <time>2026-05-26T11:40:27.000Z</time>
      </trkpt>
      <trkpt lat="44.66538" lon="5.05577">
        <ele>726</ele>
        <time>2026-05-26T11:40:28.000Z</time>
      </trkpt>
      <trkpt lat="44.66538" lon="5.05575">
        <ele>726</ele>
        <time>2026-05-26T11:40:29.000Z</time>
      </trkpt>
      <trkpt lat="44.66538" lon="5.05574">
        <ele>727</ele>
        <time>2026-05-26T11:40:30.000Z</time>
      </trkpt>
      <trkpt lat="44.6654" lon="5.05573">
        <ele>728</ele>
        <time>2026-05-26T11:40:31.000Z</time>
      </trkpt>
      <trkpt lat="44.6654" lon="5.05571">
        <ele>729</ele>
        <time>2026-05-26T11:40:32.000Z</time>
      </trkpt>
      <trkpt lat="44.66541" lon="5.05569">
        <ele>728</ele>
        <time>2026-05-26T11:40:33.000Z</time>
      </trkpt>
      <trkpt lat="44.66541" lon="5.05569">
        <ele>728</ele>
        <time>2026-05-26T11:40:34.000Z</time>
      </trkpt>
      <trkpt lat="44.66541" lon="5.05569">
        <ele>728</ele>
        <time>2026-05-26T11:40:35.000Z</time>
      </trkpt>
      <trkpt lat="44.66541" lon="5.05569">
        <ele>728</ele>
        <time>2026-05-26T11:40:36.000Z</time>
      </trkpt>
      <trkpt lat="44.66541" lon="5.05569">
        <ele>728</ele>
        <time>2026-05-26T11:40:37.000Z</time>
      </trkpt>
      <trkpt lat="44.66541" lon="5.05569">
        <ele>728</ele>
        <time>2026-05-26T11:40:38.000Z</time>
      </trkpt>
      <trkpt lat="44.66541" lon="5.05569">
        <ele>728</ele>
        <time>2026-05-26T11:40:39.000Z</time>
      </trkpt>
      <trkpt lat="44.66541" lon="5.05569">
        <ele>728</ele>
        <time>2026-05-26T11:40:40.000Z</time>
      </trkpt>
      <trkpt lat="44.66541" lon="5.05569">
        <ele>728</ele>
        <time>2026-05-26T11:40:41.000Z</time>
      </trkpt>
      <trkpt lat="44.66541" lon="5.05569">
        <ele>728</ele>
        <time>2026-05-26T11:40:42.000Z</time>
      </trkpt>
      <trkpt lat="44.66541" lon="5.05569">
        <ele>728</ele>
        <time>2026-05-26T11:40:43.000Z</time>
      </trkpt>
      <trkpt lat="44.66541" lon="5.05569">
        <ele>728</ele>
        <time>2026-05-26T11:40:44.000Z</time>
      </trkpt>
      <trkpt lat="44.66541" lon="5.05569">
        <ele>728</ele>
        <time>2026-05-26T11:40:45.000Z</time>
      </trkpt>
      <trkpt lat="44.66541" lon="5.05569">
        <ele>728</ele>
        <time>2026-05-26T11:40:46.000Z</time>
      </trkpt>
      <trkpt lat="44.66541" lon="5.05569">
        <ele>728</ele>
        <time>2026-05-26T11:40:47.000Z</time>
      </trkpt>
      <trkpt lat="44.66541" lon="5.05567">
        <ele>729</ele>
        <time>2026-05-26T11:40:48.000Z</time>
      </trkpt>
      <trkpt lat="44.66541" lon="5.05566">
        <ele>729</ele>
        <time>2026-05-26T11:40:49.000Z</time>
      </trkpt>
      <trkpt lat="44.66541" lon="5.05566">
        <ele>729</ele>
        <time>2026-05-26T11:40:50.000Z</time>
      </trkpt>
      <trkpt lat="44.66541" lon="5.05565">
        <ele>730</ele>
        <time>2026-05-26T11:40:51.000Z</time>
      </trkpt>
      <trkpt lat="44.66541" lon="5.05566">
        <ele>729</ele>
        <time>2026-05-26T11:40:52.000Z</time>
      </trkpt>
      <trkpt lat="44.66541" lon="5.05566">
        <ele>729</ele>
        <time>2026-05-26T11:40:53.000Z</time>
      </trkpt>
      <trkpt lat="44.66541" lon="5.05566">
        <ele>729</ele>
        <time>2026-05-26T11:40:54.000Z</time>
      </trkpt>
      <trkpt lat="44.66541" lon="5.05566">
        <ele>729</ele>
        <time>2026-05-26T11:40:55.000Z</time>
      </trkpt>
      <trkpt lat="44.66541" lon="5.05567">
        <ele>729</ele>
        <time>2026-05-26T11:40:56.000Z</time>
      </trkpt>
      <trkpt lat="44.66541" lon="5.05567">
        <ele>729</ele>
        <time>2026-05-26T11:40:57.000Z</time>
      </trkpt>
      <trkpt lat="44.66541" lon="5.05568">
        <ele>729</ele>
        <time>2026-05-26T11:40:58.000Z</time>
      </trkpt>
      <trkpt lat="44.66541" lon="5.05568">
        <ele>729</ele>
        <time>2026-05-26T11:40:59.000Z</time>
      </trkpt>
      <trkpt lat="44.6654" lon="5.05568">
        <ele>729</ele>
        <time>2026-05-26T11:41:00.000Z</time>
      </trkpt>
      <trkpt lat="44.6654" lon="5.05568">
        <ele>729</ele>
        <time>2026-05-26T11:41:01.000Z</time>
      </trkpt>
      <trkpt lat="44.6654" lon="5.05567">
        <ele>729</ele>
        <time>2026-05-26T11:41:02.000Z</time>
      </trkpt>
      <trkpt lat="44.6654" lon="5.05565">
        <ele>730</ele>
        <time>2026-05-26T11:41:03.000Z</time>
      </trkpt>
      <trkpt lat="44.6654" lon="5.05565">
        <ele>731</ele>
        <time>2026-05-26T11:41:04.000Z</time>
      </trkpt>
      <trkpt lat="44.6654" lon="5.05565">
        <ele>731</ele>
        <time>2026-05-26T11:41:05.000Z</time>
      </trkpt>
      <trkpt lat="44.6654" lon="5.05564">
        <ele>731</ele>
        <time>2026-05-26T11:41:06.000Z</time>
      </trkpt>
      <trkpt lat="44.66539" lon="5.05564">
        <ele>731</ele>
        <time>2026-05-26T11:41:07.000Z</time>
      </trkpt>
      <trkpt lat="44.66539" lon="5.05565">
        <ele>732</ele>
        <time>2026-05-26T11:41:08.000Z</time>
      </trkpt>
      <trkpt lat="44.66539" lon="5.05564">
        <ele>732</ele>
        <time>2026-05-26T11:41:09.000Z</time>
      </trkpt>
      <trkpt lat="44.66539" lon="5.05564">
        <ele>731</ele>
        <time>2026-05-26T11:41:10.000Z</time>
      </trkpt>
      <trkpt lat="44.66539" lon="5.05563">
        <ele>731</ele>
        <time>2026-05-26T11:41:11.000Z</time>
      </trkpt>
      <trkpt lat="44.66539" lon="5.05563">
        <ele>731</ele>
        <time>2026-05-26T11:41:12.000Z</time>
      </trkpt>
      <trkpt lat="44.66539" lon="5.05563">
        <ele>731</ele>
        <time>2026-05-26T11:41:13.000Z</time>
      </trkpt>
      <trkpt lat="44.66541" lon="5.05564">
        <ele>730</ele>
        <time>2026-05-26T11:41:14.000Z</time>
      </trkpt>
      <trkpt lat="44.6654" lon="5.05563">
        <ele>730</ele>
        <time>2026-05-26T11:41:15.000Z</time>
      </trkpt>
      <trkpt lat="44.6654" lon="5.05563">
        <ele>730</ele>
        <time>2026-05-26T11:41:16.000Z</time>
      </trkpt>
      <trkpt lat="44.6654" lon="5.05562">
        <ele>731</ele>
        <time>2026-05-26T11:41:17.000Z</time>
      </trkpt>
      <trkpt lat="44.6654" lon="5.05562">
        <ele>731</ele>
        <time>2026-05-26T11:41:18.000Z</time>
      </trkpt>
      <trkpt lat="44.6654" lon="5.05562">
        <ele>731</ele>
        <time>2026-05-26T11:41:19.000Z</time>
      </trkpt>
      <trkpt lat="44.6654" lon="5.05562">
        <ele>731</ele>
        <time>2026-05-26T11:41:20.000Z</time>
      </trkpt>
      <trkpt lat="44.6654" lon="5.05563">
        <ele>731</ele>
        <time>2026-05-26T11:41:21.000Z</time>
      </trkpt>
      <trkpt lat="44.66539" lon="5.05563">
        <ele>731</ele>
        <time>2026-05-26T11:41:22.000Z</time>
      </trkpt>
      <trkpt lat="44.6654" lon="5.05563">
        <ele>731</ele>
        <time>2026-05-26T11:41:23.000Z</time>
      </trkpt>
      <trkpt lat="44.6654" lon="5.05563">
        <ele>731</ele>
        <time>2026-05-26T11:41:24.000Z</time>
      </trkpt>
      <trkpt lat="44.6654" lon="5.05562">
        <ele>731</ele>
        <time>2026-05-26T11:41:25.000Z</time>
      </trkpt>
      <trkpt lat="44.66541" lon="5.05562">
        <ele>731</ele>
        <time>2026-05-26T11:41:26.000Z</time>
      </trkpt>
      <trkpt lat="44.66542" lon="5.05563">
        <ele>731</ele>
        <time>2026-05-26T11:41:27.000Z</time>
      </trkpt>
      <trkpt lat="44.66541" lon="5.05564">
        <ele>731</ele>
        <time>2026-05-26T11:41:28.000Z</time>
      </trkpt>
      <trkpt lat="44.66541" lon="5.05565">
        <ele>730</ele>
        <time>2026-05-26T11:41:29.000Z</time>
      </trkpt>
      <trkpt lat="44.66541" lon="5.05565">
        <ele>730</ele>
        <time>2026-05-26T11:41:30.000Z</time>
      </trkpt>
      <trkpt lat="44.66541" lon="5.05565">
        <ele>730</ele>
        <time>2026-05-26T11:41:31.000Z</time>
      </trkpt>
      <trkpt lat="44.66541" lon="5.05565">
        <ele>730</ele>
        <time>2026-05-26T11:41:32.000Z</time>
      </trkpt>
      <trkpt lat="44.66541" lon="5.05565">
        <ele>730</ele>
        <time>2026-05-26T11:41:33.000Z</time>
      </trkpt>
      <trkpt lat="44.66541" lon="5.05565">
        <ele>730</ele>
        <time>2026-05-26T11:41:34.000Z</time>
      </trkpt>
      <trkpt lat="44.66541" lon="5.05565">
        <ele>730</ele>
        <time>2026-05-26T11:41:35.000Z</time>
      </trkpt>
      <trkpt lat="44.66541" lon="5.05565">
        <ele>730</ele>
        <time>2026-05-26T11:41:36.000Z</time>
      </trkpt>
      <trkpt lat="44.66541" lon="5.05565">
        <ele>730</ele>
        <time>2026-05-26T11:41:37.000Z</time>
      </trkpt>
      <trkpt lat="44.66541" lon="5.05565">
        <ele>730</ele>
        <time>2026-05-26T11:41:38.000Z</time>
      </trkpt>
      <trkpt lat="44.66541" lon="5.05565">
        <ele>730</ele>
        <time>2026-05-26T11:41:39.000Z</time>
      </trkpt>
      <trkpt lat="44.66541" lon="5.05565">
        <ele>730</ele>
        <time>2026-05-26T11:41:40.000Z</time>
      </trkpt>
      <trkpt lat="44.66544" lon="5.05564">
        <ele>732</ele>
        <time>2026-05-26T11:41:41.000Z</time>
      </trkpt>
      <trkpt lat="44.66544" lon="5.05564">
        <ele>732</ele>
        <time>2026-05-26T11:41:42.000Z</time>
      </trkpt>
      <trkpt lat="44.66545" lon="5.05565">
        <ele>733</ele>
        <time>2026-05-26T11:41:43.000Z</time>
      </trkpt>
      <trkpt lat="44.66546" lon="5.05566">
        <ele>733</ele>
        <time>2026-05-26T11:41:44.000Z</time>
      </trkpt>
      <trkpt lat="44.66546" lon="5.05567">
        <ele>733</ele>
        <time>2026-05-26T11:41:45.000Z</time>
      </trkpt>
      <trkpt lat="44.66546" lon="5.05567">
        <ele>733</ele>
        <time>2026-05-26T11:41:46.000Z</time>
      </trkpt>
      <trkpt lat="44.66546" lon="5.05567">
        <ele>733</ele>
        <time>2026-05-26T11:41:47.000Z</time>
      </trkpt>
      <trkpt lat="44.66546" lon="5.05567">
        <ele>733</ele>
        <time>2026-05-26T11:41:48.000Z</time>
      </trkpt>
      <trkpt lat="44.66546" lon="5.05567">
        <ele>733</ele>
        <time>2026-05-26T11:41:49.000Z</time>
      </trkpt>
      <trkpt lat="44.66546" lon="5.05567">
        <ele>733</ele>
        <time>2026-05-26T11:41:50.000Z</time>
      </trkpt>
      <trkpt lat="44.66546" lon="5.05567">
        <ele>733</ele>
        <time>2026-05-26T11:41:51.000Z</time>
      </trkpt>
      <trkpt lat="44.66546" lon="5.05567">
        <ele>733</ele>
        <time>2026-05-26T11:41:52.000Z</time>
      </trkpt>
      <trkpt lat="44.66546" lon="5.05567">
        <ele>733</ele>
        <time>2026-05-26T11:41:53.000Z</time>
      </trkpt>
      <trkpt lat="44.66546" lon="5.05567">
        <ele>733</ele>
        <time>2026-05-26T11:41:54.000Z</time>
      </trkpt>
      <trkpt lat="44.66546" lon="5.05569">
        <ele>733</ele>
        <time>2026-05-26T11:41:55.000Z</time>
      </trkpt>
      <trkpt lat="44.66545" lon="5.05569">
        <ele>733</ele>
        <time>2026-05-26T11:41:56.000Z</time>
      </trkpt>
      <trkpt lat="44.66546" lon="5.05569">
        <ele>733</ele>
        <time>2026-05-26T11:41:57.000Z</time>
      </trkpt>
      <trkpt lat="44.66546" lon="5.05569">
        <ele>733</ele>
        <time>2026-05-26T11:41:58.000Z</time>
      </trkpt>
      <trkpt lat="44.66547" lon="5.05569">
        <ele>733</ele>
        <time>2026-05-26T11:41:59.000Z</time>
      </trkpt>
      <trkpt lat="44.66547" lon="5.05569">
        <ele>734</ele>
        <time>2026-05-26T11:42:00.000Z</time>
      </trkpt>
      <trkpt lat="44.66547" lon="5.05569">
        <ele>733</ele>
        <time>2026-05-26T11:42:01.000Z</time>
      </trkpt>
      <trkpt lat="44.66547" lon="5.0557">
        <ele>734</ele>
        <time>2026-05-26T11:42:02.000Z</time>
      </trkpt>
      <trkpt lat="44.66547" lon="5.05571">
        <ele>734</ele>
        <time>2026-05-26T11:42:03.000Z</time>
      </trkpt>
      <trkpt lat="44.66546" lon="5.0557">
        <ele>734</ele>
        <time>2026-05-26T11:42:04.000Z</time>
      </trkpt>
      <trkpt lat="44.66546" lon="5.0557">
        <ele>734</ele>
        <time>2026-05-26T11:42:05.000Z</time>
      </trkpt>
      <trkpt lat="44.66545" lon="5.0557">
        <ele>734</ele>
        <time>2026-05-26T11:42:06.000Z</time>
      </trkpt>
      <trkpt lat="44.66545" lon="5.0557">
        <ele>734</ele>
        <time>2026-05-26T11:42:07.000Z</time>
      </trkpt>
      <trkpt lat="44.66545" lon="5.0557">
        <ele>734</ele>
        <time>2026-05-26T11:42:08.000Z</time>
      </trkpt>
      <trkpt lat="44.66545" lon="5.0557">
        <ele>734</ele>
        <time>2026-05-26T11:42:09.000Z</time>
      </trkpt>
      <trkpt lat="44.66545" lon="5.0557">
        <ele>734</ele>
        <time>2026-05-26T11:42:10.000Z</time>
      </trkpt>
      <trkpt lat="44.66545" lon="5.0557">
        <ele>734</ele>
        <time>2026-05-26T11:42:11.000Z</time>
      </trkpt>
      <trkpt lat="44.66545" lon="5.0557">
        <ele>734</ele>
        <time>2026-05-26T11:42:12.000Z</time>
      </trkpt>
      <trkpt lat="44.66545" lon="5.0557">
        <ele>734</ele>
        <time>2026-05-26T11:42:13.000Z</time>
      </trkpt>
      <trkpt lat="44.66545" lon="5.0557">
        <ele>734</ele>
        <time>2026-05-26T11:42:14.000Z</time>
      </trkpt>
      <trkpt lat="44.66545" lon="5.0557">
        <ele>734</ele>
        <time>2026-05-26T11:42:15.000Z</time>
      </trkpt>
      <trkpt lat="44.66545" lon="5.0557">
        <ele>734</ele>
        <time>2026-05-26T11:42:16.000Z</time>
      </trkpt>
      <trkpt lat="44.66545" lon="5.0557">
        <ele>734</ele>
        <time>2026-05-26T11:42:17.000Z</time>
      </trkpt>
      <trkpt lat="44.66545" lon="5.0557">
        <ele>734</ele>
        <time>2026-05-26T11:42:18.000Z</time>
      </trkpt>
      <trkpt lat="44.66545" lon="5.0557">
        <ele>734</ele>
        <time>2026-05-26T11:42:19.000Z</time>
      </trkpt>
      <trkpt lat="44.66543" lon="5.0557">
        <ele>734</ele>
        <time>2026-05-26T11:42:20.000Z</time>
      </trkpt>
      <trkpt lat="44.66542" lon="5.05569">
        <ele>734</ele>
        <time>2026-05-26T11:42:21.000Z</time>
      </trkpt>
      <trkpt lat="44.66542" lon="5.05569">
        <ele>735</ele>
        <time>2026-05-26T11:42:22.000Z</time>
      </trkpt>
      <trkpt lat="44.6654" lon="5.0557">
        <ele>735</ele>
        <time>2026-05-26T11:42:23.000Z</time>
      </trkpt>
      <trkpt lat="44.6654" lon="5.0557">
        <ele>735</ele>
        <time>2026-05-26T11:42:24.000Z</time>
      </trkpt>
      <trkpt lat="44.66541" lon="5.05569">
        <ele>736</ele>
        <time>2026-05-26T11:42:25.000Z</time>
      </trkpt>
      <trkpt lat="44.66543" lon="5.05569">
        <ele>736</ele>
        <time>2026-05-26T11:42:26.000Z</time>
      </trkpt>
      <trkpt lat="44.66543" lon="5.05569">
        <ele>736</ele>
        <time>2026-05-26T11:42:27.000Z</time>
      </trkpt>
      <trkpt lat="44.66544" lon="5.05568">
        <ele>738</ele>
        <time>2026-05-26T11:42:28.000Z</time>
      </trkpt>
      <trkpt lat="44.66544" lon="5.05569">
        <ele>737</ele>
        <time>2026-05-26T11:42:29.000Z</time>
      </trkpt>
      <trkpt lat="44.66542" lon="5.05568">
        <ele>738</ele>
        <time>2026-05-26T11:42:30.000Z</time>
      </trkpt>
      <trkpt lat="44.66542" lon="5.05567">
        <ele>738</ele>
        <time>2026-05-26T11:42:31.000Z</time>
      </trkpt>
      <trkpt lat="44.66542" lon="5.05567">
        <ele>738</ele>
        <time>2026-05-26T11:42:32.000Z</time>
      </trkpt>
      <trkpt lat="44.66542" lon="5.05567">
        <ele>738</ele>
        <time>2026-05-26T11:42:33.000Z</time>
      </trkpt>
      <trkpt lat="44.66542" lon="5.05567">
        <ele>738</ele>
        <time>2026-05-26T11:42:34.000Z</time>
      </trkpt>
      <trkpt lat="44.66542" lon="5.05567">
        <ele>738</ele>
        <time>2026-05-26T11:42:35.000Z</time>
      </trkpt>
      <trkpt lat="44.66542" lon="5.05567">
        <ele>738</ele>
        <time>2026-05-26T11:42:36.000Z</time>
      </trkpt>
      <trkpt lat="44.66542" lon="5.05567">
        <ele>738</ele>
        <time>2026-05-26T11:42:37.000Z</time>
      </trkpt>
      <trkpt lat="44.66543" lon="5.05567">
        <ele>737</ele>
        <time>2026-05-26T11:42:38.000Z</time>
      </trkpt>
      <trkpt lat="44.66543" lon="5.05567">
        <ele>737</ele>
        <time>2026-05-26T11:42:39.000Z</time>
      </trkpt>
      <trkpt lat="44.66542" lon="5.05567">
        <ele>735</ele>
        <time>2026-05-26T11:42:40.000Z</time>
      </trkpt>
      <trkpt lat="44.66541" lon="5.05569">
        <ele>736</ele>
        <time>2026-05-26T11:42:41.000Z</time>
      </trkpt>
      <trkpt lat="44.66541" lon="5.05569">
        <ele>736</ele>
        <time>2026-05-26T11:42:42.000Z</time>
      </trkpt>
      <trkpt lat="44.66541" lon="5.05569">
        <ele>736</ele>
        <time>2026-05-26T11:42:43.000Z</time>
      </trkpt>
      <trkpt lat="44.66542" lon="5.05571">
        <ele>735</ele>
        <time>2026-05-26T11:42:44.000Z</time>
      </trkpt>
      <trkpt lat="44.66542" lon="5.05572">
        <ele>735</ele>
        <time>2026-05-26T11:42:45.000Z</time>
      </trkpt>
      <trkpt lat="44.66541" lon="5.05573">
        <ele>735</ele>
        <time>2026-05-26T11:42:46.000Z</time>
      </trkpt>
      <trkpt lat="44.66542" lon="5.05572">
        <ele>734</ele>
        <time>2026-05-26T11:42:47.000Z</time>
      </trkpt>
      <trkpt lat="44.66542" lon="5.05572">
        <ele>734</ele>
        <time>2026-05-26T11:42:48.000Z</time>
      </trkpt>
      <trkpt lat="44.66542" lon="5.0557">
        <ele>734</ele>
        <time>2026-05-26T11:42:49.000Z</time>
      </trkpt>
      <trkpt lat="44.66541" lon="5.05569">
        <ele>733</ele>
        <time>2026-05-26T11:42:50.000Z</time>
      </trkpt>
      <trkpt lat="44.66541" lon="5.05569">
        <ele>733</ele>
        <time>2026-05-26T11:42:51.000Z</time>
      </trkpt>
      <trkpt lat="44.66541" lon="5.05571">
        <ele>733</ele>
        <time>2026-05-26T11:42:52.000Z</time>
      </trkpt>
      <trkpt lat="44.66541" lon="5.05571">
        <ele>733</ele>
        <time>2026-05-26T11:42:53.000Z</time>
      </trkpt>
      <trkpt lat="44.66541" lon="5.05571">
        <ele>733</ele>
        <time>2026-05-26T11:42:54.000Z</time>
      </trkpt>
      <trkpt lat="44.66541" lon="5.05571">
        <ele>733</ele>
        <time>2026-05-26T11:42:55.000Z</time>
      </trkpt>
      <trkpt lat="44.66541" lon="5.05571">
        <ele>733</ele>
        <time>2026-05-26T11:42:56.000Z</time>
      </trkpt>
      <trkpt lat="44.66541" lon="5.05571">
        <ele>733</ele>
        <time>2026-05-26T11:42:57.000Z</time>
      </trkpt>
      <trkpt lat="44.66542" lon="5.05572">
        <ele>735</ele>
        <time>2026-05-26T11:42:58.000Z</time>
      </trkpt>
      <trkpt lat="44.66542" lon="5.05571">
        <ele>735</ele>
        <time>2026-05-26T11:42:59.000Z</time>
      </trkpt>
      <trkpt lat="44.66542" lon="5.0557">
        <ele>734</ele>
        <time>2026-05-26T11:43:00.000Z</time>
      </trkpt>
      <trkpt lat="44.66542" lon="5.05569">
        <ele>733</ele>
        <time>2026-05-26T11:43:01.000Z</time>
      </trkpt>
      <trkpt lat="44.66542" lon="5.05569">
        <ele>733</ele>
        <time>2026-05-26T11:43:02.000Z</time>
      </trkpt>
      <trkpt lat="44.66542" lon="5.05569">
        <ele>733</ele>
        <time>2026-05-26T11:43:03.000Z</time>
      </trkpt>
      <trkpt lat="44.66542" lon="5.05569">
        <ele>733</ele>
        <time>2026-05-26T11:43:04.000Z</time>
      </trkpt>
      <trkpt lat="44.66542" lon="5.05569">
        <ele>733</ele>
        <time>2026-05-26T11:43:05.000Z</time>
      </trkpt>
      <trkpt lat="44.66542" lon="5.05569">
        <ele>733</ele>
        <time>2026-05-26T11:43:06.000Z</time>
      </trkpt>
      <trkpt lat="44.66542" lon="5.05569">
        <ele>733</ele>
        <time>2026-05-26T11:43:07.000Z</time>
      </trkpt>
      <trkpt lat="44.66542" lon="5.05569">
        <ele>733</ele>
        <time>2026-05-26T11:43:08.000Z</time>
      </trkpt>
      <trkpt lat="44.66542" lon="5.05569">
        <ele>733</ele>
        <time>2026-05-26T11:43:09.000Z</time>
      </trkpt>
      <trkpt lat="44.66542" lon="5.05569">
        <ele>733</ele>
        <time>2026-05-26T11:43:10.000Z</time>
      </trkpt>
      <trkpt lat="44.66542" lon="5.05569">
        <ele>733</ele>
        <time>2026-05-26T11:43:11.000Z</time>
      </trkpt>
      <trkpt lat="44.66542" lon="5.05569">
        <ele>733</ele>
        <time>2026-05-26T11:43:12.000Z</time>
      </trkpt>
      <trkpt lat="44.66542" lon="5.05569">
        <ele>733</ele>
        <time>2026-05-26T11:43:13.000Z</time>
      </trkpt>
      <trkpt lat="44.66542" lon="5.05569">
        <ele>733</ele>
        <time>2026-05-26T11:43:14.000Z</time>
      </trkpt>
      <trkpt lat="44.66543" lon="5.05568">
        <ele>733</ele>
        <time>2026-05-26T11:43:15.000Z</time>
      </trkpt>
      <trkpt lat="44.66544" lon="5.05567">
        <ele>734</ele>
        <time>2026-05-26T11:43:16.000Z</time>
      </trkpt>
      <trkpt lat="44.66544" lon="5.05567">
        <ele>734</ele>
        <time>2026-05-26T11:43:17.000Z</time>
      </trkpt>
      <trkpt lat="44.66543" lon="5.05565">
        <ele>730</ele>
        <time>2026-05-26T11:43:18.000Z</time>
      </trkpt>
      <trkpt lat="44.66542" lon="5.05565">
        <ele>729</ele>
        <time>2026-05-26T11:43:19.000Z</time>
      </trkpt>
      <trkpt lat="44.66542" lon="5.05565">
        <ele>728</ele>
        <time>2026-05-26T11:43:20.000Z</time>
      </trkpt>
      <trkpt lat="44.66543" lon="5.05565">
        <ele>728</ele>
        <time>2026-05-26T11:43:21.000Z</time>
      </trkpt>
      <trkpt lat="44.66544" lon="5.05565">
        <ele>727</ele>
        <time>2026-05-26T11:43:22.000Z</time>
      </trkpt>
      <trkpt lat="44.66544" lon="5.05565">
        <ele>727</ele>
        <time>2026-05-26T11:43:23.000Z</time>
      </trkpt>
      <trkpt lat="44.66545" lon="5.05568">
        <ele>727</ele>
        <time>2026-05-26T11:43:24.000Z</time>
      </trkpt>
      <trkpt lat="44.66546" lon="5.05567">
        <ele>727</ele>
        <time>2026-05-26T11:43:25.000Z</time>
      </trkpt>
      <trkpt lat="44.66547" lon="5.05568">
        <ele>727</ele>
        <time>2026-05-26T11:43:26.000Z</time>
      </trkpt>
      <trkpt lat="44.66547" lon="5.05567">
        <ele>727</ele>
        <time>2026-05-26T11:43:27.000Z</time>
      </trkpt>
      <trkpt lat="44.66547" lon="5.05566">
        <ele>727</ele>
        <time>2026-05-26T11:43:28.000Z</time>
      </trkpt>
      <trkpt lat="44.66546" lon="5.05565">
        <ele>728</ele>
        <time>2026-05-26T11:43:29.000Z</time>
      </trkpt>
      <trkpt lat="44.66547" lon="5.05564">
        <ele>727</ele>
        <time>2026-05-26T11:43:30.000Z</time>
      </trkpt>
      <trkpt lat="44.66547" lon="5.05564">
        <ele>727</ele>
        <time>2026-05-26T11:43:31.000Z</time>
      </trkpt>
      <trkpt lat="44.66545" lon="5.05564">
        <ele>727</ele>
        <time>2026-05-26T11:43:32.000Z</time>
      </trkpt>
      <trkpt lat="44.66543" lon="5.05564">
        <ele>727</ele>
        <time>2026-05-26T11:43:33.000Z</time>
      </trkpt>
      <trkpt lat="44.66543" lon="5.05565">
        <ele>726</ele>
        <time>2026-05-26T11:43:34.000Z</time>
      </trkpt>
      <trkpt lat="44.66542" lon="5.05565">
        <ele>726</ele>
        <time>2026-05-26T11:43:35.000Z</time>
      </trkpt>
      <trkpt lat="44.66542" lon="5.05565">
        <ele>726</ele>
        <time>2026-05-26T11:43:36.000Z</time>
      </trkpt>
      <trkpt lat="44.66542" lon="5.05565">
        <ele>726</ele>
        <time>2026-05-26T11:43:37.000Z</time>
      </trkpt>
      <trkpt lat="44.66541" lon="5.0557">
        <ele>726</ele>
        <time>2026-05-26T11:43:38.000Z</time>
      </trkpt>
      <trkpt lat="44.66541" lon="5.0557">
        <ele>726</ele>
        <time>2026-05-26T11:43:39.000Z</time>
      </trkpt>
      <trkpt lat="44.66542" lon="5.0557">
        <ele>727</ele>
        <time>2026-05-26T11:43:40.000Z</time>
      </trkpt>
      <trkpt lat="44.66542" lon="5.0557">
        <ele>727</ele>
        <time>2026-05-26T11:43:41.000Z</time>
      </trkpt>
      <trkpt lat="44.66542" lon="5.0557">
        <ele>728</ele>
        <time>2026-05-26T11:43:42.000Z</time>
      </trkpt>
      <trkpt lat="44.66544" lon="5.0557">
        <ele>730</ele>
        <time>2026-05-26T11:43:43.000Z</time>
      </trkpt>
      <trkpt lat="44.66544" lon="5.0557">
        <ele>730</ele>
        <time>2026-05-26T11:43:44.000Z</time>
      </trkpt>
      <trkpt lat="44.66544" lon="5.0557">
        <ele>730</ele>
        <time>2026-05-26T11:43:45.000Z</time>
      </trkpt>
      <trkpt lat="44.66544" lon="5.0557">
        <ele>730</ele>
        <time>2026-05-26T11:43:46.000Z</time>
      </trkpt>
      <trkpt lat="44.66544" lon="5.0557">
        <ele>730</ele>
        <time>2026-05-26T11:43:47.000Z</time>
      </trkpt>
      <trkpt lat="44.66544" lon="5.0557">
        <ele>730</ele>
        <time>2026-05-26T11:43:48.000Z</time>
      </trkpt>
      <trkpt lat="44.66544" lon="5.0557">
        <ele>730</ele>
        <time>2026-05-26T11:43:49.000Z</time>
      </trkpt>
      <trkpt lat="44.66544" lon="5.0557">
        <ele>731</ele>
        <time>2026-05-26T11:43:50.000Z</time>
      </trkpt>
      <trkpt lat="44.66544" lon="5.0557">
        <ele>731</ele>
        <time>2026-05-26T11:43:51.000Z</time>
      </trkpt>
      <trkpt lat="44.66544" lon="5.0557">
        <ele>731</ele>
        <time>2026-05-26T11:43:52.000Z</time>
      </trkpt>
      <trkpt lat="44.66544" lon="5.0557">
        <ele>731</ele>
        <time>2026-05-26T11:43:53.000Z</time>
      </trkpt>
      <trkpt lat="44.66543" lon="5.05567">
        <ele>732</ele>
        <time>2026-05-26T11:43:54.000Z</time>
      </trkpt>
      <trkpt lat="44.66544" lon="5.05569">
        <ele>732</ele>
        <time>2026-05-26T11:43:55.000Z</time>
      </trkpt>
      <trkpt lat="44.66544" lon="5.0557">
        <ele>732</ele>
        <time>2026-05-26T11:43:56.000Z</time>
      </trkpt>
      <trkpt lat="44.66544" lon="5.0557">
        <ele>732</ele>
        <time>2026-05-26T11:43:57.000Z</time>
      </trkpt>
      <trkpt lat="44.66545" lon="5.05569">
        <ele>731</ele>
        <time>2026-05-26T11:43:58.000Z</time>
      </trkpt>
      <trkpt lat="44.66546" lon="5.0557">
        <ele>732</ele>
        <time>2026-05-26T11:43:59.000Z</time>
      </trkpt>
      <trkpt lat="44.66547" lon="5.05569">
        <ele>731</ele>
        <time>2026-05-26T11:44:00.000Z</time>
      </trkpt>
      <trkpt lat="44.66547" lon="5.0557">
        <ele>729</ele>
        <time>2026-05-26T11:44:01.000Z</time>
      </trkpt>
      <trkpt lat="44.66547" lon="5.0557">
        <ele>729</ele>
        <time>2026-05-26T11:44:02.000Z</time>
      </trkpt>
      <trkpt lat="44.66547" lon="5.0557">
        <ele>729</ele>
        <time>2026-05-26T11:44:03.000Z</time>
      </trkpt>
      <trkpt lat="44.66547" lon="5.0557">
        <ele>729</ele>
        <time>2026-05-26T11:44:04.000Z</time>
      </trkpt>
      <trkpt lat="44.66548" lon="5.0557">
        <ele>728</ele>
        <time>2026-05-26T11:44:05.000Z</time>
      </trkpt>
      <trkpt lat="44.66548" lon="5.0557">
        <ele>728</ele>
        <time>2026-05-26T11:44:06.000Z</time>
      </trkpt>
      <trkpt lat="44.66549" lon="5.0557">
        <ele>727</ele>
        <time>2026-05-26T11:44:07.000Z</time>
      </trkpt>
      <trkpt lat="44.66549" lon="5.0557">
        <ele>727</ele>
        <time>2026-05-26T11:44:08.000Z</time>
      </trkpt>
      <trkpt lat="44.66548" lon="5.05569">
        <ele>726</ele>
        <time>2026-05-26T11:44:09.000Z</time>
      </trkpt>
      <trkpt lat="44.66549" lon="5.0557">
        <ele>725</ele>
        <time>2026-05-26T11:44:10.000Z</time>
      </trkpt>
      <trkpt lat="44.6655" lon="5.05571">
        <ele>725</ele>
        <time>2026-05-26T11:44:11.000Z</time>
      </trkpt>
      <trkpt lat="44.66552" lon="5.05572">
        <ele>724</ele>
        <time>2026-05-26T11:44:12.000Z</time>
      </trkpt>
      <trkpt lat="44.66553" lon="5.05571">
        <ele>724</ele>
        <time>2026-05-26T11:44:13.000Z</time>
      </trkpt>
      <trkpt lat="44.66554" lon="5.05571">
        <ele>723</ele>
        <time>2026-05-26T11:44:14.000Z</time>
      </trkpt>
      <trkpt lat="44.66556" lon="5.0557">
        <ele>722</ele>
        <time>2026-05-26T11:44:15.000Z</time>
      </trkpt>
      <trkpt lat="44.66557" lon="5.0557">
        <ele>723</ele>
        <time>2026-05-26T11:44:16.000Z</time>
      </trkpt>
      <trkpt lat="44.66557" lon="5.05571">
        <ele>723</ele>
        <time>2026-05-26T11:44:17.000Z</time>
      </trkpt>
      <trkpt lat="44.66557" lon="5.05571">
        <ele>723</ele>
        <time>2026-05-26T11:44:18.000Z</time>
      </trkpt>
      <trkpt lat="44.66558" lon="5.05572">
        <ele>722</ele>
        <time>2026-05-26T11:44:19.000Z</time>
      </trkpt>
      <trkpt lat="44.66559" lon="5.05571">
        <ele>722</ele>
        <time>2026-05-26T11:44:20.000Z</time>
      </trkpt>
      <trkpt lat="44.6656" lon="5.05571">
        <ele>721</ele>
        <time>2026-05-26T11:44:21.000Z</time>
      </trkpt>
      <trkpt lat="44.66562" lon="5.0557">
        <ele>722</ele>
        <time>2026-05-26T11:44:22.000Z</time>
      </trkpt>
      <trkpt lat="44.66563" lon="5.0557">
        <ele>721</ele>
        <time>2026-05-26T11:44:23.000Z</time>
      </trkpt>
      <trkpt lat="44.66564" lon="5.05568">
        <ele>721</ele>
        <time>2026-05-26T11:44:24.000Z</time>
      </trkpt>
      <trkpt lat="44.66565" lon="5.05568">
        <ele>721</ele>
        <time>2026-05-26T11:44:25.000Z</time>
      </trkpt>
      <trkpt lat="44.66566" lon="5.05567">
        <ele>721</ele>
        <time>2026-05-26T11:44:26.000Z</time>
      </trkpt>
      <trkpt lat="44.66567" lon="5.05566">
        <ele>720</ele>
        <time>2026-05-26T11:44:27.000Z</time>
      </trkpt>
      <trkpt lat="44.66568" lon="5.05566">
        <ele>719</ele>
        <time>2026-05-26T11:44:28.000Z</time>
      </trkpt>
      <trkpt lat="44.66569" lon="5.05566">
        <ele>719</ele>
        <time>2026-05-26T11:44:29.000Z</time>
      </trkpt>
      <trkpt lat="44.6657" lon="5.05566">
        <ele>718</ele>
        <time>2026-05-26T11:44:30.000Z</time>
      </trkpt>
      <trkpt lat="44.66572" lon="5.05566">
        <ele>718</ele>
        <time>2026-05-26T11:44:31.000Z</time>
      </trkpt>
      <trkpt lat="44.66572" lon="5.05566">
        <ele>718</ele>
        <time>2026-05-26T11:44:32.000Z</time>
      </trkpt>
      <trkpt lat="44.66572" lon="5.05567">
        <ele>717</ele>
        <time>2026-05-26T11:44:33.000Z</time>
      </trkpt>
      <trkpt lat="44.66573" lon="5.05567">
        <ele>717</ele>
        <time>2026-05-26T11:44:34.000Z</time>
      </trkpt>
      <trkpt lat="44.66574" lon="5.05567">
        <ele>716</ele>
        <time>2026-05-26T11:44:35.000Z</time>
      </trkpt>
      <trkpt lat="44.66574" lon="5.05567">
        <ele>715</ele>
        <time>2026-05-26T11:44:36.000Z</time>
      </trkpt>
      <trkpt lat="44.66575" lon="5.05567">
        <ele>715</ele>
        <time>2026-05-26T11:44:37.000Z</time>
      </trkpt>
      <trkpt lat="44.66576" lon="5.05567">
        <ele>715</ele>
        <time>2026-05-26T11:44:38.000Z</time>
      </trkpt>
      <trkpt lat="44.66578" lon="5.05564">
        <ele>714</ele>
        <time>2026-05-26T11:44:39.000Z</time>
      </trkpt>
      <trkpt lat="44.66579" lon="5.05564">
        <ele>714</ele>
        <time>2026-05-26T11:44:40.000Z</time>
      </trkpt>
      <trkpt lat="44.6658" lon="5.05563">
        <ele>714</ele>
        <time>2026-05-26T11:44:41.000Z</time>
      </trkpt>
      <trkpt lat="44.66581" lon="5.05563">
        <ele>714</ele>
        <time>2026-05-26T11:44:42.000Z</time>
      </trkpt>
      <trkpt lat="44.66583" lon="5.05563">
        <ele>714</ele>
        <time>2026-05-26T11:44:43.000Z</time>
      </trkpt>
      <trkpt lat="44.66584" lon="5.05563">
        <ele>714</ele>
        <time>2026-05-26T11:44:44.000Z</time>
      </trkpt>
      <trkpt lat="44.66586" lon="5.05561">
        <ele>715</ele>
        <time>2026-05-26T11:44:45.000Z</time>
      </trkpt>
      <trkpt lat="44.66587" lon="5.0556">
        <ele>713</ele>
        <time>2026-05-26T11:44:46.000Z</time>
      </trkpt>
      <trkpt lat="44.66589" lon="5.05559">
        <ele>714</ele>
        <time>2026-05-26T11:44:47.000Z</time>
      </trkpt>
      <trkpt lat="44.66589" lon="5.05558">
        <ele>714</ele>
        <time>2026-05-26T11:44:48.000Z</time>
      </trkpt>
      <trkpt lat="44.6659" lon="5.05556">
        <ele>715</ele>
        <time>2026-05-26T11:44:49.000Z</time>
      </trkpt>
      <trkpt lat="44.66591" lon="5.05555">
        <ele>715</ele>
        <time>2026-05-26T11:44:50.000Z</time>
      </trkpt>
      <trkpt lat="44.66592" lon="5.05555">
        <ele>714</ele>
        <time>2026-05-26T11:44:51.000Z</time>
      </trkpt>
      <trkpt lat="44.66592" lon="5.05554">
        <ele>714</ele>
        <time>2026-05-26T11:44:52.000Z</time>
      </trkpt>
      <trkpt lat="44.66593" lon="5.05553">
        <ele>713</ele>
        <time>2026-05-26T11:44:53.000Z</time>
      </trkpt>
      <trkpt lat="44.66593" lon="5.05553">
        <ele>713</ele>
        <time>2026-05-26T11:44:54.000Z</time>
      </trkpt>
      <trkpt lat="44.66595" lon="5.05552">
        <ele>712</ele>
        <time>2026-05-26T11:44:55.000Z</time>
      </trkpt>
      <trkpt lat="44.66597" lon="5.0555">
        <ele>713</ele>
        <time>2026-05-26T11:44:56.000Z</time>
      </trkpt>
      <trkpt lat="44.66599" lon="5.0555">
        <ele>714</ele>
        <time>2026-05-26T11:44:57.000Z</time>
      </trkpt>
      <trkpt lat="44.666" lon="5.05549">
        <ele>714</ele>
        <time>2026-05-26T11:44:58.000Z</time>
      </trkpt>
      <trkpt lat="44.666" lon="5.05548">
        <ele>713</ele>
        <time>2026-05-26T11:44:59.000Z</time>
      </trkpt>
      <trkpt lat="44.66601" lon="5.05547">
        <ele>714</ele>
        <time>2026-05-26T11:45:00.000Z</time>
      </trkpt>
      <trkpt lat="44.66601" lon="5.05547">
        <ele>714</ele>
        <time>2026-05-26T11:45:01.000Z</time>
      </trkpt>
      <trkpt lat="44.66601" lon="5.05547">
        <ele>714</ele>
        <time>2026-05-26T11:45:02.000Z</time>
      </trkpt>
      <trkpt lat="44.66603" lon="5.05545">
        <ele>713</ele>
        <time>2026-05-26T11:45:03.000Z</time>
      </trkpt>
      <trkpt lat="44.66604" lon="5.05544">
        <ele>712</ele>
        <time>2026-05-26T11:45:04.000Z</time>
      </trkpt>
      <trkpt lat="44.66605" lon="5.05542">
        <ele>712</ele>
        <time>2026-05-26T11:45:05.000Z</time>
      </trkpt>
      <trkpt lat="44.66605" lon="5.05541">
        <ele>711</ele>
        <time>2026-05-26T11:45:06.000Z</time>
      </trkpt>
      <trkpt lat="44.66605" lon="5.0554">
        <ele>711</ele>
        <time>2026-05-26T11:45:07.000Z</time>
      </trkpt>
      <trkpt lat="44.66605" lon="5.05539">
        <ele>709</ele>
        <time>2026-05-26T11:45:08.000Z</time>
      </trkpt>
      <trkpt lat="44.66605" lon="5.05538">
        <ele>709</ele>
        <time>2026-05-26T11:45:09.000Z</time>
      </trkpt>
      <trkpt lat="44.66606" lon="5.05537">
        <ele>709</ele>
        <time>2026-05-26T11:45:10.000Z</time>
      </trkpt>
      <trkpt lat="44.66606" lon="5.05537">
        <ele>709</ele>
        <time>2026-05-26T11:45:11.000Z</time>
      </trkpt>
      <trkpt lat="44.66606" lon="5.05537">
        <ele>709</ele>
        <time>2026-05-26T11:45:12.000Z</time>
      </trkpt>
      <trkpt lat="44.66608" lon="5.05535">
        <ele>708</ele>
        <time>2026-05-26T11:45:13.000Z</time>
      </trkpt>
      <trkpt lat="44.66608" lon="5.05534">
        <ele>707</ele>
        <time>2026-05-26T11:45:14.000Z</time>
      </trkpt>
      <trkpt lat="44.66608" lon="5.05533">
        <ele>707</ele>
        <time>2026-05-26T11:45:15.000Z</time>
      </trkpt>
      <trkpt lat="44.66608" lon="5.05532">
        <ele>706</ele>
        <time>2026-05-26T11:45:16.000Z</time>
      </trkpt>
      <trkpt lat="44.66608" lon="5.05532">
        <ele>706</ele>
        <time>2026-05-26T11:45:17.000Z</time>
      </trkpt>
      <trkpt lat="44.66608" lon="5.05532">
        <ele>706</ele>
        <time>2026-05-26T11:45:18.000Z</time>
      </trkpt>
      <trkpt lat="44.6661" lon="5.05528">
        <ele>705</ele>
        <time>2026-05-26T11:45:19.000Z</time>
      </trkpt>
      <trkpt lat="44.66611" lon="5.05525">
        <ele>705</ele>
        <time>2026-05-26T11:45:20.000Z</time>
      </trkpt>
      <trkpt lat="44.66611" lon="5.05524">
        <ele>703</ele>
        <time>2026-05-26T11:45:21.000Z</time>
      </trkpt>
      <trkpt lat="44.66612" lon="5.05523">
        <ele>703</ele>
        <time>2026-05-26T11:45:22.000Z</time>
      </trkpt>
      <trkpt lat="44.66613" lon="5.05522">
        <ele>703</ele>
        <time>2026-05-26T11:45:23.000Z</time>
      </trkpt>
      <trkpt lat="44.66613" lon="5.05522">
        <ele>703</ele>
        <time>2026-05-26T11:45:24.000Z</time>
      </trkpt>
      <trkpt lat="44.66614" lon="5.0552">
        <ele>703</ele>
        <time>2026-05-26T11:45:25.000Z</time>
      </trkpt>
      <trkpt lat="44.66614" lon="5.05519">
        <ele>703</ele>
        <time>2026-05-26T11:45:26.000Z</time>
      </trkpt>
      <trkpt lat="44.66616" lon="5.05518">
        <ele>703</ele>
        <time>2026-05-26T11:45:27.000Z</time>
      </trkpt>
      <trkpt lat="44.66617" lon="5.05517">
        <ele>703</ele>
        <time>2026-05-26T11:45:28.000Z</time>
      </trkpt>
      <trkpt lat="44.66616" lon="5.05516">
        <ele>703</ele>
        <time>2026-05-26T11:45:29.000Z</time>
      </trkpt>
      <trkpt lat="44.66616" lon="5.05515">
        <ele>702</ele>
        <time>2026-05-26T11:45:30.000Z</time>
      </trkpt>
      <trkpt lat="44.66616" lon="5.05515">
        <ele>701</ele>
        <time>2026-05-26T11:45:31.000Z</time>
      </trkpt>
      <trkpt lat="44.66616" lon="5.05514">
        <ele>700</ele>
        <time>2026-05-26T11:45:32.000Z</time>
      </trkpt>
      <trkpt lat="44.66616" lon="5.05514">
        <ele>699</ele>
        <time>2026-05-26T11:45:33.000Z</time>
      </trkpt>
      <trkpt lat="44.66617" lon="5.05513">
        <ele>698</ele>
        <time>2026-05-26T11:45:34.000Z</time>
      </trkpt>
      <trkpt lat="44.66617" lon="5.05514">
        <ele>698</ele>
        <time>2026-05-26T11:45:35.000Z</time>
      </trkpt>
      <trkpt lat="44.66617" lon="5.05514">
        <ele>698</ele>
        <time>2026-05-26T11:45:36.000Z</time>
      </trkpt>
      <trkpt lat="44.66617" lon="5.05514">
        <ele>698</ele>
        <time>2026-05-26T11:45:37.000Z</time>
      </trkpt>
      <trkpt lat="44.66617" lon="5.05514">
        <ele>698</ele>
        <time>2026-05-26T11:45:38.000Z</time>
      </trkpt>
      <trkpt lat="44.66617" lon="5.05514">
        <ele>698</ele>
        <time>2026-05-26T11:45:39.000Z</time>
      </trkpt>
      <trkpt lat="44.66619" lon="5.05509">
        <ele>699</ele>
        <time>2026-05-26T11:45:40.000Z</time>
      </trkpt>
      <trkpt lat="44.66619" lon="5.05508">
        <ele>699</ele>
        <time>2026-05-26T11:45:41.000Z</time>
      </trkpt>
      <trkpt lat="44.6662" lon="5.05507">
        <ele>699</ele>
        <time>2026-05-26T11:45:42.000Z</time>
      </trkpt>
      <trkpt lat="44.66621" lon="5.05506">
        <ele>700</ele>
        <time>2026-05-26T11:45:43.000Z</time>
      </trkpt>
      <trkpt lat="44.66622" lon="5.05506">
        <ele>699</ele>
        <time>2026-05-26T11:45:44.000Z</time>
      </trkpt>
      <trkpt lat="44.66622" lon="5.05506">
        <ele>699</ele>
        <time>2026-05-26T11:45:45.000Z</time>
      </trkpt>
      <trkpt lat="44.66622" lon="5.05506">
        <ele>699</ele>
        <time>2026-05-26T11:45:46.000Z</time>
      </trkpt>
      <trkpt lat="44.66623" lon="5.05504">
        <ele>699</ele>
        <time>2026-05-26T11:45:47.000Z</time>
      </trkpt>
      <trkpt lat="44.66624" lon="5.05503">
        <ele>699</ele>
        <time>2026-05-26T11:45:48.000Z</time>
      </trkpt>
      <trkpt lat="44.66625" lon="5.05502">
        <ele>697</ele>
        <time>2026-05-26T11:45:49.000Z</time>
      </trkpt>
      <trkpt lat="44.66626" lon="5.05503">
        <ele>698</ele>
        <time>2026-05-26T11:45:50.000Z</time>
      </trkpt>
      <trkpt lat="44.66626" lon="5.05503">
        <ele>698</ele>
        <time>2026-05-26T11:45:51.000Z</time>
      </trkpt>
      <trkpt lat="44.66627" lon="5.05502">
        <ele>700</ele>
        <time>2026-05-26T11:45:52.000Z</time>
      </trkpt>
      <trkpt lat="44.66627" lon="5.05501">
        <ele>700</ele>
        <time>2026-05-26T11:45:53.000Z</time>
      </trkpt>
      <trkpt lat="44.66626" lon="5.05499">
        <ele>701</ele>
        <time>2026-05-26T11:45:54.000Z</time>
      </trkpt>
      <trkpt lat="44.66627" lon="5.05498">
        <ele>702</ele>
        <time>2026-05-26T11:45:55.000Z</time>
      </trkpt>
      <trkpt lat="44.66627" lon="5.05498">
        <ele>701</ele>
        <time>2026-05-26T11:45:56.000Z</time>
      </trkpt>
      <trkpt lat="44.66628" lon="5.05496">
        <ele>699</ele>
        <time>2026-05-26T11:45:57.000Z</time>
      </trkpt>
      <trkpt lat="44.66629" lon="5.05495">
        <ele>698</ele>
        <time>2026-05-26T11:45:58.000Z</time>
      </trkpt>
      <trkpt lat="44.66629" lon="5.05495">
        <ele>698</ele>
        <time>2026-05-26T11:45:59.000Z</time>
      </trkpt>
      <trkpt lat="44.66631" lon="5.05494">
        <ele>697</ele>
        <time>2026-05-26T11:46:00.000Z</time>
      </trkpt>
      <trkpt lat="44.66632" lon="5.05494">
        <ele>698</ele>
        <time>2026-05-26T11:46:01.000Z</time>
      </trkpt>
      <trkpt lat="44.66632" lon="5.05495">
        <ele>697</ele>
        <time>2026-05-26T11:46:02.000Z</time>
      </trkpt>
      <trkpt lat="44.66633" lon="5.05495">
        <ele>697</ele>
        <time>2026-05-26T11:46:03.000Z</time>
      </trkpt>
      <trkpt lat="44.66633" lon="5.05495">
        <ele>697</ele>
        <time>2026-05-26T11:46:04.000Z</time>
      </trkpt>
      <trkpt lat="44.66633" lon="5.05495">
        <ele>697</ele>
        <time>2026-05-26T11:46:05.000Z</time>
      </trkpt>
      <trkpt lat="44.66634" lon="5.05492">
        <ele>698</ele>
        <time>2026-05-26T11:46:06.000Z</time>
      </trkpt>
      <trkpt lat="44.66634" lon="5.05491">
        <ele>697</ele>
        <time>2026-05-26T11:46:07.000Z</time>
      </trkpt>
      <trkpt lat="44.66634" lon="5.0549">
        <ele>698</ele>
        <time>2026-05-26T11:46:08.000Z</time>
      </trkpt>
      <trkpt lat="44.66634" lon="5.05489">
        <ele>698</ele>
        <time>2026-05-26T11:46:09.000Z</time>
      </trkpt>
      <trkpt lat="44.66634" lon="5.05489">
        <ele>698</ele>
        <time>2026-05-26T11:46:10.000Z</time>
      </trkpt>
      <trkpt lat="44.66634" lon="5.05489">
        <ele>698</ele>
        <time>2026-05-26T11:46:11.000Z</time>
      </trkpt>
      <trkpt lat="44.66635" lon="5.05484">
        <ele>698</ele>
        <time>2026-05-26T11:46:12.000Z</time>
      </trkpt>
      <trkpt lat="44.66636" lon="5.05483">
        <ele>698</ele>
        <time>2026-05-26T11:46:13.000Z</time>
      </trkpt>
      <trkpt lat="44.66637" lon="5.05481">
        <ele>697</ele>
        <time>2026-05-26T11:46:14.000Z</time>
      </trkpt>
      <trkpt lat="44.66638" lon="5.0548">
        <ele>698</ele>
        <time>2026-05-26T11:46:15.000Z</time>
      </trkpt>
      <trkpt lat="44.66638" lon="5.05478">
        <ele>698</ele>
        <time>2026-05-26T11:46:16.000Z</time>
      </trkpt>
      <trkpt lat="44.66639" lon="5.05477">
        <ele>698</ele>
        <time>2026-05-26T11:46:17.000Z</time>
      </trkpt>
      <trkpt lat="44.66639" lon="5.05477">
        <ele>698</ele>
        <time>2026-05-26T11:46:18.000Z</time>
      </trkpt>
      <trkpt lat="44.66639" lon="5.05477">
        <ele>698</ele>
        <time>2026-05-26T11:46:19.000Z</time>
      </trkpt>
      <trkpt lat="44.6664" lon="5.05473">
        <ele>697</ele>
        <time>2026-05-26T11:46:20.000Z</time>
      </trkpt>
      <trkpt lat="44.66641" lon="5.05472">
        <ele>697</ele>
        <time>2026-05-26T11:46:21.000Z</time>
      </trkpt>
      <trkpt lat="44.66641" lon="5.05471">
        <ele>698</ele>
        <time>2026-05-26T11:46:22.000Z</time>
      </trkpt>
      <trkpt lat="44.66641" lon="5.0547">
        <ele>696</ele>
        <time>2026-05-26T11:46:23.000Z</time>
      </trkpt>
      <trkpt lat="44.66642" lon="5.05468">
        <ele>696</ele>
        <time>2026-05-26T11:46:24.000Z</time>
      </trkpt>
      <trkpt lat="44.66642" lon="5.05466">
        <ele>696</ele>
        <time>2026-05-26T11:46:25.000Z</time>
      </trkpt>
      <trkpt lat="44.66642" lon="5.05464">
        <ele>695</ele>
        <time>2026-05-26T11:46:26.000Z</time>
      </trkpt>
      <trkpt lat="44.66643" lon="5.05462">
        <ele>695</ele>
        <time>2026-05-26T11:46:27.000Z</time>
      </trkpt>
      <trkpt lat="44.66643" lon="5.0546">
        <ele>695</ele>
        <time>2026-05-26T11:46:28.000Z</time>
      </trkpt>
      <trkpt lat="44.66643" lon="5.05458">
        <ele>695</ele>
        <time>2026-05-26T11:46:29.000Z</time>
      </trkpt>
      <trkpt lat="44.66644" lon="5.05457">
        <ele>695</ele>
        <time>2026-05-26T11:46:30.000Z</time>
      </trkpt>
      <trkpt lat="44.66644" lon="5.05457">
        <ele>696</ele>
        <time>2026-05-26T11:46:31.000Z</time>
      </trkpt>
      <trkpt lat="44.66644" lon="5.05457">
        <ele>696</ele>
        <time>2026-05-26T11:46:32.000Z</time>
      </trkpt>
      <trkpt lat="44.66644" lon="5.05455">
        <ele>695</ele>
        <time>2026-05-26T11:46:33.000Z</time>
      </trkpt>
      <trkpt lat="44.66643" lon="5.05454">
        <ele>696</ele>
        <time>2026-05-26T11:46:34.000Z</time>
      </trkpt>
      <trkpt lat="44.66643" lon="5.05452">
        <ele>695</ele>
        <time>2026-05-26T11:46:35.000Z</time>
      </trkpt>
      <trkpt lat="44.66644" lon="5.05451">
        <ele>695</ele>
        <time>2026-05-26T11:46:36.000Z</time>
      </trkpt>
      <trkpt lat="44.66643" lon="5.05448">
        <ele>695</ele>
        <time>2026-05-26T11:46:37.000Z</time>
      </trkpt>
      <trkpt lat="44.66643" lon="5.05446">
        <ele>694</ele>
        <time>2026-05-26T11:46:38.000Z</time>
      </trkpt>
      <trkpt lat="44.66643" lon="5.05445">
        <ele>695</ele>
        <time>2026-05-26T11:46:39.000Z</time>
      </trkpt>
      <trkpt lat="44.66643" lon="5.05444">
        <ele>694</ele>
        <time>2026-05-26T11:46:40.000Z</time>
      </trkpt>
      <trkpt lat="44.66643" lon="5.05442">
        <ele>696</ele>
        <time>2026-05-26T11:46:41.000Z</time>
      </trkpt>
      <trkpt lat="44.66642" lon="5.0544">
        <ele>695</ele>
        <time>2026-05-26T11:46:42.000Z</time>
      </trkpt>
      <trkpt lat="44.66642" lon="5.05439">
        <ele>695</ele>
        <time>2026-05-26T11:46:43.000Z</time>
      </trkpt>
      <trkpt lat="44.66642" lon="5.05438">
        <ele>694</ele>
        <time>2026-05-26T11:46:44.000Z</time>
      </trkpt>
      <trkpt lat="44.66642" lon="5.05438">
        <ele>694</ele>
        <time>2026-05-26T11:46:45.000Z</time>
      </trkpt>
      <trkpt lat="44.66642" lon="5.05438">
        <ele>694</ele>
        <time>2026-05-26T11:46:46.000Z</time>
      </trkpt>
      <trkpt lat="44.66642" lon="5.05436">
        <ele>694</ele>
        <time>2026-05-26T11:46:47.000Z</time>
      </trkpt>
      <trkpt lat="44.66642" lon="5.05435">
        <ele>694</ele>
        <time>2026-05-26T11:46:48.000Z</time>
      </trkpt>
      <trkpt lat="44.66642" lon="5.05434">
        <ele>693</ele>
        <time>2026-05-26T11:46:49.000Z</time>
      </trkpt>
      <trkpt lat="44.66643" lon="5.05433">
        <ele>692</ele>
        <time>2026-05-26T11:46:50.000Z</time>
      </trkpt>
      <trkpt lat="44.66643" lon="5.05433">
        <ele>692</ele>
        <time>2026-05-26T11:46:51.000Z</time>
      </trkpt>
      <trkpt lat="44.66643" lon="5.05433">
        <ele>692</ele>
        <time>2026-05-26T11:46:52.000Z</time>
      </trkpt>
      <trkpt lat="44.66645" lon="5.05429">
        <ele>692</ele>
        <time>2026-05-26T11:46:53.000Z</time>
      </trkpt>
      <trkpt lat="44.66645" lon="5.05427">
        <ele>692</ele>
        <time>2026-05-26T11:46:54.000Z</time>
      </trkpt>
      <trkpt lat="44.66646" lon="5.05425">
        <ele>693</ele>
        <time>2026-05-26T11:46:55.000Z</time>
      </trkpt>
      <trkpt lat="44.66647" lon="5.05423">
        <ele>693</ele>
        <time>2026-05-26T11:46:56.000Z</time>
      </trkpt>
      <trkpt lat="44.66647" lon="5.05423">
        <ele>693</ele>
        <time>2026-05-26T11:46:57.000Z</time>
      </trkpt>
      <trkpt lat="44.66648" lon="5.05421">
        <ele>693</ele>
        <time>2026-05-26T11:46:58.000Z</time>
      </trkpt>
      <trkpt lat="44.66648" lon="5.05419">
        <ele>693</ele>
        <time>2026-05-26T11:46:59.000Z</time>
      </trkpt>
      <trkpt lat="44.66648" lon="5.05417">
        <ele>692</ele>
        <time>2026-05-26T11:47:00.000Z</time>
      </trkpt>
      <trkpt lat="44.66648" lon="5.05416">
        <ele>693</ele>
        <time>2026-05-26T11:47:01.000Z</time>
      </trkpt>
      <trkpt lat="44.66649" lon="5.05415">
        <ele>693</ele>
        <time>2026-05-26T11:47:02.000Z</time>
      </trkpt>
      <trkpt lat="44.66648" lon="5.05414">
        <ele>693</ele>
        <time>2026-05-26T11:47:03.000Z</time>
      </trkpt>
      <trkpt lat="44.66648" lon="5.05413">
        <ele>693</ele>
        <time>2026-05-26T11:47:04.000Z</time>
      </trkpt>
      <trkpt lat="44.66648" lon="5.05412">
        <ele>693</ele>
        <time>2026-05-26T11:47:05.000Z</time>
      </trkpt>
      <trkpt lat="44.66648" lon="5.05412">
        <ele>692</ele>
        <time>2026-05-26T11:47:06.000Z</time>
      </trkpt>
      <trkpt lat="44.66649" lon="5.0541">
        <ele>692</ele>
        <time>2026-05-26T11:47:07.000Z</time>
      </trkpt>
      <trkpt lat="44.6665" lon="5.05408">
        <ele>693</ele>
        <time>2026-05-26T11:47:08.000Z</time>
      </trkpt>
      <trkpt lat="44.6665" lon="5.05407">
        <ele>693</ele>
        <time>2026-05-26T11:47:09.000Z</time>
      </trkpt>
      <trkpt lat="44.6665" lon="5.05405">
        <ele>694</ele>
        <time>2026-05-26T11:47:10.000Z</time>
      </trkpt>
      <trkpt lat="44.66651" lon="5.05403">
        <ele>695</ele>
        <time>2026-05-26T11:47:11.000Z</time>
      </trkpt>
      <trkpt lat="44.66652" lon="5.05403">
        <ele>694</ele>
        <time>2026-05-26T11:47:12.000Z</time>
      </trkpt>
      <trkpt lat="44.66653" lon="5.05403">
        <ele>695</ele>
        <time>2026-05-26T11:47:13.000Z</time>
      </trkpt>
      <trkpt lat="44.66653" lon="5.05402">
        <ele>695</ele>
        <time>2026-05-26T11:47:14.000Z</time>
      </trkpt>
      <trkpt lat="44.66655" lon="5.05402">
        <ele>694</ele>
        <time>2026-05-26T11:47:15.000Z</time>
      </trkpt>
      <trkpt lat="44.66655" lon="5.05401">
        <ele>694</ele>
        <time>2026-05-26T11:47:16.000Z</time>
      </trkpt>
      <trkpt lat="44.66655" lon="5.05401">
        <ele>694</ele>
        <time>2026-05-26T11:47:17.000Z</time>
      </trkpt>
      <trkpt lat="44.66656" lon="5.054">
        <ele>693</ele>
        <time>2026-05-26T11:47:18.000Z</time>
      </trkpt>
      <trkpt lat="44.66656" lon="5.05398">
        <ele>693</ele>
        <time>2026-05-26T11:47:19.000Z</time>
      </trkpt>
      <trkpt lat="44.66656" lon="5.05398">
        <ele>693</ele>
        <time>2026-05-26T11:47:20.000Z</time>
      </trkpt>
      <trkpt lat="44.66656" lon="5.05398">
        <ele>693</ele>
        <time>2026-05-26T11:47:21.000Z</time>
      </trkpt>
      <trkpt lat="44.66656" lon="5.05393">
        <ele>693</ele>
        <time>2026-05-26T11:47:22.000Z</time>
      </trkpt>
      <trkpt lat="44.66656" lon="5.05391">
        <ele>692</ele>
        <time>2026-05-26T11:47:23.000Z</time>
      </trkpt>
      <trkpt lat="44.66656" lon="5.05389">
        <ele>692</ele>
        <time>2026-05-26T11:47:24.000Z</time>
      </trkpt>
      <trkpt lat="44.66658" lon="5.05388">
        <ele>692</ele>
        <time>2026-05-26T11:47:25.000Z</time>
      </trkpt>
      <trkpt lat="44.66659" lon="5.05387">
        <ele>692</ele>
        <time>2026-05-26T11:47:26.000Z</time>
      </trkpt>
      <trkpt lat="44.66657" lon="5.05386">
        <ele>693</ele>
        <time>2026-05-26T11:47:27.000Z</time>
      </trkpt>
      <trkpt lat="44.66657" lon="5.05384">
        <ele>694</ele>
        <time>2026-05-26T11:47:28.000Z</time>
      </trkpt>
      <trkpt lat="44.66657" lon="5.05383">
        <ele>693</ele>
        <time>2026-05-26T11:47:29.000Z</time>
      </trkpt>
      <trkpt lat="44.66658" lon="5.05381">
        <ele>693</ele>
        <time>2026-05-26T11:47:30.000Z</time>
      </trkpt>
      <trkpt lat="44.66658" lon="5.05379">
        <ele>692</ele>
        <time>2026-05-26T11:47:31.000Z</time>
      </trkpt>
      <trkpt lat="44.66658" lon="5.05379">
        <ele>692</ele>
        <time>2026-05-26T11:47:32.000Z</time>
      </trkpt>
      <trkpt lat="44.66658" lon="5.05376">
        <ele>693</ele>
        <time>2026-05-26T11:47:33.000Z</time>
      </trkpt>
      <trkpt lat="44.66659" lon="5.05375">
        <ele>694</ele>
        <time>2026-05-26T11:47:34.000Z</time>
      </trkpt>
      <trkpt lat="44.66659" lon="5.05373">
        <ele>694</ele>
        <time>2026-05-26T11:47:35.000Z</time>
      </trkpt>
      <trkpt lat="44.66659" lon="5.0537">
        <ele>694</ele>
        <time>2026-05-26T11:47:36.000Z</time>
      </trkpt>
      <trkpt lat="44.6666" lon="5.05368">
        <ele>694</ele>
        <time>2026-05-26T11:47:37.000Z</time>
      </trkpt>
      <trkpt lat="44.66661" lon="5.05368">
        <ele>694</ele>
        <time>2026-05-26T11:47:38.000Z</time>
      </trkpt>
      <trkpt lat="44.66661" lon="5.05367">
        <ele>693</ele>
        <time>2026-05-26T11:47:39.000Z</time>
      </trkpt>
      <trkpt lat="44.66661" lon="5.05366">
        <ele>693</ele>
        <time>2026-05-26T11:47:40.000Z</time>
      </trkpt>
      <trkpt lat="44.66661" lon="5.05363">
        <ele>694</ele>
        <time>2026-05-26T11:47:41.000Z</time>
      </trkpt>
      <trkpt lat="44.66661" lon="5.05363">
        <ele>694</ele>
        <time>2026-05-26T11:47:42.000Z</time>
      </trkpt>
      <trkpt lat="44.66661" lon="5.05363">
        <ele>694</ele>
        <time>2026-05-26T11:47:43.000Z</time>
      </trkpt>
      <trkpt lat="44.66663" lon="5.0536">
        <ele>695</ele>
        <time>2026-05-26T11:47:44.000Z</time>
      </trkpt>
      <trkpt lat="44.66664" lon="5.05359">
        <ele>695</ele>
        <time>2026-05-26T11:47:45.000Z</time>
      </trkpt>
      <trkpt lat="44.66664" lon="5.05358">
        <ele>694</ele>
        <time>2026-05-26T11:47:46.000Z</time>
      </trkpt>
      <trkpt lat="44.66664" lon="5.05356">
        <ele>695</ele>
        <time>2026-05-26T11:47:47.000Z</time>
      </trkpt>
      <trkpt lat="44.66665" lon="5.05355">
        <ele>696</ele>
        <time>2026-05-26T11:47:48.000Z</time>
      </trkpt>
      <trkpt lat="44.66666" lon="5.05354">
        <ele>695</ele>
        <time>2026-05-26T11:47:49.000Z</time>
      </trkpt>
      <trkpt lat="44.66666" lon="5.05354">
        <ele>695</ele>
        <time>2026-05-26T11:47:50.000Z</time>
      </trkpt>
      <trkpt lat="44.66666" lon="5.05354">
        <ele>695</ele>
        <time>2026-05-26T11:47:51.000Z</time>
      </trkpt>
      <trkpt lat="44.66667" lon="5.05351">
        <ele>696</ele>
        <time>2026-05-26T11:47:52.000Z</time>
      </trkpt>
      <trkpt lat="44.66667" lon="5.05349">
        <ele>695</ele>
        <time>2026-05-26T11:47:53.000Z</time>
      </trkpt>
      <trkpt lat="44.66667" lon="5.05348">
        <ele>695</ele>
        <time>2026-05-26T11:47:54.000Z</time>
      </trkpt>
      <trkpt lat="44.66668" lon="5.05347">
        <ele>695</ele>
        <time>2026-05-26T11:47:55.000Z</time>
      </trkpt>
      <trkpt lat="44.66669" lon="5.05345">
        <ele>696</ele>
        <time>2026-05-26T11:47:56.000Z</time>
      </trkpt>
      <trkpt lat="44.66669" lon="5.05343">
        <ele>696</ele>
        <time>2026-05-26T11:47:57.000Z</time>
      </trkpt>
      <trkpt lat="44.6667" lon="5.05341">
        <ele>695</ele>
        <time>2026-05-26T11:47:58.000Z</time>
      </trkpt>
      <trkpt lat="44.6667" lon="5.0534">
        <ele>695</ele>
        <time>2026-05-26T11:47:59.000Z</time>
      </trkpt>
      <trkpt lat="44.6667" lon="5.05338">
        <ele>694</ele>
        <time>2026-05-26T11:48:00.000Z</time>
      </trkpt>
      <trkpt lat="44.6667" lon="5.05337">
        <ele>694</ele>
        <time>2026-05-26T11:48:01.000Z</time>
      </trkpt>
      <trkpt lat="44.66671" lon="5.05336">
        <ele>694</ele>
        <time>2026-05-26T11:48:02.000Z</time>
      </trkpt>
      <trkpt lat="44.66671" lon="5.05335">
        <ele>695</ele>
        <time>2026-05-26T11:48:03.000Z</time>
      </trkpt>
      <trkpt lat="44.66672" lon="5.05334">
        <ele>694</ele>
        <time>2026-05-26T11:48:04.000Z</time>
      </trkpt>
      <trkpt lat="44.66672" lon="5.05333">
        <ele>694</ele>
        <time>2026-05-26T11:48:05.000Z</time>
      </trkpt>
      <trkpt lat="44.66671" lon="5.05331">
        <ele>694</ele>
        <time>2026-05-26T11:48:06.000Z</time>
      </trkpt>
      <trkpt lat="44.6667" lon="5.0533">
        <ele>694</ele>
        <time>2026-05-26T11:48:07.000Z</time>
      </trkpt>
      <trkpt lat="44.6667" lon="5.05329">
        <ele>693</ele>
        <time>2026-05-26T11:48:08.000Z</time>
      </trkpt>
      <trkpt lat="44.66669" lon="5.05327">
        <ele>693</ele>
        <time>2026-05-26T11:48:09.000Z</time>
      </trkpt>
      <trkpt lat="44.66669" lon="5.05326">
        <ele>693</ele>
        <time>2026-05-26T11:48:10.000Z</time>
      </trkpt>
      <trkpt lat="44.66669" lon="5.05324">
        <ele>693</ele>
        <time>2026-05-26T11:48:11.000Z</time>
      </trkpt>
      <trkpt lat="44.66669" lon="5.05324">
        <ele>693</ele>
        <time>2026-05-26T11:48:12.000Z</time>
      </trkpt>
      <trkpt lat="44.66669" lon="5.05324">
        <ele>693</ele>
        <time>2026-05-26T11:48:13.000Z</time>
      </trkpt>
      <trkpt lat="44.66669" lon="5.05324">
        <ele>693</ele>
        <time>2026-05-26T11:48:14.000Z</time>
      </trkpt>
      <trkpt lat="44.66669" lon="5.05324">
        <ele>693</ele>
        <time>2026-05-26T11:48:15.000Z</time>
      </trkpt>
      <trkpt lat="44.66669" lon="5.05319">
        <ele>692</ele>
        <time>2026-05-26T11:48:16.000Z</time>
      </trkpt>
      <trkpt lat="44.6667" lon="5.05318">
        <ele>693</ele>
        <time>2026-05-26T11:48:17.000Z</time>
      </trkpt>
      <trkpt lat="44.66669" lon="5.05316">
        <ele>692</ele>
        <time>2026-05-26T11:48:18.000Z</time>
      </trkpt>
      <trkpt lat="44.66668" lon="5.05313">
        <ele>693</ele>
        <time>2026-05-26T11:48:19.000Z</time>
      </trkpt>
      <trkpt lat="44.66667" lon="5.05312">
        <ele>692</ele>
        <time>2026-05-26T11:48:20.000Z</time>
      </trkpt>
      <trkpt lat="44.66666" lon="5.0531">
        <ele>692</ele>
        <time>2026-05-26T11:48:21.000Z</time>
      </trkpt>
      <trkpt lat="44.66666" lon="5.05308">
        <ele>690</ele>
        <time>2026-05-26T11:48:22.000Z</time>
      </trkpt>
      <trkpt lat="44.66667" lon="5.05308">
        <ele>690</ele>
        <time>2026-05-26T11:48:23.000Z</time>
      </trkpt>
      <trkpt lat="44.66667" lon="5.05308">
        <ele>690</ele>
        <time>2026-05-26T11:48:24.000Z</time>
      </trkpt>
      <trkpt lat="44.66667" lon="5.05308">
        <ele>690</ele>
        <time>2026-05-26T11:48:25.000Z</time>
      </trkpt>
      <trkpt lat="44.66668" lon="5.05304">
        <ele>690</ele>
        <time>2026-05-26T11:48:26.000Z</time>
      </trkpt>
      <trkpt lat="44.66668" lon="5.05303">
        <ele>691</ele>
        <time>2026-05-26T11:48:27.000Z</time>
      </trkpt>
      <trkpt lat="44.66668" lon="5.05302">
        <ele>691</ele>
        <time>2026-05-26T11:48:28.000Z</time>
      </trkpt>
      <trkpt lat="44.66668" lon="5.05301">
        <ele>690</ele>
        <time>2026-05-26T11:48:29.000Z</time>
      </trkpt>
      <trkpt lat="44.66668" lon="5.05301">
        <ele>690</ele>
        <time>2026-05-26T11:48:30.000Z</time>
      </trkpt>
      <trkpt lat="44.66668" lon="5.05301">
        <ele>690</ele>
        <time>2026-05-26T11:48:31.000Z</time>
      </trkpt>
      <trkpt lat="44.66668" lon="5.05301">
        <ele>690</ele>
        <time>2026-05-26T11:48:32.000Z</time>
      </trkpt>
      <trkpt lat="44.66668" lon="5.05301">
        <ele>690</ele>
        <time>2026-05-26T11:48:33.000Z</time>
      </trkpt>
      <trkpt lat="44.66668" lon="5.05301">
        <ele>690</ele>
        <time>2026-05-26T11:48:34.000Z</time>
      </trkpt>
      <trkpt lat="44.66668" lon="5.05301">
        <ele>690</ele>
        <time>2026-05-26T11:48:35.000Z</time>
      </trkpt>
      <trkpt lat="44.66668" lon="5.05301">
        <ele>690</ele>
        <time>2026-05-26T11:48:36.000Z</time>
      </trkpt>
      <trkpt lat="44.66668" lon="5.05301">
        <ele>690</ele>
        <time>2026-05-26T11:48:37.000Z</time>
      </trkpt>
      <trkpt lat="44.66668" lon="5.05301">
        <ele>690</ele>
        <time>2026-05-26T11:48:38.000Z</time>
      </trkpt>
      <trkpt lat="44.66668" lon="5.05301">
        <ele>690</ele>
        <time>2026-05-26T11:48:39.000Z</time>
      </trkpt>
      <trkpt lat="44.66668" lon="5.05301">
        <ele>690</ele>
        <time>2026-05-26T11:48:40.000Z</time>
      </trkpt>
      <trkpt lat="44.66668" lon="5.05301">
        <ele>690</ele>
        <time>2026-05-26T11:48:41.000Z</time>
      </trkpt>
      <trkpt lat="44.66668" lon="5.05301">
        <ele>690</ele>
        <time>2026-05-26T11:48:42.000Z</time>
      </trkpt>
      <trkpt lat="44.66668" lon="5.05301">
        <ele>690</ele>
        <time>2026-05-26T11:48:43.000Z</time>
      </trkpt>
      <trkpt lat="44.66668" lon="5.05301">
        <ele>690</ele>
        <time>2026-05-26T11:48:44.000Z</time>
      </trkpt>
      <trkpt lat="44.66668" lon="5.05301">
        <ele>690</ele>
        <time>2026-05-26T11:48:45.000Z</time>
      </trkpt>
      <trkpt lat="44.66668" lon="5.05301">
        <ele>690</ele>
        <time>2026-05-26T11:48:46.000Z</time>
      </trkpt>
      <trkpt lat="44.66668" lon="5.05301">
        <ele>690</ele>
        <time>2026-05-26T11:48:47.000Z</time>
      </trkpt>
      <trkpt lat="44.66668" lon="5.05301">
        <ele>690</ele>
        <time>2026-05-26T11:48:48.000Z</time>
      </trkpt>
      <trkpt lat="44.66668" lon="5.05301">
        <ele>690</ele>
        <time>2026-05-26T11:48:49.000Z</time>
      </trkpt>
      <trkpt lat="44.66668" lon="5.05301">
        <ele>690</ele>
        <time>2026-05-26T11:48:50.000Z</time>
      </trkpt>
      <trkpt lat="44.66668" lon="5.05301">
        <ele>690</ele>
        <time>2026-05-26T11:48:51.000Z</time>
      </trkpt>
      <trkpt lat="44.66668" lon="5.05301">
        <ele>690</ele>
        <time>2026-05-26T11:48:52.000Z</time>
      </trkpt>
      <trkpt lat="44.66668" lon="5.05301">
        <ele>690</ele>
        <time>2026-05-26T11:48:53.000Z</time>
      </trkpt>
      <trkpt lat="44.66668" lon="5.05301">
        <ele>690</ele>
        <time>2026-05-26T11:48:54.000Z</time>
      </trkpt>
      <trkpt lat="44.66668" lon="5.05301">
        <ele>690</ele>
        <time>2026-05-26T11:48:55.000Z</time>
      </trkpt>
      <trkpt lat="44.66668" lon="5.05301">
        <ele>690</ele>
        <time>2026-05-26T11:48:56.000Z</time>
      </trkpt>
      <trkpt lat="44.66668" lon="5.05301">
        <ele>690</ele>
        <time>2026-05-26T11:48:57.000Z</time>
      </trkpt>
      <trkpt lat="44.66668" lon="5.05301">
        <ele>690</ele>
        <time>2026-05-26T11:48:58.000Z</time>
      </trkpt>
      <trkpt lat="44.6667" lon="5.053">
        <ele>689</ele>
        <time>2026-05-26T11:48:59.000Z</time>
      </trkpt>
      <trkpt lat="44.6667" lon="5.053">
        <ele>689</ele>
        <time>2026-05-26T11:49:00.000Z</time>
      </trkpt>
      <trkpt lat="44.6667" lon="5.053">
        <ele>689</ele>
        <time>2026-05-26T11:49:01.000Z</time>
      </trkpt>
      <trkpt lat="44.66671" lon="5.053">
        <ele>688</ele>
        <time>2026-05-26T11:49:02.000Z</time>
      </trkpt>
      <trkpt lat="44.66671" lon="5.053">
        <ele>688</ele>
        <time>2026-05-26T11:49:03.000Z</time>
      </trkpt>
      <trkpt lat="44.66672" lon="5.053">
        <ele>688</ele>
        <time>2026-05-26T11:49:04.000Z</time>
      </trkpt>
      <trkpt lat="44.66672" lon="5.053">
        <ele>688</ele>
        <time>2026-05-26T11:49:05.000Z</time>
      </trkpt>
      <trkpt lat="44.66672" lon="5.053">
        <ele>688</ele>
        <time>2026-05-26T11:49:06.000Z</time>
      </trkpt>
      <trkpt lat="44.66672" lon="5.053">
        <ele>688</ele>
        <time>2026-05-26T11:49:07.000Z</time>
      </trkpt>
      <trkpt lat="44.66672" lon="5.053">
        <ele>688</ele>
        <time>2026-05-26T11:49:08.000Z</time>
      </trkpt>
      <trkpt lat="44.66672" lon="5.053">
        <ele>688</ele>
        <time>2026-05-26T11:49:09.000Z</time>
      </trkpt>
      <trkpt lat="44.66672" lon="5.053">
        <ele>688</ele>
        <time>2026-05-26T11:49:10.000Z</time>
      </trkpt>
      <trkpt lat="44.66672" lon="5.053">
        <ele>688</ele>
        <time>2026-05-26T11:49:11.000Z</time>
      </trkpt>
      <trkpt lat="44.66672" lon="5.053">
        <ele>688</ele>
        <time>2026-05-26T11:49:12.000Z</time>
      </trkpt>
      <trkpt lat="44.66672" lon="5.053">
        <ele>688</ele>
        <time>2026-05-26T11:49:13.000Z</time>
      </trkpt>
      <trkpt lat="44.6667" lon="5.05299">
        <ele>687</ele>
        <time>2026-05-26T11:49:14.000Z</time>
      </trkpt>
      <trkpt lat="44.6667" lon="5.05298">
        <ele>688</ele>
        <time>2026-05-26T11:49:15.000Z</time>
      </trkpt>
      <trkpt lat="44.6667" lon="5.05297">
        <ele>689</ele>
        <time>2026-05-26T11:49:16.000Z</time>
      </trkpt>
      <trkpt lat="44.66671" lon="5.05294">
        <ele>689</ele>
        <time>2026-05-26T11:49:17.000Z</time>
      </trkpt>
      <trkpt lat="44.66671" lon="5.05294">
        <ele>689</ele>
        <time>2026-05-26T11:49:18.000Z</time>
      </trkpt>
      <trkpt lat="44.66671" lon="5.05294">
        <ele>689</ele>
        <time>2026-05-26T11:49:19.000Z</time>
      </trkpt>
      <trkpt lat="44.66671" lon="5.05294">
        <ele>689</ele>
        <time>2026-05-26T11:49:20.000Z</time>
      </trkpt>
      <trkpt lat="44.66671" lon="5.05294">
        <ele>689</ele>
        <time>2026-05-26T11:49:21.000Z</time>
      </trkpt>
      <trkpt lat="44.66671" lon="5.05294">
        <ele>689</ele>
        <time>2026-05-26T11:49:22.000Z</time>
      </trkpt>
      <trkpt lat="44.6667" lon="5.05294">
        <ele>687</ele>
        <time>2026-05-26T11:49:23.000Z</time>
      </trkpt>
      <trkpt lat="44.6667" lon="5.05293">
        <ele>686</ele>
        <time>2026-05-26T11:49:24.000Z</time>
      </trkpt>
      <trkpt lat="44.66669" lon="5.05293">
        <ele>686</ele>
        <time>2026-05-26T11:49:25.000Z</time>
      </trkpt>
      <trkpt lat="44.66669" lon="5.05293">
        <ele>686</ele>
        <time>2026-05-26T11:49:26.000Z</time>
      </trkpt>
      <trkpt lat="44.66669" lon="5.05293">
        <ele>686</ele>
        <time>2026-05-26T11:49:27.000Z</time>
      </trkpt>
      <trkpt lat="44.66669" lon="5.05293">
        <ele>686</ele>
        <time>2026-05-26T11:49:28.000Z</time>
      </trkpt>
      <trkpt lat="44.66669" lon="5.05293">
        <ele>686</ele>
        <time>2026-05-26T11:49:29.000Z</time>
      </trkpt>
      <trkpt lat="44.66669" lon="5.0529">
        <ele>686</ele>
        <time>2026-05-26T11:49:30.000Z</time>
      </trkpt>
      <trkpt lat="44.66669" lon="5.05289">
        <ele>686</ele>
        <time>2026-05-26T11:49:31.000Z</time>
      </trkpt>
      <trkpt lat="44.6667" lon="5.05289">
        <ele>686</ele>
        <time>2026-05-26T11:49:32.000Z</time>
      </trkpt>
      <trkpt lat="44.6667" lon="5.05288">
        <ele>685</ele>
        <time>2026-05-26T11:49:33.000Z</time>
      </trkpt>
      <trkpt lat="44.6667" lon="5.05287">
        <ele>685</ele>
        <time>2026-05-26T11:49:34.000Z</time>
      </trkpt>
      <trkpt lat="44.66671" lon="5.05284">
        <ele>685</ele>
        <time>2026-05-26T11:49:35.000Z</time>
      </trkpt>
      <trkpt lat="44.66671" lon="5.05282">
        <ele>684</ele>
        <time>2026-05-26T11:49:36.000Z</time>
      </trkpt>
      <trkpt lat="44.66672" lon="5.05281">
        <ele>686</ele>
        <time>2026-05-26T11:49:37.000Z</time>
      </trkpt>
      <trkpt lat="44.66672" lon="5.0528">
        <ele>685</ele>
        <time>2026-05-26T11:49:38.000Z</time>
      </trkpt>
      <trkpt lat="44.66671" lon="5.05278">
        <ele>685</ele>
        <time>2026-05-26T11:49:39.000Z</time>
      </trkpt>
      <trkpt lat="44.66672" lon="5.05276">
        <ele>684</ele>
        <time>2026-05-26T11:49:40.000Z</time>
      </trkpt>
      <trkpt lat="44.66673" lon="5.05275">
        <ele>685</ele>
        <time>2026-05-26T11:49:41.000Z</time>
      </trkpt>
      <trkpt lat="44.66673" lon="5.05274">
        <ele>685</ele>
        <time>2026-05-26T11:49:42.000Z</time>
      </trkpt>
      <trkpt lat="44.66673" lon="5.05272">
        <ele>684</ele>
        <time>2026-05-26T11:49:43.000Z</time>
      </trkpt>
      <trkpt lat="44.66673" lon="5.05272">
        <ele>684</ele>
        <time>2026-05-26T11:49:44.000Z</time>
      </trkpt>
      <trkpt lat="44.66673" lon="5.05272">
        <ele>684</ele>
        <time>2026-05-26T11:49:45.000Z</time>
      </trkpt>
      <trkpt lat="44.66671" lon="5.05269">
        <ele>683</ele>
        <time>2026-05-26T11:49:46.000Z</time>
      </trkpt>
      <trkpt lat="44.66671" lon="5.05267">
        <ele>683</ele>
        <time>2026-05-26T11:49:47.000Z</time>
      </trkpt>
      <trkpt lat="44.66671" lon="5.05266">
        <ele>683</ele>
        <time>2026-05-26T11:49:48.000Z</time>
      </trkpt>
      <trkpt lat="44.66672" lon="5.05264">
        <ele>683</ele>
        <time>2026-05-26T11:49:49.000Z</time>
      </trkpt>
      <trkpt lat="44.66671" lon="5.05263">
        <ele>683</ele>
        <time>2026-05-26T11:49:50.000Z</time>
      </trkpt>
      <trkpt lat="44.66671" lon="5.05262">
        <ele>684</ele>
        <time>2026-05-26T11:49:51.000Z</time>
      </trkpt>
      <trkpt lat="44.66672" lon="5.0526">
        <ele>686</ele>
        <time>2026-05-26T11:49:52.000Z</time>
      </trkpt>
      <trkpt lat="44.66672" lon="5.05259">
        <ele>686</ele>
        <time>2026-05-26T11:49:53.000Z</time>
      </trkpt>
      <trkpt lat="44.66672" lon="5.05259">
        <ele>686</ele>
        <time>2026-05-26T11:49:54.000Z</time>
      </trkpt>
      <trkpt lat="44.66672" lon="5.05259">
        <ele>686</ele>
        <time>2026-05-26T11:49:55.000Z</time>
      </trkpt>
      <trkpt lat="44.66674" lon="5.05255">
        <ele>685</ele>
        <time>2026-05-26T11:49:56.000Z</time>
      </trkpt>
      <trkpt lat="44.66675" lon="5.05253">
        <ele>686</ele>
        <time>2026-05-26T11:49:57.000Z</time>
      </trkpt>
      <trkpt lat="44.66675" lon="5.05252">
        <ele>686</ele>
        <time>2026-05-26T11:49:58.000Z</time>
      </trkpt>
      <trkpt lat="44.66676" lon="5.05251">
        <ele>686</ele>
        <time>2026-05-26T11:49:59.000Z</time>
      </trkpt>
      <trkpt lat="44.66676" lon="5.05251">
        <ele>686</ele>
        <time>2026-05-26T11:50:00.000Z</time>
      </trkpt>
      <trkpt lat="44.66676" lon="5.05251">
        <ele>686</ele>
        <time>2026-05-26T11:50:01.000Z</time>
      </trkpt>
      <trkpt lat="44.66675" lon="5.05247">
        <ele>685</ele>
        <time>2026-05-26T11:50:02.000Z</time>
      </trkpt>
      <trkpt lat="44.66675" lon="5.05245">
        <ele>685</ele>
        <time>2026-05-26T11:50:03.000Z</time>
      </trkpt>
      <trkpt lat="44.66675" lon="5.05243">
        <ele>685</ele>
        <time>2026-05-26T11:50:04.000Z</time>
      </trkpt>
      <trkpt lat="44.66675" lon="5.0524">
        <ele>685</ele>
        <time>2026-05-26T11:50:05.000Z</time>
      </trkpt>
      <trkpt lat="44.66675" lon="5.05239">
        <ele>685</ele>
        <time>2026-05-26T11:50:06.000Z</time>
      </trkpt>
      <trkpt lat="44.66675" lon="5.05238">
        <ele>685</ele>
        <time>2026-05-26T11:50:07.000Z</time>
      </trkpt>
      <trkpt lat="44.66675" lon="5.05237">
        <ele>684</ele>
        <time>2026-05-26T11:50:08.000Z</time>
      </trkpt>
      <trkpt lat="44.66674" lon="5.05235">
        <ele>684</ele>
        <time>2026-05-26T11:50:09.000Z</time>
      </trkpt>
      <trkpt lat="44.66673" lon="5.05233">
        <ele>685</ele>
        <time>2026-05-26T11:50:10.000Z</time>
      </trkpt>
      <trkpt lat="44.66673" lon="5.05231">
        <ele>684</ele>
        <time>2026-05-26T11:50:11.000Z</time>
      </trkpt>
      <trkpt lat="44.66673" lon="5.0523">
        <ele>685</ele>
        <time>2026-05-26T11:50:12.000Z</time>
      </trkpt>
      <trkpt lat="44.66673" lon="5.05228">
        <ele>685</ele>
        <time>2026-05-26T11:50:13.000Z</time>
      </trkpt>
      <trkpt lat="44.66673" lon="5.05227">
        <ele>685</ele>
        <time>2026-05-26T11:50:14.000Z</time>
      </trkpt>
      <trkpt lat="44.66673" lon="5.05225">
        <ele>685</ele>
        <time>2026-05-26T11:50:15.000Z</time>
      </trkpt>
      <trkpt lat="44.66673" lon="5.05223">
        <ele>684</ele>
        <time>2026-05-26T11:50:16.000Z</time>
      </trkpt>
      <trkpt lat="44.66674" lon="5.05221">
        <ele>685</ele>
        <time>2026-05-26T11:50:17.000Z</time>
      </trkpt>
      <trkpt lat="44.66674" lon="5.0522">
        <ele>685</ele>
        <time>2026-05-26T11:50:18.000Z</time>
      </trkpt>
      <trkpt lat="44.66673" lon="5.05219">
        <ele>685</ele>
        <time>2026-05-26T11:50:19.000Z</time>
      </trkpt>
      <trkpt lat="44.66674" lon="5.05217">
        <ele>685</ele>
        <time>2026-05-26T11:50:20.000Z</time>
      </trkpt>
      <trkpt lat="44.66673" lon="5.05216">
        <ele>685</ele>
        <time>2026-05-26T11:50:21.000Z</time>
      </trkpt>
      <trkpt lat="44.66673" lon="5.05215">
        <ele>685</ele>
        <time>2026-05-26T11:50:22.000Z</time>
      </trkpt>
      <trkpt lat="44.66672" lon="5.05214">
        <ele>685</ele>
        <time>2026-05-26T11:50:23.000Z</time>
      </trkpt>
      <trkpt lat="44.66672" lon="5.05212">
        <ele>685</ele>
        <time>2026-05-26T11:50:24.000Z</time>
      </trkpt>
      <trkpt lat="44.66673" lon="5.05211">
        <ele>686</ele>
        <time>2026-05-26T11:50:25.000Z</time>
      </trkpt>
      <trkpt lat="44.66673" lon="5.0521">
        <ele>686</ele>
        <time>2026-05-26T11:50:26.000Z</time>
      </trkpt>
      <trkpt lat="44.66674" lon="5.05209">
        <ele>685</ele>
        <time>2026-05-26T11:50:27.000Z</time>
      </trkpt>
      <trkpt lat="44.66674" lon="5.05208">
        <ele>686</ele>
        <time>2026-05-26T11:50:28.000Z</time>
      </trkpt>
      <trkpt lat="44.66674" lon="5.05208">
        <ele>686</ele>
        <time>2026-05-26T11:50:29.000Z</time>
      </trkpt>
      <trkpt lat="44.66674" lon="5.05208">
        <ele>686</ele>
        <time>2026-05-26T11:50:30.000Z</time>
      </trkpt>
      <trkpt lat="44.66675" lon="5.05205">
        <ele>685</ele>
        <time>2026-05-26T11:50:31.000Z</time>
      </trkpt>
      <trkpt lat="44.66676" lon="5.05204">
        <ele>685</ele>
        <time>2026-05-26T11:50:32.000Z</time>
      </trkpt>
      <trkpt lat="44.66676" lon="5.05202">
        <ele>684</ele>
        <time>2026-05-26T11:50:33.000Z</time>
      </trkpt>
      <trkpt lat="44.66676" lon="5.052">
        <ele>684</ele>
        <time>2026-05-26T11:50:34.000Z</time>
      </trkpt>
      <trkpt lat="44.66676" lon="5.05197">
        <ele>683</ele>
        <time>2026-05-26T11:50:35.000Z</time>
      </trkpt>
      <trkpt lat="44.66676" lon="5.05196">
        <ele>682</ele>
        <time>2026-05-26T11:50:36.000Z</time>
      </trkpt>
      <trkpt lat="44.66675" lon="5.05194">
        <ele>682</ele>
        <time>2026-05-26T11:50:37.000Z</time>
      </trkpt>
      <trkpt lat="44.66675" lon="5.05194">
        <ele>682</ele>
        <time>2026-05-26T11:50:38.000Z</time>
      </trkpt>
      <trkpt lat="44.66675" lon="5.05194">
        <ele>682</ele>
        <time>2026-05-26T11:50:39.000Z</time>
      </trkpt>
      <trkpt lat="44.66675" lon="5.05194">
        <ele>682</ele>
        <time>2026-05-26T11:50:40.000Z</time>
      </trkpt>
      <trkpt lat="44.66675" lon="5.05194">
        <ele>682</ele>
        <time>2026-05-26T11:50:41.000Z</time>
      </trkpt>
      <trkpt lat="44.66676" lon="5.05191">
        <ele>684</ele>
        <time>2026-05-26T11:50:42.000Z</time>
      </trkpt>
      <trkpt lat="44.66675" lon="5.0519">
        <ele>684</ele>
        <time>2026-05-26T11:50:43.000Z</time>
      </trkpt>
      <trkpt lat="44.66675" lon="5.0519">
        <ele>684</ele>
        <time>2026-05-26T11:50:44.000Z</time>
      </trkpt>
      <trkpt lat="44.66675" lon="5.0519">
        <ele>684</ele>
        <time>2026-05-26T11:50:45.000Z</time>
      </trkpt>
      <trkpt lat="44.66675" lon="5.0519">
        <ele>684</ele>
        <time>2026-05-26T11:50:46.000Z</time>
      </trkpt>
      <trkpt lat="44.66675" lon="5.0519">
        <ele>684</ele>
        <time>2026-05-26T11:50:47.000Z</time>
      </trkpt>
      <trkpt lat="44.66675" lon="5.0519">
        <ele>684</ele>
        <time>2026-05-26T11:50:48.000Z</time>
      </trkpt>
      <trkpt lat="44.66675" lon="5.0519">
        <ele>684</ele>
        <time>2026-05-26T11:50:49.000Z</time>
      </trkpt>
      <trkpt lat="44.66676" lon="5.05188">
        <ele>683</ele>
        <time>2026-05-26T11:50:50.000Z</time>
      </trkpt>
      <trkpt lat="44.66676" lon="5.05187">
        <ele>683</ele>
        <time>2026-05-26T11:50:51.000Z</time>
      </trkpt>
      <trkpt lat="44.66677" lon="5.05185">
        <ele>684</ele>
        <time>2026-05-26T11:50:52.000Z</time>
      </trkpt>
      <trkpt lat="44.66678" lon="5.05184">
        <ele>685</ele>
        <time>2026-05-26T11:50:53.000Z</time>
      </trkpt>
      <trkpt lat="44.66678" lon="5.05183">
        <ele>685</ele>
        <time>2026-05-26T11:50:54.000Z</time>
      </trkpt>
      <trkpt lat="44.66678" lon="5.05181">
        <ele>684</ele>
        <time>2026-05-26T11:50:55.000Z</time>
      </trkpt>
      <trkpt lat="44.66678" lon="5.05179">
        <ele>684</ele>
        <time>2026-05-26T11:50:56.000Z</time>
      </trkpt>
      <trkpt lat="44.66678" lon="5.05176">
        <ele>684</ele>
        <time>2026-05-26T11:50:57.000Z</time>
      </trkpt>
      <trkpt lat="44.66679" lon="5.05175">
        <ele>684</ele>
        <time>2026-05-26T11:50:58.000Z</time>
      </trkpt>
      <trkpt lat="44.66678" lon="5.05175">
        <ele>683</ele>
        <time>2026-05-26T11:50:59.000Z</time>
      </trkpt>
      <trkpt lat="44.66679" lon="5.05173">
        <ele>683</ele>
        <time>2026-05-26T11:51:00.000Z</time>
      </trkpt>
      <trkpt lat="44.6668" lon="5.05172">
        <ele>683</ele>
        <time>2026-05-26T11:51:01.000Z</time>
      </trkpt>
      <trkpt lat="44.6668" lon="5.05172">
        <ele>683</ele>
        <time>2026-05-26T11:51:02.000Z</time>
      </trkpt>
      <trkpt lat="44.6668" lon="5.05168">
        <ele>682</ele>
        <time>2026-05-26T11:51:03.000Z</time>
      </trkpt>
      <trkpt lat="44.66679" lon="5.05167">
        <ele>682</ele>
        <time>2026-05-26T11:51:04.000Z</time>
      </trkpt>
      <trkpt lat="44.6668" lon="5.05166">
        <ele>682</ele>
        <time>2026-05-26T11:51:05.000Z</time>
      </trkpt>
      <trkpt lat="44.6668" lon="5.05164">
        <ele>682</ele>
        <time>2026-05-26T11:51:06.000Z</time>
      </trkpt>
      <trkpt lat="44.6668" lon="5.05164">
        <ele>682</ele>
        <time>2026-05-26T11:51:07.000Z</time>
      </trkpt>
      <trkpt lat="44.6668" lon="5.0516">
        <ele>680</ele>
        <time>2026-05-26T11:51:08.000Z</time>
      </trkpt>
      <trkpt lat="44.6668" lon="5.05158">
        <ele>679</ele>
        <time>2026-05-26T11:51:09.000Z</time>
      </trkpt>
      <trkpt lat="44.66678" lon="5.05156">
        <ele>678</ele>
        <time>2026-05-26T11:51:10.000Z</time>
      </trkpt>
      <trkpt lat="44.66678" lon="5.05154">
        <ele>678</ele>
        <time>2026-05-26T11:51:11.000Z</time>
      </trkpt>
      <trkpt lat="44.66677" lon="5.05152">
        <ele>678</ele>
        <time>2026-05-26T11:51:12.000Z</time>
      </trkpt>
      <trkpt lat="44.66677" lon="5.05151">
        <ele>678</ele>
        <time>2026-05-26T11:51:13.000Z</time>
      </trkpt>
      <trkpt lat="44.66677" lon="5.05149">
        <ele>677</ele>
        <time>2026-05-26T11:51:14.000Z</time>
      </trkpt>
      <trkpt lat="44.66677" lon="5.05146">
        <ele>677</ele>
        <time>2026-05-26T11:51:15.000Z</time>
      </trkpt>
      <trkpt lat="44.66676" lon="5.05144">
        <ele>676</ele>
        <time>2026-05-26T11:51:16.000Z</time>
      </trkpt>
      <trkpt lat="44.66675" lon="5.05142">
        <ele>675</ele>
        <time>2026-05-26T11:51:17.000Z</time>
      </trkpt>
      <trkpt lat="44.66675" lon="5.05141">
        <ele>676</ele>
        <time>2026-05-26T11:51:18.000Z</time>
      </trkpt>
      <trkpt lat="44.66675" lon="5.0514">
        <ele>677</ele>
        <time>2026-05-26T11:51:19.000Z</time>
      </trkpt>
      <trkpt lat="44.66675" lon="5.05138">
        <ele>678</ele>
        <time>2026-05-26T11:51:20.000Z</time>
      </trkpt>
      <trkpt lat="44.66675" lon="5.05136">
        <ele>677</ele>
        <time>2026-05-26T11:51:21.000Z</time>
      </trkpt>
      <trkpt lat="44.66676" lon="5.05134">
        <ele>678</ele>
        <time>2026-05-26T11:51:22.000Z</time>
      </trkpt>
      <trkpt lat="44.66674" lon="5.05132">
        <ele>678</ele>
        <time>2026-05-26T11:51:23.000Z</time>
      </trkpt>
      <trkpt lat="44.66674" lon="5.0513">
        <ele>679</ele>
        <time>2026-05-26T11:51:24.000Z</time>
      </trkpt>
      <trkpt lat="44.66674" lon="5.05129">
        <ele>679</ele>
        <time>2026-05-26T11:51:25.000Z</time>
      </trkpt>
      <trkpt lat="44.66673" lon="5.05127">
        <ele>679</ele>
        <time>2026-05-26T11:51:26.000Z</time>
      </trkpt>
      <trkpt lat="44.66672" lon="5.05126">
        <ele>679</ele>
        <time>2026-05-26T11:51:27.000Z</time>
      </trkpt>
      <trkpt lat="44.66671" lon="5.05124">
        <ele>679</ele>
        <time>2026-05-26T11:51:28.000Z</time>
      </trkpt>
      <trkpt lat="44.66671" lon="5.05122">
        <ele>679</ele>
        <time>2026-05-26T11:51:29.000Z</time>
      </trkpt>
      <trkpt lat="44.66671" lon="5.0512">
        <ele>679</ele>
        <time>2026-05-26T11:51:30.000Z</time>
      </trkpt>
      <trkpt lat="44.6667" lon="5.05118">
        <ele>679</ele>
        <time>2026-05-26T11:51:31.000Z</time>
      </trkpt>
      <trkpt lat="44.6667" lon="5.05117">
        <ele>679</ele>
        <time>2026-05-26T11:51:32.000Z</time>
      </trkpt>
      <trkpt lat="44.6667" lon="5.05115">
        <ele>678</ele>
        <time>2026-05-26T11:51:33.000Z</time>
      </trkpt>
      <trkpt lat="44.66671" lon="5.05111">
        <ele>678</ele>
        <time>2026-05-26T11:51:34.000Z</time>
      </trkpt>
      <trkpt lat="44.66672" lon="5.05109">
        <ele>678</ele>
        <time>2026-05-26T11:51:35.000Z</time>
      </trkpt>
      <trkpt lat="44.66672" lon="5.05106">
        <ele>677</ele>
        <time>2026-05-26T11:51:36.000Z</time>
      </trkpt>
      <trkpt lat="44.66672" lon="5.05105">
        <ele>677</ele>
        <time>2026-05-26T11:51:37.000Z</time>
      </trkpt>
      <trkpt lat="44.66673" lon="5.05103">
        <ele>677</ele>
        <time>2026-05-26T11:51:38.000Z</time>
      </trkpt>
      <trkpt lat="44.66673" lon="5.05101">
        <ele>675</ele>
        <time>2026-05-26T11:51:39.000Z</time>
      </trkpt>
      <trkpt lat="44.66674" lon="5.05099">
        <ele>675</ele>
        <time>2026-05-26T11:51:40.000Z</time>
      </trkpt>
      <trkpt lat="44.66673" lon="5.05098">
        <ele>674</ele>
        <time>2026-05-26T11:51:41.000Z</time>
      </trkpt>
      <trkpt lat="44.66673" lon="5.05096">
        <ele>675</ele>
        <time>2026-05-26T11:51:42.000Z</time>
      </trkpt>
      <trkpt lat="44.66673" lon="5.05094">
        <ele>674</ele>
        <time>2026-05-26T11:51:43.000Z</time>
      </trkpt>
      <trkpt lat="44.66672" lon="5.05092">
        <ele>674</ele>
        <time>2026-05-26T11:51:44.000Z</time>
      </trkpt>
      <trkpt lat="44.66673" lon="5.0509">
        <ele>674</ele>
        <time>2026-05-26T11:51:45.000Z</time>
      </trkpt>
      <trkpt lat="44.66674" lon="5.05088">
        <ele>674</ele>
        <time>2026-05-26T11:51:46.000Z</time>
      </trkpt>
      <trkpt lat="44.66676" lon="5.05086">
        <ele>673</ele>
        <time>2026-05-26T11:51:47.000Z</time>
      </trkpt>
      <trkpt lat="44.66676" lon="5.05086">
        <ele>673</ele>
        <time>2026-05-26T11:51:48.000Z</time>
      </trkpt>
      <trkpt lat="44.66676" lon="5.05086">
        <ele>673</ele>
        <time>2026-05-26T11:51:49.000Z</time>
      </trkpt>
      <trkpt lat="44.66676" lon="5.05086">
        <ele>673</ele>
        <time>2026-05-26T11:51:50.000Z</time>
      </trkpt>
      <trkpt lat="44.66676" lon="5.05086">
        <ele>673</ele>
        <time>2026-05-26T11:51:51.000Z</time>
      </trkpt>
      <trkpt lat="44.66676" lon="5.05086">
        <ele>673</ele>
        <time>2026-05-26T11:51:52.000Z</time>
      </trkpt>
      <trkpt lat="44.66675" lon="5.05084">
        <ele>670</ele>
        <time>2026-05-26T11:51:53.000Z</time>
      </trkpt>
      <trkpt lat="44.66674" lon="5.05082">
        <ele>670</ele>
        <time>2026-05-26T11:51:54.000Z</time>
      </trkpt>
      <trkpt lat="44.66673" lon="5.05081">
        <ele>670</ele>
        <time>2026-05-26T11:51:55.000Z</time>
      </trkpt>
      <trkpt lat="44.66672" lon="5.0508">
        <ele>671</ele>
        <time>2026-05-26T11:51:56.000Z</time>
      </trkpt>
      <trkpt lat="44.66671" lon="5.05078">
        <ele>671</ele>
        <time>2026-05-26T11:51:57.000Z</time>
      </trkpt>
      <trkpt lat="44.66671" lon="5.05077">
        <ele>670</ele>
        <time>2026-05-26T11:51:58.000Z</time>
      </trkpt>
      <trkpt lat="44.6667" lon="5.05075">
        <ele>670</ele>
        <time>2026-05-26T11:51:59.000Z</time>
      </trkpt>
      <trkpt lat="44.6667" lon="5.05074">
        <ele>669</ele>
        <time>2026-05-26T11:52:00.000Z</time>
      </trkpt>
      <trkpt lat="44.6667" lon="5.05073">
        <ele>670</ele>
        <time>2026-05-26T11:52:01.000Z</time>
      </trkpt>
      <trkpt lat="44.6667" lon="5.05072">
        <ele>669</ele>
        <time>2026-05-26T11:52:02.000Z</time>
      </trkpt>
      <trkpt lat="44.66669" lon="5.0507">
        <ele>669</ele>
        <time>2026-05-26T11:52:03.000Z</time>
      </trkpt>
      <trkpt lat="44.66669" lon="5.05068">
        <ele>669</ele>
        <time>2026-05-26T11:52:04.000Z</time>
      </trkpt>
      <trkpt lat="44.66669" lon="5.05066">
        <ele>670</ele>
        <time>2026-05-26T11:52:05.000Z</time>
      </trkpt>
      <trkpt lat="44.66669" lon="5.05064">
        <ele>670</ele>
        <time>2026-05-26T11:52:06.000Z</time>
      </trkpt>
      <trkpt lat="44.6667" lon="5.05064">
        <ele>669</ele>
        <time>2026-05-26T11:52:07.000Z</time>
      </trkpt>
      <trkpt lat="44.6667" lon="5.05062">
        <ele>669</ele>
        <time>2026-05-26T11:52:08.000Z</time>
      </trkpt>
      <trkpt lat="44.66671" lon="5.0506">
        <ele>669</ele>
        <time>2026-05-26T11:52:09.000Z</time>
      </trkpt>
      <trkpt lat="44.6667" lon="5.05059">
        <ele>669</ele>
        <time>2026-05-26T11:52:10.000Z</time>
      </trkpt>
      <trkpt lat="44.66669" lon="5.05058">
        <ele>668</ele>
        <time>2026-05-26T11:52:11.000Z</time>
      </trkpt>
      <trkpt lat="44.66669" lon="5.05056">
        <ele>668</ele>
        <time>2026-05-26T11:52:12.000Z</time>
      </trkpt>
      <trkpt lat="44.66669" lon="5.05054">
        <ele>668</ele>
        <time>2026-05-26T11:52:13.000Z</time>
      </trkpt>
      <trkpt lat="44.66669" lon="5.05052">
        <ele>669</ele>
        <time>2026-05-26T11:52:14.000Z</time>
      </trkpt>
      <trkpt lat="44.66669" lon="5.05051">
        <ele>669</ele>
        <time>2026-05-26T11:52:15.000Z</time>
      </trkpt>
      <trkpt lat="44.66669" lon="5.05049">
        <ele>670</ele>
        <time>2026-05-26T11:52:16.000Z</time>
      </trkpt>
      <trkpt lat="44.66669" lon="5.05047">
        <ele>670</ele>
        <time>2026-05-26T11:52:17.000Z</time>
      </trkpt>
      <trkpt lat="44.66668" lon="5.05045">
        <ele>670</ele>
        <time>2026-05-26T11:52:18.000Z</time>
      </trkpt>
      <trkpt lat="44.66667" lon="5.05043">
        <ele>670</ele>
        <time>2026-05-26T11:52:19.000Z</time>
      </trkpt>
      <trkpt lat="44.66667" lon="5.05042">
        <ele>670</ele>
        <time>2026-05-26T11:52:20.000Z</time>
      </trkpt>
      <trkpt lat="44.66666" lon="5.0504">
        <ele>670</ele>
        <time>2026-05-26T11:52:21.000Z</time>
      </trkpt>
      <trkpt lat="44.66666" lon="5.05038">
        <ele>670</ele>
        <time>2026-05-26T11:52:22.000Z</time>
      </trkpt>
      <trkpt lat="44.66664" lon="5.05037">
        <ele>670</ele>
        <time>2026-05-26T11:52:23.000Z</time>
      </trkpt>
      <trkpt lat="44.66663" lon="5.05036">
        <ele>670</ele>
        <time>2026-05-26T11:52:24.000Z</time>
      </trkpt>
      <trkpt lat="44.66663" lon="5.05035">
        <ele>669</ele>
        <time>2026-05-26T11:52:25.000Z</time>
      </trkpt>
      <trkpt lat="44.66661" lon="5.05033">
        <ele>669</ele>
        <time>2026-05-26T11:52:26.000Z</time>
      </trkpt>
      <trkpt lat="44.6666" lon="5.05031">
        <ele>669</ele>
        <time>2026-05-26T11:52:27.000Z</time>
      </trkpt>
      <trkpt lat="44.66659" lon="5.05029">
        <ele>668</ele>
        <time>2026-05-26T11:52:28.000Z</time>
      </trkpt>
      <trkpt lat="44.66659" lon="5.05028">
        <ele>668</ele>
        <time>2026-05-26T11:52:29.000Z</time>
      </trkpt>
      <trkpt lat="44.66659" lon="5.05027">
        <ele>668</ele>
        <time>2026-05-26T11:52:30.000Z</time>
      </trkpt>
      <trkpt lat="44.66659" lon="5.05025">
        <ele>667</ele>
        <time>2026-05-26T11:52:31.000Z</time>
      </trkpt>
      <trkpt lat="44.66659" lon="5.05023">
        <ele>667</ele>
        <time>2026-05-26T11:52:32.000Z</time>
      </trkpt>
      <trkpt lat="44.66658" lon="5.05021">
        <ele>668</ele>
        <time>2026-05-26T11:52:33.000Z</time>
      </trkpt>
      <trkpt lat="44.66658" lon="5.05019">
        <ele>668</ele>
        <time>2026-05-26T11:52:34.000Z</time>
      </trkpt>
      <trkpt lat="44.66658" lon="5.05018">
        <ele>668</ele>
        <time>2026-05-26T11:52:35.000Z</time>
      </trkpt>
      <trkpt lat="44.66657" lon="5.05017">
        <ele>668</ele>
        <time>2026-05-26T11:52:36.000Z</time>
      </trkpt>
      <trkpt lat="44.66657" lon="5.05015">
        <ele>668</ele>
        <time>2026-05-26T11:52:37.000Z</time>
      </trkpt>
      <trkpt lat="44.66657" lon="5.05014">
        <ele>667</ele>
        <time>2026-05-26T11:52:38.000Z</time>
      </trkpt>
      <trkpt lat="44.66657" lon="5.05012">
        <ele>667</ele>
        <time>2026-05-26T11:52:39.000Z</time>
      </trkpt>
      <trkpt lat="44.66657" lon="5.0501">
        <ele>668</ele>
        <time>2026-05-26T11:52:40.000Z</time>
      </trkpt>
      <trkpt lat="44.66657" lon="5.05009">
        <ele>668</ele>
        <time>2026-05-26T11:52:41.000Z</time>
      </trkpt>
      <trkpt lat="44.66657" lon="5.05008">
        <ele>668</ele>
        <time>2026-05-26T11:52:42.000Z</time>
      </trkpt>
      <trkpt lat="44.66657" lon="5.05006">
        <ele>667</ele>
        <time>2026-05-26T11:52:43.000Z</time>
      </trkpt>
      <trkpt lat="44.66656" lon="5.05004">
        <ele>667</ele>
        <time>2026-05-26T11:52:44.000Z</time>
      </trkpt>
      <trkpt lat="44.66656" lon="5.05003">
        <ele>667</ele>
        <time>2026-05-26T11:52:45.000Z</time>
      </trkpt>
      <trkpt lat="44.66656" lon="5.05001">
        <ele>667</ele>
        <time>2026-05-26T11:52:46.000Z</time>
      </trkpt>
      <trkpt lat="44.66656" lon="5.05">
        <ele>666</ele>
        <time>2026-05-26T11:52:47.000Z</time>
      </trkpt>
      <trkpt lat="44.66656" lon="5.04999">
        <ele>666</ele>
        <time>2026-05-26T11:52:48.000Z</time>
      </trkpt>
      <trkpt lat="44.66656" lon="5.04998">
        <ele>666</ele>
        <time>2026-05-26T11:52:49.000Z</time>
      </trkpt>
      <trkpt lat="44.66656" lon="5.04997">
        <ele>666</ele>
        <time>2026-05-26T11:52:50.000Z</time>
      </trkpt>
      <trkpt lat="44.66656" lon="5.04997">
        <ele>666</ele>
        <time>2026-05-26T11:52:51.000Z</time>
      </trkpt>
      <trkpt lat="44.66656" lon="5.04996">
        <ele>666</ele>
        <time>2026-05-26T11:52:52.000Z</time>
      </trkpt>
      <trkpt lat="44.66655" lon="5.04995">
        <ele>666</ele>
        <time>2026-05-26T11:52:53.000Z</time>
      </trkpt>
      <trkpt lat="44.66655" lon="5.04993">
        <ele>666</ele>
        <time>2026-05-26T11:52:54.000Z</time>
      </trkpt>
      <trkpt lat="44.66655" lon="5.04992">
        <ele>665</ele>
        <time>2026-05-26T11:52:55.000Z</time>
      </trkpt>
      <trkpt lat="44.66654" lon="5.0499">
        <ele>665</ele>
        <time>2026-05-26T11:52:56.000Z</time>
      </trkpt>
      <trkpt lat="44.66654" lon="5.04989">
        <ele>664</ele>
        <time>2026-05-26T11:52:57.000Z</time>
      </trkpt>
      <trkpt lat="44.66654" lon="5.04987">
        <ele>664</ele>
        <time>2026-05-26T11:52:58.000Z</time>
      </trkpt>
      <trkpt lat="44.66654" lon="5.04986">
        <ele>665</ele>
        <time>2026-05-26T11:52:59.000Z</time>
      </trkpt>
      <trkpt lat="44.66654" lon="5.04985">
        <ele>665</ele>
        <time>2026-05-26T11:53:00.000Z</time>
      </trkpt>
      <trkpt lat="44.66654" lon="5.04983">
        <ele>665</ele>
        <time>2026-05-26T11:53:01.000Z</time>
      </trkpt>
      <trkpt lat="44.66653" lon="5.04981">
        <ele>666</ele>
        <time>2026-05-26T11:53:02.000Z</time>
      </trkpt>
      <trkpt lat="44.66653" lon="5.04979">
        <ele>667</ele>
        <time>2026-05-26T11:53:03.000Z</time>
      </trkpt>
      <trkpt lat="44.66653" lon="5.04978">
        <ele>669</ele>
        <time>2026-05-26T11:53:04.000Z</time>
      </trkpt>
      <trkpt lat="44.66653" lon="5.04977">
        <ele>669</ele>
        <time>2026-05-26T11:53:05.000Z</time>
      </trkpt>
      <trkpt lat="44.66653" lon="5.04975">
        <ele>670</ele>
        <time>2026-05-26T11:53:06.000Z</time>
      </trkpt>
      <trkpt lat="44.66651" lon="5.04974">
        <ele>670</ele>
        <time>2026-05-26T11:53:07.000Z</time>
      </trkpt>
      <trkpt lat="44.6665" lon="5.04972">
        <ele>671</ele>
        <time>2026-05-26T11:53:08.000Z</time>
      </trkpt>
      <trkpt lat="44.66649" lon="5.0497">
        <ele>671</ele>
        <time>2026-05-26T11:53:09.000Z</time>
      </trkpt>
      <trkpt lat="44.66649" lon="5.0497">
        <ele>671</ele>
        <time>2026-05-26T11:53:10.000Z</time>
      </trkpt>
      <trkpt lat="44.66649" lon="5.04969">
        <ele>671</ele>
        <time>2026-05-26T11:53:11.000Z</time>
      </trkpt>
      <trkpt lat="44.66648" lon="5.04967">
        <ele>671</ele>
        <time>2026-05-26T11:53:12.000Z</time>
      </trkpt>
      <trkpt lat="44.66648" lon="5.04966">
        <ele>671</ele>
        <time>2026-05-26T11:53:13.000Z</time>
      </trkpt>
      <trkpt lat="44.66648" lon="5.04964">
        <ele>671</ele>
        <time>2026-05-26T11:53:14.000Z</time>
      </trkpt>
      <trkpt lat="44.66647" lon="5.04962">
        <ele>671</ele>
        <time>2026-05-26T11:53:15.000Z</time>
      </trkpt>
      <trkpt lat="44.66647" lon="5.0496">
        <ele>671</ele>
        <time>2026-05-26T11:53:16.000Z</time>
      </trkpt>
      <trkpt lat="44.66647" lon="5.04959">
        <ele>670</ele>
        <time>2026-05-26T11:53:17.000Z</time>
      </trkpt>
      <trkpt lat="44.66647" lon="5.04959">
        <ele>670</ele>
        <time>2026-05-26T11:53:18.000Z</time>
      </trkpt>
      <trkpt lat="44.66647" lon="5.04959">
        <ele>670</ele>
        <time>2026-05-26T11:53:19.000Z</time>
      </trkpt>
      <trkpt lat="44.66647" lon="5.04959">
        <ele>670</ele>
        <time>2026-05-26T11:53:20.000Z</time>
      </trkpt>
      <trkpt lat="44.66647" lon="5.04959">
        <ele>670</ele>
        <time>2026-05-26T11:53:21.000Z</time>
      </trkpt>
      <trkpt lat="44.66647" lon="5.04956">
        <ele>671</ele>
        <time>2026-05-26T11:53:22.000Z</time>
      </trkpt>
      <trkpt lat="44.66646" lon="5.04954">
        <ele>671</ele>
        <time>2026-05-26T11:53:23.000Z</time>
      </trkpt>
      <trkpt lat="44.66646" lon="5.04953">
        <ele>670</ele>
        <time>2026-05-26T11:53:24.000Z</time>
      </trkpt>
      <trkpt lat="44.66647" lon="5.0495">
        <ele>671</ele>
        <time>2026-05-26T11:53:25.000Z</time>
      </trkpt>
      <trkpt lat="44.66647" lon="5.04948">
        <ele>671</ele>
        <time>2026-05-26T11:53:26.000Z</time>
      </trkpt>
      <trkpt lat="44.66647" lon="5.04947">
        <ele>670</ele>
        <time>2026-05-26T11:53:27.000Z</time>
      </trkpt>
      <trkpt lat="44.66647" lon="5.04946">
        <ele>671</ele>
        <time>2026-05-26T11:53:28.000Z</time>
      </trkpt>
      <trkpt lat="44.66647" lon="5.04944">
        <ele>671</ele>
        <time>2026-05-26T11:53:29.000Z</time>
      </trkpt>
      <trkpt lat="44.66647" lon="5.04943">
        <ele>671</ele>
        <time>2026-05-26T11:53:30.000Z</time>
      </trkpt>
      <trkpt lat="44.66647" lon="5.04941">
        <ele>671</ele>
        <time>2026-05-26T11:53:31.000Z</time>
      </trkpt>
      <trkpt lat="44.66647" lon="5.0494">
        <ele>671</ele>
        <time>2026-05-26T11:53:32.000Z</time>
      </trkpt>
      <trkpt lat="44.66647" lon="5.04939">
        <ele>670</ele>
        <time>2026-05-26T11:53:33.000Z</time>
      </trkpt>
      <trkpt lat="44.66647" lon="5.04937">
        <ele>670</ele>
        <time>2026-05-26T11:53:34.000Z</time>
      </trkpt>
      <trkpt lat="44.66647" lon="5.04935">
        <ele>670</ele>
        <time>2026-05-26T11:53:35.000Z</time>
      </trkpt>
      <trkpt lat="44.66646" lon="5.04934">
        <ele>671</ele>
        <time>2026-05-26T11:53:36.000Z</time>
      </trkpt>
      <trkpt lat="44.66644" lon="5.04932">
        <ele>670</ele>
        <time>2026-05-26T11:53:37.000Z</time>
      </trkpt>
      <trkpt lat="44.66644" lon="5.04932">
        <ele>670</ele>
        <time>2026-05-26T11:53:38.000Z</time>
      </trkpt>
      <trkpt lat="44.66645" lon="5.04931">
        <ele>669</ele>
        <time>2026-05-26T11:53:39.000Z</time>
      </trkpt>
      <trkpt lat="44.66645" lon="5.04931">
        <ele>669</ele>
        <time>2026-05-26T11:53:40.000Z</time>
      </trkpt>
      <trkpt lat="44.66645" lon="5.04931">
        <ele>669</ele>
        <time>2026-05-26T11:53:41.000Z</time>
      </trkpt>
      <trkpt lat="44.66645" lon="5.04931">
        <ele>669</ele>
        <time>2026-05-26T11:53:42.000Z</time>
      </trkpt>
      <trkpt lat="44.66643" lon="5.04931">
        <ele>668</ele>
        <time>2026-05-26T11:53:43.000Z</time>
      </trkpt>
      <trkpt lat="44.66641" lon="5.04931">
        <ele>668</ele>
        <time>2026-05-26T11:53:44.000Z</time>
      </trkpt>
      <trkpt lat="44.6664" lon="5.04929">
        <ele>668</ele>
        <time>2026-05-26T11:53:45.000Z</time>
      </trkpt>
      <trkpt lat="44.66639" lon="5.04927">
        <ele>668</ele>
        <time>2026-05-26T11:53:46.000Z</time>
      </trkpt>
      <trkpt lat="44.66639" lon="5.04925">
        <ele>668</ele>
        <time>2026-05-26T11:53:47.000Z</time>
      </trkpt>
      <trkpt lat="44.66638" lon="5.04924">
        <ele>667</ele>
        <time>2026-05-26T11:53:48.000Z</time>
      </trkpt>
      <trkpt lat="44.66638" lon="5.04923">
        <ele>667</ele>
        <time>2026-05-26T11:53:49.000Z</time>
      </trkpt>
      <trkpt lat="44.66635" lon="5.04922">
        <ele>668</ele>
        <time>2026-05-26T11:53:50.000Z</time>
      </trkpt>
      <trkpt lat="44.66634" lon="5.04921">
        <ele>668</ele>
        <time>2026-05-26T11:53:51.000Z</time>
      </trkpt>
      <trkpt lat="44.66633" lon="5.0492">
        <ele>668</ele>
        <time>2026-05-26T11:53:52.000Z</time>
      </trkpt>
      <trkpt lat="44.66633" lon="5.04919">
        <ele>667</ele>
        <time>2026-05-26T11:53:53.000Z</time>
      </trkpt>
      <trkpt lat="44.66631" lon="5.04917">
        <ele>667</ele>
        <time>2026-05-26T11:53:54.000Z</time>
      </trkpt>
      <trkpt lat="44.6663" lon="5.04916">
        <ele>666</ele>
        <time>2026-05-26T11:53:55.000Z</time>
      </trkpt>
      <trkpt lat="44.66628" lon="5.04915">
        <ele>666</ele>
        <time>2026-05-26T11:53:56.000Z</time>
      </trkpt>
      <trkpt lat="44.66627" lon="5.04914">
        <ele>666</ele>
        <time>2026-05-26T11:53:57.000Z</time>
      </trkpt>
      <trkpt lat="44.66627" lon="5.04913">
        <ele>667</ele>
        <time>2026-05-26T11:53:58.000Z</time>
      </trkpt>
      <trkpt lat="44.66627" lon="5.04911">
        <ele>667</ele>
        <time>2026-05-26T11:53:59.000Z</time>
      </trkpt>
      <trkpt lat="44.66626" lon="5.04909">
        <ele>668</ele>
        <time>2026-05-26T11:54:00.000Z</time>
      </trkpt>
      <trkpt lat="44.66626" lon="5.04907">
        <ele>669</ele>
        <time>2026-05-26T11:54:01.000Z</time>
      </trkpt>
      <trkpt lat="44.66625" lon="5.04906">
        <ele>669</ele>
        <time>2026-05-26T11:54:02.000Z</time>
      </trkpt>
      <trkpt lat="44.66625" lon="5.04903">
        <ele>669</ele>
        <time>2026-05-26T11:54:03.000Z</time>
      </trkpt>
      <trkpt lat="44.66624" lon="5.04902">
        <ele>669</ele>
        <time>2026-05-26T11:54:04.000Z</time>
      </trkpt>
      <trkpt lat="44.66625" lon="5.049">
        <ele>671</ele>
        <time>2026-05-26T11:54:05.000Z</time>
      </trkpt>
      <trkpt lat="44.66625" lon="5.04899">
        <ele>671</ele>
        <time>2026-05-26T11:54:06.000Z</time>
      </trkpt>
      <trkpt lat="44.66625" lon="5.04897">
        <ele>671</ele>
        <time>2026-05-26T11:54:07.000Z</time>
      </trkpt>
      <trkpt lat="44.66625" lon="5.04895">
        <ele>672</ele>
        <time>2026-05-26T11:54:08.000Z</time>
      </trkpt>
      <trkpt lat="44.66626" lon="5.04893">
        <ele>672</ele>
        <time>2026-05-26T11:54:09.000Z</time>
      </trkpt>
      <trkpt lat="44.66625" lon="5.04892">
        <ele>672</ele>
        <time>2026-05-26T11:54:10.000Z</time>
      </trkpt>
      <trkpt lat="44.66626" lon="5.04891">
        <ele>673</ele>
        <time>2026-05-26T11:54:11.000Z</time>
      </trkpt>
      <trkpt lat="44.66626" lon="5.04891">
        <ele>673</ele>
        <time>2026-05-26T11:54:12.000Z</time>
      </trkpt>
      <trkpt lat="44.66627" lon="5.04889">
        <ele>673</ele>
        <time>2026-05-26T11:54:13.000Z</time>
      </trkpt>
      <trkpt lat="44.66628" lon="5.04886">
        <ele>674</ele>
        <time>2026-05-26T11:54:14.000Z</time>
      </trkpt>
      <trkpt lat="44.66628" lon="5.04884">
        <ele>674</ele>
        <time>2026-05-26T11:54:15.000Z</time>
      </trkpt>
      <trkpt lat="44.66629" lon="5.04882">
        <ele>674</ele>
        <time>2026-05-26T11:54:16.000Z</time>
      </trkpt>
      <trkpt lat="44.66629" lon="5.0488">
        <ele>673</ele>
        <time>2026-05-26T11:54:17.000Z</time>
      </trkpt>
      <trkpt lat="44.66628" lon="5.04878">
        <ele>673</ele>
        <time>2026-05-26T11:54:18.000Z</time>
      </trkpt>
      <trkpt lat="44.66629" lon="5.04876">
        <ele>673</ele>
        <time>2026-05-26T11:54:19.000Z</time>
      </trkpt>
      <trkpt lat="44.66628" lon="5.04875">
        <ele>674</ele>
        <time>2026-05-26T11:54:20.000Z</time>
      </trkpt>
      <trkpt lat="44.66629" lon="5.04873">
        <ele>673</ele>
        <time>2026-05-26T11:54:21.000Z</time>
      </trkpt>
      <trkpt lat="44.66629" lon="5.04871">
        <ele>672</ele>
        <time>2026-05-26T11:54:22.000Z</time>
      </trkpt>
      <trkpt lat="44.66629" lon="5.0487">
        <ele>672</ele>
        <time>2026-05-26T11:54:23.000Z</time>
      </trkpt>
      <trkpt lat="44.66629" lon="5.04868">
        <ele>673</ele>
        <time>2026-05-26T11:54:24.000Z</time>
      </trkpt>
      <trkpt lat="44.6663" lon="5.04867">
        <ele>673</ele>
        <time>2026-05-26T11:54:25.000Z</time>
      </trkpt>
      <trkpt lat="44.66631" lon="5.04865">
        <ele>673</ele>
        <time>2026-05-26T11:54:26.000Z</time>
      </trkpt>
      <trkpt lat="44.66631" lon="5.04865">
        <ele>673</ele>
        <time>2026-05-26T11:54:27.000Z</time>
      </trkpt>
      <trkpt lat="44.66632" lon="5.04861">
        <ele>674</ele>
        <time>2026-05-26T11:54:28.000Z</time>
      </trkpt>
      <trkpt lat="44.66632" lon="5.04858">
        <ele>674</ele>
        <time>2026-05-26T11:54:29.000Z</time>
      </trkpt>
      <trkpt lat="44.66631" lon="5.04856">
        <ele>674</ele>
        <time>2026-05-26T11:54:30.000Z</time>
      </trkpt>
      <trkpt lat="44.66631" lon="5.04854">
        <ele>674</ele>
        <time>2026-05-26T11:54:31.000Z</time>
      </trkpt>
      <trkpt lat="44.66631" lon="5.04851">
        <ele>675</ele>
        <time>2026-05-26T11:54:32.000Z</time>
      </trkpt>
      <trkpt lat="44.66631" lon="5.0485">
        <ele>676</ele>
        <time>2026-05-26T11:54:33.000Z</time>
      </trkpt>
      <trkpt lat="44.66631" lon="5.04849">
        <ele>676</ele>
        <time>2026-05-26T11:54:34.000Z</time>
      </trkpt>
      <trkpt lat="44.66631" lon="5.04848">
        <ele>676</ele>
        <time>2026-05-26T11:54:35.000Z</time>
      </trkpt>
      <trkpt lat="44.66631" lon="5.04847">
        <ele>675</ele>
        <time>2026-05-26T11:54:36.000Z</time>
      </trkpt>
      <trkpt lat="44.66632" lon="5.04845">
        <ele>675</ele>
        <time>2026-05-26T11:54:37.000Z</time>
      </trkpt>
      <trkpt lat="44.66632" lon="5.04844">
        <ele>674</ele>
        <time>2026-05-26T11:54:38.000Z</time>
      </trkpt>
      <trkpt lat="44.66632" lon="5.04842">
        <ele>674</ele>
        <time>2026-05-26T11:54:39.000Z</time>
      </trkpt>
      <trkpt lat="44.66632" lon="5.04842">
        <ele>674</ele>
        <time>2026-05-26T11:54:40.000Z</time>
      </trkpt>
      <trkpt lat="44.66632" lon="5.04842">
        <ele>674</ele>
        <time>2026-05-26T11:54:41.000Z</time>
      </trkpt>
      <trkpt lat="44.66633" lon="5.04836">
        <ele>673</ele>
        <time>2026-05-26T11:54:42.000Z</time>
      </trkpt>
      <trkpt lat="44.66633" lon="5.04833">
        <ele>674</ele>
        <time>2026-05-26T11:54:43.000Z</time>
      </trkpt>
      <trkpt lat="44.66633" lon="5.04831">
        <ele>674</ele>
        <time>2026-05-26T11:54:44.000Z</time>
      </trkpt>
      <trkpt lat="44.66633" lon="5.04828">
        <ele>674</ele>
        <time>2026-05-26T11:54:45.000Z</time>
      </trkpt>
      <trkpt lat="44.66633" lon="5.04826">
        <ele>673</ele>
        <time>2026-05-26T11:54:46.000Z</time>
      </trkpt>
      <trkpt lat="44.66633" lon="5.04824">
        <ele>674</ele>
        <time>2026-05-26T11:54:47.000Z</time>
      </trkpt>
      <trkpt lat="44.66633" lon="5.04822">
        <ele>674</ele>
        <time>2026-05-26T11:54:48.000Z</time>
      </trkpt>
      <trkpt lat="44.66633" lon="5.04821">
        <ele>674</ele>
        <time>2026-05-26T11:54:49.000Z</time>
      </trkpt>
      <trkpt lat="44.66634" lon="5.04819">
        <ele>674</ele>
        <time>2026-05-26T11:54:50.000Z</time>
      </trkpt>
      <trkpt lat="44.66635" lon="5.04817">
        <ele>674</ele>
        <time>2026-05-26T11:54:51.000Z</time>
      </trkpt>
      <trkpt lat="44.66636" lon="5.04814">
        <ele>676</ele>
        <time>2026-05-26T11:54:52.000Z</time>
      </trkpt>
      <trkpt lat="44.66636" lon="5.04813">
        <ele>675</ele>
        <time>2026-05-26T11:54:53.000Z</time>
      </trkpt>
      <trkpt lat="44.66636" lon="5.04811">
        <ele>675</ele>
        <time>2026-05-26T11:54:54.000Z</time>
      </trkpt>
      <trkpt lat="44.66637" lon="5.04809">
        <ele>675</ele>
        <time>2026-05-26T11:54:55.000Z</time>
      </trkpt>
      <trkpt lat="44.66638" lon="5.04807">
        <ele>673</ele>
        <time>2026-05-26T11:54:56.000Z</time>
      </trkpt>
      <trkpt lat="44.66638" lon="5.04806">
        <ele>672</ele>
        <time>2026-05-26T11:54:57.000Z</time>
      </trkpt>
      <trkpt lat="44.66638" lon="5.04803">
        <ele>674</ele>
        <time>2026-05-26T11:54:58.000Z</time>
      </trkpt>
      <trkpt lat="44.66638" lon="5.04802">
        <ele>673</ele>
        <time>2026-05-26T11:54:59.000Z</time>
      </trkpt>
      <trkpt lat="44.66639" lon="5.04801">
        <ele>674</ele>
        <time>2026-05-26T11:55:00.000Z</time>
      </trkpt>
      <trkpt lat="44.66639" lon="5.04799">
        <ele>674</ele>
        <time>2026-05-26T11:55:01.000Z</time>
      </trkpt>
      <trkpt lat="44.66639" lon="5.04796">
        <ele>674</ele>
        <time>2026-05-26T11:55:02.000Z</time>
      </trkpt>
      <trkpt lat="44.66639" lon="5.04794">
        <ele>672</ele>
        <time>2026-05-26T11:55:03.000Z</time>
      </trkpt>
      <trkpt lat="44.66639" lon="5.04792">
        <ele>671</ele>
        <time>2026-05-26T11:55:04.000Z</time>
      </trkpt>
      <trkpt lat="44.66639" lon="5.04789">
        <ele>671</ele>
        <time>2026-05-26T11:55:05.000Z</time>
      </trkpt>
      <trkpt lat="44.66638" lon="5.04787">
        <ele>671</ele>
        <time>2026-05-26T11:55:06.000Z</time>
      </trkpt>
      <trkpt lat="44.66638" lon="5.04784">
        <ele>670</ele>
        <time>2026-05-26T11:55:07.000Z</time>
      </trkpt>
      <trkpt lat="44.66638" lon="5.04782">
        <ele>670</ele>
        <time>2026-05-26T11:55:08.000Z</time>
      </trkpt>
      <trkpt lat="44.66639" lon="5.0478">
        <ele>671</ele>
        <time>2026-05-26T11:55:09.000Z</time>
      </trkpt>
      <trkpt lat="44.66639" lon="5.04778">
        <ele>671</ele>
        <time>2026-05-26T11:55:10.000Z</time>
      </trkpt>
      <trkpt lat="44.66639" lon="5.04776">
        <ele>672</ele>
        <time>2026-05-26T11:55:11.000Z</time>
      </trkpt>
      <trkpt lat="44.66639" lon="5.04774">
        <ele>672</ele>
        <time>2026-05-26T11:55:12.000Z</time>
      </trkpt>
      <trkpt lat="44.66639" lon="5.04773">
        <ele>671</ele>
        <time>2026-05-26T11:55:13.000Z</time>
      </trkpt>
      <trkpt lat="44.6664" lon="5.04772">
        <ele>671</ele>
        <time>2026-05-26T11:55:14.000Z</time>
      </trkpt>
      <trkpt lat="44.6664" lon="5.0477">
        <ele>671</ele>
        <time>2026-05-26T11:55:15.000Z</time>
      </trkpt>
      <trkpt lat="44.6664" lon="5.04769">
        <ele>671</ele>
        <time>2026-05-26T11:55:16.000Z</time>
      </trkpt>
      <trkpt lat="44.6664" lon="5.04767">
        <ele>670</ele>
        <time>2026-05-26T11:55:17.000Z</time>
      </trkpt>
      <trkpt lat="44.6664" lon="5.04765">
        <ele>670</ele>
        <time>2026-05-26T11:55:18.000Z</time>
      </trkpt>
      <trkpt lat="44.66641" lon="5.04764">
        <ele>670</ele>
        <time>2026-05-26T11:55:19.000Z</time>
      </trkpt>
      <trkpt lat="44.66642" lon="5.04762">
        <ele>669</ele>
        <time>2026-05-26T11:55:20.000Z</time>
      </trkpt>
      <trkpt lat="44.66642" lon="5.04761">
        <ele>670</ele>
        <time>2026-05-26T11:55:21.000Z</time>
      </trkpt>
      <trkpt lat="44.66642" lon="5.04759">
        <ele>670</ele>
        <time>2026-05-26T11:55:22.000Z</time>
      </trkpt>
      <trkpt lat="44.66641" lon="5.04757">
        <ele>670</ele>
        <time>2026-05-26T11:55:23.000Z</time>
      </trkpt>
      <trkpt lat="44.6664" lon="5.04755">
        <ele>669</ele>
        <time>2026-05-26T11:55:24.000Z</time>
      </trkpt>
      <trkpt lat="44.6664" lon="5.04753">
        <ele>668</ele>
        <time>2026-05-26T11:55:25.000Z</time>
      </trkpt>
      <trkpt lat="44.66639" lon="5.04751">
        <ele>669</ele>
        <time>2026-05-26T11:55:26.000Z</time>
      </trkpt>
      <trkpt lat="44.66638" lon="5.0475">
        <ele>669</ele>
        <time>2026-05-26T11:55:27.000Z</time>
      </trkpt>
      <trkpt lat="44.66637" lon="5.04748">
        <ele>668</ele>
        <time>2026-05-26T11:55:28.000Z</time>
      </trkpt>
      <trkpt lat="44.66637" lon="5.04747">
        <ele>667</ele>
        <time>2026-05-26T11:55:29.000Z</time>
      </trkpt>
      <trkpt lat="44.66638" lon="5.04746">
        <ele>666</ele>
        <time>2026-05-26T11:55:30.000Z</time>
      </trkpt>
      <trkpt lat="44.66638" lon="5.04744">
        <ele>666</ele>
        <time>2026-05-26T11:55:31.000Z</time>
      </trkpt>
      <trkpt lat="44.66636" lon="5.04743">
        <ele>665</ele>
        <time>2026-05-26T11:55:32.000Z</time>
      </trkpt>
      <trkpt lat="44.66635" lon="5.04741">
        <ele>665</ele>
        <time>2026-05-26T11:55:33.000Z</time>
      </trkpt>
      <trkpt lat="44.66634" lon="5.04739">
        <ele>665</ele>
        <time>2026-05-26T11:55:34.000Z</time>
      </trkpt>
      <trkpt lat="44.66633" lon="5.04737">
        <ele>664</ele>
        <time>2026-05-26T11:55:35.000Z</time>
      </trkpt>
      <trkpt lat="44.66633" lon="5.04735">
        <ele>664</ele>
        <time>2026-05-26T11:55:36.000Z</time>
      </trkpt>
      <trkpt lat="44.66633" lon="5.04733">
        <ele>663</ele>
        <time>2026-05-26T11:55:37.000Z</time>
      </trkpt>
      <trkpt lat="44.66633" lon="5.04731">
        <ele>663</ele>
        <time>2026-05-26T11:55:38.000Z</time>
      </trkpt>
      <trkpt lat="44.66633" lon="5.04729">
        <ele>662</ele>
        <time>2026-05-26T11:55:39.000Z</time>
      </trkpt>
      <trkpt lat="44.66632" lon="5.04728">
        <ele>664</ele>
        <time>2026-05-26T11:55:40.000Z</time>
      </trkpt>
      <trkpt lat="44.66632" lon="5.04726">
        <ele>664</ele>
        <time>2026-05-26T11:55:41.000Z</time>
      </trkpt>
      <trkpt lat="44.66631" lon="5.04724">
        <ele>663</ele>
        <time>2026-05-26T11:55:42.000Z</time>
      </trkpt>
      <trkpt lat="44.66631" lon="5.04723">
        <ele>663</ele>
        <time>2026-05-26T11:55:43.000Z</time>
      </trkpt>
      <trkpt lat="44.66631" lon="5.04722">
        <ele>663</ele>
        <time>2026-05-26T11:55:44.000Z</time>
      </trkpt>
      <trkpt lat="44.66631" lon="5.0472">
        <ele>663</ele>
        <time>2026-05-26T11:55:45.000Z</time>
      </trkpt>
      <trkpt lat="44.66631" lon="5.04719">
        <ele>664</ele>
        <time>2026-05-26T11:55:46.000Z</time>
      </trkpt>
      <trkpt lat="44.6663" lon="5.04717">
        <ele>664</ele>
        <time>2026-05-26T11:55:47.000Z</time>
      </trkpt>
      <trkpt lat="44.66628" lon="5.04716">
        <ele>664</ele>
        <time>2026-05-26T11:55:48.000Z</time>
      </trkpt>
      <trkpt lat="44.66628" lon="5.04714">
        <ele>663</ele>
        <time>2026-05-26T11:55:49.000Z</time>
      </trkpt>
      <trkpt lat="44.66628" lon="5.04712">
        <ele>664</ele>
        <time>2026-05-26T11:55:50.000Z</time>
      </trkpt>
      <trkpt lat="44.66627" lon="5.0471">
        <ele>664</ele>
        <time>2026-05-26T11:55:51.000Z</time>
      </trkpt>
      <trkpt lat="44.66625" lon="5.04708">
        <ele>664</ele>
        <time>2026-05-26T11:55:52.000Z</time>
      </trkpt>
      <trkpt lat="44.66625" lon="5.04706">
        <ele>663</ele>
        <time>2026-05-26T11:55:53.000Z</time>
      </trkpt>
      <trkpt lat="44.66624" lon="5.04705">
        <ele>664</ele>
        <time>2026-05-26T11:55:54.000Z</time>
      </trkpt>
      <trkpt lat="44.66624" lon="5.04704">
        <ele>663</ele>
        <time>2026-05-26T11:55:55.000Z</time>
      </trkpt>
      <trkpt lat="44.66623" lon="5.04701">
        <ele>663</ele>
        <time>2026-05-26T11:55:56.000Z</time>
      </trkpt>
      <trkpt lat="44.66623" lon="5.04699">
        <ele>664</ele>
        <time>2026-05-26T11:55:57.000Z</time>
      </trkpt>
      <trkpt lat="44.66622" lon="5.04697">
        <ele>664</ele>
        <time>2026-05-26T11:55:58.000Z</time>
      </trkpt>
      <trkpt lat="44.66622" lon="5.04695">
        <ele>664</ele>
        <time>2026-05-26T11:55:59.000Z</time>
      </trkpt>
      <trkpt lat="44.66622" lon="5.04694">
        <ele>663</ele>
        <time>2026-05-26T11:56:00.000Z</time>
      </trkpt>
      <trkpt lat="44.66622" lon="5.04693">
        <ele>663</ele>
        <time>2026-05-26T11:56:01.000Z</time>
      </trkpt>
      <trkpt lat="44.66621" lon="5.04691">
        <ele>663</ele>
        <time>2026-05-26T11:56:02.000Z</time>
      </trkpt>
      <trkpt lat="44.6662" lon="5.0469">
        <ele>664</ele>
        <time>2026-05-26T11:56:03.000Z</time>
      </trkpt>
      <trkpt lat="44.6662" lon="5.04689">
        <ele>664</ele>
        <time>2026-05-26T11:56:04.000Z</time>
      </trkpt>
      <trkpt lat="44.66618" lon="5.04688">
        <ele>664</ele>
        <time>2026-05-26T11:56:05.000Z</time>
      </trkpt>
      <trkpt lat="44.66618" lon="5.04687">
        <ele>664</ele>
        <time>2026-05-26T11:56:06.000Z</time>
      </trkpt>
      <trkpt lat="44.66618" lon="5.04687">
        <ele>664</ele>
        <time>2026-05-26T11:56:07.000Z</time>
      </trkpt>
      <trkpt lat="44.66618" lon="5.04687">
        <ele>664</ele>
        <time>2026-05-26T11:56:08.000Z</time>
      </trkpt>
      <trkpt lat="44.66617" lon="5.04684">
        <ele>665</ele>
        <time>2026-05-26T11:56:09.000Z</time>
      </trkpt>
      <trkpt lat="44.66617" lon="5.04682">
        <ele>665</ele>
        <time>2026-05-26T11:56:10.000Z</time>
      </trkpt>
      <trkpt lat="44.66618" lon="5.04679">
        <ele>665</ele>
        <time>2026-05-26T11:56:11.000Z</time>
      </trkpt>
      <trkpt lat="44.66618" lon="5.04678">
        <ele>667</ele>
        <time>2026-05-26T11:56:12.000Z</time>
      </trkpt>
      <trkpt lat="44.66618" lon="5.04678">
        <ele>667</ele>
        <time>2026-05-26T11:56:13.000Z</time>
      </trkpt>
      <trkpt lat="44.66618" lon="5.04678">
        <ele>667</ele>
        <time>2026-05-26T11:56:14.000Z</time>
      </trkpt>
      <trkpt lat="44.66617" lon="5.04673">
        <ele>667</ele>
        <time>2026-05-26T11:56:15.000Z</time>
      </trkpt>
      <trkpt lat="44.66615" lon="5.04671">
        <ele>668</ele>
        <time>2026-05-26T11:56:16.000Z</time>
      </trkpt>
      <trkpt lat="44.66614" lon="5.04671">
        <ele>668</ele>
        <time>2026-05-26T11:56:17.000Z</time>
      </trkpt>
      <trkpt lat="44.66614" lon="5.04669">
        <ele>667</ele>
        <time>2026-05-26T11:56:18.000Z</time>
      </trkpt>
      <trkpt lat="44.66615" lon="5.04666">
        <ele>667</ele>
        <time>2026-05-26T11:56:19.000Z</time>
      </trkpt>
      <trkpt lat="44.66615" lon="5.04664">
        <ele>667</ele>
        <time>2026-05-26T11:56:20.000Z</time>
      </trkpt>
      <trkpt lat="44.66615" lon="5.04661">
        <ele>666</ele>
        <time>2026-05-26T11:56:21.000Z</time>
      </trkpt>
      <trkpt lat="44.66615" lon="5.04659">
        <ele>668</ele>
        <time>2026-05-26T11:56:22.000Z</time>
      </trkpt>
      <trkpt lat="44.66615" lon="5.04657">
        <ele>667</ele>
        <time>2026-05-26T11:56:23.000Z</time>
      </trkpt>
      <trkpt lat="44.66615" lon="5.04655">
        <ele>668</ele>
        <time>2026-05-26T11:56:24.000Z</time>
      </trkpt>
      <trkpt lat="44.66615" lon="5.04653">
        <ele>668</ele>
        <time>2026-05-26T11:56:25.000Z</time>
      </trkpt>
      <trkpt lat="44.66615" lon="5.04651">
        <ele>668</ele>
        <time>2026-05-26T11:56:26.000Z</time>
      </trkpt>
      <trkpt lat="44.66615" lon="5.0465">
        <ele>668</ele>
        <time>2026-05-26T11:56:27.000Z</time>
      </trkpt>
      <trkpt lat="44.66615" lon="5.04649">
        <ele>667</ele>
        <time>2026-05-26T11:56:28.000Z</time>
      </trkpt>
      <trkpt lat="44.66614" lon="5.04647">
        <ele>667</ele>
        <time>2026-05-26T11:56:29.000Z</time>
      </trkpt>
      <trkpt lat="44.66613" lon="5.04645">
        <ele>667</ele>
        <time>2026-05-26T11:56:30.000Z</time>
      </trkpt>
      <trkpt lat="44.66613" lon="5.04643">
        <ele>668</ele>
        <time>2026-05-26T11:56:31.000Z</time>
      </trkpt>
      <trkpt lat="44.66612" lon="5.04642">
        <ele>668</ele>
        <time>2026-05-26T11:56:32.000Z</time>
      </trkpt>
      <trkpt lat="44.66612" lon="5.04641">
        <ele>668</ele>
        <time>2026-05-26T11:56:33.000Z</time>
      </trkpt>
      <trkpt lat="44.66612" lon="5.0464">
        <ele>669</ele>
        <time>2026-05-26T11:56:34.000Z</time>
      </trkpt>
      <trkpt lat="44.66611" lon="5.04639">
        <ele>669</ele>
        <time>2026-05-26T11:56:35.000Z</time>
      </trkpt>
      <trkpt lat="44.6661" lon="5.04639">
        <ele>669</ele>
        <time>2026-05-26T11:56:36.000Z</time>
      </trkpt>
      <trkpt lat="44.66611" lon="5.04637">
        <ele>669</ele>
        <time>2026-05-26T11:56:37.000Z</time>
      </trkpt>
      <trkpt lat="44.6661" lon="5.04636">
        <ele>669</ele>
        <time>2026-05-26T11:56:38.000Z</time>
      </trkpt>
      <trkpt lat="44.66609" lon="5.04635">
        <ele>668</ele>
        <time>2026-05-26T11:56:39.000Z</time>
      </trkpt>
      <trkpt lat="44.66609" lon="5.04633">
        <ele>667</ele>
        <time>2026-05-26T11:56:40.000Z</time>
      </trkpt>
      <trkpt lat="44.66609" lon="5.04632">
        <ele>668</ele>
        <time>2026-05-26T11:56:41.000Z</time>
      </trkpt>
      <trkpt lat="44.66607" lon="5.0463">
        <ele>668</ele>
        <time>2026-05-26T11:56:42.000Z</time>
      </trkpt>
      <trkpt lat="44.66606" lon="5.04629">
        <ele>669</ele>
        <time>2026-05-26T11:56:43.000Z</time>
      </trkpt>
      <trkpt lat="44.66606" lon="5.04627">
        <ele>668</ele>
        <time>2026-05-26T11:56:44.000Z</time>
      </trkpt>
      <trkpt lat="44.66606" lon="5.04625">
        <ele>668</ele>
        <time>2026-05-26T11:56:45.000Z</time>
      </trkpt>
      <trkpt lat="44.66605" lon="5.04623">
        <ele>667</ele>
        <time>2026-05-26T11:56:46.000Z</time>
      </trkpt>
      <trkpt lat="44.66604" lon="5.04623">
        <ele>667</ele>
        <time>2026-05-26T11:56:47.000Z</time>
      </trkpt>
      <trkpt lat="44.66602" lon="5.04621">
        <ele>666</ele>
        <time>2026-05-26T11:56:48.000Z</time>
      </trkpt>
      <trkpt lat="44.66601" lon="5.04621">
        <ele>666</ele>
        <time>2026-05-26T11:56:49.000Z</time>
      </trkpt>
      <trkpt lat="44.666" lon="5.0462">
        <ele>665</ele>
        <time>2026-05-26T11:56:50.000Z</time>
      </trkpt>
      <trkpt lat="44.66599" lon="5.04619">
        <ele>665</ele>
        <time>2026-05-26T11:56:51.000Z</time>
      </trkpt>
      <trkpt lat="44.66598" lon="5.04619">
        <ele>666</ele>
        <time>2026-05-26T11:56:52.000Z</time>
      </trkpt>
      <trkpt lat="44.66598" lon="5.04619">
        <ele>666</ele>
        <time>2026-05-26T11:56:53.000Z</time>
      </trkpt>
      <trkpt lat="44.66598" lon="5.04619">
        <ele>666</ele>
        <time>2026-05-26T11:56:54.000Z</time>
      </trkpt>
      <trkpt lat="44.66597" lon="5.04617">
        <ele>665</ele>
        <time>2026-05-26T11:56:55.000Z</time>
      </trkpt>
      <trkpt lat="44.66596" lon="5.04616">
        <ele>665</ele>
        <time>2026-05-26T11:56:56.000Z</time>
      </trkpt>
      <trkpt lat="44.66595" lon="5.04615">
        <ele>665</ele>
        <time>2026-05-26T11:56:57.000Z</time>
      </trkpt>
      <trkpt lat="44.66593" lon="5.04614">
        <ele>665</ele>
        <time>2026-05-26T11:56:58.000Z</time>
      </trkpt>
      <trkpt lat="44.66593" lon="5.04614">
        <ele>665</ele>
        <time>2026-05-26T11:56:59.000Z</time>
      </trkpt>
      <trkpt lat="44.66591" lon="5.04612">
        <ele>665</ele>
        <time>2026-05-26T11:57:00.000Z</time>
      </trkpt>
      <trkpt lat="44.6659" lon="5.04611">
        <ele>665</ele>
        <time>2026-05-26T11:57:01.000Z</time>
      </trkpt>
      <trkpt lat="44.66589" lon="5.04609">
        <ele>665</ele>
        <time>2026-05-26T11:57:02.000Z</time>
      </trkpt>
      <trkpt lat="44.66588" lon="5.04608">
        <ele>666</ele>
        <time>2026-05-26T11:57:03.000Z</time>
      </trkpt>
      <trkpt lat="44.66588" lon="5.04608">
        <ele>666</ele>
        <time>2026-05-26T11:57:04.000Z</time>
      </trkpt>
      <trkpt lat="44.66588" lon="5.04608">
        <ele>666</ele>
        <time>2026-05-26T11:57:05.000Z</time>
      </trkpt>
      <trkpt lat="44.66586" lon="5.04606">
        <ele>665</ele>
        <time>2026-05-26T11:57:06.000Z</time>
      </trkpt>
      <trkpt lat="44.66584" lon="5.04606">
        <ele>666</ele>
        <time>2026-05-26T11:57:07.000Z</time>
      </trkpt>
      <trkpt lat="44.66584" lon="5.04604">
        <ele>665</ele>
        <time>2026-05-26T11:57:08.000Z</time>
      </trkpt>
      <trkpt lat="44.66584" lon="5.04603">
        <ele>665</ele>
        <time>2026-05-26T11:57:09.000Z</time>
      </trkpt>
      <trkpt lat="44.66584" lon="5.04603">
        <ele>665</ele>
        <time>2026-05-26T11:57:10.000Z</time>
      </trkpt>
      <trkpt lat="44.66584" lon="5.04603">
        <ele>665</ele>
        <time>2026-05-26T11:57:11.000Z</time>
      </trkpt>
      <trkpt lat="44.66584" lon="5.04603">
        <ele>665</ele>
        <time>2026-05-26T11:57:12.000Z</time>
      </trkpt>
      <trkpt lat="44.66584" lon="5.04597">
        <ele>667</ele>
        <time>2026-05-26T11:57:13.000Z</time>
      </trkpt>
      <trkpt lat="44.66583" lon="5.04595">
        <ele>667</ele>
        <time>2026-05-26T11:57:14.000Z</time>
      </trkpt>
      <trkpt lat="44.66583" lon="5.04593">
        <ele>668</ele>
        <time>2026-05-26T11:57:15.000Z</time>
      </trkpt>
      <trkpt lat="44.66583" lon="5.04591">
        <ele>668</ele>
        <time>2026-05-26T11:57:16.000Z</time>
      </trkpt>
      <trkpt lat="44.66582" lon="5.04588">
        <ele>669</ele>
        <time>2026-05-26T11:57:17.000Z</time>
      </trkpt>
      <trkpt lat="44.66582" lon="5.04586">
        <ele>669</ele>
        <time>2026-05-26T11:57:18.000Z</time>
      </trkpt>
      <trkpt lat="44.66583" lon="5.04585">
        <ele>668</ele>
        <time>2026-05-26T11:57:19.000Z</time>
      </trkpt>
      <trkpt lat="44.66584" lon="5.04582">
        <ele>669</ele>
        <time>2026-05-26T11:57:20.000Z</time>
      </trkpt>
      <trkpt lat="44.66584" lon="5.04581">
        <ele>669</ele>
        <time>2026-05-26T11:57:21.000Z</time>
      </trkpt>
      <trkpt lat="44.66584" lon="5.04581">
        <ele>669</ele>
        <time>2026-05-26T11:57:22.000Z</time>
      </trkpt>
      <trkpt lat="44.66584" lon="5.04581">
        <ele>669</ele>
        <time>2026-05-26T11:57:23.000Z</time>
      </trkpt>
      <trkpt lat="44.66585" lon="5.04576">
        <ele>669</ele>
        <time>2026-05-26T11:57:24.000Z</time>
      </trkpt>
      <trkpt lat="44.66586" lon="5.04573">
        <ele>670</ele>
        <time>2026-05-26T11:57:25.000Z</time>
      </trkpt>
      <trkpt lat="44.66586" lon="5.04571">
        <ele>670</ele>
        <time>2026-05-26T11:57:26.000Z</time>
      </trkpt>
      <trkpt lat="44.66586" lon="5.04569">
        <ele>669</ele>
        <time>2026-05-26T11:57:27.000Z</time>
      </trkpt>
      <trkpt lat="44.66586" lon="5.04567">
        <ele>670</ele>
        <time>2026-05-26T11:57:28.000Z</time>
      </trkpt>
      <trkpt lat="44.66587" lon="5.04565">
        <ele>670</ele>
        <time>2026-05-26T11:57:29.000Z</time>
      </trkpt>
      <trkpt lat="44.66586" lon="5.04564">
        <ele>669</ele>
        <time>2026-05-26T11:57:30.000Z</time>
      </trkpt>
      <trkpt lat="44.66585" lon="5.04562">
        <ele>670</ele>
        <time>2026-05-26T11:57:31.000Z</time>
      </trkpt>
      <trkpt lat="44.66586" lon="5.04561">
        <ele>669</ele>
        <time>2026-05-26T11:57:32.000Z</time>
      </trkpt>
      <trkpt lat="44.66586" lon="5.04559">
        <ele>668</ele>
        <time>2026-05-26T11:57:33.000Z</time>
      </trkpt>
      <trkpt lat="44.66586" lon="5.04557">
        <ele>668</ele>
        <time>2026-05-26T11:57:34.000Z</time>
      </trkpt>
      <trkpt lat="44.66586" lon="5.04554">
        <ele>667</ele>
        <time>2026-05-26T11:57:35.000Z</time>
      </trkpt>
      <trkpt lat="44.66586" lon="5.04552">
        <ele>667</ele>
        <time>2026-05-26T11:57:36.000Z</time>
      </trkpt>
      <trkpt lat="44.66586" lon="5.0455">
        <ele>667</ele>
        <time>2026-05-26T11:57:37.000Z</time>
      </trkpt>
      <trkpt lat="44.66586" lon="5.0455">
        <ele>667</ele>
        <time>2026-05-26T11:57:38.000Z</time>
      </trkpt>
      <trkpt lat="44.66586" lon="5.0455">
        <ele>667</ele>
        <time>2026-05-26T11:57:39.000Z</time>
      </trkpt>
      <trkpt lat="44.66583" lon="5.04547">
        <ele>665</ele>
        <time>2026-05-26T11:57:40.000Z</time>
      </trkpt>
      <trkpt lat="44.66582" lon="5.04547">
        <ele>664</ele>
        <time>2026-05-26T11:57:41.000Z</time>
      </trkpt>
      <trkpt lat="44.66582" lon="5.04545">
        <ele>663</ele>
        <time>2026-05-26T11:57:42.000Z</time>
      </trkpt>
      <trkpt lat="44.66581" lon="5.04544">
        <ele>663</ele>
        <time>2026-05-26T11:57:43.000Z</time>
      </trkpt>
      <trkpt lat="44.6658" lon="5.04543">
        <ele>663</ele>
        <time>2026-05-26T11:57:44.000Z</time>
      </trkpt>
      <trkpt lat="44.6658" lon="5.04541">
        <ele>663</ele>
        <time>2026-05-26T11:57:45.000Z</time>
      </trkpt>
      <trkpt lat="44.66579" lon="5.0454">
        <ele>664</ele>
        <time>2026-05-26T11:57:46.000Z</time>
      </trkpt>
      <trkpt lat="44.66578" lon="5.04538">
        <ele>663</ele>
        <time>2026-05-26T11:57:47.000Z</time>
      </trkpt>
      <trkpt lat="44.66578" lon="5.04536">
        <ele>663</ele>
        <time>2026-05-26T11:57:48.000Z</time>
      </trkpt>
      <trkpt lat="44.66576" lon="5.04534">
        <ele>663</ele>
        <time>2026-05-26T11:57:49.000Z</time>
      </trkpt>
      <trkpt lat="44.66576" lon="5.04533">
        <ele>663</ele>
        <time>2026-05-26T11:57:50.000Z</time>
      </trkpt>
      <trkpt lat="44.66575" lon="5.04533">
        <ele>662</ele>
        <time>2026-05-26T11:57:51.000Z</time>
      </trkpt>
      <trkpt lat="44.66575" lon="5.04533">
        <ele>662</ele>
        <time>2026-05-26T11:57:52.000Z</time>
      </trkpt>
      <trkpt lat="44.66575" lon="5.04533">
        <ele>662</ele>
        <time>2026-05-26T11:57:53.000Z</time>
      </trkpt>
      <trkpt lat="44.66574" lon="5.0453">
        <ele>663</ele>
        <time>2026-05-26T11:57:54.000Z</time>
      </trkpt>
      <trkpt lat="44.66572" lon="5.04529">
        <ele>664</ele>
        <time>2026-05-26T11:57:55.000Z</time>
      </trkpt>
      <trkpt lat="44.66571" lon="5.04527">
        <ele>663</ele>
        <time>2026-05-26T11:57:56.000Z</time>
      </trkpt>
      <trkpt lat="44.66571" lon="5.04526">
        <ele>663</ele>
        <time>2026-05-26T11:57:57.000Z</time>
      </trkpt>
      <trkpt lat="44.6657" lon="5.04524">
        <ele>662</ele>
        <time>2026-05-26T11:57:58.000Z</time>
      </trkpt>
      <trkpt lat="44.66569" lon="5.04523">
        <ele>661</ele>
        <time>2026-05-26T11:57:59.000Z</time>
      </trkpt>
      <trkpt lat="44.66568" lon="5.04522">
        <ele>662</ele>
        <time>2026-05-26T11:58:00.000Z</time>
      </trkpt>
      <trkpt lat="44.66568" lon="5.04521">
        <ele>662</ele>
        <time>2026-05-26T11:58:01.000Z</time>
      </trkpt>
      <trkpt lat="44.66567" lon="5.0452">
        <ele>662</ele>
        <time>2026-05-26T11:58:02.000Z</time>
      </trkpt>
      <trkpt lat="44.66566" lon="5.0452">
        <ele>663</ele>
        <time>2026-05-26T11:58:03.000Z</time>
      </trkpt>
      <trkpt lat="44.66565" lon="5.0452">
        <ele>663</ele>
        <time>2026-05-26T11:58:04.000Z</time>
      </trkpt>
      <trkpt lat="44.66565" lon="5.0452">
        <ele>663</ele>
        <time>2026-05-26T11:58:05.000Z</time>
      </trkpt>
      <trkpt lat="44.66565" lon="5.0452">
        <ele>663</ele>
        <time>2026-05-26T11:58:06.000Z</time>
      </trkpt>
      <trkpt lat="44.66564" lon="5.04516">
        <ele>662</ele>
        <time>2026-05-26T11:58:07.000Z</time>
      </trkpt>
      <trkpt lat="44.66564" lon="5.04513">
        <ele>662</ele>
        <time>2026-05-26T11:58:08.000Z</time>
      </trkpt>
      <trkpt lat="44.66563" lon="5.04511">
        <ele>662</ele>
        <time>2026-05-26T11:58:09.000Z</time>
      </trkpt>
      <trkpt lat="44.66563" lon="5.0451">
        <ele>662</ele>
        <time>2026-05-26T11:58:10.000Z</time>
      </trkpt>
      <trkpt lat="44.66562" lon="5.04508">
        <ele>663</ele>
        <time>2026-05-26T11:58:11.000Z</time>
      </trkpt>
      <trkpt lat="44.66561" lon="5.04507">
        <ele>662</ele>
        <time>2026-05-26T11:58:12.000Z</time>
      </trkpt>
      <trkpt lat="44.6656" lon="5.04506">
        <ele>662</ele>
        <time>2026-05-26T11:58:13.000Z</time>
      </trkpt>
      <trkpt lat="44.66559" lon="5.04504">
        <ele>662</ele>
        <time>2026-05-26T11:58:14.000Z</time>
      </trkpt>
      <trkpt lat="44.66559" lon="5.04502">
        <ele>662</ele>
        <time>2026-05-26T11:58:15.000Z</time>
      </trkpt>
      <trkpt lat="44.66558" lon="5.04501">
        <ele>662</ele>
        <time>2026-05-26T11:58:16.000Z</time>
      </trkpt>
      <trkpt lat="44.66558" lon="5.045">
        <ele>661</ele>
        <time>2026-05-26T11:58:17.000Z</time>
      </trkpt>
      <trkpt lat="44.66557" lon="5.04498">
        <ele>661</ele>
        <time>2026-05-26T11:58:18.000Z</time>
      </trkpt>
      <trkpt lat="44.66556" lon="5.04496">
        <ele>661</ele>
        <time>2026-05-26T11:58:19.000Z</time>
      </trkpt>
      <trkpt lat="44.66556" lon="5.04494">
        <ele>662</ele>
        <time>2026-05-26T11:58:20.000Z</time>
      </trkpt>
      <trkpt lat="44.66555" lon="5.04491">
        <ele>662</ele>
        <time>2026-05-26T11:58:21.000Z</time>
      </trkpt>
      <trkpt lat="44.66555" lon="5.04489">
        <ele>662</ele>
        <time>2026-05-26T11:58:22.000Z</time>
      </trkpt>
      <trkpt lat="44.66555" lon="5.04487">
        <ele>662</ele>
        <time>2026-05-26T11:58:23.000Z</time>
      </trkpt>
      <trkpt lat="44.66553" lon="5.04486">
        <ele>662</ele>
        <time>2026-05-26T11:58:24.000Z</time>
      </trkpt>
      <trkpt lat="44.66553" lon="5.04483">
        <ele>662</ele>
        <time>2026-05-26T11:58:25.000Z</time>
      </trkpt>
      <trkpt lat="44.66553" lon="5.04482">
        <ele>662</ele>
        <time>2026-05-26T11:58:26.000Z</time>
      </trkpt>
      <trkpt lat="44.66553" lon="5.0448">
        <ele>662</ele>
        <time>2026-05-26T11:58:27.000Z</time>
      </trkpt>
      <trkpt lat="44.66553" lon="5.04479">
        <ele>661</ele>
        <time>2026-05-26T11:58:28.000Z</time>
      </trkpt>
      <trkpt lat="44.66553" lon="5.04479">
        <ele>661</ele>
        <time>2026-05-26T11:58:29.000Z</time>
      </trkpt>
      <trkpt lat="44.66553" lon="5.04479">
        <ele>661</ele>
        <time>2026-05-26T11:58:30.000Z</time>
      </trkpt>
      <trkpt lat="44.66552" lon="5.04476">
        <ele>662</ele>
        <time>2026-05-26T11:58:31.000Z</time>
      </trkpt>
      <trkpt lat="44.66552" lon="5.04476">
        <ele>663</ele>
        <time>2026-05-26T11:58:32.000Z</time>
      </trkpt>
      <trkpt lat="44.66552" lon="5.04477">
        <ele>662</ele>
        <time>2026-05-26T11:58:33.000Z</time>
      </trkpt>
      <trkpt lat="44.66552" lon="5.04478">
        <ele>661</ele>
        <time>2026-05-26T11:58:34.000Z</time>
      </trkpt>
      <trkpt lat="44.66552" lon="5.04478">
        <ele>661</ele>
        <time>2026-05-26T11:58:35.000Z</time>
      </trkpt>
      <trkpt lat="44.66552" lon="5.04478">
        <ele>661</ele>
        <time>2026-05-26T11:58:36.000Z</time>
      </trkpt>
      <trkpt lat="44.66552" lon="5.04478">
        <ele>661</ele>
        <time>2026-05-26T11:58:37.000Z</time>
      </trkpt>
      <trkpt lat="44.66552" lon="5.04478">
        <ele>661</ele>
        <time>2026-05-26T11:58:38.000Z</time>
      </trkpt>
      <trkpt lat="44.66552" lon="5.04478">
        <ele>661</ele>
        <time>2026-05-26T11:58:39.000Z</time>
      </trkpt>
      <trkpt lat="44.66552" lon="5.04478">
        <ele>661</ele>
        <time>2026-05-26T11:58:40.000Z</time>
      </trkpt>
      <trkpt lat="44.66552" lon="5.04478">
        <ele>661</ele>
        <time>2026-05-26T11:58:41.000Z</time>
      </trkpt>
      <trkpt lat="44.66552" lon="5.04478">
        <ele>661</ele>
        <time>2026-05-26T11:58:42.000Z</time>
      </trkpt>
      <trkpt lat="44.66552" lon="5.04478">
        <ele>661</ele>
        <time>2026-05-26T11:58:43.000Z</time>
      </trkpt>
      <trkpt lat="44.66552" lon="5.04478">
        <ele>661</ele>
        <time>2026-05-26T11:58:44.000Z</time>
      </trkpt>
      <trkpt lat="44.66552" lon="5.04478">
        <ele>661</ele>
        <time>2026-05-26T11:58:45.000Z</time>
      </trkpt>
      <trkpt lat="44.66552" lon="5.04478">
        <ele>661</ele>
        <time>2026-05-26T11:58:46.000Z</time>
      </trkpt>
      <trkpt lat="44.66552" lon="5.04478">
        <ele>661</ele>
        <time>2026-05-26T11:58:47.000Z</time>
      </trkpt>
      <trkpt lat="44.66552" lon="5.04478">
        <ele>661</ele>
        <time>2026-05-26T11:58:48.000Z</time>
      </trkpt>
      <trkpt lat="44.66552" lon="5.04478">
        <ele>661</ele>
        <time>2026-05-26T11:58:49.000Z</time>
      </trkpt>
      <trkpt lat="44.66552" lon="5.04478">
        <ele>661</ele>
        <time>2026-05-26T11:58:50.000Z</time>
      </trkpt>
      <trkpt lat="44.66552" lon="5.04478">
        <ele>661</ele>
        <time>2026-05-26T11:58:51.000Z</time>
      </trkpt>
      <trkpt lat="44.66552" lon="5.04478">
        <ele>661</ele>
        <time>2026-05-26T11:58:52.000Z</time>
      </trkpt>
      <trkpt lat="44.66552" lon="5.04478">
        <ele>661</ele>
        <time>2026-05-26T11:58:53.000Z</time>
      </trkpt>
      <trkpt lat="44.66552" lon="5.04478">
        <ele>661</ele>
        <time>2026-05-26T11:58:54.000Z</time>
      </trkpt>
      <trkpt lat="44.66552" lon="5.04477">
        <ele>657</ele>
        <time>2026-05-26T11:58:55.000Z</time>
      </trkpt>
      <trkpt lat="44.66551" lon="5.04476">
        <ele>655</ele>
        <time>2026-05-26T11:58:56.000Z</time>
      </trkpt>
      <trkpt lat="44.66551" lon="5.04476">
        <ele>655</ele>
        <time>2026-05-26T11:58:57.000Z</time>
      </trkpt>
      <trkpt lat="44.66551" lon="5.04476">
        <ele>655</ele>
        <time>2026-05-26T11:58:58.000Z</time>
      </trkpt>
      <trkpt lat="44.66551" lon="5.04476">
        <ele>655</ele>
        <time>2026-05-26T11:58:59.000Z</time>
      </trkpt>
      <trkpt lat="44.66551" lon="5.04476">
        <ele>655</ele>
        <time>2026-05-26T11:59:00.000Z</time>
      </trkpt>
      <trkpt lat="44.66551" lon="5.04476">
        <ele>655</ele>
        <time>2026-05-26T11:59:01.000Z</time>
      </trkpt>
      <trkpt lat="44.66551" lon="5.04476">
        <ele>655</ele>
        <time>2026-05-26T11:59:02.000Z</time>
      </trkpt>
      <trkpt lat="44.66551" lon="5.04476">
        <ele>655</ele>
        <time>2026-05-26T11:59:03.000Z</time>
      </trkpt>
      <trkpt lat="44.66551" lon="5.04476">
        <ele>655</ele>
        <time>2026-05-26T11:59:04.000Z</time>
      </trkpt>
      <trkpt lat="44.6655" lon="5.04476">
        <ele>653</ele>
        <time>2026-05-26T11:59:05.000Z</time>
      </trkpt>
      <trkpt lat="44.6655" lon="5.04476">
        <ele>653</ele>
        <time>2026-05-26T11:59:06.000Z</time>
      </trkpt>
      <trkpt lat="44.6655" lon="5.04477">
        <ele>654</ele>
        <time>2026-05-26T11:59:07.000Z</time>
      </trkpt>
      <trkpt lat="44.6655" lon="5.0448">
        <ele>653</ele>
        <time>2026-05-26T11:59:08.000Z</time>
      </trkpt>
      <trkpt lat="44.6655" lon="5.0448">
        <ele>653</ele>
        <time>2026-05-26T11:59:09.000Z</time>
      </trkpt>
      <trkpt lat="44.6655" lon="5.0448">
        <ele>653</ele>
        <time>2026-05-26T11:59:10.000Z</time>
      </trkpt>
      <trkpt lat="44.6655" lon="5.0448">
        <ele>653</ele>
        <time>2026-05-26T11:59:11.000Z</time>
      </trkpt>
      <trkpt lat="44.6655" lon="5.0448">
        <ele>653</ele>
        <time>2026-05-26T11:59:12.000Z</time>
      </trkpt>
      <trkpt lat="44.6655" lon="5.0448">
        <ele>653</ele>
        <time>2026-05-26T11:59:13.000Z</time>
      </trkpt>
      <trkpt lat="44.6655" lon="5.0448">
        <ele>653</ele>
        <time>2026-05-26T11:59:14.000Z</time>
      </trkpt>
      <trkpt lat="44.6655" lon="5.0448">
        <ele>653</ele>
        <time>2026-05-26T11:59:15.000Z</time>
      </trkpt>
      <trkpt lat="44.6655" lon="5.0448">
        <ele>653</ele>
        <time>2026-05-26T11:59:16.000Z</time>
      </trkpt>
      <trkpt lat="44.6655" lon="5.0448">
        <ele>653</ele>
        <time>2026-05-26T11:59:17.000Z</time>
      </trkpt>
      <trkpt lat="44.6655" lon="5.0448">
        <ele>653</ele>
        <time>2026-05-26T11:59:18.000Z</time>
      </trkpt>
      <trkpt lat="44.6655" lon="5.0448">
        <ele>653</ele>
        <time>2026-05-26T11:59:19.000Z</time>
      </trkpt>
      <trkpt lat="44.6655" lon="5.0448">
        <ele>653</ele>
        <time>2026-05-26T11:59:20.000Z</time>
      </trkpt>
      <trkpt lat="44.6655" lon="5.0448">
        <ele>653</ele>
        <time>2026-05-26T11:59:21.000Z</time>
      </trkpt>
      <trkpt lat="44.6655" lon="5.0448">
        <ele>653</ele>
        <time>2026-05-26T11:59:22.000Z</time>
      </trkpt>
      <trkpt lat="44.6655" lon="5.0448">
        <ele>653</ele>
        <time>2026-05-26T11:59:23.000Z</time>
      </trkpt>
      <trkpt lat="44.6655" lon="5.0448">
        <ele>653</ele>
        <time>2026-05-26T11:59:24.000Z</time>
      </trkpt>
      <trkpt lat="44.6655" lon="5.0448">
        <ele>654</ele>
        <time>2026-05-26T11:59:25.000Z</time>
      </trkpt>
      <trkpt lat="44.6655" lon="5.0448">
        <ele>653</ele>
        <time>2026-05-26T11:59:26.000Z</time>
      </trkpt>
      <trkpt lat="44.6655" lon="5.04479">
        <ele>652</ele>
        <time>2026-05-26T11:59:27.000Z</time>
      </trkpt>
      <trkpt lat="44.6655" lon="5.04478">
        <ele>652</ele>
        <time>2026-05-26T11:59:28.000Z</time>
      </trkpt>
      <trkpt lat="44.6655" lon="5.04477">
        <ele>652</ele>
        <time>2026-05-26T11:59:29.000Z</time>
      </trkpt>
      <trkpt lat="44.66551" lon="5.04476">
        <ele>651</ele>
        <time>2026-05-26T11:59:30.000Z</time>
      </trkpt>
      <trkpt lat="44.66551" lon="5.04475">
        <ele>651</ele>
        <time>2026-05-26T11:59:31.000Z</time>
      </trkpt>
      <trkpt lat="44.66551" lon="5.04474">
        <ele>650</ele>
        <time>2026-05-26T11:59:32.000Z</time>
      </trkpt>
      <trkpt lat="44.6655" lon="5.04473">
        <ele>651</ele>
        <time>2026-05-26T11:59:33.000Z</time>
      </trkpt>
      <trkpt lat="44.66549" lon="5.04471">
        <ele>651</ele>
        <time>2026-05-26T11:59:34.000Z</time>
      </trkpt>
      <trkpt lat="44.66548" lon="5.0447">
        <ele>651</ele>
        <time>2026-05-26T11:59:35.000Z</time>
      </trkpt>
      <trkpt lat="44.66546" lon="5.04469">
        <ele>650</ele>
        <time>2026-05-26T11:59:36.000Z</time>
      </trkpt>
      <trkpt lat="44.66546" lon="5.04468">
        <ele>650</ele>
        <time>2026-05-26T11:59:37.000Z</time>
      </trkpt>
      <trkpt lat="44.66545" lon="5.04467">
        <ele>652</ele>
        <time>2026-05-26T11:59:38.000Z</time>
      </trkpt>
      <trkpt lat="44.66544" lon="5.04466">
        <ele>651</ele>
        <time>2026-05-26T11:59:39.000Z</time>
      </trkpt>
      <trkpt lat="44.66543" lon="5.04465">
        <ele>650</ele>
        <time>2026-05-26T11:59:40.000Z</time>
      </trkpt>
      <trkpt lat="44.66542" lon="5.04464">
        <ele>650</ele>
        <time>2026-05-26T11:59:41.000Z</time>
      </trkpt>
      <trkpt lat="44.66542" lon="5.04463">
        <ele>650</ele>
        <time>2026-05-26T11:59:42.000Z</time>
      </trkpt>
      <trkpt lat="44.66541" lon="5.04461">
        <ele>651</ele>
        <time>2026-05-26T11:59:43.000Z</time>
      </trkpt>
      <trkpt lat="44.6654" lon="5.04459">
        <ele>650</ele>
        <time>2026-05-26T11:59:44.000Z</time>
      </trkpt>
      <trkpt lat="44.66539" lon="5.04458">
        <ele>650</ele>
        <time>2026-05-26T11:59:45.000Z</time>
      </trkpt>
      <trkpt lat="44.66539" lon="5.04457">
        <ele>650</ele>
        <time>2026-05-26T11:59:46.000Z</time>
      </trkpt>
      <trkpt lat="44.66538" lon="5.04456">
        <ele>650</ele>
        <time>2026-05-26T11:59:47.000Z</time>
      </trkpt>
      <trkpt lat="44.66537" lon="5.04455">
        <ele>650</ele>
        <time>2026-05-26T11:59:48.000Z</time>
      </trkpt>
      <trkpt lat="44.66537" lon="5.04454">
        <ele>650</ele>
        <time>2026-05-26T11:59:49.000Z</time>
      </trkpt>
      <trkpt lat="44.66537" lon="5.04453">
        <ele>649</ele>
        <time>2026-05-26T11:59:50.000Z</time>
      </trkpt>
      <trkpt lat="44.66536" lon="5.04452">
        <ele>650</ele>
        <time>2026-05-26T11:59:51.000Z</time>
      </trkpt>
      <trkpt lat="44.66535" lon="5.04451">
        <ele>649</ele>
        <time>2026-05-26T11:59:52.000Z</time>
      </trkpt>
      <trkpt lat="44.66535" lon="5.0445">
        <ele>649</ele>
        <time>2026-05-26T11:59:53.000Z</time>
      </trkpt>
      <trkpt lat="44.66534" lon="5.04448">
        <ele>649</ele>
        <time>2026-05-26T11:59:54.000Z</time>
      </trkpt>
      <trkpt lat="44.66533" lon="5.04447">
        <ele>649</ele>
        <time>2026-05-26T11:59:55.000Z</time>
      </trkpt>
      <trkpt lat="44.66532" lon="5.04445">
        <ele>648</ele>
        <time>2026-05-26T11:59:56.000Z</time>
      </trkpt>
      <trkpt lat="44.66532" lon="5.04444">
        <ele>649</ele>
        <time>2026-05-26T11:59:57.000Z</time>
      </trkpt>
      <trkpt lat="44.66531" lon="5.04443">
        <ele>650</ele>
        <time>2026-05-26T11:59:58.000Z</time>
      </trkpt>
      <trkpt lat="44.66529" lon="5.04442">
        <ele>649</ele>
        <time>2026-05-26T11:59:59.000Z</time>
      </trkpt>
      <trkpt lat="44.66528" lon="5.04441">
        <ele>648</ele>
        <time>2026-05-26T12:00:00.000Z</time>
      </trkpt>
      <trkpt lat="44.66528" lon="5.04439">
        <ele>648</ele>
        <time>2026-05-26T12:00:01.000Z</time>
      </trkpt>
      <trkpt lat="44.66527" lon="5.04438">
        <ele>648</ele>
        <time>2026-05-26T12:00:02.000Z</time>
      </trkpt>
      <trkpt lat="44.66526" lon="5.04437">
        <ele>648</ele>
        <time>2026-05-26T12:00:03.000Z</time>
      </trkpt>
      <trkpt lat="44.66526" lon="5.04436">
        <ele>647</ele>
        <time>2026-05-26T12:00:04.000Z</time>
      </trkpt>
      <trkpt lat="44.66525" lon="5.04434">
        <ele>647</ele>
        <time>2026-05-26T12:00:05.000Z</time>
      </trkpt>
      <trkpt lat="44.66525" lon="5.04433">
        <ele>647</ele>
        <time>2026-05-26T12:00:06.000Z</time>
      </trkpt>
      <trkpt lat="44.66525" lon="5.04431">
        <ele>646</ele>
        <time>2026-05-26T12:00:07.000Z</time>
      </trkpt>
      <trkpt lat="44.66524" lon="5.04429">
        <ele>647</ele>
        <time>2026-05-26T12:00:08.000Z</time>
      </trkpt>
      <trkpt lat="44.66523" lon="5.04429">
        <ele>646</ele>
        <time>2026-05-26T12:00:09.000Z</time>
      </trkpt>
      <trkpt lat="44.66522" lon="5.04427">
        <ele>646</ele>
        <time>2026-05-26T12:00:10.000Z</time>
      </trkpt>
      <trkpt lat="44.66522" lon="5.04426">
        <ele>646</ele>
        <time>2026-05-26T12:00:11.000Z</time>
      </trkpt>
      <trkpt lat="44.6652" lon="5.04424">
        <ele>646</ele>
        <time>2026-05-26T12:00:12.000Z</time>
      </trkpt>
      <trkpt lat="44.6652" lon="5.04423">
        <ele>645</ele>
        <time>2026-05-26T12:00:13.000Z</time>
      </trkpt>
      <trkpt lat="44.66519" lon="5.04422">
        <ele>645</ele>
        <time>2026-05-26T12:00:14.000Z</time>
      </trkpt>
      <trkpt lat="44.66519" lon="5.04421">
        <ele>645</ele>
        <time>2026-05-26T12:00:15.000Z</time>
      </trkpt>
      <trkpt lat="44.66518" lon="5.04419">
        <ele>645</ele>
        <time>2026-05-26T12:00:16.000Z</time>
      </trkpt>
      <trkpt lat="44.66518" lon="5.04419">
        <ele>645</ele>
        <time>2026-05-26T12:00:17.000Z</time>
      </trkpt>
      <trkpt lat="44.66517" lon="5.04417">
        <ele>644</ele>
        <time>2026-05-26T12:00:18.000Z</time>
      </trkpt>
      <trkpt lat="44.66516" lon="5.04416">
        <ele>644</ele>
        <time>2026-05-26T12:00:19.000Z</time>
      </trkpt>
      <trkpt lat="44.66516" lon="5.04414">
        <ele>644</ele>
        <time>2026-05-26T12:00:20.000Z</time>
      </trkpt>
      <trkpt lat="44.66515" lon="5.04413">
        <ele>643</ele>
        <time>2026-05-26T12:00:21.000Z</time>
      </trkpt>
      <trkpt lat="44.66514" lon="5.04411">
        <ele>643</ele>
        <time>2026-05-26T12:00:22.000Z</time>
      </trkpt>
      <trkpt lat="44.66512" lon="5.0441">
        <ele>643</ele>
        <time>2026-05-26T12:00:23.000Z</time>
      </trkpt>
      <trkpt lat="44.66512" lon="5.04409">
        <ele>644</ele>
        <time>2026-05-26T12:00:24.000Z</time>
      </trkpt>
      <trkpt lat="44.6651" lon="5.04408">
        <ele>644</ele>
        <time>2026-05-26T12:00:25.000Z</time>
      </trkpt>
      <trkpt lat="44.6651" lon="5.04406">
        <ele>643</ele>
        <time>2026-05-26T12:00:26.000Z</time>
      </trkpt>
      <trkpt lat="44.66509" lon="5.04405">
        <ele>643</ele>
        <time>2026-05-26T12:00:27.000Z</time>
      </trkpt>
      <trkpt lat="44.66509" lon="5.04404">
        <ele>643</ele>
        <time>2026-05-26T12:00:28.000Z</time>
      </trkpt>
      <trkpt lat="44.66507" lon="5.04404">
        <ele>643</ele>
        <time>2026-05-26T12:00:29.000Z</time>
      </trkpt>
      <trkpt lat="44.66507" lon="5.04402">
        <ele>642</ele>
        <time>2026-05-26T12:00:30.000Z</time>
      </trkpt>
      <trkpt lat="44.66507" lon="5.04401">
        <ele>642</ele>
        <time>2026-05-26T12:00:31.000Z</time>
      </trkpt>
      <trkpt lat="44.66506" lon="5.04398">
        <ele>642</ele>
        <time>2026-05-26T12:00:32.000Z</time>
      </trkpt>
      <trkpt lat="44.66505" lon="5.04397">
        <ele>641</ele>
        <time>2026-05-26T12:00:33.000Z</time>
      </trkpt>
      <trkpt lat="44.66504" lon="5.04395">
        <ele>641</ele>
        <time>2026-05-26T12:00:34.000Z</time>
      </trkpt>
      <trkpt lat="44.66503" lon="5.04393">
        <ele>640</ele>
        <time>2026-05-26T12:00:35.000Z</time>
      </trkpt>
      <trkpt lat="44.66502" lon="5.04392">
        <ele>641</ele>
        <time>2026-05-26T12:00:36.000Z</time>
      </trkpt>
      <trkpt lat="44.66502" lon="5.0439">
        <ele>640</ele>
        <time>2026-05-26T12:00:37.000Z</time>
      </trkpt>
      <trkpt lat="44.66501" lon="5.04389">
        <ele>639</ele>
        <time>2026-05-26T12:00:38.000Z</time>
      </trkpt>
      <trkpt lat="44.66501" lon="5.04389">
        <ele>640</ele>
        <time>2026-05-26T12:00:39.000Z</time>
      </trkpt>
      <trkpt lat="44.665" lon="5.04389">
        <ele>640</ele>
        <time>2026-05-26T12:00:40.000Z</time>
      </trkpt>
      <trkpt lat="44.66498" lon="5.04388">
        <ele>639</ele>
        <time>2026-05-26T12:00:41.000Z</time>
      </trkpt>
      <trkpt lat="44.66497" lon="5.04388">
        <ele>638</ele>
        <time>2026-05-26T12:00:42.000Z</time>
      </trkpt>
      <trkpt lat="44.66496" lon="5.04387">
        <ele>637</ele>
        <time>2026-05-26T12:00:43.000Z</time>
      </trkpt>
      <trkpt lat="44.66496" lon="5.04386">
        <ele>637</ele>
        <time>2026-05-26T12:00:44.000Z</time>
      </trkpt>
      <trkpt lat="44.66495" lon="5.04385">
        <ele>636</ele>
        <time>2026-05-26T12:00:45.000Z</time>
      </trkpt>
      <trkpt lat="44.66494" lon="5.04383">
        <ele>636</ele>
        <time>2026-05-26T12:00:46.000Z</time>
      </trkpt>
      <trkpt lat="44.66494" lon="5.04382">
        <ele>636</ele>
        <time>2026-05-26T12:00:47.000Z</time>
      </trkpt>
      <trkpt lat="44.66493" lon="5.04381">
        <ele>636</ele>
        <time>2026-05-26T12:00:48.000Z</time>
      </trkpt>
      <trkpt lat="44.66492" lon="5.0438">
        <ele>635</ele>
        <time>2026-05-26T12:00:49.000Z</time>
      </trkpt>
      <trkpt lat="44.66491" lon="5.04379">
        <ele>635</ele>
        <time>2026-05-26T12:00:50.000Z</time>
      </trkpt>
      <trkpt lat="44.66491" lon="5.04377">
        <ele>635</ele>
        <time>2026-05-26T12:00:51.000Z</time>
      </trkpt>
      <trkpt lat="44.6649" lon="5.04377">
        <ele>634</ele>
        <time>2026-05-26T12:00:52.000Z</time>
      </trkpt>
      <trkpt lat="44.6649" lon="5.04375">
        <ele>634</ele>
        <time>2026-05-26T12:00:53.000Z</time>
      </trkpt>
      <trkpt lat="44.66489" lon="5.04374">
        <ele>636</ele>
        <time>2026-05-26T12:00:54.000Z</time>
      </trkpt>
      <trkpt lat="44.66488" lon="5.04373">
        <ele>635</ele>
        <time>2026-05-26T12:00:55.000Z</time>
      </trkpt>
      <trkpt lat="44.66487" lon="5.04372">
        <ele>635</ele>
        <time>2026-05-26T12:00:56.000Z</time>
      </trkpt>
      <trkpt lat="44.66486" lon="5.04371">
        <ele>635</ele>
        <time>2026-05-26T12:00:57.000Z</time>
      </trkpt>
      <trkpt lat="44.66485" lon="5.0437">
        <ele>634</ele>
        <time>2026-05-26T12:00:58.000Z</time>
      </trkpt>
      <trkpt lat="44.66485" lon="5.04368">
        <ele>633</ele>
        <time>2026-05-26T12:00:59.000Z</time>
      </trkpt>
      <trkpt lat="44.66484" lon="5.04367">
        <ele>632</ele>
        <time>2026-05-26T12:01:00.000Z</time>
      </trkpt>
      <trkpt lat="44.66483" lon="5.04365">
        <ele>632</ele>
        <time>2026-05-26T12:01:01.000Z</time>
      </trkpt>
      <trkpt lat="44.66481" lon="5.04363">
        <ele>632</ele>
        <time>2026-05-26T12:01:02.000Z</time>
      </trkpt>
      <trkpt lat="44.66481" lon="5.04361">
        <ele>633</ele>
        <time>2026-05-26T12:01:03.000Z</time>
      </trkpt>
      <trkpt lat="44.66481" lon="5.0436">
        <ele>633</ele>
        <time>2026-05-26T12:01:04.000Z</time>
      </trkpt>
      <trkpt lat="44.6648" lon="5.04358">
        <ele>632</ele>
        <time>2026-05-26T12:01:05.000Z</time>
      </trkpt>
      <trkpt lat="44.66479" lon="5.04356">
        <ele>632</ele>
        <time>2026-05-26T12:01:06.000Z</time>
      </trkpt>
      <trkpt lat="44.66479" lon="5.04355">
        <ele>632</ele>
        <time>2026-05-26T12:01:07.000Z</time>
      </trkpt>
      <trkpt lat="44.66478" lon="5.04353">
        <ele>632</ele>
        <time>2026-05-26T12:01:08.000Z</time>
      </trkpt>
      <trkpt lat="44.66476" lon="5.04352">
        <ele>633</ele>
        <time>2026-05-26T12:01:09.000Z</time>
      </trkpt>
      <trkpt lat="44.66475" lon="5.0435">
        <ele>633</ele>
        <time>2026-05-26T12:01:10.000Z</time>
      </trkpt>
      <trkpt lat="44.66475" lon="5.0435">
        <ele>633</ele>
        <time>2026-05-26T12:01:11.000Z</time>
      </trkpt>
      <trkpt lat="44.66475" lon="5.0435">
        <ele>633</ele>
        <time>2026-05-26T12:01:12.000Z</time>
      </trkpt>
      <trkpt lat="44.66475" lon="5.0435">
        <ele>633</ele>
        <time>2026-05-26T12:01:13.000Z</time>
      </trkpt>
      <trkpt lat="44.66474" lon="5.04351">
        <ele>632</ele>
        <time>2026-05-26T12:01:14.000Z</time>
      </trkpt>
      <trkpt lat="44.66474" lon="5.04351">
        <ele>632</ele>
        <time>2026-05-26T12:01:15.000Z</time>
      </trkpt>
      <trkpt lat="44.66474" lon="5.04351">
        <ele>632</ele>
        <time>2026-05-26T12:01:16.000Z</time>
      </trkpt>
      <trkpt lat="44.66474" lon="5.04351">
        <ele>632</ele>
        <time>2026-05-26T12:01:17.000Z</time>
      </trkpt>
      <trkpt lat="44.66474" lon="5.04351">
        <ele>632</ele>
        <time>2026-05-26T12:01:18.000Z</time>
      </trkpt>
      <trkpt lat="44.66474" lon="5.04351">
        <ele>632</ele>
        <time>2026-05-26T12:01:19.000Z</time>
      </trkpt>
      <trkpt lat="44.66474" lon="5.04351">
        <ele>632</ele>
        <time>2026-05-26T12:01:20.000Z</time>
      </trkpt>
      <trkpt lat="44.66474" lon="5.04351">
        <ele>632</ele>
        <time>2026-05-26T12:01:21.000Z</time>
      </trkpt>
      <trkpt lat="44.66474" lon="5.04351">
        <ele>632</ele>
        <time>2026-05-26T12:01:22.000Z</time>
      </trkpt>
      <trkpt lat="44.66474" lon="5.04351">
        <ele>632</ele>
        <time>2026-05-26T12:01:23.000Z</time>
      </trkpt>
      <trkpt lat="44.66474" lon="5.04351">
        <ele>632</ele>
        <time>2026-05-26T12:01:24.000Z</time>
      </trkpt>
      <trkpt lat="44.66474" lon="5.04351">
        <ele>632</ele>
        <time>2026-05-26T12:01:25.000Z</time>
      </trkpt>
      <trkpt lat="44.66474" lon="5.04351">
        <ele>632</ele>
        <time>2026-05-26T12:01:26.000Z</time>
      </trkpt>
      <trkpt lat="44.66474" lon="5.04351">
        <ele>632</ele>
        <time>2026-05-26T12:01:27.000Z</time>
      </trkpt>
      <trkpt lat="44.66474" lon="5.04351">
        <ele>632</ele>
        <time>2026-05-26T12:01:28.000Z</time>
      </trkpt>
      <trkpt lat="44.66473" lon="5.04348">
        <ele>631</ele>
        <time>2026-05-26T12:01:29.000Z</time>
      </trkpt>
      <trkpt lat="44.66474" lon="5.04347">
        <ele>631</ele>
        <time>2026-05-26T12:01:30.000Z</time>
      </trkpt>
      <trkpt lat="44.66473" lon="5.04345">
        <ele>631</ele>
        <time>2026-05-26T12:01:31.000Z</time>
      </trkpt>
      <trkpt lat="44.66473" lon="5.04344">
        <ele>630</ele>
        <time>2026-05-26T12:01:32.000Z</time>
      </trkpt>
      <trkpt lat="44.66472" lon="5.04342">
        <ele>631</ele>
        <time>2026-05-26T12:01:33.000Z</time>
      </trkpt>
      <trkpt lat="44.66472" lon="5.0434">
        <ele>630</ele>
        <time>2026-05-26T12:01:34.000Z</time>
      </trkpt>
      <trkpt lat="44.66471" lon="5.04338">
        <ele>630</ele>
        <time>2026-05-26T12:01:35.000Z</time>
      </trkpt>
      <trkpt lat="44.66471" lon="5.04336">
        <ele>630</ele>
        <time>2026-05-26T12:01:36.000Z</time>
      </trkpt>
      <trkpt lat="44.66471" lon="5.04334">
        <ele>629</ele>
        <time>2026-05-26T12:01:37.000Z</time>
      </trkpt>
      <trkpt lat="44.66471" lon="5.04332">
        <ele>630</ele>
        <time>2026-05-26T12:01:38.000Z</time>
      </trkpt>
      <trkpt lat="44.6647" lon="5.0433">
        <ele>631</ele>
        <time>2026-05-26T12:01:39.000Z</time>
      </trkpt>
      <trkpt lat="44.66469" lon="5.04328">
        <ele>631</ele>
        <time>2026-05-26T12:01:40.000Z</time>
      </trkpt>
      <trkpt lat="44.66468" lon="5.04327">
        <ele>630</ele>
        <time>2026-05-26T12:01:41.000Z</time>
      </trkpt>
      <trkpt lat="44.66468" lon="5.04326">
        <ele>630</ele>
        <time>2026-05-26T12:01:42.000Z</time>
      </trkpt>
      <trkpt lat="44.66467" lon="5.04324">
        <ele>631</ele>
        <time>2026-05-26T12:01:43.000Z</time>
      </trkpt>
      <trkpt lat="44.66466" lon="5.04323">
        <ele>631</ele>
        <time>2026-05-26T12:01:44.000Z</time>
      </trkpt>
      <trkpt lat="44.66466" lon="5.04321">
        <ele>631</ele>
        <time>2026-05-26T12:01:45.000Z</time>
      </trkpt>
      <trkpt lat="44.66465" lon="5.0432">
        <ele>631</ele>
        <time>2026-05-26T12:01:46.000Z</time>
      </trkpt>
      <trkpt lat="44.66465" lon="5.04318">
        <ele>631</ele>
        <time>2026-05-26T12:01:47.000Z</time>
      </trkpt>
      <trkpt lat="44.66465" lon="5.04317">
        <ele>631</ele>
        <time>2026-05-26T12:01:48.000Z</time>
      </trkpt>
      <trkpt lat="44.66465" lon="5.04314">
        <ele>631</ele>
        <time>2026-05-26T12:01:49.000Z</time>
      </trkpt>
      <trkpt lat="44.66464" lon="5.04313">
        <ele>631</ele>
        <time>2026-05-26T12:01:50.000Z</time>
      </trkpt>
      <trkpt lat="44.66463" lon="5.04312">
        <ele>630</ele>
        <time>2026-05-26T12:01:51.000Z</time>
      </trkpt>
      <trkpt lat="44.66463" lon="5.04311">
        <ele>630</ele>
        <time>2026-05-26T12:01:52.000Z</time>
      </trkpt>
      <trkpt lat="44.66463" lon="5.04309">
        <ele>630</ele>
        <time>2026-05-26T12:01:53.000Z</time>
      </trkpt>
      <trkpt lat="44.66463" lon="5.04307">
        <ele>630</ele>
        <time>2026-05-26T12:01:54.000Z</time>
      </trkpt>
      <trkpt lat="44.66463" lon="5.04306">
        <ele>631</ele>
        <time>2026-05-26T12:01:55.000Z</time>
      </trkpt>
      <trkpt lat="44.66463" lon="5.04304">
        <ele>630</ele>
        <time>2026-05-26T12:01:56.000Z</time>
      </trkpt>
      <trkpt lat="44.66463" lon="5.04303">
        <ele>630</ele>
        <time>2026-05-26T12:01:57.000Z</time>
      </trkpt>
      <trkpt lat="44.66462" lon="5.04301">
        <ele>630</ele>
        <time>2026-05-26T12:01:58.000Z</time>
      </trkpt>
      <trkpt lat="44.66463" lon="5.04299">
        <ele>630</ele>
        <time>2026-05-26T12:01:59.000Z</time>
      </trkpt>
      <trkpt lat="44.66463" lon="5.04297">
        <ele>630</ele>
        <time>2026-05-26T12:02:00.000Z</time>
      </trkpt>
      <trkpt lat="44.66463" lon="5.04296">
        <ele>630</ele>
        <time>2026-05-26T12:02:01.000Z</time>
      </trkpt>
      <trkpt lat="44.66463" lon="5.04294">
        <ele>629</ele>
        <time>2026-05-26T12:02:02.000Z</time>
      </trkpt>
      <trkpt lat="44.66463" lon="5.04292">
        <ele>630</ele>
        <time>2026-05-26T12:02:03.000Z</time>
      </trkpt>
      <trkpt lat="44.66463" lon="5.04291">
        <ele>630</ele>
        <time>2026-05-26T12:02:04.000Z</time>
      </trkpt>
      <trkpt lat="44.66462" lon="5.0429">
        <ele>630</ele>
        <time>2026-05-26T12:02:05.000Z</time>
      </trkpt>
      <trkpt lat="44.66461" lon="5.04288">
        <ele>630</ele>
        <time>2026-05-26T12:02:06.000Z</time>
      </trkpt>
      <trkpt lat="44.6646" lon="5.04287">
        <ele>630</ele>
        <time>2026-05-26T12:02:07.000Z</time>
      </trkpt>
      <trkpt lat="44.66459" lon="5.04285">
        <ele>631</ele>
        <time>2026-05-26T12:02:08.000Z</time>
      </trkpt>
      <trkpt lat="44.66459" lon="5.04283">
        <ele>630</ele>
        <time>2026-05-26T12:02:09.000Z</time>
      </trkpt>
      <trkpt lat="44.66459" lon="5.04281">
        <ele>628</ele>
        <time>2026-05-26T12:02:10.000Z</time>
      </trkpt>
      <trkpt lat="44.6646" lon="5.0428">
        <ele>628</ele>
        <time>2026-05-26T12:02:11.000Z</time>
      </trkpt>
      <trkpt lat="44.6646" lon="5.04278">
        <ele>628</ele>
        <time>2026-05-26T12:02:12.000Z</time>
      </trkpt>
      <trkpt lat="44.6646" lon="5.04276">
        <ele>627</ele>
        <time>2026-05-26T12:02:13.000Z</time>
      </trkpt>
      <trkpt lat="44.6646" lon="5.04275">
        <ele>626</ele>
        <time>2026-05-26T12:02:14.000Z</time>
      </trkpt>
      <trkpt lat="44.6646" lon="5.04273">
        <ele>626</ele>
        <time>2026-05-26T12:02:15.000Z</time>
      </trkpt>
      <trkpt lat="44.6646" lon="5.04271">
        <ele>625</ele>
        <time>2026-05-26T12:02:16.000Z</time>
      </trkpt>
      <trkpt lat="44.6646" lon="5.04269">
        <ele>624</ele>
        <time>2026-05-26T12:02:17.000Z</time>
      </trkpt>
      <trkpt lat="44.66459" lon="5.04267">
        <ele>625</ele>
        <time>2026-05-26T12:02:18.000Z</time>
      </trkpt>
      <trkpt lat="44.66459" lon="5.04266">
        <ele>625</ele>
        <time>2026-05-26T12:02:19.000Z</time>
      </trkpt>
      <trkpt lat="44.66459" lon="5.04264">
        <ele>625</ele>
        <time>2026-05-26T12:02:20.000Z</time>
      </trkpt>
      <trkpt lat="44.6646" lon="5.04262">
        <ele>625</ele>
        <time>2026-05-26T12:02:21.000Z</time>
      </trkpt>
      <trkpt lat="44.66459" lon="5.0426">
        <ele>624</ele>
        <time>2026-05-26T12:02:22.000Z</time>
      </trkpt>
      <trkpt lat="44.66459" lon="5.04258">
        <ele>624</ele>
        <time>2026-05-26T12:02:23.000Z</time>
      </trkpt>
      <trkpt lat="44.66459" lon="5.04256">
        <ele>623</ele>
        <time>2026-05-26T12:02:24.000Z</time>
      </trkpt>
      <trkpt lat="44.66459" lon="5.04253">
        <ele>622</ele>
        <time>2026-05-26T12:02:25.000Z</time>
      </trkpt>
      <trkpt lat="44.66459" lon="5.04251">
        <ele>622</ele>
        <time>2026-05-26T12:02:26.000Z</time>
      </trkpt>
      <trkpt lat="44.66459" lon="5.04248">
        <ele>623</ele>
        <time>2026-05-26T12:02:27.000Z</time>
      </trkpt>
      <trkpt lat="44.66458" lon="5.04247">
        <ele>622</ele>
        <time>2026-05-26T12:02:28.000Z</time>
      </trkpt>
      <trkpt lat="44.66458" lon="5.04246">
        <ele>623</ele>
        <time>2026-05-26T12:02:29.000Z</time>
      </trkpt>
      <trkpt lat="44.66458" lon="5.04244">
        <ele>624</ele>
        <time>2026-05-26T12:02:30.000Z</time>
      </trkpt>
      <trkpt lat="44.66458" lon="5.04242">
        <ele>623</ele>
        <time>2026-05-26T12:02:31.000Z</time>
      </trkpt>
      <trkpt lat="44.66459" lon="5.0424">
        <ele>625</ele>
        <time>2026-05-26T12:02:32.000Z</time>
      </trkpt>
      <trkpt lat="44.66459" lon="5.04239">
        <ele>624</ele>
        <time>2026-05-26T12:02:33.000Z</time>
      </trkpt>
      <trkpt lat="44.66459" lon="5.04237">
        <ele>623</ele>
        <time>2026-05-26T12:02:34.000Z</time>
      </trkpt>
      <trkpt lat="44.66459" lon="5.04237">
        <ele>624</ele>
        <time>2026-05-26T12:02:35.000Z</time>
      </trkpt>
      <trkpt lat="44.66459" lon="5.04235">
        <ele>624</ele>
        <time>2026-05-26T12:02:36.000Z</time>
      </trkpt>
      <trkpt lat="44.66459" lon="5.04233">
        <ele>623</ele>
        <time>2026-05-26T12:02:37.000Z</time>
      </trkpt>
      <trkpt lat="44.66459" lon="5.04231">
        <ele>624</ele>
        <time>2026-05-26T12:02:38.000Z</time>
      </trkpt>
      <trkpt lat="44.66458" lon="5.0423">
        <ele>624</ele>
        <time>2026-05-26T12:02:39.000Z</time>
      </trkpt>
      <trkpt lat="44.66458" lon="5.04228">
        <ele>623</ele>
        <time>2026-05-26T12:02:40.000Z</time>
      </trkpt>
      <trkpt lat="44.66458" lon="5.04226">
        <ele>622</ele>
        <time>2026-05-26T12:02:41.000Z</time>
      </trkpt>
      <trkpt lat="44.66458" lon="5.04224">
        <ele>622</ele>
        <time>2026-05-26T12:02:42.000Z</time>
      </trkpt>
      <trkpt lat="44.66458" lon="5.04223">
        <ele>621</ele>
        <time>2026-05-26T12:02:43.000Z</time>
      </trkpt>
      <trkpt lat="44.66458" lon="5.04221">
        <ele>620</ele>
        <time>2026-05-26T12:02:44.000Z</time>
      </trkpt>
      <trkpt lat="44.66458" lon="5.04219">
        <ele>620</ele>
        <time>2026-05-26T12:02:45.000Z</time>
      </trkpt>
      <trkpt lat="44.66458" lon="5.04217">
        <ele>620</ele>
        <time>2026-05-26T12:02:46.000Z</time>
      </trkpt>
      <trkpt lat="44.66457" lon="5.04215">
        <ele>619</ele>
        <time>2026-05-26T12:02:47.000Z</time>
      </trkpt>
      <trkpt lat="44.66457" lon="5.04214">
        <ele>619</ele>
        <time>2026-05-26T12:02:48.000Z</time>
      </trkpt>
      <trkpt lat="44.66457" lon="5.04213">
        <ele>619</ele>
        <time>2026-05-26T12:02:49.000Z</time>
      </trkpt>
      <trkpt lat="44.66457" lon="5.04212">
        <ele>620</ele>
        <time>2026-05-26T12:02:50.000Z</time>
      </trkpt>
      <trkpt lat="44.66457" lon="5.04211">
        <ele>620</ele>
        <time>2026-05-26T12:02:51.000Z</time>
      </trkpt>
      <trkpt lat="44.66457" lon="5.04209">
        <ele>620</ele>
        <time>2026-05-26T12:02:52.000Z</time>
      </trkpt>
      <trkpt lat="44.66456" lon="5.04207">
        <ele>620</ele>
        <time>2026-05-26T12:02:53.000Z</time>
      </trkpt>
      <trkpt lat="44.66456" lon="5.04205">
        <ele>621</ele>
        <time>2026-05-26T12:02:54.000Z</time>
      </trkpt>
      <trkpt lat="44.66455" lon="5.04203">
        <ele>620</ele>
        <time>2026-05-26T12:02:55.000Z</time>
      </trkpt>
      <trkpt lat="44.66455" lon="5.042">
        <ele>619</ele>
        <time>2026-05-26T12:02:56.000Z</time>
      </trkpt>
      <trkpt lat="44.66454" lon="5.04198">
        <ele>619</ele>
        <time>2026-05-26T12:02:57.000Z</time>
      </trkpt>
      <trkpt lat="44.66455" lon="5.04197">
        <ele>619</ele>
        <time>2026-05-26T12:02:58.000Z</time>
      </trkpt>
      <trkpt lat="44.66455" lon="5.04195">
        <ele>619</ele>
        <time>2026-05-26T12:02:59.000Z</time>
      </trkpt>
      <trkpt lat="44.66455" lon="5.04194">
        <ele>618</ele>
        <time>2026-05-26T12:03:00.000Z</time>
      </trkpt>
      <trkpt lat="44.66455" lon="5.04192">
        <ele>617</ele>
        <time>2026-05-26T12:03:01.000Z</time>
      </trkpt>
      <trkpt lat="44.66455" lon="5.0419">
        <ele>616</ele>
        <time>2026-05-26T12:03:02.000Z</time>
      </trkpt>
      <trkpt lat="44.66456" lon="5.04188">
        <ele>615</ele>
        <time>2026-05-26T12:03:03.000Z</time>
      </trkpt>
      <trkpt lat="44.66456" lon="5.04185">
        <ele>616</ele>
        <time>2026-05-26T12:03:04.000Z</time>
      </trkpt>
      <trkpt lat="44.66456" lon="5.04184">
        <ele>616</ele>
        <time>2026-05-26T12:03:05.000Z</time>
      </trkpt>
      <trkpt lat="44.66455" lon="5.04182">
        <ele>615</ele>
        <time>2026-05-26T12:03:06.000Z</time>
      </trkpt>
      <trkpt lat="44.66455" lon="5.04182">
        <ele>615</ele>
        <time>2026-05-26T12:03:07.000Z</time>
      </trkpt>
      <trkpt lat="44.66455" lon="5.04182">
        <ele>615</ele>
        <time>2026-05-26T12:03:08.000Z</time>
      </trkpt>
      <trkpt lat="44.66455" lon="5.04182">
        <ele>615</ele>
        <time>2026-05-26T12:03:09.000Z</time>
      </trkpt>
      <trkpt lat="44.66455" lon="5.04182">
        <ele>615</ele>
        <time>2026-05-26T12:03:10.000Z</time>
      </trkpt>
      <trkpt lat="44.66455" lon="5.04182">
        <ele>615</ele>
        <time>2026-05-26T12:03:11.000Z</time>
      </trkpt>
      <trkpt lat="44.66455" lon="5.04182">
        <ele>615</ele>
        <time>2026-05-26T12:03:12.000Z</time>
      </trkpt>
      <trkpt lat="44.66453" lon="5.04182">
        <ele>614</ele>
        <time>2026-05-26T12:03:13.000Z</time>
      </trkpt>
      <trkpt lat="44.66452" lon="5.04182">
        <ele>614</ele>
        <time>2026-05-26T12:03:14.000Z</time>
      </trkpt>
      <trkpt lat="44.66452" lon="5.04181">
        <ele>613</ele>
        <time>2026-05-26T12:03:15.000Z</time>
      </trkpt>
      <trkpt lat="44.66451" lon="5.0418">
        <ele>614</ele>
        <time>2026-05-26T12:03:16.000Z</time>
      </trkpt>
      <trkpt lat="44.66451" lon="5.0418">
        <ele>614</ele>
        <time>2026-05-26T12:03:17.000Z</time>
      </trkpt>
      <trkpt lat="44.66451" lon="5.0418">
        <ele>614</ele>
        <time>2026-05-26T12:03:18.000Z</time>
      </trkpt>
      <trkpt lat="44.6645" lon="5.04178">
        <ele>614</ele>
        <time>2026-05-26T12:03:19.000Z</time>
      </trkpt>
      <trkpt lat="44.66449" lon="5.04178">
        <ele>614</ele>
        <time>2026-05-26T12:03:20.000Z</time>
      </trkpt>
      <trkpt lat="44.66449" lon="5.04177">
        <ele>614</ele>
        <time>2026-05-26T12:03:21.000Z</time>
      </trkpt>
      <trkpt lat="44.66448" lon="5.04176">
        <ele>615</ele>
        <time>2026-05-26T12:03:22.000Z</time>
      </trkpt>
      <trkpt lat="44.66448" lon="5.04176">
        <ele>615</ele>
        <time>2026-05-26T12:03:23.000Z</time>
      </trkpt>
      <trkpt lat="44.66448" lon="5.04176">
        <ele>615</ele>
        <time>2026-05-26T12:03:24.000Z</time>
      </trkpt>
      <trkpt lat="44.66444" lon="5.04174">
        <ele>614</ele>
        <time>2026-05-26T12:03:25.000Z</time>
      </trkpt>
      <trkpt lat="44.66443" lon="5.04173">
        <ele>614</ele>
        <time>2026-05-26T12:03:26.000Z</time>
      </trkpt>
      <trkpt lat="44.66442" lon="5.04172">
        <ele>614</ele>
        <time>2026-05-26T12:03:27.000Z</time>
      </trkpt>
      <trkpt lat="44.66441" lon="5.04171">
        <ele>613</ele>
        <time>2026-05-26T12:03:28.000Z</time>
      </trkpt>
      <trkpt lat="44.6644" lon="5.0417">
        <ele>612</ele>
        <time>2026-05-26T12:03:29.000Z</time>
      </trkpt>
      <trkpt lat="44.6644" lon="5.0417">
        <ele>612</ele>
        <time>2026-05-26T12:03:30.000Z</time>
      </trkpt>
      <trkpt lat="44.6644" lon="5.0417">
        <ele>612</ele>
        <time>2026-05-26T12:03:31.000Z</time>
      </trkpt>
      <trkpt lat="44.6644" lon="5.0417">
        <ele>612</ele>
        <time>2026-05-26T12:03:32.000Z</time>
      </trkpt>
      <trkpt lat="44.6644" lon="5.0417">
        <ele>612</ele>
        <time>2026-05-26T12:03:33.000Z</time>
      </trkpt>
      <trkpt lat="44.6644" lon="5.0417">
        <ele>612</ele>
        <time>2026-05-26T12:03:34.000Z</time>
      </trkpt>
      <trkpt lat="44.6644" lon="5.0417">
        <ele>612</ele>
        <time>2026-05-26T12:03:35.000Z</time>
      </trkpt>
      <trkpt lat="44.6644" lon="5.0417">
        <ele>612</ele>
        <time>2026-05-26T12:03:36.000Z</time>
      </trkpt>
      <trkpt lat="44.6644" lon="5.0417">
        <ele>612</ele>
        <time>2026-05-26T12:03:37.000Z</time>
      </trkpt>
      <trkpt lat="44.6644" lon="5.0417">
        <ele>612</ele>
        <time>2026-05-26T12:03:38.000Z</time>
      </trkpt>
      <trkpt lat="44.6644" lon="5.0417">
        <ele>612</ele>
        <time>2026-05-26T12:03:39.000Z</time>
      </trkpt>
      <trkpt lat="44.6644" lon="5.0417">
        <ele>612</ele>
        <time>2026-05-26T12:03:40.000Z</time>
      </trkpt>
      <trkpt lat="44.6644" lon="5.0417">
        <ele>612</ele>
        <time>2026-05-26T12:03:41.000Z</time>
      </trkpt>
      <trkpt lat="44.6644" lon="5.0417">
        <ele>612</ele>
        <time>2026-05-26T12:03:42.000Z</time>
      </trkpt>
      <trkpt lat="44.6644" lon="5.0417">
        <ele>612</ele>
        <time>2026-05-26T12:03:43.000Z</time>
      </trkpt>
      <trkpt lat="44.6644" lon="5.0417">
        <ele>612</ele>
        <time>2026-05-26T12:03:44.000Z</time>
      </trkpt>
      <trkpt lat="44.6644" lon="5.0417">
        <ele>612</ele>
        <time>2026-05-26T12:03:45.000Z</time>
      </trkpt>
      <trkpt lat="44.6644" lon="5.0417">
        <ele>612</ele>
        <time>2026-05-26T12:03:46.000Z</time>
      </trkpt>
      <trkpt lat="44.6644" lon="5.0417">
        <ele>612</ele>
        <time>2026-05-26T12:03:47.000Z</time>
      </trkpt>
      <trkpt lat="44.6644" lon="5.0417">
        <ele>612</ele>
        <time>2026-05-26T12:03:48.000Z</time>
      </trkpt>
      <trkpt lat="44.6644" lon="5.0417">
        <ele>612</ele>
        <time>2026-05-26T12:03:49.000Z</time>
      </trkpt>
      <trkpt lat="44.6644" lon="5.0417">
        <ele>612</ele>
        <time>2026-05-26T12:03:50.000Z</time>
      </trkpt>
      <trkpt lat="44.6644" lon="5.0417">
        <ele>612</ele>
        <time>2026-05-26T12:03:51.000Z</time>
      </trkpt>
      <trkpt lat="44.6644" lon="5.0417">
        <ele>612</ele>
        <time>2026-05-26T12:03:52.000Z</time>
      </trkpt>
      <trkpt lat="44.6644" lon="5.0417">
        <ele>612</ele>
        <time>2026-05-26T12:03:53.000Z</time>
      </trkpt>
      <trkpt lat="44.6644" lon="5.0417">
        <ele>612</ele>
        <time>2026-05-26T12:03:54.000Z</time>
      </trkpt>
      <trkpt lat="44.66437" lon="5.04171">
        <ele>613</ele>
        <time>2026-05-26T12:03:55.000Z</time>
      </trkpt>
      <trkpt lat="44.66436" lon="5.0417">
        <ele>612</ele>
        <time>2026-05-26T12:03:56.000Z</time>
      </trkpt>
      <trkpt lat="44.66435" lon="5.04169">
        <ele>613</ele>
        <time>2026-05-26T12:03:57.000Z</time>
      </trkpt>
      <trkpt lat="44.66435" lon="5.04167">
        <ele>612</ele>
        <time>2026-05-26T12:03:58.000Z</time>
      </trkpt>
      <trkpt lat="44.66434" lon="5.04166">
        <ele>612</ele>
        <time>2026-05-26T12:03:59.000Z</time>
      </trkpt>
      <trkpt lat="44.66434" lon="5.04166">
        <ele>612</ele>
        <time>2026-05-26T12:04:00.000Z</time>
      </trkpt>
      <trkpt lat="44.66434" lon="5.04167">
        <ele>612</ele>
        <time>2026-05-26T12:04:01.000Z</time>
      </trkpt>
      <trkpt lat="44.66434" lon="5.04168">
        <ele>613</ele>
        <time>2026-05-26T12:04:02.000Z</time>
      </trkpt>
      <trkpt lat="44.66435" lon="5.04169">
        <ele>613</ele>
        <time>2026-05-26T12:04:03.000Z</time>
      </trkpt>
      <trkpt lat="44.66435" lon="5.04169">
        <ele>613</ele>
        <time>2026-05-26T12:04:04.000Z</time>
      </trkpt>
      <trkpt lat="44.66435" lon="5.04169">
        <ele>613</ele>
        <time>2026-05-26T12:04:05.000Z</time>
      </trkpt>
      <trkpt lat="44.66435" lon="5.04169">
        <ele>613</ele>
        <time>2026-05-26T12:04:06.000Z</time>
      </trkpt>
      <trkpt lat="44.66435" lon="5.04169">
        <ele>613</ele>
        <time>2026-05-26T12:04:07.000Z</time>
      </trkpt>
      <trkpt lat="44.66435" lon="5.04169">
        <ele>613</ele>
        <time>2026-05-26T12:04:08.000Z</time>
      </trkpt>
      <trkpt lat="44.66435" lon="5.04169">
        <ele>613</ele>
        <time>2026-05-26T12:04:09.000Z</time>
      </trkpt>
      <trkpt lat="44.66435" lon="5.04169">
        <ele>613</ele>
        <time>2026-05-26T12:04:10.000Z</time>
      </trkpt>
      <trkpt lat="44.66435" lon="5.04169">
        <ele>613</ele>
        <time>2026-05-26T12:04:11.000Z</time>
      </trkpt>
      <trkpt lat="44.66435" lon="5.04169">
        <ele>613</ele>
        <time>2026-05-26T12:04:12.000Z</time>
      </trkpt>
      <trkpt lat="44.66435" lon="5.04169">
        <ele>613</ele>
        <time>2026-05-26T12:04:13.000Z</time>
      </trkpt>
      <trkpt lat="44.66435" lon="5.04169">
        <ele>613</ele>
        <time>2026-05-26T12:04:14.000Z</time>
      </trkpt>
      <trkpt lat="44.66434" lon="5.04168">
        <ele>614</ele>
        <time>2026-05-26T12:04:15.000Z</time>
      </trkpt>
      <trkpt lat="44.66433" lon="5.04167">
        <ele>615</ele>
        <time>2026-05-26T12:04:16.000Z</time>
      </trkpt>
      <trkpt lat="44.66432" lon="5.04166">
        <ele>615</ele>
        <time>2026-05-26T12:04:17.000Z</time>
      </trkpt>
      <trkpt lat="44.66432" lon="5.04165">
        <ele>615</ele>
        <time>2026-05-26T12:04:18.000Z</time>
      </trkpt>
      <trkpt lat="44.66432" lon="5.04164">
        <ele>615</ele>
        <time>2026-05-26T12:04:19.000Z</time>
      </trkpt>
      <trkpt lat="44.66431" lon="5.04164">
        <ele>616</ele>
        <time>2026-05-26T12:04:20.000Z</time>
      </trkpt>
      <trkpt lat="44.66432" lon="5.04164">
        <ele>615</ele>
        <time>2026-05-26T12:04:21.000Z</time>
      </trkpt>
      <trkpt lat="44.66431" lon="5.04162">
        <ele>616</ele>
        <time>2026-05-26T12:04:22.000Z</time>
      </trkpt>
      <trkpt lat="44.66431" lon="5.04161">
        <ele>616</ele>
        <time>2026-05-26T12:04:23.000Z</time>
      </trkpt>
      <trkpt lat="44.6643" lon="5.0416">
        <ele>616</ele>
        <time>2026-05-26T12:04:24.000Z</time>
      </trkpt>
      <trkpt lat="44.6643" lon="5.04158">
        <ele>616</ele>
        <time>2026-05-26T12:04:25.000Z</time>
      </trkpt>
      <trkpt lat="44.6643" lon="5.04157">
        <ele>616</ele>
        <time>2026-05-26T12:04:26.000Z</time>
      </trkpt>
      <trkpt lat="44.6643" lon="5.04155">
        <ele>616</ele>
        <time>2026-05-26T12:04:27.000Z</time>
      </trkpt>
      <trkpt lat="44.66431" lon="5.04154">
        <ele>617</ele>
        <time>2026-05-26T12:04:28.000Z</time>
      </trkpt>
      <trkpt lat="44.66432" lon="5.04151">
        <ele>619</ele>
        <time>2026-05-26T12:04:29.000Z</time>
      </trkpt>
      <trkpt lat="44.66431" lon="5.04149">
        <ele>619</ele>
        <time>2026-05-26T12:04:30.000Z</time>
      </trkpt>
      <trkpt lat="44.6643" lon="5.04148">
        <ele>619</ele>
        <time>2026-05-26T12:04:31.000Z</time>
      </trkpt>
      <trkpt lat="44.66429" lon="5.04146">
        <ele>619</ele>
        <time>2026-05-26T12:04:32.000Z</time>
      </trkpt>
      <trkpt lat="44.66429" lon="5.04146">
        <ele>620</ele>
        <time>2026-05-26T12:04:33.000Z</time>
      </trkpt>
      <trkpt lat="44.66429" lon="5.04146">
        <ele>620</ele>
        <time>2026-05-26T12:04:34.000Z</time>
      </trkpt>
      <trkpt lat="44.66426" lon="5.04144">
        <ele>620</ele>
        <time>2026-05-26T12:04:35.000Z</time>
      </trkpt>
      <trkpt lat="44.66423" lon="5.04143">
        <ele>620</ele>
        <time>2026-05-26T12:04:36.000Z</time>
      </trkpt>
      <trkpt lat="44.66422" lon="5.04142">
        <ele>619</ele>
        <time>2026-05-26T12:04:37.000Z</time>
      </trkpt>
      <trkpt lat="44.66421" lon="5.0414">
        <ele>618</ele>
        <time>2026-05-26T12:04:38.000Z</time>
      </trkpt>
      <trkpt lat="44.6642" lon="5.04138">
        <ele>616</ele>
        <time>2026-05-26T12:04:39.000Z</time>
      </trkpt>
      <trkpt lat="44.6642" lon="5.04137">
        <ele>615</ele>
        <time>2026-05-26T12:04:40.000Z</time>
      </trkpt>
      <trkpt lat="44.66418" lon="5.04136">
        <ele>615</ele>
        <time>2026-05-26T12:04:41.000Z</time>
      </trkpt>
      <trkpt lat="44.66416" lon="5.04135">
        <ele>615</ele>
        <time>2026-05-26T12:04:42.000Z</time>
      </trkpt>
      <trkpt lat="44.66415" lon="5.04135">
        <ele>614</ele>
        <time>2026-05-26T12:04:43.000Z</time>
      </trkpt>
      <trkpt lat="44.66414" lon="5.04134">
        <ele>614</ele>
        <time>2026-05-26T12:04:44.000Z</time>
      </trkpt>
      <trkpt lat="44.66412" lon="5.04134">
        <ele>614</ele>
        <time>2026-05-26T12:04:45.000Z</time>
      </trkpt>
      <trkpt lat="44.66411" lon="5.04132">
        <ele>614</ele>
        <time>2026-05-26T12:04:46.000Z</time>
      </trkpt>
      <trkpt lat="44.6641" lon="5.04132">
        <ele>614</ele>
        <time>2026-05-26T12:04:47.000Z</time>
      </trkpt>
      <trkpt lat="44.66408" lon="5.04132">
        <ele>614</ele>
        <time>2026-05-26T12:04:48.000Z</time>
      </trkpt>
      <trkpt lat="44.66406" lon="5.04132">
        <ele>614</ele>
        <time>2026-05-26T12:04:49.000Z</time>
      </trkpt>
      <trkpt lat="44.66404" lon="5.04133">
        <ele>614</ele>
        <time>2026-05-26T12:04:50.000Z</time>
      </trkpt>
      <trkpt lat="44.66407" lon="5.04133">
        <ele>614</ele>
        <time>2026-05-26T12:04:51.000Z</time>
      </trkpt>
      <trkpt lat="44.66409" lon="5.04134">
        <ele>614</ele>
        <time>2026-05-26T12:04:52.000Z</time>
      </trkpt>
      <trkpt lat="44.66411" lon="5.04135">
        <ele>613</ele>
        <time>2026-05-26T12:04:53.000Z</time>
      </trkpt>
      <trkpt lat="44.66407" lon="5.04133">
        <ele>613</ele>
        <time>2026-05-26T12:04:54.000Z</time>
      </trkpt>
      <trkpt lat="44.66403" lon="5.04131">
        <ele>613</ele>
        <time>2026-05-26T12:04:55.000Z</time>
      </trkpt>
      <trkpt lat="44.66397" lon="5.04131">
        <ele>614</ele>
        <time>2026-05-26T12:04:56.000Z</time>
      </trkpt>
      <trkpt lat="44.66396" lon="5.0413">
        <ele>614</ele>
        <time>2026-05-26T12:04:57.000Z</time>
      </trkpt>
      <trkpt lat="44.66395" lon="5.04129">
        <ele>614</ele>
        <time>2026-05-26T12:04:58.000Z</time>
      </trkpt>
      <trkpt lat="44.66394" lon="5.04129">
        <ele>614</ele>
        <time>2026-05-26T12:04:59.000Z</time>
      </trkpt>
      <trkpt lat="44.66393" lon="5.04128">
        <ele>613</ele>
        <time>2026-05-26T12:05:00.000Z</time>
      </trkpt>
      <trkpt lat="44.66392" lon="5.04127">
        <ele>613</ele>
        <time>2026-05-26T12:05:01.000Z</time>
      </trkpt>
      <trkpt lat="44.66391" lon="5.04127">
        <ele>613</ele>
        <time>2026-05-26T12:05:02.000Z</time>
      </trkpt>
      <trkpt lat="44.66389" lon="5.04127">
        <ele>614</ele>
        <time>2026-05-26T12:05:03.000Z</time>
      </trkpt>
      <trkpt lat="44.66388" lon="5.04127">
        <ele>613</ele>
        <time>2026-05-26T12:05:04.000Z</time>
      </trkpt>
      <trkpt lat="44.66386" lon="5.0413">
        <ele>613</ele>
        <time>2026-05-26T12:05:05.000Z</time>
      </trkpt>
      <trkpt lat="44.66386" lon="5.04133">
        <ele>615</ele>
        <time>2026-05-26T12:05:06.000Z</time>
      </trkpt>
      <trkpt lat="44.66385" lon="5.04134">
        <ele>615</ele>
        <time>2026-05-26T12:05:07.000Z</time>
      </trkpt>
      <trkpt lat="44.66385" lon="5.04135">
        <ele>614</ele>
        <time>2026-05-26T12:05:08.000Z</time>
      </trkpt>
      <trkpt lat="44.66386" lon="5.04136">
        <ele>616</ele>
        <time>2026-05-26T12:05:09.000Z</time>
      </trkpt>
      <trkpt lat="44.66386" lon="5.04136">
        <ele>616</ele>
        <time>2026-05-26T12:05:10.000Z</time>
      </trkpt>
      <trkpt lat="44.66387" lon="5.04137">
        <ele>616</ele>
        <time>2026-05-26T12:05:11.000Z</time>
      </trkpt>
      <trkpt lat="44.66387" lon="5.04137">
        <ele>616</ele>
        <time>2026-05-26T12:05:12.000Z</time>
      </trkpt>
      <trkpt lat="44.66387" lon="5.04137">
        <ele>616</ele>
        <time>2026-05-26T12:05:13.000Z</time>
      </trkpt>
      <trkpt lat="44.66387" lon="5.04137">
        <ele>616</ele>
        <time>2026-05-26T12:05:14.000Z</time>
      </trkpt>
      <trkpt lat="44.66387" lon="5.04137">
        <ele>616</ele>
        <time>2026-05-26T12:05:15.000Z</time>
      </trkpt>
      <trkpt lat="44.66386" lon="5.04136">
        <ele>617</ele>
        <time>2026-05-26T12:05:16.000Z</time>
      </trkpt>
      <trkpt lat="44.66386" lon="5.04135">
        <ele>618</ele>
        <time>2026-05-26T12:05:17.000Z</time>
      </trkpt>
      <trkpt lat="44.66385" lon="5.04135">
        <ele>617</ele>
        <time>2026-05-26T12:05:18.000Z</time>
      </trkpt>
      <trkpt lat="44.66384" lon="5.04134">
        <ele>617</ele>
        <time>2026-05-26T12:05:19.000Z</time>
      </trkpt>
      <trkpt lat="44.66382" lon="5.04133">
        <ele>618</ele>
        <time>2026-05-26T12:05:20.000Z</time>
      </trkpt>
      <trkpt lat="44.66381" lon="5.04133">
        <ele>617</ele>
        <time>2026-05-26T12:05:21.000Z</time>
      </trkpt>
      <trkpt lat="44.6638" lon="5.04133">
        <ele>617</ele>
        <time>2026-05-26T12:05:22.000Z</time>
      </trkpt>
      <trkpt lat="44.66379" lon="5.04133">
        <ele>617</ele>
        <time>2026-05-26T12:05:23.000Z</time>
      </trkpt>
      <trkpt lat="44.66377" lon="5.04133">
        <ele>617</ele>
        <time>2026-05-26T12:05:24.000Z</time>
      </trkpt>
      <trkpt lat="44.66376" lon="5.04133">
        <ele>617</ele>
        <time>2026-05-26T12:05:25.000Z</time>
      </trkpt>
      <trkpt lat="44.66375" lon="5.04133">
        <ele>617</ele>
        <time>2026-05-26T12:05:26.000Z</time>
      </trkpt>
      <trkpt lat="44.66374" lon="5.04132">
        <ele>617</ele>
        <time>2026-05-26T12:05:27.000Z</time>
      </trkpt>
      <trkpt lat="44.66373" lon="5.04132">
        <ele>617</ele>
        <time>2026-05-26T12:05:28.000Z</time>
      </trkpt>
      <trkpt lat="44.66372" lon="5.04132">
        <ele>618</ele>
        <time>2026-05-26T12:05:29.000Z</time>
      </trkpt>
      <trkpt lat="44.6637" lon="5.04132">
        <ele>617</ele>
        <time>2026-05-26T12:05:30.000Z</time>
      </trkpt>
      <trkpt lat="44.66368" lon="5.04132">
        <ele>617</ele>
        <time>2026-05-26T12:05:31.000Z</time>
      </trkpt>
      <trkpt lat="44.66367" lon="5.04132">
        <ele>617</ele>
        <time>2026-05-26T12:05:32.000Z</time>
      </trkpt>
      <trkpt lat="44.66366" lon="5.04132">
        <ele>617</ele>
        <time>2026-05-26T12:05:33.000Z</time>
      </trkpt>
      <trkpt lat="44.66365" lon="5.04132">
        <ele>617</ele>
        <time>2026-05-26T12:05:34.000Z</time>
      </trkpt>
      <trkpt lat="44.66364" lon="5.04132">
        <ele>616</ele>
        <time>2026-05-26T12:05:35.000Z</time>
      </trkpt>
      <trkpt lat="44.66363" lon="5.04131">
        <ele>616</ele>
        <time>2026-05-26T12:05:36.000Z</time>
      </trkpt>
      <trkpt lat="44.66362" lon="5.04131">
        <ele>616</ele>
        <time>2026-05-26T12:05:37.000Z</time>
      </trkpt>
      <trkpt lat="44.66361" lon="5.04131">
        <ele>615</ele>
        <time>2026-05-26T12:05:38.000Z</time>
      </trkpt>
      <trkpt lat="44.6636" lon="5.0413">
        <ele>616</ele>
        <time>2026-05-26T12:05:39.000Z</time>
      </trkpt>
      <trkpt lat="44.66358" lon="5.04129">
        <ele>617</ele>
        <time>2026-05-26T12:05:40.000Z</time>
      </trkpt>
      <trkpt lat="44.66358" lon="5.04129">
        <ele>617</ele>
        <time>2026-05-26T12:05:41.000Z</time>
      </trkpt>
      <trkpt lat="44.66357" lon="5.04128">
        <ele>616</ele>
        <time>2026-05-26T12:05:42.000Z</time>
      </trkpt>
      <trkpt lat="44.66356" lon="5.04126">
        <ele>616</ele>
        <time>2026-05-26T12:05:43.000Z</time>
      </trkpt>
      <trkpt lat="44.66354" lon="5.04126">
        <ele>616</ele>
        <time>2026-05-26T12:05:44.000Z</time>
      </trkpt>
      <trkpt lat="44.66353" lon="5.04126">
        <ele>617</ele>
        <time>2026-05-26T12:05:45.000Z</time>
      </trkpt>
      <trkpt lat="44.66352" lon="5.04125">
        <ele>618</ele>
        <time>2026-05-26T12:05:46.000Z</time>
      </trkpt>
      <trkpt lat="44.66351" lon="5.04124">
        <ele>618</ele>
        <time>2026-05-26T12:05:47.000Z</time>
      </trkpt>
      <trkpt lat="44.66349" lon="5.04123">
        <ele>618</ele>
        <time>2026-05-26T12:05:48.000Z</time>
      </trkpt>
      <trkpt lat="44.66349" lon="5.04122">
        <ele>619</ele>
        <time>2026-05-26T12:05:49.000Z</time>
      </trkpt>
      <trkpt lat="44.66348" lon="5.04121">
        <ele>619</ele>
        <time>2026-05-26T12:05:50.000Z</time>
      </trkpt>
      <trkpt lat="44.66346" lon="5.0412">
        <ele>619</ele>
        <time>2026-05-26T12:05:51.000Z</time>
      </trkpt>
      <trkpt lat="44.66345" lon="5.04119">
        <ele>619</ele>
        <time>2026-05-26T12:05:52.000Z</time>
      </trkpt>
      <trkpt lat="44.66344" lon="5.04119">
        <ele>620</ele>
        <time>2026-05-26T12:05:53.000Z</time>
      </trkpt>
      <trkpt lat="44.66343" lon="5.04118">
        <ele>620</ele>
        <time>2026-05-26T12:05:54.000Z</time>
      </trkpt>
      <trkpt lat="44.66342" lon="5.04117">
        <ele>620</ele>
        <time>2026-05-26T12:05:55.000Z</time>
      </trkpt>
      <trkpt lat="44.66341" lon="5.04116">
        <ele>619</ele>
        <time>2026-05-26T12:05:56.000Z</time>
      </trkpt>
      <trkpt lat="44.6634" lon="5.04116">
        <ele>619</ele>
        <time>2026-05-26T12:05:57.000Z</time>
      </trkpt>
      <trkpt lat="44.66339" lon="5.04116">
        <ele>618</ele>
        <time>2026-05-26T12:05:58.000Z</time>
      </trkpt>
      <trkpt lat="44.66338" lon="5.04116">
        <ele>619</ele>
        <time>2026-05-26T12:05:59.000Z</time>
      </trkpt>
      <trkpt lat="44.66336" lon="5.04116">
        <ele>620</ele>
        <time>2026-05-26T12:06:00.000Z</time>
      </trkpt>
      <trkpt lat="44.66336" lon="5.04115">
        <ele>619</ele>
        <time>2026-05-26T12:06:01.000Z</time>
      </trkpt>
      <trkpt lat="44.66335" lon="5.04114">
        <ele>619</ele>
        <time>2026-05-26T12:06:02.000Z</time>
      </trkpt>
      <trkpt lat="44.66334" lon="5.04113">
        <ele>619</ele>
        <time>2026-05-26T12:06:03.000Z</time>
      </trkpt>
      <trkpt lat="44.66333" lon="5.04113">
        <ele>619</ele>
        <time>2026-05-26T12:06:04.000Z</time>
      </trkpt>
      <trkpt lat="44.66332" lon="5.04113">
        <ele>619</ele>
        <time>2026-05-26T12:06:05.000Z</time>
      </trkpt>
      <trkpt lat="44.66331" lon="5.04112">
        <ele>619</ele>
        <time>2026-05-26T12:06:06.000Z</time>
      </trkpt>
      <trkpt lat="44.6633" lon="5.04111">
        <ele>618</ele>
        <time>2026-05-26T12:06:07.000Z</time>
      </trkpt>
      <trkpt lat="44.66329" lon="5.04109">
        <ele>618</ele>
        <time>2026-05-26T12:06:08.000Z</time>
      </trkpt>
      <trkpt lat="44.66329" lon="5.04107">
        <ele>618</ele>
        <time>2026-05-26T12:06:09.000Z</time>
      </trkpt>
      <trkpt lat="44.66327" lon="5.04106">
        <ele>618</ele>
        <time>2026-05-26T12:06:10.000Z</time>
      </trkpt>
      <trkpt lat="44.66326" lon="5.04105">
        <ele>618</ele>
        <time>2026-05-26T12:06:11.000Z</time>
      </trkpt>
      <trkpt lat="44.66326" lon="5.04104">
        <ele>617</ele>
        <time>2026-05-26T12:06:12.000Z</time>
      </trkpt>
      <trkpt lat="44.66325" lon="5.04102">
        <ele>617</ele>
        <time>2026-05-26T12:06:13.000Z</time>
      </trkpt>
      <trkpt lat="44.66325" lon="5.041">
        <ele>617</ele>
        <time>2026-05-26T12:06:14.000Z</time>
      </trkpt>
      <trkpt lat="44.66324" lon="5.04098">
        <ele>618</ele>
        <time>2026-05-26T12:06:15.000Z</time>
      </trkpt>
      <trkpt lat="44.66323" lon="5.04096">
        <ele>618</ele>
        <time>2026-05-26T12:06:16.000Z</time>
      </trkpt>
      <trkpt lat="44.66322" lon="5.04095">
        <ele>618</ele>
        <time>2026-05-26T12:06:17.000Z</time>
      </trkpt>
      <trkpt lat="44.66322" lon="5.04094">
        <ele>618</ele>
        <time>2026-05-26T12:06:18.000Z</time>
      </trkpt>
      <trkpt lat="44.66321" lon="5.04092">
        <ele>618</ele>
        <time>2026-05-26T12:06:19.000Z</time>
      </trkpt>
      <trkpt lat="44.66321" lon="5.04091">
        <ele>619</ele>
        <time>2026-05-26T12:06:20.000Z</time>
      </trkpt>
      <trkpt lat="44.6632" lon="5.04089">
        <ele>619</ele>
        <time>2026-05-26T12:06:21.000Z</time>
      </trkpt>
      <trkpt lat="44.66318" lon="5.04088">
        <ele>620</ele>
        <time>2026-05-26T12:06:22.000Z</time>
      </trkpt>
      <trkpt lat="44.66317" lon="5.04087">
        <ele>620</ele>
        <time>2026-05-26T12:06:23.000Z</time>
      </trkpt>
      <trkpt lat="44.66317" lon="5.04085">
        <ele>620</ele>
        <time>2026-05-26T12:06:24.000Z</time>
      </trkpt>
      <trkpt lat="44.66317" lon="5.04084">
        <ele>620</ele>
        <time>2026-05-26T12:06:25.000Z</time>
      </trkpt>
      <trkpt lat="44.66316" lon="5.04084">
        <ele>620</ele>
        <time>2026-05-26T12:06:26.000Z</time>
      </trkpt>
      <trkpt lat="44.66316" lon="5.04084">
        <ele>621</ele>
        <time>2026-05-26T12:06:27.000Z</time>
      </trkpt>
      <trkpt lat="44.66316" lon="5.04084">
        <ele>621</ele>
        <time>2026-05-26T12:06:28.000Z</time>
      </trkpt>
      <trkpt lat="44.66316" lon="5.04083">
        <ele>621</ele>
        <time>2026-05-26T12:06:29.000Z</time>
      </trkpt>
      <trkpt lat="44.66316" lon="5.04082">
        <ele>621</ele>
        <time>2026-05-26T12:06:30.000Z</time>
      </trkpt>
      <trkpt lat="44.66316" lon="5.0408">
        <ele>621</ele>
        <time>2026-05-26T12:06:31.000Z</time>
      </trkpt>
      <trkpt lat="44.66315" lon="5.04078">
        <ele>621</ele>
        <time>2026-05-26T12:06:32.000Z</time>
      </trkpt>
      <trkpt lat="44.66315" lon="5.04077">
        <ele>621</ele>
        <time>2026-05-26T12:06:33.000Z</time>
      </trkpt>
      <trkpt lat="44.66314" lon="5.04076">
        <ele>621</ele>
        <time>2026-05-26T12:06:34.000Z</time>
      </trkpt>
      <trkpt lat="44.66313" lon="5.04075">
        <ele>622</ele>
        <time>2026-05-26T12:06:35.000Z</time>
      </trkpt>
      <trkpt lat="44.66312" lon="5.04073">
        <ele>622</ele>
        <time>2026-05-26T12:06:36.000Z</time>
      </trkpt>
      <trkpt lat="44.66312" lon="5.04071">
        <ele>622</ele>
        <time>2026-05-26T12:06:37.000Z</time>
      </trkpt>
      <trkpt lat="44.66312" lon="5.04069">
        <ele>622</ele>
        <time>2026-05-26T12:06:38.000Z</time>
      </trkpt>
      <trkpt lat="44.66311" lon="5.04068">
        <ele>621</ele>
        <time>2026-05-26T12:06:39.000Z</time>
      </trkpt>
      <trkpt lat="44.66311" lon="5.04067">
        <ele>621</ele>
        <time>2026-05-26T12:06:40.000Z</time>
      </trkpt>
      <trkpt lat="44.66311" lon="5.04066">
        <ele>621</ele>
        <time>2026-05-26T12:06:41.000Z</time>
      </trkpt>
      <trkpt lat="44.6631" lon="5.04065">
        <ele>621</ele>
        <time>2026-05-26T12:06:42.000Z</time>
      </trkpt>
      <trkpt lat="44.66308" lon="5.04064">
        <ele>621</ele>
        <time>2026-05-26T12:06:43.000Z</time>
      </trkpt>
      <trkpt lat="44.66307" lon="5.04063">
        <ele>622</ele>
        <time>2026-05-26T12:06:44.000Z</time>
      </trkpt>
      <trkpt lat="44.66305" lon="5.04062">
        <ele>622</ele>
        <time>2026-05-26T12:06:45.000Z</time>
      </trkpt>
      <trkpt lat="44.66304" lon="5.04062">
        <ele>623</ele>
        <time>2026-05-26T12:06:46.000Z</time>
      </trkpt>
      <trkpt lat="44.66304" lon="5.04061">
        <ele>622</ele>
        <time>2026-05-26T12:06:47.000Z</time>
      </trkpt>
      <trkpt lat="44.66303" lon="5.0406">
        <ele>622</ele>
        <time>2026-05-26T12:06:48.000Z</time>
      </trkpt>
      <trkpt lat="44.66302" lon="5.04059">
        <ele>622</ele>
        <time>2026-05-26T12:06:49.000Z</time>
      </trkpt>
      <trkpt lat="44.66301" lon="5.04058">
        <ele>621</ele>
        <time>2026-05-26T12:06:50.000Z</time>
      </trkpt>
      <trkpt lat="44.663" lon="5.04056">
        <ele>622</ele>
        <time>2026-05-26T12:06:51.000Z</time>
      </trkpt>
      <trkpt lat="44.66298" lon="5.04054">
        <ele>621</ele>
        <time>2026-05-26T12:06:52.000Z</time>
      </trkpt>
      <trkpt lat="44.66297" lon="5.04053">
        <ele>622</ele>
        <time>2026-05-26T12:06:53.000Z</time>
      </trkpt>
      <trkpt lat="44.66296" lon="5.04052">
        <ele>623</ele>
        <time>2026-05-26T12:06:54.000Z</time>
      </trkpt>
      <trkpt lat="44.66295" lon="5.04052">
        <ele>622</ele>
        <time>2026-05-26T12:06:55.000Z</time>
      </trkpt>
      <trkpt lat="44.66294" lon="5.04052">
        <ele>623</ele>
        <time>2026-05-26T12:06:56.000Z</time>
      </trkpt>
      <trkpt lat="44.66293" lon="5.04051">
        <ele>624</ele>
        <time>2026-05-26T12:06:57.000Z</time>
      </trkpt>
      <trkpt lat="44.66292" lon="5.04051">
        <ele>624</ele>
        <time>2026-05-26T12:06:58.000Z</time>
      </trkpt>
      <trkpt lat="44.66292" lon="5.04051">
        <ele>624</ele>
        <time>2026-05-26T12:06:59.000Z</time>
      </trkpt>
      <trkpt lat="44.66291" lon="5.04051">
        <ele>623</ele>
        <time>2026-05-26T12:07:00.000Z</time>
      </trkpt>
      <trkpt lat="44.6629" lon="5.04051">
        <ele>624</ele>
        <time>2026-05-26T12:07:01.000Z</time>
      </trkpt>
      <trkpt lat="44.66288" lon="5.0405">
        <ele>624</ele>
        <time>2026-05-26T12:07:02.000Z</time>
      </trkpt>
      <trkpt lat="44.66287" lon="5.04049">
        <ele>623</ele>
        <time>2026-05-26T12:07:03.000Z</time>
      </trkpt>
      <trkpt lat="44.66286" lon="5.0405">
        <ele>623</ele>
        <time>2026-05-26T12:07:04.000Z</time>
      </trkpt>
      <trkpt lat="44.66285" lon="5.04049">
        <ele>622</ele>
        <time>2026-05-26T12:07:05.000Z</time>
      </trkpt>
      <trkpt lat="44.66283" lon="5.0405">
        <ele>622</ele>
        <time>2026-05-26T12:07:06.000Z</time>
      </trkpt>
      <trkpt lat="44.66282" lon="5.04051">
        <ele>623</ele>
        <time>2026-05-26T12:07:07.000Z</time>
      </trkpt>
      <trkpt lat="44.6628" lon="5.04052">
        <ele>622</ele>
        <time>2026-05-26T12:07:08.000Z</time>
      </trkpt>
      <trkpt lat="44.66279" lon="5.04053">
        <ele>622</ele>
        <time>2026-05-26T12:07:09.000Z</time>
      </trkpt>
      <trkpt lat="44.66278" lon="5.04053">
        <ele>622</ele>
        <time>2026-05-26T12:07:10.000Z</time>
      </trkpt>
      <trkpt lat="44.66277" lon="5.04053">
        <ele>622</ele>
        <time>2026-05-26T12:07:11.000Z</time>
      </trkpt>
      <trkpt lat="44.66276" lon="5.04053">
        <ele>622</ele>
        <time>2026-05-26T12:07:12.000Z</time>
      </trkpt>
      <trkpt lat="44.66276" lon="5.04053">
        <ele>622</ele>
        <time>2026-05-26T12:07:13.000Z</time>
      </trkpt>
      <trkpt lat="44.66275" lon="5.04053">
        <ele>621</ele>
        <time>2026-05-26T12:07:14.000Z</time>
      </trkpt>
      <trkpt lat="44.66273" lon="5.04054">
        <ele>621</ele>
        <time>2026-05-26T12:07:15.000Z</time>
      </trkpt>
      <trkpt lat="44.66272" lon="5.04055">
        <ele>620</ele>
        <time>2026-05-26T12:07:16.000Z</time>
      </trkpt>
      <trkpt lat="44.6627" lon="5.04055">
        <ele>620</ele>
        <time>2026-05-26T12:07:17.000Z</time>
      </trkpt>
      <trkpt lat="44.66269" lon="5.04055">
        <ele>619</ele>
        <time>2026-05-26T12:07:18.000Z</time>
      </trkpt>
      <trkpt lat="44.66267" lon="5.04055">
        <ele>619</ele>
        <time>2026-05-26T12:07:19.000Z</time>
      </trkpt>
      <trkpt lat="44.66267" lon="5.04055">
        <ele>618</ele>
        <time>2026-05-26T12:07:20.000Z</time>
      </trkpt>
      <trkpt lat="44.66266" lon="5.04055">
        <ele>618</ele>
        <time>2026-05-26T12:07:21.000Z</time>
      </trkpt>
      <trkpt lat="44.66266" lon="5.04055">
        <ele>618</ele>
        <time>2026-05-26T12:07:22.000Z</time>
      </trkpt>
      <trkpt lat="44.66266" lon="5.04055">
        <ele>618</ele>
        <time>2026-05-26T12:07:23.000Z</time>
      </trkpt>
      <trkpt lat="44.66263" lon="5.04054">
        <ele>618</ele>
        <time>2026-05-26T12:07:24.000Z</time>
      </trkpt>
      <trkpt lat="44.66262" lon="5.04054">
        <ele>618</ele>
        <time>2026-05-26T12:07:25.000Z</time>
      </trkpt>
      <trkpt lat="44.66261" lon="5.04054">
        <ele>618</ele>
        <time>2026-05-26T12:07:26.000Z</time>
      </trkpt>
      <trkpt lat="44.6626" lon="5.04054">
        <ele>618</ele>
        <time>2026-05-26T12:07:27.000Z</time>
      </trkpt>
      <trkpt lat="44.6626" lon="5.04054">
        <ele>618</ele>
        <time>2026-05-26T12:07:28.000Z</time>
      </trkpt>
      <trkpt lat="44.6626" lon="5.04054">
        <ele>618</ele>
        <time>2026-05-26T12:07:29.000Z</time>
      </trkpt>
      <trkpt lat="44.66257" lon="5.04053">
        <ele>617</ele>
        <time>2026-05-26T12:07:30.000Z</time>
      </trkpt>
      <trkpt lat="44.66255" lon="5.04052">
        <ele>617</ele>
        <time>2026-05-26T12:07:31.000Z</time>
      </trkpt>
      <trkpt lat="44.66254" lon="5.04052">
        <ele>617</ele>
        <time>2026-05-26T12:07:32.000Z</time>
      </trkpt>
      <trkpt lat="44.66253" lon="5.04051">
        <ele>617</ele>
        <time>2026-05-26T12:07:33.000Z</time>
      </trkpt>
      <trkpt lat="44.66252" lon="5.04052">
        <ele>617</ele>
        <time>2026-05-26T12:07:34.000Z</time>
      </trkpt>
      <trkpt lat="44.6625" lon="5.04051">
        <ele>616</ele>
        <time>2026-05-26T12:07:35.000Z</time>
      </trkpt>
      <trkpt lat="44.66249" lon="5.04052">
        <ele>615</ele>
        <time>2026-05-26T12:07:36.000Z</time>
      </trkpt>
      <trkpt lat="44.66247" lon="5.04051">
        <ele>614</ele>
        <time>2026-05-26T12:07:37.000Z</time>
      </trkpt>
      <trkpt lat="44.66246" lon="5.04051">
        <ele>614</ele>
        <time>2026-05-26T12:07:38.000Z</time>
      </trkpt>
      <trkpt lat="44.66245" lon="5.04051">
        <ele>613</ele>
        <time>2026-05-26T12:07:39.000Z</time>
      </trkpt>
      <trkpt lat="44.66244" lon="5.0405">
        <ele>613</ele>
        <time>2026-05-26T12:07:40.000Z</time>
      </trkpt>
      <trkpt lat="44.66243" lon="5.0405">
        <ele>613</ele>
        <time>2026-05-26T12:07:41.000Z</time>
      </trkpt>
      <trkpt lat="44.66241" lon="5.04051">
        <ele>612</ele>
        <time>2026-05-26T12:07:42.000Z</time>
      </trkpt>
      <trkpt lat="44.6624" lon="5.0405">
        <ele>613</ele>
        <time>2026-05-26T12:07:43.000Z</time>
      </trkpt>
      <trkpt lat="44.66238" lon="5.0405">
        <ele>613</ele>
        <time>2026-05-26T12:07:44.000Z</time>
      </trkpt>
      <trkpt lat="44.66238" lon="5.0405">
        <ele>612</ele>
        <time>2026-05-26T12:07:45.000Z</time>
      </trkpt>
      <trkpt lat="44.66237" lon="5.0405">
        <ele>613</ele>
        <time>2026-05-26T12:07:46.000Z</time>
      </trkpt>
      <trkpt lat="44.66236" lon="5.04049">
        <ele>614</ele>
        <time>2026-05-26T12:07:47.000Z</time>
      </trkpt>
      <trkpt lat="44.66235" lon="5.0405">
        <ele>614</ele>
        <time>2026-05-26T12:07:48.000Z</time>
      </trkpt>
      <trkpt lat="44.66233" lon="5.0405">
        <ele>613</ele>
        <time>2026-05-26T12:07:49.000Z</time>
      </trkpt>
      <trkpt lat="44.6623" lon="5.04052">
        <ele>613</ele>
        <time>2026-05-26T12:07:50.000Z</time>
      </trkpt>
      <trkpt lat="44.6623" lon="5.04052">
        <ele>613</ele>
        <time>2026-05-26T12:07:51.000Z</time>
      </trkpt>
      <trkpt lat="44.6623" lon="5.04052">
        <ele>613</ele>
        <time>2026-05-26T12:07:52.000Z</time>
      </trkpt>
      <trkpt lat="44.6623" lon="5.04052">
        <ele>613</ele>
        <time>2026-05-26T12:07:53.000Z</time>
      </trkpt>
      <trkpt lat="44.6623" lon="5.04052">
        <ele>613</ele>
        <time>2026-05-26T12:07:54.000Z</time>
      </trkpt>
      <trkpt lat="44.6623" lon="5.04052">
        <ele>613</ele>
        <time>2026-05-26T12:07:55.000Z</time>
      </trkpt>
      <trkpt lat="44.6623" lon="5.04052">
        <ele>613</ele>
        <time>2026-05-26T12:07:56.000Z</time>
      </trkpt>
      <trkpt lat="44.6623" lon="5.04052">
        <ele>613</ele>
        <time>2026-05-26T12:07:57.000Z</time>
      </trkpt>
      <trkpt lat="44.66229" lon="5.04052">
        <ele>612</ele>
        <time>2026-05-26T12:07:58.000Z</time>
      </trkpt>
      <trkpt lat="44.66229" lon="5.04052">
        <ele>612</ele>
        <time>2026-05-26T12:07:59.000Z</time>
      </trkpt>
      <trkpt lat="44.66229" lon="5.04052">
        <ele>612</ele>
        <time>2026-05-26T12:08:00.000Z</time>
      </trkpt>
      <trkpt lat="44.66229" lon="5.04052">
        <ele>612</ele>
        <time>2026-05-26T12:08:01.000Z</time>
      </trkpt>
      <trkpt lat="44.66229" lon="5.04052">
        <ele>612</ele>
        <time>2026-05-26T12:08:02.000Z</time>
      </trkpt>
      <trkpt lat="44.66229" lon="5.04052">
        <ele>612</ele>
        <time>2026-05-26T12:08:03.000Z</time>
      </trkpt>
      <trkpt lat="44.66229" lon="5.04052">
        <ele>612</ele>
        <time>2026-05-26T12:08:04.000Z</time>
      </trkpt>
      <trkpt lat="44.66229" lon="5.04052">
        <ele>612</ele>
        <time>2026-05-26T12:08:05.000Z</time>
      </trkpt>
      <trkpt lat="44.66229" lon="5.04052">
        <ele>612</ele>
        <time>2026-05-26T12:08:06.000Z</time>
      </trkpt>
      <trkpt lat="44.66229" lon="5.04052">
        <ele>612</ele>
        <time>2026-05-26T12:08:07.000Z</time>
      </trkpt>
      <trkpt lat="44.66229" lon="5.04052">
        <ele>612</ele>
        <time>2026-05-26T12:08:08.000Z</time>
      </trkpt>
      <trkpt lat="44.66229" lon="5.04052">
        <ele>612</ele>
        <time>2026-05-26T12:08:09.000Z</time>
      </trkpt>
      <trkpt lat="44.66229" lon="5.04052">
        <ele>612</ele>
        <time>2026-05-26T12:08:10.000Z</time>
      </trkpt>
      <trkpt lat="44.66229" lon="5.04052">
        <ele>612</ele>
        <time>2026-05-26T12:08:11.000Z</time>
      </trkpt>
      <trkpt lat="44.66229" lon="5.04052">
        <ele>612</ele>
        <time>2026-05-26T12:08:12.000Z</time>
      </trkpt>
      <trkpt lat="44.66227" lon="5.04053">
        <ele>612</ele>
        <time>2026-05-26T12:08:13.000Z</time>
      </trkpt>
      <trkpt lat="44.66227" lon="5.04053">
        <ele>613</ele>
        <time>2026-05-26T12:08:14.000Z</time>
      </trkpt>
      <trkpt lat="44.66227" lon="5.04053">
        <ele>613</ele>
        <time>2026-05-26T12:08:15.000Z</time>
      </trkpt>
      <trkpt lat="44.66227" lon="5.04053">
        <ele>613</ele>
        <time>2026-05-26T12:08:16.000Z</time>
      </trkpt>
      <trkpt lat="44.66227" lon="5.04053">
        <ele>613</ele>
        <time>2026-05-26T12:08:17.000Z</time>
      </trkpt>
      <trkpt lat="44.66227" lon="5.04053">
        <ele>613</ele>
        <time>2026-05-26T12:08:18.000Z</time>
      </trkpt>
      <trkpt lat="44.66227" lon="5.04053">
        <ele>613</ele>
        <time>2026-05-26T12:08:19.000Z</time>
      </trkpt>
      <trkpt lat="44.66227" lon="5.04053">
        <ele>614</ele>
        <time>2026-05-26T12:08:20.000Z</time>
      </trkpt>
      <trkpt lat="44.66226" lon="5.04052">
        <ele>614</ele>
        <time>2026-05-26T12:08:21.000Z</time>
      </trkpt>
      <trkpt lat="44.66226" lon="5.04052">
        <ele>614</ele>
        <time>2026-05-26T12:08:22.000Z</time>
      </trkpt>
      <trkpt lat="44.66226" lon="5.04052">
        <ele>614</ele>
        <time>2026-05-26T12:08:23.000Z</time>
      </trkpt>
      <trkpt lat="44.66226" lon="5.04052">
        <ele>614</ele>
        <time>2026-05-26T12:08:24.000Z</time>
      </trkpt>
      <trkpt lat="44.66226" lon="5.04052">
        <ele>614</ele>
        <time>2026-05-26T12:08:25.000Z</time>
      </trkpt>
      <trkpt lat="44.66226" lon="5.04052">
        <ele>614</ele>
        <time>2026-05-26T12:08:26.000Z</time>
      </trkpt>
      <trkpt lat="44.66226" lon="5.04052">
        <ele>614</ele>
        <time>2026-05-26T12:08:27.000Z</time>
      </trkpt>
      <trkpt lat="44.66226" lon="5.04052">
        <ele>614</ele>
        <time>2026-05-26T12:08:28.000Z</time>
      </trkpt>
      <trkpt lat="44.66226" lon="5.04052">
        <ele>614</ele>
        <time>2026-05-26T12:08:29.000Z</time>
      </trkpt>
      <trkpt lat="44.66226" lon="5.04052">
        <ele>614</ele>
        <time>2026-05-26T12:08:30.000Z</time>
      </trkpt>
      <trkpt lat="44.66226" lon="5.04052">
        <ele>614</ele>
        <time>2026-05-26T12:08:31.000Z</time>
      </trkpt>
      <trkpt lat="44.66226" lon="5.04052">
        <ele>614</ele>
        <time>2026-05-26T12:08:32.000Z</time>
      </trkpt>
      <trkpt lat="44.66226" lon="5.04052">
        <ele>614</ele>
        <time>2026-05-26T12:08:33.000Z</time>
      </trkpt>
      <trkpt lat="44.66226" lon="5.04052">
        <ele>614</ele>
        <time>2026-05-26T12:08:34.000Z</time>
      </trkpt>
      <trkpt lat="44.66226" lon="5.04052">
        <ele>614</ele>
        <time>2026-05-26T12:08:35.000Z</time>
      </trkpt>
      <trkpt lat="44.66226" lon="5.04052">
        <ele>614</ele>
        <time>2026-05-26T12:08:36.000Z</time>
      </trkpt>
      <trkpt lat="44.66226" lon="5.04052">
        <ele>614</ele>
        <time>2026-05-26T12:08:37.000Z</time>
      </trkpt>
      <trkpt lat="44.66226" lon="5.04052">
        <ele>614</ele>
        <time>2026-05-26T12:08:38.000Z</time>
      </trkpt>
      <trkpt lat="44.66226" lon="5.04052">
        <ele>614</ele>
        <time>2026-05-26T12:08:39.000Z</time>
      </trkpt>
      <trkpt lat="44.66226" lon="5.04052">
        <ele>614</ele>
        <time>2026-05-26T12:08:40.000Z</time>
      </trkpt>
      <trkpt lat="44.66226" lon="5.04052">
        <ele>614</ele>
        <time>2026-05-26T12:08:41.000Z</time>
      </trkpt>
      <trkpt lat="44.66226" lon="5.04052">
        <ele>614</ele>
        <time>2026-05-26T12:08:42.000Z</time>
      </trkpt>
      <trkpt lat="44.66226" lon="5.04052">
        <ele>614</ele>
        <time>2026-05-26T12:08:43.000Z</time>
      </trkpt>
      <trkpt lat="44.66226" lon="5.04052">
        <ele>614</ele>
        <time>2026-05-26T12:08:44.000Z</time>
      </trkpt>
      <trkpt lat="44.66226" lon="5.04052">
        <ele>614</ele>
        <time>2026-05-26T12:08:45.000Z</time>
      </trkpt>
      <trkpt lat="44.66226" lon="5.04052">
        <ele>614</ele>
        <time>2026-05-26T12:08:46.000Z</time>
      </trkpt>
      <trkpt lat="44.66226" lon="5.04052">
        <ele>614</ele>
        <time>2026-05-26T12:08:47.000Z</time>
      </trkpt>
      <trkpt lat="44.66226" lon="5.04052">
        <ele>614</ele>
        <time>2026-05-26T12:08:48.000Z</time>
      </trkpt>
      <trkpt lat="44.66226" lon="5.04052">
        <ele>614</ele>
        <time>2026-05-26T12:08:49.000Z</time>
      </trkpt>
      <trkpt lat="44.66226" lon="5.04052">
        <ele>614</ele>
        <time>2026-05-26T12:08:50.000Z</time>
      </trkpt>
      <trkpt lat="44.66226" lon="5.04052">
        <ele>614</ele>
        <time>2026-05-26T12:08:51.000Z</time>
      </trkpt>
      <trkpt lat="44.66226" lon="5.04052">
        <ele>614</ele>
        <time>2026-05-26T12:08:52.000Z</time>
      </trkpt>
      <trkpt lat="44.66226" lon="5.04052">
        <ele>614</ele>
        <time>2026-05-26T12:08:53.000Z</time>
      </trkpt>
      <trkpt lat="44.66226" lon="5.04052">
        <ele>614</ele>
        <time>2026-05-26T12:08:54.000Z</time>
      </trkpt>
      <trkpt lat="44.66226" lon="5.04052">
        <ele>614</ele>
        <time>2026-05-26T12:08:55.000Z</time>
      </trkpt>
      <trkpt lat="44.66226" lon="5.04052">
        <ele>614</ele>
        <time>2026-05-26T12:08:56.000Z</time>
      </trkpt>
      <trkpt lat="44.66226" lon="5.04052">
        <ele>614</ele>
        <time>2026-05-26T12:08:57.000Z</time>
      </trkpt>
      <trkpt lat="44.66226" lon="5.04052">
        <ele>614</ele>
        <time>2026-05-26T12:08:58.000Z</time>
      </trkpt>
      <trkpt lat="44.66226" lon="5.04052">
        <ele>614</ele>
        <time>2026-05-26T12:08:59.000Z</time>
      </trkpt>
      <trkpt lat="44.66226" lon="5.04052">
        <ele>614</ele>
        <time>2026-05-26T12:09:00.000Z</time>
      </trkpt>
      <trkpt lat="44.66226" lon="5.04052">
        <ele>614</ele>
        <time>2026-05-26T12:09:01.000Z</time>
      </trkpt>
      <trkpt lat="44.66226" lon="5.04052">
        <ele>614</ele>
        <time>2026-05-26T12:09:02.000Z</time>
      </trkpt>
      <trkpt lat="44.66226" lon="5.04052">
        <ele>614</ele>
        <time>2026-05-26T12:09:03.000Z</time>
      </trkpt>
      <trkpt lat="44.66226" lon="5.04052">
        <ele>614</ele>
        <time>2026-05-26T12:09:04.000Z</time>
      </trkpt>
      <trkpt lat="44.66226" lon="5.04052">
        <ele>614</ele>
        <time>2026-05-26T12:09:05.000Z</time>
      </trkpt>
      <trkpt lat="44.66226" lon="5.04052">
        <ele>614</ele>
        <time>2026-05-26T12:09:06.000Z</time>
      </trkpt>
      <trkpt lat="44.66226" lon="5.04052">
        <ele>614</ele>
        <time>2026-05-26T12:09:07.000Z</time>
      </trkpt>
      <trkpt lat="44.66226" lon="5.04052">
        <ele>614</ele>
        <time>2026-05-26T12:09:08.000Z</time>
      </trkpt>
      <trkpt lat="44.66226" lon="5.04052">
        <ele>614</ele>
        <time>2026-05-26T12:09:09.000Z</time>
      </trkpt>
      <trkpt lat="44.66226" lon="5.04052">
        <ele>614</ele>
        <time>2026-05-26T12:09:10.000Z</time>
      </trkpt>
      <trkpt lat="44.66226" lon="5.04052">
        <ele>614</ele>
        <time>2026-05-26T12:09:11.000Z</time>
      </trkpt>
      <trkpt lat="44.66226" lon="5.04052">
        <ele>614</ele>
        <time>2026-05-26T12:09:12.000Z</time>
      </trkpt>
      <trkpt lat="44.66226" lon="5.04052">
        <ele>614</ele>
        <time>2026-05-26T12:09:13.000Z</time>
      </trkpt>
      <trkpt lat="44.66226" lon="5.04052">
        <ele>614</ele>
        <time>2026-05-26T12:09:14.000Z</time>
      </trkpt>
      <trkpt lat="44.66226" lon="5.04052">
        <ele>614</ele>
        <time>2026-05-26T12:09:15.000Z</time>
      </trkpt>
      <trkpt lat="44.66226" lon="5.04052">
        <ele>614</ele>
        <time>2026-05-26T12:09:16.000Z</time>
      </trkpt>
      <trkpt lat="44.66226" lon="5.04052">
        <ele>614</ele>
        <time>2026-05-26T12:09:17.000Z</time>
      </trkpt>
      <trkpt lat="44.66226" lon="5.04052">
        <ele>614</ele>
        <time>2026-05-26T12:09:18.000Z</time>
      </trkpt>
      <trkpt lat="44.66226" lon="5.04052">
        <ele>614</ele>
        <time>2026-05-26T12:09:19.000Z</time>
      </trkpt>
      <trkpt lat="44.66226" lon="5.04052">
        <ele>614</ele>
        <time>2026-05-26T12:09:20.000Z</time>
      </trkpt>
      <trkpt lat="44.66226" lon="5.04052">
        <ele>614</ele>
        <time>2026-05-26T12:09:21.000Z</time>
      </trkpt>
      <trkpt lat="44.66226" lon="5.04052">
        <ele>614</ele>
        <time>2026-05-26T12:09:22.000Z</time>
      </trkpt>
      <trkpt lat="44.66226" lon="5.04052">
        <ele>614</ele>
        <time>2026-05-26T12:09:23.000Z</time>
      </trkpt>
      <trkpt lat="44.66226" lon="5.04052">
        <ele>614</ele>
        <time>2026-05-26T12:09:24.000Z</time>
      </trkpt>
      <trkpt lat="44.66226" lon="5.04052">
        <ele>614</ele>
        <time>2026-05-26T12:09:25.000Z</time>
      </trkpt>
      <trkpt lat="44.66226" lon="5.04052">
        <ele>614</ele>
        <time>2026-05-26T12:09:26.000Z</time>
      </trkpt>
      <trkpt lat="44.66226" lon="5.04052">
        <ele>614</ele>
        <time>2026-05-26T12:09:27.000Z</time>
      </trkpt>
      <trkpt lat="44.66226" lon="5.04052">
        <ele>614</ele>
        <time>2026-05-26T12:09:28.000Z</time>
      </trkpt>
      <trkpt lat="44.66226" lon="5.04052">
        <ele>614</ele>
        <time>2026-05-26T12:09:29.000Z</time>
      </trkpt>
      <trkpt lat="44.66226" lon="5.04052">
        <ele>614</ele>
        <time>2026-05-26T12:09:30.000Z</time>
      </trkpt>
      <trkpt lat="44.66226" lon="5.04052">
        <ele>614</ele>
        <time>2026-05-26T12:09:31.000Z</time>
      </trkpt>
      <trkpt lat="44.66226" lon="5.04052">
        <ele>614</ele>
        <time>2026-05-26T12:09:32.000Z</time>
      </trkpt>
      <trkpt lat="44.66226" lon="5.04052">
        <ele>614</ele>
        <time>2026-05-26T12:09:33.000Z</time>
      </trkpt>
      <trkpt lat="44.66226" lon="5.04052">
        <ele>614</ele>
        <time>2026-05-26T12:09:34.000Z</time>
      </trkpt>
      <trkpt lat="44.66226" lon="5.04052">
        <ele>614</ele>
        <time>2026-05-26T12:09:35.000Z</time>
      </trkpt>
      <trkpt lat="44.66226" lon="5.04052">
        <ele>614</ele>
        <time>2026-05-26T12:09:36.000Z</time>
      </trkpt>
      <trkpt lat="44.66226" lon="5.04052">
        <ele>614</ele>
        <time>2026-05-26T12:09:37.000Z</time>
      </trkpt>
      <trkpt lat="44.66226" lon="5.04052">
        <ele>614</ele>
        <time>2026-05-26T12:09:38.000Z</time>
      </trkpt>
      <trkpt lat="44.66226" lon="5.04052">
        <ele>614</ele>
        <time>2026-05-26T12:09:39.000Z</time>
      </trkpt>
      <trkpt lat="44.66226" lon="5.04052">
        <ele>614</ele>
        <time>2026-05-26T12:09:40.000Z</time>
      </trkpt>
      <trkpt lat="44.66226" lon="5.04052">
        <ele>614</ele>
        <time>2026-05-26T12:09:41.000Z</time>
      </trkpt>
      <trkpt lat="44.66226" lon="5.04052">
        <ele>614</ele>
        <time>2026-05-26T12:09:42.000Z</time>
      </trkpt>
      <trkpt lat="44.66224" lon="5.04052">
        <ele>613</ele>
        <time>2026-05-26T12:09:43.000Z</time>
      </trkpt>
      <trkpt lat="44.66223" lon="5.04052">
        <ele>613</ele>
        <time>2026-05-26T12:09:44.000Z</time>
      </trkpt>
      <trkpt lat="44.66222" lon="5.04052">
        <ele>613</ele>
        <time>2026-05-26T12:09:45.000Z</time>
      </trkpt>
      <trkpt lat="44.66221" lon="5.04052">
        <ele>613</ele>
        <time>2026-05-26T12:09:46.000Z</time>
      </trkpt>
      <trkpt lat="44.66221" lon="5.04052">
        <ele>613</ele>
        <time>2026-05-26T12:09:47.000Z</time>
      </trkpt>
      <trkpt lat="44.66221" lon="5.04052">
        <ele>613</ele>
        <time>2026-05-26T12:09:48.000Z</time>
      </trkpt>
      <trkpt lat="44.66218" lon="5.04052">
        <ele>611</ele>
        <time>2026-05-26T12:09:49.000Z</time>
      </trkpt>
      <trkpt lat="44.66216" lon="5.04052">
        <ele>610</ele>
        <time>2026-05-26T12:09:50.000Z</time>
      </trkpt>
      <trkpt lat="44.66215" lon="5.04052">
        <ele>610</ele>
        <time>2026-05-26T12:09:51.000Z</time>
      </trkpt>
      <trkpt lat="44.66215" lon="5.04053">
        <ele>610</ele>
        <time>2026-05-26T12:09:52.000Z</time>
      </trkpt>
      <trkpt lat="44.66214" lon="5.04053">
        <ele>610</ele>
        <time>2026-05-26T12:09:53.000Z</time>
      </trkpt>
      <trkpt lat="44.66213" lon="5.04053">
        <ele>610</ele>
        <time>2026-05-26T12:09:54.000Z</time>
      </trkpt>
      <trkpt lat="44.66212" lon="5.04053">
        <ele>610</ele>
        <time>2026-05-26T12:09:55.000Z</time>
      </trkpt>
      <trkpt lat="44.6621" lon="5.04053">
        <ele>610</ele>
        <time>2026-05-26T12:09:56.000Z</time>
      </trkpt>
      <trkpt lat="44.66209" lon="5.04053">
        <ele>610</ele>
        <time>2026-05-26T12:09:57.000Z</time>
      </trkpt>
      <trkpt lat="44.66208" lon="5.04053">
        <ele>611</ele>
        <time>2026-05-26T12:09:58.000Z</time>
      </trkpt>
      <trkpt lat="44.66207" lon="5.04053">
        <ele>611</ele>
        <time>2026-05-26T12:09:59.000Z</time>
      </trkpt>
      <trkpt lat="44.66206" lon="5.04054">
        <ele>612</ele>
        <time>2026-05-26T12:10:00.000Z</time>
      </trkpt>
      <trkpt lat="44.66205" lon="5.04054">
        <ele>612</ele>
        <time>2026-05-26T12:10:01.000Z</time>
      </trkpt>
      <trkpt lat="44.66205" lon="5.04054">
        <ele>612</ele>
        <time>2026-05-26T12:10:02.000Z</time>
      </trkpt>
      <trkpt lat="44.66204" lon="5.04055">
        <ele>612</ele>
        <time>2026-05-26T12:10:03.000Z</time>
      </trkpt>
      <trkpt lat="44.66203" lon="5.04055">
        <ele>611</ele>
        <time>2026-05-26T12:10:04.000Z</time>
      </trkpt>
      <trkpt lat="44.66202" lon="5.04055">
        <ele>612</ele>
        <time>2026-05-26T12:10:05.000Z</time>
      </trkpt>
      <trkpt lat="44.66202" lon="5.04055">
        <ele>613</ele>
        <time>2026-05-26T12:10:06.000Z</time>
      </trkpt>
      <trkpt lat="44.66201" lon="5.04057">
        <ele>613</ele>
        <time>2026-05-26T12:10:07.000Z</time>
      </trkpt>
      <trkpt lat="44.66201" lon="5.04057">
        <ele>613</ele>
        <time>2026-05-26T12:10:08.000Z</time>
      </trkpt>
      <trkpt lat="44.662" lon="5.04057">
        <ele>612</ele>
        <time>2026-05-26T12:10:09.000Z</time>
      </trkpt>
      <trkpt lat="44.662" lon="5.04057">
        <ele>612</ele>
        <time>2026-05-26T12:10:10.000Z</time>
      </trkpt>
      <trkpt lat="44.662" lon="5.04057">
        <ele>612</ele>
        <time>2026-05-26T12:10:11.000Z</time>
      </trkpt>
      <trkpt lat="44.662" lon="5.04057">
        <ele>612</ele>
        <time>2026-05-26T12:10:12.000Z</time>
      </trkpt>
      <trkpt lat="44.662" lon="5.04057">
        <ele>612</ele>
        <time>2026-05-26T12:10:13.000Z</time>
      </trkpt>
      <trkpt lat="44.662" lon="5.04057">
        <ele>612</ele>
        <time>2026-05-26T12:10:14.000Z</time>
      </trkpt>
      <trkpt lat="44.662" lon="5.04057">
        <ele>612</ele>
        <time>2026-05-26T12:10:15.000Z</time>
      </trkpt>
      <trkpt lat="44.662" lon="5.04057">
        <ele>612</ele>
        <time>2026-05-26T12:10:16.000Z</time>
      </trkpt>
      <trkpt lat="44.66199" lon="5.04058">
        <ele>614</ele>
        <time>2026-05-26T12:10:17.000Z</time>
      </trkpt>
      <trkpt lat="44.66198" lon="5.04057">
        <ele>614</ele>
        <time>2026-05-26T12:10:18.000Z</time>
      </trkpt>
      <trkpt lat="44.66197" lon="5.04058">
        <ele>614</ele>
        <time>2026-05-26T12:10:19.000Z</time>
      </trkpt>
      <trkpt lat="44.66196" lon="5.04059">
        <ele>614</ele>
        <time>2026-05-26T12:10:20.000Z</time>
      </trkpt>
      <trkpt lat="44.66195" lon="5.04058">
        <ele>613</ele>
        <time>2026-05-26T12:10:21.000Z</time>
      </trkpt>
      <trkpt lat="44.66193" lon="5.04058">
        <ele>614</ele>
        <time>2026-05-26T12:10:22.000Z</time>
      </trkpt>
      <trkpt lat="44.66192" lon="5.04058">
        <ele>613</ele>
        <time>2026-05-26T12:10:23.000Z</time>
      </trkpt>
      <trkpt lat="44.66191" lon="5.04058">
        <ele>615</ele>
        <time>2026-05-26T12:10:24.000Z</time>
      </trkpt>
      <trkpt lat="44.66191" lon="5.04058">
        <ele>615</ele>
        <time>2026-05-26T12:10:25.000Z</time>
      </trkpt>
      <trkpt lat="44.66189" lon="5.04058">
        <ele>616</ele>
        <time>2026-05-26T12:10:26.000Z</time>
      </trkpt>
      <trkpt lat="44.66188" lon="5.04058">
        <ele>615</ele>
        <time>2026-05-26T12:10:27.000Z</time>
      </trkpt>
      <trkpt lat="44.66187" lon="5.04058">
        <ele>614</ele>
        <time>2026-05-26T12:10:28.000Z</time>
      </trkpt>
      <trkpt lat="44.66186" lon="5.04058">
        <ele>614</ele>
        <time>2026-05-26T12:10:29.000Z</time>
      </trkpt>
      <trkpt lat="44.66184" lon="5.04059">
        <ele>613</ele>
        <time>2026-05-26T12:10:30.000Z</time>
      </trkpt>
      <trkpt lat="44.66183" lon="5.04058">
        <ele>613</ele>
        <time>2026-05-26T12:10:31.000Z</time>
      </trkpt>
      <trkpt lat="44.66181" lon="5.04059">
        <ele>612</ele>
        <time>2026-05-26T12:10:32.000Z</time>
      </trkpt>
      <trkpt lat="44.66181" lon="5.04059">
        <ele>612</ele>
        <time>2026-05-26T12:10:33.000Z</time>
      </trkpt>
      <trkpt lat="44.66179" lon="5.04058">
        <ele>613</ele>
        <time>2026-05-26T12:10:34.000Z</time>
      </trkpt>
      <trkpt lat="44.66177" lon="5.04057">
        <ele>613</ele>
        <time>2026-05-26T12:10:35.000Z</time>
      </trkpt>
      <trkpt lat="44.66176" lon="5.04057">
        <ele>613</ele>
        <time>2026-05-26T12:10:36.000Z</time>
      </trkpt>
      <trkpt lat="44.66175" lon="5.04056">
        <ele>612</ele>
        <time>2026-05-26T12:10:37.000Z</time>
      </trkpt>
      <trkpt lat="44.66173" lon="5.04055">
        <ele>613</ele>
        <time>2026-05-26T12:10:38.000Z</time>
      </trkpt>
      <trkpt lat="44.66171" lon="5.04056">
        <ele>613</ele>
        <time>2026-05-26T12:10:39.000Z</time>
      </trkpt>
      <trkpt lat="44.6617" lon="5.04056">
        <ele>613</ele>
        <time>2026-05-26T12:10:40.000Z</time>
      </trkpt>
      <trkpt lat="44.66169" lon="5.04056">
        <ele>615</ele>
        <time>2026-05-26T12:10:41.000Z</time>
      </trkpt>
      <trkpt lat="44.66168" lon="5.04056">
        <ele>615</ele>
        <time>2026-05-26T12:10:42.000Z</time>
      </trkpt>
      <trkpt lat="44.66168" lon="5.04056">
        <ele>615</ele>
        <time>2026-05-26T12:10:43.000Z</time>
      </trkpt>
      <trkpt lat="44.66166" lon="5.04056">
        <ele>616</ele>
        <time>2026-05-26T12:10:44.000Z</time>
      </trkpt>
      <trkpt lat="44.66165" lon="5.04055">
        <ele>617</ele>
        <time>2026-05-26T12:10:45.000Z</time>
      </trkpt>
      <trkpt lat="44.66164" lon="5.04055">
        <ele>616</ele>
        <time>2026-05-26T12:10:46.000Z</time>
      </trkpt>
      <trkpt lat="44.66163" lon="5.04055">
        <ele>618</ele>
        <time>2026-05-26T12:10:47.000Z</time>
      </trkpt>
      <trkpt lat="44.66161" lon="5.04056">
        <ele>619</ele>
        <time>2026-05-26T12:10:48.000Z</time>
      </trkpt>
      <trkpt lat="44.66159" lon="5.04056">
        <ele>619</ele>
        <time>2026-05-26T12:10:49.000Z</time>
      </trkpt>
      <trkpt lat="44.66159" lon="5.04056">
        <ele>620</ele>
        <time>2026-05-26T12:10:50.000Z</time>
      </trkpt>
      <trkpt lat="44.66157" lon="5.04057">
        <ele>621</ele>
        <time>2026-05-26T12:10:51.000Z</time>
      </trkpt>
      <trkpt lat="44.66157" lon="5.04057">
        <ele>620</ele>
        <time>2026-05-26T12:10:52.000Z</time>
      </trkpt>
      <trkpt lat="44.66155" lon="5.04058">
        <ele>621</ele>
        <time>2026-05-26T12:10:53.000Z</time>
      </trkpt>
      <trkpt lat="44.66153" lon="5.04058">
        <ele>620</ele>
        <time>2026-05-26T12:10:54.000Z</time>
      </trkpt>
      <trkpt lat="44.66153" lon="5.04058">
        <ele>620</ele>
        <time>2026-05-26T12:10:55.000Z</time>
      </trkpt>
      <trkpt lat="44.66152" lon="5.04057">
        <ele>619</ele>
        <time>2026-05-26T12:10:56.000Z</time>
      </trkpt>
      <trkpt lat="44.66152" lon="5.04057">
        <ele>618</ele>
        <time>2026-05-26T12:10:57.000Z</time>
      </trkpt>
      <trkpt lat="44.6615" lon="5.04059">
        <ele>618</ele>
        <time>2026-05-26T12:10:58.000Z</time>
      </trkpt>
      <trkpt lat="44.66149" lon="5.04062">
        <ele>618</ele>
        <time>2026-05-26T12:10:59.000Z</time>
      </trkpt>
      <trkpt lat="44.66148" lon="5.04064">
        <ele>619</ele>
        <time>2026-05-26T12:11:00.000Z</time>
      </trkpt>
      <trkpt lat="44.66147" lon="5.04065">
        <ele>618</ele>
        <time>2026-05-26T12:11:01.000Z</time>
      </trkpt>
      <trkpt lat="44.66147" lon="5.04064">
        <ele>621</ele>
        <time>2026-05-26T12:11:02.000Z</time>
      </trkpt>
      <trkpt lat="44.66147" lon="5.04063">
        <ele>622</ele>
        <time>2026-05-26T12:11:03.000Z</time>
      </trkpt>
      <trkpt lat="44.66145" lon="5.04065">
        <ele>621</ele>
        <time>2026-05-26T12:11:04.000Z</time>
      </trkpt>
      <trkpt lat="44.66144" lon="5.04065">
        <ele>621</ele>
        <time>2026-05-26T12:11:05.000Z</time>
      </trkpt>
      <trkpt lat="44.66143" lon="5.04066">
        <ele>620</ele>
        <time>2026-05-26T12:11:06.000Z</time>
      </trkpt>
      <trkpt lat="44.66141" lon="5.04067">
        <ele>620</ele>
        <time>2026-05-26T12:11:07.000Z</time>
      </trkpt>
      <trkpt lat="44.6614" lon="5.04068">
        <ele>620</ele>
        <time>2026-05-26T12:11:08.000Z</time>
      </trkpt>
      <trkpt lat="44.66139" lon="5.04068">
        <ele>619</ele>
        <time>2026-05-26T12:11:09.000Z</time>
      </trkpt>
      <trkpt lat="44.66138" lon="5.04069">
        <ele>619</ele>
        <time>2026-05-26T12:11:10.000Z</time>
      </trkpt>
      <trkpt lat="44.66136" lon="5.0407">
        <ele>619</ele>
        <time>2026-05-26T12:11:11.000Z</time>
      </trkpt>
      <trkpt lat="44.66135" lon="5.0407">
        <ele>619</ele>
        <time>2026-05-26T12:11:12.000Z</time>
      </trkpt>
      <trkpt lat="44.66134" lon="5.0407">
        <ele>619</ele>
        <time>2026-05-26T12:11:13.000Z</time>
      </trkpt>
      <trkpt lat="44.66133" lon="5.04069">
        <ele>621</ele>
        <time>2026-05-26T12:11:14.000Z</time>
      </trkpt>
      <trkpt lat="44.66131" lon="5.0407">
        <ele>620</ele>
        <time>2026-05-26T12:11:15.000Z</time>
      </trkpt>
      <trkpt lat="44.6613" lon="5.0407">
        <ele>619</ele>
        <time>2026-05-26T12:11:16.000Z</time>
      </trkpt>
      <trkpt lat="44.66129" lon="5.04071">
        <ele>619</ele>
        <time>2026-05-26T12:11:17.000Z</time>
      </trkpt>
      <trkpt lat="44.66129" lon="5.04071">
        <ele>620</ele>
        <time>2026-05-26T12:11:18.000Z</time>
      </trkpt>
      <trkpt lat="44.66129" lon="5.0407">
        <ele>619</ele>
        <time>2026-05-26T12:11:19.000Z</time>
      </trkpt>
      <trkpt lat="44.66128" lon="5.04071">
        <ele>618</ele>
        <time>2026-05-26T12:11:20.000Z</time>
      </trkpt>
      <trkpt lat="44.66128" lon="5.04071">
        <ele>618</ele>
        <time>2026-05-26T12:11:21.000Z</time>
      </trkpt>
      <trkpt lat="44.66126" lon="5.04071">
        <ele>619</ele>
        <time>2026-05-26T12:11:22.000Z</time>
      </trkpt>
      <trkpt lat="44.66126" lon="5.04072">
        <ele>618</ele>
        <time>2026-05-26T12:11:23.000Z</time>
      </trkpt>
      <trkpt lat="44.66125" lon="5.04072">
        <ele>617</ele>
        <time>2026-05-26T12:11:24.000Z</time>
      </trkpt>
      <trkpt lat="44.66124" lon="5.04073">
        <ele>618</ele>
        <time>2026-05-26T12:11:25.000Z</time>
      </trkpt>
      <trkpt lat="44.66122" lon="5.04074">
        <ele>619</ele>
        <time>2026-05-26T12:11:26.000Z</time>
      </trkpt>
      <trkpt lat="44.66121" lon="5.04074">
        <ele>618</ele>
        <time>2026-05-26T12:11:27.000Z</time>
      </trkpt>
      <trkpt lat="44.66119" lon="5.04074">
        <ele>616</ele>
        <time>2026-05-26T12:11:28.000Z</time>
      </trkpt>
      <trkpt lat="44.66117" lon="5.04074">
        <ele>616</ele>
        <time>2026-05-26T12:11:29.000Z</time>
      </trkpt>
      <trkpt lat="44.66116" lon="5.04074">
        <ele>616</ele>
        <time>2026-05-26T12:11:30.000Z</time>
      </trkpt>
      <trkpt lat="44.66115" lon="5.04074">
        <ele>617</ele>
        <time>2026-05-26T12:11:31.000Z</time>
      </trkpt>
      <trkpt lat="44.66114" lon="5.04075">
        <ele>618</ele>
        <time>2026-05-26T12:11:32.000Z</time>
      </trkpt>
      <trkpt lat="44.66113" lon="5.04075">
        <ele>619</ele>
        <time>2026-05-26T12:11:33.000Z</time>
      </trkpt>
      <trkpt lat="44.66113" lon="5.04075">
        <ele>619</ele>
        <time>2026-05-26T12:11:34.000Z</time>
      </trkpt>
      <trkpt lat="44.66113" lon="5.04075">
        <ele>619</ele>
        <time>2026-05-26T12:11:35.000Z</time>
      </trkpt>
      <trkpt lat="44.6611" lon="5.04075">
        <ele>617</ele>
        <time>2026-05-26T12:11:36.000Z</time>
      </trkpt>
      <trkpt lat="44.66109" lon="5.04076">
        <ele>618</ele>
        <time>2026-05-26T12:11:37.000Z</time>
      </trkpt>
      <trkpt lat="44.66108" lon="5.04076">
        <ele>618</ele>
        <time>2026-05-26T12:11:38.000Z</time>
      </trkpt>
      <trkpt lat="44.66107" lon="5.04075">
        <ele>618</ele>
        <time>2026-05-26T12:11:39.000Z</time>
      </trkpt>
      <trkpt lat="44.66106" lon="5.04075">
        <ele>618</ele>
        <time>2026-05-26T12:11:40.000Z</time>
      </trkpt>
      <trkpt lat="44.66105" lon="5.04076">
        <ele>618</ele>
        <time>2026-05-26T12:11:41.000Z</time>
      </trkpt>
      <trkpt lat="44.66105" lon="5.04077">
        <ele>618</ele>
        <time>2026-05-26T12:11:42.000Z</time>
      </trkpt>
      <trkpt lat="44.66103" lon="5.04077">
        <ele>618</ele>
        <time>2026-05-26T12:11:43.000Z</time>
      </trkpt>
      <trkpt lat="44.66102" lon="5.04078">
        <ele>618</ele>
        <time>2026-05-26T12:11:44.000Z</time>
      </trkpt>
      <trkpt lat="44.661" lon="5.04079">
        <ele>618</ele>
        <time>2026-05-26T12:11:45.000Z</time>
      </trkpt>
      <trkpt lat="44.66099" lon="5.0408">
        <ele>619</ele>
        <time>2026-05-26T12:11:46.000Z</time>
      </trkpt>
      <trkpt lat="44.66098" lon="5.04081">
        <ele>620</ele>
        <time>2026-05-26T12:11:47.000Z</time>
      </trkpt>
      <trkpt lat="44.66098" lon="5.04081">
        <ele>621</ele>
        <time>2026-05-26T12:11:48.000Z</time>
      </trkpt>
      <trkpt lat="44.66097" lon="5.04082">
        <ele>621</ele>
        <time>2026-05-26T12:11:49.000Z</time>
      </trkpt>
      <trkpt lat="44.66096" lon="5.04083">
        <ele>621</ele>
        <time>2026-05-26T12:11:50.000Z</time>
      </trkpt>
      <trkpt lat="44.66096" lon="5.04084">
        <ele>621</ele>
        <time>2026-05-26T12:11:51.000Z</time>
      </trkpt>
      <trkpt lat="44.66094" lon="5.04085">
        <ele>621</ele>
        <time>2026-05-26T12:11:52.000Z</time>
      </trkpt>
      <trkpt lat="44.66093" lon="5.04086">
        <ele>622</ele>
        <time>2026-05-26T12:11:53.000Z</time>
      </trkpt>
      <trkpt lat="44.66091" lon="5.04087">
        <ele>621</ele>
        <time>2026-05-26T12:11:54.000Z</time>
      </trkpt>
      <trkpt lat="44.6609" lon="5.04087">
        <ele>622</ele>
        <time>2026-05-26T12:11:55.000Z</time>
      </trkpt>
      <trkpt lat="44.66089" lon="5.04087">
        <ele>623</ele>
        <time>2026-05-26T12:11:56.000Z</time>
      </trkpt>
      <trkpt lat="44.66087" lon="5.04087">
        <ele>623</ele>
        <time>2026-05-26T12:11:57.000Z</time>
      </trkpt>
      <trkpt lat="44.66086" lon="5.04087">
        <ele>622</ele>
        <time>2026-05-26T12:11:58.000Z</time>
      </trkpt>
      <trkpt lat="44.66085" lon="5.04088">
        <ele>622</ele>
        <time>2026-05-26T12:11:59.000Z</time>
      </trkpt>
      <trkpt lat="44.66084" lon="5.04088">
        <ele>622</ele>
        <time>2026-05-26T12:12:00.000Z</time>
      </trkpt>
      <trkpt lat="44.66084" lon="5.04088">
        <ele>622</ele>
        <time>2026-05-26T12:12:01.000Z</time>
      </trkpt>
      <trkpt lat="44.66084" lon="5.04088">
        <ele>622</ele>
        <time>2026-05-26T12:12:02.000Z</time>
      </trkpt>
      <trkpt lat="44.66081" lon="5.0409">
        <ele>623</ele>
        <time>2026-05-26T12:12:03.000Z</time>
      </trkpt>
      <trkpt lat="44.6608" lon="5.04091">
        <ele>623</ele>
        <time>2026-05-26T12:12:04.000Z</time>
      </trkpt>
      <trkpt lat="44.66079" lon="5.04091">
        <ele>624</ele>
        <time>2026-05-26T12:12:05.000Z</time>
      </trkpt>
      <trkpt lat="44.66078" lon="5.04091">
        <ele>623</ele>
        <time>2026-05-26T12:12:06.000Z</time>
      </trkpt>
      <trkpt lat="44.66076" lon="5.04091">
        <ele>623</ele>
        <time>2026-05-26T12:12:07.000Z</time>
      </trkpt>
      <trkpt lat="44.66075" lon="5.04091">
        <ele>623</ele>
        <time>2026-05-26T12:12:08.000Z</time>
      </trkpt>
      <trkpt lat="44.66074" lon="5.04091">
        <ele>623</ele>
        <time>2026-05-26T12:12:09.000Z</time>
      </trkpt>
      <trkpt lat="44.66075" lon="5.04091">
        <ele>623</ele>
        <time>2026-05-26T12:12:10.000Z</time>
      </trkpt>
      <trkpt lat="44.66075" lon="5.04091">
        <ele>623</ele>
        <time>2026-05-26T12:12:11.000Z</time>
      </trkpt>
      <trkpt lat="44.66075" lon="5.04091">
        <ele>623</ele>
        <time>2026-05-26T12:12:12.000Z</time>
      </trkpt>
      <trkpt lat="44.66074" lon="5.04091">
        <ele>622</ele>
        <time>2026-05-26T12:12:13.000Z</time>
      </trkpt>
      <trkpt lat="44.66075" lon="5.04091">
        <ele>623</ele>
        <time>2026-05-26T12:12:14.000Z</time>
      </trkpt>
      <trkpt lat="44.66075" lon="5.04091">
        <ele>623</ele>
        <time>2026-05-26T12:12:15.000Z</time>
      </trkpt>
      <trkpt lat="44.66075" lon="5.04091">
        <ele>623</ele>
        <time>2026-05-26T12:12:16.000Z</time>
      </trkpt>
      <trkpt lat="44.66075" lon="5.04091">
        <ele>623</ele>
        <time>2026-05-26T12:12:17.000Z</time>
      </trkpt>
      <trkpt lat="44.66075" lon="5.04091">
        <ele>623</ele>
        <time>2026-05-26T12:12:18.000Z</time>
      </trkpt>
      <trkpt lat="44.66075" lon="5.04091">
        <ele>623</ele>
        <time>2026-05-26T12:12:19.000Z</time>
      </trkpt>
      <trkpt lat="44.66075" lon="5.04091">
        <ele>623</ele>
        <time>2026-05-26T12:12:20.000Z</time>
      </trkpt>
      <trkpt lat="44.66075" lon="5.04091">
        <ele>623</ele>
        <time>2026-05-26T12:12:21.000Z</time>
      </trkpt>
      <trkpt lat="44.66075" lon="5.04091">
        <ele>623</ele>
        <time>2026-05-26T12:12:22.000Z</time>
      </trkpt>
      <trkpt lat="44.66075" lon="5.04091">
        <ele>623</ele>
        <time>2026-05-26T12:12:23.000Z</time>
      </trkpt>
      <trkpt lat="44.66075" lon="5.04091">
        <ele>623</ele>
        <time>2026-05-26T12:12:24.000Z</time>
      </trkpt>
      <trkpt lat="44.66075" lon="5.04091">
        <ele>623</ele>
        <time>2026-05-26T12:12:25.000Z</time>
      </trkpt>
      <trkpt lat="44.66075" lon="5.04091">
        <ele>623</ele>
        <time>2026-05-26T12:12:26.000Z</time>
      </trkpt>
      <trkpt lat="44.66075" lon="5.04091">
        <ele>623</ele>
        <time>2026-05-26T12:12:27.000Z</time>
      </trkpt>
      <trkpt lat="44.66075" lon="5.04091">
        <ele>623</ele>
        <time>2026-05-26T12:12:28.000Z</time>
      </trkpt>
      <trkpt lat="44.66075" lon="5.04091">
        <ele>623</ele>
        <time>2026-05-26T12:12:29.000Z</time>
      </trkpt>
      <trkpt lat="44.66075" lon="5.04091">
        <ele>623</ele>
        <time>2026-05-26T12:12:30.000Z</time>
      </trkpt>
      <trkpt lat="44.66075" lon="5.04091">
        <ele>623</ele>
        <time>2026-05-26T12:12:31.000Z</time>
      </trkpt>
      <trkpt lat="44.66075" lon="5.04091">
        <ele>623</ele>
        <time>2026-05-26T12:12:32.000Z</time>
      </trkpt>
      <trkpt lat="44.66075" lon="5.04091">
        <ele>623</ele>
        <time>2026-05-26T12:12:33.000Z</time>
      </trkpt>
      <trkpt lat="44.66075" lon="5.04091">
        <ele>623</ele>
        <time>2026-05-26T12:12:34.000Z</time>
      </trkpt>
      <trkpt lat="44.66075" lon="5.04091">
        <ele>623</ele>
        <time>2026-05-26T12:12:35.000Z</time>
      </trkpt>
      <trkpt lat="44.66075" lon="5.04091">
        <ele>623</ele>
        <time>2026-05-26T12:12:36.000Z</time>
      </trkpt>
      <trkpt lat="44.66075" lon="5.04091">
        <ele>623</ele>
        <time>2026-05-26T12:12:37.000Z</time>
      </trkpt>
      <trkpt lat="44.66075" lon="5.04091">
        <ele>623</ele>
        <time>2026-05-26T12:12:38.000Z</time>
      </trkpt>
      <trkpt lat="44.66075" lon="5.04091">
        <ele>623</ele>
        <time>2026-05-26T12:12:39.000Z</time>
      </trkpt>
      <trkpt lat="44.66075" lon="5.04091">
        <ele>623</ele>
        <time>2026-05-26T12:12:40.000Z</time>
      </trkpt>
      <trkpt lat="44.66075" lon="5.04091">
        <ele>623</ele>
        <time>2026-05-26T12:12:41.000Z</time>
      </trkpt>
      <trkpt lat="44.66075" lon="5.04091">
        <ele>623</ele>
        <time>2026-05-26T12:12:42.000Z</time>
      </trkpt>
      <trkpt lat="44.66075" lon="5.04091">
        <ele>623</ele>
        <time>2026-05-26T12:12:43.000Z</time>
      </trkpt>
      <trkpt lat="44.66074" lon="5.0409">
        <ele>623</ele>
        <time>2026-05-26T12:12:44.000Z</time>
      </trkpt>
      <trkpt lat="44.66073" lon="5.04089">
        <ele>623</ele>
        <time>2026-05-26T12:12:45.000Z</time>
      </trkpt>
      <trkpt lat="44.6607" lon="5.04089">
        <ele>624</ele>
        <time>2026-05-26T12:12:46.000Z</time>
      </trkpt>
      <trkpt lat="44.66069" lon="5.04089">
        <ele>624</ele>
        <time>2026-05-26T12:12:47.000Z</time>
      </trkpt>
      <trkpt lat="44.66068" lon="5.04089">
        <ele>623</ele>
        <time>2026-05-26T12:12:48.000Z</time>
      </trkpt>
      <trkpt lat="44.66068" lon="5.04089">
        <ele>624</ele>
        <time>2026-05-26T12:12:49.000Z</time>
      </trkpt>
      <trkpt lat="44.66068" lon="5.04089">
        <ele>624</ele>
        <time>2026-05-26T12:12:50.000Z</time>
      </trkpt>
      <trkpt lat="44.66068" lon="5.04089">
        <ele>624</ele>
        <time>2026-05-26T12:12:51.000Z</time>
      </trkpt>
      <trkpt lat="44.66065" lon="5.04087">
        <ele>623</ele>
        <time>2026-05-26T12:12:52.000Z</time>
      </trkpt>
      <trkpt lat="44.66064" lon="5.04087">
        <ele>623</ele>
        <time>2026-05-26T12:12:53.000Z</time>
      </trkpt>
      <trkpt lat="44.66062" lon="5.04086">
        <ele>624</ele>
        <time>2026-05-26T12:12:54.000Z</time>
      </trkpt>
      <trkpt lat="44.6606" lon="5.04086">
        <ele>623</ele>
        <time>2026-05-26T12:12:55.000Z</time>
      </trkpt>
      <trkpt lat="44.66058" lon="5.04086">
        <ele>623</ele>
        <time>2026-05-26T12:12:56.000Z</time>
      </trkpt>
      <trkpt lat="44.66057" lon="5.04086">
        <ele>623</ele>
        <time>2026-05-26T12:12:57.000Z</time>
      </trkpt>
      <trkpt lat="44.66056" lon="5.04086">
        <ele>623</ele>
        <time>2026-05-26T12:12:58.000Z</time>
      </trkpt>
      <trkpt lat="44.66054" lon="5.04085">
        <ele>623</ele>
        <time>2026-05-26T12:12:59.000Z</time>
      </trkpt>
      <trkpt lat="44.66053" lon="5.04086">
        <ele>622</ele>
        <time>2026-05-26T12:13:00.000Z</time>
      </trkpt>
      <trkpt lat="44.66052" lon="5.04086">
        <ele>623</ele>
        <time>2026-05-26T12:13:01.000Z</time>
      </trkpt>
      <trkpt lat="44.66051" lon="5.04085">
        <ele>622</ele>
        <time>2026-05-26T12:13:02.000Z</time>
      </trkpt>
      <trkpt lat="44.6605" lon="5.04085">
        <ele>622</ele>
        <time>2026-05-26T12:13:03.000Z</time>
      </trkpt>
      <trkpt lat="44.6605" lon="5.04085">
        <ele>622</ele>
        <time>2026-05-26T12:13:04.000Z</time>
      </trkpt>
      <trkpt lat="44.66049" lon="5.04085">
        <ele>622</ele>
        <time>2026-05-26T12:13:05.000Z</time>
      </trkpt>
      <trkpt lat="44.66048" lon="5.04086">
        <ele>621</ele>
        <time>2026-05-26T12:13:06.000Z</time>
      </trkpt>
      <trkpt lat="44.66048" lon="5.04086">
        <ele>621</ele>
        <time>2026-05-26T12:13:07.000Z</time>
      </trkpt>
      <trkpt lat="44.66048" lon="5.04086">
        <ele>621</ele>
        <time>2026-05-26T12:13:08.000Z</time>
      </trkpt>
      <trkpt lat="44.66048" lon="5.04086">
        <ele>621</ele>
        <time>2026-05-26T12:13:09.000Z</time>
      </trkpt>
      <trkpt lat="44.66048" lon="5.04086">
        <ele>621</ele>
        <time>2026-05-26T12:13:10.000Z</time>
      </trkpt>
      <trkpt lat="44.66048" lon="5.04086">
        <ele>621</ele>
        <time>2026-05-26T12:13:11.000Z</time>
      </trkpt>
      <trkpt lat="44.66048" lon="5.04086">
        <ele>621</ele>
        <time>2026-05-26T12:13:12.000Z</time>
      </trkpt>
      <trkpt lat="44.66048" lon="5.04086">
        <ele>621</ele>
        <time>2026-05-26T12:13:13.000Z</time>
      </trkpt>
      <trkpt lat="44.66048" lon="5.04086">
        <ele>621</ele>
        <time>2026-05-26T12:13:14.000Z</time>
      </trkpt>
      <trkpt lat="44.66048" lon="5.04086">
        <ele>621</ele>
        <time>2026-05-26T12:13:15.000Z</time>
      </trkpt>
      <trkpt lat="44.66048" lon="5.04086">
        <ele>621</ele>
        <time>2026-05-26T12:13:16.000Z</time>
      </trkpt>
      <trkpt lat="44.66048" lon="5.04086">
        <ele>621</ele>
        <time>2026-05-26T12:13:17.000Z</time>
      </trkpt>
      <trkpt lat="44.66046" lon="5.04085">
        <ele>620</ele>
        <time>2026-05-26T12:13:18.000Z</time>
      </trkpt>
      <trkpt lat="44.66045" lon="5.04085">
        <ele>620</ele>
        <time>2026-05-26T12:13:19.000Z</time>
      </trkpt>
      <trkpt lat="44.66043" lon="5.04085">
        <ele>620</ele>
        <time>2026-05-26T12:13:20.000Z</time>
      </trkpt>
      <trkpt lat="44.66042" lon="5.04085">
        <ele>619</ele>
        <time>2026-05-26T12:13:21.000Z</time>
      </trkpt>
      <trkpt lat="44.6604" lon="5.04084">
        <ele>619</ele>
        <time>2026-05-26T12:13:22.000Z</time>
      </trkpt>
      <trkpt lat="44.66039" lon="5.04084">
        <ele>620</ele>
        <time>2026-05-26T12:13:23.000Z</time>
      </trkpt>
      <trkpt lat="44.66038" lon="5.04084">
        <ele>620</ele>
        <time>2026-05-26T12:13:24.000Z</time>
      </trkpt>
      <trkpt lat="44.66037" lon="5.04083">
        <ele>620</ele>
        <time>2026-05-26T12:13:25.000Z</time>
      </trkpt>
      <trkpt lat="44.66036" lon="5.04082">
        <ele>620</ele>
        <time>2026-05-26T12:13:26.000Z</time>
      </trkpt>
      <trkpt lat="44.66034" lon="5.04081">
        <ele>621</ele>
        <time>2026-05-26T12:13:27.000Z</time>
      </trkpt>
      <trkpt lat="44.66033" lon="5.0408">
        <ele>622</ele>
        <time>2026-05-26T12:13:28.000Z</time>
      </trkpt>
      <trkpt lat="44.66032" lon="5.04078">
        <ele>623</ele>
        <time>2026-05-26T12:13:29.000Z</time>
      </trkpt>
      <trkpt lat="44.66031" lon="5.04078">
        <ele>624</ele>
        <time>2026-05-26T12:13:30.000Z</time>
      </trkpt>
      <trkpt lat="44.6603" lon="5.04077">
        <ele>624</ele>
        <time>2026-05-26T12:13:31.000Z</time>
      </trkpt>
      <trkpt lat="44.66029" lon="5.04077">
        <ele>623</ele>
        <time>2026-05-26T12:13:32.000Z</time>
      </trkpt>
      <trkpt lat="44.66028" lon="5.04076">
        <ele>624</ele>
        <time>2026-05-26T12:13:33.000Z</time>
      </trkpt>
      <trkpt lat="44.66027" lon="5.04075">
        <ele>623</ele>
        <time>2026-05-26T12:13:34.000Z</time>
      </trkpt>
      <trkpt lat="44.66026" lon="5.04077">
        <ele>624</ele>
        <time>2026-05-26T12:13:35.000Z</time>
      </trkpt>
      <trkpt lat="44.66024" lon="5.04078">
        <ele>624</ele>
        <time>2026-05-26T12:13:36.000Z</time>
      </trkpt>
      <trkpt lat="44.66023" lon="5.04078">
        <ele>624</ele>
        <time>2026-05-26T12:13:37.000Z</time>
      </trkpt>
      <trkpt lat="44.66022" lon="5.04078">
        <ele>623</ele>
        <time>2026-05-26T12:13:38.000Z</time>
      </trkpt>
      <trkpt lat="44.66021" lon="5.04078">
        <ele>622</ele>
        <time>2026-05-26T12:13:39.000Z</time>
      </trkpt>
      <trkpt lat="44.66021" lon="5.04077">
        <ele>624</ele>
        <time>2026-05-26T12:13:40.000Z</time>
      </trkpt>
      <trkpt lat="44.66019" lon="5.04077">
        <ele>622</ele>
        <time>2026-05-26T12:13:41.000Z</time>
      </trkpt>
      <trkpt lat="44.66018" lon="5.04078">
        <ele>622</ele>
        <time>2026-05-26T12:13:42.000Z</time>
      </trkpt>
      <trkpt lat="44.66018" lon="5.04079">
        <ele>622</ele>
        <time>2026-05-26T12:13:43.000Z</time>
      </trkpt>
      <trkpt lat="44.66018" lon="5.04079">
        <ele>622</ele>
        <time>2026-05-26T12:13:44.000Z</time>
      </trkpt>
      <trkpt lat="44.66015" lon="5.04079">
        <ele>624</ele>
        <time>2026-05-26T12:13:45.000Z</time>
      </trkpt>
      <trkpt lat="44.66014" lon="5.04078">
        <ele>624</ele>
        <time>2026-05-26T12:13:46.000Z</time>
      </trkpt>
      <trkpt lat="44.66013" lon="5.04079">
        <ele>625</ele>
        <time>2026-05-26T12:13:47.000Z</time>
      </trkpt>
      <trkpt lat="44.66012" lon="5.04079">
        <ele>625</ele>
        <time>2026-05-26T12:13:48.000Z</time>
      </trkpt>
      <trkpt lat="44.66011" lon="5.0408">
        <ele>623</ele>
        <time>2026-05-26T12:13:49.000Z</time>
      </trkpt>
      <trkpt lat="44.6601" lon="5.0408">
        <ele>624</ele>
        <time>2026-05-26T12:13:50.000Z</time>
      </trkpt>
      <trkpt lat="44.66009" lon="5.04081">
        <ele>623</ele>
        <time>2026-05-26T12:13:51.000Z</time>
      </trkpt>
      <trkpt lat="44.66007" lon="5.04082">
        <ele>622</ele>
        <time>2026-05-26T12:13:52.000Z</time>
      </trkpt>
      <trkpt lat="44.66006" lon="5.04083">
        <ele>622</ele>
        <time>2026-05-26T12:13:53.000Z</time>
      </trkpt>
      <trkpt lat="44.66006" lon="5.04083">
        <ele>622</ele>
        <time>2026-05-26T12:13:54.000Z</time>
      </trkpt>
      <trkpt lat="44.66004" lon="5.04082">
        <ele>621</ele>
        <time>2026-05-26T12:13:55.000Z</time>
      </trkpt>
      <trkpt lat="44.66003" lon="5.04081">
        <ele>622</ele>
        <time>2026-05-26T12:13:56.000Z</time>
      </trkpt>
      <trkpt lat="44.66003" lon="5.04081">
        <ele>622</ele>
        <time>2026-05-26T12:13:57.000Z</time>
      </trkpt>
      <trkpt lat="44.66001" lon="5.04079">
        <ele>621</ele>
        <time>2026-05-26T12:13:58.000Z</time>
      </trkpt>
      <trkpt lat="44.65999" lon="5.04079">
        <ele>622</ele>
        <time>2026-05-26T12:13:59.000Z</time>
      </trkpt>
      <trkpt lat="44.65998" lon="5.04078">
        <ele>621</ele>
        <time>2026-05-26T12:14:00.000Z</time>
      </trkpt>
      <trkpt lat="44.65997" lon="5.04077">
        <ele>620</ele>
        <time>2026-05-26T12:14:01.000Z</time>
      </trkpt>
      <trkpt lat="44.65997" lon="5.04075">
        <ele>619</ele>
        <time>2026-05-26T12:14:02.000Z</time>
      </trkpt>
      <trkpt lat="44.65996" lon="5.04074">
        <ele>619</ele>
        <time>2026-05-26T12:14:03.000Z</time>
      </trkpt>
      <trkpt lat="44.65996" lon="5.04073">
        <ele>619</ele>
        <time>2026-05-26T12:14:04.000Z</time>
      </trkpt>
      <trkpt lat="44.65995" lon="5.04072">
        <ele>619</ele>
        <time>2026-05-26T12:14:05.000Z</time>
      </trkpt>
      <trkpt lat="44.65993" lon="5.04071">
        <ele>618</ele>
        <time>2026-05-26T12:14:06.000Z</time>
      </trkpt>
      <trkpt lat="44.65992" lon="5.0407">
        <ele>618</ele>
        <time>2026-05-26T12:14:07.000Z</time>
      </trkpt>
      <trkpt lat="44.65991" lon="5.0407">
        <ele>620</ele>
        <time>2026-05-26T12:14:08.000Z</time>
      </trkpt>
      <trkpt lat="44.65989" lon="5.04068">
        <ele>618</ele>
        <time>2026-05-26T12:14:09.000Z</time>
      </trkpt>
      <trkpt lat="44.65988" lon="5.04066">
        <ele>618</ele>
        <time>2026-05-26T12:14:10.000Z</time>
      </trkpt>
      <trkpt lat="44.65987" lon="5.04064">
        <ele>617</ele>
        <time>2026-05-26T12:14:11.000Z</time>
      </trkpt>
      <trkpt lat="44.65986" lon="5.04062">
        <ele>618</ele>
        <time>2026-05-26T12:14:12.000Z</time>
      </trkpt>
      <trkpt lat="44.65985" lon="5.04062">
        <ele>618</ele>
        <time>2026-05-26T12:14:13.000Z</time>
      </trkpt>
      <trkpt lat="44.65984" lon="5.04062">
        <ele>618</ele>
        <time>2026-05-26T12:14:14.000Z</time>
      </trkpt>
      <trkpt lat="44.65984" lon="5.04062">
        <ele>618</ele>
        <time>2026-05-26T12:14:15.000Z</time>
      </trkpt>
      <trkpt lat="44.65982" lon="5.04062">
        <ele>619</ele>
        <time>2026-05-26T12:14:16.000Z</time>
      </trkpt>
      <trkpt lat="44.6598" lon="5.04063">
        <ele>619</ele>
        <time>2026-05-26T12:14:17.000Z</time>
      </trkpt>
      <trkpt lat="44.65979" lon="5.04062">
        <ele>617</ele>
        <time>2026-05-26T12:14:18.000Z</time>
      </trkpt>
      <trkpt lat="44.65978" lon="5.04063">
        <ele>617</ele>
        <time>2026-05-26T12:14:19.000Z</time>
      </trkpt>
      <trkpt lat="44.65977" lon="5.04063">
        <ele>617</ele>
        <time>2026-05-26T12:14:20.000Z</time>
      </trkpt>
      <trkpt lat="44.65975" lon="5.04063">
        <ele>618</ele>
        <time>2026-05-26T12:14:21.000Z</time>
      </trkpt>
      <trkpt lat="44.65974" lon="5.04064">
        <ele>618</ele>
        <time>2026-05-26T12:14:22.000Z</time>
      </trkpt>
      <trkpt lat="44.65973" lon="5.04064">
        <ele>618</ele>
        <time>2026-05-26T12:14:23.000Z</time>
      </trkpt>
      <trkpt lat="44.65971" lon="5.04064">
        <ele>619</ele>
        <time>2026-05-26T12:14:24.000Z</time>
      </trkpt>
      <trkpt lat="44.65971" lon="5.04065">
        <ele>619</ele>
        <time>2026-05-26T12:14:25.000Z</time>
      </trkpt>
      <trkpt lat="44.65969" lon="5.04065">
        <ele>620</ele>
        <time>2026-05-26T12:14:26.000Z</time>
      </trkpt>
      <trkpt lat="44.65969" lon="5.04064">
        <ele>621</ele>
        <time>2026-05-26T12:14:27.000Z</time>
      </trkpt>
      <trkpt lat="44.65968" lon="5.04065">
        <ele>621</ele>
        <time>2026-05-26T12:14:28.000Z</time>
      </trkpt>
      <trkpt lat="44.65967" lon="5.04065">
        <ele>621</ele>
        <time>2026-05-26T12:14:29.000Z</time>
      </trkpt>
      <trkpt lat="44.65966" lon="5.04066">
        <ele>622</ele>
        <time>2026-05-26T12:14:30.000Z</time>
      </trkpt>
      <trkpt lat="44.65964" lon="5.04065">
        <ele>622</ele>
        <time>2026-05-26T12:14:31.000Z</time>
      </trkpt>
      <trkpt lat="44.65963" lon="5.04065">
        <ele>620</ele>
        <time>2026-05-26T12:14:32.000Z</time>
      </trkpt>
      <trkpt lat="44.65962" lon="5.04064">
        <ele>620</ele>
        <time>2026-05-26T12:14:33.000Z</time>
      </trkpt>
      <trkpt lat="44.65961" lon="5.04065">
        <ele>621</ele>
        <time>2026-05-26T12:14:34.000Z</time>
      </trkpt>
      <trkpt lat="44.6596" lon="5.04066">
        <ele>620</ele>
        <time>2026-05-26T12:14:35.000Z</time>
      </trkpt>
      <trkpt lat="44.65959" lon="5.04065">
        <ele>619</ele>
        <time>2026-05-26T12:14:36.000Z</time>
      </trkpt>
      <trkpt lat="44.65957" lon="5.04066">
        <ele>621</ele>
        <time>2026-05-26T12:14:37.000Z</time>
      </trkpt>
      <trkpt lat="44.65956" lon="5.04066">
        <ele>622</ele>
        <time>2026-05-26T12:14:38.000Z</time>
      </trkpt>
      <trkpt lat="44.65956" lon="5.04065">
        <ele>622</ele>
        <time>2026-05-26T12:14:39.000Z</time>
      </trkpt>
      <trkpt lat="44.65955" lon="5.04064">
        <ele>621</ele>
        <time>2026-05-26T12:14:40.000Z</time>
      </trkpt>
      <trkpt lat="44.65953" lon="5.04064">
        <ele>622</ele>
        <time>2026-05-26T12:14:41.000Z</time>
      </trkpt>
      <trkpt lat="44.65953" lon="5.04065">
        <ele>623</ele>
        <time>2026-05-26T12:14:42.000Z</time>
      </trkpt>
      <trkpt lat="44.65952" lon="5.04065">
        <ele>622</ele>
        <time>2026-05-26T12:14:43.000Z</time>
      </trkpt>
      <trkpt lat="44.65951" lon="5.04065">
        <ele>622</ele>
        <time>2026-05-26T12:14:44.000Z</time>
      </trkpt>
      <trkpt lat="44.6595" lon="5.04066">
        <ele>623</ele>
        <time>2026-05-26T12:14:45.000Z</time>
      </trkpt>
      <trkpt lat="44.65948" lon="5.04066">
        <ele>623</ele>
        <time>2026-05-26T12:14:46.000Z</time>
      </trkpt>
      <trkpt lat="44.65948" lon="5.04066">
        <ele>623</ele>
        <time>2026-05-26T12:14:47.000Z</time>
      </trkpt>
      <trkpt lat="44.65948" lon="5.04066">
        <ele>623</ele>
        <time>2026-05-26T12:14:48.000Z</time>
      </trkpt>
      <trkpt lat="44.65948" lon="5.04066">
        <ele>623</ele>
        <time>2026-05-26T12:14:49.000Z</time>
      </trkpt>
      <trkpt lat="44.65948" lon="5.04066">
        <ele>623</ele>
        <time>2026-05-26T12:14:50.000Z</time>
      </trkpt>
      <trkpt lat="44.65946" lon="5.04068">
        <ele>623</ele>
        <time>2026-05-26T12:14:51.000Z</time>
      </trkpt>
      <trkpt lat="44.65946" lon="5.04068">
        <ele>623</ele>
        <time>2026-05-26T12:14:52.000Z</time>
      </trkpt>
      <trkpt lat="44.65946" lon="5.04068">
        <ele>623</ele>
        <time>2026-05-26T12:14:53.000Z</time>
      </trkpt>
      <trkpt lat="44.65946" lon="5.04068">
        <ele>623</ele>
        <time>2026-05-26T12:14:54.000Z</time>
      </trkpt>
      <trkpt lat="44.65946" lon="5.04068">
        <ele>623</ele>
        <time>2026-05-26T12:14:55.000Z</time>
      </trkpt>
      <trkpt lat="44.65946" lon="5.04068">
        <ele>623</ele>
        <time>2026-05-26T12:14:56.000Z</time>
      </trkpt>
      <trkpt lat="44.65946" lon="5.04068">
        <ele>623</ele>
        <time>2026-05-26T12:14:57.000Z</time>
      </trkpt>
      <trkpt lat="44.65946" lon="5.04068">
        <ele>623</ele>
        <time>2026-05-26T12:14:58.000Z</time>
      </trkpt>
      <trkpt lat="44.65946" lon="5.04068">
        <ele>623</ele>
        <time>2026-05-26T12:14:59.000Z</time>
      </trkpt>
      <trkpt lat="44.65946" lon="5.04068">
        <ele>623</ele>
        <time>2026-05-26T12:15:00.000Z</time>
      </trkpt>
      <trkpt lat="44.65946" lon="5.04068">
        <ele>623</ele>
        <time>2026-05-26T12:15:01.000Z</time>
      </trkpt>
      <trkpt lat="44.65946" lon="5.04068">
        <ele>623</ele>
        <time>2026-05-26T12:15:02.000Z</time>
      </trkpt>
      <trkpt lat="44.65946" lon="5.04068">
        <ele>623</ele>
        <time>2026-05-26T12:15:03.000Z</time>
      </trkpt>
      <trkpt lat="44.65946" lon="5.04068">
        <ele>623</ele>
        <time>2026-05-26T12:15:04.000Z</time>
      </trkpt>
      <trkpt lat="44.65946" lon="5.04068">
        <ele>623</ele>
        <time>2026-05-26T12:15:05.000Z</time>
      </trkpt>
      <trkpt lat="44.65946" lon="5.04068">
        <ele>623</ele>
        <time>2026-05-26T12:15:06.000Z</time>
      </trkpt>
      <trkpt lat="44.65944" lon="5.04067">
        <ele>623</ele>
        <time>2026-05-26T12:15:07.000Z</time>
      </trkpt>
      <trkpt lat="44.65944" lon="5.04067">
        <ele>623</ele>
        <time>2026-05-26T12:15:08.000Z</time>
      </trkpt>
      <trkpt lat="44.65943" lon="5.04066">
        <ele>622</ele>
        <time>2026-05-26T12:15:09.000Z</time>
      </trkpt>
      <trkpt lat="44.65942" lon="5.04066">
        <ele>621</ele>
        <time>2026-05-26T12:15:10.000Z</time>
      </trkpt>
      <trkpt lat="44.65942" lon="5.04066">
        <ele>622</ele>
        <time>2026-05-26T12:15:11.000Z</time>
      </trkpt>
      <trkpt lat="44.65942" lon="5.04066">
        <ele>622</ele>
        <time>2026-05-26T12:15:12.000Z</time>
      </trkpt>
      <trkpt lat="44.6594" lon="5.04066">
        <ele>622</ele>
        <time>2026-05-26T12:15:13.000Z</time>
      </trkpt>
      <trkpt lat="44.65939" lon="5.04065">
        <ele>622</ele>
        <time>2026-05-26T12:15:14.000Z</time>
      </trkpt>
      <trkpt lat="44.65937" lon="5.04064">
        <ele>622</ele>
        <time>2026-05-26T12:15:15.000Z</time>
      </trkpt>
      <trkpt lat="44.65936" lon="5.04065">
        <ele>622</ele>
        <time>2026-05-26T12:15:16.000Z</time>
      </trkpt>
      <trkpt lat="44.65936" lon="5.04063">
        <ele>621</ele>
        <time>2026-05-26T12:15:17.000Z</time>
      </trkpt>
      <trkpt lat="44.65934" lon="5.04064">
        <ele>622</ele>
        <time>2026-05-26T12:15:18.000Z</time>
      </trkpt>
      <trkpt lat="44.65932" lon="5.04063">
        <ele>622</ele>
        <time>2026-05-26T12:15:19.000Z</time>
      </trkpt>
      <trkpt lat="44.6593" lon="5.04064">
        <ele>621</ele>
        <time>2026-05-26T12:15:20.000Z</time>
      </trkpt>
      <trkpt lat="44.6593" lon="5.04063">
        <ele>621</ele>
        <time>2026-05-26T12:15:21.000Z</time>
      </trkpt>
      <trkpt lat="44.65928" lon="5.04064">
        <ele>621</ele>
        <time>2026-05-26T12:15:22.000Z</time>
      </trkpt>
      <trkpt lat="44.65927" lon="5.04063">
        <ele>622</ele>
        <time>2026-05-26T12:15:23.000Z</time>
      </trkpt>
      <trkpt lat="44.65927" lon="5.04063">
        <ele>621</ele>
        <time>2026-05-26T12:15:24.000Z</time>
      </trkpt>
      <trkpt lat="44.65926" lon="5.04063">
        <ele>621</ele>
        <time>2026-05-26T12:15:25.000Z</time>
      </trkpt>
      <trkpt lat="44.65926" lon="5.04063">
        <ele>622</ele>
        <time>2026-05-26T12:15:26.000Z</time>
      </trkpt>
      <trkpt lat="44.65926" lon="5.04061">
        <ele>622</ele>
        <time>2026-05-26T12:15:27.000Z</time>
      </trkpt>
      <trkpt lat="44.65925" lon="5.04061">
        <ele>621</ele>
        <time>2026-05-26T12:15:28.000Z</time>
      </trkpt>
      <trkpt lat="44.65925" lon="5.04059">
        <ele>621</ele>
        <time>2026-05-26T12:15:29.000Z</time>
      </trkpt>
      <trkpt lat="44.65925" lon="5.04059">
        <ele>621</ele>
        <time>2026-05-26T12:15:30.000Z</time>
      </trkpt>
      <trkpt lat="44.65925" lon="5.04059">
        <ele>621</ele>
        <time>2026-05-26T12:15:31.000Z</time>
      </trkpt>
      <trkpt lat="44.65922" lon="5.04057">
        <ele>623</ele>
        <time>2026-05-26T12:15:32.000Z</time>
      </trkpt>
      <trkpt lat="44.6592" lon="5.04056">
        <ele>622</ele>
        <time>2026-05-26T12:15:33.000Z</time>
      </trkpt>
      <trkpt lat="44.65919" lon="5.04055">
        <ele>623</ele>
        <time>2026-05-26T12:15:34.000Z</time>
      </trkpt>
      <trkpt lat="44.65918" lon="5.04056">
        <ele>625</ele>
        <time>2026-05-26T12:15:35.000Z</time>
      </trkpt>
      <trkpt lat="44.65917" lon="5.04055">
        <ele>625</ele>
        <time>2026-05-26T12:15:36.000Z</time>
      </trkpt>
      <trkpt lat="44.65915" lon="5.04055">
        <ele>624</ele>
        <time>2026-05-26T12:15:37.000Z</time>
      </trkpt>
      <trkpt lat="44.65914" lon="5.04056">
        <ele>625</ele>
        <time>2026-05-26T12:15:38.000Z</time>
      </trkpt>
      <trkpt lat="44.65913" lon="5.04056">
        <ele>624</ele>
        <time>2026-05-26T12:15:39.000Z</time>
      </trkpt>
      <trkpt lat="44.65912" lon="5.04057">
        <ele>625</ele>
        <time>2026-05-26T12:15:40.000Z</time>
      </trkpt>
      <trkpt lat="44.65911" lon="5.04056">
        <ele>626</ele>
        <time>2026-05-26T12:15:41.000Z</time>
      </trkpt>
      <trkpt lat="44.6591" lon="5.04055">
        <ele>626</ele>
        <time>2026-05-26T12:15:42.000Z</time>
      </trkpt>
      <trkpt lat="44.65909" lon="5.04055">
        <ele>627</ele>
        <time>2026-05-26T12:15:43.000Z</time>
      </trkpt>
      <trkpt lat="44.65909" lon="5.04054">
        <ele>628</ele>
        <time>2026-05-26T12:15:44.000Z</time>
      </trkpt>
      <trkpt lat="44.65908" lon="5.04053">
        <ele>628</ele>
        <time>2026-05-26T12:15:45.000Z</time>
      </trkpt>
      <trkpt lat="44.65907" lon="5.04052">
        <ele>629</ele>
        <time>2026-05-26T12:15:46.000Z</time>
      </trkpt>
      <trkpt lat="44.65906" lon="5.04052">
        <ele>629</ele>
        <time>2026-05-26T12:15:47.000Z</time>
      </trkpt>
      <trkpt lat="44.65905" lon="5.04051">
        <ele>628</ele>
        <time>2026-05-26T12:15:48.000Z</time>
      </trkpt>
      <trkpt lat="44.65904" lon="5.0405">
        <ele>629</ele>
        <time>2026-05-26T12:15:49.000Z</time>
      </trkpt>
      <trkpt lat="44.65902" lon="5.04051">
        <ele>629</ele>
        <time>2026-05-26T12:15:50.000Z</time>
      </trkpt>
      <trkpt lat="44.65902" lon="5.04051">
        <ele>628</ele>
        <time>2026-05-26T12:15:51.000Z</time>
      </trkpt>
      <trkpt lat="44.65901" lon="5.04052">
        <ele>630</ele>
        <time>2026-05-26T12:15:52.000Z</time>
      </trkpt>
      <trkpt lat="44.65899" lon="5.04051">
        <ele>629</ele>
        <time>2026-05-26T12:15:53.000Z</time>
      </trkpt>
      <trkpt lat="44.65898" lon="5.04051">
        <ele>630</ele>
        <time>2026-05-26T12:15:54.000Z</time>
      </trkpt>
      <trkpt lat="44.65896" lon="5.04051">
        <ele>629</ele>
        <time>2026-05-26T12:15:55.000Z</time>
      </trkpt>
      <trkpt lat="44.65896" lon="5.04051">
        <ele>628</ele>
        <time>2026-05-26T12:15:56.000Z</time>
      </trkpt>
      <trkpt lat="44.65895" lon="5.04051">
        <ele>627</ele>
        <time>2026-05-26T12:15:57.000Z</time>
      </trkpt>
      <trkpt lat="44.65895" lon="5.04051">
        <ele>626</ele>
        <time>2026-05-26T12:15:58.000Z</time>
      </trkpt>
      <trkpt lat="44.65894" lon="5.04051">
        <ele>627</ele>
        <time>2026-05-26T12:15:59.000Z</time>
      </trkpt>
      <trkpt lat="44.65893" lon="5.04051">
        <ele>628</ele>
        <time>2026-05-26T12:16:00.000Z</time>
      </trkpt>
      <trkpt lat="44.65892" lon="5.0405">
        <ele>628</ele>
        <time>2026-05-26T12:16:01.000Z</time>
      </trkpt>
      <trkpt lat="44.65891" lon="5.04049">
        <ele>629</ele>
        <time>2026-05-26T12:16:02.000Z</time>
      </trkpt>
      <trkpt lat="44.6589" lon="5.04049">
        <ele>629</ele>
        <time>2026-05-26T12:16:03.000Z</time>
      </trkpt>
      <trkpt lat="44.65889" lon="5.0405">
        <ele>628</ele>
        <time>2026-05-26T12:16:04.000Z</time>
      </trkpt>
      <trkpt lat="44.65887" lon="5.04049">
        <ele>627</ele>
        <time>2026-05-26T12:16:05.000Z</time>
      </trkpt>
      <trkpt lat="44.65885" lon="5.0405">
        <ele>628</ele>
        <time>2026-05-26T12:16:06.000Z</time>
      </trkpt>
      <trkpt lat="44.65883" lon="5.0405">
        <ele>629</ele>
        <time>2026-05-26T12:16:07.000Z</time>
      </trkpt>
      <trkpt lat="44.65882" lon="5.0405">
        <ele>629</ele>
        <time>2026-05-26T12:16:08.000Z</time>
      </trkpt>
      <trkpt lat="44.65881" lon="5.04049">
        <ele>628</ele>
        <time>2026-05-26T12:16:09.000Z</time>
      </trkpt>
      <trkpt lat="44.65881" lon="5.04048">
        <ele>627</ele>
        <time>2026-05-26T12:16:10.000Z</time>
      </trkpt>
      <trkpt lat="44.6588" lon="5.04047">
        <ele>627</ele>
        <time>2026-05-26T12:16:11.000Z</time>
      </trkpt>
      <trkpt lat="44.65879" lon="5.04047">
        <ele>628</ele>
        <time>2026-05-26T12:16:12.000Z</time>
      </trkpt>
      <trkpt lat="44.65876" lon="5.04049">
        <ele>627</ele>
        <time>2026-05-26T12:16:13.000Z</time>
      </trkpt>
      <trkpt lat="44.65876" lon="5.0405">
        <ele>627</ele>
        <time>2026-05-26T12:16:14.000Z</time>
      </trkpt>
      <trkpt lat="44.65875" lon="5.04051">
        <ele>626</ele>
        <time>2026-05-26T12:16:15.000Z</time>
      </trkpt>
      <trkpt lat="44.65874" lon="5.0405">
        <ele>626</ele>
        <time>2026-05-26T12:16:16.000Z</time>
      </trkpt>
      <trkpt lat="44.65874" lon="5.0405">
        <ele>626</ele>
        <time>2026-05-26T12:16:17.000Z</time>
      </trkpt>
      <trkpt lat="44.65874" lon="5.0405">
        <ele>626</ele>
        <time>2026-05-26T12:16:18.000Z</time>
      </trkpt>
      <trkpt lat="44.65874" lon="5.0405">
        <ele>626</ele>
        <time>2026-05-26T12:16:19.000Z</time>
      </trkpt>
      <trkpt lat="44.65874" lon="5.0405">
        <ele>626</ele>
        <time>2026-05-26T12:16:20.000Z</time>
      </trkpt>
      <trkpt lat="44.65874" lon="5.0405">
        <ele>626</ele>
        <time>2026-05-26T12:16:21.000Z</time>
      </trkpt>
      <trkpt lat="44.65874" lon="5.0405">
        <ele>626</ele>
        <time>2026-05-26T12:16:22.000Z</time>
      </trkpt>
      <trkpt lat="44.65874" lon="5.0405">
        <ele>626</ele>
        <time>2026-05-26T12:16:23.000Z</time>
      </trkpt>
      <trkpt lat="44.65874" lon="5.0405">
        <ele>626</ele>
        <time>2026-05-26T12:16:24.000Z</time>
      </trkpt>
      <trkpt lat="44.65874" lon="5.0405">
        <ele>626</ele>
        <time>2026-05-26T12:16:25.000Z</time>
      </trkpt>
      <trkpt lat="44.65874" lon="5.0405">
        <ele>626</ele>
        <time>2026-05-26T12:16:26.000Z</time>
      </trkpt>
      <trkpt lat="44.65874" lon="5.0405">
        <ele>626</ele>
        <time>2026-05-26T12:16:27.000Z</time>
      </trkpt>
      <trkpt lat="44.65874" lon="5.0405">
        <ele>626</ele>
        <time>2026-05-26T12:16:28.000Z</time>
      </trkpt>
      <trkpt lat="44.65874" lon="5.0405">
        <ele>626</ele>
        <time>2026-05-26T12:16:29.000Z</time>
      </trkpt>
      <trkpt lat="44.65874" lon="5.0405">
        <ele>626</ele>
        <time>2026-05-26T12:16:30.000Z</time>
      </trkpt>
      <trkpt lat="44.65874" lon="5.0405">
        <ele>626</ele>
        <time>2026-05-26T12:16:31.000Z</time>
      </trkpt>
      <trkpt lat="44.65874" lon="5.0405">
        <ele>626</ele>
        <time>2026-05-26T12:16:32.000Z</time>
      </trkpt>
      <trkpt lat="44.65874" lon="5.0405">
        <ele>626</ele>
        <time>2026-05-26T12:16:33.000Z</time>
      </trkpt>
      <trkpt lat="44.65874" lon="5.0405">
        <ele>626</ele>
        <time>2026-05-26T12:16:34.000Z</time>
      </trkpt>
      <trkpt lat="44.65873" lon="5.0405">
        <ele>627</ele>
        <time>2026-05-26T12:16:35.000Z</time>
      </trkpt>
      <trkpt lat="44.65873" lon="5.04051">
        <ele>627</ele>
        <time>2026-05-26T12:16:36.000Z</time>
      </trkpt>
      <trkpt lat="44.65873" lon="5.04051">
        <ele>628</ele>
        <time>2026-05-26T12:16:37.000Z</time>
      </trkpt>
      <trkpt lat="44.65873" lon="5.0405">
        <ele>628</ele>
        <time>2026-05-26T12:16:38.000Z</time>
      </trkpt>
      <trkpt lat="44.65873" lon="5.0405">
        <ele>628</ele>
        <time>2026-05-26T12:16:39.000Z</time>
      </trkpt>
      <trkpt lat="44.65873" lon="5.0405">
        <ele>628</ele>
        <time>2026-05-26T12:16:40.000Z</time>
      </trkpt>
      <trkpt lat="44.65872" lon="5.04051">
        <ele>628</ele>
        <time>2026-05-26T12:16:41.000Z</time>
      </trkpt>
      <trkpt lat="44.65872" lon="5.04051">
        <ele>628</ele>
        <time>2026-05-26T12:16:42.000Z</time>
      </trkpt>
      <trkpt lat="44.65871" lon="5.04051">
        <ele>628</ele>
        <time>2026-05-26T12:16:43.000Z</time>
      </trkpt>
      <trkpt lat="44.6587" lon="5.04051">
        <ele>628</ele>
        <time>2026-05-26T12:16:44.000Z</time>
      </trkpt>
      <trkpt lat="44.6587" lon="5.0405">
        <ele>628</ele>
        <time>2026-05-26T12:16:45.000Z</time>
      </trkpt>
      <trkpt lat="44.65869" lon="5.0405">
        <ele>630</ele>
        <time>2026-05-26T12:16:46.000Z</time>
      </trkpt>
      <trkpt lat="44.65868" lon="5.0405">
        <ele>630</ele>
        <time>2026-05-26T12:16:47.000Z</time>
      </trkpt>
      <trkpt lat="44.65867" lon="5.0405">
        <ele>631</ele>
        <time>2026-05-26T12:16:48.000Z</time>
      </trkpt>
      <trkpt lat="44.65866" lon="5.0405">
        <ele>631</ele>
        <time>2026-05-26T12:16:49.000Z</time>
      </trkpt>
      <trkpt lat="44.65865" lon="5.04051">
        <ele>632</ele>
        <time>2026-05-26T12:16:50.000Z</time>
      </trkpt>
      <trkpt lat="44.65864" lon="5.04052">
        <ele>632</ele>
        <time>2026-05-26T12:16:51.000Z</time>
      </trkpt>
      <trkpt lat="44.65863" lon="5.04052">
        <ele>632</ele>
        <time>2026-05-26T12:16:52.000Z</time>
      </trkpt>
      <trkpt lat="44.65862" lon="5.04052">
        <ele>632</ele>
        <time>2026-05-26T12:16:53.000Z</time>
      </trkpt>
      <trkpt lat="44.65861" lon="5.04051">
        <ele>632</ele>
        <time>2026-05-26T12:16:54.000Z</time>
      </trkpt>
      <trkpt lat="44.65861" lon="5.04051">
        <ele>632</ele>
        <time>2026-05-26T12:16:55.000Z</time>
      </trkpt>
      <trkpt lat="44.65861" lon="5.04051">
        <ele>632</ele>
        <time>2026-05-26T12:16:56.000Z</time>
      </trkpt>
      <trkpt lat="44.65857" lon="5.04049">
        <ele>631</ele>
        <time>2026-05-26T12:16:57.000Z</time>
      </trkpt>
      <trkpt lat="44.65856" lon="5.04048">
        <ele>630</ele>
        <time>2026-05-26T12:16:58.000Z</time>
      </trkpt>
      <trkpt lat="44.65854" lon="5.04048">
        <ele>630</ele>
        <time>2026-05-26T12:16:59.000Z</time>
      </trkpt>
      <trkpt lat="44.65853" lon="5.04046">
        <ele>630</ele>
        <time>2026-05-26T12:17:00.000Z</time>
      </trkpt>
      <trkpt lat="44.65852" lon="5.04045">
        <ele>631</ele>
        <time>2026-05-26T12:17:01.000Z</time>
      </trkpt>
      <trkpt lat="44.65852" lon="5.04045">
        <ele>631</ele>
        <time>2026-05-26T12:17:02.000Z</time>
      </trkpt>
      <trkpt lat="44.65852" lon="5.04045">
        <ele>631</ele>
        <time>2026-05-26T12:17:03.000Z</time>
      </trkpt>
      <trkpt lat="44.65849" lon="5.04043">
        <ele>631</ele>
        <time>2026-05-26T12:17:04.000Z</time>
      </trkpt>
      <trkpt lat="44.65848" lon="5.04042">
        <ele>631</ele>
        <time>2026-05-26T12:17:05.000Z</time>
      </trkpt>
      <trkpt lat="44.65847" lon="5.04042">
        <ele>632</ele>
        <time>2026-05-26T12:17:06.000Z</time>
      </trkpt>
      <trkpt lat="44.65846" lon="5.04041">
        <ele>632</ele>
        <time>2026-05-26T12:17:07.000Z</time>
      </trkpt>
      <trkpt lat="44.65846" lon="5.04041">
        <ele>632</ele>
        <time>2026-05-26T12:17:08.000Z</time>
      </trkpt>
      <trkpt lat="44.65843" lon="5.0404">
        <ele>633</ele>
        <time>2026-05-26T12:17:09.000Z</time>
      </trkpt>
      <trkpt lat="44.65841" lon="5.0404">
        <ele>632</ele>
        <time>2026-05-26T12:17:10.000Z</time>
      </trkpt>
      <trkpt lat="44.65839" lon="5.04039">
        <ele>632</ele>
        <time>2026-05-26T12:17:11.000Z</time>
      </trkpt>
      <trkpt lat="44.65838" lon="5.04038">
        <ele>632</ele>
        <time>2026-05-26T12:17:12.000Z</time>
      </trkpt>
      <trkpt lat="44.65837" lon="5.04038">
        <ele>633</ele>
        <time>2026-05-26T12:17:13.000Z</time>
      </trkpt>
      <trkpt lat="44.65837" lon="5.04038">
        <ele>633</ele>
        <time>2026-05-26T12:17:14.000Z</time>
      </trkpt>
      <trkpt lat="44.65836" lon="5.04036">
        <ele>633</ele>
        <time>2026-05-26T12:17:15.000Z</time>
      </trkpt>
      <trkpt lat="44.65836" lon="5.04036">
        <ele>633</ele>
        <time>2026-05-26T12:17:16.000Z</time>
      </trkpt>
      <trkpt lat="44.65836" lon="5.04036">
        <ele>633</ele>
        <time>2026-05-26T12:17:17.000Z</time>
      </trkpt>
      <trkpt lat="44.65834" lon="5.04036">
        <ele>634</ele>
        <time>2026-05-26T12:17:18.000Z</time>
      </trkpt>
      <trkpt lat="44.65833" lon="5.04036">
        <ele>635</ele>
        <time>2026-05-26T12:17:19.000Z</time>
      </trkpt>
      <trkpt lat="44.65833" lon="5.04035">
        <ele>634</ele>
        <time>2026-05-26T12:17:20.000Z</time>
      </trkpt>
      <trkpt lat="44.65832" lon="5.04034">
        <ele>634</ele>
        <time>2026-05-26T12:17:21.000Z</time>
      </trkpt>
      <trkpt lat="44.65832" lon="5.04034">
        <ele>634</ele>
        <time>2026-05-26T12:17:22.000Z</time>
      </trkpt>
      <trkpt lat="44.6583" lon="5.04032">
        <ele>635</ele>
        <time>2026-05-26T12:17:23.000Z</time>
      </trkpt>
      <trkpt lat="44.65828" lon="5.04031">
        <ele>636</ele>
        <time>2026-05-26T12:17:24.000Z</time>
      </trkpt>
      <trkpt lat="44.65827" lon="5.0403">
        <ele>635</ele>
        <time>2026-05-26T12:17:25.000Z</time>
      </trkpt>
      <trkpt lat="44.65826" lon="5.04029">
        <ele>635</ele>
        <time>2026-05-26T12:17:26.000Z</time>
      </trkpt>
      <trkpt lat="44.65826" lon="5.04028">
        <ele>635</ele>
        <time>2026-05-26T12:17:27.000Z</time>
      </trkpt>
      <trkpt lat="44.65825" lon="5.04028">
        <ele>636</ele>
        <time>2026-05-26T12:17:28.000Z</time>
      </trkpt>
      <trkpt lat="44.65823" lon="5.04026">
        <ele>635</ele>
        <time>2026-05-26T12:17:29.000Z</time>
      </trkpt>
      <trkpt lat="44.65822" lon="5.04026">
        <ele>635</ele>
        <time>2026-05-26T12:17:30.000Z</time>
      </trkpt>
      <trkpt lat="44.6582" lon="5.04027">
        <ele>636</ele>
        <time>2026-05-26T12:17:31.000Z</time>
      </trkpt>
      <trkpt lat="44.6582" lon="5.04027">
        <ele>636</ele>
        <time>2026-05-26T12:17:32.000Z</time>
      </trkpt>
      <trkpt lat="44.65819" lon="5.04027">
        <ele>635</ele>
        <time>2026-05-26T12:17:33.000Z</time>
      </trkpt>
      <trkpt lat="44.65818" lon="5.04028">
        <ele>635</ele>
        <time>2026-05-26T12:17:34.000Z</time>
      </trkpt>
      <trkpt lat="44.65817" lon="5.04027">
        <ele>634</ele>
        <time>2026-05-26T12:17:35.000Z</time>
      </trkpt>
      <trkpt lat="44.65815" lon="5.04027">
        <ele>635</ele>
        <time>2026-05-26T12:17:36.000Z</time>
      </trkpt>
      <trkpt lat="44.65814" lon="5.04028">
        <ele>634</ele>
        <time>2026-05-26T12:17:37.000Z</time>
      </trkpt>
      <trkpt lat="44.65812" lon="5.04029">
        <ele>634</ele>
        <time>2026-05-26T12:17:38.000Z</time>
      </trkpt>
      <trkpt lat="44.65811" lon="5.04029">
        <ele>634</ele>
        <time>2026-05-26T12:17:39.000Z</time>
      </trkpt>
      <trkpt lat="44.6581" lon="5.04029">
        <ele>633</ele>
        <time>2026-05-26T12:17:40.000Z</time>
      </trkpt>
      <trkpt lat="44.65809" lon="5.04029">
        <ele>633</ele>
        <time>2026-05-26T12:17:41.000Z</time>
      </trkpt>
      <trkpt lat="44.65808" lon="5.0403">
        <ele>633</ele>
        <time>2026-05-26T12:17:42.000Z</time>
      </trkpt>
      <trkpt lat="44.65807" lon="5.0403">
        <ele>633</ele>
        <time>2026-05-26T12:17:43.000Z</time>
      </trkpt>
      <trkpt lat="44.65806" lon="5.0403">
        <ele>635</ele>
        <time>2026-05-26T12:17:44.000Z</time>
      </trkpt>
      <trkpt lat="44.65806" lon="5.04031">
        <ele>634</ele>
        <time>2026-05-26T12:17:45.000Z</time>
      </trkpt>
      <trkpt lat="44.65805" lon="5.04031">
        <ele>633</ele>
        <time>2026-05-26T12:17:46.000Z</time>
      </trkpt>
      <trkpt lat="44.65805" lon="5.04031">
        <ele>633</ele>
        <time>2026-05-26T12:17:47.000Z</time>
      </trkpt>
      <trkpt lat="44.65805" lon="5.04031">
        <ele>633</ele>
        <time>2026-05-26T12:17:48.000Z</time>
      </trkpt>
      <trkpt lat="44.65805" lon="5.04031">
        <ele>633</ele>
        <time>2026-05-26T12:17:49.000Z</time>
      </trkpt>
      <trkpt lat="44.65805" lon="5.04032">
        <ele>634</ele>
        <time>2026-05-26T12:17:50.000Z</time>
      </trkpt>
      <trkpt lat="44.65805" lon="5.04031">
        <ele>634</ele>
        <time>2026-05-26T12:17:51.000Z</time>
      </trkpt>
      <trkpt lat="44.65805" lon="5.0403">
        <ele>634</ele>
        <time>2026-05-26T12:17:52.000Z</time>
      </trkpt>
      <trkpt lat="44.65804" lon="5.0403">
        <ele>634</ele>
        <time>2026-05-26T12:17:53.000Z</time>
      </trkpt>
      <trkpt lat="44.65804" lon="5.0403">
        <ele>634</ele>
        <time>2026-05-26T12:17:54.000Z</time>
      </trkpt>
      <trkpt lat="44.65804" lon="5.0403">
        <ele>634</ele>
        <time>2026-05-26T12:17:55.000Z</time>
      </trkpt>
      <trkpt lat="44.65804" lon="5.0403">
        <ele>634</ele>
        <time>2026-05-26T12:17:56.000Z</time>
      </trkpt>
      <trkpt lat="44.65804" lon="5.0403">
        <ele>634</ele>
        <time>2026-05-26T12:17:57.000Z</time>
      </trkpt>
      <trkpt lat="44.65804" lon="5.0403">
        <ele>634</ele>
        <time>2026-05-26T12:17:58.000Z</time>
      </trkpt>
      <trkpt lat="44.65804" lon="5.0403">
        <ele>634</ele>
        <time>2026-05-26T12:17:59.000Z</time>
      </trkpt>
      <trkpt lat="44.65804" lon="5.0403">
        <ele>634</ele>
        <time>2026-05-26T12:18:00.000Z</time>
      </trkpt>
      <trkpt lat="44.65804" lon="5.0403">
        <ele>634</ele>
        <time>2026-05-26T12:18:01.000Z</time>
      </trkpt>
      <trkpt lat="44.65804" lon="5.0403">
        <ele>634</ele>
        <time>2026-05-26T12:18:02.000Z</time>
      </trkpt>
      <trkpt lat="44.65804" lon="5.0403">
        <ele>634</ele>
        <time>2026-05-26T12:18:03.000Z</time>
      </trkpt>
      <trkpt lat="44.65804" lon="5.0403">
        <ele>634</ele>
        <time>2026-05-26T12:18:04.000Z</time>
      </trkpt>
      <trkpt lat="44.65804" lon="5.0403">
        <ele>634</ele>
        <time>2026-05-26T12:18:05.000Z</time>
      </trkpt>
      <trkpt lat="44.65804" lon="5.0403">
        <ele>634</ele>
        <time>2026-05-26T12:18:06.000Z</time>
      </trkpt>
      <trkpt lat="44.65804" lon="5.0403">
        <ele>634</ele>
        <time>2026-05-26T12:18:07.000Z</time>
      </trkpt>
      <trkpt lat="44.65804" lon="5.0403">
        <ele>634</ele>
        <time>2026-05-26T12:18:08.000Z</time>
      </trkpt>
      <trkpt lat="44.65804" lon="5.0403">
        <ele>634</ele>
        <time>2026-05-26T12:18:09.000Z</time>
      </trkpt>
      <trkpt lat="44.65804" lon="5.0403">
        <ele>634</ele>
        <time>2026-05-26T12:18:10.000Z</time>
      </trkpt>
      <trkpt lat="44.65804" lon="5.0403">
        <ele>634</ele>
        <time>2026-05-26T12:18:11.000Z</time>
      </trkpt>
      <trkpt lat="44.65804" lon="5.0403">
        <ele>634</ele>
        <time>2026-05-26T12:18:12.000Z</time>
      </trkpt>
      <trkpt lat="44.65804" lon="5.0403">
        <ele>634</ele>
        <time>2026-05-26T12:18:13.000Z</time>
      </trkpt>
      <trkpt lat="44.65804" lon="5.0403">
        <ele>634</ele>
        <time>2026-05-26T12:18:14.000Z</time>
      </trkpt>
      <trkpt lat="44.65804" lon="5.0403">
        <ele>634</ele>
        <time>2026-05-26T12:18:15.000Z</time>
      </trkpt>
      <trkpt lat="44.65804" lon="5.0403">
        <ele>634</ele>
        <time>2026-05-26T12:18:16.000Z</time>
      </trkpt>
      <trkpt lat="44.65804" lon="5.0403">
        <ele>634</ele>
        <time>2026-05-26T12:18:17.000Z</time>
      </trkpt>
      <trkpt lat="44.65804" lon="5.0403">
        <ele>634</ele>
        <time>2026-05-26T12:18:18.000Z</time>
      </trkpt>
      <trkpt lat="44.65804" lon="5.0403">
        <ele>634</ele>
        <time>2026-05-26T12:18:19.000Z</time>
      </trkpt>
      <trkpt lat="44.65803" lon="5.04032">
        <ele>634</ele>
        <time>2026-05-26T12:18:20.000Z</time>
      </trkpt>
      <trkpt lat="44.65803" lon="5.04032">
        <ele>635</ele>
        <time>2026-05-26T12:18:21.000Z</time>
      </trkpt>
      <trkpt lat="44.65802" lon="5.04032">
        <ele>636</ele>
        <time>2026-05-26T12:18:22.000Z</time>
      </trkpt>
      <trkpt lat="44.65801" lon="5.04032">
        <ele>636</ele>
        <time>2026-05-26T12:18:23.000Z</time>
      </trkpt>
      <trkpt lat="44.658" lon="5.04033">
        <ele>636</ele>
        <time>2026-05-26T12:18:24.000Z</time>
      </trkpt>
      <trkpt lat="44.658" lon="5.04033">
        <ele>636</ele>
        <time>2026-05-26T12:18:25.000Z</time>
      </trkpt>
      <trkpt lat="44.658" lon="5.04033">
        <ele>636</ele>
        <time>2026-05-26T12:18:26.000Z</time>
      </trkpt>
      <trkpt lat="44.658" lon="5.04033">
        <ele>636</ele>
        <time>2026-05-26T12:18:27.000Z</time>
      </trkpt>
      <trkpt lat="44.65797" lon="5.04033">
        <ele>635</ele>
        <time>2026-05-26T12:18:28.000Z</time>
      </trkpt>
      <trkpt lat="44.65796" lon="5.04033">
        <ele>634</ele>
        <time>2026-05-26T12:18:29.000Z</time>
      </trkpt>
      <trkpt lat="44.65795" lon="5.04033">
        <ele>634</ele>
        <time>2026-05-26T12:18:30.000Z</time>
      </trkpt>
      <trkpt lat="44.65795" lon="5.04034">
        <ele>634</ele>
        <time>2026-05-26T12:18:31.000Z</time>
      </trkpt>
      <trkpt lat="44.65795" lon="5.04034">
        <ele>634</ele>
        <time>2026-05-26T12:18:32.000Z</time>
      </trkpt>
      <trkpt lat="44.65795" lon="5.04034">
        <ele>634</ele>
        <time>2026-05-26T12:18:33.000Z</time>
      </trkpt>
      <trkpt lat="44.65793" lon="5.04035">
        <ele>634</ele>
        <time>2026-05-26T12:18:34.000Z</time>
      </trkpt>
      <trkpt lat="44.65792" lon="5.04037">
        <ele>635</ele>
        <time>2026-05-26T12:18:35.000Z</time>
      </trkpt>
      <trkpt lat="44.6579" lon="5.04037">
        <ele>635</ele>
        <time>2026-05-26T12:18:36.000Z</time>
      </trkpt>
      <trkpt lat="44.6579" lon="5.04038">
        <ele>637</ele>
        <time>2026-05-26T12:18:37.000Z</time>
      </trkpt>
      <trkpt lat="44.6579" lon="5.04038">
        <ele>637</ele>
        <time>2026-05-26T12:18:38.000Z</time>
      </trkpt>
      <trkpt lat="44.6579" lon="5.04038">
        <ele>637</ele>
        <time>2026-05-26T12:18:39.000Z</time>
      </trkpt>
      <trkpt lat="44.6579" lon="5.04038">
        <ele>637</ele>
        <time>2026-05-26T12:18:40.000Z</time>
      </trkpt>
      <trkpt lat="44.6579" lon="5.04038">
        <ele>637</ele>
        <time>2026-05-26T12:18:41.000Z</time>
      </trkpt>
      <trkpt lat="44.6579" lon="5.04038">
        <ele>637</ele>
        <time>2026-05-26T12:18:42.000Z</time>
      </trkpt>
      <trkpt lat="44.65787" lon="5.04042">
        <ele>635</ele>
        <time>2026-05-26T12:18:43.000Z</time>
      </trkpt>
      <trkpt lat="44.65787" lon="5.04043">
        <ele>635</ele>
        <time>2026-05-26T12:18:44.000Z</time>
      </trkpt>
      <trkpt lat="44.65786" lon="5.04044">
        <ele>635</ele>
        <time>2026-05-26T12:18:45.000Z</time>
      </trkpt>
      <trkpt lat="44.65785" lon="5.04044">
        <ele>634</ele>
        <time>2026-05-26T12:18:46.000Z</time>
      </trkpt>
      <trkpt lat="44.65785" lon="5.04044">
        <ele>634</ele>
        <time>2026-05-26T12:18:47.000Z</time>
      </trkpt>
      <trkpt lat="44.65785" lon="5.04044">
        <ele>634</ele>
        <time>2026-05-26T12:18:48.000Z</time>
      </trkpt>
      <trkpt lat="44.65782" lon="5.04045">
        <ele>635</ele>
        <time>2026-05-26T12:18:49.000Z</time>
      </trkpt>
      <trkpt lat="44.65781" lon="5.04045">
        <ele>634</ele>
        <time>2026-05-26T12:18:50.000Z</time>
      </trkpt>
      <trkpt lat="44.6578" lon="5.04047">
        <ele>635</ele>
        <time>2026-05-26T12:18:51.000Z</time>
      </trkpt>
      <trkpt lat="44.65779" lon="5.04048">
        <ele>634</ele>
        <time>2026-05-26T12:18:52.000Z</time>
      </trkpt>
      <trkpt lat="44.65778" lon="5.04048">
        <ele>634</ele>
        <time>2026-05-26T12:18:53.000Z</time>
      </trkpt>
      <trkpt lat="44.65778" lon="5.04048">
        <ele>634</ele>
        <time>2026-05-26T12:18:54.000Z</time>
      </trkpt>
      <trkpt lat="44.65778" lon="5.04048">
        <ele>634</ele>
        <time>2026-05-26T12:18:55.000Z</time>
      </trkpt>
      <trkpt lat="44.65775" lon="5.04049">
        <ele>633</ele>
        <time>2026-05-26T12:18:56.000Z</time>
      </trkpt>
      <trkpt lat="44.65774" lon="5.0405">
        <ele>632</ele>
        <time>2026-05-26T12:18:57.000Z</time>
      </trkpt>
      <trkpt lat="44.65773" lon="5.04052">
        <ele>632</ele>
        <time>2026-05-26T12:18:58.000Z</time>
      </trkpt>
      <trkpt lat="44.65773" lon="5.04054">
        <ele>632</ele>
        <time>2026-05-26T12:18:59.000Z</time>
      </trkpt>
      <trkpt lat="44.65772" lon="5.04056">
        <ele>633</ele>
        <time>2026-05-26T12:19:00.000Z</time>
      </trkpt>
      <trkpt lat="44.6577" lon="5.04057">
        <ele>632</ele>
        <time>2026-05-26T12:19:01.000Z</time>
      </trkpt>
      <trkpt lat="44.6577" lon="5.04058">
        <ele>632</ele>
        <time>2026-05-26T12:19:02.000Z</time>
      </trkpt>
      <trkpt lat="44.65769" lon="5.04059">
        <ele>632</ele>
        <time>2026-05-26T12:19:03.000Z</time>
      </trkpt>
      <trkpt lat="44.65768" lon="5.0406">
        <ele>632</ele>
        <time>2026-05-26T12:19:04.000Z</time>
      </trkpt>
      <trkpt lat="44.65767" lon="5.04061">
        <ele>633</ele>
        <time>2026-05-26T12:19:05.000Z</time>
      </trkpt>
      <trkpt lat="44.65767" lon="5.04062">
        <ele>634</ele>
        <time>2026-05-26T12:19:06.000Z</time>
      </trkpt>
      <trkpt lat="44.65766" lon="5.04063">
        <ele>632</ele>
        <time>2026-05-26T12:19:07.000Z</time>
      </trkpt>
      <trkpt lat="44.65765" lon="5.04064">
        <ele>633</ele>
        <time>2026-05-26T12:19:08.000Z</time>
      </trkpt>
      <trkpt lat="44.65765" lon="5.04067">
        <ele>634</ele>
        <time>2026-05-26T12:19:09.000Z</time>
      </trkpt>
      <trkpt lat="44.65764" lon="5.04067">
        <ele>634</ele>
        <time>2026-05-26T12:19:10.000Z</time>
      </trkpt>
      <trkpt lat="44.65763" lon="5.04068">
        <ele>634</ele>
        <time>2026-05-26T12:19:11.000Z</time>
      </trkpt>
      <trkpt lat="44.65763" lon="5.0407">
        <ele>633</ele>
        <time>2026-05-26T12:19:12.000Z</time>
      </trkpt>
      <trkpt lat="44.65763" lon="5.04071">
        <ele>633</ele>
        <time>2026-05-26T12:19:13.000Z</time>
      </trkpt>
      <trkpt lat="44.65762" lon="5.04072">
        <ele>632</ele>
        <time>2026-05-26T12:19:14.000Z</time>
      </trkpt>
      <trkpt lat="44.65762" lon="5.04073">
        <ele>631</ele>
        <time>2026-05-26T12:19:15.000Z</time>
      </trkpt>
      <trkpt lat="44.65761" lon="5.04074">
        <ele>630</ele>
        <time>2026-05-26T12:19:16.000Z</time>
      </trkpt>
      <trkpt lat="44.6576" lon="5.04075">
        <ele>630</ele>
        <time>2026-05-26T12:19:17.000Z</time>
      </trkpt>
      <trkpt lat="44.65761" lon="5.04077">
        <ele>629</ele>
        <time>2026-05-26T12:19:18.000Z</time>
      </trkpt>
      <trkpt lat="44.6576" lon="5.04078">
        <ele>630</ele>
        <time>2026-05-26T12:19:19.000Z</time>
      </trkpt>
      <trkpt lat="44.65759" lon="5.04078">
        <ele>630</ele>
        <time>2026-05-26T12:19:20.000Z</time>
      </trkpt>
      <trkpt lat="44.65758" lon="5.04079">
        <ele>630</ele>
        <time>2026-05-26T12:19:21.000Z</time>
      </trkpt>
      <trkpt lat="44.65758" lon="5.04081">
        <ele>631</ele>
        <time>2026-05-26T12:19:22.000Z</time>
      </trkpt>
      <trkpt lat="44.65758" lon="5.04082">
        <ele>631</ele>
        <time>2026-05-26T12:19:23.000Z</time>
      </trkpt>
      <trkpt lat="44.65757" lon="5.04083">
        <ele>630</ele>
        <time>2026-05-26T12:19:24.000Z</time>
      </trkpt>
      <trkpt lat="44.65757" lon="5.04084">
        <ele>630</ele>
        <time>2026-05-26T12:19:25.000Z</time>
      </trkpt>
      <trkpt lat="44.65756" lon="5.04085">
        <ele>629</ele>
        <time>2026-05-26T12:19:26.000Z</time>
      </trkpt>
      <trkpt lat="44.65755" lon="5.04086">
        <ele>630</ele>
        <time>2026-05-26T12:19:27.000Z</time>
      </trkpt>
      <trkpt lat="44.65754" lon="5.04087">
        <ele>631</ele>
        <time>2026-05-26T12:19:28.000Z</time>
      </trkpt>
      <trkpt lat="44.65753" lon="5.04087">
        <ele>630</ele>
        <time>2026-05-26T12:19:29.000Z</time>
      </trkpt>
      <trkpt lat="44.65752" lon="5.0409">
        <ele>629</ele>
        <time>2026-05-26T12:19:30.000Z</time>
      </trkpt>
      <trkpt lat="44.65752" lon="5.04091">
        <ele>629</ele>
        <time>2026-05-26T12:19:31.000Z</time>
      </trkpt>
      <trkpt lat="44.65751" lon="5.04091">
        <ele>629</ele>
        <time>2026-05-26T12:19:32.000Z</time>
      </trkpt>
      <trkpt lat="44.65751" lon="5.04093">
        <ele>630</ele>
        <time>2026-05-26T12:19:33.000Z</time>
      </trkpt>
      <trkpt lat="44.6575" lon="5.04095">
        <ele>629</ele>
        <time>2026-05-26T12:19:34.000Z</time>
      </trkpt>
      <trkpt lat="44.65749" lon="5.04097">
        <ele>628</ele>
        <time>2026-05-26T12:19:35.000Z</time>
      </trkpt>
      <trkpt lat="44.65748" lon="5.04098">
        <ele>627</ele>
        <time>2026-05-26T12:19:36.000Z</time>
      </trkpt>
      <trkpt lat="44.65747" lon="5.04099">
        <ele>627</ele>
        <time>2026-05-26T12:19:37.000Z</time>
      </trkpt>
      <trkpt lat="44.65747" lon="5.04099">
        <ele>626</ele>
        <time>2026-05-26T12:19:38.000Z</time>
      </trkpt>
      <trkpt lat="44.65747" lon="5.04099">
        <ele>626</ele>
        <time>2026-05-26T12:19:39.000Z</time>
      </trkpt>
      <trkpt lat="44.65747" lon="5.04101">
        <ele>627</ele>
        <time>2026-05-26T12:19:40.000Z</time>
      </trkpt>
      <trkpt lat="44.65747" lon="5.04101">
        <ele>627</ele>
        <time>2026-05-26T12:19:41.000Z</time>
      </trkpt>
      <trkpt lat="44.65747" lon="5.04101">
        <ele>627</ele>
        <time>2026-05-26T12:19:42.000Z</time>
      </trkpt>
      <trkpt lat="44.65747" lon="5.04101">
        <ele>627</ele>
        <time>2026-05-26T12:19:43.000Z</time>
      </trkpt>
      <trkpt lat="44.65747" lon="5.04101">
        <ele>627</ele>
        <time>2026-05-26T12:19:44.000Z</time>
      </trkpt>
      <trkpt lat="44.65747" lon="5.04101">
        <ele>627</ele>
        <time>2026-05-26T12:19:45.000Z</time>
      </trkpt>
      <trkpt lat="44.65747" lon="5.04101">
        <ele>627</ele>
        <time>2026-05-26T12:19:46.000Z</time>
      </trkpt>
      <trkpt lat="44.65747" lon="5.04101">
        <ele>627</ele>
        <time>2026-05-26T12:19:47.000Z</time>
      </trkpt>
      <trkpt lat="44.65747" lon="5.04101">
        <ele>627</ele>
        <time>2026-05-26T12:19:48.000Z</time>
      </trkpt>
      <trkpt lat="44.65746" lon="5.04104">
        <ele>626</ele>
        <time>2026-05-26T12:19:49.000Z</time>
      </trkpt>
      <trkpt lat="44.65746" lon="5.04104">
        <ele>625</ele>
        <time>2026-05-26T12:19:50.000Z</time>
      </trkpt>
      <trkpt lat="44.65746" lon="5.04105">
        <ele>626</ele>
        <time>2026-05-26T12:19:51.000Z</time>
      </trkpt>
      <trkpt lat="44.65744" lon="5.04105">
        <ele>625</ele>
        <time>2026-05-26T12:19:52.000Z</time>
      </trkpt>
      <trkpt lat="44.65744" lon="5.04106">
        <ele>625</ele>
        <time>2026-05-26T12:19:53.000Z</time>
      </trkpt>
      <trkpt lat="44.65743" lon="5.04106">
        <ele>625</ele>
        <time>2026-05-26T12:19:54.000Z</time>
      </trkpt>
      <trkpt lat="44.65743" lon="5.04107">
        <ele>625</ele>
        <time>2026-05-26T12:19:55.000Z</time>
      </trkpt>
      <trkpt lat="44.65741" lon="5.04108">
        <ele>626</ele>
        <time>2026-05-26T12:19:56.000Z</time>
      </trkpt>
      <trkpt lat="44.6574" lon="5.0411">
        <ele>627</ele>
        <time>2026-05-26T12:19:57.000Z</time>
      </trkpt>
      <trkpt lat="44.65739" lon="5.04111">
        <ele>627</ele>
        <time>2026-05-26T12:19:58.000Z</time>
      </trkpt>
      <trkpt lat="44.65738" lon="5.04112">
        <ele>627</ele>
        <time>2026-05-26T12:19:59.000Z</time>
      </trkpt>
      <trkpt lat="44.65737" lon="5.04113">
        <ele>626</ele>
        <time>2026-05-26T12:20:00.000Z</time>
      </trkpt>
      <trkpt lat="44.65735" lon="5.04113">
        <ele>626</ele>
        <time>2026-05-26T12:20:01.000Z</time>
      </trkpt>
      <trkpt lat="44.65736" lon="5.04112">
        <ele>624</ele>
        <time>2026-05-26T12:20:02.000Z</time>
      </trkpt>
      <trkpt lat="44.65736" lon="5.04114">
        <ele>624</ele>
        <time>2026-05-26T12:20:03.000Z</time>
      </trkpt>
      <trkpt lat="44.65735" lon="5.04116">
        <ele>624</ele>
        <time>2026-05-26T12:20:04.000Z</time>
      </trkpt>
      <trkpt lat="44.65733" lon="5.04117">
        <ele>625</ele>
        <time>2026-05-26T12:20:05.000Z</time>
      </trkpt>
      <trkpt lat="44.65732" lon="5.04119">
        <ele>624</ele>
        <time>2026-05-26T12:20:06.000Z</time>
      </trkpt>
      <trkpt lat="44.65731" lon="5.04121">
        <ele>624</ele>
        <time>2026-05-26T12:20:07.000Z</time>
      </trkpt>
      <trkpt lat="44.65731" lon="5.04123">
        <ele>624</ele>
        <time>2026-05-26T12:20:08.000Z</time>
      </trkpt>
      <trkpt lat="44.6573" lon="5.04124">
        <ele>623</ele>
        <time>2026-05-26T12:20:09.000Z</time>
      </trkpt>
      <trkpt lat="44.65729" lon="5.04126">
        <ele>623</ele>
        <time>2026-05-26T12:20:10.000Z</time>
      </trkpt>
      <trkpt lat="44.65728" lon="5.04128">
        <ele>623</ele>
        <time>2026-05-26T12:20:11.000Z</time>
      </trkpt>
      <trkpt lat="44.65727" lon="5.04129">
        <ele>623</ele>
        <time>2026-05-26T12:20:12.000Z</time>
      </trkpt>
      <trkpt lat="44.65726" lon="5.0413">
        <ele>623</ele>
        <time>2026-05-26T12:20:13.000Z</time>
      </trkpt>
      <trkpt lat="44.65725" lon="5.04131">
        <ele>623</ele>
        <time>2026-05-26T12:20:14.000Z</time>
      </trkpt>
      <trkpt lat="44.65724" lon="5.04132">
        <ele>623</ele>
        <time>2026-05-26T12:20:15.000Z</time>
      </trkpt>
      <trkpt lat="44.65723" lon="5.04133">
        <ele>624</ele>
        <time>2026-05-26T12:20:16.000Z</time>
      </trkpt>
      <trkpt lat="44.65723" lon="5.04135">
        <ele>623</ele>
        <time>2026-05-26T12:20:17.000Z</time>
      </trkpt>
      <trkpt lat="44.65722" lon="5.04136">
        <ele>623</ele>
        <time>2026-05-26T12:20:18.000Z</time>
      </trkpt>
      <trkpt lat="44.65721" lon="5.04138">
        <ele>624</ele>
        <time>2026-05-26T12:20:19.000Z</time>
      </trkpt>
      <trkpt lat="44.65719" lon="5.04139">
        <ele>623</ele>
        <time>2026-05-26T12:20:20.000Z</time>
      </trkpt>
      <trkpt lat="44.65718" lon="5.0414">
        <ele>623</ele>
        <time>2026-05-26T12:20:21.000Z</time>
      </trkpt>
      <trkpt lat="44.65717" lon="5.04141">
        <ele>623</ele>
        <time>2026-05-26T12:20:22.000Z</time>
      </trkpt>
      <trkpt lat="44.65717" lon="5.04141">
        <ele>623</ele>
        <time>2026-05-26T12:20:23.000Z</time>
      </trkpt>
      <trkpt lat="44.65717" lon="5.04141">
        <ele>623</ele>
        <time>2026-05-26T12:20:24.000Z</time>
      </trkpt>
      <trkpt lat="44.65719" lon="5.0414">
        <ele>623</ele>
        <time>2026-05-26T12:20:25.000Z</time>
      </trkpt>
      <trkpt lat="44.65719" lon="5.0414">
        <ele>622</ele>
        <time>2026-05-26T12:20:26.000Z</time>
      </trkpt>
      <trkpt lat="44.65719" lon="5.0414">
        <ele>622</ele>
        <time>2026-05-26T12:20:27.000Z</time>
      </trkpt>
      <trkpt lat="44.65719" lon="5.04141">
        <ele>622</ele>
        <time>2026-05-26T12:20:28.000Z</time>
      </trkpt>
      <trkpt lat="44.65719" lon="5.04141">
        <ele>622</ele>
        <time>2026-05-26T12:20:29.000Z</time>
      </trkpt>
      <trkpt lat="44.65719" lon="5.04141">
        <ele>622</ele>
        <time>2026-05-26T12:20:30.000Z</time>
      </trkpt>
      <trkpt lat="44.65717" lon="5.04144">
        <ele>623</ele>
        <time>2026-05-26T12:20:31.000Z</time>
      </trkpt>
      <trkpt lat="44.65716" lon="5.04144">
        <ele>623</ele>
        <time>2026-05-26T12:20:32.000Z</time>
      </trkpt>
      <trkpt lat="44.65715" lon="5.04144">
        <ele>622</ele>
        <time>2026-05-26T12:20:33.000Z</time>
      </trkpt>
      <trkpt lat="44.65714" lon="5.04144">
        <ele>622</ele>
        <time>2026-05-26T12:20:34.000Z</time>
      </trkpt>
      <trkpt lat="44.65712" lon="5.04144">
        <ele>622</ele>
        <time>2026-05-26T12:20:35.000Z</time>
      </trkpt>
      <trkpt lat="44.65711" lon="5.04144">
        <ele>622</ele>
        <time>2026-05-26T12:20:36.000Z</time>
      </trkpt>
      <trkpt lat="44.6571" lon="5.04145">
        <ele>622</ele>
        <time>2026-05-26T12:20:37.000Z</time>
      </trkpt>
      <trkpt lat="44.65709" lon="5.04144">
        <ele>621</ele>
        <time>2026-05-26T12:20:38.000Z</time>
      </trkpt>
      <trkpt lat="44.65708" lon="5.04145">
        <ele>620</ele>
        <time>2026-05-26T12:20:39.000Z</time>
      </trkpt>
      <trkpt lat="44.65707" lon="5.04148">
        <ele>621</ele>
        <time>2026-05-26T12:20:40.000Z</time>
      </trkpt>
      <trkpt lat="44.65706" lon="5.04148">
        <ele>621</ele>
        <time>2026-05-26T12:20:41.000Z</time>
      </trkpt>
      <trkpt lat="44.65705" lon="5.04149">
        <ele>623</ele>
        <time>2026-05-26T12:20:42.000Z</time>
      </trkpt>
      <trkpt lat="44.65703" lon="5.0415">
        <ele>623</ele>
        <time>2026-05-26T12:20:43.000Z</time>
      </trkpt>
      <trkpt lat="44.65703" lon="5.04151">
        <ele>623</ele>
        <time>2026-05-26T12:20:44.000Z</time>
      </trkpt>
      <trkpt lat="44.65701" lon="5.04151">
        <ele>623</ele>
        <time>2026-05-26T12:20:45.000Z</time>
      </trkpt>
      <trkpt lat="44.657" lon="5.04152">
        <ele>623</ele>
        <time>2026-05-26T12:20:46.000Z</time>
      </trkpt>
      <trkpt lat="44.65698" lon="5.04153">
        <ele>622</ele>
        <time>2026-05-26T12:20:47.000Z</time>
      </trkpt>
      <trkpt lat="44.65697" lon="5.04153">
        <ele>622</ele>
        <time>2026-05-26T12:20:48.000Z</time>
      </trkpt>
      <trkpt lat="44.65696" lon="5.04154">
        <ele>621</ele>
        <time>2026-05-26T12:20:49.000Z</time>
      </trkpt>
      <trkpt lat="44.65695" lon="5.04153">
        <ele>620</ele>
        <time>2026-05-26T12:20:50.000Z</time>
      </trkpt>
      <trkpt lat="44.65694" lon="5.04155">
        <ele>620</ele>
        <time>2026-05-26T12:20:51.000Z</time>
      </trkpt>
      <trkpt lat="44.65693" lon="5.04156">
        <ele>620</ele>
        <time>2026-05-26T12:20:52.000Z</time>
      </trkpt>
      <trkpt lat="44.65692" lon="5.04158">
        <ele>619</ele>
        <time>2026-05-26T12:20:53.000Z</time>
      </trkpt>
      <trkpt lat="44.65691" lon="5.04159">
        <ele>618</ele>
        <time>2026-05-26T12:20:54.000Z</time>
      </trkpt>
      <trkpt lat="44.65691" lon="5.0416">
        <ele>618</ele>
        <time>2026-05-26T12:20:55.000Z</time>
      </trkpt>
      <trkpt lat="44.6569" lon="5.04161">
        <ele>617</ele>
        <time>2026-05-26T12:20:56.000Z</time>
      </trkpt>
      <trkpt lat="44.65689" lon="5.04162">
        <ele>617</ele>
        <time>2026-05-26T12:20:57.000Z</time>
      </trkpt>
      <trkpt lat="44.65688" lon="5.04163">
        <ele>617</ele>
        <time>2026-05-26T12:20:58.000Z</time>
      </trkpt>
      <trkpt lat="44.65686" lon="5.04164">
        <ele>616</ele>
        <time>2026-05-26T12:20:59.000Z</time>
      </trkpt>
      <trkpt lat="44.65685" lon="5.04164">
        <ele>616</ele>
        <time>2026-05-26T12:21:00.000Z</time>
      </trkpt>
      <trkpt lat="44.65683" lon="5.04165">
        <ele>616</ele>
        <time>2026-05-26T12:21:01.000Z</time>
      </trkpt>
      <trkpt lat="44.65682" lon="5.04165">
        <ele>616</ele>
        <time>2026-05-26T12:21:02.000Z</time>
      </trkpt>
      <trkpt lat="44.6568" lon="5.04166">
        <ele>617</ele>
        <time>2026-05-26T12:21:03.000Z</time>
      </trkpt>
      <trkpt lat="44.65679" lon="5.04167">
        <ele>617</ele>
        <time>2026-05-26T12:21:04.000Z</time>
      </trkpt>
      <trkpt lat="44.65678" lon="5.04168">
        <ele>618</ele>
        <time>2026-05-26T12:21:05.000Z</time>
      </trkpt>
      <trkpt lat="44.65678" lon="5.04168">
        <ele>619</ele>
        <time>2026-05-26T12:21:06.000Z</time>
      </trkpt>
      <trkpt lat="44.65677" lon="5.04169">
        <ele>619</ele>
        <time>2026-05-26T12:21:07.000Z</time>
      </trkpt>
      <trkpt lat="44.65676" lon="5.04171">
        <ele>619</ele>
        <time>2026-05-26T12:21:08.000Z</time>
      </trkpt>
      <trkpt lat="44.65675" lon="5.04172">
        <ele>619</ele>
        <time>2026-05-26T12:21:09.000Z</time>
      </trkpt>
      <trkpt lat="44.65674" lon="5.04173">
        <ele>619</ele>
        <time>2026-05-26T12:21:10.000Z</time>
      </trkpt>
      <trkpt lat="44.65672" lon="5.04174">
        <ele>619</ele>
        <time>2026-05-26T12:21:11.000Z</time>
      </trkpt>
      <trkpt lat="44.65671" lon="5.04175">
        <ele>619</ele>
        <time>2026-05-26T12:21:12.000Z</time>
      </trkpt>
      <trkpt lat="44.6567" lon="5.04176">
        <ele>619</ele>
        <time>2026-05-26T12:21:13.000Z</time>
      </trkpt>
      <trkpt lat="44.65669" lon="5.04178">
        <ele>620</ele>
        <time>2026-05-26T12:21:14.000Z</time>
      </trkpt>
      <trkpt lat="44.65668" lon="5.04179">
        <ele>620</ele>
        <time>2026-05-26T12:21:15.000Z</time>
      </trkpt>
      <trkpt lat="44.65668" lon="5.0418">
        <ele>621</ele>
        <time>2026-05-26T12:21:16.000Z</time>
      </trkpt>
      <trkpt lat="44.65667" lon="5.0418">
        <ele>621</ele>
        <time>2026-05-26T12:21:17.000Z</time>
      </trkpt>
      <trkpt lat="44.65666" lon="5.04181">
        <ele>620</ele>
        <time>2026-05-26T12:21:18.000Z</time>
      </trkpt>
      <trkpt lat="44.65666" lon="5.04183">
        <ele>620</ele>
        <time>2026-05-26T12:21:19.000Z</time>
      </trkpt>
      <trkpt lat="44.65665" lon="5.04184">
        <ele>620</ele>
        <time>2026-05-26T12:21:20.000Z</time>
      </trkpt>
      <trkpt lat="44.65664" lon="5.04186">
        <ele>619</ele>
        <time>2026-05-26T12:21:21.000Z</time>
      </trkpt>
      <trkpt lat="44.65664" lon="5.04187">
        <ele>619</ele>
        <time>2026-05-26T12:21:22.000Z</time>
      </trkpt>
      <trkpt lat="44.65663" lon="5.04188">
        <ele>619</ele>
        <time>2026-05-26T12:21:23.000Z</time>
      </trkpt>
      <trkpt lat="44.65662" lon="5.04188">
        <ele>618</ele>
        <time>2026-05-26T12:21:24.000Z</time>
      </trkpt>
      <trkpt lat="44.6566" lon="5.04188">
        <ele>619</ele>
        <time>2026-05-26T12:21:25.000Z</time>
      </trkpt>
      <trkpt lat="44.65658" lon="5.04188">
        <ele>619</ele>
        <time>2026-05-26T12:21:26.000Z</time>
      </trkpt>
      <trkpt lat="44.65657" lon="5.04188">
        <ele>619</ele>
        <time>2026-05-26T12:21:27.000Z</time>
      </trkpt>
      <trkpt lat="44.65657" lon="5.04188">
        <ele>619</ele>
        <time>2026-05-26T12:21:28.000Z</time>
      </trkpt>
      <trkpt lat="44.65656" lon="5.04188">
        <ele>619</ele>
        <time>2026-05-26T12:21:29.000Z</time>
      </trkpt>
      <trkpt lat="44.65654" lon="5.04188">
        <ele>619</ele>
        <time>2026-05-26T12:21:30.000Z</time>
      </trkpt>
      <trkpt lat="44.65653" lon="5.0419">
        <ele>619</ele>
        <time>2026-05-26T12:21:31.000Z</time>
      </trkpt>
      <trkpt lat="44.65652" lon="5.04191">
        <ele>620</ele>
        <time>2026-05-26T12:21:32.000Z</time>
      </trkpt>
      <trkpt lat="44.65651" lon="5.04191">
        <ele>620</ele>
        <time>2026-05-26T12:21:33.000Z</time>
      </trkpt>
      <trkpt lat="44.65651" lon="5.04192">
        <ele>619</ele>
        <time>2026-05-26T12:21:34.000Z</time>
      </trkpt>
      <trkpt lat="44.65652" lon="5.04193">
        <ele>619</ele>
        <time>2026-05-26T12:21:35.000Z</time>
      </trkpt>
      <trkpt lat="44.65652" lon="5.04193">
        <ele>619</ele>
        <time>2026-05-26T12:21:36.000Z</time>
      </trkpt>
      <trkpt lat="44.65652" lon="5.04193">
        <ele>619</ele>
        <time>2026-05-26T12:21:37.000Z</time>
      </trkpt>
      <trkpt lat="44.65651" lon="5.04193">
        <ele>617</ele>
        <time>2026-05-26T12:21:38.000Z</time>
      </trkpt>
      <trkpt lat="44.65651" lon="5.04193">
        <ele>617</ele>
        <time>2026-05-26T12:21:39.000Z</time>
      </trkpt>
      <trkpt lat="44.65651" lon="5.04193">
        <ele>617</ele>
        <time>2026-05-26T12:21:40.000Z</time>
      </trkpt>
      <trkpt lat="44.65651" lon="5.04193">
        <ele>617</ele>
        <time>2026-05-26T12:21:41.000Z</time>
      </trkpt>
      <trkpt lat="44.65651" lon="5.04193">
        <ele>617</ele>
        <time>2026-05-26T12:21:42.000Z</time>
      </trkpt>
      <trkpt lat="44.65651" lon="5.04193">
        <ele>617</ele>
        <time>2026-05-26T12:21:43.000Z</time>
      </trkpt>
      <trkpt lat="44.65651" lon="5.04193">
        <ele>617</ele>
        <time>2026-05-26T12:21:44.000Z</time>
      </trkpt>
      <trkpt lat="44.65651" lon="5.04193">
        <ele>618</ele>
        <time>2026-05-26T12:21:45.000Z</time>
      </trkpt>
      <trkpt lat="44.65651" lon="5.04193">
        <ele>618</ele>
        <time>2026-05-26T12:21:46.000Z</time>
      </trkpt>
      <trkpt lat="44.6565" lon="5.04193">
        <ele>617</ele>
        <time>2026-05-26T12:21:47.000Z</time>
      </trkpt>
      <trkpt lat="44.65649" lon="5.04194">
        <ele>617</ele>
        <time>2026-05-26T12:21:48.000Z</time>
      </trkpt>
      <trkpt lat="44.65648" lon="5.04195">
        <ele>617</ele>
        <time>2026-05-26T12:21:49.000Z</time>
      </trkpt>
      <trkpt lat="44.65647" lon="5.04196">
        <ele>617</ele>
        <time>2026-05-26T12:21:50.000Z</time>
      </trkpt>
      <trkpt lat="44.65645" lon="5.04196">
        <ele>617</ele>
        <time>2026-05-26T12:21:51.000Z</time>
      </trkpt>
      <trkpt lat="44.65644" lon="5.04195">
        <ele>617</ele>
        <time>2026-05-26T12:21:52.000Z</time>
      </trkpt>
      <trkpt lat="44.65643" lon="5.04195">
        <ele>618</ele>
        <time>2026-05-26T12:21:53.000Z</time>
      </trkpt>
      <trkpt lat="44.65642" lon="5.04195">
        <ele>618</ele>
        <time>2026-05-26T12:21:54.000Z</time>
      </trkpt>
      <trkpt lat="44.65641" lon="5.04196">
        <ele>618</ele>
        <time>2026-05-26T12:21:55.000Z</time>
      </trkpt>
      <trkpt lat="44.6564" lon="5.04196">
        <ele>617</ele>
        <time>2026-05-26T12:21:56.000Z</time>
      </trkpt>
      <trkpt lat="44.65639" lon="5.04196">
        <ele>618</ele>
        <time>2026-05-26T12:21:57.000Z</time>
      </trkpt>
      <trkpt lat="44.65638" lon="5.04196">
        <ele>617</ele>
        <time>2026-05-26T12:21:58.000Z</time>
      </trkpt>
      <trkpt lat="44.65638" lon="5.04196">
        <ele>617</ele>
        <time>2026-05-26T12:21:59.000Z</time>
      </trkpt>
      <trkpt lat="44.65636" lon="5.04196">
        <ele>618</ele>
        <time>2026-05-26T12:22:00.000Z</time>
      </trkpt>
      <trkpt lat="44.65635" lon="5.04197">
        <ele>617</ele>
        <time>2026-05-26T12:22:01.000Z</time>
      </trkpt>
      <trkpt lat="44.65633" lon="5.04198">
        <ele>617</ele>
        <time>2026-05-26T12:22:02.000Z</time>
      </trkpt>
      <trkpt lat="44.65633" lon="5.04198">
        <ele>617</ele>
        <time>2026-05-26T12:22:03.000Z</time>
      </trkpt>
      <trkpt lat="44.65631" lon="5.04197">
        <ele>616</ele>
        <time>2026-05-26T12:22:04.000Z</time>
      </trkpt>
      <trkpt lat="44.6563" lon="5.04198">
        <ele>617</ele>
        <time>2026-05-26T12:22:05.000Z</time>
      </trkpt>
      <trkpt lat="44.65628" lon="5.04198">
        <ele>619</ele>
        <time>2026-05-26T12:22:06.000Z</time>
      </trkpt>
      <trkpt lat="44.65626" lon="5.04198">
        <ele>620</ele>
        <time>2026-05-26T12:22:07.000Z</time>
      </trkpt>
      <trkpt lat="44.65625" lon="5.04198">
        <ele>620</ele>
        <time>2026-05-26T12:22:08.000Z</time>
      </trkpt>
      <trkpt lat="44.65625" lon="5.04197">
        <ele>620</ele>
        <time>2026-05-26T12:22:09.000Z</time>
      </trkpt>
      <trkpt lat="44.65624" lon="5.04197">
        <ele>622</ele>
        <time>2026-05-26T12:22:10.000Z</time>
      </trkpt>
      <trkpt lat="44.65623" lon="5.04197">
        <ele>621</ele>
        <time>2026-05-26T12:22:11.000Z</time>
      </trkpt>
      <trkpt lat="44.65622" lon="5.04198">
        <ele>621</ele>
        <time>2026-05-26T12:22:12.000Z</time>
      </trkpt>
      <trkpt lat="44.65621" lon="5.042">
        <ele>622</ele>
        <time>2026-05-26T12:22:13.000Z</time>
      </trkpt>
      <trkpt lat="44.65621" lon="5.042">
        <ele>622</ele>
        <time>2026-05-26T12:22:14.000Z</time>
      </trkpt>
      <trkpt lat="44.65621" lon="5.042">
        <ele>622</ele>
        <time>2026-05-26T12:22:15.000Z</time>
      </trkpt>
      <trkpt lat="44.65621" lon="5.042">
        <ele>622</ele>
        <time>2026-05-26T12:22:16.000Z</time>
      </trkpt>
      <trkpt lat="44.65621" lon="5.042">
        <ele>622</ele>
        <time>2026-05-26T12:22:17.000Z</time>
      </trkpt>
      <trkpt lat="44.65621" lon="5.04201">
        <ele>621</ele>
        <time>2026-05-26T12:22:18.000Z</time>
      </trkpt>
      <trkpt lat="44.6562" lon="5.04202">
        <ele>620</ele>
        <time>2026-05-26T12:22:19.000Z</time>
      </trkpt>
      <trkpt lat="44.6562" lon="5.04201">
        <ele>621</ele>
        <time>2026-05-26T12:22:20.000Z</time>
      </trkpt>
      <trkpt lat="44.65619" lon="5.04202">
        <ele>623</ele>
        <time>2026-05-26T12:22:21.000Z</time>
      </trkpt>
      <trkpt lat="44.65617" lon="5.04202">
        <ele>623</ele>
        <time>2026-05-26T12:22:22.000Z</time>
      </trkpt>
      <trkpt lat="44.65616" lon="5.04202">
        <ele>621</ele>
        <time>2026-05-26T12:22:23.000Z</time>
      </trkpt>
      <trkpt lat="44.65615" lon="5.04202">
        <ele>621</ele>
        <time>2026-05-26T12:22:24.000Z</time>
      </trkpt>
      <trkpt lat="44.65614" lon="5.04201">
        <ele>621</ele>
        <time>2026-05-26T12:22:25.000Z</time>
      </trkpt>
      <trkpt lat="44.65613" lon="5.04202">
        <ele>621</ele>
        <time>2026-05-26T12:22:26.000Z</time>
      </trkpt>
      <trkpt lat="44.65613" lon="5.04202">
        <ele>621</ele>
        <time>2026-05-26T12:22:27.000Z</time>
      </trkpt>
      <trkpt lat="44.65613" lon="5.04202">
        <ele>621</ele>
        <time>2026-05-26T12:22:28.000Z</time>
      </trkpt>
      <trkpt lat="44.65613" lon="5.04202">
        <ele>621</ele>
        <time>2026-05-26T12:22:29.000Z</time>
      </trkpt>
      <trkpt lat="44.65613" lon="5.04202">
        <ele>621</ele>
        <time>2026-05-26T12:22:30.000Z</time>
      </trkpt>
      <trkpt lat="44.65613" lon="5.04202">
        <ele>621</ele>
        <time>2026-05-26T12:22:31.000Z</time>
      </trkpt>
      <trkpt lat="44.65612" lon="5.04204">
        <ele>622</ele>
        <time>2026-05-26T12:22:32.000Z</time>
      </trkpt>
      <trkpt lat="44.65612" lon="5.04205">
        <ele>621</ele>
        <time>2026-05-26T12:22:33.000Z</time>
      </trkpt>
      <trkpt lat="44.65612" lon="5.04205">
        <ele>622</ele>
        <time>2026-05-26T12:22:34.000Z</time>
      </trkpt>
      <trkpt lat="44.65612" lon="5.04205">
        <ele>622</ele>
        <time>2026-05-26T12:22:35.000Z</time>
      </trkpt>
      <trkpt lat="44.65612" lon="5.04205">
        <ele>622</ele>
        <time>2026-05-26T12:22:36.000Z</time>
      </trkpt>
      <trkpt lat="44.65612" lon="5.04205">
        <ele>622</ele>
        <time>2026-05-26T12:22:37.000Z</time>
      </trkpt>
      <trkpt lat="44.65612" lon="5.04205">
        <ele>620</ele>
        <time>2026-05-26T12:22:38.000Z</time>
      </trkpt>
      <trkpt lat="44.65613" lon="5.04205">
        <ele>620</ele>
        <time>2026-05-26T12:22:39.000Z</time>
      </trkpt>
      <trkpt lat="44.65612" lon="5.04203">
        <ele>619</ele>
        <time>2026-05-26T12:22:40.000Z</time>
      </trkpt>
      <trkpt lat="44.65612" lon="5.04203">
        <ele>619</ele>
        <time>2026-05-26T12:22:41.000Z</time>
      </trkpt>
      <trkpt lat="44.65612" lon="5.04203">
        <ele>619</ele>
        <time>2026-05-26T12:22:42.000Z</time>
      </trkpt>
      <trkpt lat="44.65612" lon="5.04203">
        <ele>619</ele>
        <time>2026-05-26T12:22:43.000Z</time>
      </trkpt>
      <trkpt lat="44.65612" lon="5.04203">
        <ele>619</ele>
        <time>2026-05-26T12:22:44.000Z</time>
      </trkpt>
      <trkpt lat="44.65612" lon="5.04203">
        <ele>619</ele>
        <time>2026-05-26T12:22:45.000Z</time>
      </trkpt>
      <trkpt lat="44.65612" lon="5.04203">
        <ele>619</ele>
        <time>2026-05-26T12:22:46.000Z</time>
      </trkpt>
      <trkpt lat="44.65612" lon="5.04203">
        <ele>619</ele>
        <time>2026-05-26T12:22:47.000Z</time>
      </trkpt>
      <trkpt lat="44.65612" lon="5.04203">
        <ele>619</ele>
        <time>2026-05-26T12:22:48.000Z</time>
      </trkpt>
      <trkpt lat="44.65612" lon="5.04203">
        <ele>619</ele>
        <time>2026-05-26T12:22:49.000Z</time>
      </trkpt>
      <trkpt lat="44.65612" lon="5.04203">
        <ele>619</ele>
        <time>2026-05-26T12:22:50.000Z</time>
      </trkpt>
      <trkpt lat="44.65612" lon="5.04203">
        <ele>619</ele>
        <time>2026-05-26T12:22:51.000Z</time>
      </trkpt>
      <trkpt lat="44.65612" lon="5.04203">
        <ele>619</ele>
        <time>2026-05-26T12:22:52.000Z</time>
      </trkpt>
      <trkpt lat="44.65612" lon="5.04203">
        <ele>619</ele>
        <time>2026-05-26T12:22:53.000Z</time>
      </trkpt>
      <trkpt lat="44.65612" lon="5.04203">
        <ele>619</ele>
        <time>2026-05-26T12:22:54.000Z</time>
      </trkpt>
      <trkpt lat="44.65612" lon="5.04203">
        <ele>619</ele>
        <time>2026-05-26T12:22:55.000Z</time>
      </trkpt>
      <trkpt lat="44.65612" lon="5.04203">
        <ele>619</ele>
        <time>2026-05-26T12:22:56.000Z</time>
      </trkpt>
      <trkpt lat="44.65612" lon="5.04203">
        <ele>619</ele>
        <time>2026-05-26T12:22:57.000Z</time>
      </trkpt>
      <trkpt lat="44.65612" lon="5.04203">
        <ele>619</ele>
        <time>2026-05-26T12:22:58.000Z</time>
      </trkpt>
      <trkpt lat="44.65612" lon="5.04203">
        <ele>619</ele>
        <time>2026-05-26T12:22:59.000Z</time>
      </trkpt>
      <trkpt lat="44.65612" lon="5.04203">
        <ele>619</ele>
        <time>2026-05-26T12:23:00.000Z</time>
      </trkpt>
      <trkpt lat="44.65612" lon="5.04203">
        <ele>619</ele>
        <time>2026-05-26T12:23:01.000Z</time>
      </trkpt>
      <trkpt lat="44.65612" lon="5.04203">
        <ele>619</ele>
        <time>2026-05-26T12:23:02.000Z</time>
      </trkpt>
      <trkpt lat="44.65612" lon="5.04203">
        <ele>619</ele>
        <time>2026-05-26T12:23:03.000Z</time>
      </trkpt>
      <trkpt lat="44.65612" lon="5.04203">
        <ele>619</ele>
        <time>2026-05-26T12:23:04.000Z</time>
      </trkpt>
      <trkpt lat="44.65612" lon="5.04203">
        <ele>619</ele>
        <time>2026-05-26T12:23:05.000Z</time>
      </trkpt>
      <trkpt lat="44.65612" lon="5.04203">
        <ele>619</ele>
        <time>2026-05-26T12:23:06.000Z</time>
      </trkpt>
      <trkpt lat="44.65612" lon="5.04203">
        <ele>619</ele>
        <time>2026-05-26T12:23:07.000Z</time>
      </trkpt>
      <trkpt lat="44.65612" lon="5.04203">
        <ele>619</ele>
        <time>2026-05-26T12:23:08.000Z</time>
      </trkpt>
      <trkpt lat="44.65612" lon="5.04203">
        <ele>619</ele>
        <time>2026-05-26T12:23:09.000Z</time>
      </trkpt>
      <trkpt lat="44.65612" lon="5.04203">
        <ele>619</ele>
        <time>2026-05-26T12:23:10.000Z</time>
      </trkpt>
      <trkpt lat="44.65612" lon="5.04203">
        <ele>619</ele>
        <time>2026-05-26T12:23:11.000Z</time>
      </trkpt>
      <trkpt lat="44.65612" lon="5.04203">
        <ele>619</ele>
        <time>2026-05-26T12:23:12.000Z</time>
      </trkpt>
      <trkpt lat="44.65612" lon="5.04203">
        <ele>619</ele>
        <time>2026-05-26T12:23:13.000Z</time>
      </trkpt>
      <trkpt lat="44.65612" lon="5.04203">
        <ele>619</ele>
        <time>2026-05-26T12:23:14.000Z</time>
      </trkpt>
      <trkpt lat="44.65612" lon="5.04203">
        <ele>619</ele>
        <time>2026-05-26T12:23:15.000Z</time>
      </trkpt>
      <trkpt lat="44.65612" lon="5.04203">
        <ele>619</ele>
        <time>2026-05-26T12:23:16.000Z</time>
      </trkpt>
      <trkpt lat="44.65612" lon="5.04203">
        <ele>619</ele>
        <time>2026-05-26T12:23:17.000Z</time>
      </trkpt>
      <trkpt lat="44.65612" lon="5.04203">
        <ele>619</ele>
        <time>2026-05-26T12:23:18.000Z</time>
      </trkpt>
      <trkpt lat="44.65612" lon="5.04203">
        <ele>619</ele>
        <time>2026-05-26T12:23:19.000Z</time>
      </trkpt>
      <trkpt lat="44.65612" lon="5.04203">
        <ele>619</ele>
        <time>2026-05-26T12:23:20.000Z</time>
      </trkpt>
      <trkpt lat="44.65612" lon="5.04203">
        <ele>619</ele>
        <time>2026-05-26T12:23:21.000Z</time>
      </trkpt>
      <trkpt lat="44.65612" lon="5.04203">
        <ele>619</ele>
        <time>2026-05-26T12:23:22.000Z</time>
      </trkpt>
      <trkpt lat="44.65612" lon="5.04203">
        <ele>619</ele>
        <time>2026-05-26T12:23:23.000Z</time>
      </trkpt>
      <trkpt lat="44.65612" lon="5.04203">
        <ele>619</ele>
        <time>2026-05-26T12:23:24.000Z</time>
      </trkpt>
      <trkpt lat="44.65612" lon="5.04203">
        <ele>619</ele>
        <time>2026-05-26T12:23:25.000Z</time>
      </trkpt>
      <trkpt lat="44.65612" lon="5.04203">
        <ele>619</ele>
        <time>2026-05-26T12:23:26.000Z</time>
      </trkpt>
      <trkpt lat="44.65612" lon="5.04203">
        <ele>619</ele>
        <time>2026-05-26T12:23:27.000Z</time>
      </trkpt>
      <trkpt lat="44.65612" lon="5.04203">
        <ele>619</ele>
        <time>2026-05-26T12:23:28.000Z</time>
      </trkpt>
      <trkpt lat="44.65612" lon="5.04203">
        <ele>619</ele>
        <time>2026-05-26T12:23:29.000Z</time>
      </trkpt>
      <trkpt lat="44.65612" lon="5.04203">
        <ele>619</ele>
        <time>2026-05-26T12:23:30.000Z</time>
      </trkpt>
      <trkpt lat="44.65612" lon="5.04203">
        <ele>619</ele>
        <time>2026-05-26T12:23:31.000Z</time>
      </trkpt>
      <trkpt lat="44.65612" lon="5.04203">
        <ele>619</ele>
        <time>2026-05-26T12:23:32.000Z</time>
      </trkpt>
      <trkpt lat="44.65612" lon="5.04203">
        <ele>619</ele>
        <time>2026-05-26T12:23:33.000Z</time>
      </trkpt>
      <trkpt lat="44.65612" lon="5.04203">
        <ele>619</ele>
        <time>2026-05-26T12:23:34.000Z</time>
      </trkpt>
      <trkpt lat="44.65612" lon="5.04203">
        <ele>619</ele>
        <time>2026-05-26T12:23:35.000Z</time>
      </trkpt>
      <trkpt lat="44.65612" lon="5.04203">
        <ele>619</ele>
        <time>2026-05-26T12:23:36.000Z</time>
      </trkpt>
      <trkpt lat="44.65612" lon="5.04203">
        <ele>619</ele>
        <time>2026-05-26T12:23:37.000Z</time>
      </trkpt>
      <trkpt lat="44.65612" lon="5.04203">
        <ele>619</ele>
        <time>2026-05-26T12:23:38.000Z</time>
      </trkpt>
      <trkpt lat="44.65612" lon="5.04203">
        <ele>619</ele>
        <time>2026-05-26T12:23:39.000Z</time>
      </trkpt>
      <trkpt lat="44.65612" lon="5.04203">
        <ele>619</ele>
        <time>2026-05-26T12:23:40.000Z</time>
      </trkpt>
      <trkpt lat="44.65612" lon="5.04203">
        <ele>619</ele>
        <time>2026-05-26T12:23:41.000Z</time>
      </trkpt>
      <trkpt lat="44.65612" lon="5.04203">
        <ele>619</ele>
        <time>2026-05-26T12:23:42.000Z</time>
      </trkpt>
      <trkpt lat="44.65612" lon="5.04203">
        <ele>619</ele>
        <time>2026-05-26T12:23:43.000Z</time>
      </trkpt>
      <trkpt lat="44.65612" lon="5.04203">
        <ele>619</ele>
        <time>2026-05-26T12:23:44.000Z</time>
      </trkpt>
      <trkpt lat="44.65612" lon="5.04203">
        <ele>619</ele>
        <time>2026-05-26T12:23:45.000Z</time>
      </trkpt>
      <trkpt lat="44.65612" lon="5.04203">
        <ele>619</ele>
        <time>2026-05-26T12:23:46.000Z</time>
      </trkpt>
      <trkpt lat="44.65612" lon="5.04203">
        <ele>619</ele>
        <time>2026-05-26T12:23:47.000Z</time>
      </trkpt>
      <trkpt lat="44.65612" lon="5.04203">
        <ele>619</ele>
        <time>2026-05-26T12:23:48.000Z</time>
      </trkpt>
      <trkpt lat="44.65612" lon="5.04203">
        <ele>619</ele>
        <time>2026-05-26T12:23:49.000Z</time>
      </trkpt>
      <trkpt lat="44.65612" lon="5.04203">
        <ele>619</ele>
        <time>2026-05-26T12:23:50.000Z</time>
      </trkpt>
      <trkpt lat="44.65612" lon="5.04203">
        <ele>619</ele>
        <time>2026-05-26T12:23:51.000Z</time>
      </trkpt>
      <trkpt lat="44.65612" lon="5.04203">
        <ele>619</ele>
        <time>2026-05-26T12:23:52.000Z</time>
      </trkpt>
      <trkpt lat="44.65612" lon="5.04203">
        <ele>619</ele>
        <time>2026-05-26T12:23:53.000Z</time>
      </trkpt>
      <trkpt lat="44.65612" lon="5.04203">
        <ele>619</ele>
        <time>2026-05-26T12:23:54.000Z</time>
      </trkpt>
      <trkpt lat="44.65612" lon="5.04203">
        <ele>619</ele>
        <time>2026-05-26T12:23:55.000Z</time>
      </trkpt>
      <trkpt lat="44.65612" lon="5.04203">
        <ele>619</ele>
        <time>2026-05-26T12:23:56.000Z</time>
      </trkpt>
      <trkpt lat="44.65612" lon="5.04203">
        <ele>619</ele>
        <time>2026-05-26T12:23:57.000Z</time>
      </trkpt>
      <trkpt lat="44.65612" lon="5.04203">
        <ele>619</ele>
        <time>2026-05-26T12:23:58.000Z</time>
      </trkpt>
      <trkpt lat="44.65612" lon="5.04203">
        <ele>619</ele>
        <time>2026-05-26T12:23:59.000Z</time>
      </trkpt>
      <trkpt lat="44.65612" lon="5.04203">
        <ele>619</ele>
        <time>2026-05-26T12:24:00.000Z</time>
      </trkpt>
      <trkpt lat="44.65612" lon="5.04203">
        <ele>619</ele>
        <time>2026-05-26T12:24:01.000Z</time>
      </trkpt>
      <trkpt lat="44.65612" lon="5.04203">
        <ele>619</ele>
        <time>2026-05-26T12:24:02.000Z</time>
      </trkpt>
      <trkpt lat="44.65612" lon="5.04203">
        <ele>619</ele>
        <time>2026-05-26T12:24:03.000Z</time>
      </trkpt>
      <trkpt lat="44.65612" lon="5.04203">
        <ele>619</ele>
        <time>2026-05-26T12:24:04.000Z</time>
      </trkpt>
      <trkpt lat="44.65612" lon="5.04203">
        <ele>619</ele>
        <time>2026-05-26T12:24:05.000Z</time>
      </trkpt>
      <trkpt lat="44.65612" lon="5.04203">
        <ele>619</ele>
        <time>2026-05-26T12:24:06.000Z</time>
      </trkpt>
      <trkpt lat="44.65612" lon="5.04203">
        <ele>619</ele>
        <time>2026-05-26T12:24:07.000Z</time>
      </trkpt>
      <trkpt lat="44.65612" lon="5.04203">
        <ele>619</ele>
        <time>2026-05-26T12:24:08.000Z</time>
      </trkpt>
      <trkpt lat="44.65612" lon="5.04203">
        <ele>619</ele>
        <time>2026-05-26T12:24:09.000Z</time>
      </trkpt>
      <trkpt lat="44.65612" lon="5.04203">
        <ele>619</ele>
        <time>2026-05-26T12:24:10.000Z</time>
      </trkpt>
      <trkpt lat="44.65612" lon="5.04203">
        <ele>619</ele>
        <time>2026-05-26T12:24:11.000Z</time>
      </trkpt>
      <trkpt lat="44.65612" lon="5.04203">
        <ele>619</ele>
        <time>2026-05-26T12:24:12.000Z</time>
      </trkpt>
      <trkpt lat="44.65612" lon="5.04203">
        <ele>619</ele>
        <time>2026-05-26T12:24:13.000Z</time>
      </trkpt>
      <trkpt lat="44.65612" lon="5.04203">
        <ele>619</ele>
        <time>2026-05-26T12:24:14.000Z</time>
      </trkpt>
      <trkpt lat="44.65612" lon="5.04203">
        <ele>619</ele>
        <time>2026-05-26T12:24:15.000Z</time>
      </trkpt>
      <trkpt lat="44.65612" lon="5.04203">
        <ele>619</ele>
        <time>2026-05-26T12:24:16.000Z</time>
      </trkpt>
      <trkpt lat="44.65612" lon="5.04203">
        <ele>619</ele>
        <time>2026-05-26T12:24:17.000Z</time>
      </trkpt>
      <trkpt lat="44.65612" lon="5.04203">
        <ele>619</ele>
        <time>2026-05-26T12:24:18.000Z</time>
      </trkpt>
      <trkpt lat="44.65612" lon="5.04203">
        <ele>619</ele>
        <time>2026-05-26T12:24:19.000Z</time>
      </trkpt>
      <trkpt lat="44.65612" lon="5.04203">
        <ele>619</ele>
        <time>2026-05-26T12:24:20.000Z</time>
      </trkpt>
      <trkpt lat="44.65612" lon="5.04203">
        <ele>619</ele>
        <time>2026-05-26T12:24:21.000Z</time>
      </trkpt>
      <trkpt lat="44.65612" lon="5.04203">
        <ele>619</ele>
        <time>2026-05-26T12:24:22.000Z</time>
      </trkpt>
      <trkpt lat="44.65612" lon="5.04203">
        <ele>619</ele>
        <time>2026-05-26T12:24:23.000Z</time>
      </trkpt>
      <trkpt lat="44.65612" lon="5.04203">
        <ele>619</ele>
        <time>2026-05-26T12:24:24.000Z</time>
      </trkpt>
      <trkpt lat="44.65612" lon="5.04203">
        <ele>619</ele>
        <time>2026-05-26T12:24:25.000Z</time>
      </trkpt>
      <trkpt lat="44.65612" lon="5.04203">
        <ele>619</ele>
        <time>2026-05-26T12:24:26.000Z</time>
      </trkpt>
      <trkpt lat="44.65612" lon="5.04203">
        <ele>619</ele>
        <time>2026-05-26T12:24:27.000Z</time>
      </trkpt>
      <trkpt lat="44.65612" lon="5.04203">
        <ele>619</ele>
        <time>2026-05-26T12:24:28.000Z</time>
      </trkpt>
      <trkpt lat="44.65612" lon="5.04203">
        <ele>619</ele>
        <time>2026-05-26T12:24:29.000Z</time>
      </trkpt>
      <trkpt lat="44.65612" lon="5.04203">
        <ele>619</ele>
        <time>2026-05-26T12:24:30.000Z</time>
      </trkpt>
      <trkpt lat="44.65612" lon="5.04203">
        <ele>619</ele>
        <time>2026-05-26T12:24:31.000Z</time>
      </trkpt>
      <trkpt lat="44.65612" lon="5.04203">
        <ele>619</ele>
        <time>2026-05-26T12:24:32.000Z</time>
      </trkpt>
      <trkpt lat="44.65612" lon="5.04203">
        <ele>619</ele>
        <time>2026-05-26T12:24:33.000Z</time>
      </trkpt>
      <trkpt lat="44.65612" lon="5.04203">
        <ele>619</ele>
        <time>2026-05-26T12:24:34.000Z</time>
      </trkpt>
      <trkpt lat="44.65612" lon="5.04203">
        <ele>619</ele>
        <time>2026-05-26T12:24:35.000Z</time>
      </trkpt>
      <trkpt lat="44.65612" lon="5.04203">
        <ele>619</ele>
        <time>2026-05-26T12:24:36.000Z</time>
      </trkpt>
      <trkpt lat="44.65612" lon="5.04203">
        <ele>619</ele>
        <time>2026-05-26T12:24:37.000Z</time>
      </trkpt>
      <trkpt lat="44.65612" lon="5.04203">
        <ele>619</ele>
        <time>2026-05-26T12:24:38.000Z</time>
      </trkpt>
      <trkpt lat="44.65612" lon="5.04203">
        <ele>619</ele>
        <time>2026-05-26T12:24:39.000Z</time>
      </trkpt>
      <trkpt lat="44.65612" lon="5.04203">
        <ele>619</ele>
        <time>2026-05-26T12:24:40.000Z</time>
      </trkpt>
      <trkpt lat="44.65612" lon="5.04203">
        <ele>619</ele>
        <time>2026-05-26T12:24:41.000Z</time>
      </trkpt>
      <trkpt lat="44.65612" lon="5.04203">
        <ele>619</ele>
        <time>2026-05-26T12:24:42.000Z</time>
      </trkpt>
      <trkpt lat="44.65612" lon="5.04203">
        <ele>619</ele>
        <time>2026-05-26T12:24:43.000Z</time>
      </trkpt>
      <trkpt lat="44.65612" lon="5.04203">
        <ele>619</ele>
        <time>2026-05-26T12:24:44.000Z</time>
      </trkpt>
      <trkpt lat="44.65612" lon="5.04203">
        <ele>619</ele>
        <time>2026-05-26T12:24:45.000Z</time>
      </trkpt>
      <trkpt lat="44.65612" lon="5.04203">
        <ele>619</ele>
        <time>2026-05-26T12:24:46.000Z</time>
      </trkpt>
      <trkpt lat="44.65612" lon="5.04203">
        <ele>619</ele>
        <time>2026-05-26T12:24:47.000Z</time>
      </trkpt>
      <trkpt lat="44.65612" lon="5.04203">
        <ele>619</ele>
        <time>2026-05-26T12:24:48.000Z</time>
      </trkpt>
      <trkpt lat="44.65612" lon="5.04203">
        <ele>619</ele>
        <time>2026-05-26T12:24:49.000Z</time>
      </trkpt>
      <trkpt lat="44.65612" lon="5.04203">
        <ele>619</ele>
        <time>2026-05-26T12:24:50.000Z</time>
      </trkpt>
      <trkpt lat="44.65612" lon="5.04203">
        <ele>619</ele>
        <time>2026-05-26T12:24:51.000Z</time>
      </trkpt>
      <trkpt lat="44.65612" lon="5.04203">
        <ele>619</ele>
        <time>2026-05-26T12:24:52.000Z</time>
      </trkpt>
      <trkpt lat="44.65612" lon="5.04203">
        <ele>619</ele>
        <time>2026-05-26T12:24:53.000Z</time>
      </trkpt>
      <trkpt lat="44.65612" lon="5.04203">
        <ele>619</ele>
        <time>2026-05-26T12:24:54.000Z</time>
      </trkpt>
      <trkpt lat="44.65612" lon="5.04203">
        <ele>619</ele>
        <time>2026-05-26T12:24:55.000Z</time>
      </trkpt>
      <trkpt lat="44.65612" lon="5.04203">
        <ele>619</ele>
        <time>2026-05-26T12:24:56.000Z</time>
      </trkpt>
      <trkpt lat="44.65612" lon="5.04203">
        <ele>619</ele>
        <time>2026-05-26T12:24:57.000Z</time>
      </trkpt>
      <trkpt lat="44.65612" lon="5.04203">
        <ele>619</ele>
        <time>2026-05-26T12:24:58.000Z</time>
      </trkpt>
      <trkpt lat="44.65612" lon="5.04203">
        <ele>619</ele>
        <time>2026-05-26T12:24:59.000Z</time>
      </trkpt>
      <trkpt lat="44.65612" lon="5.04203">
        <ele>619</ele>
        <time>2026-05-26T12:25:00.000Z</time>
      </trkpt>
      <trkpt lat="44.65612" lon="5.04203">
        <ele>619</ele>
        <time>2026-05-26T12:25:01.000Z</time>
      </trkpt>
      <trkpt lat="44.65612" lon="5.04203">
        <ele>619</ele>
        <time>2026-05-26T12:25:02.000Z</time>
      </trkpt>
      <trkpt lat="44.65612" lon="5.04203">
        <ele>619</ele>
        <time>2026-05-26T12:25:03.000Z</time>
      </trkpt>
      <trkpt lat="44.65612" lon="5.04203">
        <ele>619</ele>
        <time>2026-05-26T12:25:04.000Z</time>
      </trkpt>
      <trkpt lat="44.65612" lon="5.04203">
        <ele>619</ele>
        <time>2026-05-26T12:25:05.000Z</time>
      </trkpt>
      <trkpt lat="44.65612" lon="5.04203">
        <ele>619</ele>
        <time>2026-05-26T12:25:06.000Z</time>
      </trkpt>
      <trkpt lat="44.65612" lon="5.04203">
        <ele>619</ele>
        <time>2026-05-26T12:25:07.000Z</time>
      </trkpt>
      <trkpt lat="44.65612" lon="5.04203">
        <ele>619</ele>
        <time>2026-05-26T12:25:08.000Z</time>
      </trkpt>
      <trkpt lat="44.65612" lon="5.04203">
        <ele>619</ele>
        <time>2026-05-26T12:25:09.000Z</time>
      </trkpt>
      <trkpt lat="44.65612" lon="5.04203">
        <ele>619</ele>
        <time>2026-05-26T12:25:10.000Z</time>
      </trkpt>
      <trkpt lat="44.65612" lon="5.04203">
        <ele>619</ele>
        <time>2026-05-26T12:25:11.000Z</time>
      </trkpt>
      <trkpt lat="44.65612" lon="5.04203">
        <ele>619</ele>
        <time>2026-05-26T12:25:12.000Z</time>
      </trkpt>
      <trkpt lat="44.65612" lon="5.04203">
        <ele>619</ele>
        <time>2026-05-26T12:25:13.000Z</time>
      </trkpt>
      <trkpt lat="44.65612" lon="5.04203">
        <ele>619</ele>
        <time>2026-05-26T12:25:14.000Z</time>
      </trkpt>
      <trkpt lat="44.65612" lon="5.04203">
        <ele>619</ele>
        <time>2026-05-26T12:25:15.000Z</time>
      </trkpt>
      <trkpt lat="44.65612" lon="5.04203">
        <ele>619</ele>
        <time>2026-05-26T12:25:16.000Z</time>
      </trkpt>
      <trkpt lat="44.65612" lon="5.04203">
        <ele>619</ele>
        <time>2026-05-26T12:25:17.000Z</time>
      </trkpt>
      <trkpt lat="44.65612" lon="5.04203">
        <ele>619</ele>
        <time>2026-05-26T12:25:18.000Z</time>
      </trkpt>
      <trkpt lat="44.65612" lon="5.04203">
        <ele>619</ele>
        <time>2026-05-26T12:25:19.000Z</time>
      </trkpt>
      <trkpt lat="44.65612" lon="5.04203">
        <ele>619</ele>
        <time>2026-05-26T12:25:20.000Z</time>
      </trkpt>
      <trkpt lat="44.65612" lon="5.04203">
        <ele>619</ele>
        <time>2026-05-26T12:25:21.000Z</time>
      </trkpt>
      <trkpt lat="44.65612" lon="5.04203">
        <ele>619</ele>
        <time>2026-05-26T12:25:22.000Z</time>
      </trkpt>
      <trkpt lat="44.65612" lon="5.04203">
        <ele>619</ele>
        <time>2026-05-26T12:25:23.000Z</time>
      </trkpt>
      <trkpt lat="44.65612" lon="5.04203">
        <ele>619</ele>
        <time>2026-05-26T12:25:24.000Z</time>
      </trkpt>
      <trkpt lat="44.65612" lon="5.04203">
        <ele>619</ele>
        <time>2026-05-26T12:25:25.000Z</time>
      </trkpt>
      <trkpt lat="44.65612" lon="5.04203">
        <ele>619</ele>
        <time>2026-05-26T12:25:26.000Z</time>
      </trkpt>
      <trkpt lat="44.65612" lon="5.04203">
        <ele>619</ele>
        <time>2026-05-26T12:25:27.000Z</time>
      </trkpt>
      <trkpt lat="44.65612" lon="5.04203">
        <ele>619</ele>
        <time>2026-05-26T12:25:28.000Z</time>
      </trkpt>
      <trkpt lat="44.65612" lon="5.04203">
        <ele>619</ele>
        <time>2026-05-26T12:25:29.000Z</time>
      </trkpt>
      <trkpt lat="44.65612" lon="5.04203">
        <ele>619</ele>
        <time>2026-05-26T12:25:30.000Z</time>
      </trkpt>
      <trkpt lat="44.65612" lon="5.04203">
        <ele>619</ele>
        <time>2026-05-26T12:25:31.000Z</time>
      </trkpt>
      <trkpt lat="44.65612" lon="5.04203">
        <ele>619</ele>
        <time>2026-05-26T12:25:32.000Z</time>
      </trkpt>
      <trkpt lat="44.65612" lon="5.04203">
        <ele>619</ele>
        <time>2026-05-26T12:25:33.000Z</time>
      </trkpt>
      <trkpt lat="44.65612" lon="5.04203">
        <ele>619</ele>
        <time>2026-05-26T12:25:34.000Z</time>
      </trkpt>
      <trkpt lat="44.65612" lon="5.04203">
        <ele>619</ele>
        <time>2026-05-26T12:25:35.000Z</time>
      </trkpt>
      <trkpt lat="44.65612" lon="5.04203">
        <ele>619</ele>
        <time>2026-05-26T12:25:36.000Z</time>
      </trkpt>
      <trkpt lat="44.65612" lon="5.04203">
        <ele>619</ele>
        <time>2026-05-26T12:25:37.000Z</time>
      </trkpt>
      <trkpt lat="44.65612" lon="5.04203">
        <ele>619</ele>
        <time>2026-05-26T12:25:38.000Z</time>
      </trkpt>
      <trkpt lat="44.65612" lon="5.04203">
        <ele>619</ele>
        <time>2026-05-26T12:25:39.000Z</time>
      </trkpt>
      <trkpt lat="44.65612" lon="5.04203">
        <ele>619</ele>
        <time>2026-05-26T12:25:40.000Z</time>
      </trkpt>
      <trkpt lat="44.65612" lon="5.04203">
        <ele>619</ele>
        <time>2026-05-26T12:25:41.000Z</time>
      </trkpt>
      <trkpt lat="44.65612" lon="5.04203">
        <ele>619</ele>
        <time>2026-05-26T12:25:42.000Z</time>
      </trkpt>
      <trkpt lat="44.65612" lon="5.04203">
        <ele>619</ele>
        <time>2026-05-26T12:25:43.000Z</time>
      </trkpt>
      <trkpt lat="44.65612" lon="5.04203">
        <ele>619</ele>
        <time>2026-05-26T12:25:44.000Z</time>
      </trkpt>
      <trkpt lat="44.65612" lon="5.04203">
        <ele>619</ele>
        <time>2026-05-26T12:25:45.000Z</time>
      </trkpt>
      <trkpt lat="44.65612" lon="5.04203">
        <ele>619</ele>
        <time>2026-05-26T12:25:46.000Z</time>
      </trkpt>
      <trkpt lat="44.65612" lon="5.04203">
        <ele>619</ele>
        <time>2026-05-26T12:25:47.000Z</time>
      </trkpt>
      <trkpt lat="44.65612" lon="5.04203">
        <ele>619</ele>
        <time>2026-05-26T12:25:48.000Z</time>
      </trkpt>
      <trkpt lat="44.65612" lon="5.04203">
        <ele>619</ele>
        <time>2026-05-26T12:25:49.000Z</time>
      </trkpt>
      <trkpt lat="44.65612" lon="5.04203">
        <ele>619</ele>
        <time>2026-05-26T12:25:50.000Z</time>
      </trkpt>
      <trkpt lat="44.65612" lon="5.04203">
        <ele>619</ele>
        <time>2026-05-26T12:25:51.000Z</time>
      </trkpt>
      <trkpt lat="44.65612" lon="5.04203">
        <ele>619</ele>
        <time>2026-05-26T12:25:52.000Z</time>
      </trkpt>
      <trkpt lat="44.65612" lon="5.04203">
        <ele>619</ele>
        <time>2026-05-26T12:25:53.000Z</time>
      </trkpt>
      <trkpt lat="44.65612" lon="5.04203">
        <ele>619</ele>
        <time>2026-05-26T12:25:54.000Z</time>
      </trkpt>
      <trkpt lat="44.65612" lon="5.04203">
        <ele>619</ele>
        <time>2026-05-26T12:25:55.000Z</time>
      </trkpt>
      <trkpt lat="44.65612" lon="5.04203">
        <ele>619</ele>
        <time>2026-05-26T12:25:56.000Z</time>
      </trkpt>
      <trkpt lat="44.65612" lon="5.04203">
        <ele>619</ele>
        <time>2026-05-26T12:25:57.000Z</time>
      </trkpt>
      <trkpt lat="44.65612" lon="5.04203">
        <ele>619</ele>
        <time>2026-05-26T12:25:58.000Z</time>
      </trkpt>
      <trkpt lat="44.65612" lon="5.04203">
        <ele>619</ele>
        <time>2026-05-26T12:25:59.000Z</time>
      </trkpt>
      <trkpt lat="44.65612" lon="5.04203">
        <ele>619</ele>
        <time>2026-05-26T12:26:00.000Z</time>
      </trkpt>
      <trkpt lat="44.65612" lon="5.04203">
        <ele>619</ele>
        <time>2026-05-26T12:26:01.000Z</time>
      </trkpt>
      <trkpt lat="44.65612" lon="5.04203">
        <ele>619</ele>
        <time>2026-05-26T12:26:02.000Z</time>
      </trkpt>
      <trkpt lat="44.65612" lon="5.04203">
        <ele>619</ele>
        <time>2026-05-26T12:26:03.000Z</time>
      </trkpt>
      <trkpt lat="44.65612" lon="5.04203">
        <ele>619</ele>
        <time>2026-05-26T12:26:04.000Z</time>
      </trkpt>
      <trkpt lat="44.65612" lon="5.04203">
        <ele>619</ele>
        <time>2026-05-26T12:26:05.000Z</time>
      </trkpt>
      <trkpt lat="44.65612" lon="5.04203">
        <ele>619</ele>
        <time>2026-05-26T12:26:06.000Z</time>
      </trkpt>
      <trkpt lat="44.65612" lon="5.04203">
        <ele>619</ele>
        <time>2026-05-26T12:26:07.000Z</time>
      </trkpt>
      <trkpt lat="44.65612" lon="5.04203">
        <ele>619</ele>
        <time>2026-05-26T12:26:08.000Z</time>
      </trkpt>
      <trkpt lat="44.65612" lon="5.04203">
        <ele>619</ele>
        <time>2026-05-26T12:26:09.000Z</time>
      </trkpt>
      <trkpt lat="44.65612" lon="5.04203">
        <ele>619</ele>
        <time>2026-05-26T12:26:10.000Z</time>
      </trkpt>
      <trkpt lat="44.65612" lon="5.04203">
        <ele>619</ele>
        <time>2026-05-26T12:26:11.000Z</time>
      </trkpt>
      <trkpt lat="44.65612" lon="5.04203">
        <ele>619</ele>
        <time>2026-05-26T12:26:12.000Z</time>
      </trkpt>
      <trkpt lat="44.65612" lon="5.04203">
        <ele>619</ele>
        <time>2026-05-26T12:26:13.000Z</time>
      </trkpt>
      <trkpt lat="44.65612" lon="5.04203">
        <ele>619</ele>
        <time>2026-05-26T12:26:14.000Z</time>
      </trkpt>
      <trkpt lat="44.65612" lon="5.04203">
        <ele>619</ele>
        <time>2026-05-26T12:26:15.000Z</time>
      </trkpt>
      <trkpt lat="44.65612" lon="5.04203">
        <ele>619</ele>
        <time>2026-05-26T12:26:16.000Z</time>
      </trkpt>
      <trkpt lat="44.65612" lon="5.04203">
        <ele>619</ele>
        <time>2026-05-26T12:26:17.000Z</time>
      </trkpt>
      <trkpt lat="44.65612" lon="5.04203">
        <ele>619</ele>
        <time>2026-05-26T12:26:18.000Z</time>
      </trkpt>
      <trkpt lat="44.65612" lon="5.04203">
        <ele>619</ele>
        <time>2026-05-26T12:26:19.000Z</time>
      </trkpt>
      <trkpt lat="44.65612" lon="5.04203">
        <ele>619</ele>
        <time>2026-05-26T12:26:20.000Z</time>
      </trkpt>
      <trkpt lat="44.65612" lon="5.04203">
        <ele>619</ele>
        <time>2026-05-26T12:26:21.000Z</time>
      </trkpt>
      <trkpt lat="44.65612" lon="5.04203">
        <ele>619</ele>
        <time>2026-05-26T12:26:22.000Z</time>
      </trkpt>
      <trkpt lat="44.65612" lon="5.04203">
        <ele>619</ele>
        <time>2026-05-26T12:26:23.000Z</time>
      </trkpt>
      <trkpt lat="44.65612" lon="5.04203">
        <ele>619</ele>
        <time>2026-05-26T12:26:24.000Z</time>
      </trkpt>
      <trkpt lat="44.65612" lon="5.04203">
        <ele>619</ele>
        <time>2026-05-26T12:26:25.000Z</time>
      </trkpt>
      <trkpt lat="44.65612" lon="5.04203">
        <ele>619</ele>
        <time>2026-05-26T12:26:26.000Z</time>
      </trkpt>
      <trkpt lat="44.65612" lon="5.04203">
        <ele>619</ele>
        <time>2026-05-26T12:26:27.000Z</time>
      </trkpt>
      <trkpt lat="44.65612" lon="5.04203">
        <ele>619</ele>
        <time>2026-05-26T12:26:28.000Z</time>
      </trkpt>
      <trkpt lat="44.65612" lon="5.04203">
        <ele>619</ele>
        <time>2026-05-26T12:26:29.000Z</time>
      </trkpt>
      <trkpt lat="44.65612" lon="5.04203">
        <ele>619</ele>
        <time>2026-05-26T12:26:30.000Z</time>
      </trkpt>
      <trkpt lat="44.65612" lon="5.04203">
        <ele>619</ele>
        <time>2026-05-26T12:26:31.000Z</time>
      </trkpt>
      <trkpt lat="44.65612" lon="5.04203">
        <ele>619</ele>
        <time>2026-05-26T12:26:32.000Z</time>
      </trkpt>
      <trkpt lat="44.65612" lon="5.04203">
        <ele>619</ele>
        <time>2026-05-26T12:26:33.000Z</time>
      </trkpt>
      <trkpt lat="44.65612" lon="5.04203">
        <ele>619</ele>
        <time>2026-05-26T12:26:34.000Z</time>
      </trkpt>
      <trkpt lat="44.65612" lon="5.04203">
        <ele>619</ele>
        <time>2026-05-26T12:26:35.000Z</time>
      </trkpt>
      <trkpt lat="44.65612" lon="5.04203">
        <ele>619</ele>
        <time>2026-05-26T12:26:36.000Z</time>
      </trkpt>
      <trkpt lat="44.65612" lon="5.04203">
        <ele>619</ele>
        <time>2026-05-26T12:26:37.000Z</time>
      </trkpt>
      <trkpt lat="44.65612" lon="5.04203">
        <ele>619</ele>
        <time>2026-05-26T12:26:38.000Z</time>
      </trkpt>
      <trkpt lat="44.65612" lon="5.04203">
        <ele>619</ele>
        <time>2026-05-26T12:26:39.000Z</time>
      </trkpt>
      <trkpt lat="44.65612" lon="5.04203">
        <ele>619</ele>
        <time>2026-05-26T12:26:40.000Z</time>
      </trkpt>
      <trkpt lat="44.65612" lon="5.04203">
        <ele>619</ele>
        <time>2026-05-26T12:26:41.000Z</time>
      </trkpt>
      <trkpt lat="44.65612" lon="5.04203">
        <ele>619</ele>
        <time>2026-05-26T12:26:42.000Z</time>
      </trkpt>
      <trkpt lat="44.65612" lon="5.04203">
        <ele>619</ele>
        <time>2026-05-26T12:26:43.000Z</time>
      </trkpt>
      <trkpt lat="44.65612" lon="5.04203">
        <ele>619</ele>
        <time>2026-05-26T12:26:44.000Z</time>
      </trkpt>
      <trkpt lat="44.65612" lon="5.04203">
        <ele>619</ele>
        <time>2026-05-26T12:26:45.000Z</time>
      </trkpt>
      <trkpt lat="44.65612" lon="5.04203">
        <ele>619</ele>
        <time>2026-05-26T12:26:46.000Z</time>
      </trkpt>
      <trkpt lat="44.65612" lon="5.04203">
        <ele>619</ele>
        <time>2026-05-26T12:26:47.000Z</time>
      </trkpt>
      <trkpt lat="44.65612" lon="5.04203">
        <ele>619</ele>
        <time>2026-05-26T12:26:48.000Z</time>
      </trkpt>
      <trkpt lat="44.65612" lon="5.04203">
        <ele>619</ele>
        <time>2026-05-26T12:26:49.000Z</time>
      </trkpt>
      <trkpt lat="44.65612" lon="5.04203">
        <ele>619</ele>
        <time>2026-05-26T12:26:50.000Z</time>
      </trkpt>
      <trkpt lat="44.65612" lon="5.04203">
        <ele>619</ele>
        <time>2026-05-26T12:26:51.000Z</time>
      </trkpt>
      <trkpt lat="44.65612" lon="5.04203">
        <ele>619</ele>
        <time>2026-05-26T12:26:52.000Z</time>
      </trkpt>
      <trkpt lat="44.65612" lon="5.04203">
        <ele>619</ele>
        <time>2026-05-26T12:26:53.000Z</time>
      </trkpt>
      <trkpt lat="44.65612" lon="5.04203">
        <ele>619</ele>
        <time>2026-05-26T12:26:54.000Z</time>
      </trkpt>
      <trkpt lat="44.65611" lon="5.04204">
        <ele>620</ele>
        <time>2026-05-26T12:26:55.000Z</time>
      </trkpt>
      <trkpt lat="44.6561" lon="5.04205">
        <ele>620</ele>
        <time>2026-05-26T12:26:56.000Z</time>
      </trkpt>
      <trkpt lat="44.6561" lon="5.04206">
        <ele>619</ele>
        <time>2026-05-26T12:26:57.000Z</time>
      </trkpt>
      <trkpt lat="44.65609" lon="5.04207">
        <ele>619</ele>
        <time>2026-05-26T12:26:58.000Z</time>
      </trkpt>
      <trkpt lat="44.65609" lon="5.04207">
        <ele>619</ele>
        <time>2026-05-26T12:26:59.000Z</time>
      </trkpt>
      <trkpt lat="44.65608" lon="5.04207">
        <ele>618</ele>
        <time>2026-05-26T12:27:00.000Z</time>
      </trkpt>
      <trkpt lat="44.65607" lon="5.04207">
        <ele>619</ele>
        <time>2026-05-26T12:27:01.000Z</time>
      </trkpt>
      <trkpt lat="44.65606" lon="5.04207">
        <ele>619</ele>
        <time>2026-05-26T12:27:02.000Z</time>
      </trkpt>
      <trkpt lat="44.65605" lon="5.04207">
        <ele>620</ele>
        <time>2026-05-26T12:27:03.000Z</time>
      </trkpt>
      <trkpt lat="44.65604" lon="5.04206">
        <ele>620</ele>
        <time>2026-05-26T12:27:04.000Z</time>
      </trkpt>
      <trkpt lat="44.65604" lon="5.04205">
        <ele>621</ele>
        <time>2026-05-26T12:27:05.000Z</time>
      </trkpt>
      <trkpt lat="44.65603" lon="5.04205">
        <ele>622</ele>
        <time>2026-05-26T12:27:06.000Z</time>
      </trkpt>
      <trkpt lat="44.65602" lon="5.04205">
        <ele>622</ele>
        <time>2026-05-26T12:27:07.000Z</time>
      </trkpt>
      <trkpt lat="44.65602" lon="5.04204">
        <ele>622</ele>
        <time>2026-05-26T12:27:08.000Z</time>
      </trkpt>
      <trkpt lat="44.65602" lon="5.04204">
        <ele>622</ele>
        <time>2026-05-26T12:27:09.000Z</time>
      </trkpt>
      <trkpt lat="44.65602" lon="5.04204">
        <ele>622</ele>
        <time>2026-05-26T12:27:10.000Z</time>
      </trkpt>
      <trkpt lat="44.65602" lon="5.04204">
        <ele>622</ele>
        <time>2026-05-26T12:27:11.000Z</time>
      </trkpt>
      <trkpt lat="44.65601" lon="5.04203">
        <ele>621</ele>
        <time>2026-05-26T12:27:12.000Z</time>
      </trkpt>
      <trkpt lat="44.656" lon="5.04205">
        <ele>621</ele>
        <time>2026-05-26T12:27:13.000Z</time>
      </trkpt>
      <trkpt lat="44.65598" lon="5.04207">
        <ele>621</ele>
        <time>2026-05-26T12:27:14.000Z</time>
      </trkpt>
      <trkpt lat="44.65597" lon="5.04208">
        <ele>621</ele>
        <time>2026-05-26T12:27:15.000Z</time>
      </trkpt>
      <trkpt lat="44.65597" lon="5.04209">
        <ele>620</ele>
        <time>2026-05-26T12:27:16.000Z</time>
      </trkpt>
      <trkpt lat="44.65596" lon="5.0421">
        <ele>621</ele>
        <time>2026-05-26T12:27:17.000Z</time>
      </trkpt>
      <trkpt lat="44.65594" lon="5.0421">
        <ele>620</ele>
        <time>2026-05-26T12:27:18.000Z</time>
      </trkpt>
      <trkpt lat="44.65593" lon="5.04211">
        <ele>620</ele>
        <time>2026-05-26T12:27:19.000Z</time>
      </trkpt>
      <trkpt lat="44.65592" lon="5.04212">
        <ele>621</ele>
        <time>2026-05-26T12:27:20.000Z</time>
      </trkpt>
      <trkpt lat="44.65591" lon="5.04213">
        <ele>621</ele>
        <time>2026-05-26T12:27:21.000Z</time>
      </trkpt>
      <trkpt lat="44.65591" lon="5.04213">
        <ele>622</ele>
        <time>2026-05-26T12:27:22.000Z</time>
      </trkpt>
      <trkpt lat="44.6559" lon="5.04214">
        <ele>621</ele>
        <time>2026-05-26T12:27:23.000Z</time>
      </trkpt>
      <trkpt lat="44.65588" lon="5.04214">
        <ele>620</ele>
        <time>2026-05-26T12:27:24.000Z</time>
      </trkpt>
      <trkpt lat="44.65587" lon="5.04214">
        <ele>621</ele>
        <time>2026-05-26T12:27:25.000Z</time>
      </trkpt>
      <trkpt lat="44.65586" lon="5.04216">
        <ele>621</ele>
        <time>2026-05-26T12:27:26.000Z</time>
      </trkpt>
      <trkpt lat="44.65585" lon="5.04216">
        <ele>621</ele>
        <time>2026-05-26T12:27:27.000Z</time>
      </trkpt>
      <trkpt lat="44.65583" lon="5.04215">
        <ele>621</ele>
        <time>2026-05-26T12:27:28.000Z</time>
      </trkpt>
      <trkpt lat="44.65582" lon="5.04215">
        <ele>620</ele>
        <time>2026-05-26T12:27:29.000Z</time>
      </trkpt>
      <trkpt lat="44.65581" lon="5.04215">
        <ele>620</ele>
        <time>2026-05-26T12:27:30.000Z</time>
      </trkpt>
      <trkpt lat="44.6558" lon="5.04216">
        <ele>620</ele>
        <time>2026-05-26T12:27:31.000Z</time>
      </trkpt>
      <trkpt lat="44.65579" lon="5.04215">
        <ele>620</ele>
        <time>2026-05-26T12:27:32.000Z</time>
      </trkpt>
      <trkpt lat="44.65578" lon="5.04215">
        <ele>620</ele>
        <time>2026-05-26T12:27:33.000Z</time>
      </trkpt>
      <trkpt lat="44.65577" lon="5.04215">
        <ele>620</ele>
        <time>2026-05-26T12:27:34.000Z</time>
      </trkpt>
      <trkpt lat="44.65576" lon="5.04215">
        <ele>619</ele>
        <time>2026-05-26T12:27:35.000Z</time>
      </trkpt>
      <trkpt lat="44.65575" lon="5.04215">
        <ele>619</ele>
        <time>2026-05-26T12:27:36.000Z</time>
      </trkpt>
      <trkpt lat="44.65575" lon="5.04215">
        <ele>619</ele>
        <time>2026-05-26T12:27:37.000Z</time>
      </trkpt>
      <trkpt lat="44.65575" lon="5.04215">
        <ele>619</ele>
        <time>2026-05-26T12:27:38.000Z</time>
      </trkpt>
      <trkpt lat="44.6557" lon="5.04215">
        <ele>620</ele>
        <time>2026-05-26T12:27:39.000Z</time>
      </trkpt>
      <trkpt lat="44.65568" lon="5.04215">
        <ele>621</ele>
        <time>2026-05-26T12:27:40.000Z</time>
      </trkpt>
      <trkpt lat="44.65568" lon="5.04216">
        <ele>622</ele>
        <time>2026-05-26T12:27:41.000Z</time>
      </trkpt>
      <trkpt lat="44.65567" lon="5.04216">
        <ele>623</ele>
        <time>2026-05-26T12:27:42.000Z</time>
      </trkpt>
      <trkpt lat="44.65566" lon="5.04217">
        <ele>624</ele>
        <time>2026-05-26T12:27:43.000Z</time>
      </trkpt>
      <trkpt lat="44.65564" lon="5.04216">
        <ele>624</ele>
        <time>2026-05-26T12:27:44.000Z</time>
      </trkpt>
      <trkpt lat="44.65563" lon="5.04217">
        <ele>625</ele>
        <time>2026-05-26T12:27:45.000Z</time>
      </trkpt>
      <trkpt lat="44.65562" lon="5.04217">
        <ele>625</ele>
        <time>2026-05-26T12:27:46.000Z</time>
      </trkpt>
      <trkpt lat="44.65561" lon="5.04216">
        <ele>625</ele>
        <time>2026-05-26T12:27:47.000Z</time>
      </trkpt>
      <trkpt lat="44.65561" lon="5.04216">
        <ele>626</ele>
        <time>2026-05-26T12:27:48.000Z</time>
      </trkpt>
      <trkpt lat="44.6556" lon="5.04218">
        <ele>626</ele>
        <time>2026-05-26T12:27:49.000Z</time>
      </trkpt>
      <trkpt lat="44.6556" lon="5.04218">
        <ele>626</ele>
        <time>2026-05-26T12:27:50.000Z</time>
      </trkpt>
      <trkpt lat="44.65558" lon="5.04218">
        <ele>626</ele>
        <time>2026-05-26T12:27:51.000Z</time>
      </trkpt>
      <trkpt lat="44.65558" lon="5.04219">
        <ele>624</ele>
        <time>2026-05-26T12:27:52.000Z</time>
      </trkpt>
      <trkpt lat="44.65558" lon="5.04219">
        <ele>624</ele>
        <time>2026-05-26T12:27:53.000Z</time>
      </trkpt>
      <trkpt lat="44.65556" lon="5.04219">
        <ele>623</ele>
        <time>2026-05-26T12:27:54.000Z</time>
      </trkpt>
      <trkpt lat="44.65555" lon="5.0422">
        <ele>624</ele>
        <time>2026-05-26T12:27:55.000Z</time>
      </trkpt>
      <trkpt lat="44.65555" lon="5.04221">
        <ele>623</ele>
        <time>2026-05-26T12:27:56.000Z</time>
      </trkpt>
      <trkpt lat="44.65554" lon="5.04222">
        <ele>624</ele>
        <time>2026-05-26T12:27:57.000Z</time>
      </trkpt>
      <trkpt lat="44.65553" lon="5.04223">
        <ele>624</ele>
        <time>2026-05-26T12:27:58.000Z</time>
      </trkpt>
      <trkpt lat="44.65552" lon="5.04224">
        <ele>623</ele>
        <time>2026-05-26T12:27:59.000Z</time>
      </trkpt>
      <trkpt lat="44.65552" lon="5.04225">
        <ele>622</ele>
        <time>2026-05-26T12:28:00.000Z</time>
      </trkpt>
      <trkpt lat="44.6555" lon="5.04226">
        <ele>621</ele>
        <time>2026-05-26T12:28:01.000Z</time>
      </trkpt>
      <trkpt lat="44.65549" lon="5.04227">
        <ele>621</ele>
        <time>2026-05-26T12:28:02.000Z</time>
      </trkpt>
      <trkpt lat="44.65548" lon="5.04229">
        <ele>620</ele>
        <time>2026-05-26T12:28:03.000Z</time>
      </trkpt>
      <trkpt lat="44.65548" lon="5.04231">
        <ele>619</ele>
        <time>2026-05-26T12:28:04.000Z</time>
      </trkpt>
      <trkpt lat="44.65547" lon="5.04232">
        <ele>618</ele>
        <time>2026-05-26T12:28:05.000Z</time>
      </trkpt>
      <trkpt lat="44.65546" lon="5.04234">
        <ele>618</ele>
        <time>2026-05-26T12:28:06.000Z</time>
      </trkpt>
      <trkpt lat="44.65544" lon="5.04235">
        <ele>618</ele>
        <time>2026-05-26T12:28:07.000Z</time>
      </trkpt>
      <trkpt lat="44.65543" lon="5.04236">
        <ele>618</ele>
        <time>2026-05-26T12:28:08.000Z</time>
      </trkpt>
      <trkpt lat="44.65543" lon="5.04237">
        <ele>618</ele>
        <time>2026-05-26T12:28:09.000Z</time>
      </trkpt>
      <trkpt lat="44.65542" lon="5.04238">
        <ele>619</ele>
        <time>2026-05-26T12:28:10.000Z</time>
      </trkpt>
      <trkpt lat="44.65542" lon="5.04239">
        <ele>618</ele>
        <time>2026-05-26T12:28:11.000Z</time>
      </trkpt>
      <trkpt lat="44.65541" lon="5.04241">
        <ele>618</ele>
        <time>2026-05-26T12:28:12.000Z</time>
      </trkpt>
      <trkpt lat="44.6554" lon="5.04242">
        <ele>617</ele>
        <time>2026-05-26T12:28:13.000Z</time>
      </trkpt>
      <trkpt lat="44.6554" lon="5.04243">
        <ele>617</ele>
        <time>2026-05-26T12:28:14.000Z</time>
      </trkpt>
      <trkpt lat="44.6554" lon="5.04243">
        <ele>616</ele>
        <time>2026-05-26T12:28:15.000Z</time>
      </trkpt>
      <trkpt lat="44.65538" lon="5.04243">
        <ele>615</ele>
        <time>2026-05-26T12:28:16.000Z</time>
      </trkpt>
      <trkpt lat="44.65537" lon="5.04244">
        <ele>616</ele>
        <time>2026-05-26T12:28:17.000Z</time>
      </trkpt>
      <trkpt lat="44.65536" lon="5.04245">
        <ele>615</ele>
        <time>2026-05-26T12:28:18.000Z</time>
      </trkpt>
      <trkpt lat="44.65535" lon="5.04246">
        <ele>615</ele>
        <time>2026-05-26T12:28:19.000Z</time>
      </trkpt>
      <trkpt lat="44.65533" lon="5.04247">
        <ele>616</ele>
        <time>2026-05-26T12:28:20.000Z</time>
      </trkpt>
      <trkpt lat="44.65532" lon="5.04249">
        <ele>616</ele>
        <time>2026-05-26T12:28:21.000Z</time>
      </trkpt>
      <trkpt lat="44.65531" lon="5.0425">
        <ele>616</ele>
        <time>2026-05-26T12:28:22.000Z</time>
      </trkpt>
      <trkpt lat="44.6553" lon="5.0425">
        <ele>616</ele>
        <time>2026-05-26T12:28:23.000Z</time>
      </trkpt>
      <trkpt lat="44.65529" lon="5.0425">
        <ele>616</ele>
        <time>2026-05-26T12:28:24.000Z</time>
      </trkpt>
      <trkpt lat="44.65528" lon="5.0425">
        <ele>616</ele>
        <time>2026-05-26T12:28:25.000Z</time>
      </trkpt>
      <trkpt lat="44.65527" lon="5.04251">
        <ele>616</ele>
        <time>2026-05-26T12:28:26.000Z</time>
      </trkpt>
      <trkpt lat="44.65526" lon="5.04252">
        <ele>616</ele>
        <time>2026-05-26T12:28:27.000Z</time>
      </trkpt>
      <trkpt lat="44.65525" lon="5.04253">
        <ele>616</ele>
        <time>2026-05-26T12:28:28.000Z</time>
      </trkpt>
      <trkpt lat="44.65524" lon="5.04254">
        <ele>616</ele>
        <time>2026-05-26T12:28:29.000Z</time>
      </trkpt>
      <trkpt lat="44.65523" lon="5.04254">
        <ele>615</ele>
        <time>2026-05-26T12:28:30.000Z</time>
      </trkpt>
      <trkpt lat="44.65522" lon="5.04256">
        <ele>615</ele>
        <time>2026-05-26T12:28:31.000Z</time>
      </trkpt>
      <trkpt lat="44.65521" lon="5.04256">
        <ele>616</ele>
        <time>2026-05-26T12:28:32.000Z</time>
      </trkpt>
      <trkpt lat="44.6552" lon="5.04257">
        <ele>616</ele>
        <time>2026-05-26T12:28:33.000Z</time>
      </trkpt>
      <trkpt lat="44.65519" lon="5.04257">
        <ele>616</ele>
        <time>2026-05-26T12:28:34.000Z</time>
      </trkpt>
      <trkpt lat="44.65518" lon="5.04257">
        <ele>616</ele>
        <time>2026-05-26T12:28:35.000Z</time>
      </trkpt>
      <trkpt lat="44.65518" lon="5.04258">
        <ele>615</ele>
        <time>2026-05-26T12:28:36.000Z</time>
      </trkpt>
      <trkpt lat="44.65516" lon="5.04258">
        <ele>616</ele>
        <time>2026-05-26T12:28:37.000Z</time>
      </trkpt>
      <trkpt lat="44.65515" lon="5.0426">
        <ele>615</ele>
        <time>2026-05-26T12:28:38.000Z</time>
      </trkpt>
      <trkpt lat="44.65515" lon="5.0426">
        <ele>615</ele>
        <time>2026-05-26T12:28:39.000Z</time>
      </trkpt>
      <trkpt lat="44.65515" lon="5.0426">
        <ele>615</ele>
        <time>2026-05-26T12:28:40.000Z</time>
      </trkpt>
      <trkpt lat="44.65515" lon="5.0426">
        <ele>615</ele>
        <time>2026-05-26T12:28:41.000Z</time>
      </trkpt>
      <trkpt lat="44.65513" lon="5.04262">
        <ele>615</ele>
        <time>2026-05-26T12:28:42.000Z</time>
      </trkpt>
      <trkpt lat="44.65511" lon="5.04263">
        <ele>615</ele>
        <time>2026-05-26T12:28:43.000Z</time>
      </trkpt>
      <trkpt lat="44.6551" lon="5.04264">
        <ele>614</ele>
        <time>2026-05-26T12:28:44.000Z</time>
      </trkpt>
      <trkpt lat="44.65509" lon="5.04265">
        <ele>614</ele>
        <time>2026-05-26T12:28:45.000Z</time>
      </trkpt>
      <trkpt lat="44.65508" lon="5.04267">
        <ele>614</ele>
        <time>2026-05-26T12:28:46.000Z</time>
      </trkpt>
      <trkpt lat="44.65508" lon="5.04268">
        <ele>615</ele>
        <time>2026-05-26T12:28:47.000Z</time>
      </trkpt>
      <trkpt lat="44.65507" lon="5.04268">
        <ele>614</ele>
        <time>2026-05-26T12:28:48.000Z</time>
      </trkpt>
      <trkpt lat="44.65506" lon="5.04269">
        <ele>614</ele>
        <time>2026-05-26T12:28:49.000Z</time>
      </trkpt>
      <trkpt lat="44.65504" lon="5.0427">
        <ele>614</ele>
        <time>2026-05-26T12:28:50.000Z</time>
      </trkpt>
      <trkpt lat="44.65503" lon="5.04272">
        <ele>614</ele>
        <time>2026-05-26T12:28:51.000Z</time>
      </trkpt>
      <trkpt lat="44.65502" lon="5.04273">
        <ele>614</ele>
        <time>2026-05-26T12:28:52.000Z</time>
      </trkpt>
      <trkpt lat="44.65501" lon="5.04275">
        <ele>614</ele>
        <time>2026-05-26T12:28:53.000Z</time>
      </trkpt>
      <trkpt lat="44.655" lon="5.04276">
        <ele>613</ele>
        <time>2026-05-26T12:28:54.000Z</time>
      </trkpt>
      <trkpt lat="44.65499" lon="5.04277">
        <ele>614</ele>
        <time>2026-05-26T12:28:55.000Z</time>
      </trkpt>
      <trkpt lat="44.65498" lon="5.04278">
        <ele>613</ele>
        <time>2026-05-26T12:28:56.000Z</time>
      </trkpt>
      <trkpt lat="44.65497" lon="5.04279">
        <ele>612</ele>
        <time>2026-05-26T12:28:57.000Z</time>
      </trkpt>
      <trkpt lat="44.65496" lon="5.04279">
        <ele>612</ele>
        <time>2026-05-26T12:28:58.000Z</time>
      </trkpt>
      <trkpt lat="44.65496" lon="5.04281">
        <ele>612</ele>
        <time>2026-05-26T12:28:59.000Z</time>
      </trkpt>
      <trkpt lat="44.65495" lon="5.04282">
        <ele>612</ele>
        <time>2026-05-26T12:29:00.000Z</time>
      </trkpt>
      <trkpt lat="44.65494" lon="5.04283">
        <ele>611</ele>
        <time>2026-05-26T12:29:01.000Z</time>
      </trkpt>
      <trkpt lat="44.65493" lon="5.04285">
        <ele>611</ele>
        <time>2026-05-26T12:29:02.000Z</time>
      </trkpt>
      <trkpt lat="44.65491" lon="5.04285">
        <ele>610</ele>
        <time>2026-05-26T12:29:03.000Z</time>
      </trkpt>
      <trkpt lat="44.6549" lon="5.04287">
        <ele>611</ele>
        <time>2026-05-26T12:29:04.000Z</time>
      </trkpt>
      <trkpt lat="44.65489" lon="5.04288">
        <ele>609</ele>
        <time>2026-05-26T12:29:05.000Z</time>
      </trkpt>
      <trkpt lat="44.65488" lon="5.04289">
        <ele>609</ele>
        <time>2026-05-26T12:29:06.000Z</time>
      </trkpt>
      <trkpt lat="44.65487" lon="5.04291">
        <ele>609</ele>
        <time>2026-05-26T12:29:07.000Z</time>
      </trkpt>
      <trkpt lat="44.65486" lon="5.04292">
        <ele>609</ele>
        <time>2026-05-26T12:29:08.000Z</time>
      </trkpt>
      <trkpt lat="44.65486" lon="5.04294">
        <ele>610</ele>
        <time>2026-05-26T12:29:09.000Z</time>
      </trkpt>
      <trkpt lat="44.65485" lon="5.04295">
        <ele>610</ele>
        <time>2026-05-26T12:29:10.000Z</time>
      </trkpt>
      <trkpt lat="44.65485" lon="5.04296">
        <ele>610</ele>
        <time>2026-05-26T12:29:11.000Z</time>
      </trkpt>
      <trkpt lat="44.65484" lon="5.04296">
        <ele>610</ele>
        <time>2026-05-26T12:29:12.000Z</time>
      </trkpt>
      <trkpt lat="44.65483" lon="5.04298">
        <ele>611</ele>
        <time>2026-05-26T12:29:13.000Z</time>
      </trkpt>
      <trkpt lat="44.65482" lon="5.043">
        <ele>610</ele>
        <time>2026-05-26T12:29:14.000Z</time>
      </trkpt>
      <trkpt lat="44.65481" lon="5.04301">
        <ele>610</ele>
        <time>2026-05-26T12:29:15.000Z</time>
      </trkpt>
      <trkpt lat="44.65481" lon="5.04302">
        <ele>609</ele>
        <time>2026-05-26T12:29:16.000Z</time>
      </trkpt>
      <trkpt lat="44.6548" lon="5.04304">
        <ele>609</ele>
        <time>2026-05-26T12:29:17.000Z</time>
      </trkpt>
      <trkpt lat="44.65479" lon="5.04306">
        <ele>607</ele>
        <time>2026-05-26T12:29:18.000Z</time>
      </trkpt>
      <trkpt lat="44.65478" lon="5.04308">
        <ele>607</ele>
        <time>2026-05-26T12:29:19.000Z</time>
      </trkpt>
      <trkpt lat="44.65477" lon="5.0431">
        <ele>606</ele>
        <time>2026-05-26T12:29:20.000Z</time>
      </trkpt>
      <trkpt lat="44.65477" lon="5.04312">
        <ele>607</ele>
        <time>2026-05-26T12:29:21.000Z</time>
      </trkpt>
      <trkpt lat="44.65476" lon="5.04313">
        <ele>607</ele>
        <time>2026-05-26T12:29:22.000Z</time>
      </trkpt>
      <trkpt lat="44.65475" lon="5.04315">
        <ele>607</ele>
        <time>2026-05-26T12:29:23.000Z</time>
      </trkpt>
      <trkpt lat="44.65475" lon="5.04317">
        <ele>607</ele>
        <time>2026-05-26T12:29:24.000Z</time>
      </trkpt>
      <trkpt lat="44.65474" lon="5.04319">
        <ele>607</ele>
        <time>2026-05-26T12:29:25.000Z</time>
      </trkpt>
      <trkpt lat="44.65474" lon="5.04321">
        <ele>608</ele>
        <time>2026-05-26T12:29:26.000Z</time>
      </trkpt>
      <trkpt lat="44.65475" lon="5.04322">
        <ele>608</ele>
        <time>2026-05-26T12:29:27.000Z</time>
      </trkpt>
      <trkpt lat="44.65475" lon="5.04322">
        <ele>608</ele>
        <time>2026-05-26T12:29:28.000Z</time>
      </trkpt>
      <trkpt lat="44.65475" lon="5.04325">
        <ele>606</ele>
        <time>2026-05-26T12:29:29.000Z</time>
      </trkpt>
      <trkpt lat="44.65474" lon="5.04327">
        <ele>605</ele>
        <time>2026-05-26T12:29:30.000Z</time>
      </trkpt>
      <trkpt lat="44.65473" lon="5.04328">
        <ele>606</ele>
        <time>2026-05-26T12:29:31.000Z</time>
      </trkpt>
      <trkpt lat="44.65473" lon="5.04331">
        <ele>607</ele>
        <time>2026-05-26T12:29:32.000Z</time>
      </trkpt>
      <trkpt lat="44.65472" lon="5.04332">
        <ele>607</ele>
        <time>2026-05-26T12:29:33.000Z</time>
      </trkpt>
      <trkpt lat="44.65472" lon="5.04334">
        <ele>606</ele>
        <time>2026-05-26T12:29:34.000Z</time>
      </trkpt>
      <trkpt lat="44.65472" lon="5.04335">
        <ele>606</ele>
        <time>2026-05-26T12:29:35.000Z</time>
      </trkpt>
      <trkpt lat="44.65471" lon="5.04336">
        <ele>606</ele>
        <time>2026-05-26T12:29:36.000Z</time>
      </trkpt>
      <trkpt lat="44.6547" lon="5.04337">
        <ele>607</ele>
        <time>2026-05-26T12:29:37.000Z</time>
      </trkpt>
      <trkpt lat="44.65468" lon="5.0434">
        <ele>607</ele>
        <time>2026-05-26T12:29:38.000Z</time>
      </trkpt>
      <trkpt lat="44.65468" lon="5.04341">
        <ele>606</ele>
        <time>2026-05-26T12:29:39.000Z</time>
      </trkpt>
      <trkpt lat="44.65468" lon="5.04343">
        <ele>605</ele>
        <time>2026-05-26T12:29:40.000Z</time>
      </trkpt>
      <trkpt lat="44.65467" lon="5.04344">
        <ele>604</ele>
        <time>2026-05-26T12:29:41.000Z</time>
      </trkpt>
      <trkpt lat="44.65468" lon="5.04345">
        <ele>604</ele>
        <time>2026-05-26T12:29:42.000Z</time>
      </trkpt>
      <trkpt lat="44.65467" lon="5.04347">
        <ele>604</ele>
        <time>2026-05-26T12:29:43.000Z</time>
      </trkpt>
      <trkpt lat="44.65467" lon="5.04349">
        <ele>605</ele>
        <time>2026-05-26T12:29:44.000Z</time>
      </trkpt>
      <trkpt lat="44.65466" lon="5.0435">
        <ele>606</ele>
        <time>2026-05-26T12:29:45.000Z</time>
      </trkpt>
      <trkpt lat="44.65464" lon="5.04351">
        <ele>605</ele>
        <time>2026-05-26T12:29:46.000Z</time>
      </trkpt>
      <trkpt lat="44.65464" lon="5.04353">
        <ele>605</ele>
        <time>2026-05-26T12:29:47.000Z</time>
      </trkpt>
      <trkpt lat="44.65463" lon="5.04355">
        <ele>605</ele>
        <time>2026-05-26T12:29:48.000Z</time>
      </trkpt>
      <trkpt lat="44.65462" lon="5.04356">
        <ele>605</ele>
        <time>2026-05-26T12:29:49.000Z</time>
      </trkpt>
      <trkpt lat="44.65461" lon="5.04358">
        <ele>605</ele>
        <time>2026-05-26T12:29:50.000Z</time>
      </trkpt>
      <trkpt lat="44.65461" lon="5.04359">
        <ele>606</ele>
        <time>2026-05-26T12:29:51.000Z</time>
      </trkpt>
      <trkpt lat="44.6546" lon="5.0436">
        <ele>606</ele>
        <time>2026-05-26T12:29:52.000Z</time>
      </trkpt>
      <trkpt lat="44.65459" lon="5.04361">
        <ele>606</ele>
        <time>2026-05-26T12:29:53.000Z</time>
      </trkpt>
      <trkpt lat="44.65459" lon="5.04362">
        <ele>606</ele>
        <time>2026-05-26T12:29:54.000Z</time>
      </trkpt>
      <trkpt lat="44.65458" lon="5.04364">
        <ele>606</ele>
        <time>2026-05-26T12:29:55.000Z</time>
      </trkpt>
      <trkpt lat="44.65457" lon="5.04365">
        <ele>606</ele>
        <time>2026-05-26T12:29:56.000Z</time>
      </trkpt>
      <trkpt lat="44.65456" lon="5.04365">
        <ele>605</ele>
        <time>2026-05-26T12:29:57.000Z</time>
      </trkpt>
      <trkpt lat="44.65455" lon="5.04366">
        <ele>605</ele>
        <time>2026-05-26T12:29:58.000Z</time>
      </trkpt>
      <trkpt lat="44.65454" lon="5.04367">
        <ele>604</ele>
        <time>2026-05-26T12:29:59.000Z</time>
      </trkpt>
      <trkpt lat="44.65454" lon="5.04368">
        <ele>604</ele>
        <time>2026-05-26T12:30:00.000Z</time>
      </trkpt>
      <trkpt lat="44.65452" lon="5.04369">
        <ele>603</ele>
        <time>2026-05-26T12:30:01.000Z</time>
      </trkpt>
      <trkpt lat="44.65452" lon="5.0437">
        <ele>602</ele>
        <time>2026-05-26T12:30:02.000Z</time>
      </trkpt>
      <trkpt lat="44.65451" lon="5.04372">
        <ele>603</ele>
        <time>2026-05-26T12:30:03.000Z</time>
      </trkpt>
      <trkpt lat="44.6545" lon="5.04373">
        <ele>603</ele>
        <time>2026-05-26T12:30:04.000Z</time>
      </trkpt>
      <trkpt lat="44.65449" lon="5.04375">
        <ele>603</ele>
        <time>2026-05-26T12:30:05.000Z</time>
      </trkpt>
      <trkpt lat="44.65449" lon="5.04377">
        <ele>604</ele>
        <time>2026-05-26T12:30:06.000Z</time>
      </trkpt>
      <trkpt lat="44.65447" lon="5.04379">
        <ele>603</ele>
        <time>2026-05-26T12:30:07.000Z</time>
      </trkpt>
      <trkpt lat="44.65446" lon="5.04381">
        <ele>602</ele>
        <time>2026-05-26T12:30:08.000Z</time>
      </trkpt>
      <trkpt lat="44.65445" lon="5.04382">
        <ele>601</ele>
        <time>2026-05-26T12:30:09.000Z</time>
      </trkpt>
      <trkpt lat="44.65445" lon="5.04384">
        <ele>602</ele>
        <time>2026-05-26T12:30:10.000Z</time>
      </trkpt>
      <trkpt lat="44.65444" lon="5.04386">
        <ele>601</ele>
        <time>2026-05-26T12:30:11.000Z</time>
      </trkpt>
      <trkpt lat="44.65444" lon="5.04387">
        <ele>602</ele>
        <time>2026-05-26T12:30:12.000Z</time>
      </trkpt>
      <trkpt lat="44.65443" lon="5.04389">
        <ele>602</ele>
        <time>2026-05-26T12:30:13.000Z</time>
      </trkpt>
      <trkpt lat="44.65442" lon="5.0439">
        <ele>600</ele>
        <time>2026-05-26T12:30:14.000Z</time>
      </trkpt>
      <trkpt lat="44.65441" lon="5.04392">
        <ele>599</ele>
        <time>2026-05-26T12:30:15.000Z</time>
      </trkpt>
      <trkpt lat="44.6544" lon="5.04394">
        <ele>599</ele>
        <time>2026-05-26T12:30:16.000Z</time>
      </trkpt>
      <trkpt lat="44.6544" lon="5.04395">
        <ele>597</ele>
        <time>2026-05-26T12:30:17.000Z</time>
      </trkpt>
      <trkpt lat="44.65439" lon="5.04396">
        <ele>597</ele>
        <time>2026-05-26T12:30:18.000Z</time>
      </trkpt>
      <trkpt lat="44.65439" lon="5.04398">
        <ele>598</ele>
        <time>2026-05-26T12:30:19.000Z</time>
      </trkpt>
      <trkpt lat="44.65438" lon="5.044">
        <ele>599</ele>
        <time>2026-05-26T12:30:20.000Z</time>
      </trkpt>
      <trkpt lat="44.65436" lon="5.04401">
        <ele>599</ele>
        <time>2026-05-26T12:30:21.000Z</time>
      </trkpt>
      <trkpt lat="44.65436" lon="5.04402">
        <ele>599</ele>
        <time>2026-05-26T12:30:22.000Z</time>
      </trkpt>
      <trkpt lat="44.65435" lon="5.04403">
        <ele>599</ele>
        <time>2026-05-26T12:30:23.000Z</time>
      </trkpt>
      <trkpt lat="44.65434" lon="5.04405">
        <ele>600</ele>
        <time>2026-05-26T12:30:24.000Z</time>
      </trkpt>
      <trkpt lat="44.65434" lon="5.04406">
        <ele>600</ele>
        <time>2026-05-26T12:30:25.000Z</time>
      </trkpt>
      <trkpt lat="44.65433" lon="5.04407">
        <ele>599</ele>
        <time>2026-05-26T12:30:26.000Z</time>
      </trkpt>
      <trkpt lat="44.65432" lon="5.04408">
        <ele>599</ele>
        <time>2026-05-26T12:30:27.000Z</time>
      </trkpt>
      <trkpt lat="44.6543" lon="5.04409">
        <ele>598</ele>
        <time>2026-05-26T12:30:28.000Z</time>
      </trkpt>
      <trkpt lat="44.6543" lon="5.04411">
        <ele>598</ele>
        <time>2026-05-26T12:30:29.000Z</time>
      </trkpt>
      <trkpt lat="44.65429" lon="5.04412">
        <ele>598</ele>
        <time>2026-05-26T12:30:30.000Z</time>
      </trkpt>
      <trkpt lat="44.65429" lon="5.04413">
        <ele>597</ele>
        <time>2026-05-26T12:30:31.000Z</time>
      </trkpt>
      <trkpt lat="44.65429" lon="5.04413">
        <ele>597</ele>
        <time>2026-05-26T12:30:32.000Z</time>
      </trkpt>
      <trkpt lat="44.65429" lon="5.04413">
        <ele>597</ele>
        <time>2026-05-26T12:30:33.000Z</time>
      </trkpt>
      <trkpt lat="44.65429" lon="5.04413">
        <ele>597</ele>
        <time>2026-05-26T12:30:34.000Z</time>
      </trkpt>
      <trkpt lat="44.65429" lon="5.04414">
        <ele>596</ele>
        <time>2026-05-26T12:30:35.000Z</time>
      </trkpt>
      <trkpt lat="44.65429" lon="5.04414">
        <ele>596</ele>
        <time>2026-05-26T12:30:36.000Z</time>
      </trkpt>
      <trkpt lat="44.65429" lon="5.04414">
        <ele>596</ele>
        <time>2026-05-26T12:30:37.000Z</time>
      </trkpt>
      <trkpt lat="44.65429" lon="5.04414">
        <ele>596</ele>
        <time>2026-05-26T12:30:38.000Z</time>
      </trkpt>
      <trkpt lat="44.65429" lon="5.04416">
        <ele>596</ele>
        <time>2026-05-26T12:30:39.000Z</time>
      </trkpt>
      <trkpt lat="44.65429" lon="5.04416">
        <ele>596</ele>
        <time>2026-05-26T12:30:40.000Z</time>
      </trkpt>
      <trkpt lat="44.65429" lon="5.04416">
        <ele>596</ele>
        <time>2026-05-26T12:30:41.000Z</time>
      </trkpt>
      <trkpt lat="44.65429" lon="5.04416">
        <ele>596</ele>
        <time>2026-05-26T12:30:42.000Z</time>
      </trkpt>
      <trkpt lat="44.65429" lon="5.04416">
        <ele>596</ele>
        <time>2026-05-26T12:30:43.000Z</time>
      </trkpt>
      <trkpt lat="44.65429" lon="5.04416">
        <ele>596</ele>
        <time>2026-05-26T12:30:44.000Z</time>
      </trkpt>
      <trkpt lat="44.65429" lon="5.04416">
        <ele>596</ele>
        <time>2026-05-26T12:30:45.000Z</time>
      </trkpt>
      <trkpt lat="44.65429" lon="5.04416">
        <ele>596</ele>
        <time>2026-05-26T12:30:46.000Z</time>
      </trkpt>
      <trkpt lat="44.65429" lon="5.04416">
        <ele>596</ele>
        <time>2026-05-26T12:30:47.000Z</time>
      </trkpt>
      <trkpt lat="44.65428" lon="5.04418">
        <ele>596</ele>
        <time>2026-05-26T12:30:48.000Z</time>
      </trkpt>
      <trkpt lat="44.65427" lon="5.04419">
        <ele>596</ele>
        <time>2026-05-26T12:30:49.000Z</time>
      </trkpt>
      <trkpt lat="44.65428" lon="5.04419">
        <ele>595</ele>
        <time>2026-05-26T12:30:50.000Z</time>
      </trkpt>
      <trkpt lat="44.65427" lon="5.04419">
        <ele>594</ele>
        <time>2026-05-26T12:30:51.000Z</time>
      </trkpt>
      <trkpt lat="44.65427" lon="5.04419">
        <ele>594</ele>
        <time>2026-05-26T12:30:52.000Z</time>
      </trkpt>
      <trkpt lat="44.65426" lon="5.04419">
        <ele>594</ele>
        <time>2026-05-26T12:30:53.000Z</time>
      </trkpt>
      <trkpt lat="44.65425" lon="5.04419">
        <ele>595</ele>
        <time>2026-05-26T12:30:54.000Z</time>
      </trkpt>
      <trkpt lat="44.65424" lon="5.04421">
        <ele>595</ele>
        <time>2026-05-26T12:30:55.000Z</time>
      </trkpt>
      <trkpt lat="44.65424" lon="5.04421">
        <ele>595</ele>
        <time>2026-05-26T12:30:56.000Z</time>
      </trkpt>
      <trkpt lat="44.65424" lon="5.04421">
        <ele>595</ele>
        <time>2026-05-26T12:30:57.000Z</time>
      </trkpt>
      <trkpt lat="44.65422" lon="5.04422">
        <ele>596</ele>
        <time>2026-05-26T12:30:58.000Z</time>
      </trkpt>
      <trkpt lat="44.65422" lon="5.04424">
        <ele>596</ele>
        <time>2026-05-26T12:30:59.000Z</time>
      </trkpt>
      <trkpt lat="44.65421" lon="5.04425">
        <ele>597</ele>
        <time>2026-05-26T12:31:00.000Z</time>
      </trkpt>
      <trkpt lat="44.6542" lon="5.04426">
        <ele>597</ele>
        <time>2026-05-26T12:31:01.000Z</time>
      </trkpt>
      <trkpt lat="44.6542" lon="5.04427">
        <ele>597</ele>
        <time>2026-05-26T12:31:02.000Z</time>
      </trkpt>
      <trkpt lat="44.65419" lon="5.04427">
        <ele>597</ele>
        <time>2026-05-26T12:31:03.000Z</time>
      </trkpt>
      <trkpt lat="44.65418" lon="5.04428">
        <ele>598</ele>
        <time>2026-05-26T12:31:04.000Z</time>
      </trkpt>
      <trkpt lat="44.65417" lon="5.04429">
        <ele>599</ele>
        <time>2026-05-26T12:31:05.000Z</time>
      </trkpt>
      <trkpt lat="44.65417" lon="5.04429">
        <ele>599</ele>
        <time>2026-05-26T12:31:06.000Z</time>
      </trkpt>
      <trkpt lat="44.65418" lon="5.0443">
        <ele>597</ele>
        <time>2026-05-26T12:31:07.000Z</time>
      </trkpt>
      <trkpt lat="44.65417" lon="5.04431">
        <ele>596</ele>
        <time>2026-05-26T12:31:08.000Z</time>
      </trkpt>
      <trkpt lat="44.65417" lon="5.04431">
        <ele>595</ele>
        <time>2026-05-26T12:31:09.000Z</time>
      </trkpt>
      <trkpt lat="44.65416" lon="5.04432">
        <ele>595</ele>
        <time>2026-05-26T12:31:10.000Z</time>
      </trkpt>
      <trkpt lat="44.65415" lon="5.04432">
        <ele>595</ele>
        <time>2026-05-26T12:31:11.000Z</time>
      </trkpt>
      <trkpt lat="44.65414" lon="5.04433">
        <ele>595</ele>
        <time>2026-05-26T12:31:12.000Z</time>
      </trkpt>
      <trkpt lat="44.65414" lon="5.04434">
        <ele>595</ele>
        <time>2026-05-26T12:31:13.000Z</time>
      </trkpt>
      <trkpt lat="44.65412" lon="5.04435">
        <ele>595</ele>
        <time>2026-05-26T12:31:14.000Z</time>
      </trkpt>
      <trkpt lat="44.65412" lon="5.04436">
        <ele>595</ele>
        <time>2026-05-26T12:31:15.000Z</time>
      </trkpt>
      <trkpt lat="44.6541" lon="5.04436">
        <ele>596</ele>
        <time>2026-05-26T12:31:16.000Z</time>
      </trkpt>
      <trkpt lat="44.65409" lon="5.04437">
        <ele>596</ele>
        <time>2026-05-26T12:31:17.000Z</time>
      </trkpt>
      <trkpt lat="44.65409" lon="5.04438">
        <ele>596</ele>
        <time>2026-05-26T12:31:18.000Z</time>
      </trkpt>
      <trkpt lat="44.65408" lon="5.04439">
        <ele>596</ele>
        <time>2026-05-26T12:31:19.000Z</time>
      </trkpt>
      <trkpt lat="44.65407" lon="5.04439">
        <ele>597</ele>
        <time>2026-05-26T12:31:20.000Z</time>
      </trkpt>
      <trkpt lat="44.65407" lon="5.04439">
        <ele>597</ele>
        <time>2026-05-26T12:31:21.000Z</time>
      </trkpt>
      <trkpt lat="44.65406" lon="5.0444">
        <ele>597</ele>
        <time>2026-05-26T12:31:22.000Z</time>
      </trkpt>
      <trkpt lat="44.65405" lon="5.0444">
        <ele>596</ele>
        <time>2026-05-26T12:31:23.000Z</time>
      </trkpt>
      <trkpt lat="44.65404" lon="5.04441">
        <ele>596</ele>
        <time>2026-05-26T12:31:24.000Z</time>
      </trkpt>
      <trkpt lat="44.65403" lon="5.04442">
        <ele>596</ele>
        <time>2026-05-26T12:31:25.000Z</time>
      </trkpt>
      <trkpt lat="44.65403" lon="5.04443">
        <ele>595</ele>
        <time>2026-05-26T12:31:26.000Z</time>
      </trkpt>
      <trkpt lat="44.65401" lon="5.04444">
        <ele>595</ele>
        <time>2026-05-26T12:31:27.000Z</time>
      </trkpt>
      <trkpt lat="44.65401" lon="5.04444">
        <ele>595</ele>
        <time>2026-05-26T12:31:28.000Z</time>
      </trkpt>
      <trkpt lat="44.65401" lon="5.04444">
        <ele>595</ele>
        <time>2026-05-26T12:31:29.000Z</time>
      </trkpt>
      <trkpt lat="44.65401" lon="5.04444">
        <ele>595</ele>
        <time>2026-05-26T12:31:30.000Z</time>
      </trkpt>
      <trkpt lat="44.65401" lon="5.04444">
        <ele>595</ele>
        <time>2026-05-26T12:31:31.000Z</time>
      </trkpt>
      <trkpt lat="44.65401" lon="5.04444">
        <ele>595</ele>
        <time>2026-05-26T12:31:32.000Z</time>
      </trkpt>
      <trkpt lat="44.65401" lon="5.04444">
        <ele>595</ele>
        <time>2026-05-26T12:31:33.000Z</time>
      </trkpt>
      <trkpt lat="44.65401" lon="5.04444">
        <ele>595</ele>
        <time>2026-05-26T12:31:34.000Z</time>
      </trkpt>
      <trkpt lat="44.65401" lon="5.04444">
        <ele>595</ele>
        <time>2026-05-26T12:31:35.000Z</time>
      </trkpt>
      <trkpt lat="44.65401" lon="5.04445">
        <ele>595</ele>
        <time>2026-05-26T12:31:36.000Z</time>
      </trkpt>
      <trkpt lat="44.65401" lon="5.04446">
        <ele>595</ele>
        <time>2026-05-26T12:31:37.000Z</time>
      </trkpt>
      <trkpt lat="44.654" lon="5.04446">
        <ele>594</ele>
        <time>2026-05-26T12:31:38.000Z</time>
      </trkpt>
      <trkpt lat="44.65399" lon="5.04447">
        <ele>594</ele>
        <time>2026-05-26T12:31:39.000Z</time>
      </trkpt>
      <trkpt lat="44.65399" lon="5.04447">
        <ele>594</ele>
        <time>2026-05-26T12:31:40.000Z</time>
      </trkpt>
      <trkpt lat="44.65399" lon="5.04448">
        <ele>594</ele>
        <time>2026-05-26T12:31:41.000Z</time>
      </trkpt>
      <trkpt lat="44.65398" lon="5.04449">
        <ele>595</ele>
        <time>2026-05-26T12:31:42.000Z</time>
      </trkpt>
      <trkpt lat="44.65397" lon="5.04451">
        <ele>595</ele>
        <time>2026-05-26T12:31:43.000Z</time>
      </trkpt>
      <trkpt lat="44.65396" lon="5.04452">
        <ele>595</ele>
        <time>2026-05-26T12:31:44.000Z</time>
      </trkpt>
      <trkpt lat="44.65394" lon="5.04452">
        <ele>595</ele>
        <time>2026-05-26T12:31:45.000Z</time>
      </trkpt>
      <trkpt lat="44.65393" lon="5.04452">
        <ele>594</ele>
        <time>2026-05-26T12:31:46.000Z</time>
      </trkpt>
      <trkpt lat="44.65393" lon="5.04453">
        <ele>595</ele>
        <time>2026-05-26T12:31:47.000Z</time>
      </trkpt>
      <trkpt lat="44.65393" lon="5.04453">
        <ele>595</ele>
        <time>2026-05-26T12:31:48.000Z</time>
      </trkpt>
      <trkpt lat="44.65393" lon="5.04453">
        <ele>595</ele>
        <time>2026-05-26T12:31:49.000Z</time>
      </trkpt>
      <trkpt lat="44.65393" lon="5.04453">
        <ele>595</ele>
        <time>2026-05-26T12:31:50.000Z</time>
      </trkpt>
      <trkpt lat="44.65393" lon="5.04453">
        <ele>595</ele>
        <time>2026-05-26T12:31:51.000Z</time>
      </trkpt>
      <trkpt lat="44.65393" lon="5.04453">
        <ele>595</ele>
        <time>2026-05-26T12:31:52.000Z</time>
      </trkpt>
      <trkpt lat="44.65393" lon="5.04453">
        <ele>595</ele>
        <time>2026-05-26T12:31:53.000Z</time>
      </trkpt>
      <trkpt lat="44.65393" lon="5.04453">
        <ele>595</ele>
        <time>2026-05-26T12:31:54.000Z</time>
      </trkpt>
      <trkpt lat="44.65393" lon="5.04453">
        <ele>595</ele>
        <time>2026-05-26T12:31:55.000Z</time>
      </trkpt>
      <trkpt lat="44.65393" lon="5.04453">
        <ele>595</ele>
        <time>2026-05-26T12:31:56.000Z</time>
      </trkpt>
      <trkpt lat="44.65393" lon="5.04453">
        <ele>595</ele>
        <time>2026-05-26T12:31:57.000Z</time>
      </trkpt>
      <trkpt lat="44.65393" lon="5.04453">
        <ele>595</ele>
        <time>2026-05-26T12:31:58.000Z</time>
      </trkpt>
      <trkpt lat="44.65393" lon="5.04453">
        <ele>595</ele>
        <time>2026-05-26T12:31:59.000Z</time>
      </trkpt>
      <trkpt lat="44.65393" lon="5.04453">
        <ele>595</ele>
        <time>2026-05-26T12:32:00.000Z</time>
      </trkpt>
      <trkpt lat="44.65393" lon="5.04453">
        <ele>595</ele>
        <time>2026-05-26T12:32:01.000Z</time>
      </trkpt>
      <trkpt lat="44.65393" lon="5.04453">
        <ele>595</ele>
        <time>2026-05-26T12:32:02.000Z</time>
      </trkpt>
      <trkpt lat="44.65393" lon="5.04453">
        <ele>595</ele>
        <time>2026-05-26T12:32:03.000Z</time>
      </trkpt>
      <trkpt lat="44.65393" lon="5.04454">
        <ele>594</ele>
        <time>2026-05-26T12:32:04.000Z</time>
      </trkpt>
      <trkpt lat="44.65393" lon="5.04454">
        <ele>594</ele>
        <time>2026-05-26T12:32:05.000Z</time>
      </trkpt>
      <trkpt lat="44.65393" lon="5.04454">
        <ele>594</ele>
        <time>2026-05-26T12:32:06.000Z</time>
      </trkpt>
      <trkpt lat="44.65393" lon="5.04454">
        <ele>594</ele>
        <time>2026-05-26T12:32:07.000Z</time>
      </trkpt>
      <trkpt lat="44.65393" lon="5.04454">
        <ele>594</ele>
        <time>2026-05-26T12:32:08.000Z</time>
      </trkpt>
      <trkpt lat="44.65393" lon="5.04454">
        <ele>594</ele>
        <time>2026-05-26T12:32:09.000Z</time>
      </trkpt>
      <trkpt lat="44.65393" lon="5.04454">
        <ele>594</ele>
        <time>2026-05-26T12:32:10.000Z</time>
      </trkpt>
      <trkpt lat="44.65393" lon="5.04454">
        <ele>594</ele>
        <time>2026-05-26T12:32:11.000Z</time>
      </trkpt>
      <trkpt lat="44.65393" lon="5.04454">
        <ele>594</ele>
        <time>2026-05-26T12:32:12.000Z</time>
      </trkpt>
      <trkpt lat="44.65393" lon="5.04454">
        <ele>594</ele>
        <time>2026-05-26T12:32:13.000Z</time>
      </trkpt>
      <trkpt lat="44.65393" lon="5.04454">
        <ele>594</ele>
        <time>2026-05-26T12:32:14.000Z</time>
      </trkpt>
      <trkpt lat="44.65393" lon="5.04454">
        <ele>594</ele>
        <time>2026-05-26T12:32:15.000Z</time>
      </trkpt>
      <trkpt lat="44.65393" lon="5.04454">
        <ele>594</ele>
        <time>2026-05-26T12:32:16.000Z</time>
      </trkpt>
      <trkpt lat="44.65393" lon="5.04454">
        <ele>594</ele>
        <time>2026-05-26T12:32:17.000Z</time>
      </trkpt>
      <trkpt lat="44.65393" lon="5.04454">
        <ele>594</ele>
        <time>2026-05-26T12:32:18.000Z</time>
      </trkpt>
      <trkpt lat="44.65393" lon="5.04454">
        <ele>594</ele>
        <time>2026-05-26T12:32:19.000Z</time>
      </trkpt>
      <trkpt lat="44.65393" lon="5.04454">
        <ele>594</ele>
        <time>2026-05-26T12:32:20.000Z</time>
      </trkpt>
      <trkpt lat="44.65393" lon="5.04454">
        <ele>594</ele>
        <time>2026-05-26T12:32:21.000Z</time>
      </trkpt>
      <trkpt lat="44.65393" lon="5.04454">
        <ele>594</ele>
        <time>2026-05-26T12:32:22.000Z</time>
      </trkpt>
      <trkpt lat="44.65393" lon="5.04454">
        <ele>594</ele>
        <time>2026-05-26T12:32:23.000Z</time>
      </trkpt>
      <trkpt lat="44.65393" lon="5.04454">
        <ele>594</ele>
        <time>2026-05-26T12:32:24.000Z</time>
      </trkpt>
      <trkpt lat="44.65393" lon="5.04454">
        <ele>594</ele>
        <time>2026-05-26T12:32:25.000Z</time>
      </trkpt>
      <trkpt lat="44.65393" lon="5.04454">
        <ele>594</ele>
        <time>2026-05-26T12:32:26.000Z</time>
      </trkpt>
      <trkpt lat="44.65393" lon="5.04454">
        <ele>594</ele>
        <time>2026-05-26T12:32:27.000Z</time>
      </trkpt>
      <trkpt lat="44.65392" lon="5.04457">
        <ele>595</ele>
        <time>2026-05-26T12:32:28.000Z</time>
      </trkpt>
      <trkpt lat="44.65392" lon="5.04457">
        <ele>595</ele>
        <time>2026-05-26T12:32:29.000Z</time>
      </trkpt>
      <trkpt lat="44.65391" lon="5.04456">
        <ele>596</ele>
        <time>2026-05-26T12:32:30.000Z</time>
      </trkpt>
      <trkpt lat="44.6539" lon="5.04456">
        <ele>596</ele>
        <time>2026-05-26T12:32:31.000Z</time>
      </trkpt>
      <trkpt lat="44.6539" lon="5.04456">
        <ele>596</ele>
        <time>2026-05-26T12:32:32.000Z</time>
      </trkpt>
      <trkpt lat="44.6539" lon="5.04456">
        <ele>596</ele>
        <time>2026-05-26T12:32:33.000Z</time>
      </trkpt>
      <trkpt lat="44.6539" lon="5.04456">
        <ele>596</ele>
        <time>2026-05-26T12:32:34.000Z</time>
      </trkpt>
      <trkpt lat="44.6539" lon="5.04456">
        <ele>596</ele>
        <time>2026-05-26T12:32:35.000Z</time>
      </trkpt>
      <trkpt lat="44.6539" lon="5.04456">
        <ele>596</ele>
        <time>2026-05-26T12:32:36.000Z</time>
      </trkpt>
      <trkpt lat="44.6539" lon="5.04456">
        <ele>596</ele>
        <time>2026-05-26T12:32:37.000Z</time>
      </trkpt>
      <trkpt lat="44.6539" lon="5.04456">
        <ele>596</ele>
        <time>2026-05-26T12:32:38.000Z</time>
      </trkpt>
      <trkpt lat="44.6539" lon="5.04456">
        <ele>596</ele>
        <time>2026-05-26T12:32:39.000Z</time>
      </trkpt>
      <trkpt lat="44.6539" lon="5.04456">
        <ele>596</ele>
        <time>2026-05-26T12:32:40.000Z</time>
      </trkpt>
      <trkpt lat="44.6539" lon="5.04456">
        <ele>596</ele>
        <time>2026-05-26T12:32:41.000Z</time>
      </trkpt>
      <trkpt lat="44.6539" lon="5.04456">
        <ele>596</ele>
        <time>2026-05-26T12:32:42.000Z</time>
      </trkpt>
      <trkpt lat="44.6539" lon="5.04456">
        <ele>596</ele>
        <time>2026-05-26T12:32:43.000Z</time>
      </trkpt>
      <trkpt lat="44.6539" lon="5.04456">
        <ele>596</ele>
        <time>2026-05-26T12:32:44.000Z</time>
      </trkpt>
      <trkpt lat="44.6539" lon="5.04456">
        <ele>596</ele>
        <time>2026-05-26T12:32:45.000Z</time>
      </trkpt>
      <trkpt lat="44.6539" lon="5.04456">
        <ele>596</ele>
        <time>2026-05-26T12:32:46.000Z</time>
      </trkpt>
      <trkpt lat="44.6539" lon="5.04456">
        <ele>596</ele>
        <time>2026-05-26T12:32:47.000Z</time>
      </trkpt>
      <trkpt lat="44.6539" lon="5.04456">
        <ele>596</ele>
        <time>2026-05-26T12:32:48.000Z</time>
      </trkpt>
      <trkpt lat="44.6539" lon="5.04456">
        <ele>596</ele>
        <time>2026-05-26T12:32:49.000Z</time>
      </trkpt>
      <trkpt lat="44.6539" lon="5.04456">
        <ele>596</ele>
        <time>2026-05-26T12:32:50.000Z</time>
      </trkpt>
      <trkpt lat="44.6539" lon="5.04456">
        <ele>596</ele>
        <time>2026-05-26T12:32:51.000Z</time>
      </trkpt>
      <trkpt lat="44.6539" lon="5.04456">
        <ele>596</ele>
        <time>2026-05-26T12:32:52.000Z</time>
      </trkpt>
      <trkpt lat="44.6539" lon="5.04456">
        <ele>596</ele>
        <time>2026-05-26T12:32:53.000Z</time>
      </trkpt>
      <trkpt lat="44.6539" lon="5.04456">
        <ele>596</ele>
        <time>2026-05-26T12:32:54.000Z</time>
      </trkpt>
      <trkpt lat="44.6539" lon="5.04456">
        <ele>596</ele>
        <time>2026-05-26T12:32:55.000Z</time>
      </trkpt>
      <trkpt lat="44.6539" lon="5.04456">
        <ele>596</ele>
        <time>2026-05-26T12:32:56.000Z</time>
      </trkpt>
      <trkpt lat="44.6539" lon="5.04456">
        <ele>596</ele>
        <time>2026-05-26T12:32:57.000Z</time>
      </trkpt>
      <trkpt lat="44.6539" lon="5.04456">
        <ele>596</ele>
        <time>2026-05-26T12:32:58.000Z</time>
      </trkpt>
      <trkpt lat="44.6539" lon="5.04456">
        <ele>596</ele>
        <time>2026-05-26T12:32:59.000Z</time>
      </trkpt>
      <trkpt lat="44.6539" lon="5.04456">
        <ele>596</ele>
        <time>2026-05-26T12:33:00.000Z</time>
      </trkpt>
      <trkpt lat="44.6539" lon="5.04456">
        <ele>596</ele>
        <time>2026-05-26T12:33:01.000Z</time>
      </trkpt>
      <trkpt lat="44.6539" lon="5.04456">
        <ele>596</ele>
        <time>2026-05-26T12:33:02.000Z</time>
      </trkpt>
      <trkpt lat="44.6539" lon="5.04456">
        <ele>596</ele>
        <time>2026-05-26T12:33:03.000Z</time>
      </trkpt>
      <trkpt lat="44.6539" lon="5.04456">
        <ele>596</ele>
        <time>2026-05-26T12:33:04.000Z</time>
      </trkpt>
      <trkpt lat="44.6539" lon="5.04456">
        <ele>596</ele>
        <time>2026-05-26T12:33:05.000Z</time>
      </trkpt>
      <trkpt lat="44.65388" lon="5.04459">
        <ele>594</ele>
        <time>2026-05-26T12:33:06.000Z</time>
      </trkpt>
      <trkpt lat="44.65388" lon="5.0446">
        <ele>593</ele>
        <time>2026-05-26T12:33:07.000Z</time>
      </trkpt>
      <trkpt lat="44.65387" lon="5.04461">
        <ele>593</ele>
        <time>2026-05-26T12:33:08.000Z</time>
      </trkpt>
      <trkpt lat="44.65386" lon="5.04463">
        <ele>594</ele>
        <time>2026-05-26T12:33:09.000Z</time>
      </trkpt>
      <trkpt lat="44.65385" lon="5.04463">
        <ele>595</ele>
        <time>2026-05-26T12:33:10.000Z</time>
      </trkpt>
      <trkpt lat="44.65384" lon="5.04463">
        <ele>595</ele>
        <time>2026-05-26T12:33:11.000Z</time>
      </trkpt>
      <trkpt lat="44.65384" lon="5.04464">
        <ele>594</ele>
        <time>2026-05-26T12:33:12.000Z</time>
      </trkpt>
      <trkpt lat="44.65384" lon="5.04464">
        <ele>594</ele>
        <time>2026-05-26T12:33:13.000Z</time>
      </trkpt>
      <trkpt lat="44.65384" lon="5.04464">
        <ele>594</ele>
        <time>2026-05-26T12:33:14.000Z</time>
      </trkpt>
      <trkpt lat="44.65384" lon="5.04464">
        <ele>594</ele>
        <time>2026-05-26T12:33:15.000Z</time>
      </trkpt>
      <trkpt lat="44.65384" lon="5.04464">
        <ele>594</ele>
        <time>2026-05-26T12:33:16.000Z</time>
      </trkpt>
      <trkpt lat="44.65383" lon="5.04465">
        <ele>595</ele>
        <time>2026-05-26T12:33:17.000Z</time>
      </trkpt>
      <trkpt lat="44.65383" lon="5.04466">
        <ele>595</ele>
        <time>2026-05-26T12:33:18.000Z</time>
      </trkpt>
      <trkpt lat="44.65382" lon="5.04467">
        <ele>596</ele>
        <time>2026-05-26T12:33:19.000Z</time>
      </trkpt>
      <trkpt lat="44.65381" lon="5.04468">
        <ele>596</ele>
        <time>2026-05-26T12:33:20.000Z</time>
      </trkpt>
      <trkpt lat="44.6538" lon="5.04469">
        <ele>596</ele>
        <time>2026-05-26T12:33:21.000Z</time>
      </trkpt>
      <trkpt lat="44.65379" lon="5.0447">
        <ele>597</ele>
        <time>2026-05-26T12:33:22.000Z</time>
      </trkpt>
      <trkpt lat="44.65379" lon="5.04471">
        <ele>597</ele>
        <time>2026-05-26T12:33:23.000Z</time>
      </trkpt>
      <trkpt lat="44.65378" lon="5.04472">
        <ele>597</ele>
        <time>2026-05-26T12:33:24.000Z</time>
      </trkpt>
      <trkpt lat="44.65377" lon="5.04473">
        <ele>597</ele>
        <time>2026-05-26T12:33:25.000Z</time>
      </trkpt>
      <trkpt lat="44.65376" lon="5.04474">
        <ele>596</ele>
        <time>2026-05-26T12:33:26.000Z</time>
      </trkpt>
      <trkpt lat="44.65376" lon="5.04474">
        <ele>594</ele>
        <time>2026-05-26T12:33:27.000Z</time>
      </trkpt>
      <trkpt lat="44.65375" lon="5.04476">
        <ele>594</ele>
        <time>2026-05-26T12:33:28.000Z</time>
      </trkpt>
      <trkpt lat="44.65375" lon="5.04476">
        <ele>594</ele>
        <time>2026-05-26T12:33:29.000Z</time>
      </trkpt>
      <trkpt lat="44.65374" lon="5.04477">
        <ele>594</ele>
        <time>2026-05-26T12:33:30.000Z</time>
      </trkpt>
      <trkpt lat="44.65374" lon="5.04477">
        <ele>594</ele>
        <time>2026-05-26T12:33:31.000Z</time>
      </trkpt>
      <trkpt lat="44.65374" lon="5.04478">
        <ele>594</ele>
        <time>2026-05-26T12:33:32.000Z</time>
      </trkpt>
      <trkpt lat="44.65374" lon="5.04478">
        <ele>594</ele>
        <time>2026-05-26T12:33:33.000Z</time>
      </trkpt>
      <trkpt lat="44.65374" lon="5.04478">
        <ele>594</ele>
        <time>2026-05-26T12:33:34.000Z</time>
      </trkpt>
      <trkpt lat="44.65373" lon="5.0448">
        <ele>593</ele>
        <time>2026-05-26T12:33:35.000Z</time>
      </trkpt>
      <trkpt lat="44.65372" lon="5.04481">
        <ele>593</ele>
        <time>2026-05-26T12:33:36.000Z</time>
      </trkpt>
      <trkpt lat="44.65371" lon="5.04482">
        <ele>593</ele>
        <time>2026-05-26T12:33:37.000Z</time>
      </trkpt>
      <trkpt lat="44.65371" lon="5.04484">
        <ele>593</ele>
        <time>2026-05-26T12:33:38.000Z</time>
      </trkpt>
      <trkpt lat="44.6537" lon="5.04484">
        <ele>592</ele>
        <time>2026-05-26T12:33:39.000Z</time>
      </trkpt>
      <trkpt lat="44.6537" lon="5.04484">
        <ele>592</ele>
        <time>2026-05-26T12:33:40.000Z</time>
      </trkpt>
      <trkpt lat="44.6537" lon="5.04484">
        <ele>592</ele>
        <time>2026-05-26T12:33:41.000Z</time>
      </trkpt>
      <trkpt lat="44.65368" lon="5.04485">
        <ele>592</ele>
        <time>2026-05-26T12:33:42.000Z</time>
      </trkpt>
      <trkpt lat="44.65367" lon="5.04486">
        <ele>592</ele>
        <time>2026-05-26T12:33:43.000Z</time>
      </trkpt>
      <trkpt lat="44.65366" lon="5.04486">
        <ele>592</ele>
        <time>2026-05-26T12:33:44.000Z</time>
      </trkpt>
      <trkpt lat="44.65365" lon="5.04487">
        <ele>592</ele>
        <time>2026-05-26T12:33:45.000Z</time>
      </trkpt>
      <trkpt lat="44.65365" lon="5.04488">
        <ele>592</ele>
        <time>2026-05-26T12:33:46.000Z</time>
      </trkpt>
      <trkpt lat="44.65364" lon="5.04488">
        <ele>592</ele>
        <time>2026-05-26T12:33:47.000Z</time>
      </trkpt>
      <trkpt lat="44.65364" lon="5.04488">
        <ele>592</ele>
        <time>2026-05-26T12:33:48.000Z</time>
      </trkpt>
      <trkpt lat="44.65364" lon="5.04488">
        <ele>592</ele>
        <time>2026-05-26T12:33:49.000Z</time>
      </trkpt>
      <trkpt lat="44.65364" lon="5.04489">
        <ele>592</ele>
        <time>2026-05-26T12:33:50.000Z</time>
      </trkpt>
      <trkpt lat="44.65365" lon="5.0449">
        <ele>592</ele>
        <time>2026-05-26T12:33:51.000Z</time>
      </trkpt>
      <trkpt lat="44.65365" lon="5.0449">
        <ele>592</ele>
        <time>2026-05-26T12:33:52.000Z</time>
      </trkpt>
      <trkpt lat="44.65365" lon="5.0449">
        <ele>592</ele>
        <time>2026-05-26T12:33:53.000Z</time>
      </trkpt>
      <trkpt lat="44.65365" lon="5.0449">
        <ele>592</ele>
        <time>2026-05-26T12:33:54.000Z</time>
      </trkpt>
      <trkpt lat="44.65365" lon="5.0449">
        <ele>592</ele>
        <time>2026-05-26T12:33:55.000Z</time>
      </trkpt>
      <trkpt lat="44.65365" lon="5.0449">
        <ele>592</ele>
        <time>2026-05-26T12:33:56.000Z</time>
      </trkpt>
      <trkpt lat="44.65365" lon="5.0449">
        <ele>592</ele>
        <time>2026-05-26T12:33:57.000Z</time>
      </trkpt>
      <trkpt lat="44.65365" lon="5.0449">
        <ele>592</ele>
        <time>2026-05-26T12:33:58.000Z</time>
      </trkpt>
      <trkpt lat="44.65365" lon="5.0449">
        <ele>592</ele>
        <time>2026-05-26T12:33:59.000Z</time>
      </trkpt>
      <trkpt lat="44.65364" lon="5.04491">
        <ele>592</ele>
        <time>2026-05-26T12:34:00.000Z</time>
      </trkpt>
      <trkpt lat="44.65364" lon="5.04492">
        <ele>592</ele>
        <time>2026-05-26T12:34:01.000Z</time>
      </trkpt>
      <trkpt lat="44.65364" lon="5.04494">
        <ele>592</ele>
        <time>2026-05-26T12:34:02.000Z</time>
      </trkpt>
      <trkpt lat="44.65363" lon="5.04496">
        <ele>591</ele>
        <time>2026-05-26T12:34:03.000Z</time>
      </trkpt>
      <trkpt lat="44.65363" lon="5.04498">
        <ele>591</ele>
        <time>2026-05-26T12:34:04.000Z</time>
      </trkpt>
      <trkpt lat="44.65363" lon="5.04499">
        <ele>591</ele>
        <time>2026-05-26T12:34:05.000Z</time>
      </trkpt>
      <trkpt lat="44.65363" lon="5.04501">
        <ele>592</ele>
        <time>2026-05-26T12:34:06.000Z</time>
      </trkpt>
      <trkpt lat="44.65363" lon="5.04503">
        <ele>592</ele>
        <time>2026-05-26T12:34:07.000Z</time>
      </trkpt>
      <trkpt lat="44.65363" lon="5.04504">
        <ele>591</ele>
        <time>2026-05-26T12:34:08.000Z</time>
      </trkpt>
      <trkpt lat="44.65363" lon="5.04506">
        <ele>591</ele>
        <time>2026-05-26T12:34:09.000Z</time>
      </trkpt>
      <trkpt lat="44.65363" lon="5.04508">
        <ele>591</ele>
        <time>2026-05-26T12:34:10.000Z</time>
      </trkpt>
      <trkpt lat="44.65363" lon="5.0451">
        <ele>591</ele>
        <time>2026-05-26T12:34:11.000Z</time>
      </trkpt>
      <trkpt lat="44.65362" lon="5.04511">
        <ele>592</ele>
        <time>2026-05-26T12:34:12.000Z</time>
      </trkpt>
      <trkpt lat="44.65362" lon="5.04513">
        <ele>592</ele>
        <time>2026-05-26T12:34:13.000Z</time>
      </trkpt>
      <trkpt lat="44.65363" lon="5.04514">
        <ele>591</ele>
        <time>2026-05-26T12:34:14.000Z</time>
      </trkpt>
      <trkpt lat="44.65364" lon="5.04515">
        <ele>590</ele>
        <time>2026-05-26T12:34:15.000Z</time>
      </trkpt>
      <trkpt lat="44.65364" lon="5.04515">
        <ele>589</ele>
        <time>2026-05-26T12:34:16.000Z</time>
      </trkpt>
      <trkpt lat="44.65364" lon="5.04516">
        <ele>589</ele>
        <time>2026-05-26T12:34:17.000Z</time>
      </trkpt>
      <trkpt lat="44.65364" lon="5.04516">
        <ele>589</ele>
        <time>2026-05-26T12:34:18.000Z</time>
      </trkpt>
      <trkpt lat="44.65364" lon="5.04516">
        <ele>589</ele>
        <time>2026-05-26T12:34:19.000Z</time>
      </trkpt>
      <trkpt lat="44.65364" lon="5.0452">
        <ele>590</ele>
        <time>2026-05-26T12:34:20.000Z</time>
      </trkpt>
      <trkpt lat="44.65363" lon="5.04521">
        <ele>590</ele>
        <time>2026-05-26T12:34:21.000Z</time>
      </trkpt>
      <trkpt lat="44.65363" lon="5.04522">
        <ele>590</ele>
        <time>2026-05-26T12:34:22.000Z</time>
      </trkpt>
      <trkpt lat="44.65363" lon="5.04523">
        <ele>590</ele>
        <time>2026-05-26T12:34:23.000Z</time>
      </trkpt>
      <trkpt lat="44.65363" lon="5.04525">
        <ele>589</ele>
        <time>2026-05-26T12:34:24.000Z</time>
      </trkpt>
      <trkpt lat="44.65363" lon="5.04527">
        <ele>589</ele>
        <time>2026-05-26T12:34:25.000Z</time>
      </trkpt>
      <trkpt lat="44.65363" lon="5.04528">
        <ele>589</ele>
        <time>2026-05-26T12:34:26.000Z</time>
      </trkpt>
      <trkpt lat="44.65363" lon="5.04528">
        <ele>589</ele>
        <time>2026-05-26T12:34:27.000Z</time>
      </trkpt>
      <trkpt lat="44.65363" lon="5.04528">
        <ele>589</ele>
        <time>2026-05-26T12:34:28.000Z</time>
      </trkpt>
      <trkpt lat="44.65362" lon="5.04527">
        <ele>589</ele>
        <time>2026-05-26T12:34:29.000Z</time>
      </trkpt>
      <trkpt lat="44.65362" lon="5.04526">
        <ele>589</ele>
        <time>2026-05-26T12:34:30.000Z</time>
      </trkpt>
      <trkpt lat="44.65363" lon="5.04524">
        <ele>590</ele>
        <time>2026-05-26T12:34:31.000Z</time>
      </trkpt>
      <trkpt lat="44.65363" lon="5.04523">
        <ele>591</ele>
        <time>2026-05-26T12:34:32.000Z</time>
      </trkpt>
      <trkpt lat="44.65363" lon="5.04522">
        <ele>590</ele>
        <time>2026-05-26T12:34:33.000Z</time>
      </trkpt>
      <trkpt lat="44.65363" lon="5.0452">
        <ele>590</ele>
        <time>2026-05-26T12:34:34.000Z</time>
      </trkpt>
      <trkpt lat="44.65363" lon="5.04519">
        <ele>591</ele>
        <time>2026-05-26T12:34:35.000Z</time>
      </trkpt>
      <trkpt lat="44.65363" lon="5.04517">
        <ele>591</ele>
        <time>2026-05-26T12:34:36.000Z</time>
      </trkpt>
      <trkpt lat="44.65363" lon="5.04516">
        <ele>591</ele>
        <time>2026-05-26T12:34:37.000Z</time>
      </trkpt>
      <trkpt lat="44.65363" lon="5.04515">
        <ele>592</ele>
        <time>2026-05-26T12:34:38.000Z</time>
      </trkpt>
      <trkpt lat="44.65363" lon="5.04513">
        <ele>592</ele>
        <time>2026-05-26T12:34:39.000Z</time>
      </trkpt>
      <trkpt lat="44.65364" lon="5.04511">
        <ele>591</ele>
        <time>2026-05-26T12:34:40.000Z</time>
      </trkpt>
      <trkpt lat="44.65364" lon="5.0451">
        <ele>591</ele>
        <time>2026-05-26T12:34:41.000Z</time>
      </trkpt>
      <trkpt lat="44.65363" lon="5.04508">
        <ele>591</ele>
        <time>2026-05-26T12:34:42.000Z</time>
      </trkpt>
      <trkpt lat="44.65363" lon="5.04507">
        <ele>591</ele>
        <time>2026-05-26T12:34:43.000Z</time>
      </trkpt>
      <trkpt lat="44.65364" lon="5.04506">
        <ele>591</ele>
        <time>2026-05-26T12:34:44.000Z</time>
      </trkpt>
      <trkpt lat="44.65364" lon="5.04505">
        <ele>591</ele>
        <time>2026-05-26T12:34:45.000Z</time>
      </trkpt>
      <trkpt lat="44.65364" lon="5.04504">
        <ele>591</ele>
        <time>2026-05-26T12:34:46.000Z</time>
      </trkpt>
      <trkpt lat="44.65363" lon="5.04502">
        <ele>591</ele>
        <time>2026-05-26T12:34:47.000Z</time>
      </trkpt>
      <trkpt lat="44.65363" lon="5.04501">
        <ele>592</ele>
        <time>2026-05-26T12:34:48.000Z</time>
      </trkpt>
      <trkpt lat="44.65364" lon="5.045">
        <ele>591</ele>
        <time>2026-05-26T12:34:49.000Z</time>
      </trkpt>
      <trkpt lat="44.65364" lon="5.04498">
        <ele>591</ele>
        <time>2026-05-26T12:34:50.000Z</time>
      </trkpt>
      <trkpt lat="44.65365" lon="5.04497">
        <ele>591</ele>
        <time>2026-05-26T12:34:51.000Z</time>
      </trkpt>
      <trkpt lat="44.65365" lon="5.04495">
        <ele>590</ele>
        <time>2026-05-26T12:34:52.000Z</time>
      </trkpt>
      <trkpt lat="44.65365" lon="5.04494">
        <ele>590</ele>
        <time>2026-05-26T12:34:53.000Z</time>
      </trkpt>
      <trkpt lat="44.65365" lon="5.04492">
        <ele>590</ele>
        <time>2026-05-26T12:34:54.000Z</time>
      </trkpt>
      <trkpt lat="44.65365" lon="5.04492">
        <ele>591</ele>
        <time>2026-05-26T12:34:55.000Z</time>
      </trkpt>
      <trkpt lat="44.65365" lon="5.0449">
        <ele>592</ele>
        <time>2026-05-26T12:34:56.000Z</time>
      </trkpt>
      <trkpt lat="44.65365" lon="5.0449">
        <ele>592</ele>
        <time>2026-05-26T12:34:57.000Z</time>
      </trkpt>
      <trkpt lat="44.65365" lon="5.04489">
        <ele>592</ele>
        <time>2026-05-26T12:34:58.000Z</time>
      </trkpt>
      <trkpt lat="44.65365" lon="5.04489">
        <ele>592</ele>
        <time>2026-05-26T12:34:59.000Z</time>
      </trkpt>
      <trkpt lat="44.65365" lon="5.04487">
        <ele>592</ele>
        <time>2026-05-26T12:35:00.000Z</time>
      </trkpt>
      <trkpt lat="44.65365" lon="5.04486">
        <ele>592</ele>
        <time>2026-05-26T12:35:01.000Z</time>
      </trkpt>
      <trkpt lat="44.65364" lon="5.04484">
        <ele>592</ele>
        <time>2026-05-26T12:35:02.000Z</time>
      </trkpt>
      <trkpt lat="44.65363" lon="5.04482">
        <ele>592</ele>
        <time>2026-05-26T12:35:03.000Z</time>
      </trkpt>
      <trkpt lat="44.65363" lon="5.04481">
        <ele>592</ele>
        <time>2026-05-26T12:35:04.000Z</time>
      </trkpt>
      <trkpt lat="44.65362" lon="5.0448">
        <ele>592</ele>
        <time>2026-05-26T12:35:05.000Z</time>
      </trkpt>
      <trkpt lat="44.65363" lon="5.04478">
        <ele>592</ele>
        <time>2026-05-26T12:35:06.000Z</time>
      </trkpt>
      <trkpt lat="44.65363" lon="5.04478">
        <ele>592</ele>
        <time>2026-05-26T12:35:07.000Z</time>
      </trkpt>
      <trkpt lat="44.65363" lon="5.04478">
        <ele>592</ele>
        <time>2026-05-26T12:35:08.000Z</time>
      </trkpt>
      <trkpt lat="44.65363" lon="5.04473">
        <ele>592</ele>
        <time>2026-05-26T12:35:09.000Z</time>
      </trkpt>
      <trkpt lat="44.65363" lon="5.04472">
        <ele>592</ele>
        <time>2026-05-26T12:35:10.000Z</time>
      </trkpt>
      <trkpt lat="44.65363" lon="5.04469">
        <ele>591</ele>
        <time>2026-05-26T12:35:11.000Z</time>
      </trkpt>
      <trkpt lat="44.65362" lon="5.04468">
        <ele>591</ele>
        <time>2026-05-26T12:35:12.000Z</time>
      </trkpt>
      <trkpt lat="44.65362" lon="5.04466">
        <ele>591</ele>
        <time>2026-05-26T12:35:13.000Z</time>
      </trkpt>
      <trkpt lat="44.65361" lon="5.04465">
        <ele>591</ele>
        <time>2026-05-26T12:35:14.000Z</time>
      </trkpt>
      <trkpt lat="44.65362" lon="5.04463">
        <ele>590</ele>
        <time>2026-05-26T12:35:15.000Z</time>
      </trkpt>
      <trkpt lat="44.65362" lon="5.04463">
        <ele>590</ele>
        <time>2026-05-26T12:35:16.000Z</time>
      </trkpt>
      <trkpt lat="44.65362" lon="5.0446">
        <ele>590</ele>
        <time>2026-05-26T12:35:17.000Z</time>
      </trkpt>
      <trkpt lat="44.65363" lon="5.04458">
        <ele>589</ele>
        <time>2026-05-26T12:35:18.000Z</time>
      </trkpt>
      <trkpt lat="44.65363" lon="5.04456">
        <ele>590</ele>
        <time>2026-05-26T12:35:19.000Z</time>
      </trkpt>
      <trkpt lat="44.65364" lon="5.04455">
        <ele>589</ele>
        <time>2026-05-26T12:35:20.000Z</time>
      </trkpt>
      <trkpt lat="44.65364" lon="5.04454">
        <ele>589</ele>
        <time>2026-05-26T12:35:21.000Z</time>
      </trkpt>
      <trkpt lat="44.65365" lon="5.04452">
        <ele>588</ele>
        <time>2026-05-26T12:35:22.000Z</time>
      </trkpt>
      <trkpt lat="44.65364" lon="5.0445">
        <ele>588</ele>
        <time>2026-05-26T12:35:23.000Z</time>
      </trkpt>
      <trkpt lat="44.65364" lon="5.04449">
        <ele>588</ele>
        <time>2026-05-26T12:35:24.000Z</time>
      </trkpt>
      <trkpt lat="44.65364" lon="5.04446">
        <ele>589</ele>
        <time>2026-05-26T12:35:25.000Z</time>
      </trkpt>
      <trkpt lat="44.65365" lon="5.04444">
        <ele>588</ele>
        <time>2026-05-26T12:35:26.000Z</time>
      </trkpt>
      <trkpt lat="44.65365" lon="5.04441">
        <ele>588</ele>
        <time>2026-05-26T12:35:27.000Z</time>
      </trkpt>
      <trkpt lat="44.65364" lon="5.0444">
        <ele>587</ele>
        <time>2026-05-26T12:35:28.000Z</time>
      </trkpt>
      <trkpt lat="44.65364" lon="5.04439">
        <ele>587</ele>
        <time>2026-05-26T12:35:29.000Z</time>
      </trkpt>
      <trkpt lat="44.65364" lon="5.04437">
        <ele>588</ele>
        <time>2026-05-26T12:35:30.000Z</time>
      </trkpt>
      <trkpt lat="44.65364" lon="5.04436">
        <ele>588</ele>
        <time>2026-05-26T12:35:31.000Z</time>
      </trkpt>
      <trkpt lat="44.65363" lon="5.04434">
        <ele>587</ele>
        <time>2026-05-26T12:35:32.000Z</time>
      </trkpt>
      <trkpt lat="44.65364" lon="5.04433">
        <ele>587</ele>
        <time>2026-05-26T12:35:33.000Z</time>
      </trkpt>
      <trkpt lat="44.65364" lon="5.04432">
        <ele>588</ele>
        <time>2026-05-26T12:35:34.000Z</time>
      </trkpt>
      <trkpt lat="44.65364" lon="5.0443">
        <ele>587</ele>
        <time>2026-05-26T12:35:35.000Z</time>
      </trkpt>
      <trkpt lat="44.65364" lon="5.04429">
        <ele>586</ele>
        <time>2026-05-26T12:35:36.000Z</time>
      </trkpt>
      <trkpt lat="44.65364" lon="5.04428">
        <ele>586</ele>
        <time>2026-05-26T12:35:37.000Z</time>
      </trkpt>
      <trkpt lat="44.65364" lon="5.04428">
        <ele>586</ele>
        <time>2026-05-26T12:35:38.000Z</time>
      </trkpt>
      <trkpt lat="44.65364" lon="5.04428">
        <ele>586</ele>
        <time>2026-05-26T12:35:39.000Z</time>
      </trkpt>
      <trkpt lat="44.65363" lon="5.04425">
        <ele>586</ele>
        <time>2026-05-26T12:35:40.000Z</time>
      </trkpt>
      <trkpt lat="44.65363" lon="5.04422">
        <ele>588</ele>
        <time>2026-05-26T12:35:41.000Z</time>
      </trkpt>
      <trkpt lat="44.65364" lon="5.0442">
        <ele>588</ele>
        <time>2026-05-26T12:35:42.000Z</time>
      </trkpt>
      <trkpt lat="44.65364" lon="5.04419">
        <ele>589</ele>
        <time>2026-05-26T12:35:43.000Z</time>
      </trkpt>
      <trkpt lat="44.65364" lon="5.04417">
        <ele>588</ele>
        <time>2026-05-26T12:35:44.000Z</time>
      </trkpt>
      <trkpt lat="44.65365" lon="5.04416">
        <ele>588</ele>
        <time>2026-05-26T12:35:45.000Z</time>
      </trkpt>
      <trkpt lat="44.65365" lon="5.04414">
        <ele>588</ele>
        <time>2026-05-26T12:35:46.000Z</time>
      </trkpt>
      <trkpt lat="44.65365" lon="5.04412">
        <ele>587</ele>
        <time>2026-05-26T12:35:47.000Z</time>
      </trkpt>
      <trkpt lat="44.65365" lon="5.04411">
        <ele>587</ele>
        <time>2026-05-26T12:35:48.000Z</time>
      </trkpt>
      <trkpt lat="44.65365" lon="5.0441">
        <ele>588</ele>
        <time>2026-05-26T12:35:49.000Z</time>
      </trkpt>
      <trkpt lat="44.65365" lon="5.04409">
        <ele>587</ele>
        <time>2026-05-26T12:35:50.000Z</time>
      </trkpt>
      <trkpt lat="44.65366" lon="5.04407">
        <ele>587</ele>
        <time>2026-05-26T12:35:51.000Z</time>
      </trkpt>
      <trkpt lat="44.65366" lon="5.04407">
        <ele>587</ele>
        <time>2026-05-26T12:35:52.000Z</time>
      </trkpt>
      <trkpt lat="44.65366" lon="5.04407">
        <ele>587</ele>
        <time>2026-05-26T12:35:53.000Z</time>
      </trkpt>
      <trkpt lat="44.65366" lon="5.04403">
        <ele>586</ele>
        <time>2026-05-26T12:35:54.000Z</time>
      </trkpt>
      <trkpt lat="44.65367" lon="5.04401">
        <ele>586</ele>
        <time>2026-05-26T12:35:55.000Z</time>
      </trkpt>
      <trkpt lat="44.65367" lon="5.044">
        <ele>585</ele>
        <time>2026-05-26T12:35:56.000Z</time>
      </trkpt>
      <trkpt lat="44.65366" lon="5.04398">
        <ele>584</ele>
        <time>2026-05-26T12:35:57.000Z</time>
      </trkpt>
      <trkpt lat="44.65366" lon="5.04396">
        <ele>583</ele>
        <time>2026-05-26T12:35:58.000Z</time>
      </trkpt>
      <trkpt lat="44.65366" lon="5.04396">
        <ele>583</ele>
        <time>2026-05-26T12:35:59.000Z</time>
      </trkpt>
      <trkpt lat="44.65366" lon="5.04396">
        <ele>583</ele>
        <time>2026-05-26T12:36:00.000Z</time>
      </trkpt>
      <trkpt lat="44.65365" lon="5.04392">
        <ele>583</ele>
        <time>2026-05-26T12:36:01.000Z</time>
      </trkpt>
      <trkpt lat="44.65365" lon="5.04391">
        <ele>582</ele>
        <time>2026-05-26T12:36:02.000Z</time>
      </trkpt>
      <trkpt lat="44.65365" lon="5.0439">
        <ele>583</ele>
        <time>2026-05-26T12:36:03.000Z</time>
      </trkpt>
      <trkpt lat="44.65364" lon="5.04388">
        <ele>582</ele>
        <time>2026-05-26T12:36:04.000Z</time>
      </trkpt>
      <trkpt lat="44.65364" lon="5.04388">
        <ele>582</ele>
        <time>2026-05-26T12:36:05.000Z</time>
      </trkpt>
      <trkpt lat="44.65364" lon="5.04388">
        <ele>582</ele>
        <time>2026-05-26T12:36:06.000Z</time>
      </trkpt>
      <trkpt lat="44.65362" lon="5.04386">
        <ele>580</ele>
        <time>2026-05-26T12:36:07.000Z</time>
      </trkpt>
      <trkpt lat="44.6536" lon="5.04386">
        <ele>579</ele>
        <time>2026-05-26T12:36:08.000Z</time>
      </trkpt>
      <trkpt lat="44.65358" lon="5.04385">
        <ele>578</ele>
        <time>2026-05-26T12:36:09.000Z</time>
      </trkpt>
      <trkpt lat="44.65357" lon="5.04385">
        <ele>578</ele>
        <time>2026-05-26T12:36:10.000Z</time>
      </trkpt>
      <trkpt lat="44.65355" lon="5.04384">
        <ele>578</ele>
        <time>2026-05-26T12:36:11.000Z</time>
      </trkpt>
      <trkpt lat="44.65354" lon="5.04385">
        <ele>577</ele>
        <time>2026-05-26T12:36:12.000Z</time>
      </trkpt>
      <trkpt lat="44.65352" lon="5.04385">
        <ele>576</ele>
        <time>2026-05-26T12:36:13.000Z</time>
      </trkpt>
      <trkpt lat="44.65351" lon="5.04385">
        <ele>576</ele>
        <time>2026-05-26T12:36:14.000Z</time>
      </trkpt>
      <trkpt lat="44.6535" lon="5.04385">
        <ele>575</ele>
        <time>2026-05-26T12:36:15.000Z</time>
      </trkpt>
      <trkpt lat="44.6535" lon="5.04386">
        <ele>575</ele>
        <time>2026-05-26T12:36:16.000Z</time>
      </trkpt>
      <trkpt lat="44.65349" lon="5.04386">
        <ele>574</ele>
        <time>2026-05-26T12:36:17.000Z</time>
      </trkpt>
      <trkpt lat="44.65349" lon="5.04386">
        <ele>574</ele>
        <time>2026-05-26T12:36:18.000Z</time>
      </trkpt>
      <trkpt lat="44.65349" lon="5.04386">
        <ele>574</ele>
        <time>2026-05-26T12:36:19.000Z</time>
      </trkpt>
      <trkpt lat="44.65347" lon="5.04389">
        <ele>574</ele>
        <time>2026-05-26T12:36:20.000Z</time>
      </trkpt>
      <trkpt lat="44.65346" lon="5.0439">
        <ele>574</ele>
        <time>2026-05-26T12:36:21.000Z</time>
      </trkpt>
      <trkpt lat="44.65344" lon="5.04391">
        <ele>574</ele>
        <time>2026-05-26T12:36:22.000Z</time>
      </trkpt>
      <trkpt lat="44.65343" lon="5.04391">
        <ele>574</ele>
        <time>2026-05-26T12:36:23.000Z</time>
      </trkpt>
      <trkpt lat="44.65341" lon="5.04392">
        <ele>574</ele>
        <time>2026-05-26T12:36:24.000Z</time>
      </trkpt>
      <trkpt lat="44.65341" lon="5.04392">
        <ele>574</ele>
        <time>2026-05-26T12:36:25.000Z</time>
      </trkpt>
      <trkpt lat="44.6534" lon="5.04392">
        <ele>573</ele>
        <time>2026-05-26T12:36:26.000Z</time>
      </trkpt>
      <trkpt lat="44.65339" lon="5.04394">
        <ele>573</ele>
        <time>2026-05-26T12:36:27.000Z</time>
      </trkpt>
      <trkpt lat="44.65339" lon="5.04395">
        <ele>573</ele>
        <time>2026-05-26T12:36:28.000Z</time>
      </trkpt>
      <trkpt lat="44.65337" lon="5.04396">
        <ele>573</ele>
        <time>2026-05-26T12:36:29.000Z</time>
      </trkpt>
      <trkpt lat="44.65336" lon="5.04397">
        <ele>573</ele>
        <time>2026-05-26T12:36:30.000Z</time>
      </trkpt>
      <trkpt lat="44.65334" lon="5.04399">
        <ele>573</ele>
        <time>2026-05-26T12:36:31.000Z</time>
      </trkpt>
      <trkpt lat="44.65333" lon="5.04401">
        <ele>572</ele>
        <time>2026-05-26T12:36:32.000Z</time>
      </trkpt>
      <trkpt lat="44.65332" lon="5.04402">
        <ele>572</ele>
        <time>2026-05-26T12:36:33.000Z</time>
      </trkpt>
      <trkpt lat="44.65331" lon="5.04403">
        <ele>572</ele>
        <time>2026-05-26T12:36:34.000Z</time>
      </trkpt>
      <trkpt lat="44.6533" lon="5.04405">
        <ele>571</ele>
        <time>2026-05-26T12:36:35.000Z</time>
      </trkpt>
      <trkpt lat="44.6533" lon="5.04405">
        <ele>570</ele>
        <time>2026-05-26T12:36:36.000Z</time>
      </trkpt>
      <trkpt lat="44.65329" lon="5.04406">
        <ele>570</ele>
        <time>2026-05-26T12:36:37.000Z</time>
      </trkpt>
      <trkpt lat="44.65328" lon="5.04405">
        <ele>569</ele>
        <time>2026-05-26T12:36:38.000Z</time>
      </trkpt>
      <trkpt lat="44.65327" lon="5.04406">
        <ele>568</ele>
        <time>2026-05-26T12:36:39.000Z</time>
      </trkpt>
      <trkpt lat="44.65325" lon="5.04407">
        <ele>569</ele>
        <time>2026-05-26T12:36:40.000Z</time>
      </trkpt>
      <trkpt lat="44.65324" lon="5.04408">
        <ele>569</ele>
        <time>2026-05-26T12:36:41.000Z</time>
      </trkpt>
      <trkpt lat="44.65323" lon="5.04408">
        <ele>569</ele>
        <time>2026-05-26T12:36:42.000Z</time>
      </trkpt>
      <trkpt lat="44.65322" lon="5.04408">
        <ele>569</ele>
        <time>2026-05-26T12:36:43.000Z</time>
      </trkpt>
      <trkpt lat="44.65321" lon="5.04408">
        <ele>569</ele>
        <time>2026-05-26T12:36:44.000Z</time>
      </trkpt>
      <trkpt lat="44.6532" lon="5.04408">
        <ele>568</ele>
        <time>2026-05-26T12:36:45.000Z</time>
      </trkpt>
      <trkpt lat="44.65319" lon="5.04408">
        <ele>569</ele>
        <time>2026-05-26T12:36:46.000Z</time>
      </trkpt>
      <trkpt lat="44.65318" lon="5.04408">
        <ele>570</ele>
        <time>2026-05-26T12:36:47.000Z</time>
      </trkpt>
      <trkpt lat="44.65318" lon="5.04407">
        <ele>570</ele>
        <time>2026-05-26T12:36:48.000Z</time>
      </trkpt>
      <trkpt lat="44.65316" lon="5.04408">
        <ele>570</ele>
        <time>2026-05-26T12:36:49.000Z</time>
      </trkpt>
      <trkpt lat="44.65315" lon="5.04408">
        <ele>569</ele>
        <time>2026-05-26T12:36:50.000Z</time>
      </trkpt>
      <trkpt lat="44.65314" lon="5.04408">
        <ele>569</ele>
        <time>2026-05-26T12:36:51.000Z</time>
      </trkpt>
      <trkpt lat="44.65314" lon="5.04408">
        <ele>568</ele>
        <time>2026-05-26T12:36:52.000Z</time>
      </trkpt>
      <trkpt lat="44.65313" lon="5.04408">
        <ele>567</ele>
        <time>2026-05-26T12:36:53.000Z</time>
      </trkpt>
      <trkpt lat="44.65311" lon="5.04408">
        <ele>566</ele>
        <time>2026-05-26T12:36:54.000Z</time>
      </trkpt>
      <trkpt lat="44.6531" lon="5.04408">
        <ele>566</ele>
        <time>2026-05-26T12:36:55.000Z</time>
      </trkpt>
      <trkpt lat="44.65309" lon="5.04409">
        <ele>566</ele>
        <time>2026-05-26T12:36:56.000Z</time>
      </trkpt>
      <trkpt lat="44.65308" lon="5.0441">
        <ele>565</ele>
        <time>2026-05-26T12:36:57.000Z</time>
      </trkpt>
      <trkpt lat="44.65306" lon="5.04409">
        <ele>565</ele>
        <time>2026-05-26T12:36:58.000Z</time>
      </trkpt>
      <trkpt lat="44.65305" lon="5.04409">
        <ele>565</ele>
        <time>2026-05-26T12:36:59.000Z</time>
      </trkpt>
      <trkpt lat="44.65303" lon="5.04409">
        <ele>564</ele>
        <time>2026-05-26T12:37:00.000Z</time>
      </trkpt>
      <trkpt lat="44.65301" lon="5.04408">
        <ele>564</ele>
        <time>2026-05-26T12:37:01.000Z</time>
      </trkpt>
      <trkpt lat="44.653" lon="5.04409">
        <ele>564</ele>
        <time>2026-05-26T12:37:02.000Z</time>
      </trkpt>
      <trkpt lat="44.65299" lon="5.04409">
        <ele>564</ele>
        <time>2026-05-26T12:37:03.000Z</time>
      </trkpt>
      <trkpt lat="44.65298" lon="5.04409">
        <ele>565</ele>
        <time>2026-05-26T12:37:04.000Z</time>
      </trkpt>
      <trkpt lat="44.65297" lon="5.04409">
        <ele>565</ele>
        <time>2026-05-26T12:37:05.000Z</time>
      </trkpt>
      <trkpt lat="44.65296" lon="5.04411">
        <ele>565</ele>
        <time>2026-05-26T12:37:06.000Z</time>
      </trkpt>
      <trkpt lat="44.65295" lon="5.04412">
        <ele>565</ele>
        <time>2026-05-26T12:37:07.000Z</time>
      </trkpt>
      <trkpt lat="44.65293" lon="5.04413">
        <ele>567</ele>
        <time>2026-05-26T12:37:08.000Z</time>
      </trkpt>
      <trkpt lat="44.65293" lon="5.04415">
        <ele>568</ele>
        <time>2026-05-26T12:37:09.000Z</time>
      </trkpt>
      <trkpt lat="44.65292" lon="5.04415">
        <ele>567</ele>
        <time>2026-05-26T12:37:10.000Z</time>
      </trkpt>
      <trkpt lat="44.65292" lon="5.04416">
        <ele>567</ele>
        <time>2026-05-26T12:37:11.000Z</time>
      </trkpt>
      <trkpt lat="44.65291" lon="5.04416">
        <ele>568</ele>
        <time>2026-05-26T12:37:12.000Z</time>
      </trkpt>
      <trkpt lat="44.65291" lon="5.04416">
        <ele>568</ele>
        <time>2026-05-26T12:37:13.000Z</time>
      </trkpt>
      <trkpt lat="44.65291" lon="5.04416">
        <ele>567</ele>
        <time>2026-05-26T12:37:14.000Z</time>
      </trkpt>
      <trkpt lat="44.65291" lon="5.04416">
        <ele>566</ele>
        <time>2026-05-26T12:37:15.000Z</time>
      </trkpt>
      <trkpt lat="44.65291" lon="5.04417">
        <ele>565</ele>
        <time>2026-05-26T12:37:16.000Z</time>
      </trkpt>
      <trkpt lat="44.6529" lon="5.04418">
        <ele>565</ele>
        <time>2026-05-26T12:37:17.000Z</time>
      </trkpt>
      <trkpt lat="44.65289" lon="5.04418">
        <ele>565</ele>
        <time>2026-05-26T12:37:18.000Z</time>
      </trkpt>
      <trkpt lat="44.65289" lon="5.04418">
        <ele>565</ele>
        <time>2026-05-26T12:37:19.000Z</time>
      </trkpt>
      <trkpt lat="44.65289" lon="5.04417">
        <ele>565</ele>
        <time>2026-05-26T12:37:20.000Z</time>
      </trkpt>
      <trkpt lat="44.65289" lon="5.04417">
        <ele>565</ele>
        <time>2026-05-26T12:37:21.000Z</time>
      </trkpt>
      <trkpt lat="44.65289" lon="5.04416">
        <ele>565</ele>
        <time>2026-05-26T12:37:22.000Z</time>
      </trkpt>
      <trkpt lat="44.65289" lon="5.04417">
        <ele>564</ele>
        <time>2026-05-26T12:37:23.000Z</time>
      </trkpt>
      <trkpt lat="44.65289" lon="5.04417">
        <ele>564</ele>
        <time>2026-05-26T12:37:24.000Z</time>
      </trkpt>
      <trkpt lat="44.65289" lon="5.04417">
        <ele>564</ele>
        <time>2026-05-26T12:37:25.000Z</time>
      </trkpt>
      <trkpt lat="44.65289" lon="5.04417">
        <ele>564</ele>
        <time>2026-05-26T12:37:26.000Z</time>
      </trkpt>
      <trkpt lat="44.65289" lon="5.04417">
        <ele>564</ele>
        <time>2026-05-26T12:37:27.000Z</time>
      </trkpt>
      <trkpt lat="44.65289" lon="5.04417">
        <ele>564</ele>
        <time>2026-05-26T12:37:28.000Z</time>
      </trkpt>
      <trkpt lat="44.65289" lon="5.04417">
        <ele>564</ele>
        <time>2026-05-26T12:37:29.000Z</time>
      </trkpt>
      <trkpt lat="44.65289" lon="5.04417">
        <ele>564</ele>
        <time>2026-05-26T12:37:30.000Z</time>
      </trkpt>
      <trkpt lat="44.65289" lon="5.04417">
        <ele>564</ele>
        <time>2026-05-26T12:37:31.000Z</time>
      </trkpt>
      <trkpt lat="44.65289" lon="5.04417">
        <ele>564</ele>
        <time>2026-05-26T12:37:32.000Z</time>
      </trkpt>
      <trkpt lat="44.65289" lon="5.04417">
        <ele>564</ele>
        <time>2026-05-26T12:37:33.000Z</time>
      </trkpt>
      <trkpt lat="44.65289" lon="5.04417">
        <ele>564</ele>
        <time>2026-05-26T12:37:34.000Z</time>
      </trkpt>
      <trkpt lat="44.65289" lon="5.04417">
        <ele>564</ele>
        <time>2026-05-26T12:37:35.000Z</time>
      </trkpt>
      <trkpt lat="44.65289" lon="5.04417">
        <ele>564</ele>
        <time>2026-05-26T12:37:36.000Z</time>
      </trkpt>
      <trkpt lat="44.65289" lon="5.04417">
        <ele>564</ele>
        <time>2026-05-26T12:37:37.000Z</time>
      </trkpt>
      <trkpt lat="44.65289" lon="5.04417">
        <ele>564</ele>
        <time>2026-05-26T12:37:38.000Z</time>
      </trkpt>
      <trkpt lat="44.65289" lon="5.04417">
        <ele>564</ele>
        <time>2026-05-26T12:37:39.000Z</time>
      </trkpt>
      <trkpt lat="44.65287" lon="5.04419">
        <ele>564</ele>
        <time>2026-05-26T12:37:40.000Z</time>
      </trkpt>
      <trkpt lat="44.65286" lon="5.0442">
        <ele>563</ele>
        <time>2026-05-26T12:37:41.000Z</time>
      </trkpt>
      <trkpt lat="44.65286" lon="5.04422">
        <ele>563</ele>
        <time>2026-05-26T12:37:42.000Z</time>
      </trkpt>
      <trkpt lat="44.65285" lon="5.04423">
        <ele>563</ele>
        <time>2026-05-26T12:37:43.000Z</time>
      </trkpt>
      <trkpt lat="44.65284" lon="5.04424">
        <ele>563</ele>
        <time>2026-05-26T12:37:44.000Z</time>
      </trkpt>
      <trkpt lat="44.65283" lon="5.04425">
        <ele>562</ele>
        <time>2026-05-26T12:37:45.000Z</time>
      </trkpt>
      <trkpt lat="44.65283" lon="5.04426">
        <ele>561</ele>
        <time>2026-05-26T12:37:46.000Z</time>
      </trkpt>
      <trkpt lat="44.65282" lon="5.04427">
        <ele>561</ele>
        <time>2026-05-26T12:37:47.000Z</time>
      </trkpt>
      <trkpt lat="44.65281" lon="5.04429">
        <ele>561</ele>
        <time>2026-05-26T12:37:48.000Z</time>
      </trkpt>
      <trkpt lat="44.6528" lon="5.04429">
        <ele>561</ele>
        <time>2026-05-26T12:37:49.000Z</time>
      </trkpt>
      <trkpt lat="44.65279" lon="5.0443">
        <ele>561</ele>
        <time>2026-05-26T12:37:50.000Z</time>
      </trkpt>
      <trkpt lat="44.65279" lon="5.04431">
        <ele>561</ele>
        <time>2026-05-26T12:37:51.000Z</time>
      </trkpt>
      <trkpt lat="44.65278" lon="5.04432">
        <ele>561</ele>
        <time>2026-05-26T12:37:52.000Z</time>
      </trkpt>
      <trkpt lat="44.65277" lon="5.04433">
        <ele>560</ele>
        <time>2026-05-26T12:37:53.000Z</time>
      </trkpt>
      <trkpt lat="44.65276" lon="5.04434">
        <ele>560</ele>
        <time>2026-05-26T12:37:54.000Z</time>
      </trkpt>
      <trkpt lat="44.65275" lon="5.04435">
        <ele>561</ele>
        <time>2026-05-26T12:37:55.000Z</time>
      </trkpt>
      <trkpt lat="44.65274" lon="5.04436">
        <ele>560</ele>
        <time>2026-05-26T12:37:56.000Z</time>
      </trkpt>
      <trkpt lat="44.65274" lon="5.04437">
        <ele>560</ele>
        <time>2026-05-26T12:37:57.000Z</time>
      </trkpt>
      <trkpt lat="44.65273" lon="5.04438">
        <ele>559</ele>
        <time>2026-05-26T12:37:58.000Z</time>
      </trkpt>
      <trkpt lat="44.65272" lon="5.04438">
        <ele>559</ele>
        <time>2026-05-26T12:37:59.000Z</time>
      </trkpt>
      <trkpt lat="44.65272" lon="5.04438">
        <ele>559</ele>
        <time>2026-05-26T12:38:00.000Z</time>
      </trkpt>
      <trkpt lat="44.65272" lon="5.04438">
        <ele>559</ele>
        <time>2026-05-26T12:38:01.000Z</time>
      </trkpt>
      <trkpt lat="44.6527" lon="5.04438">
        <ele>559</ele>
        <time>2026-05-26T12:38:02.000Z</time>
      </trkpt>
      <trkpt lat="44.65269" lon="5.0444">
        <ele>558</ele>
        <time>2026-05-26T12:38:03.000Z</time>
      </trkpt>
      <trkpt lat="44.65269" lon="5.04441">
        <ele>558</ele>
        <time>2026-05-26T12:38:04.000Z</time>
      </trkpt>
      <trkpt lat="44.65268" lon="5.04442">
        <ele>558</ele>
        <time>2026-05-26T12:38:05.000Z</time>
      </trkpt>
      <trkpt lat="44.65268" lon="5.04442">
        <ele>558</ele>
        <time>2026-05-26T12:38:06.000Z</time>
      </trkpt>
      <trkpt lat="44.65266" lon="5.04444">
        <ele>558</ele>
        <time>2026-05-26T12:38:07.000Z</time>
      </trkpt>
      <trkpt lat="44.65265" lon="5.04446">
        <ele>558</ele>
        <time>2026-05-26T12:38:08.000Z</time>
      </trkpt>
      <trkpt lat="44.65265" lon="5.04447">
        <ele>558</ele>
        <time>2026-05-26T12:38:09.000Z</time>
      </trkpt>
      <trkpt lat="44.65264" lon="5.04449">
        <ele>557</ele>
        <time>2026-05-26T12:38:10.000Z</time>
      </trkpt>
      <trkpt lat="44.65264" lon="5.04449">
        <ele>557</ele>
        <time>2026-05-26T12:38:11.000Z</time>
      </trkpt>
      <trkpt lat="44.65263" lon="5.0445">
        <ele>558</ele>
        <time>2026-05-26T12:38:12.000Z</time>
      </trkpt>
      <trkpt lat="44.65262" lon="5.04451">
        <ele>558</ele>
        <time>2026-05-26T12:38:13.000Z</time>
      </trkpt>
      <trkpt lat="44.65261" lon="5.04452">
        <ele>558</ele>
        <time>2026-05-26T12:38:14.000Z</time>
      </trkpt>
      <trkpt lat="44.6526" lon="5.04453">
        <ele>558</ele>
        <time>2026-05-26T12:38:15.000Z</time>
      </trkpt>
      <trkpt lat="44.6526" lon="5.04455">
        <ele>559</ele>
        <time>2026-05-26T12:38:16.000Z</time>
      </trkpt>
      <trkpt lat="44.65259" lon="5.04456">
        <ele>559</ele>
        <time>2026-05-26T12:38:17.000Z</time>
      </trkpt>
      <trkpt lat="44.65259" lon="5.04458">
        <ele>559</ele>
        <time>2026-05-26T12:38:18.000Z</time>
      </trkpt>
      <trkpt lat="44.65258" lon="5.04459">
        <ele>559</ele>
        <time>2026-05-26T12:38:19.000Z</time>
      </trkpt>
      <trkpt lat="44.65257" lon="5.04461">
        <ele>560</ele>
        <time>2026-05-26T12:38:20.000Z</time>
      </trkpt>
      <trkpt lat="44.65257" lon="5.04461">
        <ele>560</ele>
        <time>2026-05-26T12:38:21.000Z</time>
      </trkpt>
      <trkpt lat="44.65257" lon="5.04463">
        <ele>559</ele>
        <time>2026-05-26T12:38:22.000Z</time>
      </trkpt>
      <trkpt lat="44.65256" lon="5.04464">
        <ele>559</ele>
        <time>2026-05-26T12:38:23.000Z</time>
      </trkpt>
      <trkpt lat="44.65256" lon="5.04467">
        <ele>559</ele>
        <time>2026-05-26T12:38:24.000Z</time>
      </trkpt>
      <trkpt lat="44.65256" lon="5.04469">
        <ele>558</ele>
        <time>2026-05-26T12:38:25.000Z</time>
      </trkpt>
      <trkpt lat="44.65256" lon="5.04471">
        <ele>559</ele>
        <time>2026-05-26T12:38:26.000Z</time>
      </trkpt>
      <trkpt lat="44.65256" lon="5.04473">
        <ele>559</ele>
        <time>2026-05-26T12:38:27.000Z</time>
      </trkpt>
      <trkpt lat="44.65256" lon="5.04475">
        <ele>558</ele>
        <time>2026-05-26T12:38:28.000Z</time>
      </trkpt>
      <trkpt lat="44.65256" lon="5.04478">
        <ele>559</ele>
        <time>2026-05-26T12:38:29.000Z</time>
      </trkpt>
      <trkpt lat="44.65256" lon="5.04479">
        <ele>558</ele>
        <time>2026-05-26T12:38:30.000Z</time>
      </trkpt>
      <trkpt lat="44.65255" lon="5.04482">
        <ele>558</ele>
        <time>2026-05-26T12:38:31.000Z</time>
      </trkpt>
      <trkpt lat="44.65255" lon="5.04484">
        <ele>559</ele>
        <time>2026-05-26T12:38:32.000Z</time>
      </trkpt>
      <trkpt lat="44.65255" lon="5.04485">
        <ele>559</ele>
        <time>2026-05-26T12:38:33.000Z</time>
      </trkpt>
      <trkpt lat="44.65255" lon="5.04487">
        <ele>559</ele>
        <time>2026-05-26T12:38:34.000Z</time>
      </trkpt>
      <trkpt lat="44.65255" lon="5.04489">
        <ele>558</ele>
        <time>2026-05-26T12:38:35.000Z</time>
      </trkpt>
      <trkpt lat="44.65255" lon="5.0449">
        <ele>558</ele>
        <time>2026-05-26T12:38:36.000Z</time>
      </trkpt>
      <trkpt lat="44.65255" lon="5.0449">
        <ele>559</ele>
        <time>2026-05-26T12:38:37.000Z</time>
      </trkpt>
      <trkpt lat="44.65255" lon="5.0449">
        <ele>558</ele>
        <time>2026-05-26T12:38:38.000Z</time>
      </trkpt>
      <trkpt lat="44.65254" lon="5.04491">
        <ele>559</ele>
        <time>2026-05-26T12:38:39.000Z</time>
      </trkpt>
      <trkpt lat="44.65253" lon="5.04493">
        <ele>559</ele>
        <time>2026-05-26T12:38:40.000Z</time>
      </trkpt>
      <trkpt lat="44.65253" lon="5.04495">
        <ele>557</ele>
        <time>2026-05-26T12:38:41.000Z</time>
      </trkpt>
      <trkpt lat="44.65252" lon="5.04495">
        <ele>556</ele>
        <time>2026-05-26T12:38:42.000Z</time>
      </trkpt>
      <trkpt lat="44.65252" lon="5.04495">
        <ele>556</ele>
        <time>2026-05-26T12:38:43.000Z</time>
      </trkpt>
      <trkpt lat="44.65251" lon="5.04499">
        <ele>557</ele>
        <time>2026-05-26T12:38:44.000Z</time>
      </trkpt>
      <trkpt lat="44.6525" lon="5.04499">
        <ele>557</ele>
        <time>2026-05-26T12:38:45.000Z</time>
      </trkpt>
      <trkpt lat="44.6525" lon="5.045">
        <ele>557</ele>
        <time>2026-05-26T12:38:46.000Z</time>
      </trkpt>
      <trkpt lat="44.65249" lon="5.04501">
        <ele>557</ele>
        <time>2026-05-26T12:38:47.000Z</time>
      </trkpt>
      <trkpt lat="44.65249" lon="5.04502">
        <ele>557</ele>
        <time>2026-05-26T12:38:48.000Z</time>
      </trkpt>
      <trkpt lat="44.65249" lon="5.04503">
        <ele>557</ele>
        <time>2026-05-26T12:38:49.000Z</time>
      </trkpt>
      <trkpt lat="44.65249" lon="5.04503">
        <ele>557</ele>
        <time>2026-05-26T12:38:50.000Z</time>
      </trkpt>
      <trkpt lat="44.65249" lon="5.04503">
        <ele>557</ele>
        <time>2026-05-26T12:38:51.000Z</time>
      </trkpt>
      <trkpt lat="44.6525" lon="5.04503">
        <ele>558</ele>
        <time>2026-05-26T12:38:52.000Z</time>
      </trkpt>
      <trkpt lat="44.65251" lon="5.04503">
        <ele>558</ele>
        <time>2026-05-26T12:38:53.000Z</time>
      </trkpt>
      <trkpt lat="44.65251" lon="5.04503">
        <ele>558</ele>
        <time>2026-05-26T12:38:54.000Z</time>
      </trkpt>
      <trkpt lat="44.65251" lon="5.04503">
        <ele>558</ele>
        <time>2026-05-26T12:38:55.000Z</time>
      </trkpt>
      <trkpt lat="44.65251" lon="5.04503">
        <ele>558</ele>
        <time>2026-05-26T12:38:56.000Z</time>
      </trkpt>
      <trkpt lat="44.65251" lon="5.04503">
        <ele>558</ele>
        <time>2026-05-26T12:38:57.000Z</time>
      </trkpt>
      <trkpt lat="44.65251" lon="5.04503">
        <ele>558</ele>
        <time>2026-05-26T12:38:58.000Z</time>
      </trkpt>
      <trkpt lat="44.65251" lon="5.04503">
        <ele>558</ele>
        <time>2026-05-26T12:38:59.000Z</time>
      </trkpt>
      <trkpt lat="44.65251" lon="5.04503">
        <ele>558</ele>
        <time>2026-05-26T12:39:00.000Z</time>
      </trkpt>
      <trkpt lat="44.65251" lon="5.04503">
        <ele>558</ele>
        <time>2026-05-26T12:39:01.000Z</time>
      </trkpt>
      <trkpt lat="44.65251" lon="5.04503">
        <ele>558</ele>
        <time>2026-05-26T12:39:02.000Z</time>
      </trkpt>
      <trkpt lat="44.65251" lon="5.04503">
        <ele>558</ele>
        <time>2026-05-26T12:39:03.000Z</time>
      </trkpt>
      <trkpt lat="44.65251" lon="5.04503">
        <ele>558</ele>
        <time>2026-05-26T12:39:04.000Z</time>
      </trkpt>
      <trkpt lat="44.65251" lon="5.04503">
        <ele>558</ele>
        <time>2026-05-26T12:39:05.000Z</time>
      </trkpt>
      <trkpt lat="44.65251" lon="5.04503">
        <ele>558</ele>
        <time>2026-05-26T12:39:06.000Z</time>
      </trkpt>
      <trkpt lat="44.65251" lon="5.04503">
        <ele>558</ele>
        <time>2026-05-26T12:39:07.000Z</time>
      </trkpt>
      <trkpt lat="44.65251" lon="5.04503">
        <ele>558</ele>
        <time>2026-05-26T12:39:08.000Z</time>
      </trkpt>
      <trkpt lat="44.65251" lon="5.04503">
        <ele>558</ele>
        <time>2026-05-26T12:39:09.000Z</time>
      </trkpt>
      <trkpt lat="44.65251" lon="5.04503">
        <ele>558</ele>
        <time>2026-05-26T12:39:10.000Z</time>
      </trkpt>
      <trkpt lat="44.65251" lon="5.04503">
        <ele>558</ele>
        <time>2026-05-26T12:39:11.000Z</time>
      </trkpt>
      <trkpt lat="44.65251" lon="5.04503">
        <ele>558</ele>
        <time>2026-05-26T12:39:12.000Z</time>
      </trkpt>
      <trkpt lat="44.65251" lon="5.04503">
        <ele>558</ele>
        <time>2026-05-26T12:39:13.000Z</time>
      </trkpt>
      <trkpt lat="44.65251" lon="5.04503">
        <ele>558</ele>
        <time>2026-05-26T12:39:14.000Z</time>
      </trkpt>
      <trkpt lat="44.65251" lon="5.04503">
        <ele>558</ele>
        <time>2026-05-26T12:39:15.000Z</time>
      </trkpt>
      <trkpt lat="44.65251" lon="5.04503">
        <ele>558</ele>
        <time>2026-05-26T12:39:16.000Z</time>
      </trkpt>
      <trkpt lat="44.65251" lon="5.04503">
        <ele>558</ele>
        <time>2026-05-26T12:39:17.000Z</time>
      </trkpt>
      <trkpt lat="44.65251" lon="5.04503">
        <ele>558</ele>
        <time>2026-05-26T12:39:18.000Z</time>
      </trkpt>
      <trkpt lat="44.65251" lon="5.04503">
        <ele>558</ele>
        <time>2026-05-26T12:39:19.000Z</time>
      </trkpt>
      <trkpt lat="44.65251" lon="5.04503">
        <ele>558</ele>
        <time>2026-05-26T12:39:20.000Z</time>
      </trkpt>
      <trkpt lat="44.65251" lon="5.04503">
        <ele>558</ele>
        <time>2026-05-26T12:39:21.000Z</time>
      </trkpt>
      <trkpt lat="44.65251" lon="5.04503">
        <ele>558</ele>
        <time>2026-05-26T12:39:22.000Z</time>
      </trkpt>
      <trkpt lat="44.65251" lon="5.04503">
        <ele>558</ele>
        <time>2026-05-26T12:39:23.000Z</time>
      </trkpt>
      <trkpt lat="44.65251" lon="5.04503">
        <ele>558</ele>
        <time>2026-05-26T12:39:24.000Z</time>
      </trkpt>
      <trkpt lat="44.65251" lon="5.04503">
        <ele>558</ele>
        <time>2026-05-26T12:39:25.000Z</time>
      </trkpt>
      <trkpt lat="44.65251" lon="5.04503">
        <ele>558</ele>
        <time>2026-05-26T12:39:26.000Z</time>
      </trkpt>
      <trkpt lat="44.65249" lon="5.04506">
        <ele>556</ele>
        <time>2026-05-26T12:39:27.000Z</time>
      </trkpt>
      <trkpt lat="44.65249" lon="5.04506">
        <ele>556</ele>
        <time>2026-05-26T12:39:28.000Z</time>
      </trkpt>
      <trkpt lat="44.65249" lon="5.04505">
        <ele>558</ele>
        <time>2026-05-26T12:39:29.000Z</time>
      </trkpt>
      <trkpt lat="44.6525" lon="5.04507">
        <ele>557</ele>
        <time>2026-05-26T12:39:30.000Z</time>
      </trkpt>
      <trkpt lat="44.65251" lon="5.04506">
        <ele>554</ele>
        <time>2026-05-26T12:39:31.000Z</time>
      </trkpt>
      <trkpt lat="44.65251" lon="5.04506">
        <ele>554</ele>
        <time>2026-05-26T12:39:32.000Z</time>
      </trkpt>
      <trkpt lat="44.65251" lon="5.04506">
        <ele>554</ele>
        <time>2026-05-26T12:39:33.000Z</time>
      </trkpt>
      <trkpt lat="44.65251" lon="5.04506">
        <ele>554</ele>
        <time>2026-05-26T12:39:34.000Z</time>
      </trkpt>
      <trkpt lat="44.65251" lon="5.04506">
        <ele>554</ele>
        <time>2026-05-26T12:39:35.000Z</time>
      </trkpt>
      <trkpt lat="44.6525" lon="5.04508">
        <ele>554</ele>
        <time>2026-05-26T12:39:36.000Z</time>
      </trkpt>
      <trkpt lat="44.65248" lon="5.04508">
        <ele>554</ele>
        <time>2026-05-26T12:39:37.000Z</time>
      </trkpt>
      <trkpt lat="44.65247" lon="5.04507">
        <ele>553</ele>
        <time>2026-05-26T12:39:38.000Z</time>
      </trkpt>
      <trkpt lat="44.65246" lon="5.04507">
        <ele>552</ele>
        <time>2026-05-26T12:39:39.000Z</time>
      </trkpt>
      <trkpt lat="44.65245" lon="5.04506">
        <ele>551</ele>
        <time>2026-05-26T12:39:40.000Z</time>
      </trkpt>
      <trkpt lat="44.65245" lon="5.04505">
        <ele>551</ele>
        <time>2026-05-26T12:39:41.000Z</time>
      </trkpt>
      <trkpt lat="44.65244" lon="5.04505">
        <ele>551</ele>
        <time>2026-05-26T12:39:42.000Z</time>
      </trkpt>
      <trkpt lat="44.65243" lon="5.04505">
        <ele>552</ele>
        <time>2026-05-26T12:39:43.000Z</time>
      </trkpt>
      <trkpt lat="44.65242" lon="5.04504">
        <ele>551</ele>
        <time>2026-05-26T12:39:44.000Z</time>
      </trkpt>
      <trkpt lat="44.65241" lon="5.04504">
        <ele>551</ele>
        <time>2026-05-26T12:39:45.000Z</time>
      </trkpt>
      <trkpt lat="44.6524" lon="5.04504">
        <ele>551</ele>
        <time>2026-05-26T12:39:46.000Z</time>
      </trkpt>
      <trkpt lat="44.65239" lon="5.04504">
        <ele>551</ele>
        <time>2026-05-26T12:39:47.000Z</time>
      </trkpt>
      <trkpt lat="44.65239" lon="5.04504">
        <ele>552</ele>
        <time>2026-05-26T12:39:48.000Z</time>
      </trkpt>
      <trkpt lat="44.65237" lon="5.04503">
        <ele>552</ele>
        <time>2026-05-26T12:39:49.000Z</time>
      </trkpt>
      <trkpt lat="44.65236" lon="5.04503">
        <ele>551</ele>
        <time>2026-05-26T12:39:50.000Z</time>
      </trkpt>
      <trkpt lat="44.65235" lon="5.04502">
        <ele>552</ele>
        <time>2026-05-26T12:39:51.000Z</time>
      </trkpt>
      <trkpt lat="44.65234" lon="5.04502">
        <ele>552</ele>
        <time>2026-05-26T12:39:52.000Z</time>
      </trkpt>
      <trkpt lat="44.65233" lon="5.04502">
        <ele>552</ele>
        <time>2026-05-26T12:39:53.000Z</time>
      </trkpt>
      <trkpt lat="44.65232" lon="5.04502">
        <ele>552</ele>
        <time>2026-05-26T12:39:54.000Z</time>
      </trkpt>
      <trkpt lat="44.65231" lon="5.04501">
        <ele>551</ele>
        <time>2026-05-26T12:39:55.000Z</time>
      </trkpt>
      <trkpt lat="44.6523" lon="5.04501">
        <ele>551</ele>
        <time>2026-05-26T12:39:56.000Z</time>
      </trkpt>
      <trkpt lat="44.65229" lon="5.04501">
        <ele>550</ele>
        <time>2026-05-26T12:39:57.000Z</time>
      </trkpt>
      <trkpt lat="44.65228" lon="5.045">
        <ele>550</ele>
        <time>2026-05-26T12:39:58.000Z</time>
      </trkpt>
      <trkpt lat="44.65227" lon="5.045">
        <ele>551</ele>
        <time>2026-05-26T12:39:59.000Z</time>
      </trkpt>
      <trkpt lat="44.65226" lon="5.045">
        <ele>551</ele>
        <time>2026-05-26T12:40:00.000Z</time>
      </trkpt>
      <trkpt lat="44.65225" lon="5.045">
        <ele>551</ele>
        <time>2026-05-26T12:40:01.000Z</time>
      </trkpt>
      <trkpt lat="44.65224" lon="5.04499">
        <ele>551</ele>
        <time>2026-05-26T12:40:02.000Z</time>
      </trkpt>
      <trkpt lat="44.65223" lon="5.04499">
        <ele>550</ele>
        <time>2026-05-26T12:40:03.000Z</time>
      </trkpt>
      <trkpt lat="44.65223" lon="5.045">
        <ele>549</ele>
        <time>2026-05-26T12:40:04.000Z</time>
      </trkpt>
      <trkpt lat="44.65223" lon="5.045">
        <ele>549</ele>
        <time>2026-05-26T12:40:05.000Z</time>
      </trkpt>
      <trkpt lat="44.65223" lon="5.045">
        <ele>549</ele>
        <time>2026-05-26T12:40:06.000Z</time>
      </trkpt>
      <trkpt lat="44.65222" lon="5.04501">
        <ele>550</ele>
        <time>2026-05-26T12:40:07.000Z</time>
      </trkpt>
      <trkpt lat="44.6522" lon="5.045">
        <ele>550</ele>
        <time>2026-05-26T12:40:08.000Z</time>
      </trkpt>
      <trkpt lat="44.6522" lon="5.045">
        <ele>550</ele>
        <time>2026-05-26T12:40:09.000Z</time>
      </trkpt>
      <trkpt lat="44.65219" lon="5.045">
        <ele>550</ele>
        <time>2026-05-26T12:40:10.000Z</time>
      </trkpt>
      <trkpt lat="44.65217" lon="5.045">
        <ele>551</ele>
        <time>2026-05-26T12:40:11.000Z</time>
      </trkpt>
      <trkpt lat="44.65217" lon="5.045">
        <ele>551</ele>
        <time>2026-05-26T12:40:12.000Z</time>
      </trkpt>
      <trkpt lat="44.65218" lon="5.045">
        <ele>549</ele>
        <time>2026-05-26T12:40:13.000Z</time>
      </trkpt>
      <trkpt lat="44.65217" lon="5.04499">
        <ele>549</ele>
        <time>2026-05-26T12:40:14.000Z</time>
      </trkpt>
      <trkpt lat="44.65216" lon="5.04498">
        <ele>548</ele>
        <time>2026-05-26T12:40:15.000Z</time>
      </trkpt>
      <trkpt lat="44.65214" lon="5.04497">
        <ele>547</ele>
        <time>2026-05-26T12:40:16.000Z</time>
      </trkpt>
      <trkpt lat="44.65214" lon="5.04496">
        <ele>547</ele>
        <time>2026-05-26T12:40:17.000Z</time>
      </trkpt>
      <trkpt lat="44.65212" lon="5.04496">
        <ele>547</ele>
        <time>2026-05-26T12:40:18.000Z</time>
      </trkpt>
      <trkpt lat="44.65211" lon="5.04496">
        <ele>547</ele>
        <time>2026-05-26T12:40:19.000Z</time>
      </trkpt>
      <trkpt lat="44.6521" lon="5.04496">
        <ele>546</ele>
        <time>2026-05-26T12:40:20.000Z</time>
      </trkpt>
      <trkpt lat="44.65209" lon="5.04494">
        <ele>546</ele>
        <time>2026-05-26T12:40:21.000Z</time>
      </trkpt>
      <trkpt lat="44.65208" lon="5.04493">
        <ele>545</ele>
        <time>2026-05-26T12:40:22.000Z</time>
      </trkpt>
      <trkpt lat="44.65207" lon="5.04492">
        <ele>545</ele>
        <time>2026-05-26T12:40:23.000Z</time>
      </trkpt>
      <trkpt lat="44.65205" lon="5.04492">
        <ele>545</ele>
        <time>2026-05-26T12:40:24.000Z</time>
      </trkpt>
      <trkpt lat="44.65204" lon="5.04493">
        <ele>545</ele>
        <time>2026-05-26T12:40:25.000Z</time>
      </trkpt>
      <trkpt lat="44.65203" lon="5.04491">
        <ele>544</ele>
        <time>2026-05-26T12:40:26.000Z</time>
      </trkpt>
      <trkpt lat="44.65202" lon="5.04491">
        <ele>544</ele>
        <time>2026-05-26T12:40:27.000Z</time>
      </trkpt>
      <trkpt lat="44.65201" lon="5.0449">
        <ele>543</ele>
        <time>2026-05-26T12:40:28.000Z</time>
      </trkpt>
      <trkpt lat="44.652" lon="5.0449">
        <ele>543</ele>
        <time>2026-05-26T12:40:29.000Z</time>
      </trkpt>
      <trkpt lat="44.65199" lon="5.0449">
        <ele>543</ele>
        <time>2026-05-26T12:40:30.000Z</time>
      </trkpt>
      <trkpt lat="44.65198" lon="5.0449">
        <ele>543</ele>
        <time>2026-05-26T12:40:31.000Z</time>
      </trkpt>
      <trkpt lat="44.65197" lon="5.0449">
        <ele>543</ele>
        <time>2026-05-26T12:40:32.000Z</time>
      </trkpt>
      <trkpt lat="44.65196" lon="5.0449">
        <ele>542</ele>
        <time>2026-05-26T12:40:33.000Z</time>
      </trkpt>
      <trkpt lat="44.65195" lon="5.04489">
        <ele>541</ele>
        <time>2026-05-26T12:40:34.000Z</time>
      </trkpt>
      <trkpt lat="44.65193" lon="5.04488">
        <ele>541</ele>
        <time>2026-05-26T12:40:35.000Z</time>
      </trkpt>
      <trkpt lat="44.65191" lon="5.04489">
        <ele>540</ele>
        <time>2026-05-26T12:40:36.000Z</time>
      </trkpt>
      <trkpt lat="44.6519" lon="5.04488">
        <ele>539</ele>
        <time>2026-05-26T12:40:37.000Z</time>
      </trkpt>
      <trkpt lat="44.65189" lon="5.04487">
        <ele>539</ele>
        <time>2026-05-26T12:40:38.000Z</time>
      </trkpt>
      <trkpt lat="44.65187" lon="5.04487">
        <ele>539</ele>
        <time>2026-05-26T12:40:39.000Z</time>
      </trkpt>
      <trkpt lat="44.65187" lon="5.04486">
        <ele>539</ele>
        <time>2026-05-26T12:40:40.000Z</time>
      </trkpt>
      <trkpt lat="44.65185" lon="5.04487">
        <ele>537</ele>
        <time>2026-05-26T12:40:41.000Z</time>
      </trkpt>
      <trkpt lat="44.65184" lon="5.04485">
        <ele>536</ele>
        <time>2026-05-26T12:40:42.000Z</time>
      </trkpt>
      <trkpt lat="44.65183" lon="5.04485">
        <ele>536</ele>
        <time>2026-05-26T12:40:43.000Z</time>
      </trkpt>
      <trkpt lat="44.65182" lon="5.04484">
        <ele>536</ele>
        <time>2026-05-26T12:40:44.000Z</time>
      </trkpt>
      <trkpt lat="44.65181" lon="5.04484">
        <ele>536</ele>
        <time>2026-05-26T12:40:45.000Z</time>
      </trkpt>
      <trkpt lat="44.6518" lon="5.04483">
        <ele>536</ele>
        <time>2026-05-26T12:40:46.000Z</time>
      </trkpt>
      <trkpt lat="44.65179" lon="5.04483">
        <ele>535</ele>
        <time>2026-05-26T12:40:47.000Z</time>
      </trkpt>
      <trkpt lat="44.65178" lon="5.04482">
        <ele>535</ele>
        <time>2026-05-26T12:40:48.000Z</time>
      </trkpt>
      <trkpt lat="44.65177" lon="5.04482">
        <ele>535</ele>
        <time>2026-05-26T12:40:49.000Z</time>
      </trkpt>
      <trkpt lat="44.65176" lon="5.04481">
        <ele>534</ele>
        <time>2026-05-26T12:40:50.000Z</time>
      </trkpt>
      <trkpt lat="44.65175" lon="5.04482">
        <ele>534</ele>
        <time>2026-05-26T12:40:51.000Z</time>
      </trkpt>
      <trkpt lat="44.65173" lon="5.04481">
        <ele>534</ele>
        <time>2026-05-26T12:40:52.000Z</time>
      </trkpt>
      <trkpt lat="44.65172" lon="5.0448">
        <ele>533</ele>
        <time>2026-05-26T12:40:53.000Z</time>
      </trkpt>
      <trkpt lat="44.65171" lon="5.0448">
        <ele>533</ele>
        <time>2026-05-26T12:40:54.000Z</time>
      </trkpt>
      <trkpt lat="44.6517" lon="5.04479">
        <ele>533</ele>
        <time>2026-05-26T12:40:55.000Z</time>
      </trkpt>
      <trkpt lat="44.65169" lon="5.04479">
        <ele>533</ele>
        <time>2026-05-26T12:40:56.000Z</time>
      </trkpt>
      <trkpt lat="44.65168" lon="5.04479">
        <ele>532</ele>
        <time>2026-05-26T12:40:57.000Z</time>
      </trkpt>
      <trkpt lat="44.65167" lon="5.0448">
        <ele>532</ele>
        <time>2026-05-26T12:40:58.000Z</time>
      </trkpt>
      <trkpt lat="44.65165" lon="5.0448">
        <ele>532</ele>
        <time>2026-05-26T12:40:59.000Z</time>
      </trkpt>
      <trkpt lat="44.65164" lon="5.0448">
        <ele>533</ele>
        <time>2026-05-26T12:41:00.000Z</time>
      </trkpt>
      <trkpt lat="44.65163" lon="5.04479">
        <ele>532</ele>
        <time>2026-05-26T12:41:01.000Z</time>
      </trkpt>
      <trkpt lat="44.65162" lon="5.04479">
        <ele>531</ele>
        <time>2026-05-26T12:41:02.000Z</time>
      </trkpt>
      <trkpt lat="44.65162" lon="5.04479">
        <ele>531</ele>
        <time>2026-05-26T12:41:03.000Z</time>
      </trkpt>
      <trkpt lat="44.65161" lon="5.04479">
        <ele>531</ele>
        <time>2026-05-26T12:41:04.000Z</time>
      </trkpt>
      <trkpt lat="44.65161" lon="5.04479">
        <ele>531</ele>
        <time>2026-05-26T12:41:05.000Z</time>
      </trkpt>
      <trkpt lat="44.65161" lon="5.04479">
        <ele>531</ele>
        <time>2026-05-26T12:41:06.000Z</time>
      </trkpt>
      <trkpt lat="44.6516" lon="5.04479">
        <ele>531</ele>
        <time>2026-05-26T12:41:07.000Z</time>
      </trkpt>
      <trkpt lat="44.6516" lon="5.04479">
        <ele>531</ele>
        <time>2026-05-26T12:41:08.000Z</time>
      </trkpt>
      <trkpt lat="44.6516" lon="5.04478">
        <ele>531</ele>
        <time>2026-05-26T12:41:09.000Z</time>
      </trkpt>
      <trkpt lat="44.6516" lon="5.04479">
        <ele>532</ele>
        <time>2026-05-26T12:41:10.000Z</time>
      </trkpt>
      <trkpt lat="44.65158" lon="5.04479">
        <ele>532</ele>
        <time>2026-05-26T12:41:11.000Z</time>
      </trkpt>
      <trkpt lat="44.65157" lon="5.04478">
        <ele>530</ele>
        <time>2026-05-26T12:41:12.000Z</time>
      </trkpt>
      <trkpt lat="44.65156" lon="5.04478">
        <ele>530</ele>
        <time>2026-05-26T12:41:13.000Z</time>
      </trkpt>
      <trkpt lat="44.65155" lon="5.04479">
        <ele>529</ele>
        <time>2026-05-26T12:41:14.000Z</time>
      </trkpt>
      <trkpt lat="44.65154" lon="5.04478">
        <ele>529</ele>
        <time>2026-05-26T12:41:15.000Z</time>
      </trkpt>
      <trkpt lat="44.65152" lon="5.04478">
        <ele>529</ele>
        <time>2026-05-26T12:41:16.000Z</time>
      </trkpt>
      <trkpt lat="44.65151" lon="5.04478">
        <ele>529</ele>
        <time>2026-05-26T12:41:17.000Z</time>
      </trkpt>
      <trkpt lat="44.65149" lon="5.04477">
        <ele>529</ele>
        <time>2026-05-26T12:41:18.000Z</time>
      </trkpt>
      <trkpt lat="44.65148" lon="5.04477">
        <ele>528</ele>
        <time>2026-05-26T12:41:19.000Z</time>
      </trkpt>
      <trkpt lat="44.65147" lon="5.04476">
        <ele>528</ele>
        <time>2026-05-26T12:41:20.000Z</time>
      </trkpt>
      <trkpt lat="44.65146" lon="5.04475">
        <ele>527</ele>
        <time>2026-05-26T12:41:21.000Z</time>
      </trkpt>
      <trkpt lat="44.65144" lon="5.04474">
        <ele>527</ele>
        <time>2026-05-26T12:41:22.000Z</time>
      </trkpt>
      <trkpt lat="44.65143" lon="5.04473">
        <ele>527</ele>
        <time>2026-05-26T12:41:23.000Z</time>
      </trkpt>
      <trkpt lat="44.65142" lon="5.04472">
        <ele>527</ele>
        <time>2026-05-26T12:41:24.000Z</time>
      </trkpt>
      <trkpt lat="44.65141" lon="5.04471">
        <ele>526</ele>
        <time>2026-05-26T12:41:25.000Z</time>
      </trkpt>
      <trkpt lat="44.6514" lon="5.04471">
        <ele>526</ele>
        <time>2026-05-26T12:41:26.000Z</time>
      </trkpt>
      <trkpt lat="44.65139" lon="5.0447">
        <ele>525</ele>
        <time>2026-05-26T12:41:27.000Z</time>
      </trkpt>
      <trkpt lat="44.65138" lon="5.0447">
        <ele>525</ele>
        <time>2026-05-26T12:41:28.000Z</time>
      </trkpt>
      <trkpt lat="44.65137" lon="5.0447">
        <ele>525</ele>
        <time>2026-05-26T12:41:29.000Z</time>
      </trkpt>
      <trkpt lat="44.65136" lon="5.0447">
        <ele>525</ele>
        <time>2026-05-26T12:41:30.000Z</time>
      </trkpt>
      <trkpt lat="44.65135" lon="5.0447">
        <ele>525</ele>
        <time>2026-05-26T12:41:31.000Z</time>
      </trkpt>
      <trkpt lat="44.65134" lon="5.04469">
        <ele>525</ele>
        <time>2026-05-26T12:41:32.000Z</time>
      </trkpt>
      <trkpt lat="44.65132" lon="5.04469">
        <ele>525</ele>
        <time>2026-05-26T12:41:33.000Z</time>
      </trkpt>
      <trkpt lat="44.65132" lon="5.04469">
        <ele>525</ele>
        <time>2026-05-26T12:41:34.000Z</time>
      </trkpt>
      <trkpt lat="44.65132" lon="5.04469">
        <ele>525</ele>
        <time>2026-05-26T12:41:35.000Z</time>
      </trkpt>
      <trkpt lat="44.6513" lon="5.04468">
        <ele>525</ele>
        <time>2026-05-26T12:41:36.000Z</time>
      </trkpt>
      <trkpt lat="44.65129" lon="5.04467">
        <ele>525</ele>
        <time>2026-05-26T12:41:37.000Z</time>
      </trkpt>
      <trkpt lat="44.65128" lon="5.04467">
        <ele>524</ele>
        <time>2026-05-26T12:41:38.000Z</time>
      </trkpt>
      <trkpt lat="44.65127" lon="5.04466">
        <ele>524</ele>
        <time>2026-05-26T12:41:39.000Z</time>
      </trkpt>
      <trkpt lat="44.65126" lon="5.04465">
        <ele>524</ele>
        <time>2026-05-26T12:41:40.000Z</time>
      </trkpt>
      <trkpt lat="44.65125" lon="5.04465">
        <ele>523</ele>
        <time>2026-05-26T12:41:41.000Z</time>
      </trkpt>
      <trkpt lat="44.65123" lon="5.04465">
        <ele>522</ele>
        <time>2026-05-26T12:41:42.000Z</time>
      </trkpt>
      <trkpt lat="44.65123" lon="5.04464">
        <ele>523</ele>
        <time>2026-05-26T12:41:43.000Z</time>
      </trkpt>
      <trkpt lat="44.65121" lon="5.04464">
        <ele>522</ele>
        <time>2026-05-26T12:41:44.000Z</time>
      </trkpt>
      <trkpt lat="44.6512" lon="5.04463">
        <ele>522</ele>
        <time>2026-05-26T12:41:45.000Z</time>
      </trkpt>
      <trkpt lat="44.6512" lon="5.04463">
        <ele>523</ele>
        <time>2026-05-26T12:41:46.000Z</time>
      </trkpt>
      <trkpt lat="44.65118" lon="5.04463">
        <ele>522</ele>
        <time>2026-05-26T12:41:47.000Z</time>
      </trkpt>
      <trkpt lat="44.65117" lon="5.04463">
        <ele>521</ele>
        <time>2026-05-26T12:41:48.000Z</time>
      </trkpt>
      <trkpt lat="44.65116" lon="5.04463">
        <ele>520</ele>
        <time>2026-05-26T12:41:49.000Z</time>
      </trkpt>
      <trkpt lat="44.65114" lon="5.04463">
        <ele>521</ele>
        <time>2026-05-26T12:41:50.000Z</time>
      </trkpt>
      <trkpt lat="44.65114" lon="5.04462">
        <ele>520</ele>
        <time>2026-05-26T12:41:51.000Z</time>
      </trkpt>
      <trkpt lat="44.65112" lon="5.04462">
        <ele>520</ele>
        <time>2026-05-26T12:41:52.000Z</time>
      </trkpt>
      <trkpt lat="44.6511" lon="5.04462">
        <ele>520</ele>
        <time>2026-05-26T12:41:53.000Z</time>
      </trkpt>
      <trkpt lat="44.65108" lon="5.04462">
        <ele>519</ele>
        <time>2026-05-26T12:41:54.000Z</time>
      </trkpt>
      <trkpt lat="44.65106" lon="5.04461">
        <ele>519</ele>
        <time>2026-05-26T12:41:55.000Z</time>
      </trkpt>
      <trkpt lat="44.65105" lon="5.04461">
        <ele>519</ele>
        <time>2026-05-26T12:41:56.000Z</time>
      </trkpt>
      <trkpt lat="44.65104" lon="5.0446">
        <ele>519</ele>
        <time>2026-05-26T12:41:57.000Z</time>
      </trkpt>
      <trkpt lat="44.65103" lon="5.04459">
        <ele>519</ele>
        <time>2026-05-26T12:41:58.000Z</time>
      </trkpt>
      <trkpt lat="44.65102" lon="5.04458">
        <ele>519</ele>
        <time>2026-05-26T12:41:59.000Z</time>
      </trkpt>
      <trkpt lat="44.65102" lon="5.04457">
        <ele>520</ele>
        <time>2026-05-26T12:42:00.000Z</time>
      </trkpt>
      <trkpt lat="44.651" lon="5.04457">
        <ele>520</ele>
        <time>2026-05-26T12:42:01.000Z</time>
      </trkpt>
      <trkpt lat="44.65099" lon="5.04456">
        <ele>520</ele>
        <time>2026-05-26T12:42:02.000Z</time>
      </trkpt>
      <trkpt lat="44.65097" lon="5.04456">
        <ele>520</ele>
        <time>2026-05-26T12:42:03.000Z</time>
      </trkpt>
      <trkpt lat="44.65096" lon="5.04456">
        <ele>520</ele>
        <time>2026-05-26T12:42:04.000Z</time>
      </trkpt>
      <trkpt lat="44.65095" lon="5.04455">
        <ele>520</ele>
        <time>2026-05-26T12:42:05.000Z</time>
      </trkpt>
      <trkpt lat="44.65094" lon="5.04454">
        <ele>520</ele>
        <time>2026-05-26T12:42:06.000Z</time>
      </trkpt>
      <trkpt lat="44.65092" lon="5.04453">
        <ele>519</ele>
        <time>2026-05-26T12:42:07.000Z</time>
      </trkpt>
      <trkpt lat="44.65091" lon="5.04453">
        <ele>519</ele>
        <time>2026-05-26T12:42:08.000Z</time>
      </trkpt>
      <trkpt lat="44.6509" lon="5.04452">
        <ele>517</ele>
        <time>2026-05-26T12:42:09.000Z</time>
      </trkpt>
      <trkpt lat="44.65089" lon="5.04452">
        <ele>518</ele>
        <time>2026-05-26T12:42:10.000Z</time>
      </trkpt>
      <trkpt lat="44.65088" lon="5.04451">
        <ele>518</ele>
        <time>2026-05-26T12:42:11.000Z</time>
      </trkpt>
      <trkpt lat="44.65087" lon="5.0445">
        <ele>518</ele>
        <time>2026-05-26T12:42:12.000Z</time>
      </trkpt>
      <trkpt lat="44.65085" lon="5.0445">
        <ele>518</ele>
        <time>2026-05-26T12:42:13.000Z</time>
      </trkpt>
      <trkpt lat="44.65084" lon="5.0445">
        <ele>517</ele>
        <time>2026-05-26T12:42:14.000Z</time>
      </trkpt>
      <trkpt lat="44.65084" lon="5.0445">
        <ele>517</ele>
        <time>2026-05-26T12:42:15.000Z</time>
      </trkpt>
      <trkpt lat="44.65083" lon="5.0445">
        <ele>517</ele>
        <time>2026-05-26T12:42:16.000Z</time>
      </trkpt>
      <trkpt lat="44.65082" lon="5.0445">
        <ele>517</ele>
        <time>2026-05-26T12:42:17.000Z</time>
      </trkpt>
      <trkpt lat="44.65081" lon="5.04448">
        <ele>516</ele>
        <time>2026-05-26T12:42:18.000Z</time>
      </trkpt>
      <trkpt lat="44.6508" lon="5.04449">
        <ele>517</ele>
        <time>2026-05-26T12:42:19.000Z</time>
      </trkpt>
      <trkpt lat="44.65079" lon="5.04448">
        <ele>517</ele>
        <time>2026-05-26T12:42:20.000Z</time>
      </trkpt>
      <trkpt lat="44.65078" lon="5.04448">
        <ele>517</ele>
        <time>2026-05-26T12:42:21.000Z</time>
      </trkpt>
      <trkpt lat="44.65076" lon="5.04447">
        <ele>517</ele>
        <time>2026-05-26T12:42:22.000Z</time>
      </trkpt>
      <trkpt lat="44.65075" lon="5.04446">
        <ele>517</ele>
        <time>2026-05-26T12:42:23.000Z</time>
      </trkpt>
      <trkpt lat="44.65075" lon="5.04445">
        <ele>516</ele>
        <time>2026-05-26T12:42:24.000Z</time>
      </trkpt>
      <trkpt lat="44.65073" lon="5.04444">
        <ele>515</ele>
        <time>2026-05-26T12:42:25.000Z</time>
      </trkpt>
      <trkpt lat="44.65072" lon="5.04444">
        <ele>515</ele>
        <time>2026-05-26T12:42:26.000Z</time>
      </trkpt>
      <trkpt lat="44.65071" lon="5.04444">
        <ele>514</ele>
        <time>2026-05-26T12:42:27.000Z</time>
      </trkpt>
      <trkpt lat="44.6507" lon="5.04443">
        <ele>514</ele>
        <time>2026-05-26T12:42:28.000Z</time>
      </trkpt>
      <trkpt lat="44.65068" lon="5.04444">
        <ele>514</ele>
        <time>2026-05-26T12:42:29.000Z</time>
      </trkpt>
      <trkpt lat="44.65066" lon="5.04445">
        <ele>514</ele>
        <time>2026-05-26T12:42:30.000Z</time>
      </trkpt>
      <trkpt lat="44.65064" lon="5.04445">
        <ele>515</ele>
        <time>2026-05-26T12:42:31.000Z</time>
      </trkpt>
      <trkpt lat="44.65062" lon="5.04443">
        <ele>514</ele>
        <time>2026-05-26T12:42:32.000Z</time>
      </trkpt>
      <trkpt lat="44.65061" lon="5.04442">
        <ele>513</ele>
        <time>2026-05-26T12:42:33.000Z</time>
      </trkpt>
      <trkpt lat="44.6506" lon="5.04442">
        <ele>512</ele>
        <time>2026-05-26T12:42:34.000Z</time>
      </trkpt>
      <trkpt lat="44.65059" lon="5.04441">
        <ele>511</ele>
        <time>2026-05-26T12:42:35.000Z</time>
      </trkpt>
      <trkpt lat="44.65058" lon="5.04441">
        <ele>512</ele>
        <time>2026-05-26T12:42:36.000Z</time>
      </trkpt>
      <trkpt lat="44.65057" lon="5.04441">
        <ele>512</ele>
        <time>2026-05-26T12:42:37.000Z</time>
      </trkpt>
      <trkpt lat="44.65055" lon="5.04441">
        <ele>512</ele>
        <time>2026-05-26T12:42:38.000Z</time>
      </trkpt>
      <trkpt lat="44.65054" lon="5.04441">
        <ele>511</ele>
        <time>2026-05-26T12:42:39.000Z</time>
      </trkpt>
      <trkpt lat="44.65053" lon="5.0444">
        <ele>511</ele>
        <time>2026-05-26T12:42:40.000Z</time>
      </trkpt>
      <trkpt lat="44.65051" lon="5.0444">
        <ele>511</ele>
        <time>2026-05-26T12:42:41.000Z</time>
      </trkpt>
      <trkpt lat="44.6505" lon="5.04439">
        <ele>511</ele>
        <time>2026-05-26T12:42:42.000Z</time>
      </trkpt>
      <trkpt lat="44.65049" lon="5.04439">
        <ele>511</ele>
        <time>2026-05-26T12:42:43.000Z</time>
      </trkpt>
      <trkpt lat="44.65048" lon="5.04438">
        <ele>511</ele>
        <time>2026-05-26T12:42:44.000Z</time>
      </trkpt>
      <trkpt lat="44.65047" lon="5.04437">
        <ele>511</ele>
        <time>2026-05-26T12:42:45.000Z</time>
      </trkpt>
      <trkpt lat="44.65046" lon="5.04437">
        <ele>511</ele>
        <time>2026-05-26T12:42:46.000Z</time>
      </trkpt>
      <trkpt lat="44.65045" lon="5.04436">
        <ele>510</ele>
        <time>2026-05-26T12:42:47.000Z</time>
      </trkpt>
      <trkpt lat="44.65045" lon="5.04436">
        <ele>510</ele>
        <time>2026-05-26T12:42:48.000Z</time>
      </trkpt>
      <trkpt lat="44.65044" lon="5.04434">
        <ele>509</ele>
        <time>2026-05-26T12:42:49.000Z</time>
      </trkpt>
      <trkpt lat="44.65042" lon="5.04433">
        <ele>508</ele>
        <time>2026-05-26T12:42:50.000Z</time>
      </trkpt>
      <trkpt lat="44.65041" lon="5.04432">
        <ele>507</ele>
        <time>2026-05-26T12:42:51.000Z</time>
      </trkpt>
      <trkpt lat="44.65039" lon="5.04432">
        <ele>507</ele>
        <time>2026-05-26T12:42:52.000Z</time>
      </trkpt>
      <trkpt lat="44.65038" lon="5.04432">
        <ele>506</ele>
        <time>2026-05-26T12:42:53.000Z</time>
      </trkpt>
      <trkpt lat="44.65037" lon="5.04431">
        <ele>506</ele>
        <time>2026-05-26T12:42:54.000Z</time>
      </trkpt>
      <trkpt lat="44.65036" lon="5.0443">
        <ele>507</ele>
        <time>2026-05-26T12:42:55.000Z</time>
      </trkpt>
      <trkpt lat="44.65035" lon="5.0443">
        <ele>507</ele>
        <time>2026-05-26T12:42:56.000Z</time>
      </trkpt>
      <trkpt lat="44.65034" lon="5.0443">
        <ele>507</ele>
        <time>2026-05-26T12:42:57.000Z</time>
      </trkpt>
      <trkpt lat="44.65033" lon="5.04431">
        <ele>507</ele>
        <time>2026-05-26T12:42:58.000Z</time>
      </trkpt>
      <trkpt lat="44.65032" lon="5.04431">
        <ele>507</ele>
        <time>2026-05-26T12:42:59.000Z</time>
      </trkpt>
      <trkpt lat="44.65031" lon="5.04431">
        <ele>507</ele>
        <time>2026-05-26T12:43:00.000Z</time>
      </trkpt>
      <trkpt lat="44.6503" lon="5.04431">
        <ele>507</ele>
        <time>2026-05-26T12:43:01.000Z</time>
      </trkpt>
      <trkpt lat="44.65028" lon="5.04431">
        <ele>508</ele>
        <time>2026-05-26T12:43:02.000Z</time>
      </trkpt>
      <trkpt lat="44.65027" lon="5.04431">
        <ele>508</ele>
        <time>2026-05-26T12:43:03.000Z</time>
      </trkpt>
      <trkpt lat="44.65026" lon="5.0443">
        <ele>509</ele>
        <time>2026-05-26T12:43:04.000Z</time>
      </trkpt>
      <trkpt lat="44.65025" lon="5.04429">
        <ele>509</ele>
        <time>2026-05-26T12:43:05.000Z</time>
      </trkpt>
      <trkpt lat="44.65024" lon="5.04428">
        <ele>509</ele>
        <time>2026-05-26T12:43:06.000Z</time>
      </trkpt>
      <trkpt lat="44.65023" lon="5.04428">
        <ele>508</ele>
        <time>2026-05-26T12:43:07.000Z</time>
      </trkpt>
      <trkpt lat="44.65022" lon="5.04428">
        <ele>508</ele>
        <time>2026-05-26T12:43:08.000Z</time>
      </trkpt>
      <trkpt lat="44.65022" lon="5.04427">
        <ele>508</ele>
        <time>2026-05-26T12:43:09.000Z</time>
      </trkpt>
      <trkpt lat="44.65021" lon="5.04428">
        <ele>508</ele>
        <time>2026-05-26T12:43:10.000Z</time>
      </trkpt>
      <trkpt lat="44.65021" lon="5.04428">
        <ele>509</ele>
        <time>2026-05-26T12:43:11.000Z</time>
      </trkpt>
      <trkpt lat="44.65021" lon="5.04428">
        <ele>509</ele>
        <time>2026-05-26T12:43:12.000Z</time>
      </trkpt>
      <trkpt lat="44.65021" lon="5.04428">
        <ele>509</ele>
        <time>2026-05-26T12:43:13.000Z</time>
      </trkpt>
      <trkpt lat="44.65017" lon="5.04428">
        <ele>509</ele>
        <time>2026-05-26T12:43:14.000Z</time>
      </trkpt>
      <trkpt lat="44.65016" lon="5.04428">
        <ele>509</ele>
        <time>2026-05-26T12:43:15.000Z</time>
      </trkpt>
      <trkpt lat="44.65014" lon="5.04428">
        <ele>509</ele>
        <time>2026-05-26T12:43:16.000Z</time>
      </trkpt>
      <trkpt lat="44.65013" lon="5.04429">
        <ele>509</ele>
        <time>2026-05-26T12:43:17.000Z</time>
      </trkpt>
      <trkpt lat="44.65009" lon="5.04429">
        <ele>507</ele>
        <time>2026-05-26T12:43:18.000Z</time>
      </trkpt>
      <trkpt lat="44.65009" lon="5.04431">
        <ele>504</ele>
        <time>2026-05-26T12:43:19.000Z</time>
      </trkpt>
      <trkpt lat="44.65008" lon="5.04431">
        <ele>504</ele>
        <time>2026-05-26T12:43:20.000Z</time>
      </trkpt>
      <trkpt lat="44.65007" lon="5.04431">
        <ele>505</ele>
        <time>2026-05-26T12:43:21.000Z</time>
      </trkpt>
      <trkpt lat="44.65006" lon="5.04432">
        <ele>504</ele>
        <time>2026-05-26T12:43:22.000Z</time>
      </trkpt>
      <trkpt lat="44.65005" lon="5.04434">
        <ele>505</ele>
        <time>2026-05-26T12:43:23.000Z</time>
      </trkpt>
      <trkpt lat="44.65004" lon="5.04434">
        <ele>504</ele>
        <time>2026-05-26T12:43:24.000Z</time>
      </trkpt>
      <trkpt lat="44.65002" lon="5.04435">
        <ele>505</ele>
        <time>2026-05-26T12:43:25.000Z</time>
      </trkpt>
      <trkpt lat="44.65002" lon="5.04435">
        <ele>504</ele>
        <time>2026-05-26T12:43:26.000Z</time>
      </trkpt>
      <trkpt lat="44.65" lon="5.04435">
        <ele>504</ele>
        <time>2026-05-26T12:43:27.000Z</time>
      </trkpt>
      <trkpt lat="44.64999" lon="5.04436">
        <ele>505</ele>
        <time>2026-05-26T12:43:28.000Z</time>
      </trkpt>
      <trkpt lat="44.64998" lon="5.04437">
        <ele>505</ele>
        <time>2026-05-26T12:43:29.000Z</time>
      </trkpt>
      <trkpt lat="44.64998" lon="5.04437">
        <ele>505</ele>
        <time>2026-05-26T12:43:30.000Z</time>
      </trkpt>
      <trkpt lat="44.64996" lon="5.04438">
        <ele>505</ele>
        <time>2026-05-26T12:43:31.000Z</time>
      </trkpt>
      <trkpt lat="44.64995" lon="5.04438">
        <ele>504</ele>
        <time>2026-05-26T12:43:32.000Z</time>
      </trkpt>
      <trkpt lat="44.64993" lon="5.04439">
        <ele>505</ele>
        <time>2026-05-26T12:43:33.000Z</time>
      </trkpt>
      <trkpt lat="44.64992" lon="5.0444">
        <ele>504</ele>
        <time>2026-05-26T12:43:34.000Z</time>
      </trkpt>
      <trkpt lat="44.64992" lon="5.0444">
        <ele>504</ele>
        <time>2026-05-26T12:43:35.000Z</time>
      </trkpt>
      <trkpt lat="44.64991" lon="5.04441">
        <ele>504</ele>
        <time>2026-05-26T12:43:36.000Z</time>
      </trkpt>
      <trkpt lat="44.64989" lon="5.04442">
        <ele>503</ele>
        <time>2026-05-26T12:43:37.000Z</time>
      </trkpt>
      <trkpt lat="44.64988" lon="5.04443">
        <ele>503</ele>
        <time>2026-05-26T12:43:38.000Z</time>
      </trkpt>
      <trkpt lat="44.64987" lon="5.04444">
        <ele>503</ele>
        <time>2026-05-26T12:43:39.000Z</time>
      </trkpt>
      <trkpt lat="44.64986" lon="5.04445">
        <ele>504</ele>
        <time>2026-05-26T12:43:40.000Z</time>
      </trkpt>
      <trkpt lat="44.64985" lon="5.04445">
        <ele>503</ele>
        <time>2026-05-26T12:43:41.000Z</time>
      </trkpt>
      <trkpt lat="44.64985" lon="5.04445">
        <ele>503</ele>
        <time>2026-05-26T12:43:42.000Z</time>
      </trkpt>
      <trkpt lat="44.64984" lon="5.04446">
        <ele>503</ele>
        <time>2026-05-26T12:43:43.000Z</time>
      </trkpt>
      <trkpt lat="44.64982" lon="5.04446">
        <ele>503</ele>
        <time>2026-05-26T12:43:44.000Z</time>
      </trkpt>
      <trkpt lat="44.64981" lon="5.04446">
        <ele>504</ele>
        <time>2026-05-26T12:43:45.000Z</time>
      </trkpt>
      <trkpt lat="44.6498" lon="5.04447">
        <ele>505</ele>
        <time>2026-05-26T12:43:46.000Z</time>
      </trkpt>
      <trkpt lat="44.64979" lon="5.04447">
        <ele>506</ele>
        <time>2026-05-26T12:43:47.000Z</time>
      </trkpt>
      <trkpt lat="44.64978" lon="5.04447">
        <ele>505</ele>
        <time>2026-05-26T12:43:48.000Z</time>
      </trkpt>
      <trkpt lat="44.64977" lon="5.04447">
        <ele>504</ele>
        <time>2026-05-26T12:43:49.000Z</time>
      </trkpt>
      <trkpt lat="44.64977" lon="5.04447">
        <ele>504</ele>
        <time>2026-05-26T12:43:50.000Z</time>
      </trkpt>
      <trkpt lat="44.64977" lon="5.04447">
        <ele>504</ele>
        <time>2026-05-26T12:43:51.000Z</time>
      </trkpt>
      <trkpt lat="44.64977" lon="5.04447">
        <ele>504</ele>
        <time>2026-05-26T12:43:52.000Z</time>
      </trkpt>
      <trkpt lat="44.64977" lon="5.04447">
        <ele>504</ele>
        <time>2026-05-26T12:43:53.000Z</time>
      </trkpt>
      <trkpt lat="44.64977" lon="5.04447">
        <ele>504</ele>
        <time>2026-05-26T12:43:54.000Z</time>
      </trkpt>
      <trkpt lat="44.64977" lon="5.04447">
        <ele>504</ele>
        <time>2026-05-26T12:43:55.000Z</time>
      </trkpt>
      <trkpt lat="44.64977" lon="5.04447">
        <ele>504</ele>
        <time>2026-05-26T12:43:56.000Z</time>
      </trkpt>
      <trkpt lat="44.64977" lon="5.04447">
        <ele>504</ele>
        <time>2026-05-26T12:43:57.000Z</time>
      </trkpt>
      <trkpt lat="44.64977" lon="5.04447">
        <ele>504</ele>
        <time>2026-05-26T12:43:58.000Z</time>
      </trkpt>
      <trkpt lat="44.64977" lon="5.04447">
        <ele>504</ele>
        <time>2026-05-26T12:43:59.000Z</time>
      </trkpt>
      <trkpt lat="44.64977" lon="5.04447">
        <ele>504</ele>
        <time>2026-05-26T12:44:00.000Z</time>
      </trkpt>
      <trkpt lat="44.64977" lon="5.04447">
        <ele>504</ele>
        <time>2026-05-26T12:44:01.000Z</time>
      </trkpt>
      <trkpt lat="44.64977" lon="5.04447">
        <ele>504</ele>
        <time>2026-05-26T12:44:02.000Z</time>
      </trkpt>
      <trkpt lat="44.64977" lon="5.04447">
        <ele>504</ele>
        <time>2026-05-26T12:44:03.000Z</time>
      </trkpt>
      <trkpt lat="44.64977" lon="5.04447">
        <ele>504</ele>
        <time>2026-05-26T12:44:04.000Z</time>
      </trkpt>
      <trkpt lat="44.64977" lon="5.04447">
        <ele>504</ele>
        <time>2026-05-26T12:44:05.000Z</time>
      </trkpt>
      <trkpt lat="44.64977" lon="5.04447">
        <ele>504</ele>
        <time>2026-05-26T12:44:06.000Z</time>
      </trkpt>
      <trkpt lat="44.64977" lon="5.04447">
        <ele>504</ele>
        <time>2026-05-26T12:44:07.000Z</time>
      </trkpt>
      <trkpt lat="44.64977" lon="5.04447">
        <ele>504</ele>
        <time>2026-05-26T12:44:08.000Z</time>
      </trkpt>
      <trkpt lat="44.64977" lon="5.04447">
        <ele>504</ele>
        <time>2026-05-26T12:44:09.000Z</time>
      </trkpt>
      <trkpt lat="44.64976" lon="5.04447">
        <ele>505</ele>
        <time>2026-05-26T12:44:10.000Z</time>
      </trkpt>
      <trkpt lat="44.64975" lon="5.04449">
        <ele>506</ele>
        <time>2026-05-26T12:44:11.000Z</time>
      </trkpt>
      <trkpt lat="44.64974" lon="5.0445">
        <ele>506</ele>
        <time>2026-05-26T12:44:12.000Z</time>
      </trkpt>
      <trkpt lat="44.64974" lon="5.04451">
        <ele>506</ele>
        <time>2026-05-26T12:44:13.000Z</time>
      </trkpt>
      <trkpt lat="44.64974" lon="5.04452">
        <ele>507</ele>
        <time>2026-05-26T12:44:14.000Z</time>
      </trkpt>
      <trkpt lat="44.64974" lon="5.04453">
        <ele>507</ele>
        <time>2026-05-26T12:44:15.000Z</time>
      </trkpt>
      <trkpt lat="44.64974" lon="5.04454">
        <ele>507</ele>
        <time>2026-05-26T12:44:16.000Z</time>
      </trkpt>
      <trkpt lat="44.64973" lon="5.04456">
        <ele>506</ele>
        <time>2026-05-26T12:44:17.000Z</time>
      </trkpt>
      <trkpt lat="44.64972" lon="5.04457">
        <ele>505</ele>
        <time>2026-05-26T12:44:18.000Z</time>
      </trkpt>
      <trkpt lat="44.64971" lon="5.04458">
        <ele>505</ele>
        <time>2026-05-26T12:44:19.000Z</time>
      </trkpt>
      <trkpt lat="44.64971" lon="5.04459">
        <ele>504</ele>
        <time>2026-05-26T12:44:20.000Z</time>
      </trkpt>
      <trkpt lat="44.6497" lon="5.04459">
        <ele>503</ele>
        <time>2026-05-26T12:44:21.000Z</time>
      </trkpt>
      <trkpt lat="44.64969" lon="5.0446">
        <ele>503</ele>
        <time>2026-05-26T12:44:22.000Z</time>
      </trkpt>
      <trkpt lat="44.64969" lon="5.04461">
        <ele>504</ele>
        <time>2026-05-26T12:44:23.000Z</time>
      </trkpt>
      <trkpt lat="44.64968" lon="5.04462">
        <ele>504</ele>
        <time>2026-05-26T12:44:24.000Z</time>
      </trkpt>
      <trkpt lat="44.64967" lon="5.04463">
        <ele>504</ele>
        <time>2026-05-26T12:44:25.000Z</time>
      </trkpt>
      <trkpt lat="44.64967" lon="5.04464">
        <ele>504</ele>
        <time>2026-05-26T12:44:26.000Z</time>
      </trkpt>
      <trkpt lat="44.64966" lon="5.04465">
        <ele>504</ele>
        <time>2026-05-26T12:44:27.000Z</time>
      </trkpt>
      <trkpt lat="44.64966" lon="5.04465">
        <ele>504</ele>
        <time>2026-05-26T12:44:28.000Z</time>
      </trkpt>
      <trkpt lat="44.64966" lon="5.04465">
        <ele>504</ele>
        <time>2026-05-26T12:44:29.000Z</time>
      </trkpt>
      <trkpt lat="44.64966" lon="5.04465">
        <ele>504</ele>
        <time>2026-05-26T12:44:30.000Z</time>
      </trkpt>
      <trkpt lat="44.64966" lon="5.04465">
        <ele>504</ele>
        <time>2026-05-26T12:44:31.000Z</time>
      </trkpt>
      <trkpt lat="44.64966" lon="5.04465">
        <ele>504</ele>
        <time>2026-05-26T12:44:32.000Z</time>
      </trkpt>
      <trkpt lat="44.64966" lon="5.04465">
        <ele>504</ele>
        <time>2026-05-26T12:44:33.000Z</time>
      </trkpt>
      <trkpt lat="44.64966" lon="5.04465">
        <ele>504</ele>
        <time>2026-05-26T12:44:34.000Z</time>
      </trkpt>
      <trkpt lat="44.64966" lon="5.04465">
        <ele>504</ele>
        <time>2026-05-26T12:44:35.000Z</time>
      </trkpt>
      <trkpt lat="44.64966" lon="5.04465">
        <ele>504</ele>
        <time>2026-05-26T12:44:36.000Z</time>
      </trkpt>
      <trkpt lat="44.64966" lon="5.04465">
        <ele>504</ele>
        <time>2026-05-26T12:44:37.000Z</time>
      </trkpt>
      <trkpt lat="44.64966" lon="5.04465">
        <ele>504</ele>
        <time>2026-05-26T12:44:38.000Z</time>
      </trkpt>
      <trkpt lat="44.64966" lon="5.04465">
        <ele>504</ele>
        <time>2026-05-26T12:44:39.000Z</time>
      </trkpt>
      <trkpt lat="44.64967" lon="5.04465">
        <ele>506</ele>
        <time>2026-05-26T12:44:40.000Z</time>
      </trkpt>
      <trkpt lat="44.64967" lon="5.04465">
        <ele>505</ele>
        <time>2026-05-26T12:44:41.000Z</time>
      </trkpt>
      <trkpt lat="44.64967" lon="5.04466">
        <ele>505</ele>
        <time>2026-05-26T12:44:42.000Z</time>
      </trkpt>
      <trkpt lat="44.64967" lon="5.04466">
        <ele>505</ele>
        <time>2026-05-26T12:44:43.000Z</time>
      </trkpt>
      <trkpt lat="44.64968" lon="5.04467">
        <ele>504</ele>
        <time>2026-05-26T12:44:44.000Z</time>
      </trkpt>
      <trkpt lat="44.64968" lon="5.04468">
        <ele>504</ele>
        <time>2026-05-26T12:44:45.000Z</time>
      </trkpt>
      <trkpt lat="44.64968" lon="5.04469">
        <ele>504</ele>
        <time>2026-05-26T12:44:46.000Z</time>
      </trkpt>
      <trkpt lat="44.64968" lon="5.04469">
        <ele>504</ele>
        <time>2026-05-26T12:44:47.000Z</time>
      </trkpt>
      <trkpt lat="44.64968" lon="5.04469">
        <ele>504</ele>
        <time>2026-05-26T12:44:48.000Z</time>
      </trkpt>
      <trkpt lat="44.64968" lon="5.04469">
        <ele>504</ele>
        <time>2026-05-26T12:44:49.000Z</time>
      </trkpt>
      <trkpt lat="44.64968" lon="5.04469">
        <ele>504</ele>
        <time>2026-05-26T12:44:50.000Z</time>
      </trkpt>
      <trkpt lat="44.64968" lon="5.04469">
        <ele>504</ele>
        <time>2026-05-26T12:44:51.000Z</time>
      </trkpt>
      <trkpt lat="44.64968" lon="5.04469">
        <ele>504</ele>
        <time>2026-05-26T12:44:52.000Z</time>
      </trkpt>
      <trkpt lat="44.64968" lon="5.04469">
        <ele>504</ele>
        <time>2026-05-26T12:44:53.000Z</time>
      </trkpt>
      <trkpt lat="44.64968" lon="5.04469">
        <ele>504</ele>
        <time>2026-05-26T12:44:54.000Z</time>
      </trkpt>
      <trkpt lat="44.64968" lon="5.04469">
        <ele>504</ele>
        <time>2026-05-26T12:44:55.000Z</time>
      </trkpt>
      <trkpt lat="44.64968" lon="5.04469">
        <ele>504</ele>
        <time>2026-05-26T12:44:56.000Z</time>
      </trkpt>
      <trkpt lat="44.64968" lon="5.04469">
        <ele>504</ele>
        <time>2026-05-26T12:44:57.000Z</time>
      </trkpt>
      <trkpt lat="44.64967" lon="5.04468">
        <ele>505</ele>
        <time>2026-05-26T12:44:58.000Z</time>
      </trkpt>
      <trkpt lat="44.64966" lon="5.04469">
        <ele>505</ele>
        <time>2026-05-26T12:44:59.000Z</time>
      </trkpt>
      <trkpt lat="44.64966" lon="5.0447">
        <ele>505</ele>
        <time>2026-05-26T12:45:00.000Z</time>
      </trkpt>
      <trkpt lat="44.64965" lon="5.0447">
        <ele>505</ele>
        <time>2026-05-26T12:45:01.000Z</time>
      </trkpt>
      <trkpt lat="44.64966" lon="5.04469">
        <ele>505</ele>
        <time>2026-05-26T12:45:02.000Z</time>
      </trkpt>
      <trkpt lat="44.64968" lon="5.04467">
        <ele>505</ele>
        <time>2026-05-26T12:45:03.000Z</time>
      </trkpt>
      <trkpt lat="44.64968" lon="5.04466">
        <ele>504</ele>
        <time>2026-05-26T12:45:04.000Z</time>
      </trkpt>
      <trkpt lat="44.64968" lon="5.04466">
        <ele>504</ele>
        <time>2026-05-26T12:45:05.000Z</time>
      </trkpt>
      <trkpt lat="44.64968" lon="5.04466">
        <ele>504</ele>
        <time>2026-05-26T12:45:06.000Z</time>
      </trkpt>
      <trkpt lat="44.64968" lon="5.04466">
        <ele>504</ele>
        <time>2026-05-26T12:45:07.000Z</time>
      </trkpt>
      <trkpt lat="44.64968" lon="5.04466">
        <ele>504</ele>
        <time>2026-05-26T12:45:08.000Z</time>
      </trkpt>
      <trkpt lat="44.64968" lon="5.04466">
        <ele>504</ele>
        <time>2026-05-26T12:45:09.000Z</time>
      </trkpt>
      <trkpt lat="44.64968" lon="5.04466">
        <ele>504</ele>
        <time>2026-05-26T12:45:10.000Z</time>
      </trkpt>
      <trkpt lat="44.64968" lon="5.04466">
        <ele>504</ele>
        <time>2026-05-26T12:45:11.000Z</time>
      </trkpt>
      <trkpt lat="44.64967" lon="5.04467">
        <ele>504</ele>
        <time>2026-05-26T12:45:12.000Z</time>
      </trkpt>
      <trkpt lat="44.64966" lon="5.04469">
        <ele>505</ele>
        <time>2026-05-26T12:45:13.000Z</time>
      </trkpt>
      <trkpt lat="44.64965" lon="5.04471">
        <ele>505</ele>
        <time>2026-05-26T12:45:14.000Z</time>
      </trkpt>
      <trkpt lat="44.64963" lon="5.04472">
        <ele>505</ele>
        <time>2026-05-26T12:45:15.000Z</time>
      </trkpt>
      <trkpt lat="44.64962" lon="5.04473">
        <ele>504</ele>
        <time>2026-05-26T12:45:16.000Z</time>
      </trkpt>
      <trkpt lat="44.64961" lon="5.04474">
        <ele>504</ele>
        <time>2026-05-26T12:45:17.000Z</time>
      </trkpt>
      <trkpt lat="44.64961" lon="5.04475">
        <ele>504</ele>
        <time>2026-05-26T12:45:18.000Z</time>
      </trkpt>
      <trkpt lat="44.6496" lon="5.04477">
        <ele>504</ele>
        <time>2026-05-26T12:45:19.000Z</time>
      </trkpt>
      <trkpt lat="44.6496" lon="5.04479">
        <ele>505</ele>
        <time>2026-05-26T12:45:20.000Z</time>
      </trkpt>
      <trkpt lat="44.6496" lon="5.0448">
        <ele>505</ele>
        <time>2026-05-26T12:45:21.000Z</time>
      </trkpt>
      <trkpt lat="44.6496" lon="5.04481">
        <ele>506</ele>
        <time>2026-05-26T12:45:22.000Z</time>
      </trkpt>
      <trkpt lat="44.64961" lon="5.04483">
        <ele>506</ele>
        <time>2026-05-26T12:45:23.000Z</time>
      </trkpt>
      <trkpt lat="44.6496" lon="5.04484">
        <ele>508</ele>
        <time>2026-05-26T12:45:24.000Z</time>
      </trkpt>
      <trkpt lat="44.6496" lon="5.04486">
        <ele>508</ele>
        <time>2026-05-26T12:45:25.000Z</time>
      </trkpt>
      <trkpt lat="44.64961" lon="5.04487">
        <ele>509</ele>
        <time>2026-05-26T12:45:26.000Z</time>
      </trkpt>
      <trkpt lat="44.64959" lon="5.04487">
        <ele>511</ele>
        <time>2026-05-26T12:45:27.000Z</time>
      </trkpt>
      <trkpt lat="44.64959" lon="5.04485">
        <ele>514</ele>
        <time>2026-05-26T12:45:28.000Z</time>
      </trkpt>
      <trkpt lat="44.64958" lon="5.04486">
        <ele>515</ele>
        <time>2026-05-26T12:45:29.000Z</time>
      </trkpt>
      <trkpt lat="44.64957" lon="5.04486">
        <ele>516</ele>
        <time>2026-05-26T12:45:30.000Z</time>
      </trkpt>
      <trkpt lat="44.64957" lon="5.04487">
        <ele>519</ele>
        <time>2026-05-26T12:45:31.000Z</time>
      </trkpt>
      <trkpt lat="44.64956" lon="5.0449">
        <ele>519</ele>
        <time>2026-05-26T12:45:32.000Z</time>
      </trkpt>
      <trkpt lat="44.64956" lon="5.04491">
        <ele>518</ele>
        <time>2026-05-26T12:45:33.000Z</time>
      </trkpt>
      <trkpt lat="44.64954" lon="5.04493">
        <ele>518</ele>
        <time>2026-05-26T12:45:34.000Z</time>
      </trkpt>
      <trkpt lat="44.64954" lon="5.04495">
        <ele>518</ele>
        <time>2026-05-26T12:45:35.000Z</time>
      </trkpt>
      <trkpt lat="44.64954" lon="5.04497">
        <ele>518</ele>
        <time>2026-05-26T12:45:36.000Z</time>
      </trkpt>
      <trkpt lat="44.64953" lon="5.04498">
        <ele>517</ele>
        <time>2026-05-26T12:45:37.000Z</time>
      </trkpt>
      <trkpt lat="44.64952" lon="5.04501">
        <ele>516</ele>
        <time>2026-05-26T12:45:38.000Z</time>
      </trkpt>
      <trkpt lat="44.64951" lon="5.04502">
        <ele>513</ele>
        <time>2026-05-26T12:45:39.000Z</time>
      </trkpt>
      <trkpt lat="44.64951" lon="5.04503">
        <ele>513</ele>
        <time>2026-05-26T12:45:40.000Z</time>
      </trkpt>
      <trkpt lat="44.64951" lon="5.04506">
        <ele>514</ele>
        <time>2026-05-26T12:45:41.000Z</time>
      </trkpt>
      <trkpt lat="44.64951" lon="5.04508">
        <ele>514</ele>
        <time>2026-05-26T12:45:42.000Z</time>
      </trkpt>
      <trkpt lat="44.64951" lon="5.04509">
        <ele>512</ele>
        <time>2026-05-26T12:45:43.000Z</time>
      </trkpt>
      <trkpt lat="44.6495" lon="5.0451">
        <ele>511</ele>
        <time>2026-05-26T12:45:44.000Z</time>
      </trkpt>
      <trkpt lat="44.64951" lon="5.04511">
        <ele>509</ele>
        <time>2026-05-26T12:45:45.000Z</time>
      </trkpt>
      <trkpt lat="44.64951" lon="5.04508">
        <ele>509</ele>
        <time>2026-05-26T12:45:46.000Z</time>
      </trkpt>
      <trkpt lat="44.64951" lon="5.04511">
        <ele>509</ele>
        <time>2026-05-26T12:45:47.000Z</time>
      </trkpt>
      <trkpt lat="44.64951" lon="5.04511">
        <ele>509</ele>
        <time>2026-05-26T12:45:48.000Z</time>
      </trkpt>
      <trkpt lat="44.64951" lon="5.04511">
        <ele>509</ele>
        <time>2026-05-26T12:45:49.000Z</time>
      </trkpt>
      <trkpt lat="44.64951" lon="5.04511">
        <ele>509</ele>
        <time>2026-05-26T12:45:50.000Z</time>
      </trkpt>
      <trkpt lat="44.64949" lon="5.04512">
        <ele>510</ele>
        <time>2026-05-26T12:45:51.000Z</time>
      </trkpt>
      <trkpt lat="44.64949" lon="5.04513">
        <ele>511</ele>
        <time>2026-05-26T12:45:52.000Z</time>
      </trkpt>
      <trkpt lat="44.64948" lon="5.04514">
        <ele>510</ele>
        <time>2026-05-26T12:45:53.000Z</time>
      </trkpt>
      <trkpt lat="44.64948" lon="5.04514">
        <ele>510</ele>
        <time>2026-05-26T12:45:54.000Z</time>
      </trkpt>
      <trkpt lat="44.64948" lon="5.04514">
        <ele>510</ele>
        <time>2026-05-26T12:45:55.000Z</time>
      </trkpt>
      <trkpt lat="44.64947" lon="5.04516">
        <ele>510</ele>
        <time>2026-05-26T12:45:56.000Z</time>
      </trkpt>
      <trkpt lat="44.64947" lon="5.04517">
        <ele>511</ele>
        <time>2026-05-26T12:45:57.000Z</time>
      </trkpt>
      <trkpt lat="44.64947" lon="5.04519">
        <ele>511</ele>
        <time>2026-05-26T12:45:58.000Z</time>
      </trkpt>
      <trkpt lat="44.64947" lon="5.04521">
        <ele>510</ele>
        <time>2026-05-26T12:45:59.000Z</time>
      </trkpt>
      <trkpt lat="44.64948" lon="5.04523">
        <ele>511</ele>
        <time>2026-05-26T12:46:00.000Z</time>
      </trkpt>
      <trkpt lat="44.64947" lon="5.04525">
        <ele>511</ele>
        <time>2026-05-26T12:46:01.000Z</time>
      </trkpt>
      <trkpt lat="44.64947" lon="5.04527">
        <ele>512</ele>
        <time>2026-05-26T12:46:02.000Z</time>
      </trkpt>
      <trkpt lat="44.64946" lon="5.04529">
        <ele>512</ele>
        <time>2026-05-26T12:46:03.000Z</time>
      </trkpt>
      <trkpt lat="44.64946" lon="5.0453">
        <ele>513</ele>
        <time>2026-05-26T12:46:04.000Z</time>
      </trkpt>
      <trkpt lat="44.64945" lon="5.04531">
        <ele>512</ele>
        <time>2026-05-26T12:46:05.000Z</time>
      </trkpt>
      <trkpt lat="44.64944" lon="5.04533">
        <ele>512</ele>
        <time>2026-05-26T12:46:06.000Z</time>
      </trkpt>
      <trkpt lat="44.64943" lon="5.04535">
        <ele>512</ele>
        <time>2026-05-26T12:46:07.000Z</time>
      </trkpt>
      <trkpt lat="44.64942" lon="5.04535">
        <ele>511</ele>
        <time>2026-05-26T12:46:08.000Z</time>
      </trkpt>
      <trkpt lat="44.64941" lon="5.04536">
        <ele>511</ele>
        <time>2026-05-26T12:46:09.000Z</time>
      </trkpt>
      <trkpt lat="44.64941" lon="5.04538">
        <ele>511</ele>
        <time>2026-05-26T12:46:10.000Z</time>
      </trkpt>
      <trkpt lat="44.64941" lon="5.04539">
        <ele>511</ele>
        <time>2026-05-26T12:46:11.000Z</time>
      </trkpt>
      <trkpt lat="44.6494" lon="5.04541">
        <ele>511</ele>
        <time>2026-05-26T12:46:12.000Z</time>
      </trkpt>
      <trkpt lat="44.64939" lon="5.04542">
        <ele>511</ele>
        <time>2026-05-26T12:46:13.000Z</time>
      </trkpt>
      <trkpt lat="44.64938" lon="5.04543">
        <ele>511</ele>
        <time>2026-05-26T12:46:14.000Z</time>
      </trkpt>
      <trkpt lat="44.64938" lon="5.04544">
        <ele>512</ele>
        <time>2026-05-26T12:46:15.000Z</time>
      </trkpt>
      <trkpt lat="44.64937" lon="5.04546">
        <ele>512</ele>
        <time>2026-05-26T12:46:16.000Z</time>
      </trkpt>
      <trkpt lat="44.64936" lon="5.04547">
        <ele>514</ele>
        <time>2026-05-26T12:46:17.000Z</time>
      </trkpt>
      <trkpt lat="44.64936" lon="5.04548">
        <ele>513</ele>
        <time>2026-05-26T12:46:18.000Z</time>
      </trkpt>
      <trkpt lat="44.64935" lon="5.04549">
        <ele>513</ele>
        <time>2026-05-26T12:46:19.000Z</time>
      </trkpt>
      <trkpt lat="44.64934" lon="5.04551">
        <ele>514</ele>
        <time>2026-05-26T12:46:20.000Z</time>
      </trkpt>
      <trkpt lat="44.64934" lon="5.04554">
        <ele>513</ele>
        <time>2026-05-26T12:46:21.000Z</time>
      </trkpt>
      <trkpt lat="44.64932" lon="5.04558">
        <ele>512</ele>
        <time>2026-05-26T12:46:22.000Z</time>
      </trkpt>
      <trkpt lat="44.64933" lon="5.04561">
        <ele>511</ele>
        <time>2026-05-26T12:46:23.000Z</time>
      </trkpt>
      <trkpt lat="44.64932" lon="5.04563">
        <ele>511</ele>
        <time>2026-05-26T12:46:24.000Z</time>
      </trkpt>
      <trkpt lat="44.64931" lon="5.04566">
        <ele>511</ele>
        <time>2026-05-26T12:46:25.000Z</time>
      </trkpt>
      <trkpt lat="44.64931" lon="5.04568">
        <ele>511</ele>
        <time>2026-05-26T12:46:26.000Z</time>
      </trkpt>
      <trkpt lat="44.6493" lon="5.0457">
        <ele>511</ele>
        <time>2026-05-26T12:46:27.000Z</time>
      </trkpt>
      <trkpt lat="44.64931" lon="5.04572">
        <ele>510</ele>
        <time>2026-05-26T12:46:28.000Z</time>
      </trkpt>
      <trkpt lat="44.64931" lon="5.04574">
        <ele>510</ele>
        <time>2026-05-26T12:46:29.000Z</time>
      </trkpt>
      <trkpt lat="44.64931" lon="5.04576">
        <ele>510</ele>
        <time>2026-05-26T12:46:30.000Z</time>
      </trkpt>
      <trkpt lat="44.6493" lon="5.04577">
        <ele>510</ele>
        <time>2026-05-26T12:46:31.000Z</time>
      </trkpt>
      <trkpt lat="44.64931" lon="5.04579">
        <ele>510</ele>
        <time>2026-05-26T12:46:32.000Z</time>
      </trkpt>
      <trkpt lat="44.64931" lon="5.0458">
        <ele>510</ele>
        <time>2026-05-26T12:46:33.000Z</time>
      </trkpt>
      <trkpt lat="44.64931" lon="5.04582">
        <ele>509</ele>
        <time>2026-05-26T12:46:34.000Z</time>
      </trkpt>
      <trkpt lat="44.64931" lon="5.04583">
        <ele>510</ele>
        <time>2026-05-26T12:46:35.000Z</time>
      </trkpt>
      <trkpt lat="44.64931" lon="5.04585">
        <ele>510</ele>
        <time>2026-05-26T12:46:36.000Z</time>
      </trkpt>
      <trkpt lat="44.64931" lon="5.04587">
        <ele>509</ele>
        <time>2026-05-26T12:46:37.000Z</time>
      </trkpt>
      <trkpt lat="44.64931" lon="5.04589">
        <ele>509</ele>
        <time>2026-05-26T12:46:38.000Z</time>
      </trkpt>
      <trkpt lat="44.64932" lon="5.04592">
        <ele>509</ele>
        <time>2026-05-26T12:46:39.000Z</time>
      </trkpt>
      <trkpt lat="44.64932" lon="5.04594">
        <ele>509</ele>
        <time>2026-05-26T12:46:40.000Z</time>
      </trkpt>
      <trkpt lat="44.64932" lon="5.04595">
        <ele>509</ele>
        <time>2026-05-26T12:46:41.000Z</time>
      </trkpt>
      <trkpt lat="44.64932" lon="5.04596">
        <ele>509</ele>
        <time>2026-05-26T12:46:42.000Z</time>
      </trkpt>
      <trkpt lat="44.64932" lon="5.04598">
        <ele>508</ele>
        <time>2026-05-26T12:46:43.000Z</time>
      </trkpt>
      <trkpt lat="44.64932" lon="5.04599">
        <ele>508</ele>
        <time>2026-05-26T12:46:44.000Z</time>
      </trkpt>
      <trkpt lat="44.64932" lon="5.046">
        <ele>506</ele>
        <time>2026-05-26T12:46:45.000Z</time>
      </trkpt>
      <trkpt lat="44.64933" lon="5.04602">
        <ele>506</ele>
        <time>2026-05-26T12:46:46.000Z</time>
      </trkpt>
      <trkpt lat="44.64933" lon="5.04604">
        <ele>506</ele>
        <time>2026-05-26T12:46:47.000Z</time>
      </trkpt>
      <trkpt lat="44.64934" lon="5.04606">
        <ele>506</ele>
        <time>2026-05-26T12:46:48.000Z</time>
      </trkpt>
      <trkpt lat="44.64933" lon="5.04608">
        <ele>507</ele>
        <time>2026-05-26T12:46:49.000Z</time>
      </trkpt>
      <trkpt lat="44.64933" lon="5.0461">
        <ele>506</ele>
        <time>2026-05-26T12:46:50.000Z</time>
      </trkpt>
      <trkpt lat="44.64932" lon="5.04613">
        <ele>506</ele>
        <time>2026-05-26T12:46:51.000Z</time>
      </trkpt>
      <trkpt lat="44.64932" lon="5.04615">
        <ele>506</ele>
        <time>2026-05-26T12:46:52.000Z</time>
      </trkpt>
      <trkpt lat="44.64932" lon="5.04618">
        <ele>506</ele>
        <time>2026-05-26T12:46:53.000Z</time>
      </trkpt>
      <trkpt lat="44.64932" lon="5.0462">
        <ele>506</ele>
        <time>2026-05-26T12:46:54.000Z</time>
      </trkpt>
      <trkpt lat="44.64932" lon="5.04622">
        <ele>506</ele>
        <time>2026-05-26T12:46:55.000Z</time>
      </trkpt>
      <trkpt lat="44.64932" lon="5.04624">
        <ele>507</ele>
        <time>2026-05-26T12:46:56.000Z</time>
      </trkpt>
      <trkpt lat="44.64931" lon="5.04626">
        <ele>507</ele>
        <time>2026-05-26T12:46:57.000Z</time>
      </trkpt>
      <trkpt lat="44.64931" lon="5.04627">
        <ele>507</ele>
        <time>2026-05-26T12:46:58.000Z</time>
      </trkpt>
      <trkpt lat="44.64931" lon="5.04628">
        <ele>506</ele>
        <time>2026-05-26T12:46:59.000Z</time>
      </trkpt>
      <trkpt lat="44.64932" lon="5.0463">
        <ele>507</ele>
        <time>2026-05-26T12:47:00.000Z</time>
      </trkpt>
      <trkpt lat="44.64932" lon="5.04632">
        <ele>506</ele>
        <time>2026-05-26T12:47:01.000Z</time>
      </trkpt>
      <trkpt lat="44.64932" lon="5.04634">
        <ele>507</ele>
        <time>2026-05-26T12:47:02.000Z</time>
      </trkpt>
      <trkpt lat="44.64933" lon="5.04636">
        <ele>507</ele>
        <time>2026-05-26T12:47:03.000Z</time>
      </trkpt>
      <trkpt lat="44.64933" lon="5.04637">
        <ele>506</ele>
        <time>2026-05-26T12:47:04.000Z</time>
      </trkpt>
      <trkpt lat="44.64933" lon="5.04639">
        <ele>506</ele>
        <time>2026-05-26T12:47:05.000Z</time>
      </trkpt>
      <trkpt lat="44.64933" lon="5.04641">
        <ele>507</ele>
        <time>2026-05-26T12:47:06.000Z</time>
      </trkpt>
      <trkpt lat="44.64933" lon="5.04643">
        <ele>507</ele>
        <time>2026-05-26T12:47:07.000Z</time>
      </trkpt>
      <trkpt lat="44.64932" lon="5.04644">
        <ele>507</ele>
        <time>2026-05-26T12:47:08.000Z</time>
      </trkpt>
      <trkpt lat="44.64932" lon="5.04645">
        <ele>507</ele>
        <time>2026-05-26T12:47:09.000Z</time>
      </trkpt>
      <trkpt lat="44.64932" lon="5.04645">
        <ele>506</ele>
        <time>2026-05-26T12:47:10.000Z</time>
      </trkpt>
      <trkpt lat="44.64932" lon="5.04646">
        <ele>506</ele>
        <time>2026-05-26T12:47:11.000Z</time>
      </trkpt>
      <trkpt lat="44.64932" lon="5.04647">
        <ele>506</ele>
        <time>2026-05-26T12:47:12.000Z</time>
      </trkpt>
      <trkpt lat="44.64931" lon="5.04648">
        <ele>506</ele>
        <time>2026-05-26T12:47:13.000Z</time>
      </trkpt>
      <trkpt lat="44.6493" lon="5.04649">
        <ele>505</ele>
        <time>2026-05-26T12:47:14.000Z</time>
      </trkpt>
      <trkpt lat="44.6493" lon="5.04651">
        <ele>506</ele>
        <time>2026-05-26T12:47:15.000Z</time>
      </trkpt>
      <trkpt lat="44.64929" lon="5.04652">
        <ele>505</ele>
        <time>2026-05-26T12:47:16.000Z</time>
      </trkpt>
      <trkpt lat="44.64928" lon="5.04653">
        <ele>505</ele>
        <time>2026-05-26T12:47:17.000Z</time>
      </trkpt>
      <trkpt lat="44.64928" lon="5.04654">
        <ele>505</ele>
        <time>2026-05-26T12:47:18.000Z</time>
      </trkpt>
      <trkpt lat="44.64927" lon="5.04656">
        <ele>506</ele>
        <time>2026-05-26T12:47:19.000Z</time>
      </trkpt>
      <trkpt lat="44.64927" lon="5.04657">
        <ele>506</ele>
        <time>2026-05-26T12:47:20.000Z</time>
      </trkpt>
      <trkpt lat="44.64926" lon="5.0466">
        <ele>506</ele>
        <time>2026-05-26T12:47:21.000Z</time>
      </trkpt>
      <trkpt lat="44.64926" lon="5.04662">
        <ele>506</ele>
        <time>2026-05-26T12:47:22.000Z</time>
      </trkpt>
      <trkpt lat="44.64925" lon="5.04663">
        <ele>505</ele>
        <time>2026-05-26T12:47:23.000Z</time>
      </trkpt>
      <trkpt lat="44.64925" lon="5.04666">
        <ele>504</ele>
        <time>2026-05-26T12:47:24.000Z</time>
      </trkpt>
      <trkpt lat="44.64925" lon="5.04668">
        <ele>504</ele>
        <time>2026-05-26T12:47:25.000Z</time>
      </trkpt>
      <trkpt lat="44.64925" lon="5.0467">
        <ele>505</ele>
        <time>2026-05-26T12:47:26.000Z</time>
      </trkpt>
      <trkpt lat="44.64925" lon="5.04672">
        <ele>505</ele>
        <time>2026-05-26T12:47:27.000Z</time>
      </trkpt>
      <trkpt lat="44.64925" lon="5.04673">
        <ele>505</ele>
        <time>2026-05-26T12:47:28.000Z</time>
      </trkpt>
      <trkpt lat="44.64925" lon="5.04674">
        <ele>505</ele>
        <time>2026-05-26T12:47:29.000Z</time>
      </trkpt>
      <trkpt lat="44.64925" lon="5.04675">
        <ele>506</ele>
        <time>2026-05-26T12:47:30.000Z</time>
      </trkpt>
      <trkpt lat="44.64925" lon="5.04677">
        <ele>507</ele>
        <time>2026-05-26T12:47:31.000Z</time>
      </trkpt>
      <trkpt lat="44.64925" lon="5.04679">
        <ele>507</ele>
        <time>2026-05-26T12:47:32.000Z</time>
      </trkpt>
      <trkpt lat="44.64926" lon="5.04681">
        <ele>507</ele>
        <time>2026-05-26T12:47:33.000Z</time>
      </trkpt>
      <trkpt lat="44.64926" lon="5.04683">
        <ele>506</ele>
        <time>2026-05-26T12:47:34.000Z</time>
      </trkpt>
      <trkpt lat="44.64926" lon="5.04685">
        <ele>506</ele>
        <time>2026-05-26T12:47:35.000Z</time>
      </trkpt>
      <trkpt lat="44.64927" lon="5.04687">
        <ele>506</ele>
        <time>2026-05-26T12:47:36.000Z</time>
      </trkpt>
      <trkpt lat="44.64927" lon="5.04687">
        <ele>506</ele>
        <time>2026-05-26T12:47:37.000Z</time>
      </trkpt>
      <trkpt lat="44.64927" lon="5.04688">
        <ele>505</ele>
        <time>2026-05-26T12:47:38.000Z</time>
      </trkpt>
      <trkpt lat="44.64927" lon="5.0469">
        <ele>506</ele>
        <time>2026-05-26T12:47:39.000Z</time>
      </trkpt>
      <trkpt lat="44.64928" lon="5.04692">
        <ele>505</ele>
        <time>2026-05-26T12:47:40.000Z</time>
      </trkpt>
      <trkpt lat="44.64928" lon="5.04694">
        <ele>505</ele>
        <time>2026-05-26T12:47:41.000Z</time>
      </trkpt>
      <trkpt lat="44.64928" lon="5.04695">
        <ele>504</ele>
        <time>2026-05-26T12:47:42.000Z</time>
      </trkpt>
      <trkpt lat="44.64929" lon="5.04697">
        <ele>503</ele>
        <time>2026-05-26T12:47:43.000Z</time>
      </trkpt>
      <trkpt lat="44.64929" lon="5.04699">
        <ele>503</ele>
        <time>2026-05-26T12:47:44.000Z</time>
      </trkpt>
      <trkpt lat="44.64929" lon="5.047">
        <ele>503</ele>
        <time>2026-05-26T12:47:45.000Z</time>
      </trkpt>
      <trkpt lat="44.64929" lon="5.04701">
        <ele>503</ele>
        <time>2026-05-26T12:47:46.000Z</time>
      </trkpt>
      <trkpt lat="44.64929" lon="5.04703">
        <ele>502</ele>
        <time>2026-05-26T12:47:47.000Z</time>
      </trkpt>
      <trkpt lat="44.64929" lon="5.04704">
        <ele>501</ele>
        <time>2026-05-26T12:47:48.000Z</time>
      </trkpt>
      <trkpt lat="44.64929" lon="5.04706">
        <ele>501</ele>
        <time>2026-05-26T12:47:49.000Z</time>
      </trkpt>
      <trkpt lat="44.64929" lon="5.04709">
        <ele>501</ele>
        <time>2026-05-26T12:47:50.000Z</time>
      </trkpt>
      <trkpt lat="44.64929" lon="5.0471">
        <ele>500</ele>
        <time>2026-05-26T12:47:51.000Z</time>
      </trkpt>
      <trkpt lat="44.64929" lon="5.04712">
        <ele>500</ele>
        <time>2026-05-26T12:47:52.000Z</time>
      </trkpt>
      <trkpt lat="44.64929" lon="5.04714">
        <ele>500</ele>
        <time>2026-05-26T12:47:53.000Z</time>
      </trkpt>
      <trkpt lat="44.64929" lon="5.04715">
        <ele>499</ele>
        <time>2026-05-26T12:47:54.000Z</time>
      </trkpt>
      <trkpt lat="44.64929" lon="5.04717">
        <ele>499</ele>
        <time>2026-05-26T12:47:55.000Z</time>
      </trkpt>
      <trkpt lat="44.64928" lon="5.04718">
        <ele>499</ele>
        <time>2026-05-26T12:47:56.000Z</time>
      </trkpt>
      <trkpt lat="44.64928" lon="5.0472">
        <ele>500</ele>
        <time>2026-05-26T12:47:57.000Z</time>
      </trkpt>
      <trkpt lat="44.64927" lon="5.04722">
        <ele>499</ele>
        <time>2026-05-26T12:47:58.000Z</time>
      </trkpt>
      <trkpt lat="44.64927" lon="5.04723">
        <ele>500</ele>
        <time>2026-05-26T12:47:59.000Z</time>
      </trkpt>
      <trkpt lat="44.64927" lon="5.04726">
        <ele>500</ele>
        <time>2026-05-26T12:48:00.000Z</time>
      </trkpt>
      <trkpt lat="44.64927" lon="5.04728">
        <ele>500</ele>
        <time>2026-05-26T12:48:01.000Z</time>
      </trkpt>
      <trkpt lat="44.64927" lon="5.0473">
        <ele>500</ele>
        <time>2026-05-26T12:48:02.000Z</time>
      </trkpt>
      <trkpt lat="44.64926" lon="5.04732">
        <ele>500</ele>
        <time>2026-05-26T12:48:03.000Z</time>
      </trkpt>
      <trkpt lat="44.64927" lon="5.04735">
        <ele>499</ele>
        <time>2026-05-26T12:48:04.000Z</time>
      </trkpt>
      <trkpt lat="44.64927" lon="5.04736">
        <ele>499</ele>
        <time>2026-05-26T12:48:05.000Z</time>
      </trkpt>
      <trkpt lat="44.64928" lon="5.04737">
        <ele>498</ele>
        <time>2026-05-26T12:48:06.000Z</time>
      </trkpt>
      <trkpt lat="44.64929" lon="5.04739">
        <ele>498</ele>
        <time>2026-05-26T12:48:07.000Z</time>
      </trkpt>
      <trkpt lat="44.6493" lon="5.04741">
        <ele>498</ele>
        <time>2026-05-26T12:48:08.000Z</time>
      </trkpt>
      <trkpt lat="44.6493" lon="5.04743">
        <ele>499</ele>
        <time>2026-05-26T12:48:09.000Z</time>
      </trkpt>
      <trkpt lat="44.6493" lon="5.04744">
        <ele>499</ele>
        <time>2026-05-26T12:48:10.000Z</time>
      </trkpt>
      <trkpt lat="44.64931" lon="5.04746">
        <ele>499</ele>
        <time>2026-05-26T12:48:11.000Z</time>
      </trkpt>
      <trkpt lat="44.64932" lon="5.04748">
        <ele>498</ele>
        <time>2026-05-26T12:48:12.000Z</time>
      </trkpt>
      <trkpt lat="44.64934" lon="5.04749">
        <ele>497</ele>
        <time>2026-05-26T12:48:13.000Z</time>
      </trkpt>
      <trkpt lat="44.64935" lon="5.0475">
        <ele>497</ele>
        <time>2026-05-26T12:48:14.000Z</time>
      </trkpt>
      <trkpt lat="44.64936" lon="5.04751">
        <ele>497</ele>
        <time>2026-05-26T12:48:15.000Z</time>
      </trkpt>
      <trkpt lat="44.64936" lon="5.04752">
        <ele>497</ele>
        <time>2026-05-26T12:48:16.000Z</time>
      </trkpt>
      <trkpt lat="44.64937" lon="5.04753">
        <ele>497</ele>
        <time>2026-05-26T12:48:17.000Z</time>
      </trkpt>
      <trkpt lat="44.64938" lon="5.04753">
        <ele>496</ele>
        <time>2026-05-26T12:48:18.000Z</time>
      </trkpt>
      <trkpt lat="44.64939" lon="5.04752">
        <ele>495</ele>
        <time>2026-05-26T12:48:19.000Z</time>
      </trkpt>
      <trkpt lat="44.64939" lon="5.04752">
        <ele>494</ele>
        <time>2026-05-26T12:48:20.000Z</time>
      </trkpt>
      <trkpt lat="44.64939" lon="5.04753">
        <ele>494</ele>
        <time>2026-05-26T12:48:21.000Z</time>
      </trkpt>
      <trkpt lat="44.64939" lon="5.04753">
        <ele>494</ele>
        <time>2026-05-26T12:48:22.000Z</time>
      </trkpt>
      <trkpt lat="44.6494" lon="5.04753">
        <ele>494</ele>
        <time>2026-05-26T12:48:23.000Z</time>
      </trkpt>
      <trkpt lat="44.6494" lon="5.04752">
        <ele>494</ele>
        <time>2026-05-26T12:48:24.000Z</time>
      </trkpt>
      <trkpt lat="44.6494" lon="5.04752">
        <ele>494</ele>
        <time>2026-05-26T12:48:25.000Z</time>
      </trkpt>
      <trkpt lat="44.6494" lon="5.04752">
        <ele>494</ele>
        <time>2026-05-26T12:48:26.000Z</time>
      </trkpt>
      <trkpt lat="44.6494" lon="5.04751">
        <ele>494</ele>
        <time>2026-05-26T12:48:27.000Z</time>
      </trkpt>
      <trkpt lat="44.6494" lon="5.04751">
        <ele>494</ele>
        <time>2026-05-26T12:48:28.000Z</time>
      </trkpt>
      <trkpt lat="44.64939" lon="5.04752">
        <ele>494</ele>
        <time>2026-05-26T12:48:29.000Z</time>
      </trkpt>
      <trkpt lat="44.64939" lon="5.04752">
        <ele>494</ele>
        <time>2026-05-26T12:48:30.000Z</time>
      </trkpt>
      <trkpt lat="44.6494" lon="5.04752">
        <ele>494</ele>
        <time>2026-05-26T12:48:31.000Z</time>
      </trkpt>
      <trkpt lat="44.6494" lon="5.04752">
        <ele>494</ele>
        <time>2026-05-26T12:48:32.000Z</time>
      </trkpt>
      <trkpt lat="44.6494" lon="5.04753">
        <ele>495</ele>
        <time>2026-05-26T12:48:33.000Z</time>
      </trkpt>
      <trkpt lat="44.64941" lon="5.04754">
        <ele>495</ele>
        <time>2026-05-26T12:48:34.000Z</time>
      </trkpt>
      <trkpt lat="44.64941" lon="5.04754">
        <ele>495</ele>
        <time>2026-05-26T12:48:35.000Z</time>
      </trkpt>
      <trkpt lat="44.6494" lon="5.04754">
        <ele>494</ele>
        <time>2026-05-26T12:48:36.000Z</time>
      </trkpt>
      <trkpt lat="44.64941" lon="5.04754">
        <ele>494</ele>
        <time>2026-05-26T12:48:37.000Z</time>
      </trkpt>
      <trkpt lat="44.64939" lon="5.04755">
        <ele>495</ele>
        <time>2026-05-26T12:48:38.000Z</time>
      </trkpt>
      <trkpt lat="44.64939" lon="5.04755">
        <ele>496</ele>
        <time>2026-05-26T12:48:39.000Z</time>
      </trkpt>
      <trkpt lat="44.64939" lon="5.04755">
        <ele>496</ele>
        <time>2026-05-26T12:48:40.000Z</time>
      </trkpt>
      <trkpt lat="44.64939" lon="5.04754">
        <ele>497</ele>
        <time>2026-05-26T12:48:41.000Z</time>
      </trkpt>
      <trkpt lat="44.64939" lon="5.04755">
        <ele>497</ele>
        <time>2026-05-26T12:48:42.000Z</time>
      </trkpt>
      <trkpt lat="44.6494" lon="5.04757">
        <ele>497</ele>
        <time>2026-05-26T12:48:43.000Z</time>
      </trkpt>
      <trkpt lat="44.6494" lon="5.04757">
        <ele>496</ele>
        <time>2026-05-26T12:48:44.000Z</time>
      </trkpt>
      <trkpt lat="44.6494" lon="5.04758">
        <ele>496</ele>
        <time>2026-05-26T12:48:45.000Z</time>
      </trkpt>
      <trkpt lat="44.6494" lon="5.04759">
        <ele>497</ele>
        <time>2026-05-26T12:48:46.000Z</time>
      </trkpt>
      <trkpt lat="44.6494" lon="5.0476">
        <ele>498</ele>
        <time>2026-05-26T12:48:47.000Z</time>
      </trkpt>
      <trkpt lat="44.64941" lon="5.04761">
        <ele>499</ele>
        <time>2026-05-26T12:48:48.000Z</time>
      </trkpt>
      <trkpt lat="44.64941" lon="5.04761">
        <ele>501</ele>
        <time>2026-05-26T12:48:49.000Z</time>
      </trkpt>
      <trkpt lat="44.64942" lon="5.04761">
        <ele>502</ele>
        <time>2026-05-26T12:48:50.000Z</time>
      </trkpt>
      <trkpt lat="44.64942" lon="5.04762">
        <ele>503</ele>
        <time>2026-05-26T12:48:51.000Z</time>
      </trkpt>
      <trkpt lat="44.64942" lon="5.04763">
        <ele>503</ele>
        <time>2026-05-26T12:48:52.000Z</time>
      </trkpt>
      <trkpt lat="44.64943" lon="5.04763">
        <ele>502</ele>
        <time>2026-05-26T12:48:53.000Z</time>
      </trkpt>
      <trkpt lat="44.64943" lon="5.04764">
        <ele>502</ele>
        <time>2026-05-26T12:48:54.000Z</time>
      </trkpt>
      <trkpt lat="44.64944" lon="5.04764">
        <ele>501</ele>
        <time>2026-05-26T12:48:55.000Z</time>
      </trkpt>
      <trkpt lat="44.64944" lon="5.04765">
        <ele>502</ele>
        <time>2026-05-26T12:48:56.000Z</time>
      </trkpt>
      <trkpt lat="44.64946" lon="5.04768">
        <ele>502</ele>
        <time>2026-05-26T12:48:57.000Z</time>
      </trkpt>
      <trkpt lat="44.64947" lon="5.04768">
        <ele>502</ele>
        <time>2026-05-26T12:48:58.000Z</time>
      </trkpt>
      <trkpt lat="44.64948" lon="5.04769">
        <ele>501</ele>
        <time>2026-05-26T12:48:59.000Z</time>
      </trkpt>
      <trkpt lat="44.64948" lon="5.04768">
        <ele>501</ele>
        <time>2026-05-26T12:49:00.000Z</time>
      </trkpt>
      <trkpt lat="44.64948" lon="5.04768">
        <ele>500</ele>
        <time>2026-05-26T12:49:01.000Z</time>
      </trkpt>
      <trkpt lat="44.64949" lon="5.04767">
        <ele>499</ele>
        <time>2026-05-26T12:49:02.000Z</time>
      </trkpt>
      <trkpt lat="44.64949" lon="5.04766">
        <ele>499</ele>
        <time>2026-05-26T12:49:03.000Z</time>
      </trkpt>
      <trkpt lat="44.64948" lon="5.04765">
        <ele>500</ele>
        <time>2026-05-26T12:49:04.000Z</time>
      </trkpt>
      <trkpt lat="44.64947" lon="5.04764">
        <ele>500</ele>
        <time>2026-05-26T12:49:05.000Z</time>
      </trkpt>
      <trkpt lat="44.64948" lon="5.04765">
        <ele>499</ele>
        <time>2026-05-26T12:49:06.000Z</time>
      </trkpt>
      <trkpt lat="44.64948" lon="5.04765">
        <ele>499</ele>
        <time>2026-05-26T12:49:07.000Z</time>
      </trkpt>
      <trkpt lat="44.64948" lon="5.04765">
        <ele>499</ele>
        <time>2026-05-26T12:49:08.000Z</time>
      </trkpt>
      <trkpt lat="44.64948" lon="5.04765">
        <ele>499</ele>
        <time>2026-05-26T12:49:09.000Z</time>
      </trkpt>
      <trkpt lat="44.64948" lon="5.04765">
        <ele>499</ele>
        <time>2026-05-26T12:49:10.000Z</time>
      </trkpt>
      <trkpt lat="44.64948" lon="5.04765">
        <ele>499</ele>
        <time>2026-05-26T12:49:11.000Z</time>
      </trkpt>
      <trkpt lat="44.64948" lon="5.04765">
        <ele>499</ele>
        <time>2026-05-26T12:49:12.000Z</time>
      </trkpt>
      <trkpt lat="44.64947" lon="5.04763">
        <ele>499</ele>
        <time>2026-05-26T12:49:13.000Z</time>
      </trkpt>
      <trkpt lat="44.64947" lon="5.04762">
        <ele>499</ele>
        <time>2026-05-26T12:49:14.000Z</time>
      </trkpt>
      <trkpt lat="44.64947" lon="5.04761">
        <ele>499</ele>
        <time>2026-05-26T12:49:15.000Z</time>
      </trkpt>
      <trkpt lat="44.64946" lon="5.04761">
        <ele>499</ele>
        <time>2026-05-26T12:49:16.000Z</time>
      </trkpt>
      <trkpt lat="44.64946" lon="5.04761">
        <ele>499</ele>
        <time>2026-05-26T12:49:17.000Z</time>
      </trkpt>
      <trkpt lat="44.64945" lon="5.0476">
        <ele>498</ele>
        <time>2026-05-26T12:49:18.000Z</time>
      </trkpt>
      <trkpt lat="44.64945" lon="5.04759">
        <ele>497</ele>
        <time>2026-05-26T12:49:19.000Z</time>
      </trkpt>
      <trkpt lat="44.64945" lon="5.04758">
        <ele>498</ele>
        <time>2026-05-26T12:49:20.000Z</time>
      </trkpt>
      <trkpt lat="44.64945" lon="5.04757">
        <ele>498</ele>
        <time>2026-05-26T12:49:21.000Z</time>
      </trkpt>
      <trkpt lat="44.64945" lon="5.04755">
        <ele>497</ele>
        <time>2026-05-26T12:49:22.000Z</time>
      </trkpt>
      <trkpt lat="44.64945" lon="5.04754">
        <ele>497</ele>
        <time>2026-05-26T12:49:23.000Z</time>
      </trkpt>
      <trkpt lat="44.64945" lon="5.04754">
        <ele>497</ele>
        <time>2026-05-26T12:49:24.000Z</time>
      </trkpt>
      <trkpt lat="44.64943" lon="5.04753">
        <ele>497</ele>
        <time>2026-05-26T12:49:25.000Z</time>
      </trkpt>
      <trkpt lat="44.64942" lon="5.04753">
        <ele>498</ele>
        <time>2026-05-26T12:49:26.000Z</time>
      </trkpt>
      <trkpt lat="44.64943" lon="5.04752">
        <ele>499</ele>
        <time>2026-05-26T12:49:27.000Z</time>
      </trkpt>
      <trkpt lat="44.64944" lon="5.04751">
        <ele>499</ele>
        <time>2026-05-26T12:49:28.000Z</time>
      </trkpt>
      <trkpt lat="44.64943" lon="5.0475">
        <ele>498</ele>
        <time>2026-05-26T12:49:29.000Z</time>
      </trkpt>
      <trkpt lat="44.64943" lon="5.0475">
        <ele>498</ele>
        <time>2026-05-26T12:49:30.000Z</time>
      </trkpt>
      <trkpt lat="44.64943" lon="5.0475">
        <ele>498</ele>
        <time>2026-05-26T12:49:31.000Z</time>
      </trkpt>
      <trkpt lat="44.64944" lon="5.0475">
        <ele>497</ele>
        <time>2026-05-26T12:49:32.000Z</time>
      </trkpt>
      <trkpt lat="44.64944" lon="5.0475">
        <ele>497</ele>
        <time>2026-05-26T12:49:33.000Z</time>
      </trkpt>
      <trkpt lat="44.64945" lon="5.04749">
        <ele>498</ele>
        <time>2026-05-26T12:49:34.000Z</time>
      </trkpt>
      <trkpt lat="44.64946" lon="5.04748">
        <ele>500</ele>
        <time>2026-05-26T12:49:35.000Z</time>
      </trkpt>
      <trkpt lat="44.64947" lon="5.04747">
        <ele>501</ele>
        <time>2026-05-26T12:49:36.000Z</time>
      </trkpt>
      <trkpt lat="44.64949" lon="5.04743">
        <ele>498</ele>
        <time>2026-05-26T12:49:37.000Z</time>
      </trkpt>
      <trkpt lat="44.6495" lon="5.04741">
        <ele>497</ele>
        <time>2026-05-26T12:49:38.000Z</time>
      </trkpt>
      <trkpt lat="44.64951" lon="5.0474">
        <ele>497</ele>
        <time>2026-05-26T12:49:39.000Z</time>
      </trkpt>
      <trkpt lat="44.64951" lon="5.04739">
        <ele>497</ele>
        <time>2026-05-26T12:49:40.000Z</time>
      </trkpt>
      <trkpt lat="44.64951" lon="5.04738">
        <ele>497</ele>
        <time>2026-05-26T12:49:41.000Z</time>
      </trkpt>
      <trkpt lat="44.64952" lon="5.04736">
        <ele>497</ele>
        <time>2026-05-26T12:49:42.000Z</time>
      </trkpt>
      <trkpt lat="44.64953" lon="5.04736">
        <ele>496</ele>
        <time>2026-05-26T12:49:43.000Z</time>
      </trkpt>
      <trkpt lat="44.64954" lon="5.04737">
        <ele>497</ele>
        <time>2026-05-26T12:49:44.000Z</time>
      </trkpt>
      <trkpt lat="44.64954" lon="5.04737">
        <ele>497</ele>
        <time>2026-05-26T12:49:45.000Z</time>
      </trkpt>
      <trkpt lat="44.64955" lon="5.04738">
        <ele>498</ele>
        <time>2026-05-26T12:49:46.000Z</time>
      </trkpt>
      <trkpt lat="44.64955" lon="5.04737">
        <ele>498</ele>
        <time>2026-05-26T12:49:47.000Z</time>
      </trkpt>
      <trkpt lat="44.64956" lon="5.04737">
        <ele>498</ele>
        <time>2026-05-26T12:49:48.000Z</time>
      </trkpt>
      <trkpt lat="44.64957" lon="5.04736">
        <ele>498</ele>
        <time>2026-05-26T12:49:49.000Z</time>
      </trkpt>
      <trkpt lat="44.64958" lon="5.04736">
        <ele>498</ele>
        <time>2026-05-26T12:49:50.000Z</time>
      </trkpt>
      <trkpt lat="44.64958" lon="5.04736">
        <ele>498</ele>
        <time>2026-05-26T12:49:51.000Z</time>
      </trkpt>
      <trkpt lat="44.64959" lon="5.04737">
        <ele>499</ele>
        <time>2026-05-26T12:49:52.000Z</time>
      </trkpt>
      <trkpt lat="44.6496" lon="5.04737">
        <ele>499</ele>
        <time>2026-05-26T12:49:53.000Z</time>
      </trkpt>
      <trkpt lat="44.6496" lon="5.04737">
        <ele>499</ele>
        <time>2026-05-26T12:49:54.000Z</time>
      </trkpt>
      <trkpt lat="44.6496" lon="5.04736">
        <ele>498</ele>
        <time>2026-05-26T12:49:55.000Z</time>
      </trkpt>
      <trkpt lat="44.64961" lon="5.04737">
        <ele>499</ele>
        <time>2026-05-26T12:49:56.000Z</time>
      </trkpt>
      <trkpt lat="44.64962" lon="5.04738">
        <ele>498</ele>
        <time>2026-05-26T12:49:57.000Z</time>
      </trkpt>
      <trkpt lat="44.64963" lon="5.04738">
        <ele>498</ele>
        <time>2026-05-26T12:49:58.000Z</time>
      </trkpt>
      <trkpt lat="44.64964" lon="5.04739">
        <ele>499</ele>
        <time>2026-05-26T12:49:59.000Z</time>
      </trkpt>
      <trkpt lat="44.64965" lon="5.04739">
        <ele>499</ele>
        <time>2026-05-26T12:50:00.000Z</time>
      </trkpt>
      <trkpt lat="44.64966" lon="5.0474">
        <ele>499</ele>
        <time>2026-05-26T12:50:01.000Z</time>
      </trkpt>
      <trkpt lat="44.64967" lon="5.0474">
        <ele>499</ele>
        <time>2026-05-26T12:50:02.000Z</time>
      </trkpt>
      <trkpt lat="44.64967" lon="5.04741">
        <ele>500</ele>
        <time>2026-05-26T12:50:03.000Z</time>
      </trkpt>
      <trkpt lat="44.64968" lon="5.04741">
        <ele>501</ele>
        <time>2026-05-26T12:50:04.000Z</time>
      </trkpt>
      <trkpt lat="44.64969" lon="5.04741">
        <ele>501</ele>
        <time>2026-05-26T12:50:05.000Z</time>
      </trkpt>
      <trkpt lat="44.6497" lon="5.04742">
        <ele>502</ele>
        <time>2026-05-26T12:50:06.000Z</time>
      </trkpt>
      <trkpt lat="44.64971" lon="5.04742">
        <ele>502</ele>
        <time>2026-05-26T12:50:07.000Z</time>
      </trkpt>
      <trkpt lat="44.64972" lon="5.04742">
        <ele>502</ele>
        <time>2026-05-26T12:50:08.000Z</time>
      </trkpt>
      <trkpt lat="44.64972" lon="5.04743">
        <ele>502</ele>
        <time>2026-05-26T12:50:09.000Z</time>
      </trkpt>
      <trkpt lat="44.64973" lon="5.04743">
        <ele>503</ele>
        <time>2026-05-26T12:50:10.000Z</time>
      </trkpt>
      <trkpt lat="44.64974" lon="5.04743">
        <ele>503</ele>
        <time>2026-05-26T12:50:11.000Z</time>
      </trkpt>
      <trkpt lat="44.64975" lon="5.04743">
        <ele>503</ele>
        <time>2026-05-26T12:50:12.000Z</time>
      </trkpt>
      <trkpt lat="44.64976" lon="5.04744">
        <ele>503</ele>
        <time>2026-05-26T12:50:13.000Z</time>
      </trkpt>
      <trkpt lat="44.64976" lon="5.04744">
        <ele>503</ele>
        <time>2026-05-26T12:50:14.000Z</time>
      </trkpt>
      <trkpt lat="44.64977" lon="5.04745">
        <ele>503</ele>
        <time>2026-05-26T12:50:15.000Z</time>
      </trkpt>
      <trkpt lat="44.64978" lon="5.04745">
        <ele>503</ele>
        <time>2026-05-26T12:50:16.000Z</time>
      </trkpt>
      <trkpt lat="44.64979" lon="5.04745">
        <ele>504</ele>
        <time>2026-05-26T12:50:17.000Z</time>
      </trkpt>
      <trkpt lat="44.64979" lon="5.04745">
        <ele>503</ele>
        <time>2026-05-26T12:50:18.000Z</time>
      </trkpt>
      <trkpt lat="44.6498" lon="5.04745">
        <ele>504</ele>
        <time>2026-05-26T12:50:19.000Z</time>
      </trkpt>
      <trkpt lat="44.64981" lon="5.04746">
        <ele>504</ele>
        <time>2026-05-26T12:50:20.000Z</time>
      </trkpt>
      <trkpt lat="44.64981" lon="5.04746">
        <ele>505</ele>
        <time>2026-05-26T12:50:21.000Z</time>
      </trkpt>
      <trkpt lat="44.64981" lon="5.04746">
        <ele>505</ele>
        <time>2026-05-26T12:50:22.000Z</time>
      </trkpt>
      <trkpt lat="44.6498" lon="5.04745">
        <ele>505</ele>
        <time>2026-05-26T12:50:23.000Z</time>
      </trkpt>
      <trkpt lat="44.64979" lon="5.04745">
        <ele>505</ele>
        <time>2026-05-26T12:50:24.000Z</time>
      </trkpt>
      <trkpt lat="44.64978" lon="5.04745">
        <ele>504</ele>
        <time>2026-05-26T12:50:25.000Z</time>
      </trkpt>
      <trkpt lat="44.64978" lon="5.04744">
        <ele>504</ele>
        <time>2026-05-26T12:50:26.000Z</time>
      </trkpt>
      <trkpt lat="44.64976" lon="5.04743">
        <ele>504</ele>
        <time>2026-05-26T12:50:27.000Z</time>
      </trkpt>
      <trkpt lat="44.64975" lon="5.04744">
        <ele>504</ele>
        <time>2026-05-26T12:50:28.000Z</time>
      </trkpt>
      <trkpt lat="44.64973" lon="5.04744">
        <ele>504</ele>
        <time>2026-05-26T12:50:29.000Z</time>
      </trkpt>
      <trkpt lat="44.64972" lon="5.04743">
        <ele>504</ele>
        <time>2026-05-26T12:50:30.000Z</time>
      </trkpt>
      <trkpt lat="44.64972" lon="5.04742">
        <ele>503</ele>
        <time>2026-05-26T12:50:31.000Z</time>
      </trkpt>
      <trkpt lat="44.64971" lon="5.04742">
        <ele>503</ele>
        <time>2026-05-26T12:50:32.000Z</time>
      </trkpt>
      <trkpt lat="44.6497" lon="5.04742">
        <ele>503</ele>
        <time>2026-05-26T12:50:33.000Z</time>
      </trkpt>
      <trkpt lat="44.64969" lon="5.04742">
        <ele>503</ele>
        <time>2026-05-26T12:50:34.000Z</time>
      </trkpt>
      <trkpt lat="44.64968" lon="5.04741">
        <ele>502</ele>
        <time>2026-05-26T12:50:35.000Z</time>
      </trkpt>
      <trkpt lat="44.64968" lon="5.04741">
        <ele>502</ele>
        <time>2026-05-26T12:50:36.000Z</time>
      </trkpt>
      <trkpt lat="44.64967" lon="5.04741">
        <ele>501</ele>
        <time>2026-05-26T12:50:37.000Z</time>
      </trkpt>
      <trkpt lat="44.64965" lon="5.0474">
        <ele>500</ele>
        <time>2026-05-26T12:50:38.000Z</time>
      </trkpt>
      <trkpt lat="44.64963" lon="5.04739">
        <ele>499</ele>
        <time>2026-05-26T12:50:39.000Z</time>
      </trkpt>
      <trkpt lat="44.64963" lon="5.04737">
        <ele>499</ele>
        <time>2026-05-26T12:50:40.000Z</time>
      </trkpt>
      <trkpt lat="44.64962" lon="5.04737">
        <ele>499</ele>
        <time>2026-05-26T12:50:41.000Z</time>
      </trkpt>
      <trkpt lat="44.6496" lon="5.04736">
        <ele>499</ele>
        <time>2026-05-26T12:50:42.000Z</time>
      </trkpt>
      <trkpt lat="44.64959" lon="5.04735">
        <ele>498</ele>
        <time>2026-05-26T12:50:43.000Z</time>
      </trkpt>
      <trkpt lat="44.64957" lon="5.04735">
        <ele>498</ele>
        <time>2026-05-26T12:50:44.000Z</time>
      </trkpt>
      <trkpt lat="44.64956" lon="5.04734">
        <ele>498</ele>
        <time>2026-05-26T12:50:45.000Z</time>
      </trkpt>
      <trkpt lat="44.64955" lon="5.04734">
        <ele>498</ele>
        <time>2026-05-26T12:50:46.000Z</time>
      </trkpt>
      <trkpt lat="44.64954" lon="5.04735">
        <ele>497</ele>
        <time>2026-05-26T12:50:47.000Z</time>
      </trkpt>
      <trkpt lat="44.64953" lon="5.04736">
        <ele>498</ele>
        <time>2026-05-26T12:50:48.000Z</time>
      </trkpt>
      <trkpt lat="44.64952" lon="5.04737">
        <ele>498</ele>
        <time>2026-05-26T12:50:49.000Z</time>
      </trkpt>
      <trkpt lat="44.64951" lon="5.04738">
        <ele>498</ele>
        <time>2026-05-26T12:50:50.000Z</time>
      </trkpt>
      <trkpt lat="44.6495" lon="5.04739">
        <ele>498</ele>
        <time>2026-05-26T12:50:51.000Z</time>
      </trkpt>
      <trkpt lat="44.64949" lon="5.0474">
        <ele>497</ele>
        <time>2026-05-26T12:50:52.000Z</time>
      </trkpt>
      <trkpt lat="44.64949" lon="5.04741">
        <ele>497</ele>
        <time>2026-05-26T12:50:53.000Z</time>
      </trkpt>
      <trkpt lat="44.64948" lon="5.04742">
        <ele>497</ele>
        <time>2026-05-26T12:50:54.000Z</time>
      </trkpt>
      <trkpt lat="44.64947" lon="5.04742">
        <ele>496</ele>
        <time>2026-05-26T12:50:55.000Z</time>
      </trkpt>
      <trkpt lat="44.64946" lon="5.04743">
        <ele>495</ele>
        <time>2026-05-26T12:50:56.000Z</time>
      </trkpt>
      <trkpt lat="44.64946" lon="5.04744">
        <ele>494</ele>
        <time>2026-05-26T12:50:57.000Z</time>
      </trkpt>
      <trkpt lat="44.64945" lon="5.04745">
        <ele>494</ele>
        <time>2026-05-26T12:50:58.000Z</time>
      </trkpt>
      <trkpt lat="44.64945" lon="5.04746">
        <ele>494</ele>
        <time>2026-05-26T12:50:59.000Z</time>
      </trkpt>
      <trkpt lat="44.64944" lon="5.04746">
        <ele>494</ele>
        <time>2026-05-26T12:51:00.000Z</time>
      </trkpt>
      <trkpt lat="44.64944" lon="5.04746">
        <ele>494</ele>
        <time>2026-05-26T12:51:01.000Z</time>
      </trkpt>
      <trkpt lat="44.64944" lon="5.04746">
        <ele>494</ele>
        <time>2026-05-26T12:51:02.000Z</time>
      </trkpt>
      <trkpt lat="44.64944" lon="5.04746">
        <ele>494</ele>
        <time>2026-05-26T12:51:03.000Z</time>
      </trkpt>
      <trkpt lat="44.64944" lon="5.04746">
        <ele>494</ele>
        <time>2026-05-26T12:51:04.000Z</time>
      </trkpt>
      <trkpt lat="44.64944" lon="5.04746">
        <ele>494</ele>
        <time>2026-05-26T12:51:05.000Z</time>
      </trkpt>
      <trkpt lat="44.64944" lon="5.04746">
        <ele>494</ele>
        <time>2026-05-26T12:51:06.000Z</time>
      </trkpt>
      <trkpt lat="44.64944" lon="5.04746">
        <ele>494</ele>
        <time>2026-05-26T12:51:07.000Z</time>
      </trkpt>
      <trkpt lat="44.64944" lon="5.04746">
        <ele>494</ele>
        <time>2026-05-26T12:51:08.000Z</time>
      </trkpt>
      <trkpt lat="44.64944" lon="5.04746">
        <ele>494</ele>
        <time>2026-05-26T12:51:09.000Z</time>
      </trkpt>
      <trkpt lat="44.64944" lon="5.04747">
        <ele>494</ele>
        <time>2026-05-26T12:51:10.000Z</time>
      </trkpt>
      <trkpt lat="44.64943" lon="5.04747">
        <ele>493</ele>
        <time>2026-05-26T12:51:11.000Z</time>
      </trkpt>
      <trkpt lat="44.64942" lon="5.04748">
        <ele>493</ele>
        <time>2026-05-26T12:51:12.000Z</time>
      </trkpt>
      <trkpt lat="44.64941" lon="5.04749">
        <ele>493</ele>
        <time>2026-05-26T12:51:13.000Z</time>
      </trkpt>
      <trkpt lat="44.64941" lon="5.04751">
        <ele>492</ele>
        <time>2026-05-26T12:51:14.000Z</time>
      </trkpt>
      <trkpt lat="44.6494" lon="5.04752">
        <ele>491</ele>
        <time>2026-05-26T12:51:15.000Z</time>
      </trkpt>
      <trkpt lat="44.64939" lon="5.04753">
        <ele>491</ele>
        <time>2026-05-26T12:51:16.000Z</time>
      </trkpt>
      <trkpt lat="44.64938" lon="5.04755">
        <ele>491</ele>
        <time>2026-05-26T12:51:17.000Z</time>
      </trkpt>
      <trkpt lat="44.64937" lon="5.04758">
        <ele>492</ele>
        <time>2026-05-26T12:51:18.000Z</time>
      </trkpt>
      <trkpt lat="44.64938" lon="5.04761">
        <ele>492</ele>
        <time>2026-05-26T12:51:19.000Z</time>
      </trkpt>
      <trkpt lat="44.64938" lon="5.04762">
        <ele>491</ele>
        <time>2026-05-26T12:51:20.000Z</time>
      </trkpt>
      <trkpt lat="44.64938" lon="5.04763">
        <ele>491</ele>
        <time>2026-05-26T12:51:21.000Z</time>
      </trkpt>
      <trkpt lat="44.64937" lon="5.04764">
        <ele>491</ele>
        <time>2026-05-26T12:51:22.000Z</time>
      </trkpt>
      <trkpt lat="44.64937" lon="5.04765">
        <ele>491</ele>
        <time>2026-05-26T12:51:23.000Z</time>
      </trkpt>
      <trkpt lat="44.64937" lon="5.04766">
        <ele>491</ele>
        <time>2026-05-26T12:51:24.000Z</time>
      </trkpt>
      <trkpt lat="44.64936" lon="5.04767">
        <ele>491</ele>
        <time>2026-05-26T12:51:25.000Z</time>
      </trkpt>
      <trkpt lat="44.64935" lon="5.04767">
        <ele>491</ele>
        <time>2026-05-26T12:51:26.000Z</time>
      </trkpt>
      <trkpt lat="44.64935" lon="5.04768">
        <ele>491</ele>
        <time>2026-05-26T12:51:27.000Z</time>
      </trkpt>
      <trkpt lat="44.64934" lon="5.04768">
        <ele>490</ele>
        <time>2026-05-26T12:51:28.000Z</time>
      </trkpt>
      <trkpt lat="44.64934" lon="5.04769">
        <ele>490</ele>
        <time>2026-05-26T12:51:29.000Z</time>
      </trkpt>
      <trkpt lat="44.64934" lon="5.04771">
        <ele>491</ele>
        <time>2026-05-26T12:51:30.000Z</time>
      </trkpt>
      <trkpt lat="44.64933" lon="5.04775">
        <ele>490</ele>
        <time>2026-05-26T12:51:31.000Z</time>
      </trkpt>
      <trkpt lat="44.64932" lon="5.04775">
        <ele>489</ele>
        <time>2026-05-26T12:51:32.000Z</time>
      </trkpt>
      <trkpt lat="44.64932" lon="5.04776">
        <ele>489</ele>
        <time>2026-05-26T12:51:33.000Z</time>
      </trkpt>
      <trkpt lat="44.64931" lon="5.04776">
        <ele>489</ele>
        <time>2026-05-26T12:51:34.000Z</time>
      </trkpt>
      <trkpt lat="44.64931" lon="5.04777">
        <ele>489</ele>
        <time>2026-05-26T12:51:35.000Z</time>
      </trkpt>
      <trkpt lat="44.6493" lon="5.04778">
        <ele>489</ele>
        <time>2026-05-26T12:51:36.000Z</time>
      </trkpt>
      <trkpt lat="44.64929" lon="5.04779">
        <ele>489</ele>
        <time>2026-05-26T12:51:37.000Z</time>
      </trkpt>
      <trkpt lat="44.64929" lon="5.0478">
        <ele>489</ele>
        <time>2026-05-26T12:51:38.000Z</time>
      </trkpt>
      <trkpt lat="44.64927" lon="5.0478">
        <ele>488</ele>
        <time>2026-05-26T12:51:39.000Z</time>
      </trkpt>
      <trkpt lat="44.64927" lon="5.04782">
        <ele>488</ele>
        <time>2026-05-26T12:51:40.000Z</time>
      </trkpt>
      <trkpt lat="44.64927" lon="5.04783">
        <ele>488</ele>
        <time>2026-05-26T12:51:41.000Z</time>
      </trkpt>
      <trkpt lat="44.64926" lon="5.04784">
        <ele>488</ele>
        <time>2026-05-26T12:51:42.000Z</time>
      </trkpt>
      <trkpt lat="44.64925" lon="5.04786">
        <ele>489</ele>
        <time>2026-05-26T12:51:43.000Z</time>
      </trkpt>
      <trkpt lat="44.64924" lon="5.04786">
        <ele>489</ele>
        <time>2026-05-26T12:51:44.000Z</time>
      </trkpt>
      <trkpt lat="44.64922" lon="5.04788">
        <ele>489</ele>
        <time>2026-05-26T12:51:45.000Z</time>
      </trkpt>
      <trkpt lat="44.64922" lon="5.04789">
        <ele>490</ele>
        <time>2026-05-26T12:51:46.000Z</time>
      </trkpt>
      <trkpt lat="44.64921" lon="5.0479">
        <ele>490</ele>
        <time>2026-05-26T12:51:47.000Z</time>
      </trkpt>
      <trkpt lat="44.6492" lon="5.04791">
        <ele>489</ele>
        <time>2026-05-26T12:51:48.000Z</time>
      </trkpt>
      <trkpt lat="44.64919" lon="5.04793">
        <ele>490</ele>
        <time>2026-05-26T12:51:49.000Z</time>
      </trkpt>
      <trkpt lat="44.64919" lon="5.04795">
        <ele>489</ele>
        <time>2026-05-26T12:51:50.000Z</time>
      </trkpt>
      <trkpt lat="44.64918" lon="5.04796">
        <ele>489</ele>
        <time>2026-05-26T12:51:51.000Z</time>
      </trkpt>
      <trkpt lat="44.64917" lon="5.04797">
        <ele>488</ele>
        <time>2026-05-26T12:51:52.000Z</time>
      </trkpt>
      <trkpt lat="44.64916" lon="5.04798">
        <ele>487</ele>
        <time>2026-05-26T12:51:53.000Z</time>
      </trkpt>
      <trkpt lat="44.64916" lon="5.04799">
        <ele>486</ele>
        <time>2026-05-26T12:51:54.000Z</time>
      </trkpt>
      <trkpt lat="44.64915" lon="5.04799">
        <ele>486</ele>
        <time>2026-05-26T12:51:55.000Z</time>
      </trkpt>
      <trkpt lat="44.64914" lon="5.048">
        <ele>486</ele>
        <time>2026-05-26T12:51:56.000Z</time>
      </trkpt>
      <trkpt lat="44.64913" lon="5.04801">
        <ele>486</ele>
        <time>2026-05-26T12:51:57.000Z</time>
      </trkpt>
      <trkpt lat="44.64913" lon="5.04803">
        <ele>486</ele>
        <time>2026-05-26T12:51:58.000Z</time>
      </trkpt>
      <trkpt lat="44.64912" lon="5.04804">
        <ele>485</ele>
        <time>2026-05-26T12:51:59.000Z</time>
      </trkpt>
      <trkpt lat="44.64912" lon="5.04806">
        <ele>485</ele>
        <time>2026-05-26T12:52:00.000Z</time>
      </trkpt>
      <trkpt lat="44.64911" lon="5.04806">
        <ele>485</ele>
        <time>2026-05-26T12:52:01.000Z</time>
      </trkpt>
      <trkpt lat="44.64911" lon="5.04808">
        <ele>485</ele>
        <time>2026-05-26T12:52:02.000Z</time>
      </trkpt>
      <trkpt lat="44.64911" lon="5.04809">
        <ele>485</ele>
        <time>2026-05-26T12:52:03.000Z</time>
      </trkpt>
      <trkpt lat="44.64911" lon="5.0481">
        <ele>486</ele>
        <time>2026-05-26T12:52:04.000Z</time>
      </trkpt>
      <trkpt lat="44.6491" lon="5.04811">
        <ele>485</ele>
        <time>2026-05-26T12:52:05.000Z</time>
      </trkpt>
      <trkpt lat="44.6491" lon="5.04813">
        <ele>486</ele>
        <time>2026-05-26T12:52:06.000Z</time>
      </trkpt>
      <trkpt lat="44.64909" lon="5.04815">
        <ele>486</ele>
        <time>2026-05-26T12:52:07.000Z</time>
      </trkpt>
      <trkpt lat="44.64908" lon="5.04816">
        <ele>485</ele>
        <time>2026-05-26T12:52:08.000Z</time>
      </trkpt>
      <trkpt lat="44.64908" lon="5.04817">
        <ele>485</ele>
        <time>2026-05-26T12:52:09.000Z</time>
      </trkpt>
      <trkpt lat="44.64907" lon="5.04818">
        <ele>485</ele>
        <time>2026-05-26T12:52:10.000Z</time>
      </trkpt>
      <trkpt lat="44.64906" lon="5.04819">
        <ele>485</ele>
        <time>2026-05-26T12:52:11.000Z</time>
      </trkpt>
      <trkpt lat="44.64905" lon="5.0482">
        <ele>485</ele>
        <time>2026-05-26T12:52:12.000Z</time>
      </trkpt>
      <trkpt lat="44.64905" lon="5.04821">
        <ele>485</ele>
        <time>2026-05-26T12:52:13.000Z</time>
      </trkpt>
      <trkpt lat="44.64904" lon="5.04822">
        <ele>484</ele>
        <time>2026-05-26T12:52:14.000Z</time>
      </trkpt>
      <trkpt lat="44.64904" lon="5.04824">
        <ele>483</ele>
        <time>2026-05-26T12:52:15.000Z</time>
      </trkpt>
      <trkpt lat="44.64904" lon="5.04824">
        <ele>483</ele>
        <time>2026-05-26T12:52:16.000Z</time>
      </trkpt>
      <trkpt lat="44.64904" lon="5.04824">
        <ele>483</ele>
        <time>2026-05-26T12:52:17.000Z</time>
      </trkpt>
      <trkpt lat="44.64902" lon="5.04826">
        <ele>482</ele>
        <time>2026-05-26T12:52:18.000Z</time>
      </trkpt>
      <trkpt lat="44.64901" lon="5.04828">
        <ele>481</ele>
        <time>2026-05-26T12:52:19.000Z</time>
      </trkpt>
      <trkpt lat="44.649" lon="5.04831">
        <ele>481</ele>
        <time>2026-05-26T12:52:20.000Z</time>
      </trkpt>
      <trkpt lat="44.64899" lon="5.04833">
        <ele>481</ele>
        <time>2026-05-26T12:52:21.000Z</time>
      </trkpt>
      <trkpt lat="44.64899" lon="5.04834">
        <ele>481</ele>
        <time>2026-05-26T12:52:22.000Z</time>
      </trkpt>
      <trkpt lat="44.64899" lon="5.04834">
        <ele>481</ele>
        <time>2026-05-26T12:52:23.000Z</time>
      </trkpt>
      <trkpt lat="44.64896" lon="5.04836">
        <ele>481</ele>
        <time>2026-05-26T12:52:24.000Z</time>
      </trkpt>
      <trkpt lat="44.64895" lon="5.04838">
        <ele>481</ele>
        <time>2026-05-26T12:52:25.000Z</time>
      </trkpt>
      <trkpt lat="44.64895" lon="5.0484">
        <ele>481</ele>
        <time>2026-05-26T12:52:26.000Z</time>
      </trkpt>
      <trkpt lat="44.64894" lon="5.04841">
        <ele>481</ele>
        <time>2026-05-26T12:52:27.000Z</time>
      </trkpt>
      <trkpt lat="44.64894" lon="5.04841">
        <ele>481</ele>
        <time>2026-05-26T12:52:28.000Z</time>
      </trkpt>
      <trkpt lat="44.64891" lon="5.04841">
        <ele>480</ele>
        <time>2026-05-26T12:52:29.000Z</time>
      </trkpt>
      <trkpt lat="44.64891" lon="5.04843">
        <ele>480</ele>
        <time>2026-05-26T12:52:30.000Z</time>
      </trkpt>
      <trkpt lat="44.64891" lon="5.04844">
        <ele>480</ele>
        <time>2026-05-26T12:52:31.000Z</time>
      </trkpt>
      <trkpt lat="44.64891" lon="5.04845">
        <ele>479</ele>
        <time>2026-05-26T12:52:32.000Z</time>
      </trkpt>
      <trkpt lat="44.64891" lon="5.04846">
        <ele>479</ele>
        <time>2026-05-26T12:52:33.000Z</time>
      </trkpt>
      <trkpt lat="44.64891" lon="5.04846">
        <ele>479</ele>
        <time>2026-05-26T12:52:34.000Z</time>
      </trkpt>
      <trkpt lat="44.64891" lon="5.04846">
        <ele>479</ele>
        <time>2026-05-26T12:52:35.000Z</time>
      </trkpt>
      <trkpt lat="44.64888" lon="5.0485">
        <ele>478</ele>
        <time>2026-05-26T12:52:36.000Z</time>
      </trkpt>
      <trkpt lat="44.64888" lon="5.04851">
        <ele>478</ele>
        <time>2026-05-26T12:52:37.000Z</time>
      </trkpt>
      <trkpt lat="44.64887" lon="5.04853">
        <ele>478</ele>
        <time>2026-05-26T12:52:38.000Z</time>
      </trkpt>
      <trkpt lat="44.64887" lon="5.04856">
        <ele>478</ele>
        <time>2026-05-26T12:52:39.000Z</time>
      </trkpt>
      <trkpt lat="44.64886" lon="5.04858">
        <ele>478</ele>
        <time>2026-05-26T12:52:40.000Z</time>
      </trkpt>
      <trkpt lat="44.64884" lon="5.0486">
        <ele>477</ele>
        <time>2026-05-26T12:52:41.000Z</time>
      </trkpt>
      <trkpt lat="44.64884" lon="5.04862">
        <ele>477</ele>
        <time>2026-05-26T12:52:42.000Z</time>
      </trkpt>
      <trkpt lat="44.64883" lon="5.04863">
        <ele>478</ele>
        <time>2026-05-26T12:52:43.000Z</time>
      </trkpt>
      <trkpt lat="44.64884" lon="5.04865">
        <ele>477</ele>
        <time>2026-05-26T12:52:44.000Z</time>
      </trkpt>
      <trkpt lat="44.64883" lon="5.04867">
        <ele>477</ele>
        <time>2026-05-26T12:52:45.000Z</time>
      </trkpt>
      <trkpt lat="44.64883" lon="5.04869">
        <ele>477</ele>
        <time>2026-05-26T12:52:46.000Z</time>
      </trkpt>
      <trkpt lat="44.64882" lon="5.0487">
        <ele>477</ele>
        <time>2026-05-26T12:52:47.000Z</time>
      </trkpt>
      <trkpt lat="44.64882" lon="5.04873">
        <ele>476</ele>
        <time>2026-05-26T12:52:48.000Z</time>
      </trkpt>
      <trkpt lat="44.64882" lon="5.04875">
        <ele>477</ele>
        <time>2026-05-26T12:52:49.000Z</time>
      </trkpt>
      <trkpt lat="44.64881" lon="5.04877">
        <ele>476</ele>
        <time>2026-05-26T12:52:50.000Z</time>
      </trkpt>
      <trkpt lat="44.6488" lon="5.04879">
        <ele>475</ele>
        <time>2026-05-26T12:52:51.000Z</time>
      </trkpt>
      <trkpt lat="44.6488" lon="5.0488">
        <ele>475</ele>
        <time>2026-05-26T12:52:52.000Z</time>
      </trkpt>
      <trkpt lat="44.64879" lon="5.04883">
        <ele>474</ele>
        <time>2026-05-26T12:52:53.000Z</time>
      </trkpt>
      <trkpt lat="44.64879" lon="5.04884">
        <ele>475</ele>
        <time>2026-05-26T12:52:54.000Z</time>
      </trkpt>
      <trkpt lat="44.64879" lon="5.04884">
        <ele>475</ele>
        <time>2026-05-26T12:52:55.000Z</time>
      </trkpt>
      <trkpt lat="44.64879" lon="5.04886">
        <ele>476</ele>
        <time>2026-05-26T12:52:56.000Z</time>
      </trkpt>
      <trkpt lat="44.64879" lon="5.04886">
        <ele>476</ele>
        <time>2026-05-26T12:52:57.000Z</time>
      </trkpt>
      <trkpt lat="44.64878" lon="5.04885">
        <ele>476</ele>
        <time>2026-05-26T12:52:58.000Z</time>
      </trkpt>
      <trkpt lat="44.64878" lon="5.04885">
        <ele>476</ele>
        <time>2026-05-26T12:52:59.000Z</time>
      </trkpt>
      <trkpt lat="44.64878" lon="5.04885">
        <ele>476</ele>
        <time>2026-05-26T12:53:00.000Z</time>
      </trkpt>
      <trkpt lat="44.64878" lon="5.04885">
        <ele>476</ele>
        <time>2026-05-26T12:53:01.000Z</time>
      </trkpt>
      <trkpt lat="44.64878" lon="5.04885">
        <ele>476</ele>
        <time>2026-05-26T12:53:02.000Z</time>
      </trkpt>
      <trkpt lat="44.64878" lon="5.04885">
        <ele>476</ele>
        <time>2026-05-26T12:53:03.000Z</time>
      </trkpt>
      <trkpt lat="44.64878" lon="5.04885">
        <ele>476</ele>
        <time>2026-05-26T12:53:04.000Z</time>
      </trkpt>
      <trkpt lat="44.64878" lon="5.04885">
        <ele>476</ele>
        <time>2026-05-26T12:53:05.000Z</time>
      </trkpt>
      <trkpt lat="44.64878" lon="5.04885">
        <ele>476</ele>
        <time>2026-05-26T12:53:06.000Z</time>
      </trkpt>
      <trkpt lat="44.64878" lon="5.04885">
        <ele>476</ele>
        <time>2026-05-26T12:53:07.000Z</time>
      </trkpt>
      <trkpt lat="44.64877" lon="5.04887">
        <ele>475</ele>
        <time>2026-05-26T12:53:08.000Z</time>
      </trkpt>
      <trkpt lat="44.64877" lon="5.04887">
        <ele>475</ele>
        <time>2026-05-26T12:53:09.000Z</time>
      </trkpt>
      <trkpt lat="44.64877" lon="5.04887">
        <ele>475</ele>
        <time>2026-05-26T12:53:10.000Z</time>
      </trkpt>
      <trkpt lat="44.64877" lon="5.04887">
        <ele>475</ele>
        <time>2026-05-26T12:53:11.000Z</time>
      </trkpt>
      <trkpt lat="44.64877" lon="5.04887">
        <ele>475</ele>
        <time>2026-05-26T12:53:12.000Z</time>
      </trkpt>
      <trkpt lat="44.64877" lon="5.04887">
        <ele>475</ele>
        <time>2026-05-26T12:53:13.000Z</time>
      </trkpt>
      <trkpt lat="44.64877" lon="5.04887">
        <ele>475</ele>
        <time>2026-05-26T12:53:14.000Z</time>
      </trkpt>
      <trkpt lat="44.64877" lon="5.04887">
        <ele>475</ele>
        <time>2026-05-26T12:53:15.000Z</time>
      </trkpt>
      <trkpt lat="44.64877" lon="5.04887">
        <ele>475</ele>
        <time>2026-05-26T12:53:16.000Z</time>
      </trkpt>
      <trkpt lat="44.64876" lon="5.04887">
        <ele>474</ele>
        <time>2026-05-26T12:53:17.000Z</time>
      </trkpt>
      <trkpt lat="44.64875" lon="5.04888">
        <ele>473</ele>
        <time>2026-05-26T12:53:18.000Z</time>
      </trkpt>
      <trkpt lat="44.64874" lon="5.04887">
        <ele>472</ele>
        <time>2026-05-26T12:53:19.000Z</time>
      </trkpt>
      <trkpt lat="44.64874" lon="5.04888">
        <ele>472</ele>
        <time>2026-05-26T12:53:20.000Z</time>
      </trkpt>
      <trkpt lat="44.64874" lon="5.04889">
        <ele>473</ele>
        <time>2026-05-26T12:53:21.000Z</time>
      </trkpt>
      <trkpt lat="44.64874" lon="5.04891">
        <ele>473</ele>
        <time>2026-05-26T12:53:22.000Z</time>
      </trkpt>
      <trkpt lat="44.64874" lon="5.04892">
        <ele>473</ele>
        <time>2026-05-26T12:53:23.000Z</time>
      </trkpt>
      <trkpt lat="44.64875" lon="5.04893">
        <ele>474</ele>
        <time>2026-05-26T12:53:24.000Z</time>
      </trkpt>
      <trkpt lat="44.64875" lon="5.04894">
        <ele>475</ele>
        <time>2026-05-26T12:53:25.000Z</time>
      </trkpt>
      <trkpt lat="44.64875" lon="5.04894">
        <ele>475</ele>
        <time>2026-05-26T12:53:26.000Z</time>
      </trkpt>
      <trkpt lat="44.64874" lon="5.04894">
        <ele>474</ele>
        <time>2026-05-26T12:53:27.000Z</time>
      </trkpt>
      <trkpt lat="44.64874" lon="5.04894">
        <ele>474</ele>
        <time>2026-05-26T12:53:28.000Z</time>
      </trkpt>
      <trkpt lat="44.64874" lon="5.04896">
        <ele>473</ele>
        <time>2026-05-26T12:53:29.000Z</time>
      </trkpt>
      <trkpt lat="44.64873" lon="5.04897">
        <ele>473</ele>
        <time>2026-05-26T12:53:30.000Z</time>
      </trkpt>
      <trkpt lat="44.64872" lon="5.04898">
        <ele>473</ele>
        <time>2026-05-26T12:53:31.000Z</time>
      </trkpt>
      <trkpt lat="44.64871" lon="5.04898">
        <ele>474</ele>
        <time>2026-05-26T12:53:32.000Z</time>
      </trkpt>
      <trkpt lat="44.64871" lon="5.04899">
        <ele>473</ele>
        <time>2026-05-26T12:53:33.000Z</time>
      </trkpt>
      <trkpt lat="44.6487" lon="5.04901">
        <ele>473</ele>
        <time>2026-05-26T12:53:34.000Z</time>
      </trkpt>
      <trkpt lat="44.6487" lon="5.04904">
        <ele>474</ele>
        <time>2026-05-26T12:53:35.000Z</time>
      </trkpt>
      <trkpt lat="44.64869" lon="5.04905">
        <ele>473</ele>
        <time>2026-05-26T12:53:36.000Z</time>
      </trkpt>
      <trkpt lat="44.64869" lon="5.04907">
        <ele>473</ele>
        <time>2026-05-26T12:53:37.000Z</time>
      </trkpt>
      <trkpt lat="44.64869" lon="5.0491">
        <ele>473</ele>
        <time>2026-05-26T12:53:38.000Z</time>
      </trkpt>
      <trkpt lat="44.64868" lon="5.04912">
        <ele>473</ele>
        <time>2026-05-26T12:53:39.000Z</time>
      </trkpt>
      <trkpt lat="44.64868" lon="5.04914">
        <ele>473</ele>
        <time>2026-05-26T12:53:40.000Z</time>
      </trkpt>
      <trkpt lat="44.64867" lon="5.04915">
        <ele>473</ele>
        <time>2026-05-26T12:53:41.000Z</time>
      </trkpt>
      <trkpt lat="44.64867" lon="5.04917">
        <ele>472</ele>
        <time>2026-05-26T12:53:42.000Z</time>
      </trkpt>
      <trkpt lat="44.64866" lon="5.04918">
        <ele>472</ele>
        <time>2026-05-26T12:53:43.000Z</time>
      </trkpt>
      <trkpt lat="44.64865" lon="5.04919">
        <ele>472</ele>
        <time>2026-05-26T12:53:44.000Z</time>
      </trkpt>
      <trkpt lat="44.64864" lon="5.0492">
        <ele>473</ele>
        <time>2026-05-26T12:53:45.000Z</time>
      </trkpt>
      <trkpt lat="44.64864" lon="5.04922">
        <ele>473</ele>
        <time>2026-05-26T12:53:46.000Z</time>
      </trkpt>
      <trkpt lat="44.64864" lon="5.04923">
        <ele>472</ele>
        <time>2026-05-26T12:53:47.000Z</time>
      </trkpt>
      <trkpt lat="44.64863" lon="5.04925">
        <ele>472</ele>
        <time>2026-05-26T12:53:48.000Z</time>
      </trkpt>
      <trkpt lat="44.64862" lon="5.04925">
        <ele>473</ele>
        <time>2026-05-26T12:53:49.000Z</time>
      </trkpt>
      <trkpt lat="44.64862" lon="5.04925">
        <ele>473</ele>
        <time>2026-05-26T12:53:50.000Z</time>
      </trkpt>
      <trkpt lat="44.64862" lon="5.04925">
        <ele>473</ele>
        <time>2026-05-26T12:53:51.000Z</time>
      </trkpt>
      <trkpt lat="44.64862" lon="5.04929">
        <ele>471</ele>
        <time>2026-05-26T12:53:52.000Z</time>
      </trkpt>
      <trkpt lat="44.64862" lon="5.0493">
        <ele>471</ele>
        <time>2026-05-26T12:53:53.000Z</time>
      </trkpt>
      <trkpt lat="44.64862" lon="5.04931">
        <ele>471</ele>
        <time>2026-05-26T12:53:54.000Z</time>
      </trkpt>
      <trkpt lat="44.64862" lon="5.04932">
        <ele>471</ele>
        <time>2026-05-26T12:53:55.000Z</time>
      </trkpt>
      <trkpt lat="44.64862" lon="5.04932">
        <ele>471</ele>
        <time>2026-05-26T12:53:56.000Z</time>
      </trkpt>
      <trkpt lat="44.64861" lon="5.04932">
        <ele>470</ele>
        <time>2026-05-26T12:53:57.000Z</time>
      </trkpt>
      <trkpt lat="44.6486" lon="5.04934">
        <ele>468</ele>
        <time>2026-05-26T12:53:58.000Z</time>
      </trkpt>
      <trkpt lat="44.64857" lon="5.04937">
        <ele>467</ele>
        <time>2026-05-26T12:53:59.000Z</time>
      </trkpt>
      <trkpt lat="44.64855" lon="5.04938">
        <ele>468</ele>
        <time>2026-05-26T12:54:00.000Z</time>
      </trkpt>
      <trkpt lat="44.64854" lon="5.04939">
        <ele>469</ele>
        <time>2026-05-26T12:54:01.000Z</time>
      </trkpt>
      <trkpt lat="44.64853" lon="5.0494">
        <ele>469</ele>
        <time>2026-05-26T12:54:02.000Z</time>
      </trkpt>
      <trkpt lat="44.64852" lon="5.04942">
        <ele>470</ele>
        <time>2026-05-26T12:54:03.000Z</time>
      </trkpt>
      <trkpt lat="44.64851" lon="5.04944">
        <ele>470</ele>
        <time>2026-05-26T12:54:04.000Z</time>
      </trkpt>
      <trkpt lat="44.6485" lon="5.04944">
        <ele>471</ele>
        <time>2026-05-26T12:54:05.000Z</time>
      </trkpt>
      <trkpt lat="44.64849" lon="5.04945">
        <ele>470</ele>
        <time>2026-05-26T12:54:06.000Z</time>
      </trkpt>
      <trkpt lat="44.64849" lon="5.04947">
        <ele>470</ele>
        <time>2026-05-26T12:54:07.000Z</time>
      </trkpt>
      <trkpt lat="44.64848" lon="5.04948">
        <ele>471</ele>
        <time>2026-05-26T12:54:08.000Z</time>
      </trkpt>
      <trkpt lat="44.64847" lon="5.04949">
        <ele>471</ele>
        <time>2026-05-26T12:54:09.000Z</time>
      </trkpt>
      <trkpt lat="44.64847" lon="5.0495">
        <ele>471</ele>
        <time>2026-05-26T12:54:10.000Z</time>
      </trkpt>
      <trkpt lat="44.64846" lon="5.04951">
        <ele>472</ele>
        <time>2026-05-26T12:54:11.000Z</time>
      </trkpt>
      <trkpt lat="44.64845" lon="5.04952">
        <ele>471</ele>
        <time>2026-05-26T12:54:12.000Z</time>
      </trkpt>
      <trkpt lat="44.64845" lon="5.04954">
        <ele>471</ele>
        <time>2026-05-26T12:54:13.000Z</time>
      </trkpt>
      <trkpt lat="44.64844" lon="5.04955">
        <ele>471</ele>
        <time>2026-05-26T12:54:14.000Z</time>
      </trkpt>
      <trkpt lat="44.64843" lon="5.04957">
        <ele>470</ele>
        <time>2026-05-26T12:54:15.000Z</time>
      </trkpt>
      <trkpt lat="44.64842" lon="5.04958">
        <ele>470</ele>
        <time>2026-05-26T12:54:16.000Z</time>
      </trkpt>
      <trkpt lat="44.64841" lon="5.04958">
        <ele>469</ele>
        <time>2026-05-26T12:54:17.000Z</time>
      </trkpt>
      <trkpt lat="44.64841" lon="5.0496">
        <ele>469</ele>
        <time>2026-05-26T12:54:18.000Z</time>
      </trkpt>
      <trkpt lat="44.64841" lon="5.04962">
        <ele>469</ele>
        <time>2026-05-26T12:54:19.000Z</time>
      </trkpt>
      <trkpt lat="44.6484" lon="5.04964">
        <ele>469</ele>
        <time>2026-05-26T12:54:20.000Z</time>
      </trkpt>
      <trkpt lat="44.6484" lon="5.04965">
        <ele>469</ele>
        <time>2026-05-26T12:54:21.000Z</time>
      </trkpt>
      <trkpt lat="44.64839" lon="5.04965">
        <ele>469</ele>
        <time>2026-05-26T12:54:22.000Z</time>
      </trkpt>
      <trkpt lat="44.64839" lon="5.04967">
        <ele>469</ele>
        <time>2026-05-26T12:54:23.000Z</time>
      </trkpt>
      <trkpt lat="44.64838" lon="5.04969">
        <ele>469</ele>
        <time>2026-05-26T12:54:24.000Z</time>
      </trkpt>
      <trkpt lat="44.64837" lon="5.0497">
        <ele>469</ele>
        <time>2026-05-26T12:54:25.000Z</time>
      </trkpt>
      <trkpt lat="44.64836" lon="5.04971">
        <ele>469</ele>
        <time>2026-05-26T12:54:26.000Z</time>
      </trkpt>
      <trkpt lat="44.64836" lon="5.04972">
        <ele>469</ele>
        <time>2026-05-26T12:54:27.000Z</time>
      </trkpt>
      <trkpt lat="44.64835" lon="5.04972">
        <ele>468</ele>
        <time>2026-05-26T12:54:28.000Z</time>
      </trkpt>
      <trkpt lat="44.64834" lon="5.04974">
        <ele>468</ele>
        <time>2026-05-26T12:54:29.000Z</time>
      </trkpt>
      <trkpt lat="44.64834" lon="5.04976">
        <ele>468</ele>
        <time>2026-05-26T12:54:30.000Z</time>
      </trkpt>
      <trkpt lat="44.64832" lon="5.04977">
        <ele>467</ele>
        <time>2026-05-26T12:54:31.000Z</time>
      </trkpt>
      <trkpt lat="44.64831" lon="5.04979">
        <ele>467</ele>
        <time>2026-05-26T12:54:32.000Z</time>
      </trkpt>
      <trkpt lat="44.64829" lon="5.0498">
        <ele>467</ele>
        <time>2026-05-26T12:54:33.000Z</time>
      </trkpt>
      <trkpt lat="44.64827" lon="5.04981">
        <ele>467</ele>
        <time>2026-05-26T12:54:34.000Z</time>
      </trkpt>
      <trkpt lat="44.64827" lon="5.04982">
        <ele>466</ele>
        <time>2026-05-26T12:54:35.000Z</time>
      </trkpt>
      <trkpt lat="44.64827" lon="5.04984">
        <ele>466</ele>
        <time>2026-05-26T12:54:36.000Z</time>
      </trkpt>
      <trkpt lat="44.64828" lon="5.04985">
        <ele>466</ele>
        <time>2026-05-26T12:54:37.000Z</time>
      </trkpt>
      <trkpt lat="44.64827" lon="5.04985">
        <ele>465</ele>
        <time>2026-05-26T12:54:38.000Z</time>
      </trkpt>
      <trkpt lat="44.64827" lon="5.04987">
        <ele>465</ele>
        <time>2026-05-26T12:54:39.000Z</time>
      </trkpt>
      <trkpt lat="44.64826" lon="5.04989">
        <ele>465</ele>
        <time>2026-05-26T12:54:40.000Z</time>
      </trkpt>
      <trkpt lat="44.64825" lon="5.04991">
        <ele>465</ele>
        <time>2026-05-26T12:54:41.000Z</time>
      </trkpt>
      <trkpt lat="44.64825" lon="5.04993">
        <ele>465</ele>
        <time>2026-05-26T12:54:42.000Z</time>
      </trkpt>
      <trkpt lat="44.64824" lon="5.04994">
        <ele>466</ele>
        <time>2026-05-26T12:54:43.000Z</time>
      </trkpt>
      <trkpt lat="44.64824" lon="5.04996">
        <ele>466</ele>
        <time>2026-05-26T12:54:44.000Z</time>
      </trkpt>
      <trkpt lat="44.64824" lon="5.04997">
        <ele>466</ele>
        <time>2026-05-26T12:54:45.000Z</time>
      </trkpt>
      <trkpt lat="44.64823" lon="5.04999">
        <ele>466</ele>
        <time>2026-05-26T12:54:46.000Z</time>
      </trkpt>
      <trkpt lat="44.64822" lon="5.05001">
        <ele>466</ele>
        <time>2026-05-26T12:54:47.000Z</time>
      </trkpt>
      <trkpt lat="44.64822" lon="5.05002">
        <ele>465</ele>
        <time>2026-05-26T12:54:48.000Z</time>
      </trkpt>
      <trkpt lat="44.64821" lon="5.05003">
        <ele>466</ele>
        <time>2026-05-26T12:54:49.000Z</time>
      </trkpt>
      <trkpt lat="44.6482" lon="5.05005">
        <ele>466</ele>
        <time>2026-05-26T12:54:50.000Z</time>
      </trkpt>
      <trkpt lat="44.6482" lon="5.05006">
        <ele>466</ele>
        <time>2026-05-26T12:54:51.000Z</time>
      </trkpt>
      <trkpt lat="44.6482" lon="5.05008">
        <ele>465</ele>
        <time>2026-05-26T12:54:52.000Z</time>
      </trkpt>
      <trkpt lat="44.6482" lon="5.05009">
        <ele>465</ele>
        <time>2026-05-26T12:54:53.000Z</time>
      </trkpt>
      <trkpt lat="44.64819" lon="5.05011">
        <ele>464</ele>
        <time>2026-05-26T12:54:54.000Z</time>
      </trkpt>
      <trkpt lat="44.64819" lon="5.05013">
        <ele>464</ele>
        <time>2026-05-26T12:54:55.000Z</time>
      </trkpt>
      <trkpt lat="44.64818" lon="5.05015">
        <ele>464</ele>
        <time>2026-05-26T12:54:56.000Z</time>
      </trkpt>
      <trkpt lat="44.64817" lon="5.05016">
        <ele>465</ele>
        <time>2026-05-26T12:54:57.000Z</time>
      </trkpt>
      <trkpt lat="44.64816" lon="5.05017">
        <ele>464</ele>
        <time>2026-05-26T12:54:58.000Z</time>
      </trkpt>
      <trkpt lat="44.64815" lon="5.05018">
        <ele>464</ele>
        <time>2026-05-26T12:54:59.000Z</time>
      </trkpt>
      <trkpt lat="44.64814" lon="5.0502">
        <ele>465</ele>
        <time>2026-05-26T12:55:00.000Z</time>
      </trkpt>
      <trkpt lat="44.64814" lon="5.05022">
        <ele>464</ele>
        <time>2026-05-26T12:55:01.000Z</time>
      </trkpt>
      <trkpt lat="44.64813" lon="5.05023">
        <ele>464</ele>
        <time>2026-05-26T12:55:02.000Z</time>
      </trkpt>
      <trkpt lat="44.64812" lon="5.05023">
        <ele>464</ele>
        <time>2026-05-26T12:55:03.000Z</time>
      </trkpt>
      <trkpt lat="44.64813" lon="5.05026">
        <ele>463</ele>
        <time>2026-05-26T12:55:04.000Z</time>
      </trkpt>
      <trkpt lat="44.64813" lon="5.05027">
        <ele>463</ele>
        <time>2026-05-26T12:55:05.000Z</time>
      </trkpt>
      <trkpt lat="44.64813" lon="5.05027">
        <ele>463</ele>
        <time>2026-05-26T12:55:06.000Z</time>
      </trkpt>
      <trkpt lat="44.64813" lon="5.05027">
        <ele>463</ele>
        <time>2026-05-26T12:55:07.000Z</time>
      </trkpt>
      <trkpt lat="44.64813" lon="5.05027">
        <ele>463</ele>
        <time>2026-05-26T12:55:08.000Z</time>
      </trkpt>
      <trkpt lat="44.64813" lon="5.05027">
        <ele>463</ele>
        <time>2026-05-26T12:55:09.000Z</time>
      </trkpt>
      <trkpt lat="44.64813" lon="5.05027">
        <ele>463</ele>
        <time>2026-05-26T12:55:10.000Z</time>
      </trkpt>
      <trkpt lat="44.64813" lon="5.05027">
        <ele>463</ele>
        <time>2026-05-26T12:55:11.000Z</time>
      </trkpt>
      <trkpt lat="44.64813" lon="5.05027">
        <ele>463</ele>
        <time>2026-05-26T12:55:12.000Z</time>
      </trkpt>
      <trkpt lat="44.64813" lon="5.05027">
        <ele>463</ele>
        <time>2026-05-26T12:55:13.000Z</time>
      </trkpt>
      <trkpt lat="44.64813" lon="5.05027">
        <ele>463</ele>
        <time>2026-05-26T12:55:14.000Z</time>
      </trkpt>
      <trkpt lat="44.6481" lon="5.0503">
        <ele>463</ele>
        <time>2026-05-26T12:55:15.000Z</time>
      </trkpt>
      <trkpt lat="44.64809" lon="5.05031">
        <ele>463</ele>
        <time>2026-05-26T12:55:16.000Z</time>
      </trkpt>
      <trkpt lat="44.64808" lon="5.05033">
        <ele>463</ele>
        <time>2026-05-26T12:55:17.000Z</time>
      </trkpt>
      <trkpt lat="44.64807" lon="5.05034">
        <ele>463</ele>
        <time>2026-05-26T12:55:18.000Z</time>
      </trkpt>
      <trkpt lat="44.64805" lon="5.05035">
        <ele>463</ele>
        <time>2026-05-26T12:55:19.000Z</time>
      </trkpt>
      <trkpt lat="44.64804" lon="5.05037">
        <ele>463</ele>
        <time>2026-05-26T12:55:20.000Z</time>
      </trkpt>
      <trkpt lat="44.64804" lon="5.05038">
        <ele>464</ele>
        <time>2026-05-26T12:55:21.000Z</time>
      </trkpt>
      <trkpt lat="44.64802" lon="5.05039">
        <ele>463</ele>
        <time>2026-05-26T12:55:22.000Z</time>
      </trkpt>
      <trkpt lat="44.64801" lon="5.05041">
        <ele>464</ele>
        <time>2026-05-26T12:55:23.000Z</time>
      </trkpt>
      <trkpt lat="44.648" lon="5.05043">
        <ele>464</ele>
        <time>2026-05-26T12:55:24.000Z</time>
      </trkpt>
      <trkpt lat="44.648" lon="5.05044">
        <ele>464</ele>
        <time>2026-05-26T12:55:25.000Z</time>
      </trkpt>
      <trkpt lat="44.64799" lon="5.05045">
        <ele>464</ele>
        <time>2026-05-26T12:55:26.000Z</time>
      </trkpt>
      <trkpt lat="44.64798" lon="5.05047">
        <ele>464</ele>
        <time>2026-05-26T12:55:27.000Z</time>
      </trkpt>
      <trkpt lat="44.64798" lon="5.05047">
        <ele>462</ele>
        <time>2026-05-26T12:55:28.000Z</time>
      </trkpt>
      <trkpt lat="44.64797" lon="5.05049">
        <ele>462</ele>
        <time>2026-05-26T12:55:29.000Z</time>
      </trkpt>
      <trkpt lat="44.64796" lon="5.05051">
        <ele>463</ele>
        <time>2026-05-26T12:55:30.000Z</time>
      </trkpt>
      <trkpt lat="44.64796" lon="5.05051">
        <ele>463</ele>
        <time>2026-05-26T12:55:31.000Z</time>
      </trkpt>
      <trkpt lat="44.64796" lon="5.05051">
        <ele>463</ele>
        <time>2026-05-26T12:55:32.000Z</time>
      </trkpt>
      <trkpt lat="44.64794" lon="5.05054">
        <ele>463</ele>
        <time>2026-05-26T12:55:33.000Z</time>
      </trkpt>
      <trkpt lat="44.64793" lon="5.05055">
        <ele>463</ele>
        <time>2026-05-26T12:55:34.000Z</time>
      </trkpt>
      <trkpt lat="44.6479" lon="5.05058">
        <ele>462</ele>
        <time>2026-05-26T12:55:35.000Z</time>
      </trkpt>
      <trkpt lat="44.6479" lon="5.05061">
        <ele>461</ele>
        <time>2026-05-26T12:55:36.000Z</time>
      </trkpt>
      <trkpt lat="44.64788" lon="5.05061">
        <ele>462</ele>
        <time>2026-05-26T12:55:37.000Z</time>
      </trkpt>
      <trkpt lat="44.64787" lon="5.05062">
        <ele>462</ele>
        <time>2026-05-26T12:55:38.000Z</time>
      </trkpt>
      <trkpt lat="44.64786" lon="5.05063">
        <ele>462</ele>
        <time>2026-05-26T12:55:39.000Z</time>
      </trkpt>
      <trkpt lat="44.64785" lon="5.05065">
        <ele>461</ele>
        <time>2026-05-26T12:55:40.000Z</time>
      </trkpt>
      <trkpt lat="44.64785" lon="5.05066">
        <ele>460</ele>
        <time>2026-05-26T12:55:41.000Z</time>
      </trkpt>
      <trkpt lat="44.64784" lon="5.05067">
        <ele>460</ele>
        <time>2026-05-26T12:55:42.000Z</time>
      </trkpt>
      <trkpt lat="44.64783" lon="5.05068">
        <ele>460</ele>
        <time>2026-05-26T12:55:43.000Z</time>
      </trkpt>
      <trkpt lat="44.64782" lon="5.05069">
        <ele>459</ele>
        <time>2026-05-26T12:55:44.000Z</time>
      </trkpt>
      <trkpt lat="44.64782" lon="5.05069">
        <ele>459</ele>
        <time>2026-05-26T12:55:45.000Z</time>
      </trkpt>
      <trkpt lat="44.64782" lon="5.05069">
        <ele>459</ele>
        <time>2026-05-26T12:55:46.000Z</time>
      </trkpt>
      <trkpt lat="44.64782" lon="5.05069">
        <ele>459</ele>
        <time>2026-05-26T12:55:47.000Z</time>
      </trkpt>
      <trkpt lat="44.64782" lon="5.05069">
        <ele>459</ele>
        <time>2026-05-26T12:55:48.000Z</time>
      </trkpt>
      <trkpt lat="44.64782" lon="5.05069">
        <ele>459</ele>
        <time>2026-05-26T12:55:49.000Z</time>
      </trkpt>
      <trkpt lat="44.64782" lon="5.05069">
        <ele>459</ele>
        <time>2026-05-26T12:55:50.000Z</time>
      </trkpt>
      <trkpt lat="44.64782" lon="5.05069">
        <ele>459</ele>
        <time>2026-05-26T12:55:51.000Z</time>
      </trkpt>
      <trkpt lat="44.64782" lon="5.05069">
        <ele>459</ele>
        <time>2026-05-26T12:55:52.000Z</time>
      </trkpt>
      <trkpt lat="44.64783" lon="5.05067">
        <ele>460</ele>
        <time>2026-05-26T12:55:53.000Z</time>
      </trkpt>
      <trkpt lat="44.64783" lon="5.05067">
        <ele>460</ele>
        <time>2026-05-26T12:55:54.000Z</time>
      </trkpt>
      <trkpt lat="44.64783" lon="5.05068">
        <ele>460</ele>
        <time>2026-05-26T12:55:55.000Z</time>
      </trkpt>
      <trkpt lat="44.64783" lon="5.05068">
        <ele>460</ele>
        <time>2026-05-26T12:55:56.000Z</time>
      </trkpt>
      <trkpt lat="44.64783" lon="5.05068">
        <ele>460</ele>
        <time>2026-05-26T12:55:57.000Z</time>
      </trkpt>
      <trkpt lat="44.64783" lon="5.05068">
        <ele>460</ele>
        <time>2026-05-26T12:55:58.000Z</time>
      </trkpt>
      <trkpt lat="44.64783" lon="5.05068">
        <ele>460</ele>
        <time>2026-05-26T12:55:59.000Z</time>
      </trkpt>
      <trkpt lat="44.64783" lon="5.05068">
        <ele>460</ele>
        <time>2026-05-26T12:56:00.000Z</time>
      </trkpt>
      <trkpt lat="44.64783" lon="5.05068">
        <ele>460</ele>
        <time>2026-05-26T12:56:01.000Z</time>
      </trkpt>
      <trkpt lat="44.64783" lon="5.05068">
        <ele>460</ele>
        <time>2026-05-26T12:56:02.000Z</time>
      </trkpt>
      <trkpt lat="44.64783" lon="5.05068">
        <ele>460</ele>
        <time>2026-05-26T12:56:03.000Z</time>
      </trkpt>
      <trkpt lat="44.64783" lon="5.05068">
        <ele>460</ele>
        <time>2026-05-26T12:56:04.000Z</time>
      </trkpt>
      <trkpt lat="44.64783" lon="5.05068">
        <ele>460</ele>
        <time>2026-05-26T12:56:05.000Z</time>
      </trkpt>
      <trkpt lat="44.64783" lon="5.05068">
        <ele>460</ele>
        <time>2026-05-26T12:56:06.000Z</time>
      </trkpt>
      <trkpt lat="44.64783" lon="5.05068">
        <ele>460</ele>
        <time>2026-05-26T12:56:07.000Z</time>
      </trkpt>
      <trkpt lat="44.64783" lon="5.05068">
        <ele>460</ele>
        <time>2026-05-26T12:56:08.000Z</time>
      </trkpt>
      <trkpt lat="44.64783" lon="5.05068">
        <ele>460</ele>
        <time>2026-05-26T12:56:09.000Z</time>
      </trkpt>
      <trkpt lat="44.64783" lon="5.05068">
        <ele>460</ele>
        <time>2026-05-26T12:56:10.000Z</time>
      </trkpt>
      <trkpt lat="44.64783" lon="5.05068">
        <ele>460</ele>
        <time>2026-05-26T12:56:11.000Z</time>
      </trkpt>
      <trkpt lat="44.64783" lon="5.05068">
        <ele>460</ele>
        <time>2026-05-26T12:56:12.000Z</time>
      </trkpt>
      <trkpt lat="44.64783" lon="5.05068">
        <ele>460</ele>
        <time>2026-05-26T12:56:13.000Z</time>
      </trkpt>
      <trkpt lat="44.64783" lon="5.05068">
        <ele>460</ele>
        <time>2026-05-26T12:56:14.000Z</time>
      </trkpt>
      <trkpt lat="44.64783" lon="5.05068">
        <ele>460</ele>
        <time>2026-05-26T12:56:15.000Z</time>
      </trkpt>
      <trkpt lat="44.64783" lon="5.05068">
        <ele>460</ele>
        <time>2026-05-26T12:56:16.000Z</time>
      </trkpt>
      <trkpt lat="44.64783" lon="5.05068">
        <ele>460</ele>
        <time>2026-05-26T12:56:17.000Z</time>
      </trkpt>
      <trkpt lat="44.64783" lon="5.05068">
        <ele>460</ele>
        <time>2026-05-26T12:56:18.000Z</time>
      </trkpt>
      <trkpt lat="44.64783" lon="5.05068">
        <ele>460</ele>
        <time>2026-05-26T12:56:19.000Z</time>
      </trkpt>
      <trkpt lat="44.64783" lon="5.05068">
        <ele>460</ele>
        <time>2026-05-26T12:56:20.000Z</time>
      </trkpt>
      <trkpt lat="44.64783" lon="5.05068">
        <ele>460</ele>
        <time>2026-05-26T12:56:21.000Z</time>
      </trkpt>
      <trkpt lat="44.64783" lon="5.05068">
        <ele>460</ele>
        <time>2026-05-26T12:56:22.000Z</time>
      </trkpt>
      <trkpt lat="44.64783" lon="5.05068">
        <ele>460</ele>
        <time>2026-05-26T12:56:23.000Z</time>
      </trkpt>
      <trkpt lat="44.64783" lon="5.05068">
        <ele>460</ele>
        <time>2026-05-26T12:56:24.000Z</time>
      </trkpt>
      <trkpt lat="44.64783" lon="5.05068">
        <ele>460</ele>
        <time>2026-05-26T12:56:25.000Z</time>
      </trkpt>
      <trkpt lat="44.64783" lon="5.05068">
        <ele>460</ele>
        <time>2026-05-26T12:56:26.000Z</time>
      </trkpt>
      <trkpt lat="44.64783" lon="5.05068">
        <ele>460</ele>
        <time>2026-05-26T12:56:27.000Z</time>
      </trkpt>
      <trkpt lat="44.64783" lon="5.05068">
        <ele>460</ele>
        <time>2026-05-26T12:56:28.000Z</time>
      </trkpt>
      <trkpt lat="44.64783" lon="5.05068">
        <ele>460</ele>
        <time>2026-05-26T12:56:29.000Z</time>
      </trkpt>
      <trkpt lat="44.64783" lon="5.05068">
        <ele>460</ele>
        <time>2026-05-26T12:56:30.000Z</time>
      </trkpt>
      <trkpt lat="44.64783" lon="5.05068">
        <ele>460</ele>
        <time>2026-05-26T12:56:31.000Z</time>
      </trkpt>
      <trkpt lat="44.64783" lon="5.05068">
        <ele>460</ele>
        <time>2026-05-26T12:56:32.000Z</time>
      </trkpt>
      <trkpt lat="44.64783" lon="5.05068">
        <ele>460</ele>
        <time>2026-05-26T12:56:33.000Z</time>
      </trkpt>
      <trkpt lat="44.64783" lon="5.05068">
        <ele>460</ele>
        <time>2026-05-26T12:56:34.000Z</time>
      </trkpt>
      <trkpt lat="44.64783" lon="5.05068">
        <ele>460</ele>
        <time>2026-05-26T12:56:35.000Z</time>
      </trkpt>
      <trkpt lat="44.64783" lon="5.05068">
        <ele>460</ele>
        <time>2026-05-26T12:56:36.000Z</time>
      </trkpt>
      <trkpt lat="44.64783" lon="5.05068">
        <ele>460</ele>
        <time>2026-05-26T12:56:37.000Z</time>
      </trkpt>
      <trkpt lat="44.64783" lon="5.05068">
        <ele>460</ele>
        <time>2026-05-26T12:56:38.000Z</time>
      </trkpt>
      <trkpt lat="44.64783" lon="5.05068">
        <ele>460</ele>
        <time>2026-05-26T12:56:39.000Z</time>
      </trkpt>
      <trkpt lat="44.64783" lon="5.05068">
        <ele>460</ele>
        <time>2026-05-26T12:56:40.000Z</time>
      </trkpt>
      <trkpt lat="44.64783" lon="5.05068">
        <ele>460</ele>
        <time>2026-05-26T12:56:41.000Z</time>
      </trkpt>
      <trkpt lat="44.64783" lon="5.05068">
        <ele>460</ele>
        <time>2026-05-26T12:56:42.000Z</time>
      </trkpt>
      <trkpt lat="44.64783" lon="5.05068">
        <ele>460</ele>
        <time>2026-05-26T12:56:43.000Z</time>
      </trkpt>
      <trkpt lat="44.64783" lon="5.05068">
        <ele>460</ele>
        <time>2026-05-26T12:56:44.000Z</time>
      </trkpt>
      <trkpt lat="44.64783" lon="5.05068">
        <ele>460</ele>
        <time>2026-05-26T12:56:45.000Z</time>
      </trkpt>
      <trkpt lat="44.64783" lon="5.05067">
        <ele>459</ele>
        <time>2026-05-26T12:56:46.000Z</time>
      </trkpt>
      <trkpt lat="44.64783" lon="5.05068">
        <ele>459</ele>
        <time>2026-05-26T12:56:47.000Z</time>
      </trkpt>
      <trkpt lat="44.64782" lon="5.05068">
        <ele>459</ele>
        <time>2026-05-26T12:56:48.000Z</time>
      </trkpt>
      <trkpt lat="44.64781" lon="5.05069">
        <ele>460</ele>
        <time>2026-05-26T12:56:49.000Z</time>
      </trkpt>
      <trkpt lat="44.6478" lon="5.0507">
        <ele>460</ele>
        <time>2026-05-26T12:56:50.000Z</time>
      </trkpt>
      <trkpt lat="44.6478" lon="5.05071">
        <ele>460</ele>
        <time>2026-05-26T12:56:51.000Z</time>
      </trkpt>
      <trkpt lat="44.64779" lon="5.05072">
        <ele>460</ele>
        <time>2026-05-26T12:56:52.000Z</time>
      </trkpt>
      <trkpt lat="44.64778" lon="5.05073">
        <ele>460</ele>
        <time>2026-05-26T12:56:53.000Z</time>
      </trkpt>
      <trkpt lat="44.64777" lon="5.05074">
        <ele>460</ele>
        <time>2026-05-26T12:56:54.000Z</time>
      </trkpt>
      <trkpt lat="44.64776" lon="5.05075">
        <ele>459</ele>
        <time>2026-05-26T12:56:55.000Z</time>
      </trkpt>
      <trkpt lat="44.64776" lon="5.05076">
        <ele>459</ele>
        <time>2026-05-26T12:56:56.000Z</time>
      </trkpt>
      <trkpt lat="44.64776" lon="5.05076">
        <ele>460</ele>
        <time>2026-05-26T12:56:57.000Z</time>
      </trkpt>
      <trkpt lat="44.64776" lon="5.05076">
        <ele>460</ele>
        <time>2026-05-26T12:56:58.000Z</time>
      </trkpt>
      <trkpt lat="44.64776" lon="5.05076">
        <ele>460</ele>
        <time>2026-05-26T12:56:59.000Z</time>
      </trkpt>
      <trkpt lat="44.64774" lon="5.05078">
        <ele>460</ele>
        <time>2026-05-26T12:57:00.000Z</time>
      </trkpt>
      <trkpt lat="44.64773" lon="5.05079">
        <ele>460</ele>
        <time>2026-05-26T12:57:01.000Z</time>
      </trkpt>
      <trkpt lat="44.64773" lon="5.0508">
        <ele>459</ele>
        <time>2026-05-26T12:57:02.000Z</time>
      </trkpt>
      <trkpt lat="44.64772" lon="5.05081">
        <ele>459</ele>
        <time>2026-05-26T12:57:03.000Z</time>
      </trkpt>
      <trkpt lat="44.64771" lon="5.05081">
        <ele>460</ele>
        <time>2026-05-26T12:57:04.000Z</time>
      </trkpt>
      <trkpt lat="44.6477" lon="5.05082">
        <ele>460</ele>
        <time>2026-05-26T12:57:05.000Z</time>
      </trkpt>
      <trkpt lat="44.64769" lon="5.05083">
        <ele>459</ele>
        <time>2026-05-26T12:57:06.000Z</time>
      </trkpt>
      <trkpt lat="44.64768" lon="5.05085">
        <ele>459</ele>
        <time>2026-05-26T12:57:07.000Z</time>
      </trkpt>
      <trkpt lat="44.64767" lon="5.05086">
        <ele>459</ele>
        <time>2026-05-26T12:57:08.000Z</time>
      </trkpt>
      <trkpt lat="44.64766" lon="5.05087">
        <ele>459</ele>
        <time>2026-05-26T12:57:09.000Z</time>
      </trkpt>
      <trkpt lat="44.64765" lon="5.05088">
        <ele>458</ele>
        <time>2026-05-26T12:57:10.000Z</time>
      </trkpt>
      <trkpt lat="44.64764" lon="5.0509">
        <ele>458</ele>
        <time>2026-05-26T12:57:11.000Z</time>
      </trkpt>
      <trkpt lat="44.64763" lon="5.05091">
        <ele>457</ele>
        <time>2026-05-26T12:57:12.000Z</time>
      </trkpt>
      <trkpt lat="44.64762" lon="5.05092">
        <ele>457</ele>
        <time>2026-05-26T12:57:13.000Z</time>
      </trkpt>
      <trkpt lat="44.64761" lon="5.05093">
        <ele>457</ele>
        <time>2026-05-26T12:57:14.000Z</time>
      </trkpt>
      <trkpt lat="44.6476" lon="5.05094">
        <ele>457</ele>
        <time>2026-05-26T12:57:15.000Z</time>
      </trkpt>
      <trkpt lat="44.64759" lon="5.05095">
        <ele>457</ele>
        <time>2026-05-26T12:57:16.000Z</time>
      </trkpt>
      <trkpt lat="44.64759" lon="5.05095">
        <ele>456</ele>
        <time>2026-05-26T12:57:17.000Z</time>
      </trkpt>
      <trkpt lat="44.64758" lon="5.05096">
        <ele>456</ele>
        <time>2026-05-26T12:57:18.000Z</time>
      </trkpt>
      <trkpt lat="44.64757" lon="5.05097">
        <ele>456</ele>
        <time>2026-05-26T12:57:19.000Z</time>
      </trkpt>
      <trkpt lat="44.64756" lon="5.05097">
        <ele>456</ele>
        <time>2026-05-26T12:57:20.000Z</time>
      </trkpt>
      <trkpt lat="44.64755" lon="5.05098">
        <ele>456</ele>
        <time>2026-05-26T12:57:21.000Z</time>
      </trkpt>
      <trkpt lat="44.64753" lon="5.05099">
        <ele>456</ele>
        <time>2026-05-26T12:57:22.000Z</time>
      </trkpt>
      <trkpt lat="44.64753" lon="5.05099">
        <ele>456</ele>
        <time>2026-05-26T12:57:23.000Z</time>
      </trkpt>
      <trkpt lat="44.64752" lon="5.05099">
        <ele>456</ele>
        <time>2026-05-26T12:57:24.000Z</time>
      </trkpt>
      <trkpt lat="44.64751" lon="5.051">
        <ele>456</ele>
        <time>2026-05-26T12:57:25.000Z</time>
      </trkpt>
      <trkpt lat="44.6475" lon="5.05101">
        <ele>456</ele>
        <time>2026-05-26T12:57:26.000Z</time>
      </trkpt>
      <trkpt lat="44.6475" lon="5.05102">
        <ele>456</ele>
        <time>2026-05-26T12:57:27.000Z</time>
      </trkpt>
      <trkpt lat="44.64749" lon="5.05103">
        <ele>456</ele>
        <time>2026-05-26T12:57:28.000Z</time>
      </trkpt>
      <trkpt lat="44.64748" lon="5.05104">
        <ele>455</ele>
        <time>2026-05-26T12:57:29.000Z</time>
      </trkpt>
      <trkpt lat="44.64747" lon="5.05106">
        <ele>455</ele>
        <time>2026-05-26T12:57:30.000Z</time>
      </trkpt>
      <trkpt lat="44.64746" lon="5.05107">
        <ele>455</ele>
        <time>2026-05-26T12:57:31.000Z</time>
      </trkpt>
      <trkpt lat="44.64745" lon="5.05108">
        <ele>455</ele>
        <time>2026-05-26T12:57:32.000Z</time>
      </trkpt>
      <trkpt lat="44.64745" lon="5.05108">
        <ele>456</ele>
        <time>2026-05-26T12:57:33.000Z</time>
      </trkpt>
      <trkpt lat="44.64746" lon="5.05109">
        <ele>456</ele>
        <time>2026-05-26T12:57:34.000Z</time>
      </trkpt>
      <trkpt lat="44.64747" lon="5.05109">
        <ele>456</ele>
        <time>2026-05-26T12:57:35.000Z</time>
      </trkpt>
      <trkpt lat="44.64747" lon="5.05109">
        <ele>455</ele>
        <time>2026-05-26T12:57:36.000Z</time>
      </trkpt>
      <trkpt lat="44.64747" lon="5.05109">
        <ele>455</ele>
        <time>2026-05-26T12:57:37.000Z</time>
      </trkpt>
      <trkpt lat="44.64747" lon="5.05109">
        <ele>455</ele>
        <time>2026-05-26T12:57:38.000Z</time>
      </trkpt>
      <trkpt lat="44.64746" lon="5.05111">
        <ele>453</ele>
        <time>2026-05-26T12:57:39.000Z</time>
      </trkpt>
      <trkpt lat="44.64745" lon="5.05112">
        <ele>452</ele>
        <time>2026-05-26T12:57:40.000Z</time>
      </trkpt>
      <trkpt lat="44.64745" lon="5.05113">
        <ele>451</ele>
        <time>2026-05-26T12:57:41.000Z</time>
      </trkpt>
      <trkpt lat="44.64744" lon="5.05113">
        <ele>452</ele>
        <time>2026-05-26T12:57:42.000Z</time>
      </trkpt>
      <trkpt lat="44.64743" lon="5.05113">
        <ele>451</ele>
        <time>2026-05-26T12:57:43.000Z</time>
      </trkpt>
      <trkpt lat="44.64742" lon="5.05114">
        <ele>452</ele>
        <time>2026-05-26T12:57:44.000Z</time>
      </trkpt>
      <trkpt lat="44.6474" lon="5.05115">
        <ele>452</ele>
        <time>2026-05-26T12:57:45.000Z</time>
      </trkpt>
      <trkpt lat="44.64739" lon="5.05116">
        <ele>452</ele>
        <time>2026-05-26T12:57:46.000Z</time>
      </trkpt>
      <trkpt lat="44.64739" lon="5.05117">
        <ele>451</ele>
        <time>2026-05-26T12:57:47.000Z</time>
      </trkpt>
      <trkpt lat="44.64737" lon="5.05117">
        <ele>451</ele>
        <time>2026-05-26T12:57:48.000Z</time>
      </trkpt>
      <trkpt lat="44.64736" lon="5.05118">
        <ele>451</ele>
        <time>2026-05-26T12:57:49.000Z</time>
      </trkpt>
      <trkpt lat="44.64734" lon="5.05118">
        <ele>450</ele>
        <time>2026-05-26T12:57:50.000Z</time>
      </trkpt>
      <trkpt lat="44.64733" lon="5.05119">
        <ele>450</ele>
        <time>2026-05-26T12:57:51.000Z</time>
      </trkpt>
      <trkpt lat="44.64732" lon="5.05119">
        <ele>449</ele>
        <time>2026-05-26T12:57:52.000Z</time>
      </trkpt>
      <trkpt lat="44.64732" lon="5.0512">
        <ele>449</ele>
        <time>2026-05-26T12:57:53.000Z</time>
      </trkpt>
      <trkpt lat="44.64731" lon="5.05121">
        <ele>450</ele>
        <time>2026-05-26T12:57:54.000Z</time>
      </trkpt>
      <trkpt lat="44.6473" lon="5.05121">
        <ele>450</ele>
        <time>2026-05-26T12:57:55.000Z</time>
      </trkpt>
      <trkpt lat="44.6473" lon="5.05122">
        <ele>449</ele>
        <time>2026-05-26T12:57:56.000Z</time>
      </trkpt>
      <trkpt lat="44.64731" lon="5.05122">
        <ele>449</ele>
        <time>2026-05-26T12:57:57.000Z</time>
      </trkpt>
      <trkpt lat="44.6473" lon="5.05122">
        <ele>449</ele>
        <time>2026-05-26T12:57:58.000Z</time>
      </trkpt>
      <trkpt lat="44.64731" lon="5.05122">
        <ele>448</ele>
        <time>2026-05-26T12:57:59.000Z</time>
      </trkpt>
      <trkpt lat="44.6473" lon="5.05122">
        <ele>449</ele>
        <time>2026-05-26T12:58:00.000Z</time>
      </trkpt>
      <trkpt lat="44.6473" lon="5.05123">
        <ele>449</ele>
        <time>2026-05-26T12:58:01.000Z</time>
      </trkpt>
      <trkpt lat="44.64729" lon="5.05124">
        <ele>448</ele>
        <time>2026-05-26T12:58:02.000Z</time>
      </trkpt>
      <trkpt lat="44.64728" lon="5.05124">
        <ele>448</ele>
        <time>2026-05-26T12:58:03.000Z</time>
      </trkpt>
      <trkpt lat="44.64727" lon="5.05125">
        <ele>447</ele>
        <time>2026-05-26T12:58:04.000Z</time>
      </trkpt>
      <trkpt lat="44.64726" lon="5.05126">
        <ele>447</ele>
        <time>2026-05-26T12:58:05.000Z</time>
      </trkpt>
      <trkpt lat="44.64724" lon="5.05127">
        <ele>447</ele>
        <time>2026-05-26T12:58:06.000Z</time>
      </trkpt>
      <trkpt lat="44.64723" lon="5.05128">
        <ele>446</ele>
        <time>2026-05-26T12:58:07.000Z</time>
      </trkpt>
      <trkpt lat="44.64721" lon="5.05129">
        <ele>446</ele>
        <time>2026-05-26T12:58:08.000Z</time>
      </trkpt>
      <trkpt lat="44.6472" lon="5.0513">
        <ele>446</ele>
        <time>2026-05-26T12:58:09.000Z</time>
      </trkpt>
      <trkpt lat="44.64719" lon="5.05132">
        <ele>446</ele>
        <time>2026-05-26T12:58:10.000Z</time>
      </trkpt>
      <trkpt lat="44.64718" lon="5.05133">
        <ele>446</ele>
        <time>2026-05-26T12:58:11.000Z</time>
      </trkpt>
      <trkpt lat="44.64717" lon="5.05134">
        <ele>445</ele>
        <time>2026-05-26T12:58:12.000Z</time>
      </trkpt>
      <trkpt lat="44.64716" lon="5.05136">
        <ele>447</ele>
        <time>2026-05-26T12:58:13.000Z</time>
      </trkpt>
      <trkpt lat="44.64716" lon="5.05137">
        <ele>446</ele>
        <time>2026-05-26T12:58:14.000Z</time>
      </trkpt>
      <trkpt lat="44.64715" lon="5.05139">
        <ele>446</ele>
        <time>2026-05-26T12:58:15.000Z</time>
      </trkpt>
      <trkpt lat="44.64715" lon="5.0514">
        <ele>446</ele>
        <time>2026-05-26T12:58:16.000Z</time>
      </trkpt>
      <trkpt lat="44.64714" lon="5.05141">
        <ele>446</ele>
        <time>2026-05-26T12:58:17.000Z</time>
      </trkpt>
      <trkpt lat="44.64714" lon="5.05141">
        <ele>446</ele>
        <time>2026-05-26T12:58:18.000Z</time>
      </trkpt>
      <trkpt lat="44.64713" lon="5.05145">
        <ele>446</ele>
        <time>2026-05-26T12:58:19.000Z</time>
      </trkpt>
      <trkpt lat="44.64713" lon="5.05147">
        <ele>446</ele>
        <time>2026-05-26T12:58:20.000Z</time>
      </trkpt>
      <trkpt lat="44.64713" lon="5.05148">
        <ele>446</ele>
        <time>2026-05-26T12:58:21.000Z</time>
      </trkpt>
      <trkpt lat="44.64712" lon="5.05149">
        <ele>446</ele>
        <time>2026-05-26T12:58:22.000Z</time>
      </trkpt>
      <trkpt lat="44.64712" lon="5.05149">
        <ele>446</ele>
        <time>2026-05-26T12:58:23.000Z</time>
      </trkpt>
      <trkpt lat="44.64712" lon="5.05152">
        <ele>446</ele>
        <time>2026-05-26T12:58:24.000Z</time>
      </trkpt>
      <trkpt lat="44.64712" lon="5.05153">
        <ele>446</ele>
        <time>2026-05-26T12:58:25.000Z</time>
      </trkpt>
      <trkpt lat="44.64711" lon="5.05155">
        <ele>447</ele>
        <time>2026-05-26T12:58:26.000Z</time>
      </trkpt>
      <trkpt lat="44.64711" lon="5.05157">
        <ele>447</ele>
        <time>2026-05-26T12:58:27.000Z</time>
      </trkpt>
      <trkpt lat="44.6471" lon="5.0516">
        <ele>447</ele>
        <time>2026-05-26T12:58:28.000Z</time>
      </trkpt>
      <trkpt lat="44.6471" lon="5.05162">
        <ele>447</ele>
        <time>2026-05-26T12:58:29.000Z</time>
      </trkpt>
      <trkpt lat="44.6471" lon="5.05163">
        <ele>447</ele>
        <time>2026-05-26T12:58:30.000Z</time>
      </trkpt>
      <trkpt lat="44.64709" lon="5.05165">
        <ele>446</ele>
        <time>2026-05-26T12:58:31.000Z</time>
      </trkpt>
      <trkpt lat="44.64709" lon="5.05171">
        <ele>441</ele>
        <time>2026-05-26T12:58:32.000Z</time>
      </trkpt>
      <trkpt lat="44.64708" lon="5.05174">
        <ele>442</ele>
        <time>2026-05-26T12:58:33.000Z</time>
      </trkpt>
      <trkpt lat="44.64707" lon="5.05176">
        <ele>443</ele>
        <time>2026-05-26T12:58:34.000Z</time>
      </trkpt>
      <trkpt lat="44.64706" lon="5.05178">
        <ele>443</ele>
        <time>2026-05-26T12:58:35.000Z</time>
      </trkpt>
      <trkpt lat="44.64705" lon="5.05179">
        <ele>443</ele>
        <time>2026-05-26T12:58:36.000Z</time>
      </trkpt>
      <trkpt lat="44.64705" lon="5.0518">
        <ele>443</ele>
        <time>2026-05-26T12:58:37.000Z</time>
      </trkpt>
      <trkpt lat="44.64704" lon="5.0518">
        <ele>443</ele>
        <time>2026-05-26T12:58:38.000Z</time>
      </trkpt>
      <trkpt lat="44.64704" lon="5.0518">
        <ele>443</ele>
        <time>2026-05-26T12:58:39.000Z</time>
      </trkpt>
      <trkpt lat="44.64702" lon="5.05182">
        <ele>443</ele>
        <time>2026-05-26T12:58:40.000Z</time>
      </trkpt>
      <trkpt lat="44.64702" lon="5.05183">
        <ele>442</ele>
        <time>2026-05-26T12:58:41.000Z</time>
      </trkpt>
      <trkpt lat="44.647" lon="5.05185">
        <ele>443</ele>
        <time>2026-05-26T12:58:42.000Z</time>
      </trkpt>
      <trkpt lat="44.64699" lon="5.05186">
        <ele>443</ele>
        <time>2026-05-26T12:58:43.000Z</time>
      </trkpt>
      <trkpt lat="44.64698" lon="5.05187">
        <ele>443</ele>
        <time>2026-05-26T12:58:44.000Z</time>
      </trkpt>
      <trkpt lat="44.64697" lon="5.05187">
        <ele>443</ele>
        <time>2026-05-26T12:58:45.000Z</time>
      </trkpt>
      <trkpt lat="44.64696" lon="5.05187">
        <ele>443</ele>
        <time>2026-05-26T12:58:46.000Z</time>
      </trkpt>
      <trkpt lat="44.64695" lon="5.05187">
        <ele>443</ele>
        <time>2026-05-26T12:58:47.000Z</time>
      </trkpt>
      <trkpt lat="44.64694" lon="5.05187">
        <ele>443</ele>
        <time>2026-05-26T12:58:48.000Z</time>
      </trkpt>
      <trkpt lat="44.64693" lon="5.05187">
        <ele>443</ele>
        <time>2026-05-26T12:58:49.000Z</time>
      </trkpt>
      <trkpt lat="44.64693" lon="5.05187">
        <ele>443</ele>
        <time>2026-05-26T12:58:50.000Z</time>
      </trkpt>
      <trkpt lat="44.64692" lon="5.05187">
        <ele>443</ele>
        <time>2026-05-26T12:58:51.000Z</time>
      </trkpt>
      <trkpt lat="44.64691" lon="5.05189">
        <ele>443</ele>
        <time>2026-05-26T12:58:52.000Z</time>
      </trkpt>
      <trkpt lat="44.6469" lon="5.0519">
        <ele>444</ele>
        <time>2026-05-26T12:58:53.000Z</time>
      </trkpt>
      <trkpt lat="44.6469" lon="5.05192">
        <ele>443</ele>
        <time>2026-05-26T12:58:54.000Z</time>
      </trkpt>
      <trkpt lat="44.64689" lon="5.05192">
        <ele>443</ele>
        <time>2026-05-26T12:58:55.000Z</time>
      </trkpt>
      <trkpt lat="44.64688" lon="5.05193">
        <ele>442</ele>
        <time>2026-05-26T12:58:56.000Z</time>
      </trkpt>
      <trkpt lat="44.64688" lon="5.05193">
        <ele>441</ele>
        <time>2026-05-26T12:58:57.000Z</time>
      </trkpt>
      <trkpt lat="44.64687" lon="5.05194">
        <ele>442</ele>
        <time>2026-05-26T12:58:58.000Z</time>
      </trkpt>
      <trkpt lat="44.64684" lon="5.05195">
        <ele>441</ele>
        <time>2026-05-26T12:58:59.000Z</time>
      </trkpt>
      <trkpt lat="44.64683" lon="5.05197">
        <ele>442</ele>
        <time>2026-05-26T12:59:00.000Z</time>
      </trkpt>
      <trkpt lat="44.64683" lon="5.05198">
        <ele>442</ele>
        <time>2026-05-26T12:59:01.000Z</time>
      </trkpt>
      <trkpt lat="44.64682" lon="5.05199">
        <ele>442</ele>
        <time>2026-05-26T12:59:02.000Z</time>
      </trkpt>
      <trkpt lat="44.64681" lon="5.052">
        <ele>442</ele>
        <time>2026-05-26T12:59:03.000Z</time>
      </trkpt>
      <trkpt lat="44.64681" lon="5.05201">
        <ele>441</ele>
        <time>2026-05-26T12:59:04.000Z</time>
      </trkpt>
      <trkpt lat="44.6468" lon="5.05202">
        <ele>442</ele>
        <time>2026-05-26T12:59:05.000Z</time>
      </trkpt>
      <trkpt lat="44.64678" lon="5.05202">
        <ele>441</ele>
        <time>2026-05-26T12:59:06.000Z</time>
      </trkpt>
      <trkpt lat="44.64678" lon="5.05203">
        <ele>442</ele>
        <time>2026-05-26T12:59:07.000Z</time>
      </trkpt>
      <trkpt lat="44.64677" lon="5.05203">
        <ele>441</ele>
        <time>2026-05-26T12:59:08.000Z</time>
      </trkpt>
      <trkpt lat="44.64677" lon="5.05204">
        <ele>441</ele>
        <time>2026-05-26T12:59:09.000Z</time>
      </trkpt>
      <trkpt lat="44.64677" lon="5.05205">
        <ele>441</ele>
        <time>2026-05-26T12:59:10.000Z</time>
      </trkpt>
      <trkpt lat="44.64676" lon="5.05206">
        <ele>441</ele>
        <time>2026-05-26T12:59:11.000Z</time>
      </trkpt>
      <trkpt lat="44.64675" lon="5.05206">
        <ele>440</ele>
        <time>2026-05-26T12:59:12.000Z</time>
      </trkpt>
      <trkpt lat="44.64674" lon="5.05206">
        <ele>439</ele>
        <time>2026-05-26T12:59:13.000Z</time>
      </trkpt>
      <trkpt lat="44.64673" lon="5.05207">
        <ele>439</ele>
        <time>2026-05-26T12:59:14.000Z</time>
      </trkpt>
      <trkpt lat="44.64672" lon="5.05208">
        <ele>438</ele>
        <time>2026-05-26T12:59:15.000Z</time>
      </trkpt>
      <trkpt lat="44.6467" lon="5.05209">
        <ele>437</ele>
        <time>2026-05-26T12:59:16.000Z</time>
      </trkpt>
      <trkpt lat="44.6467" lon="5.0521">
        <ele>437</ele>
        <time>2026-05-26T12:59:17.000Z</time>
      </trkpt>
      <trkpt lat="44.6467" lon="5.0521">
        <ele>437</ele>
        <time>2026-05-26T12:59:18.000Z</time>
      </trkpt>
      <trkpt lat="44.6467" lon="5.0521">
        <ele>437</ele>
        <time>2026-05-26T12:59:19.000Z</time>
      </trkpt>
      <trkpt lat="44.64666" lon="5.05214">
        <ele>438</ele>
        <time>2026-05-26T12:59:20.000Z</time>
      </trkpt>
      <trkpt lat="44.64666" lon="5.05216">
        <ele>437</ele>
        <time>2026-05-26T12:59:21.000Z</time>
      </trkpt>
      <trkpt lat="44.64665" lon="5.05217">
        <ele>436</ele>
        <time>2026-05-26T12:59:22.000Z</time>
      </trkpt>
      <trkpt lat="44.64663" lon="5.05217">
        <ele>436</ele>
        <time>2026-05-26T12:59:23.000Z</time>
      </trkpt>
      <trkpt lat="44.64662" lon="5.05218">
        <ele>435</ele>
        <time>2026-05-26T12:59:24.000Z</time>
      </trkpt>
      <trkpt lat="44.6466" lon="5.05218">
        <ele>435</ele>
        <time>2026-05-26T12:59:25.000Z</time>
      </trkpt>
      <trkpt lat="44.6466" lon="5.05219">
        <ele>435</ele>
        <time>2026-05-26T12:59:26.000Z</time>
      </trkpt>
      <trkpt lat="44.64659" lon="5.0522">
        <ele>434</ele>
        <time>2026-05-26T12:59:27.000Z</time>
      </trkpt>
      <trkpt lat="44.64657" lon="5.05221">
        <ele>435</ele>
        <time>2026-05-26T12:59:28.000Z</time>
      </trkpt>
      <trkpt lat="44.64657" lon="5.05222">
        <ele>435</ele>
        <time>2026-05-26T12:59:29.000Z</time>
      </trkpt>
      <trkpt lat="44.64656" lon="5.05223">
        <ele>434</ele>
        <time>2026-05-26T12:59:30.000Z</time>
      </trkpt>
      <trkpt lat="44.64655" lon="5.05225">
        <ele>433</ele>
        <time>2026-05-26T12:59:31.000Z</time>
      </trkpt>
      <trkpt lat="44.64654" lon="5.05226">
        <ele>433</ele>
        <time>2026-05-26T12:59:32.000Z</time>
      </trkpt>
      <trkpt lat="44.64653" lon="5.05226">
        <ele>432</ele>
        <time>2026-05-26T12:59:33.000Z</time>
      </trkpt>
      <trkpt lat="44.64651" lon="5.05227">
        <ele>432</ele>
        <time>2026-05-26T12:59:34.000Z</time>
      </trkpt>
      <trkpt lat="44.6465" lon="5.05228">
        <ele>432</ele>
        <time>2026-05-26T12:59:35.000Z</time>
      </trkpt>
      <trkpt lat="44.64648" lon="5.05228">
        <ele>431</ele>
        <time>2026-05-26T12:59:36.000Z</time>
      </trkpt>
      <trkpt lat="44.64647" lon="5.05228">
        <ele>431</ele>
        <time>2026-05-26T12:59:37.000Z</time>
      </trkpt>
      <trkpt lat="44.64646" lon="5.05228">
        <ele>431</ele>
        <time>2026-05-26T12:59:38.000Z</time>
      </trkpt>
      <trkpt lat="44.64644" lon="5.05229">
        <ele>430</ele>
        <time>2026-05-26T12:59:39.000Z</time>
      </trkpt>
      <trkpt lat="44.64644" lon="5.05232">
        <ele>429</ele>
        <time>2026-05-26T12:59:40.000Z</time>
      </trkpt>
      <trkpt lat="44.64645" lon="5.05233">
        <ele>430</ele>
        <time>2026-05-26T12:59:41.000Z</time>
      </trkpt>
      <trkpt lat="44.64646" lon="5.05233">
        <ele>430</ele>
        <time>2026-05-26T12:59:42.000Z</time>
      </trkpt>
      <trkpt lat="44.64646" lon="5.05234">
        <ele>431</ele>
        <time>2026-05-26T12:59:43.000Z</time>
      </trkpt>
      <trkpt lat="44.64647" lon="5.05236">
        <ele>431</ele>
        <time>2026-05-26T12:59:44.000Z</time>
      </trkpt>
      <trkpt lat="44.64647" lon="5.05237">
        <ele>430</ele>
        <time>2026-05-26T12:59:45.000Z</time>
      </trkpt>
      <trkpt lat="44.64647" lon="5.05238">
        <ele>430</ele>
        <time>2026-05-26T12:59:46.000Z</time>
      </trkpt>
      <trkpt lat="44.64647" lon="5.05239">
        <ele>431</ele>
        <time>2026-05-26T12:59:47.000Z</time>
      </trkpt>
      <trkpt lat="44.64647" lon="5.0524">
        <ele>431</ele>
        <time>2026-05-26T12:59:48.000Z</time>
      </trkpt>
      <trkpt lat="44.64647" lon="5.0524">
        <ele>431</ele>
        <time>2026-05-26T12:59:49.000Z</time>
      </trkpt>
      <trkpt lat="44.64647" lon="5.0524">
        <ele>431</ele>
        <time>2026-05-26T12:59:50.000Z</time>
      </trkpt>
      <trkpt lat="44.64647" lon="5.0524">
        <ele>431</ele>
        <time>2026-05-26T12:59:51.000Z</time>
      </trkpt>
      <trkpt lat="44.64647" lon="5.0524">
        <ele>431</ele>
        <time>2026-05-26T12:59:52.000Z</time>
      </trkpt>
      <trkpt lat="44.64647" lon="5.0524">
        <ele>431</ele>
        <time>2026-05-26T12:59:53.000Z</time>
      </trkpt>
      <trkpt lat="44.64647" lon="5.0524">
        <ele>431</ele>
        <time>2026-05-26T12:59:54.000Z</time>
      </trkpt>
      <trkpt lat="44.64647" lon="5.0524">
        <ele>431</ele>
        <time>2026-05-26T12:59:55.000Z</time>
      </trkpt>
      <trkpt lat="44.64647" lon="5.0524">
        <ele>431</ele>
        <time>2026-05-26T12:59:56.000Z</time>
      </trkpt>
      <trkpt lat="44.64647" lon="5.0524">
        <ele>431</ele>
        <time>2026-05-26T12:59:57.000Z</time>
      </trkpt>
      <trkpt lat="44.64647" lon="5.0524">
        <ele>431</ele>
        <time>2026-05-26T12:59:58.000Z</time>
      </trkpt>
      <trkpt lat="44.64647" lon="5.0524">
        <ele>431</ele>
        <time>2026-05-26T12:59:59.000Z</time>
      </trkpt>
      <trkpt lat="44.64647" lon="5.0524">
        <ele>431</ele>
        <time>2026-05-26T13:00:00.000Z</time>
      </trkpt>
      <trkpt lat="44.64647" lon="5.0524">
        <ele>431</ele>
        <time>2026-05-26T13:00:01.000Z</time>
      </trkpt>
      <trkpt lat="44.64647" lon="5.0524">
        <ele>431</ele>
        <time>2026-05-26T13:00:02.000Z</time>
      </trkpt>
      <trkpt lat="44.64647" lon="5.0524">
        <ele>431</ele>
        <time>2026-05-26T13:00:03.000Z</time>
      </trkpt>
      <trkpt lat="44.64647" lon="5.0524">
        <ele>431</ele>
        <time>2026-05-26T13:00:04.000Z</time>
      </trkpt>
      <trkpt lat="44.64647" lon="5.0524">
        <ele>431</ele>
        <time>2026-05-26T13:00:05.000Z</time>
      </trkpt>
      <trkpt lat="44.64647" lon="5.0524">
        <ele>431</ele>
        <time>2026-05-26T13:00:06.000Z</time>
      </trkpt>
      <trkpt lat="44.64647" lon="5.05239">
        <ele>432</ele>
        <time>2026-05-26T13:00:07.000Z</time>
      </trkpt>
      <trkpt lat="44.64647" lon="5.05238">
        <ele>432</ele>
        <time>2026-05-26T13:00:08.000Z</time>
      </trkpt>
      <trkpt lat="44.64647" lon="5.05237">
        <ele>432</ele>
        <time>2026-05-26T13:00:09.000Z</time>
      </trkpt>
      <trkpt lat="44.64646" lon="5.05236">
        <ele>432</ele>
        <time>2026-05-26T13:00:10.000Z</time>
      </trkpt>
      <trkpt lat="44.64645" lon="5.05235">
        <ele>432</ele>
        <time>2026-05-26T13:00:11.000Z</time>
      </trkpt>
      <trkpt lat="44.64643" lon="5.05235">
        <ele>431</ele>
        <time>2026-05-26T13:00:12.000Z</time>
      </trkpt>
      <trkpt lat="44.64642" lon="5.05235">
        <ele>431</ele>
        <time>2026-05-26T13:00:13.000Z</time>
      </trkpt>
      <trkpt lat="44.64641" lon="5.05235">
        <ele>430</ele>
        <time>2026-05-26T13:00:14.000Z</time>
      </trkpt>
      <trkpt lat="44.6464" lon="5.05236">
        <ele>429</ele>
        <time>2026-05-26T13:00:15.000Z</time>
      </trkpt>
      <trkpt lat="44.64639" lon="5.05236">
        <ele>429</ele>
        <time>2026-05-26T13:00:16.000Z</time>
      </trkpt>
      <trkpt lat="44.64638" lon="5.05236">
        <ele>429</ele>
        <time>2026-05-26T13:00:17.000Z</time>
      </trkpt>
      <trkpt lat="44.64637" lon="5.05237">
        <ele>430</ele>
        <time>2026-05-26T13:00:18.000Z</time>
      </trkpt>
      <trkpt lat="44.64636" lon="5.05237">
        <ele>430</ele>
        <time>2026-05-26T13:00:19.000Z</time>
      </trkpt>
      <trkpt lat="44.64635" lon="5.05237">
        <ele>429</ele>
        <time>2026-05-26T13:00:20.000Z</time>
      </trkpt>
      <trkpt lat="44.64634" lon="5.05238">
        <ele>429</ele>
        <time>2026-05-26T13:00:21.000Z</time>
      </trkpt>
      <trkpt lat="44.64634" lon="5.05238">
        <ele>429</ele>
        <time>2026-05-26T13:00:22.000Z</time>
      </trkpt>
      <trkpt lat="44.64633" lon="5.05239">
        <ele>429</ele>
        <time>2026-05-26T13:00:23.000Z</time>
      </trkpt>
      <trkpt lat="44.64631" lon="5.0524">
        <ele>429</ele>
        <time>2026-05-26T13:00:24.000Z</time>
      </trkpt>
      <trkpt lat="44.6463" lon="5.05241">
        <ele>431</ele>
        <time>2026-05-26T13:00:25.000Z</time>
      </trkpt>
      <trkpt lat="44.64629" lon="5.05241">
        <ele>433</ele>
        <time>2026-05-26T13:00:26.000Z</time>
      </trkpt>
      <trkpt lat="44.64628" lon="5.0524">
        <ele>435</ele>
        <time>2026-05-26T13:00:27.000Z</time>
      </trkpt>
      <trkpt lat="44.64628" lon="5.05241">
        <ele>436</ele>
        <time>2026-05-26T13:00:28.000Z</time>
      </trkpt>
      <trkpt lat="44.64627" lon="5.05242">
        <ele>436</ele>
        <time>2026-05-26T13:00:29.000Z</time>
      </trkpt>
      <trkpt lat="44.64626" lon="5.05245">
        <ele>435</ele>
        <time>2026-05-26T13:00:30.000Z</time>
      </trkpt>
      <trkpt lat="44.64625" lon="5.05246">
        <ele>435</ele>
        <time>2026-05-26T13:00:31.000Z</time>
      </trkpt>
      <trkpt lat="44.64625" lon="5.05247">
        <ele>435</ele>
        <time>2026-05-26T13:00:32.000Z</time>
      </trkpt>
      <trkpt lat="44.64625" lon="5.05248">
        <ele>433</ele>
        <time>2026-05-26T13:00:33.000Z</time>
      </trkpt>
      <trkpt lat="44.64623" lon="5.05249">
        <ele>432</ele>
        <time>2026-05-26T13:00:34.000Z</time>
      </trkpt>
      <trkpt lat="44.64622" lon="5.05249">
        <ele>432</ele>
        <time>2026-05-26T13:00:35.000Z</time>
      </trkpt>
      <trkpt lat="44.64621" lon="5.05252">
        <ele>432</ele>
        <time>2026-05-26T13:00:36.000Z</time>
      </trkpt>
      <trkpt lat="44.6462" lon="5.05253">
        <ele>433</ele>
        <time>2026-05-26T13:00:37.000Z</time>
      </trkpt>
      <trkpt lat="44.6462" lon="5.05254">
        <ele>433</ele>
        <time>2026-05-26T13:00:38.000Z</time>
      </trkpt>
      <trkpt lat="44.64619" lon="5.05256">
        <ele>432</ele>
        <time>2026-05-26T13:00:39.000Z</time>
      </trkpt>
      <trkpt lat="44.64618" lon="5.05258">
        <ele>432</ele>
        <time>2026-05-26T13:00:40.000Z</time>
      </trkpt>
      <trkpt lat="44.64618" lon="5.05261">
        <ele>433</ele>
        <time>2026-05-26T13:00:41.000Z</time>
      </trkpt>
      <trkpt lat="44.64617" lon="5.05263">
        <ele>433</ele>
        <time>2026-05-26T13:00:42.000Z</time>
      </trkpt>
      <trkpt lat="44.64615" lon="5.05264">
        <ele>432</ele>
        <time>2026-05-26T13:00:43.000Z</time>
      </trkpt>
      <trkpt lat="44.64615" lon="5.0526">
        <ele>431</ele>
        <time>2026-05-26T13:00:44.000Z</time>
      </trkpt>
      <trkpt lat="44.64615" lon="5.05258">
        <ele>431</ele>
        <time>2026-05-26T13:00:45.000Z</time>
      </trkpt>
      <trkpt lat="44.64616" lon="5.05255">
        <ele>432</ele>
        <time>2026-05-26T13:00:46.000Z</time>
      </trkpt>
      <trkpt lat="44.64616" lon="5.05253">
        <ele>431</ele>
        <time>2026-05-26T13:00:47.000Z</time>
      </trkpt>
      <trkpt lat="44.64616" lon="5.05255">
        <ele>431</ele>
        <time>2026-05-26T13:00:48.000Z</time>
      </trkpt>
      <trkpt lat="44.64615" lon="5.05257">
        <ele>430</ele>
        <time>2026-05-26T13:00:49.000Z</time>
      </trkpt>
      <trkpt lat="44.64614" lon="5.05258">
        <ele>430</ele>
        <time>2026-05-26T13:00:50.000Z</time>
      </trkpt>
      <trkpt lat="44.64614" lon="5.0526">
        <ele>430</ele>
        <time>2026-05-26T13:00:51.000Z</time>
      </trkpt>
      <trkpt lat="44.64613" lon="5.05264">
        <ele>428</ele>
        <time>2026-05-26T13:00:52.000Z</time>
      </trkpt>
      <trkpt lat="44.64612" lon="5.0527">
        <ele>426</ele>
        <time>2026-05-26T13:00:53.000Z</time>
      </trkpt>
      <trkpt lat="44.64612" lon="5.05276">
        <ele>426</ele>
        <time>2026-05-26T13:00:54.000Z</time>
      </trkpt>
      <trkpt lat="44.64612" lon="5.05283">
        <ele>426</ele>
        <time>2026-05-26T13:00:55.000Z</time>
      </trkpt>
      <trkpt lat="44.64612" lon="5.05285">
        <ele>426</ele>
        <time>2026-05-26T13:00:56.000Z</time>
      </trkpt>
      <trkpt lat="44.64612" lon="5.05286">
        <ele>425</ele>
        <time>2026-05-26T13:00:57.000Z</time>
      </trkpt>
      <trkpt lat="44.64612" lon="5.05287">
        <ele>424</ele>
        <time>2026-05-26T13:00:58.000Z</time>
      </trkpt>
      <trkpt lat="44.64612" lon="5.05289">
        <ele>424</ele>
        <time>2026-05-26T13:00:59.000Z</time>
      </trkpt>
      <trkpt lat="44.64611" lon="5.05291">
        <ele>424</ele>
        <time>2026-05-26T13:01:00.000Z</time>
      </trkpt>
      <trkpt lat="44.64612" lon="5.05293">
        <ele>424</ele>
        <time>2026-05-26T13:01:01.000Z</time>
      </trkpt>
      <trkpt lat="44.64612" lon="5.05295">
        <ele>424</ele>
        <time>2026-05-26T13:01:02.000Z</time>
      </trkpt>
      <trkpt lat="44.64612" lon="5.05296">
        <ele>423</ele>
        <time>2026-05-26T13:01:03.000Z</time>
      </trkpt>
      <trkpt lat="44.64613" lon="5.053">
        <ele>423</ele>
        <time>2026-05-26T13:01:04.000Z</time>
      </trkpt>
      <trkpt lat="44.64613" lon="5.05301">
        <ele>423</ele>
        <time>2026-05-26T13:01:05.000Z</time>
      </trkpt>
      <trkpt lat="44.64615" lon="5.05303">
        <ele>422</ele>
        <time>2026-05-26T13:01:06.000Z</time>
      </trkpt>
      <trkpt lat="44.64615" lon="5.05303">
        <ele>422</ele>
        <time>2026-05-26T13:01:07.000Z</time>
      </trkpt>
      <trkpt lat="44.64616" lon="5.05303">
        <ele>421</ele>
        <time>2026-05-26T13:01:08.000Z</time>
      </trkpt>
      <trkpt lat="44.64617" lon="5.05306">
        <ele>421</ele>
        <time>2026-05-26T13:01:09.000Z</time>
      </trkpt>
      <trkpt lat="44.64618" lon="5.05307">
        <ele>421</ele>
        <time>2026-05-26T13:01:10.000Z</time>
      </trkpt>
      <trkpt lat="44.64619" lon="5.05309">
        <ele>421</ele>
        <time>2026-05-26T13:01:11.000Z</time>
      </trkpt>
      <trkpt lat="44.6462" lon="5.05311">
        <ele>419</ele>
        <time>2026-05-26T13:01:12.000Z</time>
      </trkpt>
      <trkpt lat="44.64621" lon="5.05312">
        <ele>419</ele>
        <time>2026-05-26T13:01:13.000Z</time>
      </trkpt>
      <trkpt lat="44.64621" lon="5.05314">
        <ele>419</ele>
        <time>2026-05-26T13:01:14.000Z</time>
      </trkpt>
      <trkpt lat="44.64622" lon="5.05316">
        <ele>419</ele>
        <time>2026-05-26T13:01:15.000Z</time>
      </trkpt>
      <trkpt lat="44.64623" lon="5.05318">
        <ele>419</ele>
        <time>2026-05-26T13:01:16.000Z</time>
      </trkpt>
      <trkpt lat="44.64623" lon="5.05318">
        <ele>419</ele>
        <time>2026-05-26T13:01:17.000Z</time>
      </trkpt>
      <trkpt lat="44.64624" lon="5.05318">
        <ele>419</ele>
        <time>2026-05-26T13:01:18.000Z</time>
      </trkpt>
      <trkpt lat="44.64625" lon="5.0532">
        <ele>418</ele>
        <time>2026-05-26T13:01:19.000Z</time>
      </trkpt>
      <trkpt lat="44.64627" lon="5.05321">
        <ele>417</ele>
        <time>2026-05-26T13:01:20.000Z</time>
      </trkpt>
      <trkpt lat="44.64627" lon="5.05321">
        <ele>417</ele>
        <time>2026-05-26T13:01:21.000Z</time>
      </trkpt>
      <trkpt lat="44.64628" lon="5.05322">
        <ele>416</ele>
        <time>2026-05-26T13:01:22.000Z</time>
      </trkpt>
      <trkpt lat="44.64629" lon="5.05323">
        <ele>417</ele>
        <time>2026-05-26T13:01:23.000Z</time>
      </trkpt>
      <trkpt lat="44.6463" lon="5.05324">
        <ele>416</ele>
        <time>2026-05-26T13:01:24.000Z</time>
      </trkpt>
      <trkpt lat="44.64631" lon="5.05326">
        <ele>416</ele>
        <time>2026-05-26T13:01:25.000Z</time>
      </trkpt>
      <trkpt lat="44.64631" lon="5.05327">
        <ele>417</ele>
        <time>2026-05-26T13:01:26.000Z</time>
      </trkpt>
      <trkpt lat="44.64631" lon="5.05327">
        <ele>417</ele>
        <time>2026-05-26T13:01:27.000Z</time>
      </trkpt>
      <trkpt lat="44.64632" lon="5.05327">
        <ele>415</ele>
        <time>2026-05-26T13:01:28.000Z</time>
      </trkpt>
      <trkpt lat="44.64632" lon="5.05327">
        <ele>415</ele>
        <time>2026-05-26T13:01:29.000Z</time>
      </trkpt>
      <trkpt lat="44.64632" lon="5.05327">
        <ele>415</ele>
        <time>2026-05-26T13:01:30.000Z</time>
      </trkpt>
      <trkpt lat="44.64632" lon="5.05327">
        <ele>415</ele>
        <time>2026-05-26T13:01:31.000Z</time>
      </trkpt>
      <trkpt lat="44.64632" lon="5.05327">
        <ele>415</ele>
        <time>2026-05-26T13:01:32.000Z</time>
      </trkpt>
      <trkpt lat="44.64632" lon="5.05327">
        <ele>415</ele>
        <time>2026-05-26T13:01:33.000Z</time>
      </trkpt>
      <trkpt lat="44.64632" lon="5.05327">
        <ele>415</ele>
        <time>2026-05-26T13:01:34.000Z</time>
      </trkpt>
      <trkpt lat="44.64632" lon="5.05328">
        <ele>417</ele>
        <time>2026-05-26T13:01:35.000Z</time>
      </trkpt>
      <trkpt lat="44.64633" lon="5.05329">
        <ele>416</ele>
        <time>2026-05-26T13:01:36.000Z</time>
      </trkpt>
      <trkpt lat="44.64633" lon="5.0533">
        <ele>416</ele>
        <time>2026-05-26T13:01:37.000Z</time>
      </trkpt>
      <trkpt lat="44.64633" lon="5.0533">
        <ele>416</ele>
        <time>2026-05-26T13:01:38.000Z</time>
      </trkpt>
      <trkpt lat="44.64635" lon="5.05331">
        <ele>416</ele>
        <time>2026-05-26T13:01:39.000Z</time>
      </trkpt>
      <trkpt lat="44.64635" lon="5.05332">
        <ele>416</ele>
        <time>2026-05-26T13:01:40.000Z</time>
      </trkpt>
      <trkpt lat="44.64636" lon="5.05334">
        <ele>416</ele>
        <time>2026-05-26T13:01:41.000Z</time>
      </trkpt>
      <trkpt lat="44.64636" lon="5.05335">
        <ele>416</ele>
        <time>2026-05-26T13:01:42.000Z</time>
      </trkpt>
      <trkpt lat="44.64636" lon="5.05336">
        <ele>415</ele>
        <time>2026-05-26T13:01:43.000Z</time>
      </trkpt>
      <trkpt lat="44.64637" lon="5.05336">
        <ele>415</ele>
        <time>2026-05-26T13:01:44.000Z</time>
      </trkpt>
      <trkpt lat="44.64638" lon="5.05337">
        <ele>416</ele>
        <time>2026-05-26T13:01:45.000Z</time>
      </trkpt>
      <trkpt lat="44.64638" lon="5.05339">
        <ele>415</ele>
        <time>2026-05-26T13:01:46.000Z</time>
      </trkpt>
      <trkpt lat="44.64639" lon="5.05341">
        <ele>415</ele>
        <time>2026-05-26T13:01:47.000Z</time>
      </trkpt>
      <trkpt lat="44.64639" lon="5.05342">
        <ele>414</ele>
        <time>2026-05-26T13:01:48.000Z</time>
      </trkpt>
      <trkpt lat="44.64641" lon="5.05342">
        <ele>415</ele>
        <time>2026-05-26T13:01:49.000Z</time>
      </trkpt>
      <trkpt lat="44.64642" lon="5.05343">
        <ele>415</ele>
        <time>2026-05-26T13:01:50.000Z</time>
      </trkpt>
      <trkpt lat="44.64642" lon="5.05344">
        <ele>415</ele>
        <time>2026-05-26T13:01:51.000Z</time>
      </trkpt>
      <trkpt lat="44.64643" lon="5.05345">
        <ele>415</ele>
        <time>2026-05-26T13:01:52.000Z</time>
      </trkpt>
      <trkpt lat="44.64645" lon="5.05346">
        <ele>414</ele>
        <time>2026-05-26T13:01:53.000Z</time>
      </trkpt>
      <trkpt lat="44.64646" lon="5.05346">
        <ele>414</ele>
        <time>2026-05-26T13:01:54.000Z</time>
      </trkpt>
      <trkpt lat="44.64646" lon="5.05348">
        <ele>414</ele>
        <time>2026-05-26T13:01:55.000Z</time>
      </trkpt>
      <trkpt lat="44.64646" lon="5.0535">
        <ele>415</ele>
        <time>2026-05-26T13:01:56.000Z</time>
      </trkpt>
      <trkpt lat="44.64648" lon="5.0535">
        <ele>413</ele>
        <time>2026-05-26T13:01:57.000Z</time>
      </trkpt>
      <trkpt lat="44.64648" lon="5.05351">
        <ele>413</ele>
        <time>2026-05-26T13:01:58.000Z</time>
      </trkpt>
      <trkpt lat="44.64648" lon="5.05351">
        <ele>412</ele>
        <time>2026-05-26T13:01:59.000Z</time>
      </trkpt>
      <trkpt lat="44.64648" lon="5.05353">
        <ele>413</ele>
        <time>2026-05-26T13:02:00.000Z</time>
      </trkpt>
      <trkpt lat="44.64648" lon="5.05354">
        <ele>413</ele>
        <time>2026-05-26T13:02:01.000Z</time>
      </trkpt>
      <trkpt lat="44.64648" lon="5.05354">
        <ele>413</ele>
        <time>2026-05-26T13:02:02.000Z</time>
      </trkpt>
      <trkpt lat="44.64648" lon="5.05354">
        <ele>413</ele>
        <time>2026-05-26T13:02:03.000Z</time>
      </trkpt>
      <trkpt lat="44.64648" lon="5.05354">
        <ele>413</ele>
        <time>2026-05-26T13:02:04.000Z</time>
      </trkpt>
      <trkpt lat="44.64649" lon="5.05353">
        <ele>412</ele>
        <time>2026-05-26T13:02:05.000Z</time>
      </trkpt>
      <trkpt lat="44.64649" lon="5.05354">
        <ele>412</ele>
        <time>2026-05-26T13:02:06.000Z</time>
      </trkpt>
      <trkpt lat="44.6465" lon="5.05356">
        <ele>412</ele>
        <time>2026-05-26T13:02:07.000Z</time>
      </trkpt>
      <trkpt lat="44.64651" lon="5.05356">
        <ele>412</ele>
        <time>2026-05-26T13:02:08.000Z</time>
      </trkpt>
      <trkpt lat="44.64652" lon="5.05357">
        <ele>411</ele>
        <time>2026-05-26T13:02:09.000Z</time>
      </trkpt>
      <trkpt lat="44.64653" lon="5.05357">
        <ele>411</ele>
        <time>2026-05-26T13:02:10.000Z</time>
      </trkpt>
      <trkpt lat="44.64654" lon="5.05358">
        <ele>413</ele>
        <time>2026-05-26T13:02:11.000Z</time>
      </trkpt>
      <trkpt lat="44.64654" lon="5.05358">
        <ele>413</ele>
        <time>2026-05-26T13:02:12.000Z</time>
      </trkpt>
      <trkpt lat="44.64654" lon="5.05358">
        <ele>413</ele>
        <time>2026-05-26T13:02:13.000Z</time>
      </trkpt>
      <trkpt lat="44.64654" lon="5.05358">
        <ele>413</ele>
        <time>2026-05-26T13:02:14.000Z</time>
      </trkpt>
      <trkpt lat="44.64654" lon="5.05358">
        <ele>412</ele>
        <time>2026-05-26T13:02:15.000Z</time>
      </trkpt>
      <trkpt lat="44.64655" lon="5.05359">
        <ele>413</ele>
        <time>2026-05-26T13:02:16.000Z</time>
      </trkpt>
      <trkpt lat="44.64656" lon="5.05361">
        <ele>412</ele>
        <time>2026-05-26T13:02:17.000Z</time>
      </trkpt>
      <trkpt lat="44.64657" lon="5.05363">
        <ele>412</ele>
        <time>2026-05-26T13:02:18.000Z</time>
      </trkpt>
      <trkpt lat="44.64657" lon="5.05364">
        <ele>411</ele>
        <time>2026-05-26T13:02:19.000Z</time>
      </trkpt>
      <trkpt lat="44.64659" lon="5.05365">
        <ele>411</ele>
        <time>2026-05-26T13:02:20.000Z</time>
      </trkpt>
      <trkpt lat="44.6466" lon="5.05366">
        <ele>411</ele>
        <time>2026-05-26T13:02:21.000Z</time>
      </trkpt>
      <trkpt lat="44.64661" lon="5.05366">
        <ele>410</ele>
        <time>2026-05-26T13:02:22.000Z</time>
      </trkpt>
      <trkpt lat="44.64661" lon="5.05368">
        <ele>409</ele>
        <time>2026-05-26T13:02:23.000Z</time>
      </trkpt>
      <trkpt lat="44.64662" lon="5.05369">
        <ele>409</ele>
        <time>2026-05-26T13:02:24.000Z</time>
      </trkpt>
      <trkpt lat="44.64662" lon="5.05368">
        <ele>408</ele>
        <time>2026-05-26T13:02:25.000Z</time>
      </trkpt>
      <trkpt lat="44.64663" lon="5.05369">
        <ele>409</ele>
        <time>2026-05-26T13:02:26.000Z</time>
      </trkpt>
      <trkpt lat="44.64663" lon="5.05369">
        <ele>409</ele>
        <time>2026-05-26T13:02:27.000Z</time>
      </trkpt>
      <trkpt lat="44.64664" lon="5.0537">
        <ele>408</ele>
        <time>2026-05-26T13:02:28.000Z</time>
      </trkpt>
      <trkpt lat="44.64664" lon="5.05371">
        <ele>407</ele>
        <time>2026-05-26T13:02:29.000Z</time>
      </trkpt>
      <trkpt lat="44.64664" lon="5.05371">
        <ele>407</ele>
        <time>2026-05-26T13:02:30.000Z</time>
      </trkpt>
      <trkpt lat="44.64665" lon="5.05374">
        <ele>408</ele>
        <time>2026-05-26T13:02:31.000Z</time>
      </trkpt>
      <trkpt lat="44.64665" lon="5.05376">
        <ele>408</ele>
        <time>2026-05-26T13:02:32.000Z</time>
      </trkpt>
      <trkpt lat="44.64666" lon="5.05377">
        <ele>408</ele>
        <time>2026-05-26T13:02:33.000Z</time>
      </trkpt>
      <trkpt lat="44.64666" lon="5.05377">
        <ele>408</ele>
        <time>2026-05-26T13:02:34.000Z</time>
      </trkpt>
      <trkpt lat="44.64667" lon="5.05378">
        <ele>406</ele>
        <time>2026-05-26T13:02:35.000Z</time>
      </trkpt>
      <trkpt lat="44.64668" lon="5.05378">
        <ele>406</ele>
        <time>2026-05-26T13:02:36.000Z</time>
      </trkpt>
      <trkpt lat="44.64669" lon="5.0538">
        <ele>406</ele>
        <time>2026-05-26T13:02:37.000Z</time>
      </trkpt>
      <trkpt lat="44.64669" lon="5.05381">
        <ele>406</ele>
        <time>2026-05-26T13:02:38.000Z</time>
      </trkpt>
      <trkpt lat="44.64669" lon="5.05383">
        <ele>407</ele>
        <time>2026-05-26T13:02:39.000Z</time>
      </trkpt>
      <trkpt lat="44.6467" lon="5.05384">
        <ele>407</ele>
        <time>2026-05-26T13:02:40.000Z</time>
      </trkpt>
      <trkpt lat="44.6467" lon="5.05385">
        <ele>407</ele>
        <time>2026-05-26T13:02:41.000Z</time>
      </trkpt>
      <trkpt lat="44.64671" lon="5.05386">
        <ele>406</ele>
        <time>2026-05-26T13:02:42.000Z</time>
      </trkpt>
      <trkpt lat="44.64672" lon="5.05387">
        <ele>407</ele>
        <time>2026-05-26T13:02:43.000Z</time>
      </trkpt>
      <trkpt lat="44.64673" lon="5.05389">
        <ele>406</ele>
        <time>2026-05-26T13:02:44.000Z</time>
      </trkpt>
      <trkpt lat="44.64673" lon="5.05391">
        <ele>406</ele>
        <time>2026-05-26T13:02:45.000Z</time>
      </trkpt>
      <trkpt lat="44.64674" lon="5.05392">
        <ele>405</ele>
        <time>2026-05-26T13:02:46.000Z</time>
      </trkpt>
      <trkpt lat="44.64675" lon="5.05392">
        <ele>404</ele>
        <time>2026-05-26T13:02:47.000Z</time>
      </trkpt>
      <trkpt lat="44.64675" lon="5.05392">
        <ele>404</ele>
        <time>2026-05-26T13:02:48.000Z</time>
      </trkpt>
      <trkpt lat="44.64675" lon="5.05394">
        <ele>403</ele>
        <time>2026-05-26T13:02:49.000Z</time>
      </trkpt>
      <trkpt lat="44.64676" lon="5.05396">
        <ele>402</ele>
        <time>2026-05-26T13:02:50.000Z</time>
      </trkpt>
      <trkpt lat="44.64677" lon="5.05396">
        <ele>402</ele>
        <time>2026-05-26T13:02:51.000Z</time>
      </trkpt>
      <trkpt lat="44.64678" lon="5.05399">
        <ele>402</ele>
        <time>2026-05-26T13:02:52.000Z</time>
      </trkpt>
      <trkpt lat="44.64679" lon="5.05401">
        <ele>401</ele>
        <time>2026-05-26T13:02:53.000Z</time>
      </trkpt>
      <trkpt lat="44.6468" lon="5.05402">
        <ele>401</ele>
        <time>2026-05-26T13:02:54.000Z</time>
      </trkpt>
      <trkpt lat="44.6468" lon="5.05402">
        <ele>401</ele>
        <time>2026-05-26T13:02:55.000Z</time>
      </trkpt>
      <trkpt lat="44.64681" lon="5.05403">
        <ele>400</ele>
        <time>2026-05-26T13:02:56.000Z</time>
      </trkpt>
      <trkpt lat="44.64681" lon="5.05404">
        <ele>401</ele>
        <time>2026-05-26T13:02:57.000Z</time>
      </trkpt>
      <trkpt lat="44.64682" lon="5.05405">
        <ele>402</ele>
        <time>2026-05-26T13:02:58.000Z</time>
      </trkpt>
      <trkpt lat="44.64682" lon="5.05406">
        <ele>401</ele>
        <time>2026-05-26T13:02:59.000Z</time>
      </trkpt>
      <trkpt lat="44.64683" lon="5.05407">
        <ele>401</ele>
        <time>2026-05-26T13:03:00.000Z</time>
      </trkpt>
      <trkpt lat="44.64683" lon="5.05407">
        <ele>402</ele>
        <time>2026-05-26T13:03:01.000Z</time>
      </trkpt>
      <trkpt lat="44.64683" lon="5.05408">
        <ele>402</ele>
        <time>2026-05-26T13:03:02.000Z</time>
      </trkpt>
      <trkpt lat="44.64682" lon="5.0541">
        <ele>400</ele>
        <time>2026-05-26T13:03:03.000Z</time>
      </trkpt>
      <trkpt lat="44.64683" lon="5.05412">
        <ele>400</ele>
        <time>2026-05-26T13:03:04.000Z</time>
      </trkpt>
      <trkpt lat="44.64683" lon="5.05414">
        <ele>400</ele>
        <time>2026-05-26T13:03:05.000Z</time>
      </trkpt>
      <trkpt lat="44.64683" lon="5.05415">
        <ele>399</ele>
        <time>2026-05-26T13:03:06.000Z</time>
      </trkpt>
      <trkpt lat="44.64681" lon="5.05418">
        <ele>399</ele>
        <time>2026-05-26T13:03:07.000Z</time>
      </trkpt>
      <trkpt lat="44.6468" lon="5.05421">
        <ele>399</ele>
        <time>2026-05-26T13:03:08.000Z</time>
      </trkpt>
      <trkpt lat="44.64679" lon="5.05422">
        <ele>398</ele>
        <time>2026-05-26T13:03:09.000Z</time>
      </trkpt>
      <trkpt lat="44.64679" lon="5.05423">
        <ele>397</ele>
        <time>2026-05-26T13:03:10.000Z</time>
      </trkpt>
      <trkpt lat="44.64678" lon="5.05425">
        <ele>397</ele>
        <time>2026-05-26T13:03:11.000Z</time>
      </trkpt>
      <trkpt lat="44.64677" lon="5.05426">
        <ele>397</ele>
        <time>2026-05-26T13:03:12.000Z</time>
      </trkpt>
      <trkpt lat="44.64676" lon="5.05427">
        <ele>397</ele>
        <time>2026-05-26T13:03:13.000Z</time>
      </trkpt>
      <trkpt lat="44.64676" lon="5.05427">
        <ele>396</ele>
        <time>2026-05-26T13:03:14.000Z</time>
      </trkpt>
      <trkpt lat="44.64675" lon="5.05429">
        <ele>396</ele>
        <time>2026-05-26T13:03:15.000Z</time>
      </trkpt>
      <trkpt lat="44.64675" lon="5.05431">
        <ele>396</ele>
        <time>2026-05-26T13:03:16.000Z</time>
      </trkpt>
      <trkpt lat="44.64674" lon="5.05432">
        <ele>397</ele>
        <time>2026-05-26T13:03:17.000Z</time>
      </trkpt>
      <trkpt lat="44.64673" lon="5.05434">
        <ele>397</ele>
        <time>2026-05-26T13:03:18.000Z</time>
      </trkpt>
      <trkpt lat="44.64673" lon="5.05436">
        <ele>397</ele>
        <time>2026-05-26T13:03:19.000Z</time>
      </trkpt>
      <trkpt lat="44.64672" lon="5.05437">
        <ele>397</ele>
        <time>2026-05-26T13:03:20.000Z</time>
      </trkpt>
      <trkpt lat="44.64672" lon="5.05438">
        <ele>396</ele>
        <time>2026-05-26T13:03:21.000Z</time>
      </trkpt>
      <trkpt lat="44.6467" lon="5.0544">
        <ele>396</ele>
        <time>2026-05-26T13:03:22.000Z</time>
      </trkpt>
      <trkpt lat="44.64669" lon="5.05441">
        <ele>395</ele>
        <time>2026-05-26T13:03:23.000Z</time>
      </trkpt>
      <trkpt lat="44.64667" lon="5.05442">
        <ele>395</ele>
        <time>2026-05-26T13:03:24.000Z</time>
      </trkpt>
      <trkpt lat="44.64666" lon="5.05444">
        <ele>394</ele>
        <time>2026-05-26T13:03:25.000Z</time>
      </trkpt>
      <trkpt lat="44.64664" lon="5.05444">
        <ele>394</ele>
        <time>2026-05-26T13:03:26.000Z</time>
      </trkpt>
      <trkpt lat="44.64664" lon="5.05446">
        <ele>393</ele>
        <time>2026-05-26T13:03:27.000Z</time>
      </trkpt>
      <trkpt lat="44.64663" lon="5.05447">
        <ele>393</ele>
        <time>2026-05-26T13:03:28.000Z</time>
      </trkpt>
      <trkpt lat="44.64662" lon="5.05448">
        <ele>393</ele>
        <time>2026-05-26T13:03:29.000Z</time>
      </trkpt>
      <trkpt lat="44.64661" lon="5.05449">
        <ele>393</ele>
        <time>2026-05-26T13:03:30.000Z</time>
      </trkpt>
      <trkpt lat="44.64661" lon="5.0545">
        <ele>393</ele>
        <time>2026-05-26T13:03:31.000Z</time>
      </trkpt>
      <trkpt lat="44.6466" lon="5.05451">
        <ele>393</ele>
        <time>2026-05-26T13:03:32.000Z</time>
      </trkpt>
      <trkpt lat="44.64659" lon="5.05452">
        <ele>394</ele>
        <time>2026-05-26T13:03:33.000Z</time>
      </trkpt>
      <trkpt lat="44.64659" lon="5.05454">
        <ele>394</ele>
        <time>2026-05-26T13:03:34.000Z</time>
      </trkpt>
      <trkpt lat="44.64659" lon="5.05456">
        <ele>394</ele>
        <time>2026-05-26T13:03:35.000Z</time>
      </trkpt>
      <trkpt lat="44.64658" lon="5.05458">
        <ele>394</ele>
        <time>2026-05-26T13:03:36.000Z</time>
      </trkpt>
      <trkpt lat="44.64657" lon="5.05459">
        <ele>394</ele>
        <time>2026-05-26T13:03:37.000Z</time>
      </trkpt>
      <trkpt lat="44.64657" lon="5.0546">
        <ele>393</ele>
        <time>2026-05-26T13:03:38.000Z</time>
      </trkpt>
      <trkpt lat="44.64657" lon="5.05461">
        <ele>393</ele>
        <time>2026-05-26T13:03:39.000Z</time>
      </trkpt>
      <trkpt lat="44.64657" lon="5.05463">
        <ele>393</ele>
        <time>2026-05-26T13:03:40.000Z</time>
      </trkpt>
      <trkpt lat="44.64657" lon="5.05463">
        <ele>393</ele>
        <time>2026-05-26T13:03:41.000Z</time>
      </trkpt>
      <trkpt lat="44.64656" lon="5.05463">
        <ele>394</ele>
        <time>2026-05-26T13:03:42.000Z</time>
      </trkpt>
      <trkpt lat="44.64656" lon="5.05463">
        <ele>394</ele>
        <time>2026-05-26T13:03:43.000Z</time>
      </trkpt>
      <trkpt lat="44.64656" lon="5.05463">
        <ele>394</ele>
        <time>2026-05-26T13:03:44.000Z</time>
      </trkpt>
      <trkpt lat="44.64656" lon="5.05463">
        <ele>394</ele>
        <time>2026-05-26T13:03:45.000Z</time>
      </trkpt>
      <trkpt lat="44.64656" lon="5.05463">
        <ele>394</ele>
        <time>2026-05-26T13:03:46.000Z</time>
      </trkpt>
      <trkpt lat="44.64656" lon="5.05463">
        <ele>394</ele>
        <time>2026-05-26T13:03:47.000Z</time>
      </trkpt>
      <trkpt lat="44.64654" lon="5.05464">
        <ele>393</ele>
        <time>2026-05-26T13:03:48.000Z</time>
      </trkpt>
      <trkpt lat="44.64652" lon="5.05466">
        <ele>393</ele>
        <time>2026-05-26T13:03:49.000Z</time>
      </trkpt>
      <trkpt lat="44.64651" lon="5.05467">
        <ele>393</ele>
        <time>2026-05-26T13:03:50.000Z</time>
      </trkpt>
      <trkpt lat="44.64651" lon="5.0547">
        <ele>393</ele>
        <time>2026-05-26T13:03:51.000Z</time>
      </trkpt>
      <trkpt lat="44.6465" lon="5.05472">
        <ele>393</ele>
        <time>2026-05-26T13:03:52.000Z</time>
      </trkpt>
      <trkpt lat="44.64649" lon="5.05473">
        <ele>393</ele>
        <time>2026-05-26T13:03:53.000Z</time>
      </trkpt>
      <trkpt lat="44.64648" lon="5.05474">
        <ele>393</ele>
        <time>2026-05-26T13:03:54.000Z</time>
      </trkpt>
      <trkpt lat="44.64647" lon="5.05476">
        <ele>393</ele>
        <time>2026-05-26T13:03:55.000Z</time>
      </trkpt>
      <trkpt lat="44.64645" lon="5.05477">
        <ele>393</ele>
        <time>2026-05-26T13:03:56.000Z</time>
      </trkpt>
      <trkpt lat="44.64645" lon="5.05478">
        <ele>393</ele>
        <time>2026-05-26T13:03:57.000Z</time>
      </trkpt>
      <trkpt lat="44.64645" lon="5.05479">
        <ele>394</ele>
        <time>2026-05-26T13:03:58.000Z</time>
      </trkpt>
      <trkpt lat="44.64645" lon="5.05479">
        <ele>393</ele>
        <time>2026-05-26T13:03:59.000Z</time>
      </trkpt>
      <trkpt lat="44.64646" lon="5.05479">
        <ele>392</ele>
        <time>2026-05-26T13:04:00.000Z</time>
      </trkpt>
      <trkpt lat="44.64646" lon="5.05478">
        <ele>393</ele>
        <time>2026-05-26T13:04:01.000Z</time>
      </trkpt>
      <trkpt lat="44.64646" lon="5.05479">
        <ele>393</ele>
        <time>2026-05-26T13:04:02.000Z</time>
      </trkpt>
      <trkpt lat="44.64646" lon="5.05479">
        <ele>393</ele>
        <time>2026-05-26T13:04:03.000Z</time>
      </trkpt>
      <trkpt lat="44.64646" lon="5.05479">
        <ele>393</ele>
        <time>2026-05-26T13:04:04.000Z</time>
      </trkpt>
      <trkpt lat="44.64646" lon="5.05479">
        <ele>393</ele>
        <time>2026-05-26T13:04:05.000Z</time>
      </trkpt>
      <trkpt lat="44.64646" lon="5.05477">
        <ele>392</ele>
        <time>2026-05-26T13:04:06.000Z</time>
      </trkpt>
      <trkpt lat="44.64646" lon="5.05478">
        <ele>392</ele>
        <time>2026-05-26T13:04:07.000Z</time>
      </trkpt>
      <trkpt lat="44.64646" lon="5.05478">
        <ele>392</ele>
        <time>2026-05-26T13:04:08.000Z</time>
      </trkpt>
      <trkpt lat="44.64646" lon="5.05478">
        <ele>392</ele>
        <time>2026-05-26T13:04:09.000Z</time>
      </trkpt>
      <trkpt lat="44.64646" lon="5.05478">
        <ele>392</ele>
        <time>2026-05-26T13:04:10.000Z</time>
      </trkpt>
      <trkpt lat="44.64646" lon="5.05478">
        <ele>392</ele>
        <time>2026-05-26T13:04:11.000Z</time>
      </trkpt>
      <trkpt lat="44.64646" lon="5.05478">
        <ele>392</ele>
        <time>2026-05-26T13:04:12.000Z</time>
      </trkpt>
      <trkpt lat="44.64646" lon="5.05478">
        <ele>392</ele>
        <time>2026-05-26T13:04:13.000Z</time>
      </trkpt>
      <trkpt lat="44.64646" lon="5.05478">
        <ele>392</ele>
        <time>2026-05-26T13:04:14.000Z</time>
      </trkpt>
      <trkpt lat="44.64646" lon="5.05478">
        <ele>392</ele>
        <time>2026-05-26T13:04:15.000Z</time>
      </trkpt>
      <trkpt lat="44.64646" lon="5.05478">
        <ele>392</ele>
        <time>2026-05-26T13:04:16.000Z</time>
      </trkpt>
      <trkpt lat="44.64646" lon="5.05478">
        <ele>392</ele>
        <time>2026-05-26T13:04:17.000Z</time>
      </trkpt>
      <trkpt lat="44.64647" lon="5.05479">
        <ele>392</ele>
        <time>2026-05-26T13:04:18.000Z</time>
      </trkpt>
      <trkpt lat="44.64647" lon="5.05481">
        <ele>393</ele>
        <time>2026-05-26T13:04:19.000Z</time>
      </trkpt>
      <trkpt lat="44.64647" lon="5.05482">
        <ele>393</ele>
        <time>2026-05-26T13:04:20.000Z</time>
      </trkpt>
      <trkpt lat="44.64647" lon="5.05482">
        <ele>393</ele>
        <time>2026-05-26T13:04:21.000Z</time>
      </trkpt>
      <trkpt lat="44.64648" lon="5.05483">
        <ele>393</ele>
        <time>2026-05-26T13:04:22.000Z</time>
      </trkpt>
      <trkpt lat="44.64647" lon="5.05484">
        <ele>393</ele>
        <time>2026-05-26T13:04:23.000Z</time>
      </trkpt>
      <trkpt lat="44.64647" lon="5.05485">
        <ele>393</ele>
        <time>2026-05-26T13:04:24.000Z</time>
      </trkpt>
      <trkpt lat="44.64648" lon="5.05486">
        <ele>393</ele>
        <time>2026-05-26T13:04:25.000Z</time>
      </trkpt>
      <trkpt lat="44.64648" lon="5.05487">
        <ele>392</ele>
        <time>2026-05-26T13:04:26.000Z</time>
      </trkpt>
      <trkpt lat="44.64648" lon="5.05488">
        <ele>392</ele>
        <time>2026-05-26T13:04:27.000Z</time>
      </trkpt>
      <trkpt lat="44.64649" lon="5.05492">
        <ele>393</ele>
        <time>2026-05-26T13:04:28.000Z</time>
      </trkpt>
      <trkpt lat="44.6465" lon="5.05494">
        <ele>393</ele>
        <time>2026-05-26T13:04:29.000Z</time>
      </trkpt>
      <trkpt lat="44.6465" lon="5.05496">
        <ele>393</ele>
        <time>2026-05-26T13:04:30.000Z</time>
      </trkpt>
      <trkpt lat="44.64651" lon="5.05497">
        <ele>394</ele>
        <time>2026-05-26T13:04:31.000Z</time>
      </trkpt>
      <trkpt lat="44.64652" lon="5.05497">
        <ele>395</ele>
        <time>2026-05-26T13:04:32.000Z</time>
      </trkpt>
      <trkpt lat="44.64653" lon="5.05497">
        <ele>395</ele>
        <time>2026-05-26T13:04:33.000Z</time>
      </trkpt>
      <trkpt lat="44.64654" lon="5.05498">
        <ele>396</ele>
        <time>2026-05-26T13:04:34.000Z</time>
      </trkpt>
      <trkpt lat="44.64655" lon="5.055">
        <ele>395</ele>
        <time>2026-05-26T13:04:35.000Z</time>
      </trkpt>
      <trkpt lat="44.64655" lon="5.05501">
        <ele>395</ele>
        <time>2026-05-26T13:04:36.000Z</time>
      </trkpt>
      <trkpt lat="44.64656" lon="5.05503">
        <ele>396</ele>
        <time>2026-05-26T13:04:37.000Z</time>
      </trkpt>
      <trkpt lat="44.64656" lon="5.05504">
        <ele>397</ele>
        <time>2026-05-26T13:04:38.000Z</time>
      </trkpt>
      <trkpt lat="44.64656" lon="5.05505">
        <ele>397</ele>
        <time>2026-05-26T13:04:39.000Z</time>
      </trkpt>
      <trkpt lat="44.64656" lon="5.05505">
        <ele>397</ele>
        <time>2026-05-26T13:04:40.000Z</time>
      </trkpt>
      <trkpt lat="44.64656" lon="5.05505">
        <ele>397</ele>
        <time>2026-05-26T13:04:41.000Z</time>
      </trkpt>
      <trkpt lat="44.64658" lon="5.0551">
        <ele>395</ele>
        <time>2026-05-26T13:04:42.000Z</time>
      </trkpt>
      <trkpt lat="44.64658" lon="5.05512">
        <ele>394</ele>
        <time>2026-05-26T13:04:43.000Z</time>
      </trkpt>
      <trkpt lat="44.64659" lon="5.05514">
        <ele>394</ele>
        <time>2026-05-26T13:04:44.000Z</time>
      </trkpt>
      <trkpt lat="44.6466" lon="5.05515">
        <ele>394</ele>
        <time>2026-05-26T13:04:45.000Z</time>
      </trkpt>
      <trkpt lat="44.6466" lon="5.05517">
        <ele>395</ele>
        <time>2026-05-26T13:04:46.000Z</time>
      </trkpt>
      <trkpt lat="44.64662" lon="5.05521">
        <ele>395</ele>
        <time>2026-05-26T13:04:47.000Z</time>
      </trkpt>
      <trkpt lat="44.64663" lon="5.05523">
        <ele>395</ele>
        <time>2026-05-26T13:04:48.000Z</time>
      </trkpt>
      <trkpt lat="44.64663" lon="5.05525">
        <ele>395</ele>
        <time>2026-05-26T13:04:49.000Z</time>
      </trkpt>
      <trkpt lat="44.64664" lon="5.05527">
        <ele>395</ele>
        <time>2026-05-26T13:04:50.000Z</time>
      </trkpt>
      <trkpt lat="44.64665" lon="5.05528">
        <ele>395</ele>
        <time>2026-05-26T13:04:51.000Z</time>
      </trkpt>
      <trkpt lat="44.64665" lon="5.05528">
        <ele>394</ele>
        <time>2026-05-26T13:04:52.000Z</time>
      </trkpt>
      <trkpt lat="44.64666" lon="5.05529">
        <ele>393</ele>
        <time>2026-05-26T13:04:53.000Z</time>
      </trkpt>
      <trkpt lat="44.64666" lon="5.0553">
        <ele>393</ele>
        <time>2026-05-26T13:04:54.000Z</time>
      </trkpt>
      <trkpt lat="44.64666" lon="5.05532">
        <ele>394</ele>
        <time>2026-05-26T13:04:55.000Z</time>
      </trkpt>
      <trkpt lat="44.64667" lon="5.05533">
        <ele>394</ele>
        <time>2026-05-26T13:04:56.000Z</time>
      </trkpt>
      <trkpt lat="44.64667" lon="5.05535">
        <ele>393</ele>
        <time>2026-05-26T13:04:57.000Z</time>
      </trkpt>
      <trkpt lat="44.64668" lon="5.05536">
        <ele>393</ele>
        <time>2026-05-26T13:04:58.000Z</time>
      </trkpt>
      <trkpt lat="44.64668" lon="5.05537">
        <ele>393</ele>
        <time>2026-05-26T13:04:59.000Z</time>
      </trkpt>
      <trkpt lat="44.64668" lon="5.05539">
        <ele>392</ele>
        <time>2026-05-26T13:05:00.000Z</time>
      </trkpt>
      <trkpt lat="44.64669" lon="5.0554">
        <ele>393</ele>
        <time>2026-05-26T13:05:01.000Z</time>
      </trkpt>
      <trkpt lat="44.64669" lon="5.05541">
        <ele>393</ele>
        <time>2026-05-26T13:05:02.000Z</time>
      </trkpt>
      <trkpt lat="44.6467" lon="5.05543">
        <ele>392</ele>
        <time>2026-05-26T13:05:03.000Z</time>
      </trkpt>
      <trkpt lat="44.64671" lon="5.05544">
        <ele>392</ele>
        <time>2026-05-26T13:05:04.000Z</time>
      </trkpt>
      <trkpt lat="44.64671" lon="5.05546">
        <ele>392</ele>
        <time>2026-05-26T13:05:05.000Z</time>
      </trkpt>
      <trkpt lat="44.64671" lon="5.05548">
        <ele>392</ele>
        <time>2026-05-26T13:05:06.000Z</time>
      </trkpt>
      <trkpt lat="44.64672" lon="5.05549">
        <ele>392</ele>
        <time>2026-05-26T13:05:07.000Z</time>
      </trkpt>
      <trkpt lat="44.64672" lon="5.05551">
        <ele>391</ele>
        <time>2026-05-26T13:05:08.000Z</time>
      </trkpt>
      <trkpt lat="44.64673" lon="5.05552">
        <ele>391</ele>
        <time>2026-05-26T13:05:09.000Z</time>
      </trkpt>
      <trkpt lat="44.64673" lon="5.05554">
        <ele>391</ele>
        <time>2026-05-26T13:05:10.000Z</time>
      </trkpt>
      <trkpt lat="44.64674" lon="5.05556">
        <ele>391</ele>
        <time>2026-05-26T13:05:11.000Z</time>
      </trkpt>
      <trkpt lat="44.64675" lon="5.05557">
        <ele>391</ele>
        <time>2026-05-26T13:05:12.000Z</time>
      </trkpt>
      <trkpt lat="44.64675" lon="5.05557">
        <ele>392</ele>
        <time>2026-05-26T13:05:13.000Z</time>
      </trkpt>
      <trkpt lat="44.64676" lon="5.05559">
        <ele>392</ele>
        <time>2026-05-26T13:05:14.000Z</time>
      </trkpt>
      <trkpt lat="44.64677" lon="5.0556">
        <ele>391</ele>
        <time>2026-05-26T13:05:15.000Z</time>
      </trkpt>
      <trkpt lat="44.64678" lon="5.05563">
        <ele>391</ele>
        <time>2026-05-26T13:05:16.000Z</time>
      </trkpt>
      <trkpt lat="44.64678" lon="5.05565">
        <ele>392</ele>
        <time>2026-05-26T13:05:17.000Z</time>
      </trkpt>
      <trkpt lat="44.64678" lon="5.05566">
        <ele>391</ele>
        <time>2026-05-26T13:05:18.000Z</time>
      </trkpt>
      <trkpt lat="44.64678" lon="5.05568">
        <ele>391</ele>
        <time>2026-05-26T13:05:19.000Z</time>
      </trkpt>
      <trkpt lat="44.64678" lon="5.05569">
        <ele>391</ele>
        <time>2026-05-26T13:05:20.000Z</time>
      </trkpt>
      <trkpt lat="44.64678" lon="5.05569">
        <ele>391</ele>
        <time>2026-05-26T13:05:21.000Z</time>
      </trkpt>
      <trkpt lat="44.64678" lon="5.05569">
        <ele>391</ele>
        <time>2026-05-26T13:05:22.000Z</time>
      </trkpt>
      <trkpt lat="44.64679" lon="5.05574">
        <ele>391</ele>
        <time>2026-05-26T13:05:23.000Z</time>
      </trkpt>
      <trkpt lat="44.6468" lon="5.05576">
        <ele>391</ele>
        <time>2026-05-26T13:05:24.000Z</time>
      </trkpt>
      <trkpt lat="44.6468" lon="5.05578">
        <ele>392</ele>
        <time>2026-05-26T13:05:25.000Z</time>
      </trkpt>
      <trkpt lat="44.6468" lon="5.05581">
        <ele>392</ele>
        <time>2026-05-26T13:05:26.000Z</time>
      </trkpt>
      <trkpt lat="44.64681" lon="5.05584">
        <ele>391</ele>
        <time>2026-05-26T13:05:27.000Z</time>
      </trkpt>
      <trkpt lat="44.64682" lon="5.05587">
        <ele>391</ele>
        <time>2026-05-26T13:05:28.000Z</time>
      </trkpt>
      <trkpt lat="44.64682" lon="5.05589">
        <ele>391</ele>
        <time>2026-05-26T13:05:29.000Z</time>
      </trkpt>
      <trkpt lat="44.64681" lon="5.05591">
        <ele>391</ele>
        <time>2026-05-26T13:05:30.000Z</time>
      </trkpt>
      <trkpt lat="44.64681" lon="5.05593">
        <ele>390</ele>
        <time>2026-05-26T13:05:31.000Z</time>
      </trkpt>
      <trkpt lat="44.64681" lon="5.05594">
        <ele>390</ele>
        <time>2026-05-26T13:05:32.000Z</time>
      </trkpt>
      <trkpt lat="44.64682" lon="5.05594">
        <ele>391</ele>
        <time>2026-05-26T13:05:33.000Z</time>
      </trkpt>
      <trkpt lat="44.64682" lon="5.05595">
        <ele>391</ele>
        <time>2026-05-26T13:05:34.000Z</time>
      </trkpt>
      <trkpt lat="44.64683" lon="5.05595">
        <ele>392</ele>
        <time>2026-05-26T13:05:35.000Z</time>
      </trkpt>
      <trkpt lat="44.64684" lon="5.05596">
        <ele>392</ele>
        <time>2026-05-26T13:05:36.000Z</time>
      </trkpt>
      <trkpt lat="44.64684" lon="5.05597">
        <ele>392</ele>
        <time>2026-05-26T13:05:37.000Z</time>
      </trkpt>
      <trkpt lat="44.64685" lon="5.05599">
        <ele>392</ele>
        <time>2026-05-26T13:05:38.000Z</time>
      </trkpt>
      <trkpt lat="44.64685" lon="5.05602">
        <ele>392</ele>
        <time>2026-05-26T13:05:39.000Z</time>
      </trkpt>
      <trkpt lat="44.64684" lon="5.05602">
        <ele>392</ele>
        <time>2026-05-26T13:05:40.000Z</time>
      </trkpt>
      <trkpt lat="44.64684" lon="5.05604">
        <ele>392</ele>
        <time>2026-05-26T13:05:41.000Z</time>
      </trkpt>
      <trkpt lat="44.64685" lon="5.05605">
        <ele>392</ele>
        <time>2026-05-26T13:05:42.000Z</time>
      </trkpt>
      <trkpt lat="44.64686" lon="5.05607">
        <ele>392</ele>
        <time>2026-05-26T13:05:43.000Z</time>
      </trkpt>
      <trkpt lat="44.64688" lon="5.05608">
        <ele>392</ele>
        <time>2026-05-26T13:05:44.000Z</time>
      </trkpt>
      <trkpt lat="44.64688" lon="5.05608">
        <ele>392</ele>
        <time>2026-05-26T13:05:45.000Z</time>
      </trkpt>
      <trkpt lat="44.6469" lon="5.0561">
        <ele>392</ele>
        <time>2026-05-26T13:05:46.000Z</time>
      </trkpt>
      <trkpt lat="44.6469" lon="5.05612">
        <ele>392</ele>
        <time>2026-05-26T13:05:47.000Z</time>
      </trkpt>
      <trkpt lat="44.64691" lon="5.05614">
        <ele>392</ele>
        <time>2026-05-26T13:05:48.000Z</time>
      </trkpt>
      <trkpt lat="44.64691" lon="5.05616">
        <ele>392</ele>
        <time>2026-05-26T13:05:49.000Z</time>
      </trkpt>
      <trkpt lat="44.64691" lon="5.05618">
        <ele>392</ele>
        <time>2026-05-26T13:05:50.000Z</time>
      </trkpt>
      <trkpt lat="44.6469" lon="5.0562">
        <ele>392</ele>
        <time>2026-05-26T13:05:51.000Z</time>
      </trkpt>
      <trkpt lat="44.6469" lon="5.05622">
        <ele>392</ele>
        <time>2026-05-26T13:05:52.000Z</time>
      </trkpt>
      <trkpt lat="44.6469" lon="5.05624">
        <ele>392</ele>
        <time>2026-05-26T13:05:53.000Z</time>
      </trkpt>
      <trkpt lat="44.64691" lon="5.05626">
        <ele>392</ele>
        <time>2026-05-26T13:05:54.000Z</time>
      </trkpt>
      <trkpt lat="44.64692" lon="5.05628">
        <ele>392</ele>
        <time>2026-05-26T13:05:55.000Z</time>
      </trkpt>
      <trkpt lat="44.64692" lon="5.05629">
        <ele>392</ele>
        <time>2026-05-26T13:05:56.000Z</time>
      </trkpt>
      <trkpt lat="44.64692" lon="5.05631">
        <ele>392</ele>
        <time>2026-05-26T13:05:57.000Z</time>
      </trkpt>
      <trkpt lat="44.64692" lon="5.05633">
        <ele>391</ele>
        <time>2026-05-26T13:05:58.000Z</time>
      </trkpt>
      <trkpt lat="44.64691" lon="5.05635">
        <ele>391</ele>
        <time>2026-05-26T13:05:59.000Z</time>
      </trkpt>
      <trkpt lat="44.64691" lon="5.05637">
        <ele>391</ele>
        <time>2026-05-26T13:06:00.000Z</time>
      </trkpt>
      <trkpt lat="44.64691" lon="5.05639">
        <ele>391</ele>
        <time>2026-05-26T13:06:01.000Z</time>
      </trkpt>
      <trkpt lat="44.64691" lon="5.05641">
        <ele>391</ele>
        <time>2026-05-26T13:06:02.000Z</time>
      </trkpt>
      <trkpt lat="44.64691" lon="5.05643">
        <ele>391</ele>
        <time>2026-05-26T13:06:03.000Z</time>
      </trkpt>
      <trkpt lat="44.64692" lon="5.05645">
        <ele>390</ele>
        <time>2026-05-26T13:06:04.000Z</time>
      </trkpt>
      <trkpt lat="44.64691" lon="5.05648">
        <ele>390</ele>
        <time>2026-05-26T13:06:05.000Z</time>
      </trkpt>
      <trkpt lat="44.64691" lon="5.05649">
        <ele>390</ele>
        <time>2026-05-26T13:06:06.000Z</time>
      </trkpt>
      <trkpt lat="44.64692" lon="5.0565">
        <ele>389</ele>
        <time>2026-05-26T13:06:07.000Z</time>
      </trkpt>
      <trkpt lat="44.64692" lon="5.05653">
        <ele>390</ele>
        <time>2026-05-26T13:06:08.000Z</time>
      </trkpt>
      <trkpt lat="44.64693" lon="5.05654">
        <ele>390</ele>
        <time>2026-05-26T13:06:09.000Z</time>
      </trkpt>
      <trkpt lat="44.64693" lon="5.05656">
        <ele>391</ele>
        <time>2026-05-26T13:06:10.000Z</time>
      </trkpt>
      <trkpt lat="44.64692" lon="5.05657">
        <ele>390</ele>
        <time>2026-05-26T13:06:11.000Z</time>
      </trkpt>
      <trkpt lat="44.64692" lon="5.05658">
        <ele>390</ele>
        <time>2026-05-26T13:06:12.000Z</time>
      </trkpt>
      <trkpt lat="44.64692" lon="5.05658">
        <ele>390</ele>
        <time>2026-05-26T13:06:13.000Z</time>
      </trkpt>
      <trkpt lat="44.64692" lon="5.05658">
        <ele>390</ele>
        <time>2026-05-26T13:06:14.000Z</time>
      </trkpt>
      <trkpt lat="44.64693" lon="5.05658">
        <ele>388</ele>
        <time>2026-05-26T13:06:15.000Z</time>
      </trkpt>
      <trkpt lat="44.64693" lon="5.05658">
        <ele>388</ele>
        <time>2026-05-26T13:06:16.000Z</time>
      </trkpt>
      <trkpt lat="44.64693" lon="5.05658">
        <ele>388</ele>
        <time>2026-05-26T13:06:17.000Z</time>
      </trkpt>
      <trkpt lat="44.64693" lon="5.05658">
        <ele>388</ele>
        <time>2026-05-26T13:06:18.000Z</time>
      </trkpt>
      <trkpt lat="44.64693" lon="5.05658">
        <ele>388</ele>
        <time>2026-05-26T13:06:19.000Z</time>
      </trkpt>
      <trkpt lat="44.64693" lon="5.05658">
        <ele>388</ele>
        <time>2026-05-26T13:06:20.000Z</time>
      </trkpt>
      <trkpt lat="44.64692" lon="5.05659">
        <ele>388</ele>
        <time>2026-05-26T13:06:21.000Z</time>
      </trkpt>
      <trkpt lat="44.64692" lon="5.05661">
        <ele>388</ele>
        <time>2026-05-26T13:06:22.000Z</time>
      </trkpt>
      <trkpt lat="44.64692" lon="5.05663">
        <ele>389</ele>
        <time>2026-05-26T13:06:23.000Z</time>
      </trkpt>
      <trkpt lat="44.64691" lon="5.05666">
        <ele>390</ele>
        <time>2026-05-26T13:06:24.000Z</time>
      </trkpt>
      <trkpt lat="44.64691" lon="5.05668">
        <ele>389</ele>
        <time>2026-05-26T13:06:25.000Z</time>
      </trkpt>
      <trkpt lat="44.64692" lon="5.05669">
        <ele>389</ele>
        <time>2026-05-26T13:06:26.000Z</time>
      </trkpt>
      <trkpt lat="44.64691" lon="5.0567">
        <ele>389</ele>
        <time>2026-05-26T13:06:27.000Z</time>
      </trkpt>
      <trkpt lat="44.64691" lon="5.05671">
        <ele>389</ele>
        <time>2026-05-26T13:06:28.000Z</time>
      </trkpt>
      <trkpt lat="44.64691" lon="5.05672">
        <ele>389</ele>
        <time>2026-05-26T13:06:29.000Z</time>
      </trkpt>
      <trkpt lat="44.64691" lon="5.05673">
        <ele>389</ele>
        <time>2026-05-26T13:06:30.000Z</time>
      </trkpt>
      <trkpt lat="44.6469" lon="5.05675">
        <ele>389</ele>
        <time>2026-05-26T13:06:31.000Z</time>
      </trkpt>
      <trkpt lat="44.6469" lon="5.05678">
        <ele>388</ele>
        <time>2026-05-26T13:06:32.000Z</time>
      </trkpt>
      <trkpt lat="44.6469" lon="5.05681">
        <ele>388</ele>
        <time>2026-05-26T13:06:33.000Z</time>
      </trkpt>
      <trkpt lat="44.64689" lon="5.05683">
        <ele>389</ele>
        <time>2026-05-26T13:06:34.000Z</time>
      </trkpt>
      <trkpt lat="44.64689" lon="5.05686">
        <ele>388</ele>
        <time>2026-05-26T13:06:35.000Z</time>
      </trkpt>
      <trkpt lat="44.64689" lon="5.05687">
        <ele>388</ele>
        <time>2026-05-26T13:06:36.000Z</time>
      </trkpt>
      <trkpt lat="44.64688" lon="5.05688">
        <ele>388</ele>
        <time>2026-05-26T13:06:37.000Z</time>
      </trkpt>
      <trkpt lat="44.64688" lon="5.05691">
        <ele>388</ele>
        <time>2026-05-26T13:06:38.000Z</time>
      </trkpt>
      <trkpt lat="44.64688" lon="5.05693">
        <ele>389</ele>
        <time>2026-05-26T13:06:39.000Z</time>
      </trkpt>
      <trkpt lat="44.64688" lon="5.05694">
        <ele>388</ele>
        <time>2026-05-26T13:06:40.000Z</time>
      </trkpt>
      <trkpt lat="44.64689" lon="5.05696">
        <ele>388</ele>
        <time>2026-05-26T13:06:41.000Z</time>
      </trkpt>
      <trkpt lat="44.64689" lon="5.05697">
        <ele>387</ele>
        <time>2026-05-26T13:06:42.000Z</time>
      </trkpt>
      <trkpt lat="44.6469" lon="5.05698">
        <ele>388</ele>
        <time>2026-05-26T13:06:43.000Z</time>
      </trkpt>
      <trkpt lat="44.6469" lon="5.057">
        <ele>388</ele>
        <time>2026-05-26T13:06:44.000Z</time>
      </trkpt>
      <trkpt lat="44.6469" lon="5.05701">
        <ele>387</ele>
        <time>2026-05-26T13:06:45.000Z</time>
      </trkpt>
      <trkpt lat="44.6469" lon="5.05701">
        <ele>387</ele>
        <time>2026-05-26T13:06:46.000Z</time>
      </trkpt>
      <trkpt lat="44.6469" lon="5.05701">
        <ele>387</ele>
        <time>2026-05-26T13:06:47.000Z</time>
      </trkpt>
      <trkpt lat="44.6469" lon="5.05706">
        <ele>387</ele>
        <time>2026-05-26T13:06:48.000Z</time>
      </trkpt>
      <trkpt lat="44.6469" lon="5.05707">
        <ele>387</ele>
        <time>2026-05-26T13:06:49.000Z</time>
      </trkpt>
      <trkpt lat="44.6469" lon="5.0571">
        <ele>388</ele>
        <time>2026-05-26T13:06:50.000Z</time>
      </trkpt>
      <trkpt lat="44.64689" lon="5.05711">
        <ele>389</ele>
        <time>2026-05-26T13:06:51.000Z</time>
      </trkpt>
      <trkpt lat="44.64689" lon="5.05713">
        <ele>389</ele>
        <time>2026-05-26T13:06:52.000Z</time>
      </trkpt>
      <trkpt lat="44.64688" lon="5.05715">
        <ele>389</ele>
        <time>2026-05-26T13:06:53.000Z</time>
      </trkpt>
      <trkpt lat="44.64687" lon="5.05716">
        <ele>390</ele>
        <time>2026-05-26T13:06:54.000Z</time>
      </trkpt>
      <trkpt lat="44.64687" lon="5.05718">
        <ele>390</ele>
        <time>2026-05-26T13:06:55.000Z</time>
      </trkpt>
      <trkpt lat="44.64687" lon="5.05719">
        <ele>389</ele>
        <time>2026-05-26T13:06:56.000Z</time>
      </trkpt>
      <trkpt lat="44.64688" lon="5.05722">
        <ele>390</ele>
        <time>2026-05-26T13:06:57.000Z</time>
      </trkpt>
      <trkpt lat="44.64688" lon="5.05723">
        <ele>390</ele>
        <time>2026-05-26T13:06:58.000Z</time>
      </trkpt>
      <trkpt lat="44.64687" lon="5.05724">
        <ele>390</ele>
        <time>2026-05-26T13:06:59.000Z</time>
      </trkpt>
      <trkpt lat="44.64687" lon="5.05726">
        <ele>390</ele>
        <time>2026-05-26T13:07:00.000Z</time>
      </trkpt>
      <trkpt lat="44.64686" lon="5.05727">
        <ele>390</ele>
        <time>2026-05-26T13:07:01.000Z</time>
      </trkpt>
      <trkpt lat="44.64685" lon="5.0573">
        <ele>390</ele>
        <time>2026-05-26T13:07:02.000Z</time>
      </trkpt>
      <trkpt lat="44.64685" lon="5.05731">
        <ele>389</ele>
        <time>2026-05-26T13:07:03.000Z</time>
      </trkpt>
      <trkpt lat="44.64685" lon="5.05733">
        <ele>390</ele>
        <time>2026-05-26T13:07:04.000Z</time>
      </trkpt>
      <trkpt lat="44.64684" lon="5.05734">
        <ele>390</ele>
        <time>2026-05-26T13:07:05.000Z</time>
      </trkpt>
      <trkpt lat="44.64684" lon="5.05736">
        <ele>391</ele>
        <time>2026-05-26T13:07:06.000Z</time>
      </trkpt>
      <trkpt lat="44.64684" lon="5.05737">
        <ele>390</ele>
        <time>2026-05-26T13:07:07.000Z</time>
      </trkpt>
      <trkpt lat="44.64684" lon="5.05739">
        <ele>390</ele>
        <time>2026-05-26T13:07:08.000Z</time>
      </trkpt>
      <trkpt lat="44.64684" lon="5.0574">
        <ele>389</ele>
        <time>2026-05-26T13:07:09.000Z</time>
      </trkpt>
      <trkpt lat="44.64684" lon="5.05742">
        <ele>389</ele>
        <time>2026-05-26T13:07:10.000Z</time>
      </trkpt>
      <trkpt lat="44.64683" lon="5.05744">
        <ele>388</ele>
        <time>2026-05-26T13:07:11.000Z</time>
      </trkpt>
      <trkpt lat="44.64683" lon="5.05745">
        <ele>388</ele>
        <time>2026-05-26T13:07:12.000Z</time>
      </trkpt>
      <trkpt lat="44.64682" lon="5.05747">
        <ele>389</ele>
        <time>2026-05-26T13:07:13.000Z</time>
      </trkpt>
      <trkpt lat="44.64682" lon="5.0575">
        <ele>389</ele>
        <time>2026-05-26T13:07:14.000Z</time>
      </trkpt>
      <trkpt lat="44.64682" lon="5.05753">
        <ele>389</ele>
        <time>2026-05-26T13:07:15.000Z</time>
      </trkpt>
      <trkpt lat="44.64682" lon="5.05755">
        <ele>389</ele>
        <time>2026-05-26T13:07:16.000Z</time>
      </trkpt>
      <trkpt lat="44.64682" lon="5.05757">
        <ele>388</ele>
        <time>2026-05-26T13:07:17.000Z</time>
      </trkpt>
      <trkpt lat="44.64682" lon="5.05759">
        <ele>387</ele>
        <time>2026-05-26T13:07:18.000Z</time>
      </trkpt>
      <trkpt lat="44.64681" lon="5.05761">
        <ele>389</ele>
        <time>2026-05-26T13:07:19.000Z</time>
      </trkpt>
      <trkpt lat="44.64681" lon="5.05762">
        <ele>389</ele>
        <time>2026-05-26T13:07:20.000Z</time>
      </trkpt>
      <trkpt lat="44.64681" lon="5.05763">
        <ele>389</ele>
        <time>2026-05-26T13:07:21.000Z</time>
      </trkpt>
      <trkpt lat="44.6468" lon="5.05764">
        <ele>389</ele>
        <time>2026-05-26T13:07:22.000Z</time>
      </trkpt>
      <trkpt lat="44.6468" lon="5.05765">
        <ele>389</ele>
        <time>2026-05-26T13:07:23.000Z</time>
      </trkpt>
      <trkpt lat="44.6468" lon="5.05767">
        <ele>389</ele>
        <time>2026-05-26T13:07:24.000Z</time>
      </trkpt>
      <trkpt lat="44.6468" lon="5.05768">
        <ele>388</ele>
        <time>2026-05-26T13:07:25.000Z</time>
      </trkpt>
      <trkpt lat="44.6468" lon="5.05769">
        <ele>387</ele>
        <time>2026-05-26T13:07:26.000Z</time>
      </trkpt>
      <trkpt lat="44.6468" lon="5.05771">
        <ele>388</ele>
        <time>2026-05-26T13:07:27.000Z</time>
      </trkpt>
      <trkpt lat="44.6468" lon="5.05772">
        <ele>388</ele>
        <time>2026-05-26T13:07:28.000Z</time>
      </trkpt>
      <trkpt lat="44.6468" lon="5.05773">
        <ele>388</ele>
        <time>2026-05-26T13:07:29.000Z</time>
      </trkpt>
      <trkpt lat="44.6468" lon="5.05775">
        <ele>388</ele>
        <time>2026-05-26T13:07:30.000Z</time>
      </trkpt>
      <trkpt lat="44.64682" lon="5.05777">
        <ele>389</ele>
        <time>2026-05-26T13:07:31.000Z</time>
      </trkpt>
      <trkpt lat="44.64682" lon="5.05779">
        <ele>390</ele>
        <time>2026-05-26T13:07:32.000Z</time>
      </trkpt>
      <trkpt lat="44.64682" lon="5.0578">
        <ele>389</ele>
        <time>2026-05-26T13:07:33.000Z</time>
      </trkpt>
      <trkpt lat="44.64683" lon="5.05782">
        <ele>389</ele>
        <time>2026-05-26T13:07:34.000Z</time>
      </trkpt>
      <trkpt lat="44.64683" lon="5.05784">
        <ele>388</ele>
        <time>2026-05-26T13:07:35.000Z</time>
      </trkpt>
      <trkpt lat="44.64683" lon="5.05787">
        <ele>389</ele>
        <time>2026-05-26T13:07:36.000Z</time>
      </trkpt>
      <trkpt lat="44.64684" lon="5.05789">
        <ele>389</ele>
        <time>2026-05-26T13:07:37.000Z</time>
      </trkpt>
      <trkpt lat="44.64684" lon="5.05789">
        <ele>390</ele>
        <time>2026-05-26T13:07:38.000Z</time>
      </trkpt>
      <trkpt lat="44.64684" lon="5.0579">
        <ele>390</ele>
        <time>2026-05-26T13:07:39.000Z</time>
      </trkpt>
      <trkpt lat="44.64683" lon="5.05791">
        <ele>390</ele>
        <time>2026-05-26T13:07:40.000Z</time>
      </trkpt>
      <trkpt lat="44.64684" lon="5.05793">
        <ele>390</ele>
        <time>2026-05-26T13:07:41.000Z</time>
      </trkpt>
      <trkpt lat="44.64685" lon="5.05794">
        <ele>389</ele>
        <time>2026-05-26T13:07:42.000Z</time>
      </trkpt>
      <trkpt lat="44.64685" lon="5.05795">
        <ele>388</ele>
        <time>2026-05-26T13:07:43.000Z</time>
      </trkpt>
      <trkpt lat="44.64687" lon="5.05798">
        <ele>386</ele>
        <time>2026-05-26T13:07:44.000Z</time>
      </trkpt>
      <trkpt lat="44.64688" lon="5.058">
        <ele>385</ele>
        <time>2026-05-26T13:07:45.000Z</time>
      </trkpt>
      <trkpt lat="44.64688" lon="5.058">
        <ele>385</ele>
        <time>2026-05-26T13:07:46.000Z</time>
      </trkpt>
      <trkpt lat="44.64688" lon="5.058">
        <ele>385</ele>
        <time>2026-05-26T13:07:47.000Z</time>
      </trkpt>
      <trkpt lat="44.64688" lon="5.058">
        <ele>385</ele>
        <time>2026-05-26T13:07:48.000Z</time>
      </trkpt>
      <trkpt lat="44.64688" lon="5.058">
        <ele>385</ele>
        <time>2026-05-26T13:07:49.000Z</time>
      </trkpt>
      <trkpt lat="44.64688" lon="5.058">
        <ele>385</ele>
        <time>2026-05-26T13:07:50.000Z</time>
      </trkpt>
      <trkpt lat="44.64688" lon="5.058">
        <ele>385</ele>
        <time>2026-05-26T13:07:51.000Z</time>
      </trkpt>
      <trkpt lat="44.64688" lon="5.058">
        <ele>385</ele>
        <time>2026-05-26T13:07:52.000Z</time>
      </trkpt>
      <trkpt lat="44.64688" lon="5.058">
        <ele>385</ele>
        <time>2026-05-26T13:07:53.000Z</time>
      </trkpt>
      <trkpt lat="44.64688" lon="5.058">
        <ele>385</ele>
        <time>2026-05-26T13:07:54.000Z</time>
      </trkpt>
      <trkpt lat="44.64688" lon="5.058">
        <ele>385</ele>
        <time>2026-05-26T13:07:55.000Z</time>
      </trkpt>
      <trkpt lat="44.64688" lon="5.058">
        <ele>385</ele>
        <time>2026-05-26T13:07:56.000Z</time>
      </trkpt>
      <trkpt lat="44.6469" lon="5.05801">
        <ele>385</ele>
        <time>2026-05-26T13:07:57.000Z</time>
      </trkpt>
      <trkpt lat="44.6469" lon="5.05801">
        <ele>385</ele>
        <time>2026-05-26T13:07:58.000Z</time>
      </trkpt>
      <trkpt lat="44.64691" lon="5.05802">
        <ele>385</ele>
        <time>2026-05-26T13:07:59.000Z</time>
      </trkpt>
      <trkpt lat="44.64692" lon="5.05803">
        <ele>385</ele>
        <time>2026-05-26T13:08:00.000Z</time>
      </trkpt>
      <trkpt lat="44.64693" lon="5.05805">
        <ele>385</ele>
        <time>2026-05-26T13:08:01.000Z</time>
      </trkpt>
      <trkpt lat="44.64693" lon="5.05805">
        <ele>385</ele>
        <time>2026-05-26T13:08:02.000Z</time>
      </trkpt>
      <trkpt lat="44.64693" lon="5.05806">
        <ele>386</ele>
        <time>2026-05-26T13:08:03.000Z</time>
      </trkpt>
      <trkpt lat="44.64693" lon="5.05806">
        <ele>385</ele>
        <time>2026-05-26T13:08:04.000Z</time>
      </trkpt>
      <trkpt lat="44.64693" lon="5.05806">
        <ele>385</ele>
        <time>2026-05-26T13:08:05.000Z</time>
      </trkpt>
      <trkpt lat="44.64693" lon="5.05806">
        <ele>385</ele>
        <time>2026-05-26T13:08:06.000Z</time>
      </trkpt>
      <trkpt lat="44.64693" lon="5.05806">
        <ele>385</ele>
        <time>2026-05-26T13:08:07.000Z</time>
      </trkpt>
      <trkpt lat="44.64693" lon="5.05806">
        <ele>385</ele>
        <time>2026-05-26T13:08:08.000Z</time>
      </trkpt>
      <trkpt lat="44.64693" lon="5.05806">
        <ele>385</ele>
        <time>2026-05-26T13:08:09.000Z</time>
      </trkpt>
      <trkpt lat="44.64693" lon="5.05806">
        <ele>385</ele>
        <time>2026-05-26T13:08:10.000Z</time>
      </trkpt>
      <trkpt lat="44.64693" lon="5.05806">
        <ele>385</ele>
        <time>2026-05-26T13:08:11.000Z</time>
      </trkpt>
      <trkpt lat="44.64693" lon="5.05806">
        <ele>385</ele>
        <time>2026-05-26T13:08:12.000Z</time>
      </trkpt>
      <trkpt lat="44.64693" lon="5.05806">
        <ele>385</ele>
        <time>2026-05-26T13:08:13.000Z</time>
      </trkpt>
      <trkpt lat="44.64693" lon="5.05806">
        <ele>385</ele>
        <time>2026-05-26T13:08:14.000Z</time>
      </trkpt>
      <trkpt lat="44.64693" lon="5.05804">
        <ele>385</ele>
        <time>2026-05-26T13:08:15.000Z</time>
      </trkpt>
      <trkpt lat="44.64693" lon="5.05804">
        <ele>385</ele>
        <time>2026-05-26T13:08:16.000Z</time>
      </trkpt>
      <trkpt lat="44.64693" lon="5.05804">
        <ele>385</ele>
        <time>2026-05-26T13:08:17.000Z</time>
      </trkpt>
      <trkpt lat="44.64693" lon="5.05805">
        <ele>386</ele>
        <time>2026-05-26T13:08:18.000Z</time>
      </trkpt>
      <trkpt lat="44.64693" lon="5.05805">
        <ele>386</ele>
        <time>2026-05-26T13:08:19.000Z</time>
      </trkpt>
      <trkpt lat="44.64693" lon="5.05805">
        <ele>386</ele>
        <time>2026-05-26T13:08:20.000Z</time>
      </trkpt>
      <trkpt lat="44.64693" lon="5.05805">
        <ele>386</ele>
        <time>2026-05-26T13:08:21.000Z</time>
      </trkpt>
      <trkpt lat="44.64693" lon="5.05805">
        <ele>386</ele>
        <time>2026-05-26T13:08:22.000Z</time>
      </trkpt>
      <trkpt lat="44.64693" lon="5.05805">
        <ele>386</ele>
        <time>2026-05-26T13:08:23.000Z</time>
      </trkpt>
      <trkpt lat="44.64693" lon="5.05805">
        <ele>386</ele>
        <time>2026-05-26T13:08:24.000Z</time>
      </trkpt>
      <trkpt lat="44.64693" lon="5.05805">
        <ele>386</ele>
        <time>2026-05-26T13:08:25.000Z</time>
      </trkpt>
      <trkpt lat="44.64693" lon="5.05805">
        <ele>386</ele>
        <time>2026-05-26T13:08:26.000Z</time>
      </trkpt>
      <trkpt lat="44.64693" lon="5.05805">
        <ele>386</ele>
        <time>2026-05-26T13:08:27.000Z</time>
      </trkpt>
      <trkpt lat="44.64693" lon="5.05805">
        <ele>386</ele>
        <time>2026-05-26T13:08:28.000Z</time>
      </trkpt>
      <trkpt lat="44.64693" lon="5.05805">
        <ele>386</ele>
        <time>2026-05-26T13:08:29.000Z</time>
      </trkpt>
      <trkpt lat="44.64693" lon="5.05805">
        <ele>387</ele>
        <time>2026-05-26T13:08:30.000Z</time>
      </trkpt>
      <trkpt lat="44.64693" lon="5.05805">
        <ele>387</ele>
        <time>2026-05-26T13:08:31.000Z</time>
      </trkpt>
      <trkpt lat="44.64693" lon="5.05805">
        <ele>387</ele>
        <time>2026-05-26T13:08:32.000Z</time>
      </trkpt>
      <trkpt lat="44.64693" lon="5.05805">
        <ele>387</ele>
        <time>2026-05-26T13:08:33.000Z</time>
      </trkpt>
      <trkpt lat="44.64694" lon="5.05805">
        <ele>387</ele>
        <time>2026-05-26T13:08:34.000Z</time>
      </trkpt>
      <trkpt lat="44.64694" lon="5.05805">
        <ele>387</ele>
        <time>2026-05-26T13:08:35.000Z</time>
      </trkpt>
      <trkpt lat="44.64694" lon="5.05805">
        <ele>387</ele>
        <time>2026-05-26T13:08:36.000Z</time>
      </trkpt>
      <trkpt lat="44.64694" lon="5.05805">
        <ele>387</ele>
        <time>2026-05-26T13:08:37.000Z</time>
      </trkpt>
      <trkpt lat="44.64694" lon="5.05805">
        <ele>387</ele>
        <time>2026-05-26T13:08:38.000Z</time>
      </trkpt>
      <trkpt lat="44.64694" lon="5.05805">
        <ele>387</ele>
        <time>2026-05-26T13:08:39.000Z</time>
      </trkpt>
      <trkpt lat="44.64694" lon="5.05805">
        <ele>387</ele>
        <time>2026-05-26T13:08:40.000Z</time>
      </trkpt>
      <trkpt lat="44.64694" lon="5.05805">
        <ele>387</ele>
        <time>2026-05-26T13:08:41.000Z</time>
      </trkpt>
      <trkpt lat="44.64694" lon="5.05805">
        <ele>387</ele>
        <time>2026-05-26T13:08:42.000Z</time>
      </trkpt>
      <trkpt lat="44.64694" lon="5.05805">
        <ele>387</ele>
        <time>2026-05-26T13:08:43.000Z</time>
      </trkpt>
      <trkpt lat="44.64694" lon="5.05805">
        <ele>387</ele>
        <time>2026-05-26T13:08:44.000Z</time>
      </trkpt>
      <trkpt lat="44.64694" lon="5.05805">
        <ele>387</ele>
        <time>2026-05-26T13:08:45.000Z</time>
      </trkpt>
      <trkpt lat="44.64694" lon="5.05805">
        <ele>387</ele>
        <time>2026-05-26T13:08:46.000Z</time>
      </trkpt>
      <trkpt lat="44.64694" lon="5.05805">
        <ele>387</ele>
        <time>2026-05-26T13:08:47.000Z</time>
      </trkpt>
      <trkpt lat="44.64694" lon="5.05805">
        <ele>387</ele>
        <time>2026-05-26T13:08:48.000Z</time>
      </trkpt>
      <trkpt lat="44.64694" lon="5.05805">
        <ele>387</ele>
        <time>2026-05-26T13:08:49.000Z</time>
      </trkpt>
      <trkpt lat="44.64693" lon="5.05805">
        <ele>386</ele>
        <time>2026-05-26T13:08:50.000Z</time>
      </trkpt>
      <trkpt lat="44.64692" lon="5.05805">
        <ele>387</ele>
        <time>2026-05-26T13:08:51.000Z</time>
      </trkpt>
      <trkpt lat="44.64692" lon="5.05806">
        <ele>388</ele>
        <time>2026-05-26T13:08:52.000Z</time>
      </trkpt>
      <trkpt lat="44.64692" lon="5.05807">
        <ele>388</ele>
        <time>2026-05-26T13:08:53.000Z</time>
      </trkpt>
      <trkpt lat="44.64692" lon="5.0581">
        <ele>387</ele>
        <time>2026-05-26T13:08:54.000Z</time>
      </trkpt>
      <trkpt lat="44.64692" lon="5.05812">
        <ele>387</ele>
        <time>2026-05-26T13:08:55.000Z</time>
      </trkpt>
      <trkpt lat="44.64692" lon="5.05814">
        <ele>386</ele>
        <time>2026-05-26T13:08:56.000Z</time>
      </trkpt>
      <trkpt lat="44.64693" lon="5.05816">
        <ele>386</ele>
        <time>2026-05-26T13:08:57.000Z</time>
      </trkpt>
      <trkpt lat="44.64692" lon="5.05818">
        <ele>387</ele>
        <time>2026-05-26T13:08:58.000Z</time>
      </trkpt>
      <trkpt lat="44.64693" lon="5.0582">
        <ele>387</ele>
        <time>2026-05-26T13:08:59.000Z</time>
      </trkpt>
      <trkpt lat="44.64693" lon="5.05822">
        <ele>387</ele>
        <time>2026-05-26T13:09:00.000Z</time>
      </trkpt>
      <trkpt lat="44.64693" lon="5.05824">
        <ele>387</ele>
        <time>2026-05-26T13:09:01.000Z</time>
      </trkpt>
      <trkpt lat="44.64693" lon="5.05826">
        <ele>387</ele>
        <time>2026-05-26T13:09:02.000Z</time>
      </trkpt>
      <trkpt lat="44.64693" lon="5.05827">
        <ele>387</ele>
        <time>2026-05-26T13:09:03.000Z</time>
      </trkpt>
      <trkpt lat="44.64694" lon="5.05829">
        <ele>387</ele>
        <time>2026-05-26T13:09:04.000Z</time>
      </trkpt>
      <trkpt lat="44.64695" lon="5.0583">
        <ele>387</ele>
        <time>2026-05-26T13:09:05.000Z</time>
      </trkpt>
      <trkpt lat="44.64696" lon="5.05831">
        <ele>387</ele>
        <time>2026-05-26T13:09:06.000Z</time>
      </trkpt>
      <trkpt lat="44.64696" lon="5.05831">
        <ele>387</ele>
        <time>2026-05-26T13:09:07.000Z</time>
      </trkpt>
      <trkpt lat="44.64696" lon="5.05831">
        <ele>387</ele>
        <time>2026-05-26T13:09:08.000Z</time>
      </trkpt>
      <trkpt lat="44.64696" lon="5.05831">
        <ele>386</ele>
        <time>2026-05-26T13:09:09.000Z</time>
      </trkpt>
      <trkpt lat="44.64696" lon="5.05831">
        <ele>386</ele>
        <time>2026-05-26T13:09:10.000Z</time>
      </trkpt>
      <trkpt lat="44.64696" lon="5.05831">
        <ele>386</ele>
        <time>2026-05-26T13:09:11.000Z</time>
      </trkpt>
      <trkpt lat="44.64696" lon="5.05834">
        <ele>386</ele>
        <time>2026-05-26T13:09:12.000Z</time>
      </trkpt>
      <trkpt lat="44.64696" lon="5.05837">
        <ele>386</ele>
        <time>2026-05-26T13:09:13.000Z</time>
      </trkpt>
      <trkpt lat="44.64697" lon="5.05839">
        <ele>386</ele>
        <time>2026-05-26T13:09:14.000Z</time>
      </trkpt>
      <trkpt lat="44.64697" lon="5.05841">
        <ele>385</ele>
        <time>2026-05-26T13:09:15.000Z</time>
      </trkpt>
      <trkpt lat="44.64698" lon="5.05843">
        <ele>386</ele>
        <time>2026-05-26T13:09:16.000Z</time>
      </trkpt>
      <trkpt lat="44.64698" lon="5.05845">
        <ele>386</ele>
        <time>2026-05-26T13:09:17.000Z</time>
      </trkpt>
      <trkpt lat="44.64698" lon="5.05846">
        <ele>387</ele>
        <time>2026-05-26T13:09:18.000Z</time>
      </trkpt>
      <trkpt lat="44.64699" lon="5.05847">
        <ele>387</ele>
        <time>2026-05-26T13:09:19.000Z</time>
      </trkpt>
      <trkpt lat="44.64699" lon="5.05849">
        <ele>387</ele>
        <time>2026-05-26T13:09:20.000Z</time>
      </trkpt>
      <trkpt lat="44.64699" lon="5.0585">
        <ele>387</ele>
        <time>2026-05-26T13:09:21.000Z</time>
      </trkpt>
      <trkpt lat="44.64699" lon="5.05852">
        <ele>387</ele>
        <time>2026-05-26T13:09:22.000Z</time>
      </trkpt>
      <trkpt lat="44.647" lon="5.05853">
        <ele>387</ele>
        <time>2026-05-26T13:09:23.000Z</time>
      </trkpt>
      <trkpt lat="44.647" lon="5.05854">
        <ele>387</ele>
        <time>2026-05-26T13:09:24.000Z</time>
      </trkpt>
      <trkpt lat="44.64701" lon="5.05855">
        <ele>388</ele>
        <time>2026-05-26T13:09:25.000Z</time>
      </trkpt>
      <trkpt lat="44.64701" lon="5.05857">
        <ele>389</ele>
        <time>2026-05-26T13:09:26.000Z</time>
      </trkpt>
      <trkpt lat="44.64701" lon="5.05858">
        <ele>388</ele>
        <time>2026-05-26T13:09:27.000Z</time>
      </trkpt>
      <trkpt lat="44.64701" lon="5.0586">
        <ele>388</ele>
        <time>2026-05-26T13:09:28.000Z</time>
      </trkpt>
      <trkpt lat="44.64701" lon="5.05861">
        <ele>388</ele>
        <time>2026-05-26T13:09:29.000Z</time>
      </trkpt>
      <trkpt lat="44.64701" lon="5.05862">
        <ele>389</ele>
        <time>2026-05-26T13:09:30.000Z</time>
      </trkpt>
      <trkpt lat="44.64702" lon="5.05863">
        <ele>389</ele>
        <time>2026-05-26T13:09:31.000Z</time>
      </trkpt>
      <trkpt lat="44.64702" lon="5.05864">
        <ele>389</ele>
        <time>2026-05-26T13:09:32.000Z</time>
      </trkpt>
      <trkpt lat="44.64702" lon="5.05866">
        <ele>389</ele>
        <time>2026-05-26T13:09:33.000Z</time>
      </trkpt>
      <trkpt lat="44.64702" lon="5.05868">
        <ele>390</ele>
        <time>2026-05-26T13:09:34.000Z</time>
      </trkpt>
      <trkpt lat="44.64703" lon="5.05869">
        <ele>390</ele>
        <time>2026-05-26T13:09:35.000Z</time>
      </trkpt>
      <trkpt lat="44.64703" lon="5.0587">
        <ele>390</ele>
        <time>2026-05-26T13:09:36.000Z</time>
      </trkpt>
      <trkpt lat="44.64703" lon="5.05872">
        <ele>390</ele>
        <time>2026-05-26T13:09:37.000Z</time>
      </trkpt>
      <trkpt lat="44.64703" lon="5.05874">
        <ele>390</ele>
        <time>2026-05-26T13:09:38.000Z</time>
      </trkpt>
      <trkpt lat="44.64703" lon="5.05875">
        <ele>390</ele>
        <time>2026-05-26T13:09:39.000Z</time>
      </trkpt>
      <trkpt lat="44.64703" lon="5.05876">
        <ele>390</ele>
        <time>2026-05-26T13:09:40.000Z</time>
      </trkpt>
      <trkpt lat="44.64704" lon="5.05877">
        <ele>390</ele>
        <time>2026-05-26T13:09:41.000Z</time>
      </trkpt>
      <trkpt lat="44.64704" lon="5.05877">
        <ele>390</ele>
        <time>2026-05-26T13:09:42.000Z</time>
      </trkpt>
      <trkpt lat="44.64703" lon="5.05877">
        <ele>390</ele>
        <time>2026-05-26T13:09:43.000Z</time>
      </trkpt>
      <trkpt lat="44.64703" lon="5.05877">
        <ele>390</ele>
        <time>2026-05-26T13:09:44.000Z</time>
      </trkpt>
      <trkpt lat="44.64703" lon="5.05877">
        <ele>390</ele>
        <time>2026-05-26T13:09:45.000Z</time>
      </trkpt>
      <trkpt lat="44.64703" lon="5.05877">
        <ele>390</ele>
        <time>2026-05-26T13:09:46.000Z</time>
      </trkpt>
      <trkpt lat="44.64703" lon="5.05877">
        <ele>390</ele>
        <time>2026-05-26T13:09:47.000Z</time>
      </trkpt>
      <trkpt lat="44.64703" lon="5.05879">
        <ele>390</ele>
        <time>2026-05-26T13:09:48.000Z</time>
      </trkpt>
      <trkpt lat="44.64703" lon="5.0588">
        <ele>390</ele>
        <time>2026-05-26T13:09:49.000Z</time>
      </trkpt>
      <trkpt lat="44.64703" lon="5.05882">
        <ele>390</ele>
        <time>2026-05-26T13:09:50.000Z</time>
      </trkpt>
      <trkpt lat="44.64703" lon="5.05883">
        <ele>390</ele>
        <time>2026-05-26T13:09:51.000Z</time>
      </trkpt>
      <trkpt lat="44.64703" lon="5.05885">
        <ele>389</ele>
        <time>2026-05-26T13:09:52.000Z</time>
      </trkpt>
      <trkpt lat="44.64703" lon="5.05887">
        <ele>390</ele>
        <time>2026-05-26T13:09:53.000Z</time>
      </trkpt>
      <trkpt lat="44.64704" lon="5.05889">
        <ele>389</ele>
        <time>2026-05-26T13:09:54.000Z</time>
      </trkpt>
      <trkpt lat="44.64704" lon="5.05891">
        <ele>389</ele>
        <time>2026-05-26T13:09:55.000Z</time>
      </trkpt>
      <trkpt lat="44.64704" lon="5.05893">
        <ele>389</ele>
        <time>2026-05-26T13:09:56.000Z</time>
      </trkpt>
      <trkpt lat="44.64705" lon="5.05895">
        <ele>390</ele>
        <time>2026-05-26T13:09:57.000Z</time>
      </trkpt>
      <trkpt lat="44.64706" lon="5.05897">
        <ele>390</ele>
        <time>2026-05-26T13:09:58.000Z</time>
      </trkpt>
      <trkpt lat="44.64706" lon="5.05898">
        <ele>390</ele>
        <time>2026-05-26T13:09:59.000Z</time>
      </trkpt>
      <trkpt lat="44.64706" lon="5.059">
        <ele>390</ele>
        <time>2026-05-26T13:10:00.000Z</time>
      </trkpt>
      <trkpt lat="44.64707" lon="5.05902">
        <ele>390</ele>
        <time>2026-05-26T13:10:01.000Z</time>
      </trkpt>
      <trkpt lat="44.64707" lon="5.05903">
        <ele>390</ele>
        <time>2026-05-26T13:10:02.000Z</time>
      </trkpt>
      <trkpt lat="44.64707" lon="5.05905">
        <ele>389</ele>
        <time>2026-05-26T13:10:03.000Z</time>
      </trkpt>
      <trkpt lat="44.64708" lon="5.05907">
        <ele>389</ele>
        <time>2026-05-26T13:10:04.000Z</time>
      </trkpt>
      <trkpt lat="44.64708" lon="5.05909">
        <ele>390</ele>
        <time>2026-05-26T13:10:05.000Z</time>
      </trkpt>
      <trkpt lat="44.64709" lon="5.05911">
        <ele>390</ele>
        <time>2026-05-26T13:10:06.000Z</time>
      </trkpt>
      <trkpt lat="44.64709" lon="5.05912">
        <ele>390</ele>
        <time>2026-05-26T13:10:07.000Z</time>
      </trkpt>
      <trkpt lat="44.64709" lon="5.05914">
        <ele>390</ele>
        <time>2026-05-26T13:10:08.000Z</time>
      </trkpt>
      <trkpt lat="44.64709" lon="5.05916">
        <ele>390</ele>
        <time>2026-05-26T13:10:09.000Z</time>
      </trkpt>
      <trkpt lat="44.64709" lon="5.05918">
        <ele>391</ele>
        <time>2026-05-26T13:10:10.000Z</time>
      </trkpt>
      <trkpt lat="44.64709" lon="5.0592">
        <ele>391</ele>
        <time>2026-05-26T13:10:11.000Z</time>
      </trkpt>
      <trkpt lat="44.64709" lon="5.05922">
        <ele>391</ele>
        <time>2026-05-26T13:10:12.000Z</time>
      </trkpt>
      <trkpt lat="44.6471" lon="5.05923">
        <ele>391</ele>
        <time>2026-05-26T13:10:13.000Z</time>
      </trkpt>
      <trkpt lat="44.6471" lon="5.05925">
        <ele>391</ele>
        <time>2026-05-26T13:10:14.000Z</time>
      </trkpt>
      <trkpt lat="44.64711" lon="5.05927">
        <ele>390</ele>
        <time>2026-05-26T13:10:15.000Z</time>
      </trkpt>
      <trkpt lat="44.64711" lon="5.05929">
        <ele>390</ele>
        <time>2026-05-26T13:10:16.000Z</time>
      </trkpt>
      <trkpt lat="44.64711" lon="5.0593">
        <ele>390</ele>
        <time>2026-05-26T13:10:17.000Z</time>
      </trkpt>
      <trkpt lat="44.64712" lon="5.05932">
        <ele>390</ele>
        <time>2026-05-26T13:10:18.000Z</time>
      </trkpt>
      <trkpt lat="44.64712" lon="5.05934">
        <ele>390</ele>
        <time>2026-05-26T13:10:19.000Z</time>
      </trkpt>
      <trkpt lat="44.64712" lon="5.05936">
        <ele>390</ele>
        <time>2026-05-26T13:10:20.000Z</time>
      </trkpt>
      <trkpt lat="44.64713" lon="5.05938">
        <ele>390</ele>
        <time>2026-05-26T13:10:21.000Z</time>
      </trkpt>
      <trkpt lat="44.64713" lon="5.0594">
        <ele>390</ele>
        <time>2026-05-26T13:10:22.000Z</time>
      </trkpt>
      <trkpt lat="44.64713" lon="5.05941">
        <ele>389</ele>
        <time>2026-05-26T13:10:23.000Z</time>
      </trkpt>
      <trkpt lat="44.64714" lon="5.05943">
        <ele>390</ele>
        <time>2026-05-26T13:10:24.000Z</time>
      </trkpt>
      <trkpt lat="44.64714" lon="5.05945">
        <ele>390</ele>
        <time>2026-05-26T13:10:25.000Z</time>
      </trkpt>
      <trkpt lat="44.64714" lon="5.05947">
        <ele>390</ele>
        <time>2026-05-26T13:10:26.000Z</time>
      </trkpt>
      <trkpt lat="44.64714" lon="5.05948">
        <ele>389</ele>
        <time>2026-05-26T13:10:27.000Z</time>
      </trkpt>
      <trkpt lat="44.64714" lon="5.0595">
        <ele>389</ele>
        <time>2026-05-26T13:10:28.000Z</time>
      </trkpt>
      <trkpt lat="44.64715" lon="5.05952">
        <ele>389</ele>
        <time>2026-05-26T13:10:29.000Z</time>
      </trkpt>
      <trkpt lat="44.64715" lon="5.05953">
        <ele>389</ele>
        <time>2026-05-26T13:10:30.000Z</time>
      </trkpt>
      <trkpt lat="44.64715" lon="5.05955">
        <ele>390</ele>
        <time>2026-05-26T13:10:31.000Z</time>
      </trkpt>
      <trkpt lat="44.64716" lon="5.05957">
        <ele>390</ele>
        <time>2026-05-26T13:10:32.000Z</time>
      </trkpt>
      <trkpt lat="44.64716" lon="5.05959">
        <ele>390</ele>
        <time>2026-05-26T13:10:33.000Z</time>
      </trkpt>
      <trkpt lat="44.64717" lon="5.05961">
        <ele>390</ele>
        <time>2026-05-26T13:10:34.000Z</time>
      </trkpt>
      <trkpt lat="44.64716" lon="5.05962">
        <ele>390</ele>
        <time>2026-05-26T13:10:35.000Z</time>
      </trkpt>
      <trkpt lat="44.64716" lon="5.05963">
        <ele>390</ele>
        <time>2026-05-26T13:10:36.000Z</time>
      </trkpt>
      <trkpt lat="44.64716" lon="5.05965">
        <ele>389</ele>
        <time>2026-05-26T13:10:37.000Z</time>
      </trkpt>
      <trkpt lat="44.64716" lon="5.05966">
        <ele>389</ele>
        <time>2026-05-26T13:10:38.000Z</time>
      </trkpt>
      <trkpt lat="44.64716" lon="5.05968">
        <ele>389</ele>
        <time>2026-05-26T13:10:39.000Z</time>
      </trkpt>
      <trkpt lat="44.64717" lon="5.0597">
        <ele>389</ele>
        <time>2026-05-26T13:10:40.000Z</time>
      </trkpt>
      <trkpt lat="44.64717" lon="5.05972">
        <ele>389</ele>
        <time>2026-05-26T13:10:41.000Z</time>
      </trkpt>
      <trkpt lat="44.64718" lon="5.05974">
        <ele>388</ele>
        <time>2026-05-26T13:10:42.000Z</time>
      </trkpt>
      <trkpt lat="44.64718" lon="5.05975">
        <ele>389</ele>
        <time>2026-05-26T13:10:43.000Z</time>
      </trkpt>
      <trkpt lat="44.64719" lon="5.05977">
        <ele>389</ele>
        <time>2026-05-26T13:10:44.000Z</time>
      </trkpt>
      <trkpt lat="44.64719" lon="5.05978">
        <ele>389</ele>
        <time>2026-05-26T13:10:45.000Z</time>
      </trkpt>
      <trkpt lat="44.64719" lon="5.05978">
        <ele>389</ele>
        <time>2026-05-26T13:10:46.000Z</time>
      </trkpt>
      <trkpt lat="44.6472" lon="5.05978">
        <ele>389</ele>
        <time>2026-05-26T13:10:47.000Z</time>
      </trkpt>
      <trkpt lat="44.64719" lon="5.05978">
        <ele>389</ele>
        <time>2026-05-26T13:10:48.000Z</time>
      </trkpt>
      <trkpt lat="44.64719" lon="5.05978">
        <ele>389</ele>
        <time>2026-05-26T13:10:49.000Z</time>
      </trkpt>
      <trkpt lat="44.64719" lon="5.05978">
        <ele>389</ele>
        <time>2026-05-26T13:10:50.000Z</time>
      </trkpt>
      <trkpt lat="44.64719" lon="5.05978">
        <ele>389</ele>
        <time>2026-05-26T13:10:51.000Z</time>
      </trkpt>
      <trkpt lat="44.64719" lon="5.05978">
        <ele>389</ele>
        <time>2026-05-26T13:10:52.000Z</time>
      </trkpt>
      <trkpt lat="44.64719" lon="5.05978">
        <ele>389</ele>
        <time>2026-05-26T13:10:53.000Z</time>
      </trkpt>
      <trkpt lat="44.64719" lon="5.05978">
        <ele>389</ele>
        <time>2026-05-26T13:10:54.000Z</time>
      </trkpt>
      <trkpt lat="44.64719" lon="5.05978">
        <ele>389</ele>
        <time>2026-05-26T13:10:55.000Z</time>
      </trkpt>
      <trkpt lat="44.64719" lon="5.05978">
        <ele>389</ele>
        <time>2026-05-26T13:10:56.000Z</time>
      </trkpt>
      <trkpt lat="44.64719" lon="5.05978">
        <ele>389</ele>
        <time>2026-05-26T13:10:57.000Z</time>
      </trkpt>
      <trkpt lat="44.64719" lon="5.05978">
        <ele>389</ele>
        <time>2026-05-26T13:10:58.000Z</time>
      </trkpt>
      <trkpt lat="44.64719" lon="5.05978">
        <ele>389</ele>
        <time>2026-05-26T13:10:59.000Z</time>
      </trkpt>
      <trkpt lat="44.64719" lon="5.05978">
        <ele>389</ele>
        <time>2026-05-26T13:11:00.000Z</time>
      </trkpt>
      <trkpt lat="44.64719" lon="5.05978">
        <ele>389</ele>
        <time>2026-05-26T13:11:01.000Z</time>
      </trkpt>
      <trkpt lat="44.64719" lon="5.05978">
        <ele>389</ele>
        <time>2026-05-26T13:11:02.000Z</time>
      </trkpt>
      <trkpt lat="44.64719" lon="5.05978">
        <ele>389</ele>
        <time>2026-05-26T13:11:03.000Z</time>
      </trkpt>
      <trkpt lat="44.64719" lon="5.05978">
        <ele>389</ele>
        <time>2026-05-26T13:11:04.000Z</time>
      </trkpt>
      <trkpt lat="44.64719" lon="5.05978">
        <ele>389</ele>
        <time>2026-05-26T13:11:05.000Z</time>
      </trkpt>
      <trkpt lat="44.64719" lon="5.05978">
        <ele>389</ele>
        <time>2026-05-26T13:11:06.000Z</time>
      </trkpt>
      <trkpt lat="44.64719" lon="5.05978">
        <ele>389</ele>
        <time>2026-05-26T13:11:07.000Z</time>
      </trkpt>
      <trkpt lat="44.64719" lon="5.05977">
        <ele>389</ele>
        <time>2026-05-26T13:11:08.000Z</time>
      </trkpt>
      <trkpt lat="44.64719" lon="5.05977">
        <ele>389</ele>
        <time>2026-05-26T13:11:09.000Z</time>
      </trkpt>
      <trkpt lat="44.64719" lon="5.05979">
        <ele>389</ele>
        <time>2026-05-26T13:11:10.000Z</time>
      </trkpt>
      <trkpt lat="44.64719" lon="5.0598">
        <ele>388</ele>
        <time>2026-05-26T13:11:11.000Z</time>
      </trkpt>
      <trkpt lat="44.64719" lon="5.05981">
        <ele>388</ele>
        <time>2026-05-26T13:11:12.000Z</time>
      </trkpt>
      <trkpt lat="44.64719" lon="5.05981">
        <ele>387</ele>
        <time>2026-05-26T13:11:13.000Z</time>
      </trkpt>
      <trkpt lat="44.64719" lon="5.05983">
        <ele>387</ele>
        <time>2026-05-26T13:11:14.000Z</time>
      </trkpt>
      <trkpt lat="44.6472" lon="5.05985">
        <ele>387</ele>
        <time>2026-05-26T13:11:15.000Z</time>
      </trkpt>
      <trkpt lat="44.6472" lon="5.05987">
        <ele>387</ele>
        <time>2026-05-26T13:11:16.000Z</time>
      </trkpt>
      <trkpt lat="44.6472" lon="5.05989">
        <ele>387</ele>
        <time>2026-05-26T13:11:17.000Z</time>
      </trkpt>
      <trkpt lat="44.6472" lon="5.05992">
        <ele>387</ele>
        <time>2026-05-26T13:11:18.000Z</time>
      </trkpt>
      <trkpt lat="44.6472" lon="5.05994">
        <ele>387</ele>
        <time>2026-05-26T13:11:19.000Z</time>
      </trkpt>
      <trkpt lat="44.6472" lon="5.05995">
        <ele>387</ele>
        <time>2026-05-26T13:11:20.000Z</time>
      </trkpt>
      <trkpt lat="44.64721" lon="5.05997">
        <ele>388</ele>
        <time>2026-05-26T13:11:21.000Z</time>
      </trkpt>
      <trkpt lat="44.6472" lon="5.05998">
        <ele>388</ele>
        <time>2026-05-26T13:11:22.000Z</time>
      </trkpt>
      <trkpt lat="44.64721" lon="5.05999">
        <ele>388</ele>
        <time>2026-05-26T13:11:23.000Z</time>
      </trkpt>
      <trkpt lat="44.64721" lon="5.06001">
        <ele>388</ele>
        <time>2026-05-26T13:11:24.000Z</time>
      </trkpt>
      <trkpt lat="44.64721" lon="5.06003">
        <ele>388</ele>
        <time>2026-05-26T13:11:25.000Z</time>
      </trkpt>
      <trkpt lat="44.64721" lon="5.06006">
        <ele>388</ele>
        <time>2026-05-26T13:11:26.000Z</time>
      </trkpt>
      <trkpt lat="44.64721" lon="5.06008">
        <ele>388</ele>
        <time>2026-05-26T13:11:27.000Z</time>
      </trkpt>
      <trkpt lat="44.64722" lon="5.0601">
        <ele>388</ele>
        <time>2026-05-26T13:11:28.000Z</time>
      </trkpt>
      <trkpt lat="44.64722" lon="5.06011">
        <ele>388</ele>
        <time>2026-05-26T13:11:29.000Z</time>
      </trkpt>
      <trkpt lat="44.64722" lon="5.06012">
        <ele>388</ele>
        <time>2026-05-26T13:11:30.000Z</time>
      </trkpt>
      <trkpt lat="44.64722" lon="5.06012">
        <ele>388</ele>
        <time>2026-05-26T13:11:31.000Z</time>
      </trkpt>
      <trkpt lat="44.64722" lon="5.06012">
        <ele>388</ele>
        <time>2026-05-26T13:11:32.000Z</time>
      </trkpt>
      <trkpt lat="44.64722" lon="5.06012">
        <ele>388</ele>
        <time>2026-05-26T13:11:33.000Z</time>
      </trkpt>
      <trkpt lat="44.64722" lon="5.06012">
        <ele>388</ele>
        <time>2026-05-26T13:11:34.000Z</time>
      </trkpt>
      <trkpt lat="44.64722" lon="5.06012">
        <ele>388</ele>
        <time>2026-05-26T13:11:35.000Z</time>
      </trkpt>
      <trkpt lat="44.64722" lon="5.06012">
        <ele>388</ele>
        <time>2026-05-26T13:11:36.000Z</time>
      </trkpt>
      <trkpt lat="44.64722" lon="5.06012">
        <ele>388</ele>
        <time>2026-05-26T13:11:37.000Z</time>
      </trkpt>
      <trkpt lat="44.64722" lon="5.06012">
        <ele>388</ele>
        <time>2026-05-26T13:11:38.000Z</time>
      </trkpt>
      <trkpt lat="44.64722" lon="5.06012">
        <ele>388</ele>
        <time>2026-05-26T13:11:39.000Z</time>
      </trkpt>
      <trkpt lat="44.64722" lon="5.06012">
        <ele>388</ele>
        <time>2026-05-26T13:11:40.000Z</time>
      </trkpt>
      <trkpt lat="44.64722" lon="5.06012">
        <ele>388</ele>
        <time>2026-05-26T13:11:41.000Z</time>
      </trkpt>
      <trkpt lat="44.64722" lon="5.06012">
        <ele>388</ele>
        <time>2026-05-26T13:11:42.000Z</time>
      </trkpt>
      <trkpt lat="44.64722" lon="5.06012">
        <ele>388</ele>
        <time>2026-05-26T13:11:43.000Z</time>
      </trkpt>
      <trkpt lat="44.64722" lon="5.06012">
        <ele>388</ele>
        <time>2026-05-26T13:11:44.000Z</time>
      </trkpt>
      <trkpt lat="44.64722" lon="5.06012">
        <ele>388</ele>
        <time>2026-05-26T13:11:45.000Z</time>
      </trkpt>
      <trkpt lat="44.64722" lon="5.06012">
        <ele>388</ele>
        <time>2026-05-26T13:11:46.000Z</time>
      </trkpt>
      <trkpt lat="44.64722" lon="5.06012">
        <ele>388</ele>
        <time>2026-05-26T13:11:47.000Z</time>
      </trkpt>
      <trkpt lat="44.64722" lon="5.06012">
        <ele>388</ele>
        <time>2026-05-26T13:11:48.000Z</time>
      </trkpt>
      <trkpt lat="44.64722" lon="5.06012">
        <ele>388</ele>
        <time>2026-05-26T13:11:49.000Z</time>
      </trkpt>
      <trkpt lat="44.64722" lon="5.06012">
        <ele>388</ele>
        <time>2026-05-26T13:11:50.000Z</time>
      </trkpt>
      <trkpt lat="44.64722" lon="5.06012">
        <ele>388</ele>
        <time>2026-05-26T13:11:51.000Z</time>
      </trkpt>
      <trkpt lat="44.64722" lon="5.06012">
        <ele>388</ele>
        <time>2026-05-26T13:11:52.000Z</time>
      </trkpt>
      <trkpt lat="44.64722" lon="5.06012">
        <ele>388</ele>
        <time>2026-05-26T13:11:53.000Z</time>
      </trkpt>
      <trkpt lat="44.64722" lon="5.06013">
        <ele>388</ele>
        <time>2026-05-26T13:11:54.000Z</time>
      </trkpt>
      <trkpt lat="44.64722" lon="5.06014">
        <ele>388</ele>
        <time>2026-05-26T13:11:55.000Z</time>
      </trkpt>
      <trkpt lat="44.64722" lon="5.06015">
        <ele>388</ele>
        <time>2026-05-26T13:11:56.000Z</time>
      </trkpt>
      <trkpt lat="44.64722" lon="5.06017">
        <ele>388</ele>
        <time>2026-05-26T13:11:57.000Z</time>
      </trkpt>
      <trkpt lat="44.64721" lon="5.06019">
        <ele>387</ele>
        <time>2026-05-26T13:11:58.000Z</time>
      </trkpt>
      <trkpt lat="44.64722" lon="5.0602">
        <ele>387</ele>
        <time>2026-05-26T13:11:59.000Z</time>
      </trkpt>
      <trkpt lat="44.64722" lon="5.06021">
        <ele>387</ele>
        <time>2026-05-26T13:12:00.000Z</time>
      </trkpt>
      <trkpt lat="44.64723" lon="5.06023">
        <ele>387</ele>
        <time>2026-05-26T13:12:01.000Z</time>
      </trkpt>
      <trkpt lat="44.64723" lon="5.06024">
        <ele>387</ele>
        <time>2026-05-26T13:12:02.000Z</time>
      </trkpt>
      <trkpt lat="44.64723" lon="5.06025">
        <ele>389</ele>
        <time>2026-05-26T13:12:03.000Z</time>
      </trkpt>
      <trkpt lat="44.64724" lon="5.06027">
        <ele>389</ele>
        <time>2026-05-26T13:12:04.000Z</time>
      </trkpt>
      <trkpt lat="44.64725" lon="5.06028">
        <ele>391</ele>
        <time>2026-05-26T13:12:05.000Z</time>
      </trkpt>
      <trkpt lat="44.64726" lon="5.06029">
        <ele>391</ele>
        <time>2026-05-26T13:12:06.000Z</time>
      </trkpt>
      <trkpt lat="44.64725" lon="5.0603">
        <ele>392</ele>
        <time>2026-05-26T13:12:07.000Z</time>
      </trkpt>
      <trkpt lat="44.64725" lon="5.06031">
        <ele>392</ele>
        <time>2026-05-26T13:12:08.000Z</time>
      </trkpt>
      <trkpt lat="44.64725" lon="5.06032">
        <ele>392</ele>
        <time>2026-05-26T13:12:09.000Z</time>
      </trkpt>
      <trkpt lat="44.64725" lon="5.06032">
        <ele>391</ele>
        <time>2026-05-26T13:12:10.000Z</time>
      </trkpt>
      <trkpt lat="44.64725" lon="5.06034">
        <ele>392</ele>
        <time>2026-05-26T13:12:11.000Z</time>
      </trkpt>
      <trkpt lat="44.64726" lon="5.06035">
        <ele>393</ele>
        <time>2026-05-26T13:12:12.000Z</time>
      </trkpt>
      <trkpt lat="44.64726" lon="5.0604">
        <ele>393</ele>
        <time>2026-05-26T13:12:13.000Z</time>
      </trkpt>
      <trkpt lat="44.64727" lon="5.06039">
        <ele>393</ele>
        <time>2026-05-26T13:12:14.000Z</time>
      </trkpt>
      <trkpt lat="44.64727" lon="5.06041">
        <ele>393</ele>
        <time>2026-05-26T13:12:15.000Z</time>
      </trkpt>
      <trkpt lat="44.64727" lon="5.06042">
        <ele>393</ele>
        <time>2026-05-26T13:12:16.000Z</time>
      </trkpt>
      <trkpt lat="44.64726" lon="5.06045">
        <ele>393</ele>
        <time>2026-05-26T13:12:17.000Z</time>
      </trkpt>
      <trkpt lat="44.64726" lon="5.06048">
        <ele>393</ele>
        <time>2026-05-26T13:12:18.000Z</time>
      </trkpt>
      <trkpt lat="44.64726" lon="5.06049">
        <ele>393</ele>
        <time>2026-05-26T13:12:19.000Z</time>
      </trkpt>
      <trkpt lat="44.64726" lon="5.06051">
        <ele>393</ele>
        <time>2026-05-26T13:12:20.000Z</time>
      </trkpt>
      <trkpt lat="44.64726" lon="5.06052">
        <ele>392</ele>
        <time>2026-05-26T13:12:21.000Z</time>
      </trkpt>
      <trkpt lat="44.64727" lon="5.06054">
        <ele>393</ele>
        <time>2026-05-26T13:12:22.000Z</time>
      </trkpt>
      <trkpt lat="44.64728" lon="5.06054">
        <ele>392</ele>
        <time>2026-05-26T13:12:23.000Z</time>
      </trkpt>
      <trkpt lat="44.64727" lon="5.06055">
        <ele>391</ele>
        <time>2026-05-26T13:12:24.000Z</time>
      </trkpt>
      <trkpt lat="44.64727" lon="5.06057">
        <ele>390</ele>
        <time>2026-05-26T13:12:25.000Z</time>
      </trkpt>
      <trkpt lat="44.64728" lon="5.06059">
        <ele>390</ele>
        <time>2026-05-26T13:12:26.000Z</time>
      </trkpt>
      <trkpt lat="44.64728" lon="5.06062">
        <ele>390</ele>
        <time>2026-05-26T13:12:27.000Z</time>
      </trkpt>
      <trkpt lat="44.64728" lon="5.06064">
        <ele>389</ele>
        <time>2026-05-26T13:12:28.000Z</time>
      </trkpt>
      <trkpt lat="44.64729" lon="5.06062">
        <ele>389</ele>
        <time>2026-05-26T13:12:29.000Z</time>
      </trkpt>
      <trkpt lat="44.64729" lon="5.0606">
        <ele>389</ele>
        <time>2026-05-26T13:12:30.000Z</time>
      </trkpt>
      <trkpt lat="44.64728" lon="5.06058">
        <ele>388</ele>
        <time>2026-05-26T13:12:31.000Z</time>
      </trkpt>
      <trkpt lat="44.64728" lon="5.06056">
        <ele>388</ele>
        <time>2026-05-26T13:12:32.000Z</time>
      </trkpt>
      <trkpt lat="44.64728" lon="5.06058">
        <ele>388</ele>
        <time>2026-05-26T13:12:33.000Z</time>
      </trkpt>
      <trkpt lat="44.64729" lon="5.0606">
        <ele>388</ele>
        <time>2026-05-26T13:12:34.000Z</time>
      </trkpt>
      <trkpt lat="44.64729" lon="5.06062">
        <ele>388</ele>
        <time>2026-05-26T13:12:35.000Z</time>
      </trkpt>
      <trkpt lat="44.6473" lon="5.06064">
        <ele>388</ele>
        <time>2026-05-26T13:12:36.000Z</time>
      </trkpt>
      <trkpt lat="44.6473" lon="5.06066">
        <ele>388</ele>
        <time>2026-05-26T13:12:37.000Z</time>
      </trkpt>
      <trkpt lat="44.6473" lon="5.06068">
        <ele>387</ele>
        <time>2026-05-26T13:12:38.000Z</time>
      </trkpt>
      <trkpt lat="44.64731" lon="5.06071">
        <ele>386</ele>
        <time>2026-05-26T13:12:39.000Z</time>
      </trkpt>
      <trkpt lat="44.64731" lon="5.06073">
        <ele>386</ele>
        <time>2026-05-26T13:12:40.000Z</time>
      </trkpt>
      <trkpt lat="44.64731" lon="5.06075">
        <ele>386</ele>
        <time>2026-05-26T13:12:41.000Z</time>
      </trkpt>
      <trkpt lat="44.64732" lon="5.06079">
        <ele>386</ele>
        <time>2026-05-26T13:12:42.000Z</time>
      </trkpt>
      <trkpt lat="44.64733" lon="5.06083">
        <ele>386</ele>
        <time>2026-05-26T13:12:43.000Z</time>
      </trkpt>
      <trkpt lat="44.64733" lon="5.06086">
        <ele>386</ele>
        <time>2026-05-26T13:12:44.000Z</time>
      </trkpt>
      <trkpt lat="44.64734" lon="5.0609">
        <ele>386</ele>
        <time>2026-05-26T13:12:45.000Z</time>
      </trkpt>
      <trkpt lat="44.64734" lon="5.0609">
        <ele>386</ele>
        <time>2026-05-26T13:12:46.000Z</time>
      </trkpt>
      <trkpt lat="44.64734" lon="5.0609">
        <ele>386</ele>
        <time>2026-05-26T13:12:47.000Z</time>
      </trkpt>
      <trkpt lat="44.64734" lon="5.0609">
        <ele>386</ele>
        <time>2026-05-26T13:12:48.000Z</time>
      </trkpt>
      <trkpt lat="44.64734" lon="5.0609">
        <ele>386</ele>
        <time>2026-05-26T13:12:49.000Z</time>
      </trkpt>
      <trkpt lat="44.64734" lon="5.0609">
        <ele>386</ele>
        <time>2026-05-26T13:12:50.000Z</time>
      </trkpt>
      <trkpt lat="44.64734" lon="5.0609">
        <ele>386</ele>
        <time>2026-05-26T13:12:51.000Z</time>
      </trkpt>
      <trkpt lat="44.64734" lon="5.0609">
        <ele>386</ele>
        <time>2026-05-26T13:12:52.000Z</time>
      </trkpt>
      <trkpt lat="44.64734" lon="5.0609">
        <ele>386</ele>
        <time>2026-05-26T13:12:53.000Z</time>
      </trkpt>
      <trkpt lat="44.64734" lon="5.0609">
        <ele>386</ele>
        <time>2026-05-26T13:12:54.000Z</time>
      </trkpt>
      <trkpt lat="44.64734" lon="5.0609">
        <ele>386</ele>
        <time>2026-05-26T13:12:55.000Z</time>
      </trkpt>
      <trkpt lat="44.64734" lon="5.0609">
        <ele>386</ele>
        <time>2026-05-26T13:12:56.000Z</time>
      </trkpt>
      <trkpt lat="44.64734" lon="5.0609">
        <ele>386</ele>
        <time>2026-05-26T13:12:57.000Z</time>
      </trkpt>
      <trkpt lat="44.64734" lon="5.0609">
        <ele>386</ele>
        <time>2026-05-26T13:12:58.000Z</time>
      </trkpt>
      <trkpt lat="44.64734" lon="5.0609">
        <ele>386</ele>
        <time>2026-05-26T13:12:59.000Z</time>
      </trkpt>
      <trkpt lat="44.64734" lon="5.0609">
        <ele>386</ele>
        <time>2026-05-26T13:13:00.000Z</time>
      </trkpt>
      <trkpt lat="44.64734" lon="5.0609">
        <ele>386</ele>
        <time>2026-05-26T13:13:01.000Z</time>
      </trkpt>
      <trkpt lat="44.64736" lon="5.0609">
        <ele>386</ele>
        <time>2026-05-26T13:13:02.000Z</time>
      </trkpt>
      <trkpt lat="44.64736" lon="5.0609">
        <ele>386</ele>
        <time>2026-05-26T13:13:03.000Z</time>
      </trkpt>
      <trkpt lat="44.64737" lon="5.06091">
        <ele>386</ele>
        <time>2026-05-26T13:13:04.000Z</time>
      </trkpt>
      <trkpt lat="44.64738" lon="5.06091">
        <ele>386</ele>
        <time>2026-05-26T13:13:05.000Z</time>
      </trkpt>
      <trkpt lat="44.64739" lon="5.06091">
        <ele>387</ele>
        <time>2026-05-26T13:13:06.000Z</time>
      </trkpt>
      <trkpt lat="44.64739" lon="5.06091">
        <ele>387</ele>
        <time>2026-05-26T13:13:07.000Z</time>
      </trkpt>
      <trkpt lat="44.6474" lon="5.0609">
        <ele>387</ele>
        <time>2026-05-26T13:13:08.000Z</time>
      </trkpt>
      <trkpt lat="44.64741" lon="5.0609">
        <ele>387</ele>
        <time>2026-05-26T13:13:09.000Z</time>
      </trkpt>
      <trkpt lat="44.64742" lon="5.0609">
        <ele>388</ele>
        <time>2026-05-26T13:13:10.000Z</time>
      </trkpt>
      <trkpt lat="44.64742" lon="5.0609">
        <ele>388</ele>
        <time>2026-05-26T13:13:11.000Z</time>
      </trkpt>
      <trkpt lat="44.64744" lon="5.0609">
        <ele>388</ele>
        <time>2026-05-26T13:13:12.000Z</time>
      </trkpt>
      <trkpt lat="44.64745" lon="5.0609">
        <ele>388</ele>
        <time>2026-05-26T13:13:13.000Z</time>
      </trkpt>
      <trkpt lat="44.64746" lon="5.06091">
        <ele>388</ele>
        <time>2026-05-26T13:13:14.000Z</time>
      </trkpt>
      <trkpt lat="44.64748" lon="5.06091">
        <ele>388</ele>
        <time>2026-05-26T13:13:15.000Z</time>
      </trkpt>
      <trkpt lat="44.64749" lon="5.06091">
        <ele>389</ele>
        <time>2026-05-26T13:13:16.000Z</time>
      </trkpt>
      <trkpt lat="44.64749" lon="5.06091">
        <ele>389</ele>
        <time>2026-05-26T13:13:17.000Z</time>
      </trkpt>
      <trkpt lat="44.64749" lon="5.06091">
        <ele>389</ele>
        <time>2026-05-26T13:13:18.000Z</time>
      </trkpt>
      <trkpt lat="44.64749" lon="5.06091">
        <ele>388</ele>
        <time>2026-05-26T13:13:19.000Z</time>
      </trkpt>
      <trkpt lat="44.6475" lon="5.06091">
        <ele>388</ele>
        <time>2026-05-26T13:13:20.000Z</time>
      </trkpt>
      <trkpt lat="44.64751" lon="5.0609">
        <ele>388</ele>
        <time>2026-05-26T13:13:21.000Z</time>
      </trkpt>
      <trkpt lat="44.64752" lon="5.06091">
        <ele>388</ele>
        <time>2026-05-26T13:13:22.000Z</time>
      </trkpt>
      <trkpt lat="44.64753" lon="5.06091">
        <ele>388</ele>
        <time>2026-05-26T13:13:23.000Z</time>
      </trkpt>
      <trkpt lat="44.64754" lon="5.06091">
        <ele>389</ele>
        <time>2026-05-26T13:13:24.000Z</time>
      </trkpt>
      <trkpt lat="44.64755" lon="5.06091">
        <ele>389</ele>
        <time>2026-05-26T13:13:25.000Z</time>
      </trkpt>
      <trkpt lat="44.64756" lon="5.0609">
        <ele>389</ele>
        <time>2026-05-26T13:13:26.000Z</time>
      </trkpt>
      <trkpt lat="44.64757" lon="5.0609">
        <ele>389</ele>
        <time>2026-05-26T13:13:27.000Z</time>
      </trkpt>
      <trkpt lat="44.64758" lon="5.06091">
        <ele>389</ele>
        <time>2026-05-26T13:13:28.000Z</time>
      </trkpt>
      <trkpt lat="44.64759" lon="5.0609">
        <ele>389</ele>
        <time>2026-05-26T13:13:29.000Z</time>
      </trkpt>
      <trkpt lat="44.6476" lon="5.0609">
        <ele>389</ele>
        <time>2026-05-26T13:13:30.000Z</time>
      </trkpt>
      <trkpt lat="44.64761" lon="5.0609">
        <ele>389</ele>
        <time>2026-05-26T13:13:31.000Z</time>
      </trkpt>
      <trkpt lat="44.64762" lon="5.0609">
        <ele>389</ele>
        <time>2026-05-26T13:13:32.000Z</time>
      </trkpt>
      <trkpt lat="44.64764" lon="5.0609">
        <ele>389</ele>
        <time>2026-05-26T13:13:33.000Z</time>
      </trkpt>
      <trkpt lat="44.64765" lon="5.0609">
        <ele>389</ele>
        <time>2026-05-26T13:13:34.000Z</time>
      </trkpt>
      <trkpt lat="44.64766" lon="5.06089">
        <ele>390</ele>
        <time>2026-05-26T13:13:35.000Z</time>
      </trkpt>
      <trkpt lat="44.64767" lon="5.06089">
        <ele>390</ele>
        <time>2026-05-26T13:13:36.000Z</time>
      </trkpt>
      <trkpt lat="44.64768" lon="5.0609">
        <ele>391</ele>
        <time>2026-05-26T13:13:37.000Z</time>
      </trkpt>
      <trkpt lat="44.64769" lon="5.0609">
        <ele>392</ele>
        <time>2026-05-26T13:13:38.000Z</time>
      </trkpt>
      <trkpt lat="44.6477" lon="5.0609">
        <ele>392</ele>
        <time>2026-05-26T13:13:39.000Z</time>
      </trkpt>
      <trkpt lat="44.64772" lon="5.0609">
        <ele>392</ele>
        <time>2026-05-26T13:13:40.000Z</time>
      </trkpt>
      <trkpt lat="44.64773" lon="5.0609">
        <ele>392</ele>
        <time>2026-05-26T13:13:41.000Z</time>
      </trkpt>
      <trkpt lat="44.64774" lon="5.0609">
        <ele>392</ele>
        <time>2026-05-26T13:13:42.000Z</time>
      </trkpt>
      <trkpt lat="44.64775" lon="5.0609">
        <ele>393</ele>
        <time>2026-05-26T13:13:43.000Z</time>
      </trkpt>
      <trkpt lat="44.64776" lon="5.0609">
        <ele>393</ele>
        <time>2026-05-26T13:13:44.000Z</time>
      </trkpt>
      <trkpt lat="44.64777" lon="5.0609">
        <ele>394</ele>
        <time>2026-05-26T13:13:45.000Z</time>
      </trkpt>
      <trkpt lat="44.64779" lon="5.0609">
        <ele>394</ele>
        <time>2026-05-26T13:13:46.000Z</time>
      </trkpt>
      <trkpt lat="44.6478" lon="5.06091">
        <ele>395</ele>
        <time>2026-05-26T13:13:47.000Z</time>
      </trkpt>
      <trkpt lat="44.64781" lon="5.06091">
        <ele>395</ele>
        <time>2026-05-26T13:13:48.000Z</time>
      </trkpt>
      <trkpt lat="44.64781" lon="5.06091">
        <ele>395</ele>
        <time>2026-05-26T13:13:49.000Z</time>
      </trkpt>
      <trkpt lat="44.64782" lon="5.06091">
        <ele>396</ele>
        <time>2026-05-26T13:13:50.000Z</time>
      </trkpt>
      <trkpt lat="44.64784" lon="5.06091">
        <ele>396</ele>
        <time>2026-05-26T13:13:51.000Z</time>
      </trkpt>
      <trkpt lat="44.64785" lon="5.06091">
        <ele>396</ele>
        <time>2026-05-26T13:13:52.000Z</time>
      </trkpt>
      <trkpt lat="44.64786" lon="5.06091">
        <ele>396</ele>
        <time>2026-05-26T13:13:53.000Z</time>
      </trkpt>
      <trkpt lat="44.64787" lon="5.06091">
        <ele>397</ele>
        <time>2026-05-26T13:13:54.000Z</time>
      </trkpt>
      <trkpt lat="44.64788" lon="5.06091">
        <ele>397</ele>
        <time>2026-05-26T13:13:55.000Z</time>
      </trkpt>
      <trkpt lat="44.64789" lon="5.06092">
        <ele>397</ele>
        <time>2026-05-26T13:13:56.000Z</time>
      </trkpt>
      <trkpt lat="44.6479" lon="5.06091">
        <ele>397</ele>
        <time>2026-05-26T13:13:57.000Z</time>
      </trkpt>
      <trkpt lat="44.64792" lon="5.06091">
        <ele>397</ele>
        <time>2026-05-26T13:13:58.000Z</time>
      </trkpt>
      <trkpt lat="44.64793" lon="5.06091">
        <ele>398</ele>
        <time>2026-05-26T13:13:59.000Z</time>
      </trkpt>
      <trkpt lat="44.64794" lon="5.06091">
        <ele>398</ele>
        <time>2026-05-26T13:14:00.000Z</time>
      </trkpt>
      <trkpt lat="44.64795" lon="5.06091">
        <ele>397</ele>
        <time>2026-05-26T13:14:01.000Z</time>
      </trkpt>
      <trkpt lat="44.64796" lon="5.06091">
        <ele>398</ele>
        <time>2026-05-26T13:14:02.000Z</time>
      </trkpt>
      <trkpt lat="44.64797" lon="5.06091">
        <ele>398</ele>
        <time>2026-05-26T13:14:03.000Z</time>
      </trkpt>
      <trkpt lat="44.64799" lon="5.06091">
        <ele>398</ele>
        <time>2026-05-26T13:14:04.000Z</time>
      </trkpt>
      <trkpt lat="44.648" lon="5.06091">
        <ele>398</ele>
        <time>2026-05-26T13:14:05.000Z</time>
      </trkpt>
      <trkpt lat="44.64801" lon="5.06091">
        <ele>399</ele>
        <time>2026-05-26T13:14:06.000Z</time>
      </trkpt>
      <trkpt lat="44.64802" lon="5.06091">
        <ele>399</ele>
        <time>2026-05-26T13:14:07.000Z</time>
      </trkpt>
      <trkpt lat="44.64803" lon="5.06091">
        <ele>400</ele>
        <time>2026-05-26T13:14:08.000Z</time>
      </trkpt>
      <trkpt lat="44.64804" lon="5.06091">
        <ele>400</ele>
        <time>2026-05-26T13:14:09.000Z</time>
      </trkpt>
      <trkpt lat="44.64806" lon="5.06091">
        <ele>400</ele>
        <time>2026-05-26T13:14:10.000Z</time>
      </trkpt>
      <trkpt lat="44.64807" lon="5.06091">
        <ele>400</ele>
        <time>2026-05-26T13:14:11.000Z</time>
      </trkpt>
      <trkpt lat="44.64808" lon="5.06091">
        <ele>401</ele>
        <time>2026-05-26T13:14:12.000Z</time>
      </trkpt>
      <trkpt lat="44.64809" lon="5.06091">
        <ele>401</ele>
        <time>2026-05-26T13:14:13.000Z</time>
      </trkpt>
      <trkpt lat="44.64811" lon="5.06091">
        <ele>401</ele>
        <time>2026-05-26T13:14:14.000Z</time>
      </trkpt>
      <trkpt lat="44.64812" lon="5.06091">
        <ele>402</ele>
        <time>2026-05-26T13:14:15.000Z</time>
      </trkpt>
      <trkpt lat="44.64813" lon="5.06091">
        <ele>402</ele>
        <time>2026-05-26T13:14:16.000Z</time>
      </trkpt>
      <trkpt lat="44.64814" lon="5.06091">
        <ele>402</ele>
        <time>2026-05-26T13:14:17.000Z</time>
      </trkpt>
      <trkpt lat="44.64815" lon="5.06091">
        <ele>402</ele>
        <time>2026-05-26T13:14:18.000Z</time>
      </trkpt>
      <trkpt lat="44.64816" lon="5.06091">
        <ele>402</ele>
        <time>2026-05-26T13:14:19.000Z</time>
      </trkpt>
      <trkpt lat="44.64817" lon="5.06091">
        <ele>402</ele>
        <time>2026-05-26T13:14:20.000Z</time>
      </trkpt>
      <trkpt lat="44.64819" lon="5.06091">
        <ele>403</ele>
        <time>2026-05-26T13:14:21.000Z</time>
      </trkpt>
      <trkpt lat="44.6482" lon="5.06091">
        <ele>403</ele>
        <time>2026-05-26T13:14:22.000Z</time>
      </trkpt>
      <trkpt lat="44.64822" lon="5.06092">
        <ele>402</ele>
        <time>2026-05-26T13:14:23.000Z</time>
      </trkpt>
      <trkpt lat="44.64823" lon="5.06092">
        <ele>402</ele>
        <time>2026-05-26T13:14:24.000Z</time>
      </trkpt>
      <trkpt lat="44.64824" lon="5.06092">
        <ele>402</ele>
        <time>2026-05-26T13:14:25.000Z</time>
      </trkpt>
      <trkpt lat="44.64825" lon="5.06092">
        <ele>402</ele>
        <time>2026-05-26T13:14:26.000Z</time>
      </trkpt>
      <trkpt lat="44.64826" lon="5.06091">
        <ele>402</ele>
        <time>2026-05-26T13:14:27.000Z</time>
      </trkpt>
      <trkpt lat="44.64828" lon="5.06091">
        <ele>402</ele>
        <time>2026-05-26T13:14:28.000Z</time>
      </trkpt>
      <trkpt lat="44.64829" lon="5.06091">
        <ele>402</ele>
        <time>2026-05-26T13:14:29.000Z</time>
      </trkpt>
      <trkpt lat="44.6483" lon="5.06091">
        <ele>402</ele>
        <time>2026-05-26T13:14:30.000Z</time>
      </trkpt>
      <trkpt lat="44.64832" lon="5.06091">
        <ele>402</ele>
        <time>2026-05-26T13:14:31.000Z</time>
      </trkpt>
      <trkpt lat="44.64833" lon="5.06092">
        <ele>403</ele>
        <time>2026-05-26T13:14:32.000Z</time>
      </trkpt>
      <trkpt lat="44.64834" lon="5.06092">
        <ele>403</ele>
        <time>2026-05-26T13:14:33.000Z</time>
      </trkpt>
      <trkpt lat="44.64835" lon="5.06092">
        <ele>404</ele>
        <time>2026-05-26T13:14:34.000Z</time>
      </trkpt>
      <trkpt lat="44.64836" lon="5.06092">
        <ele>404</ele>
        <time>2026-05-26T13:14:35.000Z</time>
      </trkpt>
      <trkpt lat="44.64838" lon="5.06092">
        <ele>404</ele>
        <time>2026-05-26T13:14:36.000Z</time>
      </trkpt>
      <trkpt lat="44.64839" lon="5.06091">
        <ele>404</ele>
        <time>2026-05-26T13:14:37.000Z</time>
      </trkpt>
      <trkpt lat="44.6484" lon="5.06091">
        <ele>404</ele>
        <time>2026-05-26T13:14:38.000Z</time>
      </trkpt>
      <trkpt lat="44.64841" lon="5.06091">
        <ele>404</ele>
        <time>2026-05-26T13:14:39.000Z</time>
      </trkpt>
      <trkpt lat="44.64843" lon="5.06091">
        <ele>404</ele>
        <time>2026-05-26T13:14:40.000Z</time>
      </trkpt>
      <trkpt lat="44.64844" lon="5.06091">
        <ele>404</ele>
        <time>2026-05-26T13:14:41.000Z</time>
      </trkpt>
      <trkpt lat="44.64845" lon="5.06091">
        <ele>405</ele>
        <time>2026-05-26T13:14:42.000Z</time>
      </trkpt>
      <trkpt lat="44.64846" lon="5.06091">
        <ele>405</ele>
        <time>2026-05-26T13:14:43.000Z</time>
      </trkpt>
      <trkpt lat="44.64847" lon="5.0609">
        <ele>405</ele>
        <time>2026-05-26T13:14:44.000Z</time>
      </trkpt>
      <trkpt lat="44.64849" lon="5.06091">
        <ele>405</ele>
        <time>2026-05-26T13:14:45.000Z</time>
      </trkpt>
      <trkpt lat="44.6485" lon="5.06091">
        <ele>405</ele>
        <time>2026-05-26T13:14:46.000Z</time>
      </trkpt>
      <trkpt lat="44.64852" lon="5.06091">
        <ele>406</ele>
        <time>2026-05-26T13:14:47.000Z</time>
      </trkpt>
      <trkpt lat="44.64853" lon="5.06091">
        <ele>406</ele>
        <time>2026-05-26T13:14:48.000Z</time>
      </trkpt>
      <trkpt lat="44.64854" lon="5.06091">
        <ele>406</ele>
        <time>2026-05-26T13:14:49.000Z</time>
      </trkpt>
      <trkpt lat="44.64855" lon="5.0609">
        <ele>406</ele>
        <time>2026-05-26T13:14:50.000Z</time>
      </trkpt>
      <trkpt lat="44.64856" lon="5.0609">
        <ele>406</ele>
        <time>2026-05-26T13:14:51.000Z</time>
      </trkpt>
      <trkpt lat="44.64858" lon="5.0609">
        <ele>406</ele>
        <time>2026-05-26T13:14:52.000Z</time>
      </trkpt>
      <trkpt lat="44.64859" lon="5.0609">
        <ele>406</ele>
        <time>2026-05-26T13:14:53.000Z</time>
      </trkpt>
      <trkpt lat="44.6486" lon="5.0609">
        <ele>406</ele>
        <time>2026-05-26T13:14:54.000Z</time>
      </trkpt>
      <trkpt lat="44.64861" lon="5.06089">
        <ele>406</ele>
        <time>2026-05-26T13:14:55.000Z</time>
      </trkpt>
      <trkpt lat="44.64863" lon="5.0609">
        <ele>406</ele>
        <time>2026-05-26T13:14:56.000Z</time>
      </trkpt>
      <trkpt lat="44.64864" lon="5.0609">
        <ele>406</ele>
        <time>2026-05-26T13:14:57.000Z</time>
      </trkpt>
      <trkpt lat="44.64865" lon="5.0609">
        <ele>407</ele>
        <time>2026-05-26T13:14:58.000Z</time>
      </trkpt>
      <trkpt lat="44.64866" lon="5.06091">
        <ele>407</ele>
        <time>2026-05-26T13:14:59.000Z</time>
      </trkpt>
      <trkpt lat="44.64867" lon="5.0609">
        <ele>407</ele>
        <time>2026-05-26T13:15:00.000Z</time>
      </trkpt>
      <trkpt lat="44.64869" lon="5.0609">
        <ele>407</ele>
        <time>2026-05-26T13:15:01.000Z</time>
      </trkpt>
      <trkpt lat="44.6487" lon="5.0609">
        <ele>408</ele>
        <time>2026-05-26T13:15:02.000Z</time>
      </trkpt>
      <trkpt lat="44.64872" lon="5.0609">
        <ele>408</ele>
        <time>2026-05-26T13:15:03.000Z</time>
      </trkpt>
      <trkpt lat="44.64873" lon="5.0609">
        <ele>408</ele>
        <time>2026-05-26T13:15:04.000Z</time>
      </trkpt>
      <trkpt lat="44.64873" lon="5.06089">
        <ele>408</ele>
        <time>2026-05-26T13:15:05.000Z</time>
      </trkpt>
      <trkpt lat="44.64875" lon="5.06089">
        <ele>408</ele>
        <time>2026-05-26T13:15:06.000Z</time>
      </trkpt>
      <trkpt lat="44.64876" lon="5.06089">
        <ele>408</ele>
        <time>2026-05-26T13:15:07.000Z</time>
      </trkpt>
      <trkpt lat="44.64877" lon="5.06089">
        <ele>409</ele>
        <time>2026-05-26T13:15:08.000Z</time>
      </trkpt>
      <trkpt lat="44.64878" lon="5.06089">
        <ele>408</ele>
        <time>2026-05-26T13:15:09.000Z</time>
      </trkpt>
      <trkpt lat="44.64879" lon="5.06089">
        <ele>408</ele>
        <time>2026-05-26T13:15:10.000Z</time>
      </trkpt>
      <trkpt lat="44.64881" lon="5.06089">
        <ele>408</ele>
        <time>2026-05-26T13:15:11.000Z</time>
      </trkpt>
      <trkpt lat="44.64882" lon="5.06089">
        <ele>409</ele>
        <time>2026-05-26T13:15:12.000Z</time>
      </trkpt>
      <trkpt lat="44.64883" lon="5.06089">
        <ele>409</ele>
        <time>2026-05-26T13:15:13.000Z</time>
      </trkpt>
      <trkpt lat="44.64884" lon="5.06089">
        <ele>409</ele>
        <time>2026-05-26T13:15:14.000Z</time>
      </trkpt>
      <trkpt lat="44.64885" lon="5.06089">
        <ele>409</ele>
        <time>2026-05-26T13:15:15.000Z</time>
      </trkpt>
      <trkpt lat="44.64886" lon="5.06089">
        <ele>410</ele>
        <time>2026-05-26T13:15:16.000Z</time>
      </trkpt>
      <trkpt lat="44.64888" lon="5.06089">
        <ele>409</ele>
        <time>2026-05-26T13:15:17.000Z</time>
      </trkpt>
      <trkpt lat="44.64889" lon="5.06089">
        <ele>409</ele>
        <time>2026-05-26T13:15:18.000Z</time>
      </trkpt>
      <trkpt lat="44.64891" lon="5.0609">
        <ele>409</ele>
        <time>2026-05-26T13:15:19.000Z</time>
      </trkpt>
      <trkpt lat="44.64892" lon="5.0609">
        <ele>409</ele>
        <time>2026-05-26T13:15:20.000Z</time>
      </trkpt>
      <trkpt lat="44.64894" lon="5.0609">
        <ele>409</ele>
        <time>2026-05-26T13:15:21.000Z</time>
      </trkpt>
      <trkpt lat="44.64894" lon="5.06089">
        <ele>409</ele>
        <time>2026-05-26T13:15:22.000Z</time>
      </trkpt>
      <trkpt lat="44.64895" lon="5.06089">
        <ele>410</ele>
        <time>2026-05-26T13:15:23.000Z</time>
      </trkpt>
      <trkpt lat="44.64896" lon="5.06089">
        <ele>410</ele>
        <time>2026-05-26T13:15:24.000Z</time>
      </trkpt>
      <trkpt lat="44.64898" lon="5.06089">
        <ele>410</ele>
        <time>2026-05-26T13:15:25.000Z</time>
      </trkpt>
      <trkpt lat="44.64899" lon="5.06089">
        <ele>410</ele>
        <time>2026-05-26T13:15:26.000Z</time>
      </trkpt>
      <trkpt lat="44.649" lon="5.06088">
        <ele>411</ele>
        <time>2026-05-26T13:15:27.000Z</time>
      </trkpt>
      <trkpt lat="44.64902" lon="5.06088">
        <ele>411</ele>
        <time>2026-05-26T13:15:28.000Z</time>
      </trkpt>
      <trkpt lat="44.64903" lon="5.06087">
        <ele>411</ele>
        <time>2026-05-26T13:15:29.000Z</time>
      </trkpt>
      <trkpt lat="44.64905" lon="5.06087">
        <ele>412</ele>
        <time>2026-05-26T13:15:30.000Z</time>
      </trkpt>
      <trkpt lat="44.64906" lon="5.06087">
        <ele>412</ele>
        <time>2026-05-26T13:15:31.000Z</time>
      </trkpt>
      <trkpt lat="44.64907" lon="5.06087">
        <ele>412</ele>
        <time>2026-05-26T13:15:32.000Z</time>
      </trkpt>
      <trkpt lat="44.64908" lon="5.06087">
        <ele>412</ele>
        <time>2026-05-26T13:15:33.000Z</time>
      </trkpt>
      <trkpt lat="44.64909" lon="5.06087">
        <ele>412</ele>
        <time>2026-05-26T13:15:34.000Z</time>
      </trkpt>
      <trkpt lat="44.64911" lon="5.06086">
        <ele>412</ele>
        <time>2026-05-26T13:15:35.000Z</time>
      </trkpt>
      <trkpt lat="44.64912" lon="5.06086">
        <ele>412</ele>
        <time>2026-05-26T13:15:36.000Z</time>
      </trkpt>
      <trkpt lat="44.64914" lon="5.06086">
        <ele>412</ele>
        <time>2026-05-26T13:15:37.000Z</time>
      </trkpt>
      <trkpt lat="44.64915" lon="5.06086">
        <ele>412</ele>
        <time>2026-05-26T13:15:38.000Z</time>
      </trkpt>
      <trkpt lat="44.64917" lon="5.06085">
        <ele>412</ele>
        <time>2026-05-26T13:15:39.000Z</time>
      </trkpt>
      <trkpt lat="44.64918" lon="5.06085">
        <ele>412</ele>
        <time>2026-05-26T13:15:40.000Z</time>
      </trkpt>
      <trkpt lat="44.64919" lon="5.06084">
        <ele>413</ele>
        <time>2026-05-26T13:15:41.000Z</time>
      </trkpt>
      <trkpt lat="44.6492" lon="5.06084">
        <ele>413</ele>
        <time>2026-05-26T13:15:42.000Z</time>
      </trkpt>
      <trkpt lat="44.6492" lon="5.06084">
        <ele>414</ele>
        <time>2026-05-26T13:15:43.000Z</time>
      </trkpt>
      <trkpt lat="44.64921" lon="5.06083">
        <ele>414</ele>
        <time>2026-05-26T13:15:44.000Z</time>
      </trkpt>
      <trkpt lat="44.64922" lon="5.06083">
        <ele>414</ele>
        <time>2026-05-26T13:15:45.000Z</time>
      </trkpt>
      <trkpt lat="44.64923" lon="5.06081">
        <ele>413</ele>
        <time>2026-05-26T13:15:46.000Z</time>
      </trkpt>
      <trkpt lat="44.64924" lon="5.0608">
        <ele>413</ele>
        <time>2026-05-26T13:15:47.000Z</time>
      </trkpt>
      <trkpt lat="44.64926" lon="5.06079">
        <ele>414</ele>
        <time>2026-05-26T13:15:48.000Z</time>
      </trkpt>
      <trkpt lat="44.64927" lon="5.06079">
        <ele>414</ele>
        <time>2026-05-26T13:15:49.000Z</time>
      </trkpt>
      <trkpt lat="44.64928" lon="5.06078">
        <ele>414</ele>
        <time>2026-05-26T13:15:50.000Z</time>
      </trkpt>
      <trkpt lat="44.64929" lon="5.06078">
        <ele>414</ele>
        <time>2026-05-26T13:15:51.000Z</time>
      </trkpt>
      <trkpt lat="44.6493" lon="5.06077">
        <ele>415</ele>
        <time>2026-05-26T13:15:52.000Z</time>
      </trkpt>
      <trkpt lat="44.64931" lon="5.06077">
        <ele>415</ele>
        <time>2026-05-26T13:15:53.000Z</time>
      </trkpt>
      <trkpt lat="44.64932" lon="5.06076">
        <ele>415</ele>
        <time>2026-05-26T13:15:54.000Z</time>
      </trkpt>
      <trkpt lat="44.64934" lon="5.06076">
        <ele>415</ele>
        <time>2026-05-26T13:15:55.000Z</time>
      </trkpt>
      <trkpt lat="44.64935" lon="5.06075">
        <ele>416</ele>
        <time>2026-05-26T13:15:56.000Z</time>
      </trkpt>
      <trkpt lat="44.64936" lon="5.06075">
        <ele>416</ele>
        <time>2026-05-26T13:15:57.000Z</time>
      </trkpt>
      <trkpt lat="44.64938" lon="5.06074">
        <ele>416</ele>
        <time>2026-05-26T13:15:58.000Z</time>
      </trkpt>
      <trkpt lat="44.64939" lon="5.06074">
        <ele>417</ele>
        <time>2026-05-26T13:15:59.000Z</time>
      </trkpt>
      <trkpt lat="44.6494" lon="5.06073">
        <ele>417</ele>
        <time>2026-05-26T13:16:00.000Z</time>
      </trkpt>
      <trkpt lat="44.64941" lon="5.06073">
        <ele>417</ele>
        <time>2026-05-26T13:16:01.000Z</time>
      </trkpt>
      <trkpt lat="44.64942" lon="5.06073">
        <ele>417</ele>
        <time>2026-05-26T13:16:02.000Z</time>
      </trkpt>
      <trkpt lat="44.64943" lon="5.06072">
        <ele>418</ele>
        <time>2026-05-26T13:16:03.000Z</time>
      </trkpt>
      <trkpt lat="44.64944" lon="5.06071">
        <ele>418</ele>
        <time>2026-05-26T13:16:04.000Z</time>
      </trkpt>
      <trkpt lat="44.64946" lon="5.0607">
        <ele>418</ele>
        <time>2026-05-26T13:16:05.000Z</time>
      </trkpt>
      <trkpt lat="44.64947" lon="5.0607">
        <ele>418</ele>
        <time>2026-05-26T13:16:06.000Z</time>
      </trkpt>
      <trkpt lat="44.64948" lon="5.06069">
        <ele>418</ele>
        <time>2026-05-26T13:16:07.000Z</time>
      </trkpt>
      <trkpt lat="44.64949" lon="5.06068">
        <ele>418</ele>
        <time>2026-05-26T13:16:08.000Z</time>
      </trkpt>
      <trkpt lat="44.6495" lon="5.06067">
        <ele>419</ele>
        <time>2026-05-26T13:16:09.000Z</time>
      </trkpt>
      <trkpt lat="44.64951" lon="5.06066">
        <ele>419</ele>
        <time>2026-05-26T13:16:10.000Z</time>
      </trkpt>
      <trkpt lat="44.64952" lon="5.06066">
        <ele>419</ele>
        <time>2026-05-26T13:16:11.000Z</time>
      </trkpt>
      <trkpt lat="44.64953" lon="5.06065">
        <ele>419</ele>
        <time>2026-05-26T13:16:12.000Z</time>
      </trkpt>
      <trkpt lat="44.64955" lon="5.06064">
        <ele>419</ele>
        <time>2026-05-26T13:16:13.000Z</time>
      </trkpt>
      <trkpt lat="44.64956" lon="5.06064">
        <ele>419</ele>
        <time>2026-05-26T13:16:14.000Z</time>
      </trkpt>
      <trkpt lat="44.64957" lon="5.06063">
        <ele>419</ele>
        <time>2026-05-26T13:16:15.000Z</time>
      </trkpt>
      <trkpt lat="44.64958" lon="5.06062">
        <ele>419</ele>
        <time>2026-05-26T13:16:16.000Z</time>
      </trkpt>
      <trkpt lat="44.64959" lon="5.06061">
        <ele>419</ele>
        <time>2026-05-26T13:16:17.000Z</time>
      </trkpt>
      <trkpt lat="44.6496" lon="5.0606">
        <ele>420</ele>
        <time>2026-05-26T13:16:18.000Z</time>
      </trkpt>
      <trkpt lat="44.64961" lon="5.06059">
        <ele>420</ele>
        <time>2026-05-26T13:16:19.000Z</time>
      </trkpt>
      <trkpt lat="44.64962" lon="5.06058">
        <ele>420</ele>
        <time>2026-05-26T13:16:20.000Z</time>
      </trkpt>
      <trkpt lat="44.64963" lon="5.06057">
        <ele>420</ele>
        <time>2026-05-26T13:16:21.000Z</time>
      </trkpt>
      <trkpt lat="44.64963" lon="5.06055">
        <ele>421</ele>
        <time>2026-05-26T13:16:22.000Z</time>
      </trkpt>
      <trkpt lat="44.64965" lon="5.06054">
        <ele>421</ele>
        <time>2026-05-26T13:16:23.000Z</time>
      </trkpt>
      <trkpt lat="44.64966" lon="5.06053">
        <ele>421</ele>
        <time>2026-05-26T13:16:24.000Z</time>
      </trkpt>
      <trkpt lat="44.64967" lon="5.06052">
        <ele>421</ele>
        <time>2026-05-26T13:16:25.000Z</time>
      </trkpt>
      <trkpt lat="44.64968" lon="5.0605">
        <ele>421</ele>
        <time>2026-05-26T13:16:26.000Z</time>
      </trkpt>
      <trkpt lat="44.64969" lon="5.06049">
        <ele>421</ele>
        <time>2026-05-26T13:16:27.000Z</time>
      </trkpt>
      <trkpt lat="44.6497" lon="5.06048">
        <ele>421</ele>
        <time>2026-05-26T13:16:28.000Z</time>
      </trkpt>
      <trkpt lat="44.64971" lon="5.06046">
        <ele>421</ele>
        <time>2026-05-26T13:16:29.000Z</time>
      </trkpt>
      <trkpt lat="44.64972" lon="5.06046">
        <ele>420</ele>
        <time>2026-05-26T13:16:30.000Z</time>
      </trkpt>
      <trkpt lat="44.64973" lon="5.06044">
        <ele>420</ele>
        <time>2026-05-26T13:16:31.000Z</time>
      </trkpt>
      <trkpt lat="44.64973" lon="5.06043">
        <ele>420</ele>
        <time>2026-05-26T13:16:32.000Z</time>
      </trkpt>
      <trkpt lat="44.64973" lon="5.06042">
        <ele>421</ele>
        <time>2026-05-26T13:16:33.000Z</time>
      </trkpt>
      <trkpt lat="44.64974" lon="5.06041">
        <ele>421</ele>
        <time>2026-05-26T13:16:34.000Z</time>
      </trkpt>
      <trkpt lat="44.64974" lon="5.0604">
        <ele>422</ele>
        <time>2026-05-26T13:16:35.000Z</time>
      </trkpt>
      <trkpt lat="44.64975" lon="5.06039">
        <ele>422</ele>
        <time>2026-05-26T13:16:36.000Z</time>
      </trkpt>
      <trkpt lat="44.64976" lon="5.06038">
        <ele>423</ele>
        <time>2026-05-26T13:16:37.000Z</time>
      </trkpt>
      <trkpt lat="44.64977" lon="5.06036">
        <ele>423</ele>
        <time>2026-05-26T13:16:38.000Z</time>
      </trkpt>
      <trkpt lat="44.64977" lon="5.06035">
        <ele>424</ele>
        <time>2026-05-26T13:16:39.000Z</time>
      </trkpt>
      <trkpt lat="44.64978" lon="5.06034">
        <ele>423</ele>
        <time>2026-05-26T13:16:40.000Z</time>
      </trkpt>
      <trkpt lat="44.64979" lon="5.06033">
        <ele>423</ele>
        <time>2026-05-26T13:16:41.000Z</time>
      </trkpt>
      <trkpt lat="44.6498" lon="5.06031">
        <ele>423</ele>
        <time>2026-05-26T13:16:42.000Z</time>
      </trkpt>
      <trkpt lat="44.6498" lon="5.0603">
        <ele>423</ele>
        <time>2026-05-26T13:16:43.000Z</time>
      </trkpt>
      <trkpt lat="44.64981" lon="5.06029">
        <ele>423</ele>
        <time>2026-05-26T13:16:44.000Z</time>
      </trkpt>
      <trkpt lat="44.64983" lon="5.06028">
        <ele>423</ele>
        <time>2026-05-26T13:16:45.000Z</time>
      </trkpt>
      <trkpt lat="44.64983" lon="5.06026">
        <ele>424</ele>
        <time>2026-05-26T13:16:46.000Z</time>
      </trkpt>
      <trkpt lat="44.64984" lon="5.06026">
        <ele>424</ele>
        <time>2026-05-26T13:16:47.000Z</time>
      </trkpt>
      <trkpt lat="44.64985" lon="5.06025">
        <ele>424</ele>
        <time>2026-05-26T13:16:48.000Z</time>
      </trkpt>
      <trkpt lat="44.64986" lon="5.06025">
        <ele>424</ele>
        <time>2026-05-26T13:16:49.000Z</time>
      </trkpt>
      <trkpt lat="44.64987" lon="5.06024">
        <ele>425</ele>
        <time>2026-05-26T13:16:50.000Z</time>
      </trkpt>
      <trkpt lat="44.64988" lon="5.06022">
        <ele>425</ele>
        <time>2026-05-26T13:16:51.000Z</time>
      </trkpt>
      <trkpt lat="44.64989" lon="5.06021">
        <ele>425</ele>
        <time>2026-05-26T13:16:52.000Z</time>
      </trkpt>
      <trkpt lat="44.6499" lon="5.0602">
        <ele>426</ele>
        <time>2026-05-26T13:16:53.000Z</time>
      </trkpt>
      <trkpt lat="44.64991" lon="5.06019">
        <ele>426</ele>
        <time>2026-05-26T13:16:54.000Z</time>
      </trkpt>
      <trkpt lat="44.64992" lon="5.06018">
        <ele>427</ele>
        <time>2026-05-26T13:16:55.000Z</time>
      </trkpt>
      <trkpt lat="44.64993" lon="5.06017">
        <ele>427</ele>
        <time>2026-05-26T13:16:56.000Z</time>
      </trkpt>
      <trkpt lat="44.64993" lon="5.06016">
        <ele>428</ele>
        <time>2026-05-26T13:16:57.000Z</time>
      </trkpt>
      <trkpt lat="44.64994" lon="5.06015">
        <ele>428</ele>
        <time>2026-05-26T13:16:58.000Z</time>
      </trkpt>
      <trkpt lat="44.64995" lon="5.06014">
        <ele>428</ele>
        <time>2026-05-26T13:16:59.000Z</time>
      </trkpt>
      <trkpt lat="44.64995" lon="5.06013">
        <ele>428</ele>
        <time>2026-05-26T13:17:00.000Z</time>
      </trkpt>
      <trkpt lat="44.64997" lon="5.06012">
        <ele>429</ele>
        <time>2026-05-26T13:17:01.000Z</time>
      </trkpt>
      <trkpt lat="44.64997" lon="5.06011">
        <ele>429</ele>
        <time>2026-05-26T13:17:02.000Z</time>
      </trkpt>
      <trkpt lat="44.64998" lon="5.0601">
        <ele>430</ele>
        <time>2026-05-26T13:17:03.000Z</time>
      </trkpt>
      <trkpt lat="44.65" lon="5.0601">
        <ele>430</ele>
        <time>2026-05-26T13:17:04.000Z</time>
      </trkpt>
      <trkpt lat="44.65001" lon="5.06009">
        <ele>430</ele>
        <time>2026-05-26T13:17:05.000Z</time>
      </trkpt>
      <trkpt lat="44.65002" lon="5.06008">
        <ele>430</ele>
        <time>2026-05-26T13:17:06.000Z</time>
      </trkpt>
      <trkpt lat="44.65003" lon="5.06007">
        <ele>430</ele>
        <time>2026-05-26T13:17:07.000Z</time>
      </trkpt>
      <trkpt lat="44.65003" lon="5.06006">
        <ele>430</ele>
        <time>2026-05-26T13:17:08.000Z</time>
      </trkpt>
      <trkpt lat="44.65004" lon="5.06005">
        <ele>430</ele>
        <time>2026-05-26T13:17:09.000Z</time>
      </trkpt>
      <trkpt lat="44.65005" lon="5.06003">
        <ele>430</ele>
        <time>2026-05-26T13:17:10.000Z</time>
      </trkpt>
      <trkpt lat="44.65006" lon="5.06003">
        <ele>430</ele>
        <time>2026-05-26T13:17:11.000Z</time>
      </trkpt>
      <trkpt lat="44.65007" lon="5.06001">
        <ele>431</ele>
        <time>2026-05-26T13:17:12.000Z</time>
      </trkpt>
      <trkpt lat="44.65009" lon="5.06001">
        <ele>431</ele>
        <time>2026-05-26T13:17:13.000Z</time>
      </trkpt>
      <trkpt lat="44.6501" lon="5.06">
        <ele>431</ele>
        <time>2026-05-26T13:17:14.000Z</time>
      </trkpt>
      <trkpt lat="44.6501" lon="5.05999">
        <ele>431</ele>
        <time>2026-05-26T13:17:15.000Z</time>
      </trkpt>
      <trkpt lat="44.65011" lon="5.05998">
        <ele>431</ele>
        <time>2026-05-26T13:17:16.000Z</time>
      </trkpt>
      <trkpt lat="44.65012" lon="5.05998">
        <ele>432</ele>
        <time>2026-05-26T13:17:17.000Z</time>
      </trkpt>
      <trkpt lat="44.65013" lon="5.05997">
        <ele>432</ele>
        <time>2026-05-26T13:17:18.000Z</time>
      </trkpt>
      <trkpt lat="44.65014" lon="5.05996">
        <ele>432</ele>
        <time>2026-05-26T13:17:19.000Z</time>
      </trkpt>
      <trkpt lat="44.65014" lon="5.05994">
        <ele>432</ele>
        <time>2026-05-26T13:17:20.000Z</time>
      </trkpt>
      <trkpt lat="44.65015" lon="5.05993">
        <ele>433</ele>
        <time>2026-05-26T13:17:21.000Z</time>
      </trkpt>
      <trkpt lat="44.65016" lon="5.05991">
        <ele>433</ele>
        <time>2026-05-26T13:17:22.000Z</time>
      </trkpt>
      <trkpt lat="44.65017" lon="5.0599">
        <ele>433</ele>
        <time>2026-05-26T13:17:23.000Z</time>
      </trkpt>
      <trkpt lat="44.65018" lon="5.05988">
        <ele>433</ele>
        <time>2026-05-26T13:17:24.000Z</time>
      </trkpt>
      <trkpt lat="44.65019" lon="5.05986">
        <ele>433</ele>
        <time>2026-05-26T13:17:25.000Z</time>
      </trkpt>
      <trkpt lat="44.65019" lon="5.05984">
        <ele>433</ele>
        <time>2026-05-26T13:17:26.000Z</time>
      </trkpt>
      <trkpt lat="44.6502" lon="5.05982">
        <ele>433</ele>
        <time>2026-05-26T13:17:27.000Z</time>
      </trkpt>
      <trkpt lat="44.6502" lon="5.0598">
        <ele>434</ele>
        <time>2026-05-26T13:17:28.000Z</time>
      </trkpt>
      <trkpt lat="44.6502" lon="5.05979">
        <ele>434</ele>
        <time>2026-05-26T13:17:29.000Z</time>
      </trkpt>
      <trkpt lat="44.6502" lon="5.05978">
        <ele>434</ele>
        <time>2026-05-26T13:17:30.000Z</time>
      </trkpt>
      <trkpt lat="44.6502" lon="5.05976">
        <ele>435</ele>
        <time>2026-05-26T13:17:31.000Z</time>
      </trkpt>
      <trkpt lat="44.6502" lon="5.05975">
        <ele>435</ele>
        <time>2026-05-26T13:17:32.000Z</time>
      </trkpt>
      <trkpt lat="44.6502" lon="5.05974">
        <ele>435</ele>
        <time>2026-05-26T13:17:33.000Z</time>
      </trkpt>
      <trkpt lat="44.65021" lon="5.05973">
        <ele>435</ele>
        <time>2026-05-26T13:17:34.000Z</time>
      </trkpt>
      <trkpt lat="44.65022" lon="5.05973">
        <ele>435</ele>
        <time>2026-05-26T13:17:35.000Z</time>
      </trkpt>
      <trkpt lat="44.65022" lon="5.05972">
        <ele>435</ele>
        <time>2026-05-26T13:17:36.000Z</time>
      </trkpt>
      <trkpt lat="44.65021" lon="5.05971">
        <ele>435</ele>
        <time>2026-05-26T13:17:37.000Z</time>
      </trkpt>
      <trkpt lat="44.65021" lon="5.0597">
        <ele>435</ele>
        <time>2026-05-26T13:17:38.000Z</time>
      </trkpt>
      <trkpt lat="44.65021" lon="5.0597">
        <ele>435</ele>
        <time>2026-05-26T13:17:39.000Z</time>
      </trkpt>
      <trkpt lat="44.65021" lon="5.05971">
        <ele>435</ele>
        <time>2026-05-26T13:17:40.000Z</time>
      </trkpt>
      <trkpt lat="44.65021" lon="5.05971">
        <ele>435</ele>
        <time>2026-05-26T13:17:41.000Z</time>
      </trkpt>
      <trkpt lat="44.65021" lon="5.05971">
        <ele>435</ele>
        <time>2026-05-26T13:17:42.000Z</time>
      </trkpt>
      <trkpt lat="44.65021" lon="5.05971">
        <ele>435</ele>
        <time>2026-05-26T13:17:43.000Z</time>
      </trkpt>
      <trkpt lat="44.65021" lon="5.05971">
        <ele>435</ele>
        <time>2026-05-26T13:17:44.000Z</time>
      </trkpt>
      <trkpt lat="44.65021" lon="5.05971">
        <ele>435</ele>
        <time>2026-05-26T13:17:45.000Z</time>
      </trkpt>
      <trkpt lat="44.65021" lon="5.05971">
        <ele>435</ele>
        <time>2026-05-26T13:17:46.000Z</time>
      </trkpt>
      <trkpt lat="44.65021" lon="5.05971">
        <ele>435</ele>
        <time>2026-05-26T13:17:47.000Z</time>
      </trkpt>
      <trkpt lat="44.65021" lon="5.05971">
        <ele>435</ele>
        <time>2026-05-26T13:17:48.000Z</time>
      </trkpt>
      <trkpt lat="44.65021" lon="5.05971">
        <ele>435</ele>
        <time>2026-05-26T13:17:49.000Z</time>
      </trkpt>
      <trkpt lat="44.65021" lon="5.05971">
        <ele>435</ele>
        <time>2026-05-26T13:17:50.000Z</time>
      </trkpt>
      <trkpt lat="44.65021" lon="5.05971">
        <ele>435</ele>
        <time>2026-05-26T13:17:51.000Z</time>
      </trkpt>
    </trkseg>
  </trk>
</gpx>